<?xml version='1.0' encoding='UTF-8'?><gpx version="1.1" creator="JPX - https://github.com/jenetics/jpx" xmlns="http://www.topografix.com/GPX/1/1"><trk><trkseg><trkpt lat="42.5676656446662" lon="12.621894774441715"><ele>118.00000000000001</ele><time>2026-05-02T08:30:48.999Z</time></trkpt><trkpt lat="42.567630441337" lon="12.621972450308615"><ele>118.0</ele><time>2026-05-02T08:30:50.999Z</time></trkpt><trkpt lat="42.5675377997183" lon="12.6220009659569"><ele>118.0</ele><time>2026-05-02T08:31:30.998Z</time></trkpt><trkpt lat="42.56747510474653" lon="12.621987607624371"><ele>118.0</ele><time>2026-05-02T08:31:31.998Z</time></trkpt><trkpt lat="42.567407194172524" lon="12.621977759503201"><ele>118.00000000000001</ele><time>2026-05-02T08:31:32.998Z</time></trkpt><trkpt lat="42.56733755125721" lon="12.621966511801443"><ele>118.0</ele><time>2026-05-02T08:31:33.998Z</time></trkpt><trkpt lat="42.56722816538676" lon="12.621963195780852"><ele>118.00000000000001</ele><time>2026-05-02T08:31:35.998Z</time></trkpt><trkpt lat="42.56714364524077" lon="12.621869202293095"><ele>118.0</ele><time>2026-05-02T08:31:37.998Z</time></trkpt><trkpt lat="42.567134451335136" lon="12.621781424566512"><ele>118.0</ele><time>2026-05-02T08:31:38.998Z</time></trkpt><trkpt lat="42.56713298331555" lon="12.621687539519597"><ele>118.0</ele><time>2026-05-02T08:31:39.998Z</time></trkpt><trkpt lat="42.56712494170937" lon="12.621561717009063"><ele>118.00000000000001</ele><time>2026-05-02T08:31:40.998Z</time></trkpt><trkpt lat="42.56711780452076" lon="12.621443819964945"><ele>118.0</ele><time>2026-05-02T08:31:41.998Z</time></trkpt><trkpt lat="42.56711361666314" lon="12.62131118933241"><ele>118.0</ele><time>2026-05-02T08:31:42.998Z</time></trkpt><trkpt lat="42.567114733991936" lon="12.621158843536465"><ele>118.0</ele><time>2026-05-02T08:31:43.998Z</time></trkpt><trkpt lat="42.56711274515415" lon="12.620988428581112"><ele>118.0</ele><time>2026-05-02T08:31:44.998Z</time></trkpt><trkpt lat="42.567106353169216" lon="12.620831100756538"><ele>118.0</ele><time>2026-05-02T08:31:45.998Z</time></trkpt><trkpt lat="42.567096881219506" lon="12.620662754634695"><ele>117.25</ele><time>2026-05-02T08:31:46.998Z</time></trkpt><trkpt lat="42.567090049309776" lon="12.620492603619402"><ele>116.5</ele><time>2026-05-02T08:31:47.998Z</time></trkpt><trkpt lat="42.567084393684894" lon="12.620314004339415"><ele>115.75</ele><time>2026-05-02T08:31:48.998Z</time></trkpt><trkpt lat="42.567076352426454" lon="12.620134590007146"><ele>115.0</ele><time>2026-05-02T08:31:49.998Z</time></trkpt><trkpt lat="42.56706975312351" lon="12.619940143965916"><ele>115.0</ele><time>2026-05-02T08:31:50.998Z</time></trkpt><trkpt lat="42.56706085702838" lon="12.61975449389812"><ele>115.0</ele><time>2026-05-02T08:31:51.998Z</time></trkpt><trkpt lat="42.56705242415392" lon="12.619558516951269"><ele>115.0</ele><time>2026-05-02T08:31:52.998Z</time></trkpt><trkpt lat="42.56704357518884" lon="12.61936085587674"><ele>115.0</ele><time>2026-05-02T08:31:53.998Z</time></trkpt><trkpt lat="42.56703601592719" lon="12.619159825483022"><ele>115.0</ele><time>2026-05-02T08:31:54.998Z</time></trkpt><trkpt lat="42.56703412286506" lon="12.6189616349447"><ele>115.0</ele><time>2026-05-02T08:31:55.998Z</time></trkpt><trkpt lat="42.567029610284955" lon="12.618783291226451"><ele>115.0</ele><time>2026-05-02T08:31:56.998Z</time></trkpt><trkpt lat="42.56702434384394" lon="12.618610914349196"><ele>115.0</ele><time>2026-05-02T08:31:57.998Z</time></trkpt><trkpt lat="42.56700667271898" lon="12.61844430056074"><ele>114.75</ele><time>2026-05-02T08:31:58.998Z</time></trkpt><trkpt lat="42.567001083917724" lon="12.618267052942162"><ele>114.5</ele><time>2026-05-02T08:31:59.998Z</time></trkpt><trkpt lat="42.566996353016414" lon="12.618086988332815"><ele>114.25</ele><time>2026-05-02T08:32:00.998Z</time></trkpt><trkpt lat="42.56700706436121" lon="12.617902641163136"><ele>114.0</ele><time>2026-05-02T08:32:01.998Z</time></trkpt><trkpt lat="42.567002306589565" lon="12.6177245068922"><ele>113.5</ele><time>2026-05-02T08:32:02.998Z</time></trkpt><trkpt lat="42.566998879601805" lon="12.617540526671092"><ele>113.0</ele><time>2026-05-02T08:32:03.998Z</time></trkpt><trkpt lat="42.56699225676665" lon="12.617363603742271"><ele>112.5</ele><time>2026-05-02T08:32:04.998Z</time></trkpt><trkpt lat="42.566990621902455" lon="12.617192635630206"><ele>112.0</ele><time>2026-05-02T08:32:05.998Z</time></trkpt><trkpt lat="42.566995348203655" lon="12.61702008337578"><ele>111.75</ele><time>2026-05-02T08:32:06.998Z</time></trkpt><trkpt lat="42.566999600935056" lon="12.61684617083953"><ele>111.5</ele><time>2026-05-02T08:32:07.998Z</time></trkpt><trkpt lat="42.567005862682635" lon="12.616670959588099"><ele>111.25</ele><time>2026-05-02T08:32:08.998Z</time></trkpt><trkpt lat="42.5670141686657" lon="12.61649491458746"><ele>111.0</ele><time>2026-05-02T08:32:09.998Z</time></trkpt><trkpt lat="42.56702433613493" lon="12.616316434240623"><ele>111.5</ele><time>2026-05-02T08:32:10.997Z</time></trkpt><trkpt lat="42.56703561606863" lon="12.61613721101586"><ele>112.0</ele><time>2026-05-02T08:32:11.997Z</time></trkpt><trkpt lat="42.56704805697116" lon="12.615954501723932"><ele>112.5</ele><time>2026-05-02T08:32:12.997Z</time></trkpt><trkpt lat="42.56706424764631" lon="12.615775773997898"><ele>113.0</ele><time>2026-05-02T08:32:13.997Z</time></trkpt><trkpt lat="42.5670789460014" lon="12.615598886788883"><ele>113.0</ele><time>2026-05-02T08:32:14.997Z</time></trkpt><trkpt lat="42.56709369390718" lon="12.615420691606301"><ele>113.0</ele><time>2026-05-02T08:32:15.997Z</time></trkpt><trkpt lat="42.56711249441407" lon="12.615247382180732"><ele>113.0</ele><time>2026-05-02T08:32:16.997Z</time></trkpt><trkpt lat="42.567126932048474" lon="12.615078029268382"><ele>113.0</ele><time>2026-05-02T08:32:17.997Z</time></trkpt><trkpt lat="42.56714456699548" lon="12.61490990844014"><ele>113.25</ele><time>2026-05-02T08:32:18.997Z</time></trkpt><trkpt lat="42.56716237420544" lon="12.614762573728168"><ele>113.5</ele><time>2026-05-02T08:32:19.997Z</time></trkpt><trkpt lat="42.567183441553105" lon="12.614613722194846"><ele>113.75</ele><time>2026-05-02T08:32:20.997Z</time></trkpt><trkpt lat="42.56723019988585" lon="12.614462100112732"><ele>114.0</ele><time>2026-05-02T08:32:21.997Z</time></trkpt><trkpt lat="42.567279055771586" lon="12.614305189216278"><ele>114.0</ele><time>2026-05-02T08:32:22.997Z</time></trkpt><trkpt lat="42.56729012850772" lon="12.614133906301591"><ele>114.0</ele><time>2026-05-02T08:32:23.997Z</time></trkpt><trkpt lat="42.567259120515494" lon="12.613950031160714"><ele>114.0</ele><time>2026-05-02T08:32:24.997Z</time></trkpt><trkpt lat="42.567250932040174" lon="12.613764074199224"><ele>114.0</ele><time>2026-05-02T08:32:25.997Z</time></trkpt><trkpt lat="42.56726943022137" lon="12.613577495640312"><ele>113.5</ele><time>2026-05-02T08:32:26.997Z</time></trkpt><trkpt lat="42.567285209490194" lon="12.61338391722287"><ele>113.0</ele><time>2026-05-02T08:32:27.997Z</time></trkpt><trkpt lat="42.56730281257924" lon="12.613195983033483"><ele>112.5</ele><time>2026-05-02T08:32:28.997Z</time></trkpt><trkpt lat="42.56731767427197" lon="12.613004149364157"><ele>112.0</ele><time>2026-05-02T08:32:29.997Z</time></trkpt><trkpt lat="42.5673329134045" lon="12.612812958300626"><ele>112.0</ele><time>2026-05-02T08:32:30.997Z</time></trkpt><trkpt lat="42.567343259173654" lon="12.612621185631452"><ele>112.0</ele><time>2026-05-02T08:32:31.997Z</time></trkpt><trkpt lat="42.567349748381574" lon="12.612432980929428"><ele>112.0</ele><time>2026-05-02T08:32:32.997Z</time></trkpt><trkpt lat="42.56735313827205" lon="12.61224647554512"><ele>112.0</ele><time>2026-05-02T08:32:33.997Z</time></trkpt><trkpt lat="42.56735815897338" lon="12.612060659680166"><ele>111.75</ele><time>2026-05-02T08:32:34.997Z</time></trkpt><trkpt lat="42.567358145252385" lon="12.61187258162753"><ele>111.5</ele><time>2026-05-02T08:32:35.997Z</time></trkpt><trkpt lat="42.56735296380192" lon="12.611681544996728"><ele>111.25</ele><time>2026-05-02T08:32:36.997Z</time></trkpt><trkpt lat="42.567328481040484" lon="12.611488294517805"><ele>111.0</ele><time>2026-05-02T08:32:37.997Z</time></trkpt><trkpt lat="42.567314957711865" lon="12.611292738962485"><ele>111.0</ele><time>2026-05-02T08:32:38.997Z</time></trkpt><trkpt lat="42.56729702781161" lon="12.61110287473981"><ele>111.0</ele><time>2026-05-02T08:32:39.997Z</time></trkpt><trkpt lat="42.567270528718964" lon="12.610918176186647"><ele>111.0</ele><time>2026-05-02T08:32:40.997Z</time></trkpt><trkpt lat="42.56724229400295" lon="12.610730749701702"><ele>111.0</ele><time>2026-05-02T08:32:41.997Z</time></trkpt><trkpt lat="42.56721708884922" lon="12.610563433916896"><ele>111.0</ele><time>2026-05-02T08:32:42.997Z</time></trkpt><trkpt lat="42.567190695057256" lon="12.610412393163612"><ele>111.0</ele><time>2026-05-02T08:32:43.997Z</time></trkpt><trkpt lat="42.567161847717365" lon="12.610255212988582"><ele>111.0</ele><time>2026-05-02T08:32:44.997Z</time></trkpt><trkpt lat="42.567134228471915" lon="12.61010657111678"><ele>111.0</ele><time>2026-05-02T08:32:45.997Z</time></trkpt><trkpt lat="42.56710786481828" lon="12.609961298103581"><ele>111.0</ele><time>2026-05-02T08:32:46.997Z</time></trkpt><trkpt lat="42.567081407609884" lon="12.609813666704444"><ele>111.0</ele><time>2026-05-02T08:32:47.997Z</time></trkpt><trkpt lat="42.56705661741203" lon="12.609675337238794"><ele>111.0</ele><time>2026-05-02T08:32:48.997Z</time></trkpt><trkpt lat="42.56703136707403" lon="12.609535693218728"><ele>111.0</ele><time>2026-05-02T08:32:49.997Z</time></trkpt><trkpt lat="42.56701689121004" lon="12.609391417808421"><ele>111.0</ele><time>2026-05-02T08:32:50.997Z</time></trkpt><trkpt lat="42.56699080037199" lon="12.609253286202408"><ele>110.8</ele><time>2026-05-02T08:32:51.997Z</time></trkpt><trkpt lat="42.566964408652744" lon="12.609116982998495"><ele>110.6</ele><time>2026-05-02T08:32:52.997Z</time></trkpt><trkpt lat="42.56694100904154" lon="12.608981378378"><ele>110.4</ele><time>2026-05-02T08:32:53.997Z</time></trkpt><trkpt lat="42.56692069321067" lon="12.608841874919476"><ele>110.2</ele><time>2026-05-02T08:32:54.997Z</time></trkpt><trkpt lat="42.56690571158717" lon="12.60870648792581"><ele>110.0</ele><time>2026-05-02T08:32:55.997Z</time></trkpt><trkpt lat="42.566894943801515" lon="12.60857007749354"><ele>109.8</ele><time>2026-05-02T08:32:56.997Z</time></trkpt><trkpt lat="42.56688742162931" lon="12.608434098295366"><ele>109.6</ele><time>2026-05-02T08:32:57.997Z</time></trkpt><trkpt lat="42.56688098600402" lon="12.60829874917133"><ele>109.4</ele><time>2026-05-02T08:32:58.997Z</time></trkpt><trkpt lat="42.56687129716058" lon="12.608160134229948"><ele>109.2</ele><time>2026-05-02T08:32:59.997Z</time></trkpt><trkpt lat="42.56686020394647" lon="12.608020512551708"><ele>109.0</ele><time>2026-05-02T08:33:00.997Z</time></trkpt><trkpt lat="42.566850375707205" lon="12.607877723020385"><ele>109.2</ele><time>2026-05-02T08:33:01.997Z</time></trkpt><trkpt lat="42.56684151529179" lon="12.60773886428177"><ele>109.4</ele><time>2026-05-02T08:33:02.997Z</time></trkpt><trkpt lat="42.566833476231416" lon="12.6076027066413"><ele>109.6</ele><time>2026-05-02T08:33:03.997Z</time></trkpt><trkpt lat="42.56682359778565" lon="12.607468280649208"><ele>109.8</ele><time>2026-05-02T08:33:04.997Z</time></trkpt><trkpt lat="42.566815164033926" lon="12.607332221601592"><ele>110.0</ele><time>2026-05-02T08:33:05.997Z</time></trkpt><trkpt lat="42.56680657719252" lon="12.607201849125179"><ele>110.0</ele><time>2026-05-02T08:33:06.997Z</time></trkpt><trkpt lat="42.56679959284261" lon="12.607068356439973"><ele>110.0</ele><time>2026-05-02T08:33:07.997Z</time></trkpt><trkpt lat="42.566797851260205" lon="12.60692490955799"><ele>110.0</ele><time>2026-05-02T08:33:08.997Z</time></trkpt><trkpt lat="42.566798505002275" lon="12.606778054135795"><ele>110.0</ele><time>2026-05-02T08:33:09.997Z</time></trkpt><trkpt lat="42.56680179935248" lon="12.606628924268396"><ele>110.0</ele><time>2026-05-02T08:33:10.997Z</time></trkpt><trkpt lat="42.56680755420269" lon="12.60648289551965"><ele>109.99999999999999</ele><time>2026-05-02T08:33:11.997Z</time></trkpt><trkpt lat="42.5668129482104" lon="12.606352499065597"><ele>110.0</ele><time>2026-05-02T08:33:12.997Z</time></trkpt><trkpt lat="42.5668251556666" lon="12.606239655426702"><ele>110.0</ele><time>2026-05-02T08:33:13.997Z</time></trkpt><trkpt lat="42.566838200846156" lon="12.606133794735516"><ele>110.0</ele><time>2026-05-02T08:33:14.997Z</time></trkpt><trkpt lat="42.566850858205534" lon="12.606025140497916"><ele>109.99999999999999</ele><time>2026-05-02T08:33:15.997Z</time></trkpt><trkpt lat="42.566867642158925" lon="12.605891542626841"><ele>110.0</ele><time>2026-05-02T08:33:16.997Z</time></trkpt><trkpt lat="42.56688915029507" lon="12.605735361836105"><ele>110.0</ele><time>2026-05-02T08:33:17.997Z</time></trkpt><trkpt lat="42.566894391241604" lon="12.60554976050532"><ele>110.0</ele><time>2026-05-02T08:33:18.997Z</time></trkpt><trkpt lat="42.566933637690006" lon="12.605361053728995"><ele>110.0</ele><time>2026-05-02T08:33:19.997Z</time></trkpt><trkpt lat="42.5669767909311" lon="12.605149675661595"><ele>110.0</ele><time>2026-05-02T08:33:20.997Z</time></trkpt><trkpt lat="42.56700452365479" lon="12.604947413583316"><ele>110.0</ele><time>2026-05-02T08:33:21.997Z</time></trkpt><trkpt lat="42.567046347887604" lon="12.604754816871067"><ele>110.0</ele><time>2026-05-02T08:33:22.997Z</time></trkpt><trkpt lat="42.56709656590889" lon="12.604564132819766"><ele>110.0</ele><time>2026-05-02T08:33:23.997Z</time></trkpt><trkpt lat="42.567149804938026" lon="12.604375652221895"><ele>110.0</ele><time>2026-05-02T08:33:24.997Z</time></trkpt><trkpt lat="42.56719957119697" lon="12.604183790425875"><ele>109.0</ele><time>2026-05-02T08:33:25.997Z</time></trkpt><trkpt lat="42.567253633573536" lon="12.6039788379741"><ele>108.0</ele><time>2026-05-02T08:33:26.997Z</time></trkpt><trkpt lat="42.567307818388954" lon="12.603773421224377"><ele>107.0</ele><time>2026-05-02T08:33:27.996Z</time></trkpt><trkpt lat="42.56736419724859" lon="12.603571131119043"><ele>106.66666666666666</ele><time>2026-05-02T08:33:28.996Z</time></trkpt><trkpt lat="42.567419625998696" lon="12.603361588120853"><ele>106.33333333333334</ele><time>2026-05-02T08:33:29.996Z</time></trkpt><trkpt lat="42.567474372153676" lon="12.603142502195448"><ele>106.0</ele><time>2026-05-02T08:33:30.996Z</time></trkpt><trkpt lat="42.567529417155185" lon="12.602912810324055"><ele>106.33333333333334</ele><time>2026-05-02T08:33:31.996Z</time></trkpt><trkpt lat="42.567579650176924" lon="12.602678498344613"><ele>106.66666666666666</ele><time>2026-05-02T08:33:32.996Z</time></trkpt><trkpt lat="42.56762449103256" lon="12.602427923650914"><ele>107.0</ele><time>2026-05-02T08:33:33.996Z</time></trkpt><trkpt lat="42.56765680548207" lon="12.602166407713552"><ele>106.66666666666666</ele><time>2026-05-02T08:33:34.996Z</time></trkpt><trkpt lat="42.56767509122936" lon="12.601900786477733"><ele>106.33333333333334</ele><time>2026-05-02T08:33:35.996Z</time></trkpt><trkpt lat="42.567685412950084" lon="12.60163501879803"><ele>106.0</ele><time>2026-05-02T08:33:36.996Z</time></trkpt><trkpt lat="42.56769106081708" lon="12.601365736613998"><ele>106.0</ele><time>2026-05-02T08:33:37.996Z</time></trkpt><trkpt lat="42.567690989735205" lon="12.601095536205925"><ele>106.0</ele><time>2026-05-02T08:33:38.996Z</time></trkpt><trkpt lat="42.5676789780492" lon="12.600829590915016"><ele>106.0</ele><time>2026-05-02T08:33:39.996Z</time></trkpt><trkpt lat="42.5676577134104" lon="12.600583837555067"><ele>106.0</ele><time>2026-05-02T08:33:40.996Z</time></trkpt><trkpt lat="42.5676321746312" lon="12.600363582945645"><ele>106.0</ele><time>2026-05-02T08:33:41.996Z</time></trkpt><trkpt lat="42.56760441240618" lon="12.600166445530327"><ele>106.0</ele><time>2026-05-02T08:33:42.996Z</time></trkpt><trkpt lat="42.56757600039875" lon="12.599975234270886"><ele>106.0</ele><time>2026-05-02T08:33:43.996Z</time></trkpt><trkpt lat="42.56754413674853" lon="12.59979937194795"><ele>106.0</ele><time>2026-05-02T08:33:44.996Z</time></trkpt><trkpt lat="42.56750783809518" lon="12.599618156991454"><ele>106.0</ele><time>2026-05-02T08:33:45.996Z</time></trkpt><trkpt lat="42.567465214183386" lon="12.599429425100029"><ele>106.0</ele><time>2026-05-02T08:33:46.996Z</time></trkpt><trkpt lat="42.567419882903984" lon="12.599248427592512"><ele>106.0</ele><time>2026-05-02T08:33:47.996Z</time></trkpt><trkpt lat="42.567374419707036" lon="12.599069409078771"><ele>106.0</ele><time>2026-05-02T08:33:48.996Z</time></trkpt><trkpt lat="42.56732622748773" lon="12.598905916006307"><ele>106.0</ele><time>2026-05-02T08:33:49.996Z</time></trkpt><trkpt lat="42.56728436117768" lon="12.598759734359144"><ele>106.0</ele><time>2026-05-02T08:33:50.996Z</time></trkpt><trkpt lat="42.56724158677436" lon="12.598626669792989"><ele>106.0</ele><time>2026-05-02T08:33:51.996Z</time></trkpt><trkpt lat="42.56719069663099" lon="12.598501688535915"><ele>106.0</ele><time>2026-05-02T08:33:52.996Z</time></trkpt><trkpt lat="42.567140304191625" lon="12.59838564562724"><ele>106.0</ele><time>2026-05-02T08:33:53.996Z</time></trkpt><trkpt lat="42.567099203806116" lon="12.598273526420714"><ele>106.0</ele><time>2026-05-02T08:33:54.996Z</time></trkpt><trkpt lat="42.56707567507191" lon="12.598150008795502"><ele>106.0</ele><time>2026-05-02T08:33:55.996Z</time></trkpt><trkpt lat="42.56706609543614" lon="12.598018169734091"><ele>106.0</ele><time>2026-05-02T08:33:56.996Z</time></trkpt><trkpt lat="42.5670320685587" lon="12.597885366234816"><ele>106.0</ele><time>2026-05-02T08:33:57.996Z</time></trkpt><trkpt lat="42.56693096191575" lon="12.59775577480706"><ele>106.0</ele><time>2026-05-02T08:33:58.996Z</time></trkpt><trkpt lat="42.566817432172904" lon="12.597619701535393"><ele>106.0</ele><time>2026-05-02T08:33:59.996Z</time></trkpt><trkpt lat="42.56671838890246" lon="12.59746088021294"><ele>106.33333333333334</ele><time>2026-05-02T08:34:00.996Z</time></trkpt><trkpt lat="42.566639768546764" lon="12.597289277734845"><ele>106.66666666666666</ele><time>2026-05-02T08:34:01.996Z</time></trkpt><trkpt lat="42.56655616359659" lon="12.597105698767432"><ele>107.0</ele><time>2026-05-02T08:34:02.996Z</time></trkpt><trkpt lat="42.56647892320373" lon="12.596935166358046"><ele>107.0</ele><time>2026-05-02T08:34:03.996Z</time></trkpt><trkpt lat="42.56639998577266" lon="12.596759958391242"><ele>107.0</ele><time>2026-05-02T08:34:04.996Z</time></trkpt><trkpt lat="42.56632195869611" lon="12.596586002974982"><ele>107.0</ele><time>2026-05-02T08:34:05.996Z</time></trkpt><trkpt lat="42.56624580307056" lon="12.596413253719296"><ele>107.0</ele><time>2026-05-02T08:34:06.996Z</time></trkpt><trkpt lat="42.566169437990354" lon="12.59624036292102"><ele>107.0</ele><time>2026-05-02T08:34:07.996Z</time></trkpt><trkpt lat="42.56610126702042" lon="12.596076822894853"><ele>107.0</ele><time>2026-05-02T08:34:08.996Z</time></trkpt><trkpt lat="42.56602318674304" lon="12.595896333542173"><ele>107.0</ele><time>2026-05-02T08:34:09.996Z</time></trkpt><trkpt lat="42.56594323148728" lon="12.595722763102367"><ele>107.0</ele><time>2026-05-02T08:34:10.996Z</time></trkpt><trkpt lat="42.565865073253136" lon="12.595554087470658"><ele>107.0</ele><time>2026-05-02T08:34:11.996Z</time></trkpt><trkpt lat="42.565786503083096" lon="12.595377493453523"><ele>107.0</ele><time>2026-05-02T08:34:12.996Z</time></trkpt><trkpt lat="42.56571158747249" lon="12.595203944637193"><ele>107.0</ele><time>2026-05-02T08:34:13.996Z</time></trkpt><trkpt lat="42.56563481744224" lon="12.595031607777516"><ele>107.0</ele><time>2026-05-02T08:34:14.996Z</time></trkpt><trkpt lat="42.5655595546858" lon="12.594850211264498"><ele>107.0</ele><time>2026-05-02T08:34:15.996Z</time></trkpt><trkpt lat="42.56548116959095" lon="12.594662560896097"><ele>107.0</ele><time>2026-05-02T08:34:16.996Z</time></trkpt><trkpt lat="42.56540044320186" lon="12.594480601864706"><ele>107.0</ele><time>2026-05-02T08:34:17.996Z</time></trkpt><trkpt lat="42.56532600169792" lon="12.59428826698234"><ele>107.0</ele><time>2026-05-02T08:34:18.996Z</time></trkpt><trkpt lat="42.565259783109774" lon="12.594104640885153"><ele>107.0</ele><time>2026-05-02T08:34:19.996Z</time></trkpt><trkpt lat="42.56519570379188" lon="12.593910416942583"><ele>107.0</ele><time>2026-05-02T08:34:20.996Z</time></trkpt><trkpt lat="42.565137768081165" lon="12.593708358942743"><ele>107.0</ele><time>2026-05-02T08:34:21.996Z</time></trkpt><trkpt lat="42.56508349348221" lon="12.593505412091579"><ele>107.0</ele><time>2026-05-02T08:34:22.996Z</time></trkpt><trkpt lat="42.565037953616525" lon="12.593300905879575"><ele>106.66666666666666</ele><time>2026-05-02T08:34:23.996Z</time></trkpt><trkpt lat="42.56499841181021" lon="12.593091880771931"><ele>106.33333333333334</ele><time>2026-05-02T08:34:24.996Z</time></trkpt><trkpt lat="42.56496387712274" lon="12.592881356194383"><ele>106.0</ele><time>2026-05-02T08:34:25.996Z</time></trkpt><trkpt lat="42.56494067781887" lon="12.592673122279685"><ele>106.0</ele><time>2026-05-02T08:34:26.996Z</time></trkpt><trkpt lat="42.56491945535336" lon="12.592458152374888"><ele>106.0</ele><time>2026-05-02T08:34:27.996Z</time></trkpt><trkpt lat="42.56489826887693" lon="12.592244740324583"><ele>106.0</ele><time>2026-05-02T08:34:28.996Z</time></trkpt><trkpt lat="42.564874509747746" lon="12.592030440249422"><ele>105.66666666666667</ele><time>2026-05-02T08:34:29.996Z</time></trkpt><trkpt lat="42.56485009862219" lon="12.591817459876872"><ele>105.33333333333334</ele><time>2026-05-02T08:34:30.996Z</time></trkpt><trkpt lat="42.56482327507949" lon="12.59160653716873"><ele>105.0</ele><time>2026-05-02T08:34:31.996Z</time></trkpt><trkpt lat="42.56479303624199" lon="12.591386021340398"><ele>105.0</ele><time>2026-05-02T08:34:32.996Z</time></trkpt><trkpt lat="42.56477051284485" lon="12.59116554622904"><ele>105.0</ele><time>2026-05-02T08:34:33.996Z</time></trkpt><trkpt lat="42.56475149642004" lon="12.59094781339596"><ele>105.0</ele><time>2026-05-02T08:34:34.996Z</time></trkpt><trkpt lat="42.56473207761283" lon="12.590727733874203"><ele>105.0</ele><time>2026-05-02T08:34:35.996Z</time></trkpt><trkpt lat="42.564711813592815" lon="12.590509868949425"><ele>105.0</ele><time>2026-05-02T08:34:36.996Z</time></trkpt><trkpt lat="42.564688727567216" lon="12.590292773102277"><ele>105.0</ele><time>2026-05-02T08:34:37.996Z</time></trkpt><trkpt lat="42.564667344576456" lon="12.590080627908455"><ele>105.0</ele><time>2026-05-02T08:34:38.996Z</time></trkpt><trkpt lat="42.56464837659336" lon="12.589863955245002"><ele>105.0</ele><time>2026-05-02T08:34:39.996Z</time></trkpt><trkpt lat="42.56462597018471" lon="12.589645419061585"><ele>105.0</ele><time>2026-05-02T08:34:40.996Z</time></trkpt><trkpt lat="42.56460677630057" lon="12.589423167461858"><ele>105.0</ele><time>2026-05-02T08:34:41.996Z</time></trkpt><trkpt lat="42.56458543990765" lon="12.589201759556724"><ele>105.0</ele><time>2026-05-02T08:34:42.996Z</time></trkpt><trkpt lat="42.564564729801205" lon="12.588981094246321"><ele>105.0</ele><time>2026-05-02T08:34:43.996Z</time></trkpt><trkpt lat="42.564544445464435" lon="12.58876363830337"><ele>105.0</ele><time>2026-05-02T08:34:44.996Z</time></trkpt><trkpt lat="42.56452410519037" lon="12.588550654021073"><ele>105.0</ele><time>2026-05-02T08:34:45.996Z</time></trkpt><trkpt lat="42.56450002644819" lon="12.58833752227158"><ele>105.0</ele><time>2026-05-02T08:34:46.996Z</time></trkpt><trkpt lat="42.5644756549111" lon="12.588121076956867"><ele>105.0</ele><time>2026-05-02T08:34:47.995Z</time></trkpt><trkpt lat="42.56445126835317" lon="12.587903487878519"><ele>105.0</ele><time>2026-05-02T08:34:48.995Z</time></trkpt><trkpt lat="42.5644327551295" lon="12.58768934062709"><ele>105.0</ele><time>2026-05-02T08:34:49.995Z</time></trkpt><trkpt lat="42.56440592482091" lon="12.58746772777469"><ele>105.5</ele><time>2026-05-02T08:34:50.995Z</time></trkpt><trkpt lat="42.56437037931427" lon="12.587219930811054"><ele>106.0</ele><time>2026-05-02T08:34:51.995Z</time></trkpt><trkpt lat="42.56430172170394" lon="12.58665935710499"><ele>106.0</ele><time>2026-05-02T08:34:53.995Z</time></trkpt><trkpt lat="42.564268928104255" lon="12.586336205377627"><ele>106.0</ele><time>2026-05-02T08:34:54.995Z</time></trkpt><trkpt lat="42.564233803254794" lon="12.585990081280107"><ele>104.0</ele><time>2026-05-02T08:34:55.995Z</time></trkpt><trkpt lat="42.564165741474426" lon="12.585316508405679"><ele>104.0</ele><time>2026-05-02T08:34:57.995Z</time></trkpt><trkpt lat="42.564132663031835" lon="12.584988765825962"><ele>104.0</ele><time>2026-05-02T08:34:58.995Z</time></trkpt><trkpt lat="42.564100318162616" lon="12.584668291530855"><ele>104.33333333333333</ele><time>2026-05-02T08:34:59.995Z</time></trkpt><trkpt lat="42.56406969725142" lon="12.584364898244605"><ele>104.66666666666666</ele><time>2026-05-02T08:35:00.995Z</time></trkpt><trkpt lat="42.564077963115416" lon="12.584062303706812"><ele>105.0</ele><time>2026-05-02T08:35:02.995Z</time></trkpt><trkpt lat="42.564047105688424" lon="12.583776114243097"><ele>105.0</ele><time>2026-05-02T08:35:03.995Z</time></trkpt><trkpt lat="42.56401581426065" lon="12.583487585388673"><ele>105.0</ele><time>2026-05-02T08:35:04.995Z</time></trkpt><trkpt lat="42.563985439963936" lon="12.583191754689269"><ele>105.0</ele><time>2026-05-02T08:35:05.995Z</time></trkpt><trkpt lat="42.563952900513556" lon="12.582889794442044"><ele>104.33333333333334</ele><time>2026-05-02T08:35:06.995Z</time></trkpt><trkpt lat="42.563925777806595" lon="12.582602004196707"><ele>103.66666666666667</ele><time>2026-05-02T08:35:07.995Z</time></trkpt><trkpt lat="42.563898833381096" lon="12.582321072649133"><ele>103.0</ele><time>2026-05-02T08:35:08.995Z</time></trkpt><trkpt lat="42.56387145084368" lon="12.582042542893998"><ele>103.0</ele><time>2026-05-02T08:35:09.995Z</time></trkpt><trkpt lat="42.56384275847372" lon="12.581769328628209"><ele>103.0</ele><time>2026-05-02T08:35:10.995Z</time></trkpt><trkpt lat="42.56381289636024" lon="12.581487445465019"><ele>103.0</ele><time>2026-05-02T08:35:11.995Z</time></trkpt><trkpt lat="42.56379226782715" lon="12.581190494449622"><ele>103.33333333333334</ele><time>2026-05-02T08:35:12.995Z</time></trkpt><trkpt lat="42.563779814979476" lon="12.580880815830762"><ele>103.66666666666666</ele><time>2026-05-02T08:35:13.995Z</time></trkpt><trkpt lat="42.563763041828565" lon="12.580584120360374"><ele>104.0</ele><time>2026-05-02T08:35:14.995Z</time></trkpt><trkpt lat="42.56374967852855" lon="12.580296692772212"><ele>104.0</ele><time>2026-05-02T08:35:15.995Z</time></trkpt><trkpt lat="42.563736281623356" lon="12.580009100880181"><ele>104.0</ele><time>2026-05-02T08:35:16.995Z</time></trkpt><trkpt lat="42.56372460925876" lon="12.579735339626986"><ele>104.0</ele><time>2026-05-02T08:35:17.995Z</time></trkpt><trkpt lat="42.56370889120216" lon="12.579491442525518"><ele>104.0</ele><time>2026-05-02T08:35:18.995Z</time></trkpt><trkpt lat="42.563698178272055" lon="12.579258974709832"><ele>104.0</ele><time>2026-05-02T08:35:19.995Z</time></trkpt><trkpt lat="42.563686113677406" lon="12.579037144024358"><ele>104.0</ele><time>2026-05-02T08:35:20.995Z</time></trkpt><trkpt lat="42.56367730060578" lon="12.578844967180027"><ele>104.0</ele><time>2026-05-02T08:35:21.995Z</time></trkpt><trkpt lat="42.563669027739586" lon="12.578675338784768"><ele>104.0</ele><time>2026-05-02T08:35:22.995Z</time></trkpt><trkpt lat="42.5636570589199" lon="12.578536453371633"><ele>104.0</ele><time>2026-05-02T08:35:23.995Z</time></trkpt><trkpt lat="42.56365853702792" lon="12.578447594740624"><ele>104.0</ele><time>2026-05-02T08:35:24.995Z</time></trkpt><trkpt lat="42.56363903621189" lon="12.578273942401749"><ele>104.0</ele><time>2026-05-02T08:35:25.995Z</time></trkpt><trkpt lat="42.56362620898849" lon="12.578079915046853"><ele>104.0</ele><time>2026-05-02T08:35:26.995Z</time></trkpt><trkpt lat="42.56360969019463" lon="12.577867308300458"><ele>104.0</ele><time>2026-05-02T08:35:27.995Z</time></trkpt><trkpt lat="42.56359686913023" lon="12.577665480253136"><ele>104.0</ele><time>2026-05-02T08:35:28.995Z</time></trkpt><trkpt lat="42.56358190711157" lon="12.577459067665453"><ele>103.66666666666666</ele><time>2026-05-02T08:35:29.995Z</time></trkpt><trkpt lat="42.5635685529692" lon="12.577253047474464"><ele>103.33333333333334</ele><time>2026-05-02T08:35:30.995Z</time></trkpt><trkpt lat="42.563552876297095" lon="12.577047319603691"><ele>103.0</ele><time>2026-05-02T08:35:31.995Z</time></trkpt><trkpt lat="42.563538124678" lon="12.576834588232133"><ele>103.0</ele><time>2026-05-02T08:35:32.995Z</time></trkpt><trkpt lat="42.56352656611031" lon="12.576616906992973"><ele>103.0</ele><time>2026-05-02T08:35:33.995Z</time></trkpt><trkpt lat="42.56350881197875" lon="12.576393985611164"><ele>103.0</ele><time>2026-05-02T08:35:34.995Z</time></trkpt><trkpt lat="42.56348843603982" lon="12.57616690627231"><ele>103.0</ele><time>2026-05-02T08:35:35.995Z</time></trkpt><trkpt lat="42.56346890233626" lon="12.575933658198403"><ele>103.0</ele><time>2026-05-02T08:35:36.995Z</time></trkpt><trkpt lat="42.56345235684974" lon="12.57570160458303"><ele>103.0</ele><time>2026-05-02T08:35:37.995Z</time></trkpt><trkpt lat="42.56343726377579" lon="12.57547427951965"><ele>103.0</ele><time>2026-05-02T08:35:38.995Z</time></trkpt><trkpt lat="42.5634205857498" lon="12.575248757836354"><ele>103.0</ele><time>2026-05-02T08:35:39.995Z</time></trkpt><trkpt lat="42.56340364577985" lon="12.575029870322618"><ele>103.0</ele><time>2026-05-02T08:35:40.995Z</time></trkpt><trkpt lat="42.563388396802495" lon="12.574813205184425"><ele>103.0</ele><time>2026-05-02T08:35:41.995Z</time></trkpt><trkpt lat="42.563377448968296" lon="12.574605914459665"><ele>103.0</ele><time>2026-05-02T08:35:42.995Z</time></trkpt><trkpt lat="42.56336926583999" lon="12.574416345550699"><ele>103.0</ele><time>2026-05-02T08:35:43.995Z</time></trkpt><trkpt lat="42.56336106946131" lon="12.574234960667683"><ele>103.0</ele><time>2026-05-02T08:35:44.995Z</time></trkpt><trkpt lat="42.56334398361226" lon="12.574051839865028"><ele>103.0</ele><time>2026-05-02T08:35:45.995Z</time></trkpt><trkpt lat="42.563328031545524" lon="12.573848052843394"><ele>103.0</ele><time>2026-05-02T08:35:46.995Z</time></trkpt><trkpt lat="42.56330624106282" lon="12.573637038206346"><ele>103.0</ele><time>2026-05-02T08:35:47.995Z</time></trkpt><trkpt lat="42.56328670329272" lon="12.57341438949213"><ele>103.33333333333334</ele><time>2026-05-02T08:35:48.995Z</time></trkpt><trkpt lat="42.56327498843856" lon="12.573191147549945"><ele>103.66666666666666</ele><time>2026-05-02T08:35:49.995Z</time></trkpt><trkpt lat="42.563260022751585" lon="12.572964955200858"><ele>104.0</ele><time>2026-05-02T08:35:50.995Z</time></trkpt><trkpt lat="42.56324716605915" lon="12.572735874992619"><ele>104.0</ele><time>2026-05-02T08:35:51.995Z</time></trkpt><trkpt lat="42.56323144307356" lon="12.572506521663794"><ele>104.0</ele><time>2026-05-02T08:35:52.995Z</time></trkpt><trkpt lat="42.5632130620709" lon="12.572280598031192"><ele>104.0</ele><time>2026-05-02T08:35:53.995Z</time></trkpt><trkpt lat="42.56319972369751" lon="12.572051936545911"><ele>104.0</ele><time>2026-05-02T08:35:54.995Z</time></trkpt><trkpt lat="42.563180167740356" lon="12.5718154618612"><ele>104.0</ele><time>2026-05-02T08:35:55.995Z</time></trkpt><trkpt lat="42.56316232247135" lon="12.57158305442621"><ele>104.0</ele><time>2026-05-02T08:35:56.995Z</time></trkpt><trkpt lat="42.563147448112595" lon="12.571339451204157"><ele>104.0</ele><time>2026-05-02T08:35:57.995Z</time></trkpt><trkpt lat="42.56313817885615" lon="12.571094351863435"><ele>104.0</ele><time>2026-05-02T08:35:58.995Z</time></trkpt><trkpt lat="42.563116021256974" lon="12.570854814785445"><ele>104.0</ele><time>2026-05-02T08:35:59.995Z</time></trkpt><trkpt lat="42.56310171908762" lon="12.570617750540158"><ele>104.0</ele><time>2026-05-02T08:36:00.995Z</time></trkpt><trkpt lat="42.56309231431617" lon="12.570389739986723"><ele>104.0</ele><time>2026-05-02T08:36:01.995Z</time></trkpt><trkpt lat="42.56308396158696" lon="12.570160737666724"><ele>104.0</ele><time>2026-05-02T08:36:02.995Z</time></trkpt><trkpt lat="42.56307299621734" lon="12.569939382597799"><ele>104.0</ele><time>2026-05-02T08:36:03.995Z</time></trkpt><trkpt lat="42.563054017721385" lon="12.569713549415239"><ele>104.0</ele><time>2026-05-02T08:36:04.995Z</time></trkpt><trkpt lat="42.56303281567434" lon="12.569495580658451"><ele>104.0</ele><time>2026-05-02T08:36:05.995Z</time></trkpt><trkpt lat="42.563009482459" lon="12.569278365238794"><ele>104.33333333333333</ele><time>2026-05-02T08:36:06.994Z</time></trkpt><trkpt lat="42.56300171637235" lon="12.56907193980357"><ele>104.66666666666666</ele><time>2026-05-02T08:36:07.994Z</time></trkpt><trkpt lat="42.56299339088267" lon="12.568868084622927"><ele>105.0</ele><time>2026-05-02T08:36:08.994Z</time></trkpt><trkpt lat="42.56298216334698" lon="12.568665111501966"><ele>105.0</ele><time>2026-05-02T08:36:09.994Z</time></trkpt><trkpt lat="42.56296599896541" lon="12.568473837660191"><ele>105.0</ele><time>2026-05-02T08:36:10.994Z</time></trkpt><trkpt lat="42.56294957346991" lon="12.568289114494762"><ele>105.0</ele><time>2026-05-02T08:36:11.994Z</time></trkpt><trkpt lat="42.56293392600802" lon="12.56812872052345"><ele>105.0</ele><time>2026-05-02T08:36:12.994Z</time></trkpt><trkpt lat="42.56292485351035" lon="12.567987612808329"><ele>104.6</ele><time>2026-05-02T08:36:13.994Z</time></trkpt><trkpt lat="42.562917206184075" lon="12.567849467340228"><ele>104.2</ele><time>2026-05-02T08:36:14.994Z</time></trkpt><trkpt lat="42.56291539867489" lon="12.567714549445565"><ele>103.80000000000001</ele><time>2026-05-02T08:36:15.994Z</time></trkpt><trkpt lat="42.56291809699524" lon="12.567574422471912"><ele>103.4</ele><time>2026-05-02T08:36:16.994Z</time></trkpt><trkpt lat="42.56290655841021" lon="12.5674262722036"><ele>103.0</ele><time>2026-05-02T08:36:17.994Z</time></trkpt><trkpt lat="42.56289549013155" lon="12.567291938950461"><ele>103.0</ele><time>2026-05-02T08:36:18.994Z</time></trkpt><trkpt lat="42.56288694843491" lon="12.567183260152989"><ele>103.0</ele><time>2026-05-02T08:36:19.994Z</time></trkpt><trkpt lat="42.56289013092992" lon="12.567085031474692"><ele>103.0</ele><time>2026-05-02T08:36:20.994Z</time></trkpt><trkpt lat="42.56289370579371" lon="12.56697753577296"><ele>103.0</ele><time>2026-05-02T08:36:22.994Z</time></trkpt><trkpt lat="42.563061757020854" lon="12.566968665170386"><ele>103.0</ele><time>2026-05-02T08:36:23.994Z</time></trkpt><trkpt lat="42.563135383383305" lon="12.567026878519567"><ele>103.0</ele><time>2026-05-02T08:36:24.994Z</time></trkpt><trkpt lat="42.56318220679372" lon="12.567149769398366"><ele>103.0</ele><time>2026-05-02T08:36:25.994Z</time></trkpt><trkpt lat="42.56316832035898" lon="12.567302815116431"><ele>103.0</ele><time>2026-05-02T08:36:26.994Z</time></trkpt><trkpt lat="42.56318279274199" lon="12.5674710781264"><ele>103.0</ele><time>2026-05-02T08:36:27.994Z</time></trkpt><trkpt lat="42.56317348464501" lon="12.567652227566736"><ele>103.0</ele><time>2026-05-02T08:36:28.994Z</time></trkpt><trkpt lat="42.563180170769876" lon="12.567837316673344"><ele>103.0</ele><time>2026-05-02T08:36:29.994Z</time></trkpt><trkpt lat="42.56321040755791" lon="12.568024765036663"><ele>103.0</ele><time>2026-05-02T08:36:30.994Z</time></trkpt><trkpt lat="42.563265649632214" lon="12.568223178367402"><ele>103.0</ele><time>2026-05-02T08:36:31.994Z</time></trkpt><trkpt lat="42.56335051432642" lon="12.568409641966353"><ele>103.5</ele><time>2026-05-02T08:36:32.994Z</time></trkpt><trkpt lat="42.56344852565603" lon="12.568565954902926"><ele>104.0</ele><time>2026-05-02T08:36:33.994Z</time></trkpt><trkpt lat="42.56354191623505" lon="12.56871122793661"><ele>104.5</ele><time>2026-05-02T08:36:34.994Z</time></trkpt><trkpt lat="42.563621336719365" lon="12.568842204190721"><ele>105.0</ele><time>2026-05-02T08:36:35.994Z</time></trkpt><trkpt lat="42.56372797994906" lon="12.568944097852935"><ele>105.33333333333334</ele><time>2026-05-02T08:36:36.994Z</time></trkpt><trkpt lat="42.56386961279137" lon="12.569004893028549"><ele>105.66666666666667</ele><time>2026-05-02T08:36:37.994Z</time></trkpt><trkpt lat="42.564043296965856" lon="12.569033569297213"><ele>106.0</ele><time>2026-05-02T08:36:38.994Z</time></trkpt><trkpt lat="42.56421152844633" lon="12.569055957792234"><ele>106.0</ele><time>2026-05-02T08:36:39.994Z</time></trkpt><trkpt lat="42.564355863341866" lon="12.56910201792799"><ele>106.0</ele><time>2026-05-02T08:36:40.994Z</time></trkpt><trkpt lat="42.56449607440864" lon="12.569132241589411"><ele>106.0</ele><time>2026-05-02T08:36:41.994Z</time></trkpt><trkpt lat="42.56462876344123" lon="12.569162698714335"><ele>106.0</ele><time>2026-05-02T08:36:42.994Z</time></trkpt><trkpt lat="42.56476240012074" lon="12.569175249125784"><ele>105.5</ele><time>2026-05-02T08:36:43.994Z</time></trkpt><trkpt lat="42.56489134418574" lon="12.569215053540503"><ele>105.0</ele><time>2026-05-02T08:36:44.994Z</time></trkpt><trkpt lat="42.56502154990701" lon="12.569244421943822"><ele>104.5</ele><time>2026-05-02T08:36:45.994Z</time></trkpt><trkpt lat="42.56514265941423" lon="12.56926737643956"><ele>104.0</ele><time>2026-05-02T08:36:46.994Z</time></trkpt><trkpt lat="42.56525487791986" lon="12.569289344306112"><ele>104.0</ele><time>2026-05-02T08:36:47.994Z</time></trkpt><trkpt lat="42.56536190623651" lon="12.569307774559277"><ele>104.0</ele><time>2026-05-02T08:36:48.994Z</time></trkpt><trkpt lat="42.565483087979175" lon="12.56933154049575"><ele>104.0</ele><time>2026-05-02T08:36:49.994Z</time></trkpt><trkpt lat="42.56560311277458" lon="12.569355159878501"><ele>104.0</ele><time>2026-05-02T08:36:50.994Z</time></trkpt><trkpt lat="42.56573613429285" lon="12.569382261072045"><ele>104.0</ele><time>2026-05-02T08:36:51.994Z</time></trkpt><trkpt lat="42.56588068551736" lon="12.569405873293007"><ele>104.0</ele><time>2026-05-02T08:36:52.994Z</time></trkpt><trkpt lat="42.56602424981711" lon="12.56943865016064"><ele>104.0</ele><time>2026-05-02T08:36:53.994Z</time></trkpt><trkpt lat="42.566165766100966" lon="12.569472220962988"><ele>104.0</ele><time>2026-05-02T08:36:54.994Z</time></trkpt><trkpt lat="42.566308690730935" lon="12.569495188763035"><ele>104.0</ele><time>2026-05-02T08:36:55.994Z</time></trkpt><trkpt lat="42.56644279878612" lon="12.569516261882768"><ele>104.0</ele><time>2026-05-02T08:36:56.994Z</time></trkpt><trkpt lat="42.56657127609345" lon="12.569538681397026"><ele>104.0</ele><time>2026-05-02T08:36:57.994Z</time></trkpt><trkpt lat="42.566697186346175" lon="12.569566067191971"><ele>104.0</ele><time>2026-05-02T08:36:58.994Z</time></trkpt><trkpt lat="42.566810729725006" lon="12.569595413871378"><ele>104.0</ele><time>2026-05-02T08:36:59.994Z</time></trkpt><trkpt lat="42.566923301736374" lon="12.569617537328828"><ele>104.0</ele><time>2026-05-02T08:37:00.994Z</time></trkpt><trkpt lat="42.56703524381151" lon="12.569636589433786"><ele>104.0</ele><time>2026-05-02T08:37:01.994Z</time></trkpt><trkpt lat="42.56714109293022" lon="12.56965590506393"><ele>104.0</ele><time>2026-05-02T08:37:02.994Z</time></trkpt><trkpt lat="42.567246211391826" lon="12.569675869096834"><ele>104.0</ele><time>2026-05-02T08:37:03.994Z</time></trkpt><trkpt lat="42.567354414511044" lon="12.569699325036082"><ele>104.80000000000001</ele><time>2026-05-02T08:37:04.994Z</time></trkpt><trkpt lat="42.567465383855506" lon="12.569725244492574"><ele>105.60000000000001</ele><time>2026-05-02T08:37:05.994Z</time></trkpt><trkpt lat="42.56758019891148" lon="12.569747433015019"><ele>106.4</ele><time>2026-05-02T08:37:06.994Z</time></trkpt><trkpt lat="42.56769350397132" lon="12.569772906608591"><ele>107.2</ele><time>2026-05-02T08:37:07.994Z</time></trkpt><trkpt lat="42.56779218405843" lon="12.569785004557085"><ele>108.0</ele><time>2026-05-02T08:37:08.994Z</time></trkpt><trkpt lat="42.56787564156902" lon="12.569790526052524"><ele>108.16666666666667</ele><time>2026-05-02T08:37:09.994Z</time></trkpt><trkpt lat="42.567953175999996" lon="12.569805636827407"><ele>108.33333333333334</ele><time>2026-05-02T08:37:10.994Z</time></trkpt><trkpt lat="42.568034678040426" lon="12.569825767890215"><ele>108.5</ele><time>2026-05-02T08:37:11.994Z</time></trkpt><trkpt lat="42.56811683979631" lon="12.569843538085154"><ele>108.66666666666667</ele><time>2026-05-02T08:37:12.994Z</time></trkpt><trkpt lat="42.568200498101476" lon="12.569861527038727"><ele>108.83333333333334</ele><time>2026-05-02T08:37:13.994Z</time></trkpt><trkpt lat="42.568266181265436" lon="12.569873276313254"><ele>109.0</ele><time>2026-05-02T08:37:14.994Z</time></trkpt><trkpt lat="42.56834471797981" lon="12.569885706899786"><ele>109.0</ele><time>2026-05-02T08:37:16.994Z</time></trkpt><trkpt lat="42.56837557433057" lon="12.569715895743828"><ele>109.0</ele><time>2026-05-02T08:37:17.994Z</time></trkpt><trkpt lat="42.56836353663116" lon="12.569578854536196"><ele>109.0</ele><time>2026-05-02T08:37:18.994Z</time></trkpt><trkpt lat="42.56835328204561" lon="12.56942412967979"><ele>109.0</ele><time>2026-05-02T08:37:19.994Z</time></trkpt><trkpt lat="42.56834209608035" lon="12.569224390191785"><ele>109.0</ele><time>2026-05-02T08:37:20.994Z</time></trkpt><trkpt lat="42.56836930708544" lon="12.569017188556735"><ele>109.0</ele><time>2026-05-02T08:37:21.994Z</time></trkpt><trkpt lat="42.568377598441536" lon="12.568811085415689"><ele>109.0</ele><time>2026-05-02T08:37:22.994Z</time></trkpt><trkpt lat="42.56840168440404" lon="12.568622631361984"><ele>109.0</ele><time>2026-05-02T08:37:23.994Z</time></trkpt><trkpt lat="42.56840931930227" lon="12.568425766646703"><ele>109.0</ele><time>2026-05-02T08:37:24.994Z</time></trkpt><trkpt lat="42.56839047961213" lon="12.568213103933136"><ele>109.0</ele><time>2026-05-02T08:37:25.994Z</time></trkpt><trkpt lat="42.5683617653634" lon="12.567996483162995"><ele>109.0</ele><time>2026-05-02T08:37:26.993Z</time></trkpt><trkpt lat="42.56832616390146" lon="12.567762952218708"><ele>109.0</ele><time>2026-05-02T08:37:27.993Z</time></trkpt><trkpt lat="42.56829820357355" lon="12.56753339880062"><ele>109.0</ele><time>2026-05-02T08:37:28.993Z</time></trkpt><trkpt lat="42.568266868231696" lon="12.567293575769078"><ele>109.0</ele><time>2026-05-02T08:37:29.993Z</time></trkpt><trkpt lat="42.56823187343078" lon="12.567057685040163"><ele>109.0</ele><time>2026-05-02T08:37:30.993Z</time></trkpt><trkpt lat="42.56820087108252" lon="12.56682218940937"><ele>109.0</ele><time>2026-05-02T08:37:31.993Z</time></trkpt><trkpt lat="42.56816141360303" lon="12.566581663491439"><ele>109.0</ele><time>2026-05-02T08:37:32.993Z</time></trkpt><trkpt lat="42.56812745492593" lon="12.566351955404741"><ele>109.0</ele><time>2026-05-02T08:37:33.993Z</time></trkpt><trkpt lat="42.56808898158513" lon="12.56612136959675"><ele>109.0</ele><time>2026-05-02T08:37:34.993Z</time></trkpt><trkpt lat="42.56806325505503" lon="12.565891033914992"><ele>109.0</ele><time>2026-05-02T08:37:35.993Z</time></trkpt><trkpt lat="42.568010746413044" lon="12.565678039440153"><ele>109.0</ele><time>2026-05-02T08:37:36.993Z</time></trkpt><trkpt lat="42.56797552718964" lon="12.565478189093948"><ele>109.0</ele><time>2026-05-02T08:37:37.993Z</time></trkpt><trkpt lat="42.5679469630821" lon="12.56529800262227"><ele>109.0</ele><time>2026-05-02T08:37:38.993Z</time></trkpt><trkpt lat="42.56791410337544" lon="12.565133114762723"><ele>109.0</ele><time>2026-05-02T08:37:39.993Z</time></trkpt><trkpt lat="42.56787885943028" lon="12.564971231553368"><ele>108.6</ele><time>2026-05-02T08:37:40.993Z</time></trkpt><trkpt lat="42.567852098973326" lon="12.564816888998731"><ele>108.2</ele><time>2026-05-02T08:37:41.993Z</time></trkpt><trkpt lat="42.56782868776825" lon="12.564686858897076"><ele>107.79999999999998</ele><time>2026-05-02T08:37:42.993Z</time></trkpt><trkpt lat="42.56780670402348" lon="12.564553083739364"><ele>107.39999999999999</ele><time>2026-05-02T08:37:43.993Z</time></trkpt><trkpt lat="42.56778341363177" lon="12.564430686834813"><ele>107.0</ele><time>2026-05-02T08:37:44.993Z</time></trkpt><trkpt lat="42.5677684761163" lon="12.564318512292177"><ele>107.00000000000001</ele><time>2026-05-02T08:37:45.993Z</time></trkpt><trkpt lat="42.56774491661289" lon="12.564211268393397"><ele>107.0</ele><time>2026-05-02T08:37:46.993Z</time></trkpt><trkpt lat="42.567718382544015" lon="12.564116202250503"><ele>107.0</ele><time>2026-05-02T08:37:47.993Z</time></trkpt><trkpt lat="42.5676689393805" lon="12.564034222397957"><ele>107.0</ele><time>2026-05-02T08:37:48.993Z</time></trkpt><trkpt lat="42.567640296880164" lon="12.56394001674859"><ele>107.0</ele><time>2026-05-02T08:37:49.993Z</time></trkpt><trkpt lat="42.56760056172474" lon="12.563861539938108"><ele>107.00000000000001</ele><time>2026-05-02T08:37:50.993Z</time></trkpt><trkpt lat="42.56756278710488" lon="12.563786193558206"><ele>107.0</ele><time>2026-05-02T08:37:51.993Z</time></trkpt><trkpt lat="42.56750782240721" lon="12.563668809785812"><ele>107.6</ele><time>2026-05-02T08:37:53.993Z</time></trkpt><trkpt lat="42.567446186595795" lon="12.563557743086971"><ele>108.19999999999999</ele><time>2026-05-02T08:38:43.992Z</time></trkpt><trkpt lat="42.567415478562665" lon="12.563471598298458"><ele>108.8</ele><time>2026-05-02T08:38:44.992Z</time></trkpt><trkpt lat="42.56736389680446" lon="12.563361439179433"><ele>109.4</ele><time>2026-05-02T08:38:45.992Z</time></trkpt><trkpt lat="42.567310779030365" lon="12.563247999706798"><ele>110.0</ele><time>2026-05-02T08:38:46.992Z</time></trkpt><trkpt lat="42.567249310001316" lon="12.563112530088487"><ele>110.0</ele><time>2026-05-02T08:38:47.992Z</time></trkpt><trkpt lat="42.56717608410858" lon="12.562984963705107"><ele>110.0</ele><time>2026-05-02T08:38:48.992Z</time></trkpt><trkpt lat="42.56713279622196" lon="12.562839402519769"><ele>110.0</ele><time>2026-05-02T08:38:49.992Z</time></trkpt><trkpt lat="42.56707038503992" lon="12.562693100367511"><ele>110.0</ele><time>2026-05-02T08:38:50.992Z</time></trkpt><trkpt lat="42.56701075466628" lon="12.562553316919256"><ele>109.6</ele><time>2026-05-02T08:38:51.992Z</time></trkpt><trkpt lat="42.56696097157823" lon="12.562436617112354"><ele>109.2</ele><time>2026-05-02T08:38:52.992Z</time></trkpt><trkpt lat="42.566910113030325" lon="12.56232072693872"><ele>108.80000000000001</ele><time>2026-05-02T08:38:53.992Z</time></trkpt><trkpt lat="42.56684015321113" lon="12.562196556853118"><ele>108.4</ele><time>2026-05-02T08:38:54.992Z</time></trkpt><trkpt lat="42.56679498548563" lon="12.562027004778155"><ele>108.0</ele><time>2026-05-02T08:38:55.992Z</time></trkpt><trkpt lat="42.56675682847824" lon="12.561846280290112"><ele>108.0</ele><time>2026-05-02T08:38:56.992Z</time></trkpt><trkpt lat="42.566731225773" lon="12.561683555730433"><ele>108.00000000000001</ele><time>2026-05-02T08:38:57.992Z</time></trkpt><trkpt lat="42.56671833659929" lon="12.561521869695724"><ele>108.00000000000001</ele><time>2026-05-02T08:38:58.992Z</time></trkpt><trkpt lat="42.56670373749614" lon="12.561369466085207"><ele>108.0</ele><time>2026-05-02T08:38:59.992Z</time></trkpt><trkpt lat="42.56669794542728" lon="12.561258515695727"><ele>108.0</ele><time>2026-05-02T08:39:00.992Z</time></trkpt><trkpt lat="42.566664061192114" lon="12.5611520906611"><ele>108.60000000000001</ele><time>2026-05-02T08:39:01.992Z</time></trkpt><trkpt lat="42.56663228447822" lon="12.561035534097334"><ele>109.20000000000002</ele><time>2026-05-02T08:39:02.992Z</time></trkpt><trkpt lat="42.56663329154629" lon="12.560907914811654"><ele>109.8</ele><time>2026-05-02T08:39:03.992Z</time></trkpt><trkpt lat="42.56668522454173" lon="12.56082221249324"><ele>110.4</ele><time>2026-05-02T08:39:04.992Z</time></trkpt><trkpt lat="42.56674946752045" lon="12.560766207430074"><ele>111.0</ele><time>2026-05-02T08:39:05.992Z</time></trkpt><trkpt lat="42.56685021751625" lon="12.560710462569796"><ele>111.0</ele><time>2026-05-02T08:39:06.992Z</time></trkpt><trkpt lat="42.56694326366579" lon="12.560662878363035"><ele>111.0</ele><time>2026-05-02T08:39:07.992Z</time></trkpt><trkpt lat="42.56705814170684" lon="12.560619845242947"><ele>111.0</ele><time>2026-05-02T08:39:08.992Z</time></trkpt><trkpt lat="42.56715180220058" lon="12.56056880367967"><ele>111.0</ele><time>2026-05-02T08:39:10.992Z</time></trkpt><trkpt lat="42.56720382932213" lon="12.560504307044257"><ele>111.0</ele><time>2026-05-02T08:39:11.992Z</time></trkpt><trkpt lat="42.567286667241405" lon="12.560498613790475"><ele>112.6</ele><time>2026-05-02T08:39:12.992Z</time></trkpt><trkpt lat="42.56737562893821" lon="12.560470421327176"><ele>114.19999999999999</ele><time>2026-05-02T08:39:13.992Z</time></trkpt><trkpt lat="42.567464989791596" lon="12.560445628766393"><ele>115.80000000000001</ele><time>2026-05-02T08:39:14.992Z</time></trkpt><trkpt lat="42.56756009195555" lon="12.560411843505657"><ele>117.4</ele><time>2026-05-02T08:39:15.992Z</time></trkpt><trkpt lat="42.56766129162242" lon="12.560347137191645"><ele>119.0</ele><time>2026-05-02T08:39:16.992Z</time></trkpt><trkpt lat="42.56776867947006" lon="12.560299556845747"><ele>121.6</ele><time>2026-05-02T08:39:17.992Z</time></trkpt><trkpt lat="42.56787956941103" lon="12.560277982454053"><ele>124.2</ele><time>2026-05-02T08:39:18.992Z</time></trkpt><trkpt lat="42.56798726874763" lon="12.560235389411094"><ele>126.79999999999998</ele><time>2026-05-02T08:39:19.992Z</time></trkpt><trkpt lat="42.56809146547738" lon="12.560193587715574"><ele>129.4</ele><time>2026-05-02T08:39:20.992Z</time></trkpt><trkpt lat="42.56820007253728" lon="12.560147322783203"><ele>132.0</ele><time>2026-05-02T08:39:21.992Z</time></trkpt><trkpt lat="42.568307089801884" lon="12.560100936376381"><ele>132.0</ele><time>2026-05-02T08:39:22.992Z</time></trkpt><trkpt lat="42.56840660706129" lon="12.560056155834653"><ele>132.0</ele><time>2026-05-02T08:39:23.992Z</time></trkpt><trkpt lat="42.56848416418787" lon="12.559996497765475"><ele>132.0</ele><time>2026-05-02T08:39:24.992Z</time></trkpt><trkpt lat="42.56856940290152" lon="12.559962743296259"><ele>132.0</ele><time>2026-05-02T08:39:25.992Z</time></trkpt><trkpt lat="42.5686625967112" lon="12.559958866600967"><ele>132.0</ele><time>2026-05-02T08:39:26.992Z</time></trkpt><trkpt lat="42.568761748909324" lon="12.559978229536881"><ele>135.25</ele><time>2026-05-02T08:39:27.992Z</time></trkpt><trkpt lat="42.5688753395639" lon="12.5599832049502"><ele>138.5</ele><time>2026-05-02T08:39:28.992Z</time></trkpt><trkpt lat="42.569002375134986" lon="12.559987393502903"><ele>141.75</ele><time>2026-05-02T08:39:29.992Z</time></trkpt><trkpt lat="42.56913017375566" lon="12.559991202695361"><ele>145.0</ele><time>2026-05-02T08:39:30.992Z</time></trkpt><trkpt lat="42.569403323535084" lon="12.55988492778867"><ele>145.0</ele><time>2026-05-02T08:39:31.992Z</time></trkpt><trkpt lat="42.56951356075649" lon="12.5597851381632"><ele>145.0</ele><time>2026-05-02T08:39:32.992Z</time></trkpt><trkpt lat="42.569426381410615" lon="12.55947713583951"><ele>145.0</ele><time>2026-05-02T08:39:33.992Z</time></trkpt><trkpt lat="42.569440908476444" lon="12.559386252496907"><ele>145.0</ele><time>2026-05-02T08:39:34.992Z</time></trkpt><trkpt lat="42.5694749396063" lon="12.559209523609015"><ele>145.0</ele><time>2026-05-02T08:39:36.992Z</time></trkpt><trkpt lat="42.56939255482921" lon="12.55956934397827"><ele>145.0</ele><time>2026-05-02T08:39:38.992Z</time></trkpt><trkpt lat="42.56941672419536" lon="12.55943930528498"><ele>145.0</ele><time>2026-05-02T08:39:39.992Z</time></trkpt><trkpt lat="42.56944438028815" lon="12.559296158935371"><ele>146.5</ele><time>2026-05-02T08:39:40.992Z</time></trkpt><trkpt lat="42.56947248623872" lon="12.559136123454653"><ele>148.0</ele><time>2026-05-02T08:39:41.992Z</time></trkpt><trkpt lat="42.56950197769702" lon="12.55897104332391"><ele>149.5</ele><time>2026-05-02T08:39:42.992Z</time></trkpt><trkpt lat="42.56953228546353" lon="12.55880642318825"><ele>151.0</ele><time>2026-05-02T08:39:43.992Z</time></trkpt><trkpt lat="42.569560915061984" lon="12.558651934093076"><ele>152.4</ele><time>2026-05-02T08:39:44.992Z</time></trkpt><trkpt lat="42.569588627949194" lon="12.558508981868384"><ele>153.8</ele><time>2026-05-02T08:39:45.992Z</time></trkpt><trkpt lat="42.56961603985768" lon="12.558371235341676"><ele>155.20000000000002</ele><time>2026-05-02T08:39:46.992Z</time></trkpt><trkpt lat="42.56966956582526" lon="12.558256090413911"><ele>156.6</ele><time>2026-05-02T08:39:47.992Z</time></trkpt><trkpt lat="42.56968318045398" lon="12.558115798151254"><ele>158.0</ele><time>2026-05-02T08:39:48.992Z</time></trkpt><trkpt lat="42.56968893825715" lon="12.557980115958303"><ele>158.25</ele><time>2026-05-02T08:39:49.992Z</time></trkpt><trkpt lat="42.569655714799914" lon="12.557828353756546"><ele>158.5</ele><time>2026-05-02T08:39:50.992Z</time></trkpt><trkpt lat="42.56960392286483" lon="12.557676915319467"><ele>158.75</ele><time>2026-05-02T08:39:51.992Z</time></trkpt><trkpt lat="42.56954698883455" lon="12.557537517838407"><ele>159.0</ele><time>2026-05-02T08:39:52.992Z</time></trkpt><trkpt lat="42.5695012909421" lon="12.55738484160607"><ele>159.16666666666666</ele><time>2026-05-02T08:39:53.992Z</time></trkpt><trkpt lat="42.56946268572504" lon="12.55725106808232"><ele>159.33333333333334</ele><time>2026-05-02T08:39:54.992Z</time></trkpt><trkpt lat="42.56943046889203" lon="12.557139969547674"><ele>159.5</ele><time>2026-05-02T08:39:55.992Z</time></trkpt><trkpt lat="42.56942148986055" lon="12.55704837354629"><ele>159.66666666666669</ele><time>2026-05-02T08:39:56.991Z</time></trkpt><trkpt lat="42.569381732239066" lon="12.556964432851288"><ele>159.83333333333334</ele><time>2026-05-02T08:39:57.991Z</time></trkpt><trkpt lat="42.56935750930574" lon="12.556866839649674"><ele>160.0</ele><time>2026-05-02T08:39:58.991Z</time></trkpt><trkpt lat="42.56933675098215" lon="12.55678530081565"><ele>160.33333333333334</ele><time>2026-05-02T08:39:59.991Z</time></trkpt><trkpt lat="42.56931419184779" lon="12.556645647626"><ele>160.66666666666669</ele><time>2026-05-02T08:40:01.991Z</time></trkpt><trkpt lat="42.56926877924617" lon="12.5565255754989"><ele>161.0</ele><time>2026-05-02T08:40:03.991Z</time></trkpt><trkpt lat="42.56924967571091" lon="12.556398236401536"><ele>161.33333333333334</ele><time>2026-05-02T08:40:05.991Z</time></trkpt><trkpt lat="42.56921368949141" lon="12.55632225534424"><ele>161.66666666666666</ele><time>2026-05-02T08:40:06.991Z</time></trkpt><trkpt lat="42.56919349432863" lon="12.556229586315032"><ele>162.0</ele><time>2026-05-02T08:40:07.991Z</time></trkpt><trkpt lat="42.56916733361325" lon="12.556130957389874"><ele>162.0</ele><time>2026-05-02T08:40:08.991Z</time></trkpt><trkpt lat="42.56914252725681" lon="12.556033374978988"><ele>162.0</ele><time>2026-05-02T08:40:09.991Z</time></trkpt><trkpt lat="42.56913201359767" lon="12.55592371828133"><ele>162.0</ele><time>2026-05-02T08:40:10.991Z</time></trkpt><trkpt lat="42.56910742157064" lon="12.555824541400252"><ele>162.0</ele><time>2026-05-02T08:40:11.991Z</time></trkpt><trkpt lat="42.56908227965175" lon="12.55572300998508"><ele>162.0</ele><time>2026-05-02T08:40:12.991Z</time></trkpt><trkpt lat="42.56904674793536" lon="12.555626537241245"><ele>162.0</ele><time>2026-05-02T08:40:13.991Z</time></trkpt><trkpt lat="42.569017865740605" lon="12.555523072242904"><ele>162.0</ele><time>2026-05-02T08:40:14.991Z</time></trkpt><trkpt lat="42.56899237489857" lon="12.555418587058833"><ele>162.0</ele><time>2026-05-02T08:40:15.991Z</time></trkpt><trkpt lat="42.56896887485702" lon="12.555314222389445"><ele>162.0</ele><time>2026-05-02T08:40:16.991Z</time></trkpt><trkpt lat="42.5689442603866" lon="12.555216731239483"><ele>162.0</ele><time>2026-05-02T08:40:17.991Z</time></trkpt><trkpt lat="42.56892051662734" lon="12.555120282066033"><ele>162.0</ele><time>2026-05-02T08:40:18.991Z</time></trkpt><trkpt lat="42.56890392118472" lon="12.555013442468633"><ele>162.0</ele><time>2026-05-02T08:40:19.991Z</time></trkpt><trkpt lat="42.568861914566796" lon="12.554917275125622"><ele>162.0</ele><time>2026-05-02T08:40:20.991Z</time></trkpt><trkpt lat="42.5688378423618" lon="12.55480479086462"><ele>162.0</ele><time>2026-05-02T08:40:21.991Z</time></trkpt><trkpt lat="42.568807816703654" lon="12.554697945114569"><ele>162.0</ele><time>2026-05-02T08:40:22.991Z</time></trkpt><trkpt lat="42.56878004013759" lon="12.554593393242557"><ele>162.0</ele><time>2026-05-02T08:40:23.991Z</time></trkpt><trkpt lat="42.56875784862458" lon="12.554487106475754"><ele>162.0</ele><time>2026-05-02T08:40:24.991Z</time></trkpt><trkpt lat="42.56873233820084" lon="12.554369561395623"><ele>162.0</ele><time>2026-05-02T08:40:25.991Z</time></trkpt><trkpt lat="42.56871289232381" lon="12.554247418501568"><ele>162.0</ele><time>2026-05-02T08:40:26.991Z</time></trkpt><trkpt lat="42.56869614559594" lon="12.554121551674838"><ele>162.0</ele><time>2026-05-02T08:40:27.991Z</time></trkpt><trkpt lat="42.568685316558565" lon="12.553996600583082"><ele>162.0</ele><time>2026-05-02T08:40:28.991Z</time></trkpt><trkpt lat="42.568676573244396" lon="12.553857242453939"><ele>162.0</ele><time>2026-05-02T08:40:29.991Z</time></trkpt><trkpt lat="42.56868870582506" lon="12.55371772299894"><ele>162.0</ele><time>2026-05-02T08:40:30.991Z</time></trkpt><trkpt lat="42.56869634487355" lon="12.553591769650065"><ele>163.0</ele><time>2026-05-02T08:40:31.991Z</time></trkpt><trkpt lat="42.568704398208396" lon="12.55345898553742"><ele>164.0</ele><time>2026-05-02T08:40:32.991Z</time></trkpt><trkpt lat="42.56869980186774" lon="12.553322692965008"><ele>165.0</ele><time>2026-05-02T08:40:33.991Z</time></trkpt><trkpt lat="42.56870239907843" lon="12.553180827163935"><ele>166.0</ele><time>2026-05-02T08:40:34.991Z</time></trkpt><trkpt lat="42.56870514341647" lon="12.553041874442094"><ele>167.0</ele><time>2026-05-02T08:40:35.991Z</time></trkpt><trkpt lat="42.5687273165239" lon="12.552906368794991"><ele>167.6</ele><time>2026-05-02T08:40:36.991Z</time></trkpt><trkpt lat="42.568735272941325" lon="12.552768113365289"><ele>168.2</ele><time>2026-05-02T08:40:37.991Z</time></trkpt><trkpt lat="42.5687482525224" lon="12.552633435776686"><ele>168.8</ele><time>2026-05-02T08:40:38.991Z</time></trkpt><trkpt lat="42.56876604356822" lon="12.552504426075952"><ele>169.4</ele><time>2026-05-02T08:40:39.991Z</time></trkpt><trkpt lat="42.568789339314286" lon="12.552379361831537"><ele>170.0</ele><time>2026-05-02T08:40:40.991Z</time></trkpt><trkpt lat="42.56879839074033" lon="12.552242698489176"><ele>170.0</ele><time>2026-05-02T08:40:41.991Z</time></trkpt><trkpt lat="42.56883016229363" lon="12.552116602023112"><ele>170.0</ele><time>2026-05-02T08:40:42.991Z</time></trkpt><trkpt lat="42.56885961678754" lon="12.551988526877674"><ele>170.0</ele><time>2026-05-02T08:40:43.991Z</time></trkpt><trkpt lat="42.568890488741175" lon="12.551887712209783"><ele>170.0</ele><time>2026-05-02T08:40:44.991Z</time></trkpt><trkpt lat="42.56894616553855" lon="12.551832721647687"><ele>170.0</ele><time>2026-05-02T08:40:45.991Z</time></trkpt><trkpt lat="42.568988547332005" lon="12.551751582142641"><ele>170.0</ele><time>2026-05-02T08:40:47.991Z</time></trkpt><trkpt lat="42.56903087931053" lon="12.551666937833208"><ele>170.2</ele><time>2026-05-02T08:41:21.99Z</time></trkpt><trkpt lat="42.5691211768058" lon="12.551568806613815"><ele>170.4</ele><time>2026-05-02T08:41:23.99Z</time></trkpt><trkpt lat="42.569204553572476" lon="12.551447091457216"><ele>170.60000000000002</ele><time>2026-05-02T08:41:25.99Z</time></trkpt><trkpt lat="42.56925065490818" lon="12.551374029339947"><ele>170.8</ele><time>2026-05-02T08:41:26.99Z</time></trkpt><trkpt lat="42.56930059740733" lon="12.55129252164731"><ele>171.0</ele><time>2026-05-02T08:41:27.99Z</time></trkpt><trkpt lat="42.56934777297572" lon="12.551213748395279"><ele>170.66666666666666</ele><time>2026-05-02T08:41:28.99Z</time></trkpt><trkpt lat="42.56938839096026" lon="12.551105882148908"><ele>170.33333333333334</ele><time>2026-05-02T08:41:29.99Z</time></trkpt><trkpt lat="42.56943550715583" lon="12.551014606364067"><ele>170.0</ele><time>2026-05-02T08:41:30.99Z</time></trkpt><trkpt lat="42.56948020859495" lon="12.55091831839147"><ele>169.66666666666669</ele><time>2026-05-02T08:41:31.99Z</time></trkpt><trkpt lat="42.56951571913332" lon="12.55080943869148"><ele>169.33333333333334</ele><time>2026-05-02T08:41:32.99Z</time></trkpt><trkpt lat="42.569564225467545" lon="12.550709776837696"><ele>169.0</ele><time>2026-05-02T08:41:33.99Z</time></trkpt><trkpt lat="42.56959504589576" lon="12.550604426344806"><ele>169.0</ele><time>2026-05-02T08:41:34.99Z</time></trkpt><trkpt lat="42.56962033378852" lon="12.55048940557088"><ele>169.0</ele><time>2026-05-02T08:41:35.99Z</time></trkpt><trkpt lat="42.56964956878719" lon="12.550373678007123"><ele>169.0</ele><time>2026-05-02T08:41:36.99Z</time></trkpt><trkpt lat="42.56969068848878" lon="12.55026987067797"><ele>169.0</ele><time>2026-05-02T08:41:37.99Z</time></trkpt><trkpt lat="42.56974676087692" lon="12.550172850810053"><ele>169.0</ele><time>2026-05-02T08:41:38.99Z</time></trkpt><trkpt lat="42.5698127773707" lon="12.550080645536086"><ele>169.0</ele><time>2026-05-02T08:41:39.99Z</time></trkpt><trkpt lat="42.569906534795805" lon="12.55005947275292"><ele>169.0</ele><time>2026-05-02T08:41:40.99Z</time></trkpt><trkpt lat="42.56998871453208" lon="12.549989020312978"><ele>169.0</ele><time>2026-05-02T08:41:41.99Z</time></trkpt><trkpt lat="42.57009217137421" lon="12.54994167114314"><ele>169.0</ele><time>2026-05-02T08:41:42.99Z</time></trkpt><trkpt lat="42.57019168751539" lon="12.549900190534387"><ele>169.0</ele><time>2026-05-02T08:41:43.99Z</time></trkpt><trkpt lat="42.57029414604186" lon="12.549849089809365"><ele>169.0</ele><time>2026-05-02T08:41:44.99Z</time></trkpt><trkpt lat="42.570410175009634" lon="12.549796601963095"><ele>169.0</ele><time>2026-05-02T08:41:45.99Z</time></trkpt><trkpt lat="42.570515992173014" lon="12.549738572362232"><ele>169.0</ele><time>2026-05-02T08:41:46.99Z</time></trkpt><trkpt lat="42.57063387776605" lon="12.549683341861257"><ele>169.0</ele><time>2026-05-02T08:41:47.99Z</time></trkpt><trkpt lat="42.570759700571294" lon="12.549624845052499"><ele>169.0</ele><time>2026-05-02T08:41:48.99Z</time></trkpt><trkpt lat="42.57086985762696" lon="12.549561659374005"><ele>169.0</ele><time>2026-05-02T08:41:49.99Z</time></trkpt><trkpt lat="42.570977456451" lon="12.549501800392195"><ele>169.0</ele><time>2026-05-02T08:41:50.99Z</time></trkpt><trkpt lat="42.571080853717596" lon="12.549444167307312"><ele>169.0</ele><time>2026-05-02T08:41:51.99Z</time></trkpt><trkpt lat="42.57118219074301" lon="12.5493721509788"><ele>169.39999999999998</ele><time>2026-05-02T08:41:52.99Z</time></trkpt><trkpt lat="42.57127757691061" lon="12.549294614445124"><ele>169.8</ele><time>2026-05-02T08:41:53.99Z</time></trkpt><trkpt lat="42.57136832603041" lon="12.549213626783946"><ele>170.2</ele><time>2026-05-02T08:41:54.99Z</time></trkpt><trkpt lat="42.571458357717376" lon="12.54912279346117"><ele>170.60000000000002</ele><time>2026-05-02T08:41:55.99Z</time></trkpt><trkpt lat="42.571551597189824" lon="12.549029811084525"><ele>171.0</ele><time>2026-05-02T08:41:56.99Z</time></trkpt><trkpt lat="42.5716473203047" lon="12.548939049985446"><ele>171.0</ele><time>2026-05-02T08:41:57.99Z</time></trkpt><trkpt lat="42.57174661140043" lon="12.54885475479927"><ele>171.0</ele><time>2026-05-02T08:41:58.99Z</time></trkpt><trkpt lat="42.57185252302928" lon="12.54878023895881"><ele>171.0</ele><time>2026-05-02T08:41:59.99Z</time></trkpt><trkpt lat="42.57196343400985" lon="12.548713660834183"><ele>171.0</ele><time>2026-05-02T08:42:00.99Z</time></trkpt><trkpt lat="42.572076444514664" lon="12.548645282526808"><ele>171.5</ele><time>2026-05-02T08:42:01.99Z</time></trkpt><trkpt lat="42.57219075862774" lon="12.548576958530637"><ele>172.0</ele><time>2026-05-02T08:42:02.99Z</time></trkpt><trkpt lat="42.57231082571927" lon="12.54852762181173"><ele>172.5</ele><time>2026-05-02T08:42:03.99Z</time></trkpt><trkpt lat="42.572433157585195" lon="12.54847806527944"><ele>173.0</ele><time>2026-05-02T08:42:04.99Z</time></trkpt><trkpt lat="42.572554769589395" lon="12.548421665953564"><ele>173.0</ele><time>2026-05-02T08:42:05.99Z</time></trkpt><trkpt lat="42.572671098434625" lon="12.548373081949121"><ele>173.0</ele><time>2026-05-02T08:42:06.99Z</time></trkpt><trkpt lat="42.572796002704486" lon="12.5483532599255"><ele>173.0</ele><time>2026-05-02T08:42:07.99Z</time></trkpt><trkpt lat="42.57291802611779" lon="12.548290076976052"><ele>173.0</ele><time>2026-05-02T08:42:08.99Z</time></trkpt><trkpt lat="42.573050163713546" lon="12.548263231579655"><ele>173.0</ele><time>2026-05-02T08:42:09.99Z</time></trkpt><trkpt lat="42.57317527605446" lon="12.548224604620579"><ele>173.0</ele><time>2026-05-02T08:42:10.99Z</time></trkpt><trkpt lat="42.573296952342794" lon="12.548184107809044"><ele>173.0</ele><time>2026-05-02T08:42:11.99Z</time></trkpt><trkpt lat="42.57342075055414" lon="12.548144428844548"><ele>173.0</ele><time>2026-05-02T08:42:12.99Z</time></trkpt><trkpt lat="42.57354850412644" lon="12.548110451458395"><ele>173.0</ele><time>2026-05-02T08:42:13.99Z</time></trkpt><trkpt lat="42.57367201876946" lon="12.548083551881371"><ele>173.0</ele><time>2026-05-02T08:42:14.99Z</time></trkpt><trkpt lat="42.57380100943941" lon="12.548074240748738"><ele>173.0</ele><time>2026-05-02T08:42:15.99Z</time></trkpt><trkpt lat="42.57392680156102" lon="12.548054918506098"><ele>173.0</ele><time>2026-05-02T08:42:16.99Z</time></trkpt><trkpt lat="42.57405151165388" lon="12.548030752404605"><ele>173.0</ele><time>2026-05-02T08:42:17.99Z</time></trkpt><trkpt lat="42.57417407719223" lon="12.548025880337162"><ele>173.0</ele><time>2026-05-02T08:42:18.99Z</time></trkpt><trkpt lat="42.57429487964461" lon="12.548011015563052"><ele>173.0</ele><time>2026-05-02T08:42:19.99Z</time></trkpt><trkpt lat="42.57441497113868" lon="12.547989887675385"><ele>173.0</ele><time>2026-05-02T08:42:20.99Z</time></trkpt><trkpt lat="42.57453919115966" lon="12.547965336516388"><ele>173.0</ele><time>2026-05-02T08:42:21.99Z</time></trkpt><trkpt lat="42.57465964674475" lon="12.547943087548516"><ele>173.0</ele><time>2026-05-02T08:42:22.99Z</time></trkpt><trkpt lat="42.574776487547254" lon="12.547926356027748"><ele>173.0</ele><time>2026-05-02T08:42:23.99Z</time></trkpt><trkpt lat="42.574894244150734" lon="12.547900365458448"><ele>173.0</ele><time>2026-05-02T08:42:24.99Z</time></trkpt><trkpt lat="42.575012381280764" lon="12.547882042087743"><ele>172.8</ele><time>2026-05-02T08:42:25.99Z</time></trkpt><trkpt lat="42.575129795109966" lon="12.547861667631972"><ele>172.60000000000002</ele><time>2026-05-02T08:42:26.99Z</time></trkpt><trkpt lat="42.575233635151086" lon="12.54786496134097"><ele>172.39999999999998</ele><time>2026-05-02T08:42:27.99Z</time></trkpt><trkpt lat="42.57533267627221" lon="12.547868040653032"><ele>172.2</ele><time>2026-05-02T08:42:28.99Z</time></trkpt><trkpt lat="42.57543565719163" lon="12.547901156241132"><ele>172.0</ele><time>2026-05-02T08:42:29.99Z</time></trkpt><trkpt lat="42.57552740975792" lon="12.547967488551103"><ele>172.0</ele><time>2026-05-02T08:42:30.99Z</time></trkpt><trkpt lat="42.57561978724746" lon="12.548015277591427"><ele>172.0</ele><time>2026-05-02T08:42:31.99Z</time></trkpt><trkpt lat="42.5757085097801" lon="12.54806117586881"><ele>172.0</ele><time>2026-05-02T08:42:32.99Z</time></trkpt><trkpt lat="42.57588692221366" lon="12.547790829688218"><ele>172.0</ele><time>2026-05-02T08:42:33.99Z</time></trkpt><trkpt lat="42.57598816544678" lon="12.547792927534562"><ele>172.0</ele><time>2026-05-02T08:42:34.989Z</time></trkpt><trkpt lat="42.576092638788154" lon="12.547786576003848"><ele>172.0</ele><time>2026-05-02T08:42:35.989Z</time></trkpt><trkpt lat="42.57620236971889" lon="12.547775540441014"><ele>172.0</ele><time>2026-05-02T08:42:36.989Z</time></trkpt><trkpt lat="42.57630048499413" lon="12.54777742742169"><ele>172.0</ele><time>2026-05-02T08:42:37.989Z</time></trkpt><trkpt lat="42.57639515586358" lon="12.547783314483146"><ele>171.5</ele><time>2026-05-02T08:42:38.989Z</time></trkpt><trkpt lat="42.57648382377387" lon="12.54778652990191"><ele>171.0</ele><time>2026-05-02T08:42:39.989Z</time></trkpt><trkpt lat="42.57657411918247" lon="12.547783466319624"><ele>170.5</ele><time>2026-05-02T08:42:40.989Z</time></trkpt><trkpt lat="42.57666260910446" lon="12.547779284803037"><ele>170.0</ele><time>2026-05-02T08:42:41.989Z</time></trkpt><trkpt lat="42.57674303956793" lon="12.547772372608799"><ele>169.5</ele><time>2026-05-02T08:42:42.989Z</time></trkpt><trkpt lat="42.57683102444313" lon="12.547759125356903"><ele>169.0</ele><time>2026-05-02T08:42:43.989Z</time></trkpt><trkpt lat="42.57691646427546" lon="12.547743162130416"><ele>169.0</ele><time>2026-05-02T08:42:44.989Z</time></trkpt><trkpt lat="42.5769959913089" lon="12.547740618148417"><ele>169.0</ele><time>2026-05-02T08:42:45.989Z</time></trkpt><trkpt lat="42.577072199416186" lon="12.547755087722656"><ele>169.0</ele><time>2026-05-02T08:42:46.989Z</time></trkpt><trkpt lat="42.57715731391938" lon="12.547759070673257"><ele>169.0</ele><time>2026-05-02T08:42:47.989Z</time></trkpt><trkpt lat="42.57724065751371" lon="12.54774040689371"><ele>169.0</ele><time>2026-05-02T08:42:48.989Z</time></trkpt><trkpt lat="42.5773272635014" lon="12.547699646986556"><ele>169.0</ele><time>2026-05-02T08:42:49.989Z</time></trkpt><trkpt lat="42.57741501219339" lon="12.547677127541501"><ele>169.2</ele><time>2026-05-02T08:42:50.989Z</time></trkpt><trkpt lat="42.57750910294475" lon="12.54766069865805"><ele>169.39999999999998</ele><time>2026-05-02T08:42:51.989Z</time></trkpt><trkpt lat="42.57760275020917" lon="12.547646047117437"><ele>169.6</ele><time>2026-05-02T08:42:52.989Z</time></trkpt><trkpt lat="42.57769852563986" lon="12.54762925490461"><ele>169.8</ele><time>2026-05-02T08:42:53.989Z</time></trkpt><trkpt lat="42.577800954792565" lon="12.547612228529601"><ele>170.0</ele><time>2026-05-02T08:42:54.989Z</time></trkpt><trkpt lat="42.577909998546936" lon="12.547593723665408"><ele>170.6</ele><time>2026-05-02T08:42:55.989Z</time></trkpt><trkpt lat="42.57801724040474" lon="12.54757229242867"><ele>171.2</ele><time>2026-05-02T08:42:56.989Z</time></trkpt><trkpt lat="42.578127498089955" lon="12.547546846038186"><ele>171.8</ele><time>2026-05-02T08:42:57.989Z</time></trkpt><trkpt lat="42.57823051756093" lon="12.547518876627617"><ele>172.4</ele><time>2026-05-02T08:42:58.989Z</time></trkpt><trkpt lat="42.57833248079795" lon="12.547485954574613"><ele>173.0</ele><time>2026-05-02T08:42:59.989Z</time></trkpt><trkpt lat="42.578430164928044" lon="12.547451158027455"><ele>173.0</ele><time>2026-05-02T08:43:00.989Z</time></trkpt><trkpt lat="42.578528855489346" lon="12.547420493518644"><ele>173.0</ele><time>2026-05-02T08:43:01.989Z</time></trkpt><trkpt lat="42.57864223694033" lon="12.547392273541021"><ele>173.0</ele><time>2026-05-02T08:43:02.989Z</time></trkpt><trkpt lat="42.5787493895725" lon="12.547373739489602"><ele>173.0</ele><time>2026-05-02T08:43:03.989Z</time></trkpt><trkpt lat="42.578858663923405" lon="12.547355775810715"><ele>173.0</ele><time>2026-05-02T08:43:04.989Z</time></trkpt><trkpt lat="42.57897059731246" lon="12.547334013061503"><ele>173.0</ele><time>2026-05-02T08:43:05.989Z</time></trkpt><trkpt lat="42.57908455088384" lon="12.54731385816927"><ele>173.0</ele><time>2026-05-02T08:43:06.989Z</time></trkpt><trkpt lat="42.57919038106496" lon="12.547301912048388"><ele>173.0</ele><time>2026-05-02T08:43:07.989Z</time></trkpt><trkpt lat="42.57928870117852" lon="12.547296268623484"><ele>173.0</ele><time>2026-05-02T08:43:08.989Z</time></trkpt><trkpt lat="42.579386978198144" lon="12.547293885149086"><ele>173.0</ele><time>2026-05-02T08:43:09.989Z</time></trkpt><trkpt lat="42.57949052406375" lon="12.547308669603062"><ele>173.0</ele><time>2026-05-02T08:43:10.989Z</time></trkpt><trkpt lat="42.57958063200392" lon="12.547323941168383"><ele>173.0</ele><time>2026-05-02T08:43:11.989Z</time></trkpt><trkpt lat="42.57966616674058" lon="12.547336199207523"><ele>173.0</ele><time>2026-05-02T08:43:12.989Z</time></trkpt><trkpt lat="42.579751750992685" lon="12.547324043829295"><ele>173.0</ele><time>2026-05-02T08:43:13.989Z</time></trkpt><trkpt lat="42.579842541759525" lon="12.547303627215248"><ele>173.0</ele><time>2026-05-02T08:43:14.989Z</time></trkpt><trkpt lat="42.57994862152491" lon="12.547278293083268"><ele>173.0</ele><time>2026-05-02T08:43:15.989Z</time></trkpt><trkpt lat="42.58005714582124" lon="12.547251640336631"><ele>173.0</ele><time>2026-05-02T08:43:16.989Z</time></trkpt><trkpt lat="42.5801709355451" lon="12.547226423023242"><ele>173.0</ele><time>2026-05-02T08:43:17.989Z</time></trkpt><trkpt lat="42.58029479198529" lon="12.547215286520755"><ele>173.0</ele><time>2026-05-02T08:43:18.989Z</time></trkpt><trkpt lat="42.58042013151813" lon="12.547199775556876"><ele>173.5</ele><time>2026-05-02T08:43:19.989Z</time></trkpt><trkpt lat="42.58054185582603" lon="12.54718248801793"><ele>174.0</ele><time>2026-05-02T08:43:20.989Z</time></trkpt><trkpt lat="42.580674431289125" lon="12.547163553226722"><ele>174.5</ele><time>2026-05-02T08:43:21.989Z</time></trkpt><trkpt lat="42.58080493024804" lon="12.547149201579229"><ele>175.0</ele><time>2026-05-02T08:43:22.989Z</time></trkpt><trkpt lat="42.58093446845231" lon="12.547138107043002"><ele>175.0</ele><time>2026-05-02T08:43:23.989Z</time></trkpt><trkpt lat="42.58106681813295" lon="12.547120636677484"><ele>175.0</ele><time>2026-05-02T08:43:24.989Z</time></trkpt><trkpt lat="42.5812006298016" lon="12.547099852057892"><ele>175.0</ele><time>2026-05-02T08:43:25.989Z</time></trkpt><trkpt lat="42.58132978052338" lon="12.547085859455029"><ele>175.0</ele><time>2026-05-02T08:43:26.989Z</time></trkpt><trkpt lat="42.58145911544574" lon="12.54706460908959"><ele>176.25</ele><time>2026-05-02T08:43:27.989Z</time></trkpt><trkpt lat="42.58158248679526" lon="12.547042074647583"><ele>177.5</ele><time>2026-05-02T08:43:28.989Z</time></trkpt><trkpt lat="42.581703999525736" lon="12.547017485758985"><ele>178.75</ele><time>2026-05-02T08:43:29.989Z</time></trkpt><trkpt lat="42.581824481190786" lon="12.546978069121243"><ele>180.0</ele><time>2026-05-02T08:43:30.989Z</time></trkpt><trkpt lat="42.581945298099455" lon="12.54691815676731"><ele>180.5</ele><time>2026-05-02T08:43:31.989Z</time></trkpt><trkpt lat="42.58206409740714" lon="12.546828893276595"><ele>181.0</ele><time>2026-05-02T08:43:32.989Z</time></trkpt><trkpt lat="42.58218888404257" lon="12.546716608918025"><ele>181.5</ele><time>2026-05-02T08:43:33.989Z</time></trkpt><trkpt lat="42.58231733954507" lon="12.546610466866468"><ele>182.0</ele><time>2026-05-02T08:43:34.989Z</time></trkpt><trkpt lat="42.58245160784632" lon="12.546521081408029"><ele>182.0</ele><time>2026-05-02T08:43:35.989Z</time></trkpt><trkpt lat="42.582591345206204" lon="12.546447003313778"><ele>182.0</ele><time>2026-05-02T08:43:36.989Z</time></trkpt><trkpt lat="42.58272621855443" lon="12.546370756687523"><ele>182.0</ele><time>2026-05-02T08:43:37.989Z</time></trkpt><trkpt lat="42.58285532718073" lon="12.546283854533469"><ele>182.0</ele><time>2026-05-02T08:43:38.989Z</time></trkpt><trkpt lat="42.582981347997006" lon="12.5462014437055"><ele>184.0</ele><time>2026-05-02T08:43:39.989Z</time></trkpt><trkpt lat="42.58310626121694" lon="12.546126440942274"><ele>186.0</ele><time>2026-05-02T08:43:40.989Z</time></trkpt><trkpt lat="42.58325629645862" lon="12.546033983602728"><ele>188.0</ele><time>2026-05-02T08:43:41.989Z</time></trkpt><trkpt lat="42.58341443985117" lon="12.545930410943946"><ele>188.0</ele><time>2026-05-02T08:43:42.989Z</time></trkpt><trkpt lat="42.58355823098094" lon="12.545834765368523"><ele>188.0</ele><time>2026-05-02T08:43:43.989Z</time></trkpt><trkpt lat="42.583710364432406" lon="12.545732675316502"><ele>188.0</ele><time>2026-05-02T08:43:44.989Z</time></trkpt><trkpt lat="42.58386346029794" lon="12.545631282112623"><ele>190.33333333333331</ele><time>2026-05-02T08:43:45.989Z</time></trkpt><trkpt lat="42.584026027758526" lon="12.545537266491321"><ele>192.66666666666666</ele><time>2026-05-02T08:43:46.989Z</time></trkpt><trkpt lat="42.58416860365202" lon="12.545456668424746"><ele>195.0</ele><time>2026-05-02T08:43:47.989Z</time></trkpt><trkpt lat="42.58429356432475" lon="12.545375243372861"><ele>195.6</ele><time>2026-05-02T08:43:48.989Z</time></trkpt><trkpt lat="42.584404749005124" lon="12.545312780147611"><ele>196.2</ele><time>2026-05-02T08:43:49.989Z</time></trkpt><trkpt lat="42.58449803674153" lon="12.545254165559156"><ele>196.8</ele><time>2026-05-02T08:43:50.989Z</time></trkpt><trkpt lat="42.58457149191092" lon="12.545212890118382"><ele>197.4</ele><time>2026-05-02T08:43:51.988Z</time></trkpt><trkpt lat="42.58464326108801" lon="12.54516586708247"><ele>198.0</ele><time>2026-05-02T08:43:52.988Z</time></trkpt><trkpt lat="42.58472216125455" lon="12.545115259591567"><ele>198.2</ele><time>2026-05-02T08:43:53.988Z</time></trkpt><trkpt lat="42.584806753428566" lon="12.545056794608007"><ele>198.4</ele><time>2026-05-02T08:43:55.988Z</time></trkpt><trkpt lat="42.584875347429936" lon="12.54517780049948"><ele>198.6</ele><time>2026-05-02T08:43:58.988Z</time></trkpt><trkpt lat="42.58487887787054" lon="12.545338200874125"><ele>198.79999999999998</ele><time>2026-05-02T08:44:00.988Z</time></trkpt><trkpt lat="42.584919111008965" lon="12.54545779366766"><ele>199.0</ele><time>2026-05-02T08:44:02.988Z</time></trkpt><trkpt lat="42.58495857982144" lon="12.545614855571781"><ele>198.99999999999997</ele><time>2026-05-02T08:44:04.988Z</time></trkpt><trkpt lat="42.58497841619862" lon="12.54571073218175"><ele>199.0</ele><time>2026-05-02T08:44:05.988Z</time></trkpt><trkpt lat="42.58501348198688" lon="12.54582322020837"><ele>199.0</ele><time>2026-05-02T08:44:06.988Z</time></trkpt><trkpt lat="42.58505083082591" lon="12.545925579989827"><ele>199.0</ele><time>2026-05-02T08:44:07.988Z</time></trkpt><trkpt lat="42.58508441916501" lon="12.546029418252035"><ele>198.99999999999997</ele><time>2026-05-02T08:44:08.988Z</time></trkpt><trkpt lat="42.58511063288007" lon="12.546144701953656"><ele>199.0</ele><time>2026-05-02T08:44:09.988Z</time></trkpt><trkpt lat="42.58514451408156" lon="12.546255424553317"><ele>198.79999999999998</ele><time>2026-05-02T08:44:10.988Z</time></trkpt><trkpt lat="42.58517923566738" lon="12.546380415657104"><ele>198.6</ele><time>2026-05-02T08:44:11.988Z</time></trkpt><trkpt lat="42.585213736175874" lon="12.546510400965007"><ele>198.4</ele><time>2026-05-02T08:44:12.988Z</time></trkpt><trkpt lat="42.58524824930495" lon="12.546639404951295"><ele>198.2</ele><time>2026-05-02T08:44:13.988Z</time></trkpt><trkpt lat="42.58528530546261" lon="12.54677206804514"><ele>198.0</ele><time>2026-05-02T08:44:14.988Z</time></trkpt><trkpt lat="42.58532399081988" lon="12.546900476164579"><ele>197.60000000000002</ele><time>2026-05-02T08:44:15.988Z</time></trkpt><trkpt lat="42.58535830915388" lon="12.5470340656525"><ele>197.20000000000002</ele><time>2026-05-02T08:44:16.988Z</time></trkpt><trkpt lat="42.58538968685787" lon="12.547159195932862"><ele>196.8</ele><time>2026-05-02T08:44:17.988Z</time></trkpt><trkpt lat="42.5854204076547" lon="12.547292052362112"><ele>196.4</ele><time>2026-05-02T08:44:18.988Z</time></trkpt><trkpt lat="42.585452123464854" lon="12.547427613788514"><ele>196.0</ele><time>2026-05-02T08:44:19.988Z</time></trkpt><trkpt lat="42.585482768225255" lon="12.547554035318397"><ele>197.0</ele><time>2026-05-02T08:44:20.988Z</time></trkpt><trkpt lat="42.58549787467952" lon="12.54767762495856"><ele>198.0</ele><time>2026-05-02T08:44:21.988Z</time></trkpt><trkpt lat="42.58552194557028" lon="12.547805940558023"><ele>199.0</ele><time>2026-05-02T08:44:22.988Z</time></trkpt><trkpt lat="42.58554207143928" lon="12.547923284891754"><ele>200.0</ele><time>2026-05-02T08:44:23.988Z</time></trkpt><trkpt lat="42.58556587644426" lon="12.548037052465638"><ele>201.0</ele><time>2026-05-02T08:44:24.988Z</time></trkpt><trkpt lat="42.58558432613466" lon="12.548151135759465"><ele>201.0</ele><time>2026-05-02T08:44:25.988Z</time></trkpt><trkpt lat="42.58559116373187" lon="12.548266705995722"><ele>201.0</ele><time>2026-05-02T08:44:26.988Z</time></trkpt><trkpt lat="42.5855981596643" lon="12.548365672339115"><ele>201.0</ele><time>2026-05-02T08:44:27.988Z</time></trkpt><trkpt lat="42.58559493536449" lon="12.548497556246105"><ele>201.0</ele><time>2026-05-02T08:44:29.988Z</time></trkpt><trkpt lat="42.58544297977748" lon="12.548568139001429"><ele>201.0</ele><time>2026-05-02T08:44:32.988Z</time></trkpt><trkpt lat="42.585377907758556" lon="12.548592143983955"><ele>200.33333333333334</ele><time>2026-05-02T08:44:33.988Z</time></trkpt><trkpt lat="42.58531866675416" lon="12.548658601094276"><ele>199.66666666666669</ele><time>2026-05-02T08:44:34.988Z</time></trkpt><trkpt lat="42.58527163017502" lon="12.548738034687783"><ele>199.0</ele><time>2026-05-02T08:44:35.988Z</time></trkpt><trkpt lat="42.58523556329879" lon="12.548833261088824"><ele>198.33333333333334</ele><time>2026-05-02T08:44:36.988Z</time></trkpt><trkpt lat="42.58522091074607" lon="12.548925226706983"><ele>197.66666666666669</ele><time>2026-05-02T08:44:37.988Z</time></trkpt><trkpt lat="42.58520897846555" lon="12.549018954124447"><ele>197.0</ele><time>2026-05-02T08:44:38.988Z</time></trkpt><trkpt lat="42.58515549932238" lon="12.549157081480901"><ele>197.0</ele><time>2026-05-02T08:44:40.988Z</time></trkpt><trkpt lat="42.58504859415984" lon="12.549262915925866"><ele>197.0</ele><time>2026-05-02T08:44:42.988Z</time></trkpt><trkpt lat="42.58499549677892" lon="12.549314579532403"><ele>197.0</ele><time>2026-05-02T08:44:43.988Z</time></trkpt><trkpt lat="42.58488376095855" lon="12.549385792017315"><ele>197.0</ele><time>2026-05-02T08:44:45.988Z</time></trkpt><trkpt lat="42.58481715602048" lon="12.549408409819982"><ele>197.0</ele><time>2026-05-02T08:44:46.988Z</time></trkpt><trkpt lat="42.584752230217305" lon="12.549396835329798"><ele>197.0</ele><time>2026-05-02T08:44:47.988Z</time></trkpt><trkpt lat="42.58464673169318" lon="12.549387202964548"><ele>197.0</ele><time>2026-05-02T08:44:49.988Z</time></trkpt><trkpt lat="42.584544709142854" lon="12.54927679353351"><ele>197.0</ele><time>2026-05-02T08:44:51.988Z</time></trkpt><trkpt lat="42.58451523764348" lon="12.549164988782138"><ele>197.0</ele><time>2026-05-02T08:44:52.988Z</time></trkpt><trkpt lat="42.5844834486254" lon="12.549050101120303"><ele>197.0</ele><time>2026-05-02T08:44:53.988Z</time></trkpt><trkpt lat="42.584449976471056" lon="12.54894379832415"><ele>194.39999999999998</ele><time>2026-05-02T08:44:54.988Z</time></trkpt><trkpt lat="42.58440021069485" lon="12.548837718376404"><ele>191.79999999999998</ele><time>2026-05-02T08:44:55.988Z</time></trkpt><trkpt lat="42.58434481340366" lon="12.548729698245548"><ele>189.2</ele><time>2026-05-02T08:44:56.988Z</time></trkpt><trkpt lat="42.58429228485232" lon="12.5486238171774"><ele>186.6</ele><time>2026-05-02T08:44:57.988Z</time></trkpt><trkpt lat="42.584228121398" lon="12.548528517236718"><ele>184.0</ele><time>2026-05-02T08:44:58.988Z</time></trkpt><trkpt lat="42.584157553215384" lon="12.548444417796157"><ele>184.0</ele><time>2026-05-02T08:44:59.988Z</time></trkpt><trkpt lat="42.58407388882066" lon="12.548370405066354"><ele>184.0</ele><time>2026-05-02T08:45:00.988Z</time></trkpt><trkpt lat="42.58397586407704" lon="12.548315178679928"><ele>184.0</ele><time>2026-05-02T08:45:01.988Z</time></trkpt><trkpt lat="42.5838648026331" lon="12.548279163663148"><ele>184.0</ele><time>2026-05-02T08:45:02.987Z</time></trkpt><trkpt lat="42.58375154023889" lon="12.548242116048208"><ele>184.0</ele><time>2026-05-02T08:45:03.987Z</time></trkpt><trkpt lat="42.5836414736148" lon="12.548184498765245"><ele>182.0</ele><time>2026-05-02T08:45:04.987Z</time></trkpt><trkpt lat="42.58352357588414" lon="12.548145911545555"><ele>180.0</ele><time>2026-05-02T08:45:05.987Z</time></trkpt><trkpt lat="42.58340627678367" lon="12.548104436503712"><ele>178.0</ele><time>2026-05-02T08:45:06.987Z</time></trkpt><trkpt lat="42.5833018388205" lon="12.54806005625763"><ele>176.0</ele><time>2026-05-02T08:45:07.987Z</time></trkpt><trkpt lat="42.58320088702608" lon="12.548008574168897"><ele>176.0</ele><time>2026-05-02T08:45:08.987Z</time></trkpt><trkpt lat="42.58310481757013" lon="12.547954872803508"><ele>176.0</ele><time>2026-05-02T08:45:09.987Z</time></trkpt><trkpt lat="42.58300897399664" lon="12.547888564646843"><ele>176.0</ele><time>2026-05-02T08:45:10.987Z</time></trkpt><trkpt lat="42.582924209703805" lon="12.547823665523055"><ele>176.0</ele><time>2026-05-02T08:45:11.987Z</time></trkpt><trkpt lat="42.58283529235972" lon="12.547785376385901"><ele>176.0</ele><time>2026-05-02T08:45:12.987Z</time></trkpt><trkpt lat="42.58274247413802" lon="12.547776988443369"><ele>176.75</ele><time>2026-05-02T08:45:13.987Z</time></trkpt><trkpt lat="42.582632039256204" lon="12.547826371674624"><ele>177.5</ele><time>2026-05-02T08:45:14.987Z</time></trkpt><trkpt lat="42.5825259960657" lon="12.547917623019782"><ele>178.25</ele><time>2026-05-02T08:45:15.987Z</time></trkpt><trkpt lat="42.58242741614359" lon="12.548037143031362"><ele>179.0</ele><time>2026-05-02T08:45:16.987Z</time></trkpt><trkpt lat="42.58231373547827" lon="12.548090998514908"><ele>177.5</ele><time>2026-05-02T08:45:17.987Z</time></trkpt><trkpt lat="42.582198412514956" lon="12.54814359001732"><ele>176.0</ele><time>2026-05-02T08:45:18.987Z</time></trkpt><trkpt lat="42.58208653685163" lon="12.548192542732737"><ele>174.5</ele><time>2026-05-02T08:45:19.987Z</time></trkpt><trkpt lat="42.58196978931135" lon="12.548242573042046"><ele>173.0</ele><time>2026-05-02T08:45:20.987Z</time></trkpt><trkpt lat="42.58185463923269" lon="12.548291918784898"><ele>172.75</ele><time>2026-05-02T08:45:21.987Z</time></trkpt><trkpt lat="42.58174036332477" lon="12.548340820806835"><ele>172.5</ele><time>2026-05-02T08:45:22.987Z</time></trkpt><trkpt lat="42.581630573967225" lon="12.548390753914415"><ele>172.25</ele><time>2026-05-02T08:45:23.987Z</time></trkpt><trkpt lat="42.58152062975022" lon="12.548439136612203"><ele>172.0</ele><time>2026-05-02T08:45:24.987Z</time></trkpt><trkpt lat="42.581409738335736" lon="12.548490072167107"><ele>172.0</ele><time>2026-05-02T08:45:25.987Z</time></trkpt><trkpt lat="42.581291919639064" lon="12.548536142441852"><ele>172.0</ele><time>2026-05-02T08:45:26.987Z</time></trkpt><trkpt lat="42.581179026740884" lon="12.548582521950628"><ele>172.0</ele><time>2026-05-02T08:45:27.987Z</time></trkpt><trkpt lat="42.58106759580853" lon="12.548632731859758"><ele>172.0</ele><time>2026-05-02T08:45:28.987Z</time></trkpt><trkpt lat="42.580957015077544" lon="12.548683254810708"><ele>169.5</ele><time>2026-05-02T08:45:29.987Z</time></trkpt><trkpt lat="42.58084875512683" lon="12.548731466457948"><ele>167.0</ele><time>2026-05-02T08:45:30.987Z</time></trkpt><trkpt lat="42.58073254555689" lon="12.548782661768236"><ele>164.5</ele><time>2026-05-02T08:45:31.987Z</time></trkpt><trkpt lat="42.5806175750561" lon="12.548832488936968"><ele>162.0</ele><time>2026-05-02T08:45:32.987Z</time></trkpt><trkpt lat="42.58050051540117" lon="12.548890436408467"><ele>162.0</ele><time>2026-05-02T08:45:33.987Z</time></trkpt><trkpt lat="42.580392769131606" lon="12.548931243131152"><ele>162.0</ele><time>2026-05-02T08:45:34.987Z</time></trkpt><trkpt lat="42.580278491925526" lon="12.548989888280289"><ele>162.0</ele><time>2026-05-02T08:45:35.987Z</time></trkpt><trkpt lat="42.580175207314234" lon="12.549033077666861"><ele>162.0</ele><time>2026-05-02T08:45:36.987Z</time></trkpt><trkpt lat="42.58007340399512" lon="12.549075718872578"><ele>162.0</ele><time>2026-05-02T08:45:37.987Z</time></trkpt><trkpt lat="42.57997669196115" lon="12.549116800607097"><ele>162.0</ele><time>2026-05-02T08:45:38.987Z</time></trkpt><trkpt lat="42.57987379422264" lon="12.549162227694168"><ele>162.0</ele><time>2026-05-02T08:45:39.987Z</time></trkpt><trkpt lat="42.57976409903747" lon="12.549196714171735"><ele>162.0</ele><time>2026-05-02T08:45:40.987Z</time></trkpt><trkpt lat="42.57965418282761" lon="12.549199962862433"><ele>162.0</ele><time>2026-05-02T08:45:41.987Z</time></trkpt><trkpt lat="42.579541916898854" lon="12.549213602288296"><ele>162.0</ele><time>2026-05-02T08:45:42.987Z</time></trkpt><trkpt lat="42.5794241741085" lon="12.54923214908341"><ele>161.75</ele><time>2026-05-02T08:45:43.987Z</time></trkpt><trkpt lat="42.57931080204595" lon="12.549243391983177"><ele>161.5</ele><time>2026-05-02T08:45:44.987Z</time></trkpt><trkpt lat="42.579190912068135" lon="12.549232744897903"><ele>161.25</ele><time>2026-05-02T08:45:45.987Z</time></trkpt><trkpt lat="42.579070046798186" lon="12.549231656695001"><ele>161.0</ele><time>2026-05-02T08:45:46.987Z</time></trkpt><trkpt lat="42.578949626205514" lon="12.54923685995974"><ele>161.0</ele><time>2026-05-02T08:45:47.987Z</time></trkpt><trkpt lat="42.578820065215936" lon="12.549245393017795"><ele>161.0</ele><time>2026-05-02T08:45:48.987Z</time></trkpt><trkpt lat="42.57868357066544" lon="12.549246783075022"><ele>161.0</ele><time>2026-05-02T08:45:49.987Z</time></trkpt><trkpt lat="42.57855124602942" lon="12.549257690628272"><ele>161.0</ele><time>2026-05-02T08:45:50.987Z</time></trkpt><trkpt lat="42.57842748038039" lon="12.549266661814375"><ele>161.0</ele><time>2026-05-02T08:45:51.987Z</time></trkpt><trkpt lat="42.578292520375925" lon="12.549278041738933"><ele>161.0</ele><time>2026-05-02T08:45:52.987Z</time></trkpt><trkpt lat="42.578166081542605" lon="12.549280202736762"><ele>161.0</ele><time>2026-05-02T08:45:53.987Z</time></trkpt><trkpt lat="42.57803682187431" lon="12.549285868959139"><ele>161.0</ele><time>2026-05-02T08:45:54.987Z</time></trkpt><trkpt lat="42.577910735550034" lon="12.5492953578582"><ele>161.0</ele><time>2026-05-02T08:45:55.987Z</time></trkpt><trkpt lat="42.577783567693615" lon="12.549309570873236"><ele>161.0</ele><time>2026-05-02T08:45:56.987Z</time></trkpt><trkpt lat="42.57765670659086" lon="12.549314602257587"><ele>161.0</ele><time>2026-05-02T08:45:57.987Z</time></trkpt><trkpt lat="42.57752632199358" lon="12.549320327291"><ele>161.0</ele><time>2026-05-02T08:45:58.987Z</time></trkpt><trkpt lat="42.57739755206736" lon="12.549334945406258"><ele>161.0</ele><time>2026-05-02T08:45:59.987Z</time></trkpt><trkpt lat="42.577270620111335" lon="12.549342563991075"><ele>161.0</ele><time>2026-05-02T08:46:00.987Z</time></trkpt><trkpt lat="42.57714127710239" lon="12.549358718464742"><ele>161.0</ele><time>2026-05-02T08:46:01.987Z</time></trkpt><trkpt lat="42.57701289914647" lon="12.54937024889089"><ele>161.0</ele><time>2026-05-02T08:46:02.987Z</time></trkpt><trkpt lat="42.576879148988326" lon="12.54935784252006"><ele>161.0</ele><time>2026-05-02T08:46:03.987Z</time></trkpt><trkpt lat="42.57674961871801" lon="12.549364550704341"><ele>161.0</ele><time>2026-05-02T08:46:04.987Z</time></trkpt><trkpt lat="42.57661500698662" lon="12.549371522054486"><ele>161.0</ele><time>2026-05-02T08:46:05.987Z</time></trkpt><trkpt lat="42.576486791372176" lon="12.549376849142735"><ele>161.0</ele><time>2026-05-02T08:46:06.987Z</time></trkpt><trkpt lat="42.57635878463016" lon="12.549381386382514"><ele>161.0</ele><time>2026-05-02T08:46:07.987Z</time></trkpt><trkpt lat="42.576235104060956" lon="12.54938577027978"><ele>161.0</ele><time>2026-05-02T08:46:08.987Z</time></trkpt><trkpt lat="42.57611518768523" lon="12.549390020755098"><ele>161.0</ele><time>2026-05-02T08:46:09.987Z</time></trkpt><trkpt lat="42.57600119616864" lon="12.549394061222277"><ele>161.0</ele><time>2026-05-02T08:46:10.987Z</time></trkpt><trkpt lat="42.57588775258256" lon="12.549401099039905"><ele>161.66666666666666</ele><time>2026-05-02T08:46:11.987Z</time></trkpt><trkpt lat="42.575784759057115" lon="12.549411857698631"><ele>162.33333333333331</ele><time>2026-05-02T08:46:12.987Z</time></trkpt><trkpt lat="42.57569494612999" lon="12.54943352599507"><ele>163.0</ele><time>2026-05-02T08:46:13.987Z</time></trkpt><trkpt lat="42.57560810518735" lon="12.54944238208128"><ele>163.66666666666666</ele><time>2026-05-02T08:46:14.987Z</time></trkpt><trkpt lat="42.57553253085026" lon="12.549412419513157"><ele>164.33333333333334</ele><time>2026-05-02T08:46:15.987Z</time></trkpt><trkpt lat="42.57547294020747" lon="12.54937616965733"><ele>165.0</ele><time>2026-05-02T08:46:16.987Z</time></trkpt><trkpt lat="42.575454789720126" lon="12.549273392321195"><ele>165.0</ele><time>2026-05-02T08:46:17.987Z</time></trkpt><trkpt lat="42.57549616185973" lon="12.54916428448692"><ele>165.0</ele><time>2026-05-02T08:46:18.987Z</time></trkpt><trkpt lat="42.575499228756975" lon="12.549048194065263"><ele>165.0</ele><time>2026-05-02T08:46:19.987Z</time></trkpt><trkpt lat="42.57549980937821" lon="12.54889994243284"><ele>165.0</ele><time>2026-05-02T08:46:20.987Z</time></trkpt><trkpt lat="42.575496703089094" lon="12.548736254373809"><ele>165.0</ele><time>2026-05-02T08:46:21.986Z</time></trkpt><trkpt lat="42.57549313107942" lon="12.548575205235386"><ele>166.4</ele><time>2026-05-02T08:46:22.986Z</time></trkpt><trkpt lat="42.575475767661615" lon="12.54841487156134"><ele>167.8</ele><time>2026-05-02T08:46:23.986Z</time></trkpt><trkpt lat="42.57548175209952" lon="12.548268641361215"><ele>169.2</ele><time>2026-05-02T08:46:24.986Z</time></trkpt><trkpt lat="42.57547686340664" lon="12.548133408295792"><ele>170.6</ele><time>2026-05-02T08:46:25.986Z</time></trkpt><trkpt lat="42.57546164069057" lon="12.548014556816206"><ele>172.0</ele><time>2026-05-02T08:46:26.986Z</time></trkpt><trkpt lat="42.57542935971506" lon="12.547916009496273"><ele>172.75</ele><time>2026-05-02T08:46:27.986Z</time></trkpt><trkpt lat="42.575309389323415" lon="12.5478382462628"><ele>173.5</ele><time>2026-05-02T08:46:29.986Z</time></trkpt><trkpt lat="42.57521337453985" lon="12.54782074308479"><ele>174.25</ele><time>2026-05-02T08:46:30.986Z</time></trkpt><trkpt lat="42.57509874568271" lon="12.547831718547172"><ele>175.0</ele><time>2026-05-02T08:46:31.986Z</time></trkpt><trkpt lat="42.57498618849951" lon="12.547850717530352"><ele>175.0</ele><time>2026-05-02T08:46:32.986Z</time></trkpt><trkpt lat="42.574869068104384" lon="12.54787092782033"><ele>175.0</ele><time>2026-05-02T08:46:33.986Z</time></trkpt><trkpt lat="42.57475163610766" lon="12.547888593614328"><ele>175.0</ele><time>2026-05-02T08:46:34.986Z</time></trkpt><trkpt lat="42.574630129168604" lon="12.547905226868442"><ele>175.0</ele><time>2026-05-02T08:46:35.986Z</time></trkpt><trkpt lat="42.574511579925975" lon="12.54792145523089"><ele>174.5</ele><time>2026-05-02T08:46:36.986Z</time></trkpt><trkpt lat="42.57439408267298" lon="12.547937539591855"><ele>174.0</ele><time>2026-05-02T08:46:37.986Z</time></trkpt><trkpt lat="42.5742699362292" lon="12.54795804263679"><ele>173.5</ele><time>2026-05-02T08:46:38.986Z</time></trkpt><trkpt lat="42.574149746656644" lon="12.547983172525973"><ele>173.0</ele><time>2026-05-02T08:46:39.986Z</time></trkpt><trkpt lat="42.57402870769305" lon="12.548002001558126"><ele>173.0</ele><time>2026-05-02T08:46:40.986Z</time></trkpt><trkpt lat="42.573908638625895" lon="12.548016882909657"><ele>173.0</ele><time>2026-05-02T08:46:41.986Z</time></trkpt><trkpt lat="42.573788757719676" lon="12.548054219436791"><ele>173.0</ele><time>2026-05-02T08:46:42.986Z</time></trkpt><trkpt lat="42.57366507489747" lon="12.548050915761754"><ele>173.0</ele><time>2026-05-02T08:46:43.986Z</time></trkpt><trkpt lat="42.57354715520652" lon="12.548090977236233"><ele>173.0</ele><time>2026-05-02T08:46:44.986Z</time></trkpt><trkpt lat="42.57342967625019" lon="12.548117429722032"><ele>173.0</ele><time>2026-05-02T08:46:45.986Z</time></trkpt><trkpt lat="42.57331713926314" lon="12.54814802008014"><ele>173.0</ele><time>2026-05-02T08:46:46.986Z</time></trkpt><trkpt lat="42.57320795913033" lon="12.548183372149856"><ele>173.0</ele><time>2026-05-02T08:46:47.986Z</time></trkpt><trkpt lat="42.573094868673905" lon="12.548223249178045"><ele>173.0</ele><time>2026-05-02T08:46:48.986Z</time></trkpt><trkpt lat="42.57298543962547" lon="12.548258407937503"><ele>173.0</ele><time>2026-05-02T08:46:49.986Z</time></trkpt><trkpt lat="42.57286981811466" lon="12.548299040985114"><ele>173.0</ele><time>2026-05-02T08:46:50.986Z</time></trkpt><trkpt lat="42.57275190699657" lon="12.54834420351312"><ele>173.0</ele><time>2026-05-02T08:46:51.986Z</time></trkpt><trkpt lat="42.57263073210207" lon="12.5483862522904"><ele>173.0</ele><time>2026-05-02T08:46:52.986Z</time></trkpt><trkpt lat="42.572502564362956" lon="12.548412332023558"><ele>173.0</ele><time>2026-05-02T08:46:53.986Z</time></trkpt><trkpt lat="42.57238002022973" lon="12.548465089214838"><ele>173.0</ele><time>2026-05-02T08:46:54.986Z</time></trkpt><trkpt lat="42.57225469292208" lon="12.548520046857062"><ele>173.0</ele><time>2026-05-02T08:46:55.986Z</time></trkpt><trkpt lat="42.572133352584" lon="12.54858481429678"><ele>172.5</ele><time>2026-05-02T08:46:56.986Z</time></trkpt><trkpt lat="42.572009140173584" lon="12.548647581165113"><ele>172.0</ele><time>2026-05-02T08:46:57.986Z</time></trkpt><trkpt lat="42.57189398719153" lon="12.548723902234292"><ele>171.5</ele><time>2026-05-02T08:46:58.986Z</time></trkpt><trkpt lat="42.57178054397879" lon="12.548802026903168"><ele>171.0</ele><time>2026-05-02T08:46:59.986Z</time></trkpt><trkpt lat="42.57166917054534" lon="12.548881023887608"><ele>171.0</ele><time>2026-05-02T08:47:00.986Z</time></trkpt><trkpt lat="42.57156467104602" lon="12.548968087090802"><ele>171.0</ele><time>2026-05-02T08:47:01.986Z</time></trkpt><trkpt lat="42.57146308689185" lon="12.549062584168581"><ele>171.0</ele><time>2026-05-02T08:47:02.986Z</time></trkpt><trkpt lat="42.57136013869784" lon="12.549169104671245"><ele>171.0</ele><time>2026-05-02T08:47:03.986Z</time></trkpt><trkpt lat="42.57125358499774" lon="12.549275461907017"><ele>170.5</ele><time>2026-05-02T08:47:04.986Z</time></trkpt><trkpt lat="42.57113937839885" lon="12.549369405669163"><ele>170.0</ele><time>2026-05-02T08:47:05.986Z</time></trkpt><trkpt lat="42.571017869798396" lon="12.549440831880744"><ele>169.5</ele><time>2026-05-02T08:47:06.986Z</time></trkpt><trkpt lat="42.57089875476765" lon="12.549497236796029"><ele>169.0</ele><time>2026-05-02T08:47:07.986Z</time></trkpt><trkpt lat="42.57078108542529" lon="12.549560629292383"><ele>169.0</ele><time>2026-05-02T08:47:08.986Z</time></trkpt><trkpt lat="42.570656146154775" lon="12.54961594321537"><ele>169.0</ele><time>2026-05-02T08:47:09.986Z</time></trkpt><trkpt lat="42.57053435211107" lon="12.549675086629719"><ele>169.0</ele><time>2026-05-02T08:47:10.986Z</time></trkpt><trkpt lat="42.570414025367" lon="12.549733983675967"><ele>169.0</ele><time>2026-05-02T08:47:11.986Z</time></trkpt><trkpt lat="42.57029855680184" lon="12.549794821000397"><ele>169.0</ele><time>2026-05-02T08:47:12.986Z</time></trkpt><trkpt lat="42.57018841312731" lon="12.549854159278963"><ele>169.0</ele><time>2026-05-02T08:47:13.986Z</time></trkpt><trkpt lat="42.570082345474255" lon="12.549911929391568"><ele>169.0</ele><time>2026-05-02T08:47:14.986Z</time></trkpt><trkpt lat="42.569976836716" lon="12.549966814394937"><ele>169.0</ele><time>2026-05-02T08:47:15.986Z</time></trkpt><trkpt lat="42.56987585462557" lon="12.550018532494045"><ele>169.0</ele><time>2026-05-02T08:47:16.986Z</time></trkpt><trkpt lat="42.56978543183609" lon="12.550087461179807"><ele>169.0</ele><time>2026-05-02T08:47:17.986Z</time></trkpt><trkpt lat="42.569717732281276" lon="12.550190723471523"><ele>169.0</ele><time>2026-05-02T08:47:18.986Z</time></trkpt><trkpt lat="42.569651255474724" lon="12.550318705456082"><ele>169.0</ele><time>2026-05-02T08:47:19.986Z</time></trkpt><trkpt lat="42.56959746358659" lon="12.550481179840993"><ele>169.0</ele><time>2026-05-02T08:47:20.986Z</time></trkpt><trkpt lat="42.56955118200253" lon="12.550638163914384"><ele>169.0</ele><time>2026-05-02T08:47:21.986Z</time></trkpt><trkpt lat="42.56950030354476" lon="12.550796072636352"><ele>169.0</ele><time>2026-05-02T08:47:22.986Z</time></trkpt><trkpt lat="42.569443465656335" lon="12.55094526116517"><ele>169.0</ele><time>2026-05-02T08:47:23.986Z</time></trkpt><trkpt lat="42.56937941764841" lon="12.551080349251777"><ele>169.0</ele><time>2026-05-02T08:47:24.986Z</time></trkpt><trkpt lat="42.56931032692897" lon="12.551206905133366"><ele>169.0</ele><time>2026-05-02T08:47:25.986Z</time></trkpt><trkpt lat="42.569249236700024" lon="12.551306703869109"><ele>169.0</ele><time>2026-05-02T08:47:26.986Z</time></trkpt><trkpt lat="42.569191138911" lon="12.55139942368426"><ele>169.0</ele><time>2026-05-02T08:47:27.986Z</time></trkpt><trkpt lat="42.56913724371216" lon="12.55148052352545"><ele>169.0</ele><time>2026-05-02T08:47:28.986Z</time></trkpt><trkpt lat="42.56908367446181" lon="12.551556782345035"><ele>169.33333333333334</ele><time>2026-05-02T08:47:29.986Z</time></trkpt><trkpt lat="42.56903096929738" lon="12.551629801159018"><ele>169.66666666666669</ele><time>2026-05-02T08:47:30.986Z</time></trkpt><trkpt lat="42.5689776728884" lon="12.551722152058185"><ele>170.0</ele><time>2026-05-02T08:47:31.986Z</time></trkpt><trkpt lat="42.568920745406245" lon="12.55183504832197"><ele>170.33333333333334</ele><time>2026-05-02T08:47:33.986Z</time></trkpt><trkpt lat="42.56887661223666" lon="12.551912744007662"><ele>170.66666666666666</ele><time>2026-05-02T08:47:35.986Z</time></trkpt><trkpt lat="42.56881462520086" lon="12.551949752400342"><ele>171.0</ele><time>2026-05-02T08:47:52.985Z</time></trkpt><trkpt lat="42.56874808151304" lon="12.55186538162741"><ele>170.0</ele><time>2026-05-02T08:47:54.985Z</time></trkpt><trkpt lat="42.56868489605094" lon="12.551800060852978"><ele>169.0</ele><time>2026-05-02T08:47:55.985Z</time></trkpt><trkpt lat="42.56861473726682" lon="12.551723974665235"><ele>168.0</ele><time>2026-05-02T08:47:56.985Z</time></trkpt><trkpt lat="42.568541500812316" lon="12.551642834985435"><ele>167.0</ele><time>2026-05-02T08:47:57.985Z</time></trkpt><trkpt lat="42.56846723994872" lon="12.551558807063588"><ele>166.0</ele><time>2026-05-02T08:47:58.985Z</time></trkpt><trkpt lat="42.56838585648828" lon="12.551466233533944"><ele>166.0</ele><time>2026-05-02T08:47:59.985Z</time></trkpt><trkpt lat="42.568294800286864" lon="12.551381186165123"><ele>166.0</ele><time>2026-05-02T08:48:00.985Z</time></trkpt><trkpt lat="42.56822089529767" lon="12.551274716318597"><ele>166.0</ele><time>2026-05-02T08:48:01.985Z</time></trkpt><trkpt lat="42.568139769698064" lon="12.551178132527037"><ele>166.0</ele><time>2026-05-02T08:48:02.985Z</time></trkpt><trkpt lat="42.5680591076675" lon="12.551086650566962"><ele>166.0</ele><time>2026-05-02T08:48:03.985Z</time></trkpt><trkpt lat="42.567973392307536" lon="12.550987325916312"><ele>165.5</ele><time>2026-05-02T08:48:04.985Z</time></trkpt><trkpt lat="42.56788866360174" lon="12.550892913550063"><ele>165.0</ele><time>2026-05-02T08:48:05.985Z</time></trkpt><trkpt lat="42.567801311929536" lon="12.55078894267379"><ele>164.5</ele><time>2026-05-02T08:48:06.985Z</time></trkpt><trkpt lat="42.5677133543059" lon="12.550683937757448"><ele>164.0</ele><time>2026-05-02T08:48:07.985Z</time></trkpt><trkpt lat="42.56762332610379" lon="12.550581242648354"><ele>162.25</ele><time>2026-05-02T08:48:08.985Z</time></trkpt><trkpt lat="42.56752356954163" lon="12.550496883817157"><ele>160.5</ele><time>2026-05-02T08:48:09.985Z</time></trkpt><trkpt lat="42.56742447957803" lon="12.55041159698055"><ele>158.75</ele><time>2026-05-02T08:48:10.985Z</time></trkpt><trkpt lat="42.567321473355804" lon="12.550343763705483"><ele>157.0</ele><time>2026-05-02T08:48:11.985Z</time></trkpt><trkpt lat="42.56721951665202" lon="12.550259046112656"><ele>156.0</ele><time>2026-05-02T08:48:12.985Z</time></trkpt><trkpt lat="42.56710441358936" lon="12.550221351776479"><ele>155.0</ele><time>2026-05-02T08:48:13.985Z</time></trkpt><trkpt lat="42.56698487563144" lon="12.550187073359066"><ele>154.0</ele><time>2026-05-02T08:48:14.985Z</time></trkpt><trkpt lat="42.566865051892655" lon="12.550161075723096"><ele>153.0</ele><time>2026-05-02T08:48:15.985Z</time></trkpt><trkpt lat="42.5667540209124" lon="12.550130348082568"><ele>152.0</ele><time>2026-05-02T08:48:16.985Z</time></trkpt><trkpt lat="42.56664505572393" lon="12.55012080395293"><ele>151.0</ele><time>2026-05-02T08:48:17.985Z</time></trkpt><trkpt lat="42.56653754631422" lon="12.550114418939604"><ele>150.0</ele><time>2026-05-02T08:48:18.985Z</time></trkpt><trkpt lat="42.56643760464455" lon="12.550116614589951"><ele>149.0</ele><time>2026-05-02T08:48:19.985Z</time></trkpt><trkpt lat="42.566333159084266" lon="12.550128710522044"><ele>148.0</ele><time>2026-05-02T08:48:20.985Z</time></trkpt><trkpt lat="42.56623108947398" lon="12.55013140388294"><ele>147.4</ele><time>2026-05-02T08:48:21.985Z</time></trkpt><trkpt lat="42.56612932312015" lon="12.55013851405534"><ele>146.8</ele><time>2026-05-02T08:48:22.985Z</time></trkpt><trkpt lat="42.566035255886646" lon="12.550132381325747"><ele>146.2</ele><time>2026-05-02T08:48:23.985Z</time></trkpt><trkpt lat="42.56594900685648" lon="12.550128405385378"><ele>145.6</ele><time>2026-05-02T08:48:24.985Z</time></trkpt><trkpt lat="42.56587831337946" lon="12.550138376677548"><ele>145.0</ele><time>2026-05-02T08:48:25.985Z</time></trkpt><trkpt lat="42.56579360681265" lon="12.549978235319935"><ele>145.0</ele><time>2026-05-02T08:48:26.985Z</time></trkpt><trkpt lat="42.56570962065249" lon="12.549883524003834"><ele>145.0</ele><time>2026-05-02T08:48:27.985Z</time></trkpt><trkpt lat="42.56562065251636" lon="12.549806571134281"><ele>145.0</ele><time>2026-05-02T08:48:28.985Z</time></trkpt><trkpt lat="42.56554033127866" lon="12.549702364736456"><ele>145.0</ele><time>2026-05-02T08:48:29.985Z</time></trkpt><trkpt lat="42.56545803625084" lon="12.549600030009652"><ele>145.0</ele><time>2026-05-02T08:48:30.985Z</time></trkpt><trkpt lat="42.56537257573798" lon="12.549489138823027"><ele>144.0</ele><time>2026-05-02T08:48:31.985Z</time></trkpt><trkpt lat="42.565281734046806" lon="12.549382279271718"><ele>143.0</ele><time>2026-05-02T08:48:32.985Z</time></trkpt><trkpt lat="42.56519617075337" lon="12.549265934071258"><ele>142.0</ele><time>2026-05-02T08:48:33.985Z</time></trkpt><trkpt lat="42.56511990738172" lon="12.54914463466706"><ele>141.0</ele><time>2026-05-02T08:48:34.985Z</time></trkpt><trkpt lat="42.56504598689243" lon="12.549017219786974"><ele>141.0</ele><time>2026-05-02T08:48:35.985Z</time></trkpt><trkpt lat="42.564969054659066" lon="12.548887647474142"><ele>141.0</ele><time>2026-05-02T08:48:36.985Z</time></trkpt><trkpt lat="42.564898101891366" lon="12.548756880198065"><ele>141.0</ele><time>2026-05-02T08:48:37.985Z</time></trkpt><trkpt lat="42.56482586322227" lon="12.548632599536889"><ele>141.0</ele><time>2026-05-02T08:48:38.985Z</time></trkpt><trkpt lat="42.564752645057176" lon="12.548512219944037"><ele>140.75</ele><time>2026-05-02T08:48:39.985Z</time></trkpt><trkpt lat="42.564681119375805" lon="12.54841281836038"><ele>140.5</ele><time>2026-05-02T08:48:40.985Z</time></trkpt><trkpt lat="42.56460334466533" lon="12.548295219362918"><ele>140.25</ele><time>2026-05-02T08:48:41.985Z</time></trkpt><trkpt lat="42.56452843232822" lon="12.54817207778677"><ele>140.0</ele><time>2026-05-02T08:48:42.988Z</time></trkpt><trkpt lat="42.564450607834075" lon="12.548049941111886"><ele>139.75</ele><time>2026-05-02T08:48:43.988Z</time></trkpt><trkpt lat="42.564370238116304" lon="12.547929140407268"><ele>139.5</ele><time>2026-05-02T08:48:44.988Z</time></trkpt><trkpt lat="42.56429314745703" lon="12.547798583213783"><ele>139.25</ele><time>2026-05-02T08:48:45.988Z</time></trkpt><trkpt lat="42.56421521962993" lon="12.547674539501717"><ele>139.0</ele><time>2026-05-02T08:48:46.988Z</time></trkpt><trkpt lat="42.56413669176799" lon="12.547560721615694"><ele>139.0</ele><time>2026-05-02T08:48:47.988Z</time></trkpt><trkpt lat="42.56406129808987" lon="12.547461920659975"><ele>139.0</ele><time>2026-05-02T08:48:48.988Z</time></trkpt><trkpt lat="42.56398494825223" lon="12.547370785096037"><ele>139.0</ele><time>2026-05-02T08:48:49.987Z</time></trkpt><trkpt lat="42.563910868021786" lon="12.547292417187023"><ele>139.0</ele><time>2026-05-02T08:48:50.987Z</time></trkpt><trkpt lat="42.5638456131982" lon="12.547239433462936"><ele>139.0</ele><time>2026-05-02T08:48:51.987Z</time></trkpt><trkpt lat="42.563780996391785" lon="12.547184341253097"><ele>139.0</ele><time>2026-05-02T08:48:52.987Z</time></trkpt><trkpt lat="42.5637209785778" lon="12.547139187758335"><ele>139.0</ele><time>2026-05-02T08:48:53.987Z</time></trkpt><trkpt lat="42.563686075569834" lon="12.547064416145119"><ele>139.0</ele><time>2026-05-02T08:48:54.987Z</time></trkpt><trkpt lat="42.563629276588664" lon="12.54696871349499"><ele>139.0</ele><time>2026-05-02T08:48:56.987Z</time></trkpt><trkpt lat="42.56354005529272" lon="12.546968413401371"><ele>139.0</ele><time>2026-05-02T08:48:57.987Z</time></trkpt><trkpt lat="42.563470176992524" lon="12.54694447009111"><ele>139.0</ele><time>2026-05-02T08:48:58.987Z</time></trkpt><trkpt lat="42.56337895810028" lon="12.546971945773489"><ele>139.0</ele><time>2026-05-02T08:48:59.987Z</time></trkpt><trkpt lat="42.563290872231576" lon="12.546943433303712"><ele>139.0</ele><time>2026-05-02T08:49:00.987Z</time></trkpt><trkpt lat="42.563221034032914" lon="12.54692224981572"><ele>139.0</ele><time>2026-05-02T08:49:01.987Z</time></trkpt><trkpt lat="42.563145341725985" lon="12.546892513267336"><ele>139.0</ele><time>2026-05-02T08:49:02.987Z</time></trkpt><trkpt lat="42.56307399802142" lon="12.546868999762703"><ele>139.0</ele><time>2026-05-02T08:49:03.987Z</time></trkpt><trkpt lat="42.56299893408426" lon="12.546846013541796"><ele>139.0</ele><time>2026-05-02T08:49:04.987Z</time></trkpt><trkpt lat="42.56291653947042" lon="12.546828937262665"><ele>138.0</ele><time>2026-05-02T08:49:05.987Z</time></trkpt><trkpt lat="42.56283824238747" lon="12.546804546454638"><ele>137.0</ele><time>2026-05-02T08:49:06.987Z</time></trkpt><trkpt lat="42.56276016558814" lon="12.546780055327433"><ele>136.0</ele><time>2026-05-02T08:49:07.987Z</time></trkpt><trkpt lat="42.56268006817766" lon="12.546787926584917"><ele>135.0</ele><time>2026-05-02T08:49:08.987Z</time></trkpt><trkpt lat="42.562609806784685" lon="12.546784538768572"><ele>134.0</ele><time>2026-05-02T08:49:09.987Z</time></trkpt><trkpt lat="42.562546606196676" lon="12.546778955546628"><ele>133.0</ele><time>2026-05-02T08:49:10.987Z</time></trkpt><trkpt lat="42.56244987760272" lon="12.54676219959992"><ele>133.0</ele><time>2026-05-02T08:49:12.987Z</time></trkpt><trkpt lat="42.56236507141563" lon="12.546756658993045"><ele>133.0</ele><time>2026-05-02T08:49:14.987Z</time></trkpt><trkpt lat="42.56230096950642" lon="12.54675469763095"><ele>133.0</ele><time>2026-05-02T08:49:15.987Z</time></trkpt><trkpt lat="42.56223387790455" lon="12.546767121784706"><ele>133.0</ele><time>2026-05-02T08:49:16.987Z</time></trkpt><trkpt lat="42.56211418597371" lon="12.546814428192254"><ele>133.0</ele><time>2026-05-02T08:49:18.987Z</time></trkpt><trkpt lat="42.562040652019505" lon="12.546870022721142"><ele>133.0</ele><time>2026-05-02T08:49:19.987Z</time></trkpt><trkpt lat="42.56196372179807" lon="12.5469217765203"><ele>131.16666666666669</ele><time>2026-05-02T08:49:20.987Z</time></trkpt><trkpt lat="42.56188808659966" lon="12.546972528017756"><ele>129.33333333333334</ele><time>2026-05-02T08:49:21.987Z</time></trkpt><trkpt lat="42.56182078412109" lon="12.547015527294358"><ele>127.5</ele><time>2026-05-02T08:49:22.987Z</time></trkpt><trkpt lat="42.561737992759774" lon="12.54707226487234"><ele>125.66666666666666</ele><time>2026-05-02T08:49:23.987Z</time></trkpt><trkpt lat="42.56167452287221" lon="12.547121885429409"><ele>123.83333333333333</ele><time>2026-05-02T08:49:24.987Z</time></trkpt><trkpt lat="42.5616107391266" lon="12.547183644899873"><ele>122.0</ele><time>2026-05-02T08:49:25.987Z</time></trkpt><trkpt lat="42.56156353776896" lon="12.547241831712455"><ele>121.19999999999999</ele><time>2026-05-02T08:49:26.987Z</time></trkpt><trkpt lat="42.56149856102579" lon="12.547314097746767"><ele>120.39999999999999</ele><time>2026-05-02T08:49:27.987Z</time></trkpt><trkpt lat="42.561440507276814" lon="12.547387066908778"><ele>119.60000000000001</ele><time>2026-05-02T08:49:28.988Z</time></trkpt><trkpt lat="42.56138117386178" lon="12.547441761297069"><ele>118.80000000000001</ele><time>2026-05-02T08:49:29.988Z</time></trkpt><trkpt lat="42.561279751932986" lon="12.547549927878679"><ele>118.0</ele><time>2026-05-02T08:49:31.988Z</time></trkpt><trkpt lat="42.56119150222288" lon="12.547623815922373"><ele>117.50000000000001</ele><time>2026-05-02T08:49:33.988Z</time></trkpt><trkpt lat="42.56111967916612" lon="12.547703660893859"><ele>117.0</ele><time>2026-05-02T08:49:35.987Z</time></trkpt><trkpt lat="42.56106067881752" lon="12.547746357829084"><ele>116.5</ele><time>2026-05-02T08:49:37.987Z</time></trkpt><trkpt lat="42.560995256815325" lon="12.54772995920004"><ele>116.0</ele><time>2026-05-02T08:49:39.987Z</time></trkpt><trkpt lat="42.56094653601155" lon="12.547665798106351"><ele>115.50000000000001</ele><time>2026-05-02T08:49:41.988Z</time></trkpt><trkpt lat="42.56089746606865" lon="12.547601889172144"><ele>115.0</ele><time>2026-05-02T08:49:43.988Z</time></trkpt><trkpt lat="42.56084349998674" lon="12.547500271566316"><ele>115.00000000000001</ele><time>2026-05-02T08:49:46.987Z</time></trkpt><trkpt lat="42.56079614780513" lon="12.547424333329653"><ele>115.0</ele><time>2026-05-02T08:49:48.987Z</time></trkpt><trkpt lat="42.56074801222756" lon="12.547319515788791"><ele>115.0</ele><time>2026-05-02T08:49:50.987Z</time></trkpt><trkpt lat="42.5606840908095" lon="12.54718811373829"><ele>115.0</ele><time>2026-05-02T08:49:52.987Z</time></trkpt><trkpt lat="42.56064580254555" lon="12.547114937874504"><ele>115.00000000000001</ele><time>2026-05-02T08:49:53.987Z</time></trkpt><trkpt lat="42.56059663707492" lon="12.547020563279183"><ele>115.0</ele><time>2026-05-02T08:49:54.987Z</time></trkpt><trkpt lat="42.560542989806414" lon="12.546929650339516"><ele>115.2</ele><time>2026-05-02T08:49:55.987Z</time></trkpt><trkpt lat="42.56049038646586" lon="12.5468443298232"><ele>115.4</ele><time>2026-05-02T08:49:56.987Z</time></trkpt><trkpt lat="42.56044039006143" lon="12.546775812337701"><ele>115.6</ele><time>2026-05-02T08:49:57.987Z</time></trkpt><trkpt lat="42.56035463142876" lon="12.546664842260897"><ele>115.8</ele><time>2026-05-02T08:49:59.987Z</time></trkpt><trkpt lat="42.5603292161581" lon="12.546558787313812"><ele>116.0</ele><time>2026-05-02T08:50:00.987Z</time></trkpt><trkpt lat="42.56030203024233" lon="12.54642534952039"><ele>115.6</ele><time>2026-05-02T08:50:01.987Z</time></trkpt><trkpt lat="42.560266948745294" lon="12.54629969711869"><ele>115.19999999999999</ele><time>2026-05-02T08:50:02.987Z</time></trkpt><trkpt lat="42.56022335707208" lon="12.546192640562277"><ele>114.80000000000001</ele><time>2026-05-02T08:50:03.987Z</time></trkpt><trkpt lat="42.56016950300396" lon="12.546089504462678"><ele>114.4</ele><time>2026-05-02T08:50:04.987Z</time></trkpt><trkpt lat="42.560108187841315" lon="12.545974788742363"><ele>114.0</ele><time>2026-05-02T08:50:05.987Z</time></trkpt><trkpt lat="42.560046245034236" lon="12.545864598873884"><ele>113.80000000000001</ele><time>2026-05-02T08:50:06.987Z</time></trkpt><trkpt lat="42.55997336595372" lon="12.545760960563625"><ele>113.60000000000001</ele><time>2026-05-02T08:50:07.987Z</time></trkpt><trkpt lat="42.55990001367111" lon="12.545662918194077"><ele>113.4</ele><time>2026-05-02T08:50:08.987Z</time></trkpt><trkpt lat="42.55982186782214" lon="12.545563659758528"><ele>113.2</ele><time>2026-05-02T08:50:09.987Z</time></trkpt><trkpt lat="42.55974840081285" lon="12.545452486116707"><ele>113.0</ele><time>2026-05-02T08:50:10.987Z</time></trkpt><trkpt lat="42.55967720896355" lon="12.545338159131308"><ele>113.0</ele><time>2026-05-02T08:50:11.987Z</time></trkpt><trkpt lat="42.55960502333988" lon="12.54522733668779"><ele>113.00000000000001</ele><time>2026-05-02T08:50:12.987Z</time></trkpt><trkpt lat="42.55954653028885" lon="12.545108226794683"><ele>113.00000000000001</ele><time>2026-05-02T08:50:13.987Z</time></trkpt><trkpt lat="42.55949604613745" lon="12.544988339747276"><ele>113.0</ele><time>2026-05-02T08:50:14.987Z</time></trkpt><trkpt lat="42.559475905765446" lon="12.544846112032268"><ele>113.0</ele><time>2026-05-02T08:50:15.987Z</time></trkpt><trkpt lat="42.55942590148274" lon="12.544728484255302"><ele>112.60000000000001</ele><time>2026-05-02T08:50:16.987Z</time></trkpt><trkpt lat="42.55937569122616" lon="12.544606005406198"><ele>112.20000000000002</ele><time>2026-05-02T08:50:17.987Z</time></trkpt><trkpt lat="42.55931268057211" lon="12.544486192004777"><ele>111.8</ele><time>2026-05-02T08:50:18.987Z</time></trkpt><trkpt lat="42.55928378831452" lon="12.54435673510283"><ele>111.4</ele><time>2026-05-02T08:50:19.987Z</time></trkpt><trkpt lat="42.559227089199766" lon="12.544239251619"><ele>111.0</ele><time>2026-05-02T08:50:20.987Z</time></trkpt><trkpt lat="42.55919151688344" lon="12.544133064909722"><ele>110.66666666666667</ele><time>2026-05-02T08:50:21.987Z</time></trkpt><trkpt lat="42.559154470765854" lon="12.544029006656729"><ele>110.33333333333334</ele><time>2026-05-02T08:50:22.987Z</time></trkpt><trkpt lat="42.55912198214051" lon="12.54393805003765"><ele>110.0</ele><time>2026-05-02T08:50:23.987Z</time></trkpt><trkpt lat="42.559087920467455" lon="12.54386089987602"><ele>109.66666666666667</ele><time>2026-05-02T08:50:24.987Z</time></trkpt><trkpt lat="42.559059896714224" lon="12.543773483168831"><ele>109.33333333333334</ele><time>2026-05-02T08:50:25.987Z</time></trkpt><trkpt lat="42.55901707254452" lon="12.54364032329633"><ele>109.0</ele><time>2026-05-02T08:50:27.987Z</time></trkpt><trkpt lat="42.559165107029024" lon="12.54354833579453"><ele>109.00000000000001</ele><time>2026-05-02T08:50:28.987Z</time></trkpt><trkpt lat="42.559247453564005" lon="12.543464986532424"><ele>109.0</ele><time>2026-05-02T08:50:29.987Z</time></trkpt><trkpt lat="42.559298043033124" lon="12.543349174376734"><ele>109.0</ele><time>2026-05-02T08:50:30.987Z</time></trkpt><trkpt lat="42.55935642181955" lon="12.543267440634324"><ele>109.0</ele><time>2026-05-02T08:50:31.987Z</time></trkpt><trkpt lat="42.55940239125261" lon="12.543175083030286"><ele>109.00000000000001</ele><time>2026-05-02T08:50:32.987Z</time></trkpt><trkpt lat="42.55945297560547" lon="12.543088280183202"><ele>109.0</ele><time>2026-05-02T08:50:33.987Z</time></trkpt><trkpt lat="42.55951878897505" lon="12.54302070697124"><ele>108.83333333333334</ele><time>2026-05-02T08:50:34.987Z</time></trkpt><trkpt lat="42.55957058121153" lon="12.542942119553825"><ele>108.66666666666667</ele><time>2026-05-02T08:50:35.987Z</time></trkpt><trkpt lat="42.559629770169174" lon="12.542857980449066"><ele>108.5</ele><time>2026-05-02T08:50:36.987Z</time></trkpt><trkpt lat="42.5596936288365" lon="12.54277705209901"><ele>108.33333333333334</ele><time>2026-05-02T08:50:37.987Z</time></trkpt><trkpt lat="42.55976870239029" lon="12.542727241380796"><ele>108.16666666666667</ele><time>2026-05-02T08:50:38.987Z</time></trkpt><trkpt lat="42.55985542499956" lon="12.542674833849082"><ele>108.0</ele><time>2026-05-02T08:50:39.987Z</time></trkpt><trkpt lat="42.5599507774115" lon="12.542606112373079"><ele>108.0</ele><time>2026-05-02T08:50:40.987Z</time></trkpt><trkpt lat="42.56002930385371" lon="12.542520176071223"><ele>108.0</ele><time>2026-05-02T08:50:41.987Z</time></trkpt><trkpt lat="42.56009516187032" lon="12.542445901051886"><ele>108.0</ele><time>2026-05-02T08:50:42.987Z</time></trkpt><trkpt lat="42.56015953591106" lon="12.542380790706304"><ele>108.0</ele><time>2026-05-02T08:50:43.987Z</time></trkpt><trkpt lat="42.560217430891996" lon="12.54234325417588"><ele>108.0</ele><time>2026-05-02T08:50:44.987Z</time></trkpt><trkpt lat="42.560281850169495" lon="12.542302318328845"><ele>108.0</ele><time>2026-05-02T08:50:45.987Z</time></trkpt><trkpt lat="42.5603402677692" lon="12.542256459920592"><ele>108.80000000000001</ele><time>2026-05-02T08:50:46.987Z</time></trkpt><trkpt lat="42.56041916378721" lon="12.542242758915153"><ele>109.60000000000001</ele><time>2026-05-02T08:50:48.987Z</time></trkpt><trkpt lat="42.56046368935278" lon="12.542310620336226"><ele>110.39999999999999</ele><time>2026-05-02T08:50:49.987Z</time></trkpt><trkpt lat="42.56050487833665" lon="12.542428168008229"><ele>111.19999999999999</ele><time>2026-05-02T08:50:50.987Z</time></trkpt><trkpt lat="42.56053511046486" lon="12.542568954117405"><ele>112.0</ele><time>2026-05-02T08:50:51.987Z</time></trkpt><trkpt lat="42.560580051858196" lon="12.542724237823272"><ele>112.0</ele><time>2026-05-02T08:50:52.987Z</time></trkpt><trkpt lat="42.560627122326885" lon="12.542860025578854"><ele>111.99999999999999</ele><time>2026-05-02T08:50:53.987Z</time></trkpt><trkpt lat="42.560671469892654" lon="12.542990614207806"><ele>111.99999999999999</ele><time>2026-05-02T08:50:54.987Z</time></trkpt><trkpt lat="42.56071039431141" lon="12.543123475127139"><ele>112.0</ele><time>2026-05-02T08:50:55.987Z</time></trkpt><trkpt lat="42.56075172742752" lon="12.54325649484931"><ele>112.0</ele><time>2026-05-02T08:50:56.987Z</time></trkpt><trkpt lat="42.56079538512565" lon="12.54337936900716"><ele>112.66666666666667</ele><time>2026-05-02T08:50:57.987Z</time></trkpt><trkpt lat="42.560838024641335" lon="12.543500087562622"><ele>113.33333333333334</ele><time>2026-05-02T08:50:58.986Z</time></trkpt><trkpt lat="42.56088983719015" lon="12.543610287569603"><ele>114.0</ele><time>2026-05-02T08:50:59.986Z</time></trkpt><trkpt lat="42.560939282002195" lon="12.543720981366286"><ele>114.66666666666666</ele><time>2026-05-02T08:51:00.986Z</time></trkpt><trkpt lat="42.560985903235306" lon="12.543823833881449"><ele>115.33333333333333</ele><time>2026-05-02T08:51:01.986Z</time></trkpt><trkpt lat="42.56102589937131" lon="12.54390028552628"><ele>116.0</ele><time>2026-05-02T08:51:02.986Z</time></trkpt><trkpt lat="42.56105927010426" lon="12.543993657527555"><ele>116.19999999999999</ele><time>2026-05-02T08:51:03.986Z</time></trkpt><trkpt lat="42.561132786784036" lon="12.544048541985433"><ele>116.39999999999999</ele><time>2026-05-02T08:51:04.986Z</time></trkpt><trkpt lat="42.56121503978171" lon="12.544049714147897"><ele>116.6</ele><time>2026-05-02T08:51:05.986Z</time></trkpt><trkpt lat="42.56130060900964" lon="12.543929397659376"><ele>116.8</ele><time>2026-05-02T08:51:06.986Z</time></trkpt><trkpt lat="42.5613950576974" lon="12.543875317731965"><ele>117.0</ele><time>2026-05-02T08:51:07.986Z</time></trkpt><trkpt lat="42.56150183615821" lon="12.543845579057317"><ele>118.0</ele><time>2026-05-02T08:51:08.986Z</time></trkpt><trkpt lat="42.561606417497366" lon="12.543846265195212"><ele>118.99999999999999</ele><time>2026-05-02T08:51:09.986Z</time></trkpt><trkpt lat="42.56171320978359" lon="12.54386587680497"><ele>119.99999999999999</ele><time>2026-05-02T08:51:10.986Z</time></trkpt><trkpt lat="42.56181579563986" lon="12.543891368113401"><ele>121.0</ele><time>2026-05-02T08:51:11.986Z</time></trkpt><trkpt lat="42.56190989413245" lon="12.543902709647147"><ele>122.0</ele><time>2026-05-02T08:51:12.986Z</time></trkpt><trkpt lat="42.562014197300726" lon="12.543909810182281"><ele>122.6</ele><time>2026-05-02T08:51:13.986Z</time></trkpt><trkpt lat="42.56212047213008" lon="12.543926883997026"><ele>123.19999999999999</ele><time>2026-05-02T08:51:14.986Z</time></trkpt><trkpt lat="42.56223131941088" lon="12.543945659425281"><ele>123.8</ele><time>2026-05-02T08:51:15.986Z</time></trkpt><trkpt lat="42.56234199032185" lon="12.543977150827255"><ele>124.4</ele><time>2026-05-02T08:51:16.986Z</time></trkpt><trkpt lat="42.56244935548146" lon="12.544004864780304"><ele>125.0</ele><time>2026-05-02T08:51:17.986Z</time></trkpt><trkpt lat="42.56255668380833" lon="12.544032132014438"><ele>125.0</ele><time>2026-05-02T08:51:18.986Z</time></trkpt><trkpt lat="42.56266569757623" lon="12.544061231068168"><ele>125.0</ele><time>2026-05-02T08:51:19.986Z</time></trkpt><trkpt lat="42.56277613968037" lon="12.544096556862263"><ele>125.0</ele><time>2026-05-02T08:51:20.986Z</time></trkpt><trkpt lat="42.562887065117614" lon="12.544153432167894"><ele>125.0</ele><time>2026-05-02T08:51:21.986Z</time></trkpt><trkpt lat="42.56300124879661" lon="12.544188967177037"><ele>123.0</ele><time>2026-05-02T08:51:22.986Z</time></trkpt><trkpt lat="42.563118687456296" lon="12.544239573662162"><ele>121.0</ele><time>2026-05-02T08:51:23.986Z</time></trkpt><trkpt lat="42.56323001475035" lon="12.544290489361924"><ele>119.0</ele><time>2026-05-02T08:51:24.986Z</time></trkpt><trkpt lat="42.56333909136814" lon="12.544337829029265"><ele>117.0</ele><time>2026-05-02T08:51:25.986Z</time></trkpt><trkpt lat="42.56345358171982" lon="12.544392837096497"><ele>117.0</ele><time>2026-05-02T08:51:26.986Z</time></trkpt><trkpt lat="42.563557248332245" lon="12.544446224895495"><ele>117.0</ele><time>2026-05-02T08:51:27.986Z</time></trkpt><trkpt lat="42.56364864106468" lon="12.54449329159473"><ele>117.0</ele><time>2026-05-02T08:51:28.986Z</time></trkpt><trkpt lat="42.563729982398506" lon="12.5445379471615"><ele>117.0</ele><time>2026-05-02T08:51:29.986Z</time></trkpt><trkpt lat="42.56379990521016" lon="12.544576128340744"><ele>117.0</ele><time>2026-05-02T08:51:30.986Z</time></trkpt><trkpt lat="42.563868880832494" lon="12.544608680852765"><ele>117.0</ele><time>2026-05-02T08:51:31.986Z</time></trkpt><trkpt lat="42.5639452540701" lon="12.544626015518018"><ele>117.39999999999999</ele><time>2026-05-02T08:51:32.986Z</time></trkpt><trkpt lat="42.56403795797972" lon="12.544601070240546"><ele>117.79999999999998</ele><time>2026-05-02T08:51:33.986Z</time></trkpt><trkpt lat="42.56410035328003" lon="12.544544584437004"><ele>118.2</ele><time>2026-05-02T08:51:34.986Z</time></trkpt><trkpt lat="42.56417471696988" lon="12.544436021645126"><ele>118.6</ele><time>2026-05-02T08:51:35.986Z</time></trkpt><trkpt lat="42.56422882081666" lon="12.544293823020494"><ele>119.0</ele><time>2026-05-02T08:51:36.986Z</time></trkpt><trkpt lat="42.56427785473241" lon="12.544162114885548"><ele>117.80000000000001</ele><time>2026-05-02T08:51:37.986Z</time></trkpt><trkpt lat="42.56432858250097" lon="12.5440332316047"><ele>116.60000000000001</ele><time>2026-05-02T08:51:38.986Z</time></trkpt><trkpt lat="42.564386007974086" lon="12.543918236170043"><ele>115.4</ele><time>2026-05-02T08:51:39.985Z</time></trkpt><trkpt lat="42.56444510583703" lon="12.543807663516372"><ele>114.2</ele><time>2026-05-02T08:51:40.986Z</time></trkpt><trkpt lat="42.564523051750655" lon="12.54371475401621"><ele>113.0</ele><time>2026-05-02T08:51:41.986Z</time></trkpt><trkpt lat="42.564612772341995" lon="12.543633064394497"><ele>113.0</ele><time>2026-05-02T08:51:42.986Z</time></trkpt><trkpt lat="42.56471787273805" lon="12.5435722477395"><ele>113.00000000000001</ele><time>2026-05-02T08:51:43.986Z</time></trkpt><trkpt lat="42.56482464315271" lon="12.543558254333869"><ele>113.00000000000001</ele><time>2026-05-02T08:51:44.986Z</time></trkpt><trkpt lat="42.56493253467481" lon="12.54356656608085"><ele>113.0</ele><time>2026-05-02T08:51:45.986Z</time></trkpt><trkpt lat="42.56504432042313" lon="12.543584878480472"><ele>113.0</ele><time>2026-05-02T08:51:46.986Z</time></trkpt><trkpt lat="42.565164578408144" lon="12.543599284843678"><ele>113.0</ele><time>2026-05-02T08:51:47.986Z</time></trkpt><trkpt lat="42.56529300498669" lon="12.543610497806894"><ele>113.0</ele><time>2026-05-02T08:51:48.986Z</time></trkpt><trkpt lat="42.565405100746815" lon="12.543640962178996"><ele>113.0</ele><time>2026-05-02T08:51:49.986Z</time></trkpt><trkpt lat="42.56551930622269" lon="12.543641727251057"><ele>113.0</ele><time>2026-05-02T08:51:50.986Z</time></trkpt><trkpt lat="42.56563950277608" lon="12.5436646721891"><ele>113.25</ele><time>2026-05-02T08:51:51.986Z</time></trkpt><trkpt lat="42.56575557508905" lon="12.543658844905117"><ele>113.5</ele><time>2026-05-02T08:51:52.986Z</time></trkpt><trkpt lat="42.5658769699113" lon="12.543632576529284"><ele>113.75</ele><time>2026-05-02T08:51:53.986Z</time></trkpt><trkpt lat="42.56599431623268" lon="12.543587490947637"><ele>114.0</ele><time>2026-05-02T08:51:54.986Z</time></trkpt><trkpt lat="42.566111947256424" lon="12.543532406446023"><ele>114.5</ele><time>2026-05-02T08:51:55.986Z</time></trkpt><trkpt lat="42.5662263573326" lon="12.543476423833068"><ele>115.0</ele><time>2026-05-02T08:51:56.986Z</time></trkpt><trkpt lat="42.56633918206371" lon="12.543428979612933"><ele>115.5</ele><time>2026-05-02T08:51:57.986Z</time></trkpt><trkpt lat="42.56645456531334" lon="12.54339923530978"><ele>116.0</ele><time>2026-05-02T08:51:58.986Z</time></trkpt><trkpt lat="42.56657143477681" lon="12.543388862911536"><ele>116.0</ele><time>2026-05-02T08:51:59.986Z</time></trkpt><trkpt lat="42.56669355216184" lon="12.543359552942986"><ele>116.0</ele><time>2026-05-02T08:52:00.986Z</time></trkpt><trkpt lat="42.566827914268934" lon="12.543313689769189"><ele>116.0</ele><time>2026-05-02T08:52:01.986Z</time></trkpt><trkpt lat="42.56695775524279" lon="12.543258026139913"><ele>116.0</ele><time>2026-05-02T08:52:02.986Z</time></trkpt><trkpt lat="42.56709143744683" lon="12.543196198180407"><ele>116.5</ele><time>2026-05-02T08:52:03.986Z</time></trkpt><trkpt lat="42.567224272317695" lon="12.543134050954015"><ele>117.0</ele><time>2026-05-02T08:52:04.986Z</time></trkpt><trkpt lat="42.567363737529874" lon="12.543055963568387"><ele>117.5</ele><time>2026-05-02T08:52:05.986Z</time></trkpt><trkpt lat="42.567493071917724" lon="12.54298009674654"><ele>118.0</ele><time>2026-05-02T08:52:06.986Z</time></trkpt><trkpt lat="42.56761942648558" lon="12.542905379593407"><ele>117.75</ele><time>2026-05-02T08:52:07.986Z</time></trkpt><trkpt lat="42.567750131309104" lon="12.54284715705541"><ele>117.5</ele><time>2026-05-02T08:52:08.986Z</time></trkpt><trkpt lat="42.56788495465358" lon="12.542810648122746"><ele>117.25</ele><time>2026-05-02T08:52:09.986Z</time></trkpt><trkpt lat="42.568010359229795" lon="12.542780872489077"><ele>117.0</ele><time>2026-05-02T08:52:10.986Z</time></trkpt><trkpt lat="42.56813458945377" lon="12.54275418314122"><ele>116.75</ele><time>2026-05-02T08:52:11.986Z</time></trkpt><trkpt lat="42.568256059916045" lon="12.542712966677964"><ele>116.5</ele><time>2026-05-02T08:52:12.986Z</time></trkpt><trkpt lat="42.568378556168106" lon="12.542661352514312"><ele>116.25</ele><time>2026-05-02T08:52:13.986Z</time></trkpt><trkpt lat="42.56850164560938" lon="12.542605739594487"><ele>116.0</ele><time>2026-05-02T08:52:14.986Z</time></trkpt><trkpt lat="42.56863304436267" lon="12.542529627992712"><ele>117.0</ele><time>2026-05-02T08:52:15.986Z</time></trkpt><trkpt lat="42.56875587657083" lon="12.542443357837547"><ele>118.0</ele><time>2026-05-02T08:52:16.986Z</time></trkpt><trkpt lat="42.568873347317954" lon="12.54236918186347"><ele>119.0</ele><time>2026-05-02T08:52:17.986Z</time></trkpt><trkpt lat="42.568991333825814" lon="12.542258893541685"><ele>120.0</ele><time>2026-05-02T08:52:18.986Z</time></trkpt><trkpt lat="42.56910446734943" lon="12.542143393673479"><ele>118.75</ele><time>2026-05-02T08:52:19.986Z</time></trkpt><trkpt lat="42.56921514010759" lon="12.542020671417852"><ele>117.5</ele><time>2026-05-02T08:52:20.986Z</time></trkpt><trkpt lat="42.56930714084284" lon="12.541893529518589"><ele>116.25</ele><time>2026-05-02T08:52:21.986Z</time></trkpt><trkpt lat="42.56941676781858" lon="12.54178333342282"><ele>115.0</ele><time>2026-05-02T08:52:22.986Z</time></trkpt><trkpt lat="42.56950987229971" lon="12.541664792197253"><ele>115.4</ele><time>2026-05-02T08:52:23.986Z</time></trkpt><trkpt lat="42.56959172411861" lon="12.541558111463218"><ele>115.8</ele><time>2026-05-02T08:52:24.986Z</time></trkpt><trkpt lat="42.5696617660752" lon="12.54146200997852"><ele>116.19999999999999</ele><time>2026-05-02T08:52:25.986Z</time></trkpt><trkpt lat="42.56973239478273" lon="12.54137043746593"><ele>116.6</ele><time>2026-05-02T08:52:26.986Z</time></trkpt><trkpt lat="42.569807524371335" lon="12.541289945953315"><ele>117.0</ele><time>2026-05-02T08:52:27.986Z</time></trkpt><trkpt lat="42.56987690975374" lon="12.541207263011557"><ele>117.0</ele><time>2026-05-02T08:52:28.986Z</time></trkpt><trkpt lat="42.569939255899754" lon="12.541091312557837"><ele>117.0</ele><time>2026-05-02T08:52:29.986Z</time></trkpt><trkpt lat="42.56997533080252" lon="12.540949748752045"><ele>117.0</ele><time>2026-05-02T08:52:30.986Z</time></trkpt><trkpt lat="42.570009197183126" lon="12.540796584205117"><ele>117.0</ele><time>2026-05-02T08:52:31.986Z</time></trkpt><trkpt lat="42.57004621318823" lon="12.54064120045426"><ele>117.0</ele><time>2026-05-02T08:52:32.986Z</time></trkpt><trkpt lat="42.570085963428404" lon="12.540474718447605"><ele>117.0</ele><time>2026-05-02T08:52:33.986Z</time></trkpt><trkpt lat="42.57013036658361" lon="12.540308282149052"><ele>117.0</ele><time>2026-05-02T08:52:34.986Z</time></trkpt><trkpt lat="42.57016945142024" lon="12.540139263596046"><ele>117.0</ele><time>2026-05-02T08:52:35.986Z</time></trkpt><trkpt lat="42.57020049956946" lon="12.539961609414348"><ele>117.0</ele><time>2026-05-02T08:52:36.986Z</time></trkpt><trkpt lat="42.570238904986255" lon="12.53974826453886"><ele>117.0</ele><time>2026-05-02T08:52:37.986Z</time></trkpt><trkpt lat="42.57027240031572" lon="12.539461981063276"><ele>117.0</ele><time>2026-05-02T08:52:38.986Z</time></trkpt><trkpt lat="42.570272436451134" lon="12.539311058318765"><ele>117.19999999999999</ele><time>2026-05-02T08:52:40.986Z</time></trkpt><trkpt lat="42.570302876378925" lon="12.539135784085845"><ele>117.39999999999999</ele><time>2026-05-02T08:52:41.986Z</time></trkpt><trkpt lat="42.5703199812616" lon="12.53898389242701"><ele>117.60000000000001</ele><time>2026-05-02T08:52:42.986Z</time></trkpt><trkpt lat="42.57033449468858" lon="12.53884828724835"><ele>117.80000000000001</ele><time>2026-05-02T08:52:43.986Z</time></trkpt><trkpt lat="42.57033396813274" lon="12.538717515756902"><ele>118.0</ele><time>2026-05-02T08:52:44.985Z</time></trkpt><trkpt lat="42.57034609323921" lon="12.538608750345059"><ele>118.60000000000001</ele><time>2026-05-02T08:52:45.985Z</time></trkpt><trkpt lat="42.57038153822696" lon="12.538514729296342"><ele>119.20000000000002</ele><time>2026-05-02T08:52:46.985Z</time></trkpt><trkpt lat="42.570472870647464" lon="12.538482061064524"><ele>119.8</ele><time>2026-05-02T08:52:47.985Z</time></trkpt><trkpt lat="42.57054474628317" lon="12.538482354795851"><ele>120.4</ele><time>2026-05-02T08:52:48.985Z</time></trkpt><trkpt lat="42.570717957813315" lon="12.538549832661701"><ele>121.0</ele><time>2026-05-02T08:52:50.985Z</time></trkpt><trkpt lat="42.570837941325834" lon="12.538580001414008"><ele>121.0</ele><time>2026-05-02T08:52:51.985Z</time></trkpt><trkpt lat="42.570955282023924" lon="12.538606677443466"><ele>121.0</ele><time>2026-05-02T08:52:52.985Z</time></trkpt><trkpt lat="42.57107131898845" lon="12.538630895217748"><ele>121.0</ele><time>2026-05-02T08:52:53.985Z</time></trkpt><trkpt lat="42.57117924130198" lon="12.538652072274232"><ele>121.0</ele><time>2026-05-02T08:52:54.985Z</time></trkpt><trkpt lat="42.5712814035155" lon="12.538670097751808"><ele>121.0</ele><time>2026-05-02T08:52:55.985Z</time></trkpt><trkpt lat="42.57138185468641" lon="12.53868291126275"><ele>121.00000000000001</ele><time>2026-05-02T08:52:56.985Z</time></trkpt><trkpt lat="42.57147218035262" lon="12.53869410224487"><ele>121.0</ele><time>2026-05-02T08:52:57.985Z</time></trkpt><trkpt lat="42.57155472725428" lon="12.538704329455374"><ele>121.0</ele><time>2026-05-02T08:52:58.985Z</time></trkpt><trkpt lat="42.57162420048274" lon="12.53871597377283"><ele>121.0</ele><time>2026-05-02T08:52:59.985Z</time></trkpt><trkpt lat="42.571699156919834" lon="12.538735804607914"><ele>121.00000000000001</ele><time>2026-05-02T08:53:00.985Z</time></trkpt><trkpt lat="42.57177245872707" lon="12.538753283604567"><ele>121.0</ele><time>2026-05-02T08:53:01.985Z</time></trkpt><trkpt lat="42.57187065579662" lon="12.538771608364652"><ele>121.19999999999999</ele><time>2026-05-02T08:53:03.985Z</time></trkpt><trkpt lat="42.57182546981033" lon="12.538630374963823"><ele>121.39999999999999</ele><time>2026-05-02T08:53:31.985Z</time></trkpt><trkpt lat="42.57175590977485" lon="12.538598372294159"><ele>121.6</ele><time>2026-05-02T08:53:32.985Z</time></trkpt><trkpt lat="42.57167544142106" lon="12.538580310653266"><ele>121.8</ele><time>2026-05-02T08:53:33.985Z</time></trkpt><trkpt lat="42.57157341617539" lon="12.538555579850712"><ele>122.0</ele><time>2026-05-02T08:53:34.985Z</time></trkpt><trkpt lat="42.57146119708592" lon="12.53853230493998"><ele>122.0</ele><time>2026-05-02T08:53:35.985Z</time></trkpt><trkpt lat="42.57134307508844" lon="12.538502909093518"><ele>122.0</ele><time>2026-05-02T08:53:36.985Z</time></trkpt><trkpt lat="42.57121848486012" lon="12.538471971222993"><ele>122.0</ele><time>2026-05-02T08:53:37.985Z</time></trkpt><trkpt lat="42.571086749896914" lon="12.538418466871681"><ele>122.0</ele><time>2026-05-02T08:53:38.985Z</time></trkpt><trkpt lat="42.570951865898884" lon="12.538406342169662"><ele>121.75</ele><time>2026-05-02T08:53:39.985Z</time></trkpt><trkpt lat="42.57081686098422" lon="12.538376042048727"><ele>121.5</ele><time>2026-05-02T08:53:40.984Z</time></trkpt><trkpt lat="42.570677348038416" lon="12.538344657100874"><ele>121.25</ele><time>2026-05-02T08:53:41.985Z</time></trkpt><trkpt lat="42.570530386841085" lon="12.53831999540139"><ele>121.0</ele><time>2026-05-02T08:53:42.985Z</time></trkpt><trkpt lat="42.57038623321272" lon="12.53828703532433"><ele>120.75</ele><time>2026-05-02T08:53:43.984Z</time></trkpt><trkpt lat="42.5702408055866" lon="12.53826053278755"><ele>120.5</ele><time>2026-05-02T08:53:44.984Z</time></trkpt><trkpt lat="42.57010000675689" lon="12.538209165382701"><ele>120.25</ele><time>2026-05-02T08:53:45.984Z</time></trkpt><trkpt lat="42.569959495275164" lon="12.538180366089943"><ele>120.0</ele><time>2026-05-02T08:53:46.985Z</time></trkpt><trkpt lat="42.56982002786956" lon="12.538173707377089"><ele>120.0</ele><time>2026-05-02T08:53:47.984Z</time></trkpt><trkpt lat="42.56969281360151" lon="12.538125706896937"><ele>120.0</ele><time>2026-05-02T08:53:48.984Z</time></trkpt><trkpt lat="42.56955069959996" lon="12.538096722632252"><ele>120.0</ele><time>2026-05-02T08:53:49.985Z</time></trkpt><trkpt lat="42.569418395108165" lon="12.53807092192365"><ele>120.0</ele><time>2026-05-02T08:53:50.984Z</time></trkpt><trkpt lat="42.569285809867516" lon="12.538043250610782"><ele>120.75</ele><time>2026-05-02T08:53:51.984Z</time></trkpt><trkpt lat="42.56915201659043" lon="12.538014111554764"><ele>121.5</ele><time>2026-05-02T08:53:52.984Z</time></trkpt><trkpt lat="42.569021571274284" lon="12.537985629028377"><ele>122.25</ele><time>2026-05-02T08:53:53.984Z</time></trkpt><trkpt lat="42.56888990346296" lon="12.537959071043398"><ele>123.0</ele><time>2026-05-02T08:53:54.984Z</time></trkpt><trkpt lat="42.56875566683634" lon="12.537936658810818"><ele>123.0</ele><time>2026-05-02T08:53:55.984Z</time></trkpt><trkpt lat="42.56861569584923" lon="12.537905303235979"><ele>123.0</ele><time>2026-05-02T08:53:56.984Z</time></trkpt><trkpt lat="42.568475533805135" lon="12.537874926014604"><ele>123.0</ele><time>2026-05-02T08:53:57.984Z</time></trkpt><trkpt lat="42.56834120843624" lon="12.537848563984674"><ele>123.0</ele><time>2026-05-02T08:53:58.984Z</time></trkpt><trkpt lat="42.56820501862504" lon="12.537821986705438"><ele>124.25</ele><time>2026-05-02T08:53:59.984Z</time></trkpt><trkpt lat="42.56807688079118" lon="12.537794649056362"><ele>125.5</ele><time>2026-05-02T08:54:00.984Z</time></trkpt><trkpt lat="42.567950582098035" lon="12.537767624331474"><ele>126.75</ele><time>2026-05-02T08:54:01.984Z</time></trkpt><trkpt lat="42.567830061985404" lon="12.537744806905808"><ele>128.0</ele><time>2026-05-02T08:54:02.984Z</time></trkpt><trkpt lat="42.567723674546905" lon="12.537720603250358"><ele>128.20000000000002</ele><time>2026-05-02T08:54:03.984Z</time></trkpt><trkpt lat="42.567632377354236" lon="12.537704812112684"><ele>128.4</ele><time>2026-05-02T08:54:04.984Z</time></trkpt><trkpt lat="42.567547629399066" lon="12.537690724089465"><ele>128.60000000000002</ele><time>2026-05-02T08:54:05.984Z</time></trkpt><trkpt lat="42.5674818673835" lon="12.537680466644177"><ele>128.8</ele><time>2026-05-02T08:54:06.984Z</time></trkpt><trkpt lat="42.56742204457118" lon="12.537589011856157"><ele>129.0</ele><time>2026-05-02T08:54:08.984Z</time></trkpt><trkpt lat="42.56747434388842" lon="12.537349237402356"><ele>129.0</ele><time>2026-05-02T08:54:10.984Z</time></trkpt><trkpt lat="42.567455901754556" lon="12.537209395956022"><ele>129.0</ele><time>2026-05-02T08:54:11.984Z</time></trkpt><trkpt lat="42.56745205013281" lon="12.53707724308439"><ele>129.0</ele><time>2026-05-02T08:54:12.984Z</time></trkpt><trkpt lat="42.567450823277746" lon="12.5369404550762"><ele>129.0</ele><time>2026-05-02T08:54:13.984Z</time></trkpt><trkpt lat="42.567458868700264" lon="12.536825831386"><ele>129.0</ele><time>2026-05-02T08:54:14.984Z</time></trkpt><trkpt lat="42.56745418506358" lon="12.536718010550443"><ele>129.16666666666666</ele><time>2026-05-02T08:54:15.984Z</time></trkpt><trkpt lat="42.567435782338855" lon="12.536601997090429"><ele>129.33333333333334</ele><time>2026-05-02T08:54:16.984Z</time></trkpt><trkpt lat="42.56742850658444" lon="12.536484371284637"><ele>129.5</ele><time>2026-05-02T08:54:17.984Z</time></trkpt><trkpt lat="42.56744350042522" lon="12.536370186829851"><ele>129.66666666666669</ele><time>2026-05-02T08:54:18.984Z</time></trkpt><trkpt lat="42.56744700106064" lon="12.536277126648704"><ele>129.83333333333334</ele><time>2026-05-02T08:54:19.984Z</time></trkpt><trkpt lat="42.56747328218879" lon="12.536117036781324"><ele>130.0</ele><time>2026-05-02T08:54:21.984Z</time></trkpt><trkpt lat="42.567499984751" lon="12.535972004191953"><ele>130.6</ele><time>2026-05-02T08:54:23.984Z</time></trkpt><trkpt lat="42.56752567164271" lon="12.535832488102148"><ele>131.2</ele><time>2026-05-02T08:54:25.984Z</time></trkpt><trkpt lat="42.56740610183735" lon="12.53572213888425"><ele>131.8</ele><time>2026-05-02T08:54:26.984Z</time></trkpt><trkpt lat="42.567397524969586" lon="12.535568727697713"><ele>132.4</ele><time>2026-05-02T08:54:28.984Z</time></trkpt><trkpt lat="42.567398573884276" lon="12.535479384994465"><ele>133.0</ele><time>2026-05-02T08:54:29.984Z</time></trkpt><trkpt lat="42.56739372975634" lon="12.535387872560616"><ele>133.14285714285714</ele><time>2026-05-02T08:54:30.984Z</time></trkpt><trkpt lat="42.567390966234676" lon="12.535293055054915"><ele>133.28571428571428</ele><time>2026-05-02T08:54:31.984Z</time></trkpt><trkpt lat="42.567387550324284" lon="12.53520110998282"><ele>133.42857142857144</ele><time>2026-05-02T08:54:32.984Z</time></trkpt><trkpt lat="42.567383340514496" lon="12.535105006296751"><ele>133.57142857142856</ele><time>2026-05-02T08:54:33.984Z</time></trkpt><trkpt lat="42.567379830456076" lon="12.535009658998412"><ele>133.71428571428572</ele><time>2026-05-02T08:54:34.983Z</time></trkpt><trkpt lat="42.56737555958961" lon="12.534918069922401"><ele>133.85714285714286</ele><time>2026-05-02T08:54:35.983Z</time></trkpt><trkpt lat="42.56737151344444" lon="12.534824844828437"><ele>134.0</ele><time>2026-05-02T08:54:36.983Z</time></trkpt><trkpt lat="42.567366807025564" lon="12.53473940507764"><ele>134.0</ele><time>2026-05-02T08:54:37.983Z</time></trkpt><trkpt lat="42.567360727210094" lon="12.534570222168401"><ele>134.0</ele><time>2026-05-02T08:54:39.983Z</time></trkpt><trkpt lat="42.567355675431365" lon="12.534481369343403"><ele>134.0</ele><time>2026-05-02T08:54:40.983Z</time></trkpt><trkpt lat="42.5673473493112" lon="12.53432056804984"><ele>134.0</ele><time>2026-05-02T08:54:42.983Z</time></trkpt><trkpt lat="42.56734118679662" lon="12.534161891737945"><ele>134.0</ele><time>2026-05-02T08:54:44.983Z</time></trkpt><trkpt lat="42.56733691731567" lon="12.534006513533111"><ele>133.8</ele><time>2026-05-02T08:54:46.983Z</time></trkpt><trkpt lat="42.567323963979696" lon="12.533860643486099"><ele>133.60000000000002</ele><time>2026-05-02T08:54:48.983Z</time></trkpt><trkpt lat="42.5673250215345" lon="12.533717351178959"><ele>133.4</ele><time>2026-05-02T08:54:50.983Z</time></trkpt><trkpt lat="42.567316509743684" lon="12.533547869236555"><ele>133.20000000000002</ele><time>2026-05-02T08:54:52.983Z</time></trkpt><trkpt lat="42.56731179874183" lon="12.533457554577472"><ele>133.0</ele><time>2026-05-02T08:54:53.983Z</time></trkpt><trkpt lat="42.56730586309533" lon="12.533308498732433"><ele>133.33333333333334</ele><time>2026-05-02T08:54:55.983Z</time></trkpt><trkpt lat="42.567305669902545" lon="12.53320059172308"><ele>133.66666666666669</ele><time>2026-05-02T08:54:57.983Z</time></trkpt><trkpt lat="42.56735240748423" lon="12.533103312840712"><ele>134.0</ele><time>2026-05-02T08:55:00.983Z</time></trkpt><trkpt lat="42.56744963052209" lon="12.53308464119674"><ele>134.33333333333334</ele><time>2026-05-02T08:55:02.983Z</time></trkpt><trkpt lat="42.56751581846641" lon="12.53304669706972"><ele>134.66666666666666</ele><time>2026-05-02T08:55:29.983Z</time></trkpt><trkpt lat="42.56743834345418" lon="12.533060522127"><ele>135.0</ele><time>2026-05-02T08:55:33.983Z</time></trkpt><trkpt lat="42.56736429330979" lon="12.533102754091262"><ele>135.0</ele><time>2026-05-02T08:55:35.983Z</time></trkpt><trkpt lat="42.56727563680554" lon="12.533112071839117"><ele>135.0</ele><time>2026-05-02T08:55:38.983Z</time></trkpt><trkpt lat="42.56733158058343" lon="12.533155316597327"><ele>135.0</ele><time>2026-05-02T08:55:48.983Z</time></trkpt><trkpt lat="42.56738926603325" lon="12.533113568450272"><ele>135.0</ele><time>2026-05-02T08:56:57.982Z</time></trkpt><trkpt lat="42.567460145138064" lon="12.533078202997753"><ele>135.0</ele><time>2026-05-02T08:56:58.982Z</time></trkpt><trkpt lat="42.567554318696345" lon="12.533045589796796"><ele>135.0</ele><time>2026-05-02T08:56:59.982Z</time></trkpt><trkpt lat="42.56765984626959" lon="12.533003418764226"><ele>135.0</ele><time>2026-05-02T08:57:00.982Z</time></trkpt><trkpt lat="42.567775127208364" lon="12.532954677502804"><ele>135.0</ele><time>2026-05-02T08:57:01.982Z</time></trkpt><trkpt lat="42.567890726777314" lon="12.532909729507434"><ele>135.0</ele><time>2026-05-02T08:57:02.982Z</time></trkpt><trkpt lat="42.56799678551656" lon="12.532866155557556"><ele>135.0</ele><time>2026-05-02T08:57:03.982Z</time></trkpt><trkpt lat="42.56810004996578" lon="12.532846137893252"><ele>134.8</ele><time>2026-05-02T08:57:04.982Z</time></trkpt><trkpt lat="42.56819652765515" lon="12.532784012161871"><ele>134.6</ele><time>2026-05-02T08:57:05.982Z</time></trkpt><trkpt lat="42.56829860175693" lon="12.532747310679392"><ele>134.4</ele><time>2026-05-02T08:57:06.982Z</time></trkpt><trkpt lat="42.56839648517995" lon="12.532710818720435"><ele>134.2</ele><time>2026-05-02T08:57:07.982Z</time></trkpt><trkpt lat="42.56849744620236" lon="12.532662820725148"><ele>134.0</ele><time>2026-05-02T08:57:08.982Z</time></trkpt><trkpt lat="42.568607519802086" lon="12.532640223171175"><ele>134.5</ele><time>2026-05-02T08:57:09.982Z</time></trkpt><trkpt lat="42.56871734337083" lon="12.532595244215699"><ele>135.0</ele><time>2026-05-02T08:57:10.982Z</time></trkpt><trkpt lat="42.568827237662745" lon="12.532550236293337"><ele>135.5</ele><time>2026-05-02T08:57:11.982Z</time></trkpt><trkpt lat="42.56893771810747" lon="12.532504988323591"><ele>136.0</ele><time>2026-05-02T08:57:12.982Z</time></trkpt><trkpt lat="42.569045313228756" lon="12.5324459537948"><ele>136.0</ele><time>2026-05-02T08:57:13.981Z</time></trkpt><trkpt lat="42.569171274492476" lon="12.532395830995453"><ele>136.0</ele><time>2026-05-02T08:57:14.981Z</time></trkpt><trkpt lat="42.56930430277252" lon="12.532339545139308"><ele>136.0</ele><time>2026-05-02T08:57:15.981Z</time></trkpt><trkpt lat="42.56943700538027" lon="12.532286703957041"><ele>136.0</ele><time>2026-05-02T08:57:16.981Z</time></trkpt><trkpt lat="42.56957483949448" lon="12.53222781777724"><ele>136.0</ele><time>2026-05-02T08:57:17.981Z</time></trkpt><trkpt lat="42.56971658287519" lon="12.53219105240352"><ele>136.0</ele><time>2026-05-02T08:57:18.981Z</time></trkpt><trkpt lat="42.569851221004484" lon="12.532126680533468"><ele>136.0</ele><time>2026-05-02T08:57:19.981Z</time></trkpt><trkpt lat="42.56998088266788" lon="12.532069463278907"><ele>136.0</ele><time>2026-05-02T08:57:20.981Z</time></trkpt><trkpt lat="42.57011555006059" lon="12.532002921206026"><ele>136.0</ele><time>2026-05-02T08:57:21.981Z</time></trkpt><trkpt lat="42.57024861627351" lon="12.531945421467187"><ele>136.0</ele><time>2026-05-02T08:57:22.981Z</time></trkpt><trkpt lat="42.57038041995583" lon="12.531885438021678"><ele>136.0</ele><time>2026-05-02T08:57:23.981Z</time></trkpt><trkpt lat="42.570513189488715" lon="12.531829957855761"><ele>136.0</ele><time>2026-05-02T08:57:24.981Z</time></trkpt><trkpt lat="42.57063955220256" lon="12.531766921498683"><ele>136.5</ele><time>2026-05-02T08:57:25.981Z</time></trkpt><trkpt lat="42.57076223550494" lon="12.531693662810259"><ele>137.0</ele><time>2026-05-02T08:57:26.981Z</time></trkpt><trkpt lat="42.57089024229595" lon="12.531618407333388"><ele>137.5</ele><time>2026-05-02T08:57:27.981Z</time></trkpt><trkpt lat="42.57101487666083" lon="12.531559110418089"><ele>138.0</ele><time>2026-05-02T08:57:28.981Z</time></trkpt><trkpt lat="42.571142700284604" lon="12.531497430223347"><ele>138.0</ele><time>2026-05-02T08:57:29.981Z</time></trkpt><trkpt lat="42.571272753172735" lon="12.531439263303236"><ele>138.0</ele><time>2026-05-02T08:57:30.981Z</time></trkpt><trkpt lat="42.571411444957114" lon="12.53139406866502"><ele>138.0</ele><time>2026-05-02T08:57:31.981Z</time></trkpt><trkpt lat="42.57154268219082" lon="12.531353797546272"><ele>138.0</ele><time>2026-05-02T08:57:32.981Z</time></trkpt><trkpt lat="42.5716806670304" lon="12.531323404689923"><ele>138.0</ele><time>2026-05-02T08:57:33.981Z</time></trkpt><trkpt lat="42.57181439033808" lon="12.531294291375971"><ele>138.0</ele><time>2026-05-02T08:57:34.981Z</time></trkpt><trkpt lat="42.571948926266096" lon="12.531256370737754"><ele>138.0</ele><time>2026-05-02T08:57:35.981Z</time></trkpt><trkpt lat="42.572085667035104" lon="12.53121938563509"><ele>138.0</ele><time>2026-05-02T08:57:36.981Z</time></trkpt><trkpt lat="42.5722237200756" lon="12.53120343160365"><ele>138.25</ele><time>2026-05-02T08:57:37.981Z</time></trkpt><trkpt lat="42.5723467532489" lon="12.531135829682098"><ele>138.5</ele><time>2026-05-02T08:57:38.981Z</time></trkpt><trkpt lat="42.57247833263598" lon="12.531073501088668"><ele>138.75</ele><time>2026-05-02T08:57:39.981Z</time></trkpt><trkpt lat="42.57260110036908" lon="12.530996263425362"><ele>139.0</ele><time>2026-05-02T08:57:40.981Z</time></trkpt><trkpt lat="42.572724413292285" lon="12.530918348767987"><ele>139.0</ele><time>2026-05-02T08:57:41.981Z</time></trkpt><trkpt lat="42.57285470840751" lon="12.530851763458728"><ele>139.0</ele><time>2026-05-02T08:57:42.981Z</time></trkpt><trkpt lat="42.57297582262925" lon="12.530765121237872"><ele>139.0</ele><time>2026-05-02T08:57:43.981Z</time></trkpt><trkpt lat="42.57309921073186" lon="12.530681449930507"><ele>139.0</ele><time>2026-05-02T08:57:44.981Z</time></trkpt><trkpt lat="42.57322384049812" lon="12.530607225606362"><ele>138.75</ele><time>2026-05-02T08:57:45.981Z</time></trkpt><trkpt lat="42.57336030445024" lon="12.530545232921735"><ele>138.5</ele><time>2026-05-02T08:57:46.981Z</time></trkpt><trkpt lat="42.57350388713317" lon="12.53050566824126"><ele>138.25</ele><time>2026-05-02T08:57:47.981Z</time></trkpt><trkpt lat="42.5736503436004" lon="12.530465475833054"><ele>138.0</ele><time>2026-05-02T08:57:48.981Z</time></trkpt><trkpt lat="42.57379679361006" lon="12.530431468824721"><ele>138.0</ele><time>2026-05-02T08:57:49.981Z</time></trkpt><trkpt lat="42.57393140506296" lon="12.530403599615532"><ele>138.0</ele><time>2026-05-02T08:57:50.981Z</time></trkpt><trkpt lat="42.57406382247995" lon="12.530362390915027"><ele>138.0</ele><time>2026-05-02T08:57:51.981Z</time></trkpt><trkpt lat="42.57419935983191" lon="12.530345293758527"><ele>138.0</ele><time>2026-05-02T08:57:52.982Z</time></trkpt><trkpt lat="42.5743336140615" lon="12.530319029345982"><ele>138.0</ele><time>2026-05-02T08:57:53.982Z</time></trkpt><trkpt lat="42.57446223286763" lon="12.530287384482913"><ele>138.0</ele><time>2026-05-02T08:57:54.982Z</time></trkpt><trkpt lat="42.57459951194492" lon="12.530282070082434"><ele>138.0</ele><time>2026-05-02T08:57:55.981Z</time></trkpt><trkpt lat="42.57472282072553" lon="12.530259782858732"><ele>138.0</ele><time>2026-05-02T08:57:56.981Z</time></trkpt><trkpt lat="42.574836200998774" lon="12.530219418055177"><ele>137.6</ele><time>2026-05-02T08:57:57.981Z</time></trkpt><trkpt lat="42.574947489159015" lon="12.530204461799874"><ele>137.20000000000002</ele><time>2026-05-02T08:57:58.981Z</time></trkpt><trkpt lat="42.57505685644796" lon="12.530190883289787"><ele>136.8</ele><time>2026-05-02T08:57:59.981Z</time></trkpt><trkpt lat="42.57515918054488" lon="12.530171048032928"><ele>136.4</ele><time>2026-05-02T08:58:00.981Z</time></trkpt><trkpt lat="42.575252787695526" lon="12.530145446682411"><ele>136.0</ele><time>2026-05-02T08:58:01.981Z</time></trkpt><trkpt lat="42.57534882617398" lon="12.530122954921012"><ele>135.33333333333334</ele><time>2026-05-02T08:58:02.982Z</time></trkpt><trkpt lat="42.57543345456057" lon="12.530056142093269"><ele>134.66666666666669</ele><time>2026-05-02T08:58:03.982Z</time></trkpt><trkpt lat="42.5754991458419" lon="12.529995655900464"><ele>134.0</ele><time>2026-05-02T08:58:04.982Z</time></trkpt><trkpt lat="42.57557497846446" lon="12.529934223001613"><ele>133.33333333333334</ele><time>2026-05-02T08:58:05.981Z</time></trkpt><trkpt lat="42.57565017518234" lon="12.529875363293717"><ele>132.66666666666666</ele><time>2026-05-02T08:58:06.981Z</time></trkpt><trkpt lat="42.575725019798256" lon="12.52983657935323"><ele>132.0</ele><time>2026-05-02T08:58:07.981Z</time></trkpt><trkpt lat="42.5757947038434" lon="12.529777998924185"><ele>132.0</ele><time>2026-05-02T08:58:08.981Z</time></trkpt><trkpt lat="42.57587261738123" lon="12.529709100224713"><ele>132.0</ele><time>2026-05-02T08:58:09.981Z</time></trkpt><trkpt lat="42.57598570705744" lon="12.52967050134111"><ele>132.0</ele><time>2026-05-02T08:58:10.981Z</time></trkpt><trkpt lat="42.57609508790232" lon="12.52964271156015"><ele>132.0</ele><time>2026-05-02T08:58:11.981Z</time></trkpt><trkpt lat="42.57619648357765" lon="12.529604526644487"><ele>132.0</ele><time>2026-05-02T08:58:12.981Z</time></trkpt><trkpt lat="42.57628829704895" lon="12.52953625406522"><ele>132.4</ele><time>2026-05-02T08:58:13.981Z</time></trkpt><trkpt lat="42.57638222505054" lon="12.52947908581997"><ele>132.79999999999998</ele><time>2026-05-02T08:58:14.981Z</time></trkpt><trkpt lat="42.576447162639276" lon="12.529410160724204"><ele>133.2</ele><time>2026-05-02T08:58:15.981Z</time></trkpt><trkpt lat="42.57651180047078" lon="12.529318171470946"><ele>133.6</ele><time>2026-05-02T08:58:16.981Z</time></trkpt><trkpt lat="42.576586848419595" lon="12.529246357502535"><ele>134.0</ele><time>2026-05-02T08:58:17.981Z</time></trkpt><trkpt lat="42.57665014021688" lon="12.529153940701134"><ele>134.0</ele><time>2026-05-02T08:58:18.981Z</time></trkpt><trkpt lat="42.576710907739376" lon="12.529036526661777"><ele>134.0</ele><time>2026-05-02T08:58:19.981Z</time></trkpt><trkpt lat="42.57676713083652" lon="12.528901234305344"><ele>134.0</ele><time>2026-05-02T08:58:20.981Z</time></trkpt><trkpt lat="42.576837460102595" lon="12.528789808541587"><ele>134.0</ele><time>2026-05-02T08:58:21.981Z</time></trkpt><trkpt lat="42.57690901932572" lon="12.52867971233015"><ele>134.0</ele><time>2026-05-02T08:58:22.981Z</time></trkpt><trkpt lat="42.576982607013555" lon="12.528556385378327"><ele>134.75</ele><time>2026-05-02T08:58:23.981Z</time></trkpt><trkpt lat="42.577052597028406" lon="12.528445863502434"><ele>135.5</ele><time>2026-05-02T08:58:24.981Z</time></trkpt><trkpt lat="42.5771396278265" lon="12.528322720113232"><ele>136.25</ele><time>2026-05-02T08:58:25.981Z</time></trkpt><trkpt lat="42.5772176657027" lon="12.528211963994"><ele>137.0</ele><time>2026-05-02T08:58:26.981Z</time></trkpt><trkpt lat="42.577296172405944" lon="12.5280996095109"><ele>137.0</ele><time>2026-05-02T08:58:27.981Z</time></trkpt><trkpt lat="42.57737509274674" lon="12.527982016025373"><ele>137.0</ele><time>2026-05-02T08:58:28.98Z</time></trkpt><trkpt lat="42.577452250186425" lon="12.527882573248274"><ele>137.0</ele><time>2026-05-02T08:58:29.98Z</time></trkpt><trkpt lat="42.577542317821866" lon="12.527771783020711"><ele>137.0</ele><time>2026-05-02T08:58:30.98Z</time></trkpt><trkpt lat="42.57762262985933" lon="12.527645167253786"><ele>136.79999999999998</ele><time>2026-05-02T08:58:31.98Z</time></trkpt><trkpt lat="42.577694200333916" lon="12.527530341164793"><ele>136.6</ele><time>2026-05-02T08:58:32.98Z</time></trkpt><trkpt lat="42.57775805788888" lon="12.527404525934148"><ele>136.39999999999998</ele><time>2026-05-02T08:58:33.98Z</time></trkpt><trkpt lat="42.57782237647001" lon="12.527303520414025"><ele>136.2</ele><time>2026-05-02T08:58:34.98Z</time></trkpt><trkpt lat="42.57788326285196" lon="12.527208514991925"><ele>136.0</ele><time>2026-05-02T08:58:35.98Z</time></trkpt><trkpt lat="42.57795392656112" lon="12.527139231560113"><ele>136.6</ele><time>2026-05-02T08:58:36.98Z</time></trkpt><trkpt lat="42.57804179726616" lon="12.527032368925827"><ele>137.2</ele><time>2026-05-02T08:58:37.98Z</time></trkpt><trkpt lat="42.57812467570803" lon="12.526964827955037"><ele>137.8</ele><time>2026-05-02T08:58:38.98Z</time></trkpt><trkpt lat="42.578215788482915" lon="12.526887557922583"><ele>138.4</ele><time>2026-05-02T08:58:39.98Z</time></trkpt><trkpt lat="42.57829840769132" lon="12.526812322349993"><ele>139.0</ele><time>2026-05-02T08:58:40.98Z</time></trkpt><trkpt lat="42.578388206860225" lon="12.526752819192787"><ele>139.0</ele><time>2026-05-02T08:58:41.98Z</time></trkpt><trkpt lat="42.57846894024405" lon="12.526677561902103"><ele>139.0</ele><time>2026-05-02T08:58:42.98Z</time></trkpt><trkpt lat="42.57856052691168" lon="12.526579583077284"><ele>139.0</ele><time>2026-05-02T08:58:43.98Z</time></trkpt><trkpt lat="42.578626008050776" lon="12.52647872480526"><ele>139.0</ele><time>2026-05-02T08:58:44.98Z</time></trkpt><trkpt lat="42.5787072920148" lon="12.526411440628168"><ele>139.0</ele><time>2026-05-02T08:58:45.98Z</time></trkpt><trkpt lat="42.57876651911463" lon="12.526328460449331"><ele>140.0</ele><time>2026-05-02T08:58:46.98Z</time></trkpt><trkpt lat="42.57883015710439" lon="12.5262491987418"><ele>141.0</ele><time>2026-05-02T08:58:47.98Z</time></trkpt><trkpt lat="42.578891990598265" lon="12.526172184509873"><ele>142.0</ele><time>2026-05-02T08:58:48.98Z</time></trkpt><trkpt lat="42.57895331273474" lon="12.526079302985808"><ele>143.0</ele><time>2026-05-02T08:58:49.98Z</time></trkpt><trkpt lat="42.579020318925004" lon="12.525994922286209"><ele>144.0</ele><time>2026-05-02T08:58:50.98Z</time></trkpt><trkpt lat="42.57909751599617" lon="12.525909736297393"><ele>144.0</ele><time>2026-05-02T08:58:51.98Z</time></trkpt><trkpt lat="42.5791705444567" lon="12.525820161760407"><ele>144.0</ele><time>2026-05-02T08:58:52.98Z</time></trkpt><trkpt lat="42.57923352369415" lon="12.525731615629725"><ele>144.0</ele><time>2026-05-02T08:58:53.98Z</time></trkpt><trkpt lat="42.57930335543639" lon="12.525657645811142"><ele>144.0</ele><time>2026-05-02T08:58:54.98Z</time></trkpt><trkpt lat="42.579375532894524" lon="12.525564839572882"><ele>144.0</ele><time>2026-05-02T08:58:55.98Z</time></trkpt><trkpt lat="42.57945642493019" lon="12.525458055368336"><ele>144.2</ele><time>2026-05-02T08:58:56.98Z</time></trkpt><trkpt lat="42.57952926230326" lon="12.525333473740679"><ele>144.4</ele><time>2026-05-02T08:58:57.98Z</time></trkpt><trkpt lat="42.57960525979436" lon="12.52523472121813"><ele>144.6</ele><time>2026-05-02T08:58:58.98Z</time></trkpt><trkpt lat="42.579671648581886" lon="12.525144902094247"><ele>144.8</ele><time>2026-05-02T08:58:59.98Z</time></trkpt><trkpt lat="42.57974616693157" lon="12.525047032957055"><ele>145.0</ele><time>2026-05-02T08:59:00.98Z</time></trkpt><trkpt lat="42.57982649871485" lon="12.52496159422751"><ele>145.0</ele><time>2026-05-02T08:59:01.98Z</time></trkpt><trkpt lat="42.57989895289274" lon="12.524863195917801"><ele>145.0</ele><time>2026-05-02T08:59:02.98Z</time></trkpt><trkpt lat="42.57997600952969" lon="12.52475740470309"><ele>145.0</ele><time>2026-05-02T08:59:03.98Z</time></trkpt><trkpt lat="42.580059123810805" lon="12.524641090114901"><ele>145.0</ele><time>2026-05-02T08:59:04.98Z</time></trkpt><trkpt lat="42.580137497309764" lon="12.524526458559532"><ele>145.0</ele><time>2026-05-02T08:59:05.98Z</time></trkpt><trkpt lat="42.58021649813702" lon="12.52440660957257"><ele>145.2</ele><time>2026-05-02T08:59:06.98Z</time></trkpt><trkpt lat="42.58028238374737" lon="12.52427908017098"><ele>145.4</ele><time>2026-05-02T08:59:07.98Z</time></trkpt><trkpt lat="42.580359920295415" lon="12.524187598587181"><ele>145.6</ele><time>2026-05-02T08:59:08.98Z</time></trkpt><trkpt lat="42.58042260194325" lon="12.524091881163566"><ele>145.8</ele><time>2026-05-02T08:59:09.98Z</time></trkpt><trkpt lat="42.58047970574773" lon="12.52401903584451"><ele>146.0</ele><time>2026-05-02T08:59:10.98Z</time></trkpt><trkpt lat="42.58053401601648" lon="12.5239552194055"><ele>146.6</ele><time>2026-05-02T08:59:11.98Z</time></trkpt><trkpt lat="42.580579155400315" lon="12.523885192309354"><ele>147.2</ele><time>2026-05-02T08:59:12.98Z</time></trkpt><trkpt lat="42.580679370112655" lon="12.523793681213505"><ele>147.8</ele><time>2026-05-02T08:59:14.98Z</time></trkpt><trkpt lat="42.58075291398381" lon="12.523682307027997"><ele>148.4</ele><time>2026-05-02T08:59:16.98Z</time></trkpt><trkpt lat="42.580843752175674" lon="12.523589708454299"><ele>149.0</ele><time>2026-05-02T08:59:18.98Z</time></trkpt><trkpt lat="42.58092492858914" lon="12.523487636815103"><ele>149.0</ele><time>2026-05-02T08:59:20.98Z</time></trkpt><trkpt lat="42.58102042198653" lon="12.523369888964618"><ele>149.0</ele><time>2026-05-02T08:59:22.98Z</time></trkpt><trkpt lat="42.581073180333405" lon="12.523308221385324"><ele>149.0</ele><time>2026-05-02T08:59:23.98Z</time></trkpt><trkpt lat="42.58118194486235" lon="12.523209643033809"><ele>149.0</ele><time>2026-05-02T08:59:25.98Z</time></trkpt><trkpt lat="42.581252044517306" lon="12.52318761221483"><ele>149.0</ele><time>2026-05-02T08:59:26.98Z</time></trkpt><trkpt lat="42.581328279008844" lon="12.523210168168628"><ele>150.5</ele><time>2026-05-02T08:59:27.98Z</time></trkpt><trkpt lat="42.581409252707985" lon="12.52324830929074"><ele>152.0</ele><time>2026-05-02T08:59:28.98Z</time></trkpt><trkpt lat="42.581503900223034" lon="12.523291004201823"><ele>153.5</ele><time>2026-05-02T08:59:29.98Z</time></trkpt><trkpt lat="42.58158860812862" lon="12.523342716453305"><ele>155.0</ele><time>2026-05-02T08:59:30.98Z</time></trkpt><trkpt lat="42.58166159418046" lon="12.5234045167976"><ele>156.5</ele><time>2026-05-02T08:59:31.98Z</time></trkpt><trkpt lat="42.581728280508486" lon="12.523461170947023"><ele>158.0</ele><time>2026-05-02T08:59:32.98Z</time></trkpt><trkpt lat="42.581805864466965" lon="12.523572375560645"><ele>158.0</ele><time>2026-05-02T08:59:34.98Z</time></trkpt><trkpt lat="42.58185790503033" lon="12.523626658505266"><ele>158.0</ele><time>2026-05-02T08:59:35.98Z</time></trkpt><trkpt lat="42.581926644452146" lon="12.523642963732328"><ele>158.0</ele><time>2026-05-02T08:59:36.98Z</time></trkpt><trkpt lat="42.5819931612411" lon="12.5236687744862"><ele>158.0</ele><time>2026-05-02T08:59:37.98Z</time></trkpt><trkpt lat="42.582061732850775" lon="12.523565976848406"><ele>158.0</ele><time>2026-05-02T08:59:38.98Z</time></trkpt><trkpt lat="42.58211998161892" lon="12.523520368753204"><ele>158.0</ele><time>2026-05-02T08:59:39.98Z</time></trkpt><trkpt lat="42.58218419867998" lon="12.523435580156011"><ele>159.2</ele><time>2026-05-02T08:59:41.98Z</time></trkpt><trkpt lat="42.58228172895687" lon="12.523509884835695"><ele>160.4</ele><time>2026-05-02T08:59:43.98Z</time></trkpt><trkpt lat="42.58236878155543" lon="12.523587255545268"><ele>161.6</ele><time>2026-05-02T08:59:45.979Z</time></trkpt><trkpt lat="42.58244250312902" lon="12.52361257682426"><ele>162.79999999999998</ele><time>2026-05-02T08:59:47.979Z</time></trkpt><trkpt lat="42.58251594368836" lon="12.523558484770787"><ele>164.0</ele><time>2026-05-02T08:59:50.979Z</time></trkpt><trkpt lat="42.582565403401375" lon="12.523477538960073"><ele>164.0</ele><time>2026-05-02T08:59:52.979Z</time></trkpt><trkpt lat="42.58257065894859" lon="12.523377808961289"><ele>164.0</ele><time>2026-05-02T08:59:53.979Z</time></trkpt><trkpt lat="42.58263437687617" lon="12.523305693623579"><ele>164.0</ele><time>2026-05-02T08:59:55.979Z</time></trkpt><trkpt lat="42.58270882785301" lon="12.523246102215946"><ele>164.0</ele><time>2026-05-02T08:59:58.98Z</time></trkpt><trkpt lat="42.582763528614606" lon="12.523160524438254"><ele>164.0</ele><time>2026-05-02T09:00:16.979Z</time></trkpt><trkpt lat="42.58281920197874" lon="12.52296186883245"><ele>164.0</ele><time>2026-05-02T09:00:18.979Z</time></trkpt><trkpt lat="42.58284541600431" lon="12.522842626523854"><ele>164.0</ele><time>2026-05-02T09:00:19.979Z</time></trkpt><trkpt lat="42.582870863080146" lon="12.522723484188118"><ele>164.0</ele><time>2026-05-02T09:00:20.979Z</time></trkpt><trkpt lat="42.582920629513055" lon="12.522616202129422"><ele>164.0</ele><time>2026-05-02T09:00:21.979Z</time></trkpt><trkpt lat="42.58298944864449" lon="12.522503398597044"><ele>164.0</ele><time>2026-05-02T09:00:22.979Z</time></trkpt><trkpt lat="42.58306082443942" lon="12.522384932193862"><ele>164.39999999999998</ele><time>2026-05-02T09:00:23.979Z</time></trkpt><trkpt lat="42.58312832464716" lon="12.522270446144256"><ele>164.8</ele><time>2026-05-02T09:00:24.979Z</time></trkpt><trkpt lat="42.583185573508345" lon="12.522149761565075"><ele>165.2</ele><time>2026-05-02T09:00:25.979Z</time></trkpt><trkpt lat="42.58323530296889" lon="12.522022579642705"><ele>165.60000000000002</ele><time>2026-05-02T09:00:26.979Z</time></trkpt><trkpt lat="42.58327865241534" lon="12.521890846316001"><ele>166.0</ele><time>2026-05-02T09:00:27.979Z</time></trkpt><trkpt lat="42.58331617004349" lon="12.521764482005349"><ele>166.8</ele><time>2026-05-02T09:00:28.979Z</time></trkpt><trkpt lat="42.58335532514265" lon="12.521630269443532"><ele>167.60000000000002</ele><time>2026-05-02T09:00:29.979Z</time></trkpt><trkpt lat="42.58339377428377" lon="12.52148835117396"><ele>168.4</ele><time>2026-05-02T09:00:30.979Z</time></trkpt><trkpt lat="42.583428209285664" lon="12.52134309712244"><ele>169.2</ele><time>2026-05-02T09:00:31.979Z</time></trkpt><trkpt lat="42.583466564976675" lon="12.521192997866683"><ele>170.0</ele><time>2026-05-02T09:00:32.979Z</time></trkpt><trkpt lat="42.58350453541543" lon="12.521060621191577"><ele>170.6</ele><time>2026-05-02T09:00:33.979Z</time></trkpt><trkpt lat="42.583543531561446" lon="12.520905087679788"><ele>171.2</ele><time>2026-05-02T09:00:34.979Z</time></trkpt><trkpt lat="42.58357289369594" lon="12.520790374312135"><ele>171.8</ele><time>2026-05-02T09:00:35.979Z</time></trkpt><trkpt lat="42.58360546810791" lon="12.520663973247057"><ele>172.4</ele><time>2026-05-02T09:00:36.979Z</time></trkpt><trkpt lat="42.583639414715044" lon="12.520534271864042"><ele>173.0</ele><time>2026-05-02T09:00:37.979Z</time></trkpt><trkpt lat="42.58367058599875" lon="12.520416478508798"><ele>173.60000000000002</ele><time>2026-05-02T09:00:38.979Z</time></trkpt><trkpt lat="42.583701873643804" lon="12.52029601908956"><ele>174.20000000000002</ele><time>2026-05-02T09:00:39.979Z</time></trkpt><trkpt lat="42.583741713729545" lon="12.52016897579174"><ele>174.8</ele><time>2026-05-02T09:00:40.979Z</time></trkpt><trkpt lat="42.58378977925927" lon="12.520039822325709"><ele>175.4</ele><time>2026-05-02T09:00:41.979Z</time></trkpt><trkpt lat="42.58384936756074" lon="12.51991394994035"><ele>176.0</ele><time>2026-05-02T09:00:42.979Z</time></trkpt><trkpt lat="42.5839262416083" lon="12.519767839766313"><ele>176.0</ele><time>2026-05-02T09:00:43.979Z</time></trkpt><trkpt lat="42.58400681461289" lon="12.519640112264687"><ele>176.0</ele><time>2026-05-02T09:00:44.979Z</time></trkpt><trkpt lat="42.58407970295454" lon="12.519507806028889"><ele>176.0</ele><time>2026-05-02T09:00:45.979Z</time></trkpt><trkpt lat="42.584146348979516" lon="12.519392674036444"><ele>176.0</ele><time>2026-05-02T09:00:46.979Z</time></trkpt><trkpt lat="42.584210366299075" lon="12.519294732968543"><ele>176.33333333333331</ele><time>2026-05-02T09:00:47.979Z</time></trkpt><trkpt lat="42.5842776198448" lon="12.519206169828994"><ele>176.66666666666666</ele><time>2026-05-02T09:00:48.978Z</time></trkpt><trkpt lat="42.584336845218516" lon="12.5191257671784"><ele>177.0</ele><time>2026-05-02T09:00:49.978Z</time></trkpt><trkpt lat="42.58438755995268" lon="12.519059459011128"><ele>177.33333333333334</ele><time>2026-05-02T09:00:50.978Z</time></trkpt><trkpt lat="42.58443800677402" lon="12.519006979759014"><ele>177.66666666666669</ele><time>2026-05-02T09:00:51.978Z</time></trkpt><trkpt lat="42.584527595340425" lon="12.518982421317459"><ele>178.0</ele><time>2026-05-02T09:00:53.978Z</time></trkpt><trkpt lat="42.58462764522163" lon="12.51904123396296"><ele>178.8</ele><time>2026-05-02T09:00:55.978Z</time></trkpt><trkpt lat="42.584685825995464" lon="12.51908258288128"><ele>179.60000000000002</ele><time>2026-05-02T09:00:56.978Z</time></trkpt><trkpt lat="42.58480243294497" lon="12.519171852236996"><ele>180.39999999999998</ele><time>2026-05-02T09:00:58.978Z</time></trkpt><trkpt lat="42.584860496213494" lon="12.519220137600207"><ele>181.2</ele><time>2026-05-02T09:00:59.978Z</time></trkpt><trkpt lat="42.58495004221889" lon="12.519295448739252"><ele>182.0</ele><time>2026-05-02T09:01:01.978Z</time></trkpt><trkpt lat="42.58502950853866" lon="12.519374455859744"><ele>182.0</ele><time>2026-05-02T09:01:03.978Z</time></trkpt><trkpt lat="42.58511121300797" lon="12.519444360941398"><ele>182.0</ele><time>2026-05-02T09:01:05.978Z</time></trkpt><trkpt lat="42.58519416234231" lon="12.519498929214496"><ele>182.0</ele><time>2026-05-02T09:01:07.978Z</time></trkpt><trkpt lat="42.585286197645246" lon="12.519562846643687"><ele>182.0</ele><time>2026-05-02T09:01:09.978Z</time></trkpt><trkpt lat="42.585353978968435" lon="12.519589590064228"><ele>182.0</ele><time>2026-05-02T09:01:10.978Z</time></trkpt><trkpt lat="42.58541609161765" lon="12.519604700484676"><ele>182.0</ele><time>2026-05-02T09:01:11.978Z</time></trkpt><trkpt lat="42.585529830438226" lon="12.519589789316447"><ele>182.66666666666666</ele><time>2026-05-02T09:01:13.978Z</time></trkpt><trkpt lat="42.585607818351214" lon="12.519466689916946"><ele>183.33333333333331</ele><time>2026-05-02T09:01:15.978Z</time></trkpt><trkpt lat="42.585624980924905" lon="12.519363859988857"><ele>184.0</ele><time>2026-05-02T09:01:16.978Z</time></trkpt><trkpt lat="42.58563538756796" lon="12.519259314296702"><ele>184.66666666666666</ele><time>2026-05-02T09:01:17.978Z</time></trkpt><trkpt lat="42.58564292959191" lon="12.519173795243352"><ele>185.33333333333334</ele><time>2026-05-02T09:01:18.978Z</time></trkpt><trkpt lat="42.585647114314696" lon="12.519079604855616"><ele>186.0</ele><time>2026-05-02T09:01:19.978Z</time></trkpt><trkpt lat="42.5856503924005" lon="12.518987073564075"><ele>186.0</ele><time>2026-05-02T09:01:20.978Z</time></trkpt><trkpt lat="42.58567163126655" lon="12.518887153465458"><ele>186.0</ele><time>2026-05-02T09:01:21.978Z</time></trkpt><trkpt lat="42.5856903626" lon="12.518784393214174"><ele>186.0</ele><time>2026-05-02T09:01:22.978Z</time></trkpt><trkpt lat="42.5857232119955" lon="12.518673547302834"><ele>186.0</ele><time>2026-05-02T09:01:23.978Z</time></trkpt><trkpt lat="42.58575723431258" lon="12.518569502919311"><ele>186.0</ele><time>2026-05-02T09:01:24.978Z</time></trkpt><trkpt lat="42.58580646745013" lon="12.518461157024731"><ele>186.0</ele><time>2026-05-02T09:01:25.978Z</time></trkpt><trkpt lat="42.58585506775845" lon="12.518341401061658"><ele>187.60000000000002</ele><time>2026-05-02T09:01:26.978Z</time></trkpt><trkpt lat="42.58590267114894" lon="12.518217501621649"><ele>189.2</ele><time>2026-05-02T09:01:27.978Z</time></trkpt><trkpt lat="42.58595151237685" lon="12.51809472670611"><ele>190.8</ele><time>2026-05-02T09:01:28.978Z</time></trkpt><trkpt lat="42.586001781669786" lon="12.517971669420607"><ele>192.39999999999998</ele><time>2026-05-02T09:01:29.978Z</time></trkpt><trkpt lat="42.58605748178893" lon="12.517829356613145"><ele>194.0</ele><time>2026-05-02T09:01:30.978Z</time></trkpt><trkpt lat="42.586108594858715" lon="12.517702390913412"><ele>194.39999999999998</ele><time>2026-05-02T09:01:31.978Z</time></trkpt><trkpt lat="42.58616062862238" lon="12.51758390369658"><ele>194.8</ele><time>2026-05-02T09:01:32.978Z</time></trkpt><trkpt lat="42.58621320779126" lon="12.517464749324533"><ele>195.2</ele><time>2026-05-02T09:01:33.978Z</time></trkpt><trkpt lat="42.58626385526783" lon="12.517341393606667"><ele>195.60000000000002</ele><time>2026-05-02T09:01:34.978Z</time></trkpt><trkpt lat="42.5863105727139" lon="12.51722660362642"><ele>196.0</ele><time>2026-05-02T09:01:35.978Z</time></trkpt><trkpt lat="42.58634525142604" lon="12.51711491611368"><ele>197.49999999999997</ele><time>2026-05-02T09:01:36.978Z</time></trkpt><trkpt lat="42.586371850948474" lon="12.517002562024354"><ele>199.0</ele><time>2026-05-02T09:01:37.978Z</time></trkpt><trkpt lat="42.58641006789712" lon="12.516922688819736"><ele>200.5</ele><time>2026-05-02T09:01:38.978Z</time></trkpt><trkpt lat="42.5864746184521" lon="12.516874246565989"><ele>202.0</ele><time>2026-05-02T09:01:39.978Z</time></trkpt><trkpt lat="42.58654604326776" lon="12.51681465755095"><ele>203.49999999999997</ele><time>2026-05-02T09:01:40.978Z</time></trkpt><trkpt lat="42.586625797693486" lon="12.516756981033168"><ele>205.0</ele><time>2026-05-02T09:01:41.978Z</time></trkpt><trkpt lat="42.5867087978585" lon="12.516689301660662"><ele>205.0</ele><time>2026-05-02T09:01:42.978Z</time></trkpt><trkpt lat="42.58678812088697" lon="12.516610596807649"><ele>205.0</ele><time>2026-05-02T09:01:43.978Z</time></trkpt><trkpt lat="42.58687120117575" lon="12.516528053920206"><ele>205.0</ele><time>2026-05-02T09:01:44.978Z</time></trkpt><trkpt lat="42.586945724705885" lon="12.516450238768222"><ele>205.0</ele><time>2026-05-02T09:01:45.978Z</time></trkpt><trkpt lat="42.5870250382855" lon="12.516373842518274"><ele>205.0</ele><time>2026-05-02T09:01:46.978Z</time></trkpt><trkpt lat="42.58710324276436" lon="12.516298913313676"><ele>206.66666666666666</ele><time>2026-05-02T09:01:47.978Z</time></trkpt><trkpt lat="42.58716957144031" lon="12.516228002432893"><ele>208.33333333333331</ele><time>2026-05-02T09:01:48.978Z</time></trkpt><trkpt lat="42.58722918496196" lon="12.516174895858208"><ele>210.0</ele><time>2026-05-02T09:01:49.978Z</time></trkpt><trkpt lat="42.58729441602868" lon="12.516139708200827"><ele>211.66666666666669</ele><time>2026-05-02T09:01:50.978Z</time></trkpt><trkpt lat="42.58736550865739" lon="12.516094487234591"><ele>213.33333333333334</ele><time>2026-05-02T09:01:51.978Z</time></trkpt><trkpt lat="42.58742194471778" lon="12.516041734403203"><ele>215.0</ele><time>2026-05-02T09:01:52.978Z</time></trkpt><trkpt lat="42.58755289104421" lon="12.516052205766139"><ele>215.0</ele><time>2026-05-02T09:01:54.978Z</time></trkpt><trkpt lat="42.587628827126906" lon="12.516055477372822"><ele>215.0</ele><time>2026-05-02T09:01:55.978Z</time></trkpt><trkpt lat="42.587687562140765" lon="12.516011982620451"><ele>215.0</ele><time>2026-05-02T09:01:56.978Z</time></trkpt><trkpt lat="42.58774293285864" lon="12.5159426647256"><ele>215.0</ele><time>2026-05-02T09:01:57.978Z</time></trkpt><trkpt lat="42.587798839443664" lon="12.515879389636355"><ele>215.0</ele><time>2026-05-02T09:01:58.978Z</time></trkpt><trkpt lat="42.58785172693612" lon="12.51581523684154"><ele>215.0</ele><time>2026-05-02T09:01:59.978Z</time></trkpt><trkpt lat="42.58791168011178" lon="12.515734710278528"><ele>215.0</ele><time>2026-05-02T09:02:00.978Z</time></trkpt><trkpt lat="42.58796060103126" lon="12.51565727508799"><ele>215.83333333333334</ele><time>2026-05-02T09:02:01.978Z</time></trkpt><trkpt lat="42.58801045967464" lon="12.515575419751354"><ele>216.66666666666669</ele><time>2026-05-02T09:02:02.978Z</time></trkpt><trkpt lat="42.58804526402537" lon="12.5154957769"><ele>217.5</ele><time>2026-05-02T09:02:03.978Z</time></trkpt><trkpt lat="42.588069321838994" lon="12.515393392026573"><ele>218.33333333333331</ele><time>2026-05-02T09:02:04.977Z</time></trkpt><trkpt lat="42.58810559458431" lon="12.515284682860104"><ele>219.16666666666666</ele><time>2026-05-02T09:02:06.978Z</time></trkpt><trkpt lat="42.588122311862435" lon="12.51518066516542"><ele>220.0</ele><time>2026-05-02T09:02:09.977Z</time></trkpt><trkpt lat="42.588145507413664" lon="12.515085862575786"><ele>220.16666666666666</ele><time>2026-05-02T09:02:11.977Z</time></trkpt><trkpt lat="42.58817981197236" lon="12.515000326404964"><ele>220.33333333333331</ele><time>2026-05-02T09:02:13.977Z</time></trkpt><trkpt lat="42.58821994345847" lon="12.514921347241412"><ele>220.5</ele><time>2026-05-02T09:02:15.977Z</time></trkpt><trkpt lat="42.5882654556045" lon="12.514828010313003"><ele>220.66666666666669</ele><time>2026-05-02T09:02:17.977Z</time></trkpt><trkpt lat="42.58830799176018" lon="12.514703597319427"><ele>220.83333333333334</ele><time>2026-05-02T09:02:19.977Z</time></trkpt><trkpt lat="42.588327142850076" lon="12.514568686298874"><ele>221.0</ele><time>2026-05-02T09:02:21.977Z</time></trkpt><trkpt lat="42.588301888484835" lon="12.514444513942424"><ele>221.00000000000003</ele><time>2026-05-02T09:02:23.977Z</time></trkpt><trkpt lat="42.588265293899894" lon="12.514328640332016"><ele>221.0</ele><time>2026-05-02T09:02:25.977Z</time></trkpt><trkpt lat="42.58828662723976" lon="12.514186616539787"><ele>221.0</ele><time>2026-05-02T09:02:27.977Z</time></trkpt><trkpt lat="42.58830321135502" lon="12.514089155013181"><ele>221.0</ele><time>2026-05-02T09:02:28.977Z</time></trkpt><trkpt lat="42.5883173309979" lon="12.513989506468878"><ele>221.00000000000003</ele><time>2026-05-02T09:02:29.977Z</time></trkpt><trkpt lat="42.588344924459825" lon="12.513894248198849"><ele>221.0</ele><time>2026-05-02T09:02:30.977Z</time></trkpt><trkpt lat="42.588373808832976" lon="12.513801501493587"><ele>220.66666666666669</ele><time>2026-05-02T09:02:31.977Z</time></trkpt><trkpt lat="42.58840974485343" lon="12.513708961557224"><ele>220.33333333333334</ele><time>2026-05-02T09:02:32.977Z</time></trkpt><trkpt lat="42.588447860613556" lon="12.51362357777826"><ele>220.0</ele><time>2026-05-02T09:02:33.977Z</time></trkpt><trkpt lat="42.58849124960027" lon="12.51353167221623"><ele>219.66666666666669</ele><time>2026-05-02T09:02:34.977Z</time></trkpt><trkpt lat="42.588530173439835" lon="12.513441256777329"><ele>219.33333333333334</ele><time>2026-05-02T09:02:35.977Z</time></trkpt><trkpt lat="42.58856890010328" lon="12.51334131544803"><ele>219.0</ele><time>2026-05-02T09:02:36.977Z</time></trkpt><trkpt lat="42.588607674679636" lon="12.513253305007412"><ele>219.0</ele><time>2026-05-02T09:02:37.977Z</time></trkpt><trkpt lat="42.588651823748116" lon="12.513155230542113"><ele>219.0</ele><time>2026-05-02T09:02:38.977Z</time></trkpt><trkpt lat="42.58870004147779" lon="12.513071081666501"><ele>219.0</ele><time>2026-05-02T09:02:39.977Z</time></trkpt><trkpt lat="42.588759114044365" lon="12.512994378748791"><ele>219.0</ele><time>2026-05-02T09:02:40.977Z</time></trkpt><trkpt lat="42.58883841660996" lon="12.51292080121433"><ele>219.0</ele><time>2026-05-02T09:02:41.977Z</time></trkpt><trkpt lat="42.58891337463771" lon="12.512845797402234"><ele>219.0</ele><time>2026-05-02T09:02:42.977Z</time></trkpt><trkpt lat="42.58897016078077" lon="12.512764251945137"><ele>221.6</ele><time>2026-05-02T09:02:43.977Z</time></trkpt><trkpt lat="42.58901140966836" lon="12.512668129278794"><ele>224.2</ele><time>2026-05-02T09:02:44.977Z</time></trkpt><trkpt lat="42.58906205940664" lon="12.512545818047196"><ele>226.79999999999998</ele><time>2026-05-02T09:02:45.977Z</time></trkpt><trkpt lat="42.589109164446384" lon="12.512433199200665"><ele>229.39999999999998</ele><time>2026-05-02T09:02:46.977Z</time></trkpt><trkpt lat="42.58916378427804" lon="12.512318301622576"><ele>232.0</ele><time>2026-05-02T09:02:47.977Z</time></trkpt><trkpt lat="42.589216539720745" lon="12.512202824535942"><ele>232.0</ele><time>2026-05-02T09:02:48.977Z</time></trkpt><trkpt lat="42.589260965597404" lon="12.512094702139523"><ele>232.0</ele><time>2026-05-02T09:02:49.977Z</time></trkpt><trkpt lat="42.58930596229348" lon="12.511989666134761"><ele>232.0</ele><time>2026-05-02T09:02:50.977Z</time></trkpt><trkpt lat="42.58934876726652" lon="12.511878638364506"><ele>232.0</ele><time>2026-05-02T09:02:51.977Z</time></trkpt><trkpt lat="42.589389022714144" lon="12.511775673155846"><ele>232.0</ele><time>2026-05-02T09:02:52.977Z</time></trkpt><trkpt lat="42.58943891467231" lon="12.511649732387134"><ele>232.39999999999998</ele><time>2026-05-02T09:02:53.977Z</time></trkpt><trkpt lat="42.58949178330537" lon="12.511524757334156"><ele>232.79999999999998</ele><time>2026-05-02T09:02:54.977Z</time></trkpt><trkpt lat="42.58955111747321" lon="12.511401137222586"><ele>233.2</ele><time>2026-05-02T09:02:55.977Z</time></trkpt><trkpt lat="42.58960802501764" lon="12.511289770038216"><ele>233.6</ele><time>2026-05-02T09:02:56.977Z</time></trkpt><trkpt lat="42.589671464951905" lon="12.511166518381712"><ele>234.0</ele><time>2026-05-02T09:02:57.977Z</time></trkpt><trkpt lat="42.58973862232322" lon="12.511046180791206"><ele>237.2</ele><time>2026-05-02T09:02:58.977Z</time></trkpt><trkpt lat="42.58980097089514" lon="12.510925050582637"><ele>240.39999999999998</ele><time>2026-05-02T09:02:59.977Z</time></trkpt><trkpt lat="42.58986107010958" lon="12.510818469498007"><ele>243.6</ele><time>2026-05-02T09:03:00.977Z</time></trkpt><trkpt lat="42.58991904860459" lon="12.51070739988756"><ele>246.8</ele><time>2026-05-02T09:03:01.977Z</time></trkpt><trkpt lat="42.58997052478451" lon="12.510592200242803"><ele>250.0</ele><time>2026-05-02T09:03:02.977Z</time></trkpt><trkpt lat="42.59002405725834" lon="12.510488748520485"><ele>249.99999999999997</ele><time>2026-05-02T09:03:03.977Z</time></trkpt><trkpt lat="42.59008798866506" lon="12.510400019704809"><ele>250.0</ele><time>2026-05-02T09:03:04.977Z</time></trkpt><trkpt lat="42.59013963169291" lon="12.510332254423728"><ele>250.0</ele><time>2026-05-02T09:03:05.977Z</time></trkpt><trkpt lat="42.590216602297424" lon="12.510217748427582"><ele>250.0</ele><time>2026-05-02T09:03:07.977Z</time></trkpt><trkpt lat="42.59024346870659" lon="12.510138311812927"><ele>249.99999999999997</ele><time>2026-05-02T09:12:36.969Z</time></trkpt><trkpt lat="42.59025364679939" lon="12.510014399622337"><ele>250.0</ele><time>2026-05-02T09:12:38.968Z</time></trkpt><trkpt lat="42.59025259018598" lon="12.50985567488431"><ele>250.0</ele><time>2026-05-02T09:12:40.969Z</time></trkpt><trkpt lat="42.590243922014565" lon="12.509769161343113"><ele>250.0</ele><time>2026-05-02T09:12:41.969Z</time></trkpt><trkpt lat="42.59023805776694" lon="12.509665950170916"><ele>250.0</ele><time>2026-05-02T09:12:42.969Z</time></trkpt><trkpt lat="42.590224426758944" lon="12.509554869828625"><ele>250.0</ele><time>2026-05-02T09:12:43.968Z</time></trkpt><trkpt lat="42.59021533131502" lon="12.509457498158518"><ele>250.0</ele><time>2026-05-02T09:12:44.968Z</time></trkpt><trkpt lat="42.59020678159249" lon="12.509356720119625"><ele>250.0</ele><time>2026-05-02T09:12:45.968Z</time></trkpt><trkpt lat="42.5901873129249" lon="12.509261287296713"><ele>250.0</ele><time>2026-05-02T09:12:46.968Z</time></trkpt><trkpt lat="42.59017601274302" lon="12.509163592602418"><ele>250.66666666666666</ele><time>2026-05-02T09:12:47.969Z</time></trkpt><trkpt lat="42.59016420666378" lon="12.509066035734804"><ele>251.33333333333331</ele><time>2026-05-02T09:12:48.969Z</time></trkpt><trkpt lat="42.5901570316545" lon="12.508969091546508"><ele>252.0</ele><time>2026-05-02T09:12:49.969Z</time></trkpt><trkpt lat="42.590144475966255" lon="12.508883718812775"><ele>252.66666666666669</ele><time>2026-05-02T09:12:50.969Z</time></trkpt><trkpt lat="42.59012976962807" lon="12.508794712921075"><ele>253.33333333333334</ele><time>2026-05-02T09:12:51.969Z</time></trkpt><trkpt lat="42.59010745159215" lon="12.508630734081558"><ele>254.0</ele><time>2026-05-02T09:12:53.969Z</time></trkpt><trkpt lat="42.59009717037748" lon="12.50848796262922"><ele>254.79999999999998</ele><time>2026-05-02T09:12:55.969Z</time></trkpt><trkpt lat="42.590086236691405" lon="12.508358380781505"><ele>255.59999999999997</ele><time>2026-05-02T09:12:57.969Z</time></trkpt><trkpt lat="42.5900473267663" lon="12.508192985576882"><ele>256.4</ele><time>2026-05-02T09:12:59.969Z</time></trkpt><trkpt lat="42.59002870892284" lon="12.508110359762487"><ele>257.2</ele><time>2026-05-02T09:13:00.969Z</time></trkpt><trkpt lat="42.59000331650024" lon="12.507940813964073"><ele>258.0</ele><time>2026-05-02T09:13:02.968Z</time></trkpt><trkpt lat="42.58998823226726" lon="12.50785481400198"><ele>258.5</ele><time>2026-05-02T09:13:03.968Z</time></trkpt><trkpt lat="42.589970825206215" lon="12.507769939144191"><ele>259.0</ele><time>2026-05-02T09:13:04.968Z</time></trkpt><trkpt lat="42.58995528101447" lon="12.507684121361848"><ele>259.5</ele><time>2026-05-02T09:13:05.968Z</time></trkpt><trkpt lat="42.58993841553468" lon="12.507600425840433"><ele>260.0</ele><time>2026-05-02T09:13:06.968Z</time></trkpt><trkpt lat="42.589919909393295" lon="12.507516267347542"><ele>260.5</ele><time>2026-05-02T09:13:07.968Z</time></trkpt><trkpt lat="42.58988836017822" lon="12.507365978552803"><ele>261.0</ele><time>2026-05-02T09:13:09.968Z</time></trkpt><trkpt lat="42.589867072586436" lon="12.507245399534135"><ele>261.0</ele><time>2026-05-02T09:13:11.968Z</time></trkpt><trkpt lat="42.5898536201505" lon="12.507131148166872"><ele>261.0</ele><time>2026-05-02T09:13:13.968Z</time></trkpt><trkpt lat="42.58987337184423" lon="12.506997902394067"><ele>261.0</ele><time>2026-05-02T09:13:15.968Z</time></trkpt><trkpt lat="42.589848356799564" lon="12.506882514082708"><ele>261.0</ele><time>2026-05-02T09:13:17.968Z</time></trkpt><trkpt lat="42.58983258084383" lon="12.506792034081196"><ele>261.0</ele><time>2026-05-02T09:13:19.968Z</time></trkpt><trkpt lat="42.589809577576816" lon="12.506687337043982"><ele>261.0</ele><time>2026-05-02T09:13:21.968Z</time></trkpt><trkpt lat="42.589788702352095" lon="12.50657781786643"><ele>260.8333333333333</ele><time>2026-05-02T09:13:23.968Z</time></trkpt><trkpt lat="42.589771575656684" lon="12.506469401526923"><ele>260.6666666666667</ele><time>2026-05-02T09:13:25.968Z</time></trkpt><trkpt lat="42.58975246675846" lon="12.50634823473752"><ele>260.5</ele><time>2026-05-02T09:13:27.968Z</time></trkpt><trkpt lat="42.58975918856916" lon="12.506257608608296"><ele>260.33333333333337</ele><time>2026-05-02T09:13:29.968Z</time></trkpt><trkpt lat="42.58981191411604" lon="12.506186710550383"><ele>260.1666666666667</ele><time>2026-05-02T09:13:32.968Z</time></trkpt><trkpt lat="42.58986501296487" lon="12.50613107491459"><ele>260.0</ele><time>2026-05-02T09:13:35.968Z</time></trkpt><trkpt lat="42.58991668506258" lon="12.506048023393863"><ele>260.00000000000006</ele><time>2026-05-02T09:13:39.968Z</time></trkpt><trkpt lat="42.58998464723577" lon="12.505978917030136"><ele>260.0</ele><time>2026-05-02T09:13:44.968Z</time></trkpt><trkpt lat="42.5900377322456" lon="12.505929101580056"><ele>260.0</ele><time>2026-05-02T09:13:48.968Z</time></trkpt><trkpt lat="42.59008640499058" lon="12.505858442487762"><ele>260.0</ele><time>2026-05-02T09:13:54.968Z</time></trkpt><trkpt lat="42.59014118832934" lon="12.505794170340748"><ele>260.0</ele><time>2026-05-02T09:13:59.968Z</time></trkpt><trkpt lat="42.59019712831184" lon="12.505734718042262"><ele>260.00000000000006</ele><time>2026-05-02T09:14:03.968Z</time></trkpt><trkpt lat="42.59026040319724" lon="12.50569047841136"><ele>260.0</ele><time>2026-05-02T09:14:06.968Z</time></trkpt><trkpt lat="42.59033196080748" lon="12.505643032655199"><ele>258.0</ele><time>2026-05-02T09:14:09.968Z</time></trkpt><trkpt lat="42.59040291292325" lon="12.505611088887958"><ele>256.0</ele><time>2026-05-02T09:14:12.968Z</time></trkpt><trkpt lat="42.59045949151079" lon="12.505571485913483"><ele>254.0</ele><time>2026-05-02T09:14:16.968Z</time></trkpt><trkpt lat="42.59054090225564" lon="12.505533108500924"><ele>252.0</ele><time>2026-05-02T09:14:22.968Z</time></trkpt><trkpt lat="42.590628829500865" lon="12.505511966259899"><ele>250.00000000000003</ele><time>2026-05-02T09:14:25.967Z</time></trkpt><trkpt lat="42.59070622322203" lon="12.505567084150895"><ele>248.0</ele><time>2026-05-02T09:14:27.967Z</time></trkpt><trkpt lat="42.59077243329013" lon="12.505536928808556"><ele>248.00000000000003</ele><time>2026-05-02T09:14:30.967Z</time></trkpt><trkpt lat="42.59082486298673" lon="12.505486220941744"><ele>248.0</ele><time>2026-05-02T09:14:32.967Z</time></trkpt><trkpt lat="42.59089065513264" lon="12.50547794664409"><ele>248.0</ele><time>2026-05-02T09:14:34.967Z</time></trkpt><trkpt lat="42.59097933993826" lon="12.505470248353094"><ele>248.0</ele><time>2026-05-02T09:14:37.967Z</time></trkpt><trkpt lat="42.5910499599712" lon="12.505475407102834"><ele>248.00000000000003</ele><time>2026-05-02T09:14:39.967Z</time></trkpt><trkpt lat="42.59114708800659" lon="12.505473296629356"><ele>248.0</ele><time>2026-05-02T09:15:13.965Z</time></trkpt><trkpt lat="42.59123670195398" lon="12.505468488152832"><ele>245.33333333333334</ele><time>2026-05-02T09:15:15.965Z</time></trkpt><trkpt lat="42.59134931200662" lon="12.505464214610862"><ele>242.66666666666669</ele><time>2026-05-02T09:15:17.965Z</time></trkpt><trkpt lat="42.59141901329589" lon="12.50544333836879"><ele>240.0</ele><time>2026-05-02T09:15:18.965Z</time></trkpt><trkpt lat="42.59149528452178" lon="12.505427531937283"><ele>237.33333333333331</ele><time>2026-05-02T09:15:19.965Z</time></trkpt><trkpt lat="42.59157409404492" lon="12.505418522151587"><ele>234.66666666666666</ele><time>2026-05-02T09:15:20.965Z</time></trkpt><trkpt lat="42.59165319900425" lon="12.505407306492094"><ele>232.0</ele><time>2026-05-02T09:15:21.965Z</time></trkpt><trkpt lat="42.59172734860053" lon="12.505395451282936"><ele>231.33333333333331</ele><time>2026-05-02T09:15:22.965Z</time></trkpt><trkpt lat="42.59180865630467" lon="12.505370791839061"><ele>230.66666666666666</ele><time>2026-05-02T09:15:23.965Z</time></trkpt><trkpt lat="42.5918900844273" lon="12.505338105058994"><ele>230.0</ele><time>2026-05-02T09:15:24.965Z</time></trkpt><trkpt lat="42.59195544080276" lon="12.50530709263644"><ele>229.33333333333331</ele><time>2026-05-02T09:15:25.965Z</time></trkpt><trkpt lat="42.59203353414289" lon="12.505269410810932"><ele>228.66666666666666</ele><time>2026-05-02T09:15:26.965Z</time></trkpt><trkpt lat="42.59210434872644" lon="12.505224940430104"><ele>228.0</ele><time>2026-05-02T09:15:27.965Z</time></trkpt><trkpt lat="42.592171391332215" lon="12.505188001434794"><ele>226.83333333333334</ele><time>2026-05-02T09:15:28.965Z</time></trkpt><trkpt lat="42.59224679569225" lon="12.505171157810532"><ele>225.66666666666669</ele><time>2026-05-02T09:15:29.965Z</time></trkpt><trkpt lat="42.59233102056934" lon="12.50516829767218"><ele>224.5</ele><time>2026-05-02T09:15:30.965Z</time></trkpt><trkpt lat="42.592424514783744" lon="12.505180218968425"><ele>223.33333333333334</ele><time>2026-05-02T09:15:31.965Z</time></trkpt><trkpt lat="42.59252091285367" lon="12.505205214489312"><ele>222.16666666666669</ele><time>2026-05-02T09:15:32.965Z</time></trkpt><trkpt lat="42.5926149588137" lon="12.50523363915231"><ele>221.0</ele><time>2026-05-02T09:15:33.965Z</time></trkpt><trkpt lat="42.59270206321583" lon="12.50526308471727"><ele>221.00000000000003</ele><time>2026-05-02T09:15:34.965Z</time></trkpt><trkpt lat="42.59279243089763" lon="12.5052941027207"><ele>221.0</ele><time>2026-05-02T09:15:35.965Z</time></trkpt><trkpt lat="42.59287473209087" lon="12.505321420156998"><ele>221.0</ele><time>2026-05-02T09:15:36.965Z</time></trkpt><trkpt lat="42.59295737572851" lon="12.505359847932148"><ele>221.0</ele><time>2026-05-02T09:15:37.965Z</time></trkpt><trkpt lat="42.59303974580364" lon="12.505394895417387"><ele>221.00000000000003</ele><time>2026-05-02T09:15:38.965Z</time></trkpt><trkpt lat="42.593122111187235" lon="12.505422876783262"><ele>221.0</ele><time>2026-05-02T09:15:39.965Z</time></trkpt><trkpt lat="42.59320145122154" lon="12.50545388433046"><ele>219.8</ele><time>2026-05-02T09:15:40.965Z</time></trkpt><trkpt lat="42.59329007136278" lon="12.50548930051049"><ele>218.60000000000002</ele><time>2026-05-02T09:15:41.965Z</time></trkpt><trkpt lat="42.59338372694099" lon="12.505528057749903"><ele>217.4</ele><time>2026-05-02T09:15:42.965Z</time></trkpt><trkpt lat="42.59347813221389" lon="12.505570305963264"><ele>216.2</ele><time>2026-05-02T09:15:43.965Z</time></trkpt><trkpt lat="42.593567426476866" lon="12.505616527767907"><ele>215.0</ele><time>2026-05-02T09:15:44.965Z</time></trkpt><trkpt lat="42.59365245078586" lon="12.505664816168894"><ele>213.83333333333334</ele><time>2026-05-02T09:15:45.964Z</time></trkpt><trkpt lat="42.593735652557086" lon="12.505714556680667"><ele>212.66666666666669</ele><time>2026-05-02T09:15:46.964Z</time></trkpt><trkpt lat="42.59381685153818" lon="12.50576458291567"><ele>211.5</ele><time>2026-05-02T09:15:47.964Z</time></trkpt><trkpt lat="42.59389547521956" lon="12.505823258037308"><ele>210.33333333333331</ele><time>2026-05-02T09:15:48.964Z</time></trkpt><trkpt lat="42.59397204590829" lon="12.505889390025091"><ele>209.16666666666666</ele><time>2026-05-02T09:15:49.964Z</time></trkpt><trkpt lat="42.59404036279908" lon="12.50594682090784"><ele>208.0</ele><time>2026-05-02T09:15:50.964Z</time></trkpt><trkpt lat="42.59410023683763" lon="12.506000160268789"><ele>208.0</ele><time>2026-05-02T09:15:51.964Z</time></trkpt><trkpt lat="42.59415555789263" lon="12.506043605155995"><ele>208.0</ele><time>2026-05-02T09:15:52.964Z</time></trkpt><trkpt lat="42.59424327954685" lon="12.506147639670395"><ele>208.0</ele><time>2026-05-02T09:15:54.964Z</time></trkpt><trkpt lat="42.59425921139501" lon="12.506322725597661"><ele>208.0</ele><time>2026-05-02T09:15:56.964Z</time></trkpt><trkpt lat="42.59427522160477" lon="12.5064234557876"><ele>208.0</ele><time>2026-05-02T09:15:57.964Z</time></trkpt><trkpt lat="42.59429351992432" lon="12.506522808526086"><ele>207.0</ele><time>2026-05-02T09:15:58.964Z</time></trkpt><trkpt lat="42.594319107428376" lon="12.506616601020882"><ele>206.0</ele><time>2026-05-02T09:15:59.964Z</time></trkpt><trkpt lat="42.594386471105366" lon="12.506744707089082"><ele>205.0</ele><time>2026-05-02T09:16:01.964Z</time></trkpt><trkpt lat="42.594516889945496" lon="12.506780146838809"><ele>204.0</ele><time>2026-05-02T09:16:03.964Z</time></trkpt><trkpt lat="42.594592201877155" lon="12.506729120030274"><ele>203.0</ele><time>2026-05-02T09:16:04.964Z</time></trkpt><trkpt lat="42.594671880517865" lon="12.506716964905022"><ele>200.83333333333334</ele><time>2026-05-02T09:16:05.964Z</time></trkpt><trkpt lat="42.59473759674658" lon="12.506711275134961"><ele>198.66666666666669</ele><time>2026-05-02T09:16:06.964Z</time></trkpt><trkpt lat="42.59487958771576" lon="12.506722184054066"><ele>196.5</ele><time>2026-05-02T09:16:08.964Z</time></trkpt><trkpt lat="42.594948373667506" lon="12.506737446310687"><ele>194.33333333333334</ele><time>2026-05-02T09:16:09.964Z</time></trkpt><trkpt lat="42.595018418335414" lon="12.506763609684048"><ele>192.16666666666669</ele><time>2026-05-02T09:16:10.964Z</time></trkpt><trkpt lat="42.5950946204579" lon="12.506786467191915"><ele>190.0</ele><time>2026-05-02T09:16:11.964Z</time></trkpt><trkpt lat="42.595160284564415" lon="12.50682116375008"><ele>190.0</ele><time>2026-05-02T09:16:12.964Z</time></trkpt><trkpt lat="42.595228759612034" lon="12.506880814255224"><ele>190.0</ele><time>2026-05-02T09:16:13.964Z</time></trkpt><trkpt lat="42.5953084325557" lon="12.506927030995795"><ele>190.0</ele><time>2026-05-02T09:16:14.964Z</time></trkpt><trkpt lat="42.595395362571644" lon="12.506977150334878"><ele>190.0</ele><time>2026-05-02T09:16:15.964Z</time></trkpt><trkpt lat="42.595482232438755" lon="12.507026319319017"><ele>190.0</ele><time>2026-05-02T09:16:16.964Z</time></trkpt><trkpt lat="42.595569316968586" lon="12.507075140945675"><ele>187.33333333333334</ele><time>2026-05-02T09:16:17.964Z</time></trkpt><trkpt lat="42.59564964289274" lon="12.50711934014188"><ele>184.66666666666669</ele><time>2026-05-02T09:16:18.964Z</time></trkpt><trkpt lat="42.595726698660094" lon="12.507161739940159"><ele>182.0</ele><time>2026-05-02T09:16:19.964Z</time></trkpt><trkpt lat="42.595805534824976" lon="12.50720511939845"><ele>179.33333333333334</ele><time>2026-05-02T09:16:20.964Z</time></trkpt><trkpt lat="42.59589396912622" lon="12.50723133346665"><ele>176.66666666666666</ele><time>2026-05-02T09:16:21.964Z</time></trkpt><trkpt lat="42.59596825804001" lon="12.507275269091236"><ele>174.0</ele><time>2026-05-02T09:16:22.964Z</time></trkpt><trkpt lat="42.59604595844691" lon="12.507322806321337"><ele>174.0</ele><time>2026-05-02T09:16:23.964Z</time></trkpt><trkpt lat="42.59612315709532" lon="12.507361673858671"><ele>174.0</ele><time>2026-05-02T09:16:24.964Z</time></trkpt><trkpt lat="42.596188188926305" lon="12.507390594265997"><ele>174.0</ele><time>2026-05-02T09:16:25.964Z</time></trkpt><trkpt lat="42.59624312363825" lon="12.507446209063177"><ele>174.0</ele><time>2026-05-02T09:16:26.964Z</time></trkpt><trkpt lat="42.596304118426346" lon="12.50752190678998"><ele>174.0</ele><time>2026-05-02T09:16:27.964Z</time></trkpt><trkpt lat="42.596354717883415" lon="12.507640358498445"><ele>174.0</ele><time>2026-05-02T09:16:28.964Z</time></trkpt><trkpt lat="42.59640724089127" lon="12.507798831359384"><ele>171.39999999999998</ele><time>2026-05-02T09:16:29.964Z</time></trkpt><trkpt lat="42.5964538148165" lon="12.507944758638036"><ele>168.8</ele><time>2026-05-02T09:16:30.964Z</time></trkpt><trkpt lat="42.59648901838076" lon="12.508082708304563"><ele>166.2</ele><time>2026-05-02T09:16:31.964Z</time></trkpt><trkpt lat="42.596512069162536" lon="12.508203454763791"><ele>163.60000000000002</ele><time>2026-05-02T09:16:32.964Z</time></trkpt><trkpt lat="42.5965269010569" lon="12.508322675908687"><ele>161.0</ele><time>2026-05-02T09:16:33.964Z</time></trkpt><trkpt lat="42.59653056717395" lon="12.50844565675103"><ele>161.0</ele><time>2026-05-02T09:16:34.964Z</time></trkpt><trkpt lat="42.596522743149336" lon="12.50856814023011"><ele>161.0</ele><time>2026-05-02T09:16:35.964Z</time></trkpt><trkpt lat="42.596508707359135" lon="12.508698391096118"><ele>161.0</ele><time>2026-05-02T09:16:36.964Z</time></trkpt><trkpt lat="42.596494118176956" lon="12.508801612533047"><ele>161.0</ele><time>2026-05-02T09:16:37.964Z</time></trkpt><trkpt lat="42.596467135588796" lon="12.508918712987063"><ele>161.0</ele><time>2026-05-02T09:16:38.964Z</time></trkpt><trkpt lat="42.59647734993773" lon="12.50902841451868"><ele>161.0</ele><time>2026-05-02T09:16:39.964Z</time></trkpt><trkpt lat="42.59649007330412" lon="12.509126154628465"><ele>160.4</ele><time>2026-05-02T09:16:40.964Z</time></trkpt><trkpt lat="42.596534780832904" lon="12.509223616528189"><ele>159.8</ele><time>2026-05-02T09:16:41.964Z</time></trkpt><trkpt lat="42.59662075828092" lon="12.50932452604877"><ele>159.20000000000002</ele><time>2026-05-02T09:16:42.964Z</time></trkpt><trkpt lat="42.5967351107311" lon="12.509387531755305"><ele>158.60000000000002</ele><time>2026-05-02T09:16:43.964Z</time></trkpt><trkpt lat="42.596831238055266" lon="12.509448386272009"><ele>158.0</ele><time>2026-05-02T09:16:44.964Z</time></trkpt><trkpt lat="42.596936191505" lon="12.509518009860379"><ele>156.75</ele><time>2026-05-02T09:16:45.964Z</time></trkpt><trkpt lat="42.597047834026824" lon="12.509594356393828"><ele>155.5</ele><time>2026-05-02T09:16:46.962Z</time></trkpt><trkpt lat="42.59715236106985" lon="12.509665837016433"><ele>154.25</ele><time>2026-05-02T09:16:47.962Z</time></trkpt><trkpt lat="42.59724567032943" lon="12.50972964638111"><ele>153.0</ele><time>2026-05-02T09:16:48.962Z</time></trkpt><trkpt lat="42.59734982333351" lon="12.509798973830293"><ele>153.0</ele><time>2026-05-02T09:16:49.962Z</time></trkpt><trkpt lat="42.59744650622858" lon="12.509860304773838"><ele>153.0</ele><time>2026-05-02T09:16:50.962Z</time></trkpt><trkpt lat="42.59755313670927" lon="12.509923484455793"><ele>153.0</ele><time>2026-05-02T09:16:51.962Z</time></trkpt><trkpt lat="42.597657141194375" lon="12.509968360924129"><ele>153.0</ele><time>2026-05-02T09:16:52.963Z</time></trkpt><trkpt lat="42.59774663593854" lon="12.5099947656879"><ele>153.0</ele><time>2026-05-02T09:16:53.963Z</time></trkpt><trkpt lat="42.59781811807195" lon="12.510015774862593"><ele>153.0</ele><time>2026-05-02T09:16:54.963Z</time></trkpt><trkpt lat="42.5979000468006" lon="12.510027749876516"><ele>153.0</ele><time>2026-05-02T09:16:56.962Z</time></trkpt><trkpt lat="42.59800640349389" lon="12.509692438862976"><ele>153.0</ele><time>2026-05-02T09:19:56.958Z</time></trkpt><trkpt lat="42.59800715644464" lon="12.509605139559197"><ele>153.0</ele><time>2026-05-02T09:19:57.958Z</time></trkpt><trkpt lat="42.59799665014632" lon="12.50944168909904"><ele>153.0</ele><time>2026-05-02T09:19:59.958Z</time></trkpt><trkpt lat="42.59797138786493" lon="12.50927955193787"><ele>153.0</ele><time>2026-05-02T09:20:01.958Z</time></trkpt><trkpt lat="42.597953048240285" lon="12.509138717369854"><ele>153.0</ele><time>2026-05-02T09:20:03.958Z</time></trkpt><trkpt lat="42.59797264234007" lon="12.50900749220759"><ele>153.0</ele><time>2026-05-02T09:20:05.958Z</time></trkpt><trkpt lat="42.59803132480644" lon="12.508877620180357"><ele>153.0</ele><time>2026-05-02T09:20:07.958Z</time></trkpt><trkpt lat="42.598085802783864" lon="12.508761152772802"><ele>153.28571428571428</ele><time>2026-05-02T09:20:08.958Z</time></trkpt><trkpt lat="42.598125248233" lon="12.508687917586283"><ele>153.57142857142858</ele><time>2026-05-02T09:20:09.958Z</time></trkpt><trkpt lat="42.598158991601856" lon="12.508597162467263"><ele>153.85714285714286</ele><time>2026-05-02T09:20:10.958Z</time></trkpt><trkpt lat="42.59821730388122" lon="12.508524702836533"><ele>154.14285714285714</ele><time>2026-05-02T09:20:11.958Z</time></trkpt><trkpt lat="42.59826078995238" lon="12.50844742751671"><ele>154.42857142857142</ele><time>2026-05-02T09:20:12.958Z</time></trkpt><trkpt lat="42.59830173733091" lon="12.508375361966248"><ele>154.71428571428572</ele><time>2026-05-02T09:20:13.958Z</time></trkpt><trkpt lat="42.59834967950438" lon="12.508301327307187"><ele>155.0</ele><time>2026-05-02T09:20:14.958Z</time></trkpt><trkpt lat="42.598388197982956" lon="12.508220878540882"><ele>155.0</ele><time>2026-05-02T09:20:15.958Z</time></trkpt><trkpt lat="42.59843133146715" lon="12.508134692586975"><ele>155.0</ele><time>2026-05-02T09:20:16.958Z</time></trkpt><trkpt lat="42.59848445952005" lon="12.508047805662379"><ele>155.0</ele><time>2026-05-02T09:20:17.958Z</time></trkpt><trkpt lat="42.59850634215055" lon="12.507941373206453"><ele>155.0</ele><time>2026-05-02T09:20:18.958Z</time></trkpt><trkpt lat="42.598526784918455" lon="12.507858058375229"><ele>155.0</ele><time>2026-05-02T09:20:19.958Z</time></trkpt><trkpt lat="42.59854718166916" lon="12.507774931114414"><ele>155.0</ele><time>2026-05-02T09:20:20.958Z</time></trkpt><trkpt lat="42.598505820354006" lon="12.507652267625566"><ele>155.0</ele><time>2026-05-02T09:20:25.958Z</time></trkpt><trkpt lat="42.59847314898073" lon="12.507524217137698"><ele>155.0</ele><time>2026-05-02T09:20:28.958Z</time></trkpt><trkpt lat="42.598413739832495" lon="12.507369273850285"><ele>155.0</ele><time>2026-05-02T09:20:30.958Z</time></trkpt><trkpt lat="42.59836443752041" lon="12.507243825340261"><ele>155.0</ele><time>2026-05-02T09:20:32.958Z</time></trkpt><trkpt lat="42.59834493327937" lon="12.506874732427475"><ele>156.0</ele><time>2026-05-02T09:20:34.958Z</time></trkpt><trkpt lat="42.598377691031054" lon="12.506711588215476"><ele>157.0</ele><time>2026-05-02T09:20:35.958Z</time></trkpt><trkpt lat="42.59894192338533" lon="12.506907330726255"><ele>157.0</ele><time>2026-05-02T09:20:36.958Z</time></trkpt><trkpt lat="42.598992477720884" lon="12.506842892039307"><ele>157.0</ele><time>2026-05-02T09:20:37.958Z</time></trkpt><trkpt lat="42.59908077182867" lon="12.506747559133563"><ele>157.0</ele><time>2026-05-02T09:20:39.958Z</time></trkpt><trkpt lat="42.599171280087916" lon="12.506689742951586"><ele>157.0</ele><time>2026-05-02T09:20:41.958Z</time></trkpt><trkpt lat="42.599228272866974" lon="12.506639559754797"><ele>157.0</ele><time>2026-05-02T09:20:42.958Z</time></trkpt><trkpt lat="42.59929331466606" lon="12.506600375583792"><ele>157.0</ele><time>2026-05-02T09:20:43.958Z</time></trkpt><trkpt lat="42.599404567108174" lon="12.50654409059764"><ele>157.0</ele><time>2026-05-02T09:20:45.958Z</time></trkpt><trkpt lat="42.59948432445234" lon="12.506469251460338"><ele>157.0</ele><time>2026-05-02T09:20:47.958Z</time></trkpt><trkpt lat="42.59957887687997" lon="12.506409598272931"><ele>157.0</ele><time>2026-05-02T09:20:49.958Z</time></trkpt><trkpt lat="42.59967684954933" lon="12.506385440398534"><ele>157.0</ele><time>2026-05-02T09:20:51.958Z</time></trkpt><trkpt lat="42.599785216457285" lon="12.506392399008783"><ele>157.0</ele><time>2026-05-02T09:20:53.958Z</time></trkpt><trkpt lat="42.59986352707799" lon="12.506450234687495"><ele>157.16666666666669</ele><time>2026-05-02T09:20:55.958Z</time></trkpt><trkpt lat="42.59994058934194" lon="12.506541417201014"><ele>157.33333333333334</ele><time>2026-05-02T09:20:57.958Z</time></trkpt><trkpt lat="42.59999966302934" lon="12.506613474692873"><ele>157.5</ele><time>2026-05-02T09:20:59.957Z</time></trkpt><trkpt lat="42.60008032689905" lon="12.506676359014934"><ele>157.66666666666666</ele><time>2026-05-02T09:21:01.957Z</time></trkpt><trkpt lat="42.60015179674151" lon="12.506694103262902"><ele>157.83333333333331</ele><time>2026-05-02T09:21:09.957Z</time></trkpt><trkpt lat="42.600231319957466" lon="12.506693176980148"><ele>158.0</ele><time>2026-05-02T09:23:13.954Z</time></trkpt><trkpt lat="42.60030831052453" lon="12.506679904571131"><ele>158.0</ele><time>2026-05-02T09:23:15.954Z</time></trkpt><trkpt lat="42.6003822755301" lon="12.506620418808689"><ele>158.0</ele><time>2026-05-02T09:23:17.954Z</time></trkpt><trkpt lat="42.600461247096625" lon="12.506584413222411"><ele>158.0</ele><time>2026-05-02T09:23:19.954Z</time></trkpt><trkpt lat="42.60053717259662" lon="12.506552873066578"><ele>158.0</ele><time>2026-05-02T09:23:21.954Z</time></trkpt><trkpt lat="42.60061900560048" lon="12.506499075647984"><ele>158.0</ele><time>2026-05-02T09:23:23.954Z</time></trkpt><trkpt lat="42.60071200759397" lon="12.506428708798287"><ele>158.0</ele><time>2026-05-02T09:23:25.954Z</time></trkpt><trkpt lat="42.600784084910416" lon="12.50633560332"><ele>158.0</ele><time>2026-05-02T09:23:27.954Z</time></trkpt><trkpt lat="42.60085078504633" lon="12.506258472553828"><ele>158.0</ele><time>2026-05-02T09:23:29.954Z</time></trkpt><trkpt lat="42.60092855870357" lon="12.506190561856801"><ele>158.0</ele><time>2026-05-02T09:23:31.954Z</time></trkpt><trkpt lat="42.601013401172416" lon="12.506102112281216"><ele>158.0</ele><time>2026-05-02T09:23:33.953Z</time></trkpt><trkpt lat="42.60110703997194" lon="12.506004466597824"><ele>158.0</ele><time>2026-05-02T09:23:35.953Z</time></trkpt><trkpt lat="42.601196301824515" lon="12.5059384287137"><ele>158.60000000000002</ele><time>2026-05-02T09:23:37.953Z</time></trkpt><trkpt lat="42.60125721321738" lon="12.505898743809833"><ele>159.20000000000002</ele><time>2026-05-02T09:23:38.953Z</time></trkpt><trkpt lat="42.60131084397072" lon="12.505850102746159"><ele>159.8</ele><time>2026-05-02T09:23:39.953Z</time></trkpt><trkpt lat="42.601400396790325" lon="12.505794623103272"><ele>160.4</ele><time>2026-05-02T09:23:41.953Z</time></trkpt><trkpt lat="42.60151301032021" lon="12.505766443066806"><ele>161.0</ele><time>2026-05-02T09:23:43.953Z</time></trkpt><trkpt lat="42.60162723990361" lon="12.505751639971825"><ele>161.0</ele><time>2026-05-02T09:23:45.953Z</time></trkpt><trkpt lat="42.601699637953914" lon="12.5057538989821"><ele>161.0</ele><time>2026-05-02T09:23:46.953Z</time></trkpt><trkpt lat="42.60177029835109" lon="12.505781047402968"><ele>161.0</ele><time>2026-05-02T09:23:47.953Z</time></trkpt><trkpt lat="42.60187325322759" lon="12.505828004926704"><ele>161.0</ele><time>2026-05-02T09:23:49.953Z</time></trkpt><trkpt lat="42.60198336580305" lon="12.505865365002728"><ele>161.0</ele><time>2026-05-02T09:23:51.953Z</time></trkpt><trkpt lat="42.60208739250572" lon="12.50587436406376"><ele>160.20000000000002</ele><time>2026-05-02T09:23:53.953Z</time></trkpt><trkpt lat="42.602189553542324" lon="12.505907810535174"><ele>159.4</ele><time>2026-05-02T09:23:55.953Z</time></trkpt><trkpt lat="42.60229798802886" lon="12.505977409877769"><ele>158.6</ele><time>2026-05-02T09:23:57.953Z</time></trkpt><trkpt lat="42.60238295439684" lon="12.50603939160209"><ele>157.8</ele><time>2026-05-02T09:23:59.953Z</time></trkpt><trkpt lat="42.60245298846276" lon="12.50609202874983"><ele>157.0</ele><time>2026-05-02T09:24:01.953Z</time></trkpt><trkpt lat="42.60252860104594" lon="12.50614570525025"><ele>157.0</ele><time>2026-05-02T09:24:03.953Z</time></trkpt><trkpt lat="42.60263620303953" lon="12.506191309065509"><ele>157.0</ele><time>2026-05-02T09:24:05.953Z</time></trkpt><trkpt lat="42.6027018430493" lon="12.506222904222712"><ele>157.0</ele><time>2026-05-02T09:24:06.953Z</time></trkpt><trkpt lat="42.6027657147445" lon="12.506245992895417"><ele>157.0</ele><time>2026-05-02T09:24:07.953Z</time></trkpt><trkpt lat="42.60283145468671" lon="12.506265046344323"><ele>157.0</ele><time>2026-05-02T09:24:08.953Z</time></trkpt><trkpt lat="42.602891745004214" lon="12.50629775073892"><ele>157.0</ele><time>2026-05-02T09:24:09.953Z</time></trkpt><trkpt lat="42.60295913362407" lon="12.506322453807043"><ele>157.4</ele><time>2026-05-02T09:24:10.953Z</time></trkpt><trkpt lat="42.60304614538146" lon="12.506370088962624"><ele>157.79999999999998</ele><time>2026-05-02T09:24:12.953Z</time></trkpt><trkpt lat="42.603154635496416" lon="12.506406917919415"><ele>158.2</ele><time>2026-05-02T09:24:14.953Z</time></trkpt><trkpt lat="42.603262685116434" lon="12.50644459915914"><ele>158.6</ele><time>2026-05-02T09:24:16.953Z</time></trkpt><trkpt lat="42.6033423704931" lon="12.506491178572341"><ele>159.0</ele><time>2026-05-02T09:24:18.953Z</time></trkpt><trkpt lat="42.603402724587085" lon="12.506522255268518"><ele>159.0</ele><time>2026-05-02T09:24:19.953Z</time></trkpt><trkpt lat="42.603486199688064" lon="12.506560028554064"><ele>159.0</ele><time>2026-05-02T09:24:21.953Z</time></trkpt><trkpt lat="42.60358013997156" lon="12.506588655047969"><ele>159.0</ele><time>2026-05-02T09:24:23.953Z</time></trkpt><trkpt lat="42.60364989382424" lon="12.506616469246502"><ele>159.0</ele><time>2026-05-02T09:24:25.953Z</time></trkpt><trkpt lat="42.60376828818092" lon="12.506596294509055"><ele>159.0</ele><time>2026-05-02T09:24:28.953Z</time></trkpt><trkpt lat="42.60390031054574" lon="12.506570801570279"><ele>159.0</ele><time>2026-05-02T09:24:30.953Z</time></trkpt><trkpt lat="42.60396667539153" lon="12.506571713509121"><ele>159.0</ele><time>2026-05-02T09:24:31.953Z</time></trkpt><trkpt lat="42.60412125514064" lon="12.506563685338815"><ele>159.0</ele><time>2026-05-02T09:24:33.953Z</time></trkpt><trkpt lat="42.604213385019754" lon="12.506562206190829"><ele>159.0</ele><time>2026-05-02T09:24:34.953Z</time></trkpt><trkpt lat="42.60428783848384" lon="12.506579127625768"><ele>159.0</ele><time>2026-05-02T09:24:35.953Z</time></trkpt><trkpt lat="42.60437346857197" lon="12.506576179358495"><ele>159.0</ele><time>2026-05-02T09:24:37.953Z</time></trkpt><trkpt lat="42.604436688735035" lon="12.506549586027962"><ele>159.0</ele><time>2026-05-02T09:24:39.953Z</time></trkpt><trkpt lat="42.60452498053029" lon="12.506515563919661"><ele>159.0</ele><time>2026-05-02T09:24:41.953Z</time></trkpt><trkpt lat="42.60463525156749" lon="12.506454202439967"><ele>159.0</ele><time>2026-05-02T09:24:43.953Z</time></trkpt><trkpt lat="42.60469422507435" lon="12.506408322004496"><ele>159.0</ele><time>2026-05-02T09:24:44.953Z</time></trkpt><trkpt lat="42.60475210680119" lon="12.506370571324094"><ele>159.0</ele><time>2026-05-02T09:24:45.953Z</time></trkpt><trkpt lat="42.60484715826141" lon="12.5063013325472"><ele>159.0</ele><time>2026-05-02T09:24:47.953Z</time></trkpt><trkpt lat="42.604902839243096" lon="12.50624418262907"><ele>159.0</ele><time>2026-05-02T09:24:48.953Z</time></trkpt><trkpt lat="42.60497738154305" lon="12.506197079104314"><ele>159.0</ele><time>2026-05-02T09:24:49.953Z</time></trkpt><trkpt lat="42.60504107019386" lon="12.506145118342616"><ele>159.0</ele><time>2026-05-02T09:24:50.953Z</time></trkpt><trkpt lat="42.6050958147313" lon="12.506096058148625"><ele>159.0</ele><time>2026-05-02T09:24:51.952Z</time></trkpt><trkpt lat="42.605186186414365" lon="12.505986205579827"><ele>159.0</ele><time>2026-05-02T09:24:53.952Z</time></trkpt><trkpt lat="42.605270304765" lon="12.505890713135392"><ele>159.0</ele><time>2026-05-02T09:24:55.952Z</time></trkpt><trkpt lat="42.605322213012315" lon="12.505817147876115"><ele>159.0</ele><time>2026-05-02T09:24:56.952Z</time></trkpt><trkpt lat="42.605386766689605" lon="12.505720690478569"><ele>159.0</ele><time>2026-05-02T09:24:57.952Z</time></trkpt><trkpt lat="42.60543121884576" lon="12.505627374143897"><ele>159.0</ele><time>2026-05-02T09:24:58.952Z</time></trkpt><trkpt lat="42.60552508294961" lon="12.505521048227452"><ele>159.0</ele><time>2026-05-02T09:25:00.952Z</time></trkpt><trkpt lat="42.60563979047967" lon="12.505431617864303"><ele>159.66666666666666</ele><time>2026-05-02T09:25:02.952Z</time></trkpt><trkpt lat="42.60571113841556" lon="12.505377096175504"><ele>160.33333333333334</ele><time>2026-05-02T09:25:03.952Z</time></trkpt><trkpt lat="42.60578436412081" lon="12.505329259782236"><ele>161.0</ele><time>2026-05-02T09:25:04.952Z</time></trkpt><trkpt lat="42.60586505099156" lon="12.505293330236519"><ele>161.66666666666669</ele><time>2026-05-02T09:25:06.952Z</time></trkpt><trkpt lat="42.605988797349546" lon="12.505221452589378"><ele>162.33333333333334</ele><time>2026-05-02T09:25:08.952Z</time></trkpt><trkpt lat="42.6060496310409" lon="12.505187191341639"><ele>163.0</ele><time>2026-05-02T09:25:09.952Z</time></trkpt><trkpt lat="42.60612453284742" lon="12.505169200079221"><ele>163.16666666666669</ele><time>2026-05-02T09:25:10.951Z</time></trkpt><trkpt lat="42.606216134812804" lon="12.505168326972132"><ele>163.33333333333334</ele><time>2026-05-02T09:25:12.951Z</time></trkpt><trkpt lat="42.606299075321104" lon="12.505177662614736"><ele>163.5</ele><time>2026-05-02T09:25:14.952Z</time></trkpt><trkpt lat="42.60636162592397" lon="12.505167779754895"><ele>163.66666666666666</ele><time>2026-05-02T09:25:16.951Z</time></trkpt><trkpt lat="42.606421221884915" lon="12.505197570746382"><ele>163.83333333333331</ele><time>2026-05-02T09:25:18.951Z</time></trkpt><trkpt lat="42.60649646090942" lon="12.5052218243304"><ele>164.0</ele><time>2026-05-02T09:25:20.952Z</time></trkpt><trkpt lat="42.606584059791636" lon="12.505135790769454"><ele>164.0</ele><time>2026-05-02T09:25:22.952Z</time></trkpt><trkpt lat="42.60661790297809" lon="12.505048455316976"><ele>164.0</ele><time>2026-05-02T09:25:24.951Z</time></trkpt><trkpt lat="42.60667420464277" lon="12.504935210618545"><ele>164.0</ele><time>2026-05-02T09:25:45.951Z</time></trkpt><trkpt lat="42.60670977354161" lon="12.504857371101004"><ele>164.0</ele><time>2026-05-02T09:25:46.951Z</time></trkpt><trkpt lat="42.606736236114486" lon="12.504770374737033"><ele>164.0</ele><time>2026-05-02T09:25:47.951Z</time></trkpt><trkpt lat="42.60675621737056" lon="12.504682020594496"><ele>164.0</ele><time>2026-05-02T09:25:48.951Z</time></trkpt><trkpt lat="42.60678877834495" lon="12.504576824526966"><ele>164.0</ele><time>2026-05-02T09:25:49.951Z</time></trkpt><trkpt lat="42.60683052461465" lon="12.504495709901455"><ele>164.0</ele><time>2026-05-02T09:25:50.951Z</time></trkpt><trkpt lat="42.60690092669798" lon="12.504432007325105"><ele>164.0</ele><time>2026-05-02T09:25:51.951Z</time></trkpt><trkpt lat="42.606983424073206" lon="12.504385202346743"><ele>164.0</ele><time>2026-05-02T09:25:52.951Z</time></trkpt><trkpt lat="42.60706175646349" lon="12.504343846221072"><ele>164.0</ele><time>2026-05-02T09:25:53.951Z</time></trkpt><trkpt lat="42.607135741733664" lon="12.504287617061681"><ele>164.0</ele><time>2026-05-02T09:25:54.951Z</time></trkpt><trkpt lat="42.6072013153769" lon="12.504214505706182"><ele>164.0</ele><time>2026-05-02T09:25:55.951Z</time></trkpt><trkpt lat="42.60725433796208" lon="12.50412715408971"><ele>164.0</ele><time>2026-05-02T09:25:56.951Z</time></trkpt><trkpt lat="42.60728489715988" lon="12.504029727971817"><ele>164.0</ele><time>2026-05-02T09:25:57.951Z</time></trkpt><trkpt lat="42.60731568359183" lon="12.503927506352174"><ele>164.0</ele><time>2026-05-02T09:25:58.951Z</time></trkpt><trkpt lat="42.60736186300111" lon="12.503846205526294"><ele>164.0</ele><time>2026-05-02T09:25:59.951Z</time></trkpt><trkpt lat="42.607407907158425" lon="12.503745660968246"><ele>164.0</ele><time>2026-05-02T09:26:00.951Z</time></trkpt><trkpt lat="42.60743249553884" lon="12.503628927019202"><ele>163.79999999999998</ele><time>2026-05-02T09:26:01.951Z</time></trkpt><trkpt lat="42.60742485755517" lon="12.503496368768895"><ele>163.6</ele><time>2026-05-02T09:26:02.951Z</time></trkpt><trkpt lat="42.607407247935406" lon="12.503362188663584"><ele>163.4</ele><time>2026-05-02T09:26:03.951Z</time></trkpt><trkpt lat="42.60739069915426" lon="12.503244026301731"><ele>163.2</ele><time>2026-05-02T09:26:04.951Z</time></trkpt><trkpt lat="42.60738542200047" lon="12.50312775719536"><ele>163.0</ele><time>2026-05-02T09:26:05.951Z</time></trkpt><trkpt lat="42.60737544995619" lon="12.503020128291418"><ele>163.33333333333334</ele><time>2026-05-02T09:26:06.951Z</time></trkpt><trkpt lat="42.60735420061441" lon="12.502875195568375"><ele>163.66666666666669</ele><time>2026-05-02T09:26:07.951Z</time></trkpt><trkpt lat="42.60733969521551" lon="12.5027578421629"><ele>164.0</ele><time>2026-05-02T09:26:08.951Z</time></trkpt><trkpt lat="42.60731956373493" lon="12.502635077088744"><ele>164.33333333333334</ele><time>2026-05-02T09:26:09.951Z</time></trkpt><trkpt lat="42.60730800972729" lon="12.502535247141862"><ele>164.66666666666666</ele><time>2026-05-02T09:26:10.951Z</time></trkpt><trkpt lat="42.60730450638425" lon="12.502441841143588"><ele>165.0</ele><time>2026-05-02T09:26:11.951Z</time></trkpt><trkpt lat="42.607342599103475" lon="12.502358810480773"><ele>165.0</ele><time>2026-05-02T09:26:12.951Z</time></trkpt><trkpt lat="42.607398610954924" lon="12.502262974649577"><ele>165.0</ele><time>2026-05-02T09:26:13.951Z</time></trkpt><trkpt lat="42.60746642563592" lon="12.502181385909685"><ele>165.0</ele><time>2026-05-02T09:26:14.95Z</time></trkpt><trkpt lat="42.607548858229585" lon="12.502103055636354"><ele>165.0</ele><time>2026-05-02T09:26:15.95Z</time></trkpt><trkpt lat="42.60761602324851" lon="12.502042337507467"><ele>165.0</ele><time>2026-05-02T09:26:16.95Z</time></trkpt><trkpt lat="42.60764803717917" lon="12.501953315204817"><ele>165.0</ele><time>2026-05-02T09:26:17.95Z</time></trkpt><trkpt lat="42.607663930454585" lon="12.501837540316258"><ele>165.5</ele><time>2026-05-02T09:26:18.95Z</time></trkpt><trkpt lat="42.607695507801274" lon="12.501729036789671"><ele>166.0</ele><time>2026-05-02T09:26:19.95Z</time></trkpt><trkpt lat="42.607745620544556" lon="12.501646545044308"><ele>166.5</ele><time>2026-05-02T09:26:20.95Z</time></trkpt><trkpt lat="42.60778987785589" lon="12.501563708568245"><ele>167.0</ele><time>2026-05-02T09:26:21.95Z</time></trkpt><trkpt lat="42.60781982355309" lon="12.501461912675243"><ele>167.5</ele><time>2026-05-02T09:26:22.95Z</time></trkpt><trkpt lat="42.60783008175858" lon="12.501366127916718"><ele>168.0</ele><time>2026-05-02T09:26:23.95Z</time></trkpt><trkpt lat="42.607833755509205" lon="12.501257113671736"><ele>168.16666666666666</ele><time>2026-05-02T09:26:24.95Z</time></trkpt><trkpt lat="42.60781799560159" lon="12.501139589165186"><ele>168.33333333333334</ele><time>2026-05-02T09:26:25.95Z</time></trkpt><trkpt lat="42.60780786220564" lon="12.501041393686652"><ele>168.5</ele><time>2026-05-02T09:26:26.95Z</time></trkpt><trkpt lat="42.60781612196327" lon="12.500950065031683"><ele>168.66666666666669</ele><time>2026-05-02T09:26:27.95Z</time></trkpt><trkpt lat="42.60784495060217" lon="12.500867697695805"><ele>168.83333333333334</ele><time>2026-05-02T09:26:28.95Z</time></trkpt><trkpt lat="42.607907113648764" lon="12.50079031011757"><ele>169.0</ele><time>2026-05-02T09:26:29.95Z</time></trkpt><trkpt lat="42.60797174084927" lon="12.50072562128992"><ele>169.14285714285714</ele><time>2026-05-02T09:26:30.95Z</time></trkpt><trkpt lat="42.608019607489375" lon="12.500665445185698"><ele>169.28571428571428</ele><time>2026-05-02T09:26:31.95Z</time></trkpt><trkpt lat="42.608077678580365" lon="12.500589964478177"><ele>169.42857142857144</ele><time>2026-05-02T09:26:33.95Z</time></trkpt><trkpt lat="42.60811144509176" lon="12.500516758114935"><ele>169.57142857142856</ele><time>2026-05-02T09:26:35.95Z</time></trkpt><trkpt lat="42.60808169614991" lon="12.500421131188622"><ele>169.7142857142857</ele><time>2026-05-02T09:26:37.95Z</time></trkpt><trkpt lat="42.60803714486036" lon="12.500348377229685"><ele>169.85714285714286</ele><time>2026-05-02T09:26:39.95Z</time></trkpt><trkpt lat="42.60797244037273" lon="12.500306575196927"><ele>170.0</ele><time>2026-05-02T09:26:41.95Z</time></trkpt><trkpt lat="42.607896710332525" lon="12.500271815228704"><ele>170.2</ele><time>2026-05-02T09:26:43.95Z</time></trkpt><trkpt lat="42.60784631862695" lon="12.500149224360854"><ele>170.4</ele><time>2026-05-02T09:26:45.95Z</time></trkpt><trkpt lat="42.60786784052525" lon="12.499991916966557"><ele>170.60000000000002</ele><time>2026-05-02T09:26:47.95Z</time></trkpt><trkpt lat="42.60787588227283" lon="12.499903126609729"><ele>170.8</ele><time>2026-05-02T09:26:48.95Z</time></trkpt><trkpt lat="42.60789841841496" lon="12.499729530383236"><ele>171.0</ele><time>2026-05-02T09:26:50.95Z</time></trkpt><trkpt lat="42.60792658798455" lon="12.499549949900485"><ele>171.66666666666666</ele><time>2026-05-02T09:26:52.95Z</time></trkpt><trkpt lat="42.60791998961721" lon="12.499442943548441"><ele>172.33333333333334</ele><time>2026-05-02T09:26:53.95Z</time></trkpt><trkpt lat="42.60791011720465" lon="12.499327826468924"><ele>173.0</ele><time>2026-05-02T09:26:54.95Z</time></trkpt><trkpt lat="42.607908981946686" lon="12.499215145153059"><ele>173.66666666666669</ele><time>2026-05-02T09:26:55.95Z</time></trkpt><trkpt lat="42.60791646572438" lon="12.499110907628129"><ele>174.33333333333334</ele><time>2026-05-02T09:26:56.95Z</time></trkpt><trkpt lat="42.60792758414279" lon="12.49901750596676"><ele>175.0</ele><time>2026-05-02T09:26:57.95Z</time></trkpt><trkpt lat="42.60795817164606" lon="12.49885004342656"><ele>175.0</ele><time>2026-05-02T09:26:59.95Z</time></trkpt><trkpt lat="42.60798706440173" lon="12.498764495152573"><ele>175.0</ele><time>2026-05-02T09:27:00.95Z</time></trkpt><trkpt lat="42.60801718583474" lon="12.498678879624196"><ele>175.0</ele><time>2026-05-02T09:27:01.95Z</time></trkpt><trkpt lat="42.6080428731601" lon="12.498590122263224"><ele>175.0</ele><time>2026-05-02T09:27:02.95Z</time></trkpt><trkpt lat="42.608071781842106" lon="12.49847839419136"><ele>175.0</ele><time>2026-05-02T09:27:03.95Z</time></trkpt><trkpt lat="42.608090508622375" lon="12.498371093257708"><ele>175.0</ele><time>2026-05-02T09:27:04.95Z</time></trkpt><trkpt lat="42.608111517093846" lon="12.498254170638221"><ele>175.0</ele><time>2026-05-02T09:27:05.95Z</time></trkpt><trkpt lat="42.608127923580554" lon="12.498139726892745"><ele>175.0</ele><time>2026-05-02T09:27:06.95Z</time></trkpt><trkpt lat="42.608147414005536" lon="12.49802253058792"><ele>175.0</ele><time>2026-05-02T09:27:07.95Z</time></trkpt><trkpt lat="42.608165953859334" lon="12.497908495974533"><ele>175.0</ele><time>2026-05-02T09:27:08.95Z</time></trkpt><trkpt lat="42.6081843778726" lon="12.497799139911464"><ele>175.0</ele><time>2026-05-02T09:27:09.95Z</time></trkpt><trkpt lat="42.6082191668859" lon="12.497714835251632"><ele>175.0</ele><time>2026-05-02T09:27:10.95Z</time></trkpt><trkpt lat="42.60827066223911" lon="12.497630837922209"><ele>175.33333333333334</ele><time>2026-05-02T09:27:11.95Z</time></trkpt><trkpt lat="42.60833968014998" lon="12.49757602770442"><ele>175.66666666666669</ele><time>2026-05-02T09:27:12.95Z</time></trkpt><trkpt lat="42.608418138403295" lon="12.497594436397026"><ele>176.0</ele><time>2026-05-02T09:27:13.95Z</time></trkpt><trkpt lat="42.608495648674094" lon="12.497658728657381"><ele>176.33333333333334</ele><time>2026-05-02T09:27:14.95Z</time></trkpt><trkpt lat="42.60856682762512" lon="12.49772674916596"><ele>176.66666666666666</ele><time>2026-05-02T09:27:15.95Z</time></trkpt><trkpt lat="42.60864013980044" lon="12.49772826199175"><ele>177.0</ele><time>2026-05-02T09:27:16.949Z</time></trkpt><trkpt lat="42.60870487045459" lon="12.497646451010988"><ele>178.8</ele><time>2026-05-02T09:27:17.949Z</time></trkpt><trkpt lat="42.60873192372951" lon="12.497528546071399"><ele>180.6</ele><time>2026-05-02T09:27:18.949Z</time></trkpt><trkpt lat="42.608746538905315" lon="12.497375872457818"><ele>182.4</ele><time>2026-05-02T09:27:19.949Z</time></trkpt><trkpt lat="42.60878790793151" lon="12.497266061366181"><ele>184.20000000000002</ele><time>2026-05-02T09:27:20.949Z</time></trkpt><trkpt lat="42.60884665060838" lon="12.49718532841187"><ele>186.0</ele><time>2026-05-02T09:27:21.949Z</time></trkpt><trkpt lat="42.60890939025407" lon="12.497118531169141"><ele>186.0</ele><time>2026-05-02T09:27:22.949Z</time></trkpt><trkpt lat="42.608976550721444" lon="12.497074441652147"><ele>186.0</ele><time>2026-05-02T09:27:23.948Z</time></trkpt><trkpt lat="42.60903824979045" lon="12.49704038515507"><ele>186.0</ele><time>2026-05-02T09:27:24.948Z</time></trkpt><trkpt lat="42.60913417585524" lon="12.497043345734065"><ele>186.0</ele><time>2026-05-02T09:27:26.949Z</time></trkpt><trkpt lat="42.609214396530156" lon="12.497080973239669"><ele>186.0</ele><time>2026-05-02T09:27:28.949Z</time></trkpt><trkpt lat="42.609283648827336" lon="12.497094185285095"><ele>186.0</ele><time>2026-05-02T09:27:31.949Z</time></trkpt><trkpt lat="42.60935855495631" lon="12.497129093609265"><ele>186.0</ele><time>2026-05-02T09:27:33.949Z</time></trkpt><trkpt lat="42.60941875574816" lon="12.497175714053663"><ele>186.0</ele><time>2026-05-02T09:27:34.949Z</time></trkpt><trkpt lat="42.60947991854584" lon="12.497238391873674"><ele>186.0</ele><time>2026-05-02T09:27:35.949Z</time></trkpt><trkpt lat="42.60954035488669" lon="12.497340626048217"><ele>186.0</ele><time>2026-05-02T09:27:36.949Z</time></trkpt><trkpt lat="42.60958204048207" lon="12.497474669307687"><ele>186.0</ele><time>2026-05-02T09:27:37.949Z</time></trkpt><trkpt lat="42.609617219895874" lon="12.497597014521379"><ele>186.0</ele><time>2026-05-02T09:27:38.949Z</time></trkpt><trkpt lat="42.60965797722618" lon="12.497720451304541"><ele>187.8</ele><time>2026-05-02T09:27:39.949Z</time></trkpt><trkpt lat="42.60971714537397" lon="12.497815841614084"><ele>189.60000000000002</ele><time>2026-05-02T09:27:40.949Z</time></trkpt><trkpt lat="42.60979997258525" lon="12.497873423580655"><ele>191.4</ele><time>2026-05-02T09:27:41.949Z</time></trkpt><trkpt lat="42.60989246255933" lon="12.497898498403236"><ele>193.2</ele><time>2026-05-02T09:27:42.949Z</time></trkpt><trkpt lat="42.609984100858874" lon="12.497893251381429"><ele>195.0</ele><time>2026-05-02T09:27:43.949Z</time></trkpt><trkpt lat="42.61008941740651" lon="12.497885310957308"><ele>195.0</ele><time>2026-05-02T09:27:44.949Z</time></trkpt><trkpt lat="42.610202704970874" lon="12.497866693002049"><ele>195.0</ele><time>2026-05-02T09:27:45.949Z</time></trkpt><trkpt lat="42.61032577345621" lon="12.497854490202121"><ele>195.0</ele><time>2026-05-02T09:27:46.949Z</time></trkpt><trkpt lat="42.61044592202415" lon="12.497846258894137"><ele>195.0</ele><time>2026-05-02T09:27:47.949Z</time></trkpt><trkpt lat="42.61055882916795" lon="12.497832476785396"><ele>196.2</ele><time>2026-05-02T09:27:48.949Z</time></trkpt><trkpt lat="42.610663163660625" lon="12.49782420400995"><ele>197.4</ele><time>2026-05-02T09:27:49.949Z</time></trkpt><trkpt lat="42.6107640383412" lon="12.49781685993839"><ele>198.60000000000002</ele><time>2026-05-02T09:27:50.949Z</time></trkpt><trkpt lat="42.610854154037334" lon="12.497839019155048"><ele>199.8</ele><time>2026-05-02T09:27:51.949Z</time></trkpt><trkpt lat="42.610948655616" lon="12.49782885461637"><ele>201.0</ele><time>2026-05-02T09:27:52.949Z</time></trkpt><trkpt lat="42.61104519812402" lon="12.497825607083378"><ele>201.0</ele><time>2026-05-02T09:27:53.949Z</time></trkpt><trkpt lat="42.61114535438861" lon="12.497835336916626"><ele>201.0</ele><time>2026-05-02T09:27:54.948Z</time></trkpt><trkpt lat="42.61125934422545" lon="12.497811652758065"><ele>201.0</ele><time>2026-05-02T09:27:55.948Z</time></trkpt><trkpt lat="42.611376013586046" lon="12.497763672598445"><ele>201.0</ele><time>2026-05-02T09:27:56.948Z</time></trkpt><trkpt lat="42.61148490251127" lon="12.497701765951126"><ele>203.75</ele><time>2026-05-02T09:27:57.948Z</time></trkpt><trkpt lat="42.61158861767905" lon="12.49762493289379"><ele>206.5</ele><time>2026-05-02T09:27:58.948Z</time></trkpt><trkpt lat="42.61170307203501" lon="12.49758704880919"><ele>209.25</ele><time>2026-05-02T09:27:59.948Z</time></trkpt><trkpt lat="42.61181889859386" lon="12.497513132004089"><ele>212.0</ele><time>2026-05-02T09:28:00.948Z</time></trkpt><trkpt lat="42.61194263830997" lon="12.497446029526957"><ele>214.6</ele><time>2026-05-02T09:28:01.948Z</time></trkpt><trkpt lat="42.612064591065646" lon="12.497403005789018"><ele>217.2</ele><time>2026-05-02T09:28:02.948Z</time></trkpt><trkpt lat="42.612175906571444" lon="12.497359570749186"><ele>219.8</ele><time>2026-05-02T09:28:03.948Z</time></trkpt><trkpt lat="42.61227114960484" lon="12.497334476829208"><ele>222.4</ele><time>2026-05-02T09:28:04.948Z</time></trkpt><trkpt lat="42.612365103648344" lon="12.497367624962576"><ele>225.0</ele><time>2026-05-02T09:28:05.948Z</time></trkpt><trkpt lat="42.61245858756089" lon="12.497436014750223"><ele>225.0</ele><time>2026-05-02T09:28:06.948Z</time></trkpt><trkpt lat="42.61257480767862" lon="12.497498431456366"><ele>225.0</ele><time>2026-05-02T09:28:07.948Z</time></trkpt><trkpt lat="42.61270231190082" lon="12.497552535698153"><ele>225.0</ele><time>2026-05-02T09:28:08.948Z</time></trkpt><trkpt lat="42.612819083133694" lon="12.497581209525654"><ele>225.0</ele><time>2026-05-02T09:28:09.948Z</time></trkpt><trkpt lat="42.612929755260964" lon="12.49764844114056"><ele>227.25</ele><time>2026-05-02T09:28:10.948Z</time></trkpt><trkpt lat="42.61305155600661" lon="12.497699365191275"><ele>229.5</ele><time>2026-05-02T09:28:11.948Z</time></trkpt><trkpt lat="42.61319579523214" lon="12.49775997986178"><ele>231.75</ele><time>2026-05-02T09:28:12.948Z</time></trkpt><trkpt lat="42.61331603395831" lon="12.49779281344756"><ele>234.0</ele><time>2026-05-02T09:28:13.948Z</time></trkpt><trkpt lat="42.61346517732995" lon="12.497817625195937"><ele>234.0</ele><time>2026-05-02T09:28:14.948Z</time></trkpt><trkpt lat="42.613621581216634" lon="12.49778092425862"><ele>233.99999999999997</ele><time>2026-05-02T09:28:15.948Z</time></trkpt><trkpt lat="42.613723913269475" lon="12.497764937009812"><ele>233.99999999999997</ele><time>2026-05-02T09:28:17.948Z</time></trkpt><trkpt lat="42.6138008475402" lon="12.497757528494235"><ele>234.0</ele><time>2026-05-02T09:28:18.948Z</time></trkpt><trkpt lat="42.61387195152618" lon="12.497783806682625"><ele>234.0</ele><time>2026-05-02T09:28:19.948Z</time></trkpt><trkpt lat="42.61390120278702" lon="12.497867802396485"><ele>236.83333333333334</ele><time>2026-05-02T09:28:20.948Z</time></trkpt><trkpt lat="42.613877262801935" lon="12.497960372456951"><ele>239.66666666666669</ele><time>2026-05-02T09:28:21.948Z</time></trkpt><trkpt lat="42.61376984225039" lon="12.498001036607098"><ele>242.5</ele><time>2026-05-02T09:28:22.948Z</time></trkpt><trkpt lat="42.61368944750672" lon="12.498066461196272"><ele>245.33333333333334</ele><time>2026-05-02T09:28:23.948Z</time></trkpt><trkpt lat="42.613613574105436" lon="12.498117876918599"><ele>248.16666666666669</ele><time>2026-05-02T09:28:24.948Z</time></trkpt><trkpt lat="42.613536130065484" lon="12.49816688296601"><ele>251.0</ele><time>2026-05-02T09:28:25.948Z</time></trkpt><trkpt lat="42.613442319267925" lon="12.498224315255708"><ele>251.00000000000003</ele><time>2026-05-02T09:28:26.948Z</time></trkpt><trkpt lat="42.613351308625276" lon="12.498277339501977"><ele>251.0</ele><time>2026-05-02T09:28:27.948Z</time></trkpt><trkpt lat="42.61326796180478" lon="12.49832338014122"><ele>251.0</ele><time>2026-05-02T09:28:28.948Z</time></trkpt><trkpt lat="42.61318781685773" lon="12.49837420233492"><ele>251.0</ele><time>2026-05-02T09:28:29.948Z</time></trkpt><trkpt lat="42.61313583838817" lon="12.498463013008841"><ele>251.00000000000003</ele><time>2026-05-02T09:28:30.948Z</time></trkpt><trkpt lat="42.61309889821534" lon="12.498551326632846"><ele>251.0</ele><time>2026-05-02T09:28:31.948Z</time></trkpt><trkpt lat="42.61309064253588" lon="12.498665541241955"><ele>253.66666666666669</ele><time>2026-05-02T09:28:32.948Z</time></trkpt><trkpt lat="42.61309015505466" lon="12.498777214998354"><ele>256.33333333333337</ele><time>2026-05-02T09:28:33.948Z</time></trkpt><trkpt lat="42.61308680871291" lon="12.498889523877649"><ele>259.0</ele><time>2026-05-02T09:28:34.948Z</time></trkpt><trkpt lat="42.61308575710772" lon="12.498993420277124"><ele>261.6666666666667</ele><time>2026-05-02T09:28:35.948Z</time></trkpt><trkpt lat="42.61308599838138" lon="12.499109265100222"><ele>264.3333333333333</ele><time>2026-05-02T09:28:36.948Z</time></trkpt><trkpt lat="42.61308323938807" lon="12.499233320647384"><ele>267.0</ele><time>2026-05-02T09:28:37.948Z</time></trkpt><trkpt lat="42.6130857816547" lon="12.49936183417886"><ele>267.0</ele><time>2026-05-02T09:28:38.948Z</time></trkpt><trkpt lat="42.613099485148325" lon="12.499512876454324"><ele>267.0</ele><time>2026-05-02T09:28:39.948Z</time></trkpt><trkpt lat="42.61312386896797" lon="12.499650019153195"><ele>267.0</ele><time>2026-05-02T09:28:40.948Z</time></trkpt><trkpt lat="42.61316027796648" lon="12.499787376980407"><ele>267.0</ele><time>2026-05-02T09:28:41.948Z</time></trkpt><trkpt lat="42.613174055577325" lon="12.499929215761046"><ele>267.0</ele><time>2026-05-02T09:28:42.948Z</time></trkpt><trkpt lat="42.61322200963412" lon="12.500054051586723"><ele>267.6</ele><time>2026-05-02T09:28:43.948Z</time></trkpt><trkpt lat="42.61325442874658" lon="12.50016515825488"><ele>268.2</ele><time>2026-05-02T09:28:44.948Z</time></trkpt><trkpt lat="42.613331099288374" lon="12.500288726980324"><ele>268.8</ele><time>2026-05-02T09:28:46.948Z</time></trkpt><trkpt lat="42.613423801542844" lon="12.500272497372583"><ele>269.4</ele><time>2026-05-02T09:28:47.948Z</time></trkpt><trkpt lat="42.6135048523453" lon="12.500189743538305"><ele>270.0</ele><time>2026-05-02T09:28:48.948Z</time></trkpt><trkpt lat="42.61357466357825" lon="12.500113576106088"><ele>270.0</ele><time>2026-05-02T09:28:49.948Z</time></trkpt><trkpt lat="42.613644539332086" lon="12.500033069556498"><ele>270.0</ele><time>2026-05-02T09:28:50.948Z</time></trkpt><trkpt lat="42.61371817827954" lon="12.499965757173985"><ele>270.0</ele><time>2026-05-02T09:28:51.948Z</time></trkpt><trkpt lat="42.613791684237974" lon="12.499895218935198"><ele>270.0</ele><time>2026-05-02T09:28:52.948Z</time></trkpt><trkpt lat="42.613878395443805" lon="12.499829853365863"><ele>270.0</ele><time>2026-05-02T09:28:53.948Z</time></trkpt><trkpt lat="42.61397057650883" lon="12.499798719713635"><ele>273.4</ele><time>2026-05-02T09:28:54.948Z</time></trkpt><trkpt lat="42.61407106732809" lon="12.499792508818192"><ele>276.8</ele><time>2026-05-02T09:28:55.948Z</time></trkpt><trkpt lat="42.61415700006222" lon="12.499863346634186"><ele>280.2</ele><time>2026-05-02T09:28:56.948Z</time></trkpt><trkpt lat="42.61424611436887" lon="12.499949151417832"><ele>283.6</ele><time>2026-05-02T09:28:57.948Z</time></trkpt><trkpt lat="42.614343057231835" lon="12.500026927629728"><ele>287.0</ele><time>2026-05-02T09:28:58.948Z</time></trkpt><trkpt lat="42.61442253280585" lon="12.500121350070144"><ele>288.8</ele><time>2026-05-02T09:28:59.948Z</time></trkpt><trkpt lat="42.61449118262118" lon="12.500207062864922"><ele>290.6</ele><time>2026-05-02T09:29:00.948Z</time></trkpt><trkpt lat="42.614549722832265" lon="12.50026790983157"><ele>292.40000000000003</ele><time>2026-05-02T09:29:01.948Z</time></trkpt><trkpt lat="42.61464414181209" lon="12.500339967123082"><ele>294.2</ele><time>2026-05-02T09:29:03.948Z</time></trkpt><trkpt lat="42.61476484489544" lon="12.500306214078105"><ele>296.0</ele><time>2026-05-02T09:29:05.948Z</time></trkpt><trkpt lat="42.61479884032712" lon="12.500183372462265"><ele>296.0</ele><time>2026-05-02T09:29:06.948Z</time></trkpt><trkpt lat="42.614850718159246" lon="12.5001027109642"><ele>296.0</ele><time>2026-05-02T09:29:07.948Z</time></trkpt><trkpt lat="42.61492307089193" lon="12.500094343273782"><ele>296.0</ele><time>2026-05-02T09:29:08.948Z</time></trkpt><trkpt lat="42.61500631175854" lon="12.500076388509504"><ele>296.0</ele><time>2026-05-02T09:29:09.948Z</time></trkpt><trkpt lat="42.6150909335283" lon="12.500052932014778"><ele>296.0</ele><time>2026-05-02T09:29:10.948Z</time></trkpt><trkpt lat="42.61515385548218" lon="12.50003413722946"><ele>296.0</ele><time>2026-05-02T09:29:11.947Z</time></trkpt><trkpt lat="42.6152222741068" lon="12.500016347995142"><ele>296.0</ele><time>2026-05-02T09:29:12.947Z</time></trkpt><trkpt lat="42.615301102556096" lon="12.49998672022006"><ele>296.0</ele><time>2026-05-02T09:29:13.947Z</time></trkpt><trkpt lat="42.61538320949165" lon="12.499935451185253"><ele>296.0</ele><time>2026-05-02T09:29:14.947Z</time></trkpt><trkpt lat="42.615483111342755" lon="12.49983619274705"><ele>296.0</ele><time>2026-05-02T09:29:15.947Z</time></trkpt><trkpt lat="42.6155765183472" lon="12.499734820266351"><ele>296.0</ele><time>2026-05-02T09:29:16.947Z</time></trkpt><trkpt lat="42.615662762114354" lon="12.499612708515382"><ele>297.0</ele><time>2026-05-02T09:29:17.947Z</time></trkpt><trkpt lat="42.61572872909638" lon="12.499479860183774"><ele>298.0</ele><time>2026-05-02T09:29:18.947Z</time></trkpt><trkpt lat="42.61581165847739" lon="12.499381625534305"><ele>299.0</ele><time>2026-05-02T09:29:19.947Z</time></trkpt><trkpt lat="42.61587984569757" lon="12.499256401570674"><ele>300.0</ele><time>2026-05-02T09:29:20.947Z</time></trkpt><trkpt lat="42.61594246030146" lon="12.49912604848902"><ele>300.0</ele><time>2026-05-02T09:29:21.947Z</time></trkpt><trkpt lat="42.616003853345134" lon="12.499002559651048"><ele>300.0</ele><time>2026-05-02T09:29:22.946Z</time></trkpt><trkpt lat="42.61605681925578" lon="12.498873291575471"><ele>300.0</ele><time>2026-05-02T09:29:23.947Z</time></trkpt><trkpt lat="42.61611149606847" lon="12.498736823158707"><ele>300.0</ele><time>2026-05-02T09:29:24.947Z</time></trkpt><trkpt lat="42.6161572875151" lon="12.498607018105579"><ele>300.0</ele><time>2026-05-02T09:29:25.947Z</time></trkpt><trkpt lat="42.616201770245375" lon="12.498475129143936"><ele>301.75</ele><time>2026-05-02T09:29:26.947Z</time></trkpt><trkpt lat="42.61624716457975" lon="12.498340335586638"><ele>303.5</ele><time>2026-05-02T09:29:27.947Z</time></trkpt><trkpt lat="42.6162851171481" lon="12.498205358626015"><ele>305.25</ele><time>2026-05-02T09:29:28.947Z</time></trkpt><trkpt lat="42.61632592010637" lon="12.498050266679575"><ele>307.0</ele><time>2026-05-02T09:29:29.946Z</time></trkpt><trkpt lat="42.61631008438621" lon="12.49787230577702"><ele>308.25</ele><time>2026-05-02T09:29:30.946Z</time></trkpt><trkpt lat="42.61630088835673" lon="12.497689550574776"><ele>309.5</ele><time>2026-05-02T09:29:31.946Z</time></trkpt><trkpt lat="42.61627255826534" lon="12.49751674142057"><ele>310.75</ele><time>2026-05-02T09:29:32.946Z</time></trkpt><trkpt lat="42.61626801397321" lon="12.49733190955086"><ele>312.0</ele><time>2026-05-02T09:29:33.946Z</time></trkpt><trkpt lat="42.61627215533931" lon="12.497162448829867"><ele>312.2</ele><time>2026-05-02T09:29:34.947Z</time></trkpt><trkpt lat="42.61628880364298" lon="12.497028493819613"><ele>312.4</ele><time>2026-05-02T09:29:35.947Z</time></trkpt><trkpt lat="42.616309964529265" lon="12.496895191312229"><ele>312.6</ele><time>2026-05-02T09:29:36.947Z</time></trkpt><trkpt lat="42.61634021420774" lon="12.496792653903679"><ele>312.8</ele><time>2026-05-02T09:29:37.947Z</time></trkpt><trkpt lat="42.616413512558005" lon="12.496689832228276"><ele>313.0</ele><time>2026-05-02T09:29:39.947Z</time></trkpt><trkpt lat="42.61649939145402" lon="12.49669989942551"><ele>313.0</ele><time>2026-05-02T09:29:41.947Z</time></trkpt><trkpt lat="42.616512956318935" lon="12.496887310382029"><ele>313.0</ele><time>2026-05-02T09:29:43.946Z</time></trkpt><trkpt lat="42.61649983017677" lon="12.497010449872299"><ele>313.0</ele><time>2026-05-02T09:29:44.946Z</time></trkpt><trkpt lat="42.61649594589882" lon="12.49713787522269"><ele>313.0</ele><time>2026-05-02T09:29:45.946Z</time></trkpt><trkpt lat="42.61649284909452" lon="12.49724819500663"><ele>313.0</ele><time>2026-05-02T09:29:46.946Z</time></trkpt><trkpt lat="42.616473216103635" lon="12.49733140422585"><ele>312.8</ele><time>2026-05-02T09:29:47.946Z</time></trkpt><trkpt lat="42.616486190023146" lon="12.497416275519699"><ele>312.6</ele><time>2026-05-02T09:29:48.946Z</time></trkpt><trkpt lat="42.61654287278066" lon="12.497485459910141"><ele>312.4</ele><time>2026-05-02T09:29:49.946Z</time></trkpt><trkpt lat="42.61667064659192" lon="12.497513331923138"><ele>312.2</ele><time>2026-05-02T09:29:51.946Z</time></trkpt><trkpt lat="42.61674282237597" lon="12.497452132367037"><ele>312.0</ele><time>2026-05-02T09:29:52.946Z</time></trkpt><trkpt lat="42.616779272281846" lon="12.497319240383272"><ele>312.0</ele><time>2026-05-02T09:29:53.946Z</time></trkpt><trkpt lat="42.616791606713065" lon="12.497179796311082"><ele>312.0</ele><time>2026-05-02T09:29:54.946Z</time></trkpt><trkpt lat="42.61682372686922" lon="12.497050109589907"><ele>312.0</ele><time>2026-05-02T09:29:55.946Z</time></trkpt><trkpt lat="42.616876622897756" lon="12.496926909044248"><ele>312.0</ele><time>2026-05-02T09:29:56.946Z</time></trkpt><trkpt lat="42.616958776704706" lon="12.496822584129706"><ele>312.0</ele><time>2026-05-02T09:29:57.946Z</time></trkpt><trkpt lat="42.61702919237604" lon="12.496698931943095"><ele>314.8</ele><time>2026-05-02T09:29:58.946Z</time></trkpt><trkpt lat="42.617093123151925" lon="12.496570639636584"><ele>317.6</ele><time>2026-05-02T09:29:59.946Z</time></trkpt><trkpt lat="42.617157401084235" lon="12.496446810231257"><ele>320.40000000000003</ele><time>2026-05-02T09:30:00.946Z</time></trkpt><trkpt lat="42.617229217313515" lon="12.496337756552178"><ele>323.2</ele><time>2026-05-02T09:30:01.946Z</time></trkpt><trkpt lat="42.61730892018993" lon="12.496224231362119"><ele>326.0</ele><time>2026-05-02T09:30:02.946Z</time></trkpt><trkpt lat="42.61738577662039" lon="12.496115490906648"><ele>328.4</ele><time>2026-05-02T09:30:03.946Z</time></trkpt><trkpt lat="42.617462275047934" lon="12.49600500458066"><ele>330.8</ele><time>2026-05-02T09:30:04.946Z</time></trkpt><trkpt lat="42.61753723348248" lon="12.495895961312124"><ele>333.2</ele><time>2026-05-02T09:30:05.946Z</time></trkpt><trkpt lat="42.61761056636332" lon="12.49579439352936"><ele>335.59999999999997</ele><time>2026-05-02T09:30:06.946Z</time></trkpt><trkpt lat="42.61768480005675" lon="12.495702702359779"><ele>338.0</ele><time>2026-05-02T09:30:07.946Z</time></trkpt><trkpt lat="42.61776105522054" lon="12.495612116503194"><ele>337.33333333333337</ele><time>2026-05-02T09:30:08.946Z</time></trkpt><trkpt lat="42.61782500630777" lon="12.49551111772474"><ele>336.6666666666667</ele><time>2026-05-02T09:30:09.946Z</time></trkpt><trkpt lat="42.61790431872888" lon="12.495441770777758"><ele>336.0</ele><time>2026-05-02T09:30:10.946Z</time></trkpt><trkpt lat="42.61797378882797" lon="12.49536602425261"><ele>335.3333333333333</ele><time>2026-05-02T09:30:11.946Z</time></trkpt><trkpt lat="42.61803195491448" lon="12.495288675161426"><ele>334.66666666666663</ele><time>2026-05-02T09:30:12.946Z</time></trkpt><trkpt lat="42.61808974642199" lon="12.495213600168732"><ele>334.0</ele><time>2026-05-02T09:30:13.946Z</time></trkpt><trkpt lat="42.618147899677105" lon="12.495137738870827"><ele>337.0</ele><time>2026-05-02T09:30:14.946Z</time></trkpt><trkpt lat="42.61821857516527" lon="12.495078437659451"><ele>340.0</ele><time>2026-05-02T09:30:15.946Z</time></trkpt><trkpt lat="42.61830651365496" lon="12.495011614943659"><ele>343.0</ele><time>2026-05-02T09:30:16.946Z</time></trkpt><trkpt lat="42.618378202631924" lon="12.494932897244794"><ele>346.0</ele><time>2026-05-02T09:30:17.946Z</time></trkpt><trkpt lat="42.61847131006257" lon="12.494837748069672"><ele>349.0</ele><time>2026-05-02T09:30:18.946Z</time></trkpt><trkpt lat="42.61855369252714" lon="12.49476061544557"><ele>348.25</ele><time>2026-05-02T09:30:19.946Z</time></trkpt><trkpt lat="42.61865879340005" lon="12.494706732217127"><ele>347.5</ele><time>2026-05-02T09:30:20.946Z</time></trkpt><trkpt lat="42.61875111894345" lon="12.49463787147483"><ele>346.75</ele><time>2026-05-02T09:30:21.946Z</time></trkpt><trkpt lat="42.618834793136536" lon="12.494501311504187"><ele>346.0</ele><time>2026-05-02T09:30:22.946Z</time></trkpt><trkpt lat="42.61891601264272" lon="12.494369321600427"><ele>346.0</ele><time>2026-05-02T09:30:23.946Z</time></trkpt><trkpt lat="42.61899815010317" lon="12.494262771871272"><ele>346.0</ele><time>2026-05-02T09:30:24.946Z</time></trkpt><trkpt lat="42.619065899883054" lon="12.494187727448045"><ele>346.0</ele><time>2026-05-02T09:30:25.946Z</time></trkpt><trkpt lat="42.619135099086726" lon="12.494138663863188"><ele>346.0</ele><time>2026-05-02T09:30:26.946Z</time></trkpt><trkpt lat="42.619185270494434" lon="12.494082548782902"><ele>346.0</ele><time>2026-05-02T09:30:27.946Z</time></trkpt><trkpt lat="42.619266193707574" lon="12.494044781184787"><ele>346.0</ele><time>2026-05-02T09:30:30.946Z</time></trkpt><trkpt lat="42.619364169389314" lon="12.49400152434253"><ele>346.0</ele><time>2026-05-02T09:30:33.946Z</time></trkpt><trkpt lat="42.61947498569803" lon="12.493989176773125"><ele>346.0</ele><time>2026-05-02T09:30:35.946Z</time></trkpt><trkpt lat="42.619589277173745" lon="12.493964869939656"><ele>346.0</ele><time>2026-05-02T09:30:37.946Z</time></trkpt><trkpt lat="42.61971055900173" lon="12.493936725767758"><ele>346.0</ele><time>2026-05-02T09:30:39.946Z</time></trkpt><trkpt lat="42.619794672416" lon="12.49394404602187"><ele>346.0</ele><time>2026-05-02T09:30:40.946Z</time></trkpt><trkpt lat="42.61988382728125" lon="12.493924231352034"><ele>345.8</ele><time>2026-05-02T09:30:41.946Z</time></trkpt><trkpt lat="42.6199743237073" lon="12.493899181295323"><ele>345.6</ele><time>2026-05-02T09:30:42.946Z</time></trkpt><trkpt lat="42.620081802653374" lon="12.493876215139009"><ele>345.4</ele><time>2026-05-02T09:30:43.946Z</time></trkpt><trkpt lat="42.62019159918709" lon="12.49384580389886"><ele>345.2</ele><time>2026-05-02T09:30:44.946Z</time></trkpt><trkpt lat="42.62030137926975" lon="12.49381702780776"><ele>345.0</ele><time>2026-05-02T09:30:45.946Z</time></trkpt><trkpt lat="42.62041438317998" lon="12.493801542896039"><ele>346.5</ele><time>2026-05-02T09:30:46.946Z</time></trkpt><trkpt lat="42.620505716775355" lon="12.493794252210472"><ele>348.0</ele><time>2026-05-02T09:30:47.946Z</time></trkpt><trkpt lat="42.62058333941078" lon="12.493798704411407"><ele>349.5</ele><time>2026-05-02T09:30:48.946Z</time></trkpt><trkpt lat="42.62065740908798" lon="12.493817068851824"><ele>351.0</ele><time>2026-05-02T09:30:49.946Z</time></trkpt><trkpt lat="42.620729624338445" lon="12.493847839216627"><ele>352.5</ele><time>2026-05-02T09:30:50.946Z</time></trkpt><trkpt lat="42.620824284414574" lon="12.493884380119052"><ele>354.0</ele><time>2026-05-02T09:30:51.946Z</time></trkpt><trkpt lat="42.620910634443945" lon="12.493932242068471"><ele>354.0</ele><time>2026-05-02T09:30:52.946Z</time></trkpt><trkpt lat="42.62100585761484" lon="12.493980493379313"><ele>354.0</ele><time>2026-05-02T09:30:53.946Z</time></trkpt><trkpt lat="42.62110068968111" lon="12.494022078306575"><ele>354.0</ele><time>2026-05-02T09:30:54.946Z</time></trkpt><trkpt lat="42.62119404004413" lon="12.494071400262262"><ele>354.0</ele><time>2026-05-02T09:30:55.946Z</time></trkpt><trkpt lat="42.621300098969584" lon="12.49412443418085"><ele>354.0</ele><time>2026-05-02T09:30:56.946Z</time></trkpt><trkpt lat="42.62139973875162" lon="12.494166822102512"><ele>356.5</ele><time>2026-05-02T09:30:57.946Z</time></trkpt><trkpt lat="42.62149787724156" lon="12.494206135878208"><ele>359.0</ele><time>2026-05-02T09:30:58.946Z</time></trkpt><trkpt lat="42.62161276498369" lon="12.49423856138233"><ele>361.5</ele><time>2026-05-02T09:30:59.946Z</time></trkpt><trkpt lat="42.62172605856827" lon="12.494261459244969"><ele>364.0</ele><time>2026-05-02T09:31:00.946Z</time></trkpt><trkpt lat="42.621847944658874" lon="12.494288910652386"><ele>364.0</ele><time>2026-05-02T09:31:01.946Z</time></trkpt><trkpt lat="42.621976643263764" lon="12.494319692763527"><ele>364.0</ele><time>2026-05-02T09:31:02.946Z</time></trkpt><trkpt lat="42.622106064811554" lon="12.494348567585801"><ele>364.0</ele><time>2026-05-02T09:31:03.946Z</time></trkpt><trkpt lat="42.6222201472554" lon="12.494332233586407"><ele>364.0</ele><time>2026-05-02T09:31:04.945Z</time></trkpt><trkpt lat="42.62234726330433" lon="12.49432960246601"><ele>365.4</ele><time>2026-05-02T09:31:05.945Z</time></trkpt><trkpt lat="42.622469601356386" lon="12.494311423657704"><ele>366.79999999999995</ele><time>2026-05-02T09:31:06.945Z</time></trkpt><trkpt lat="42.62257026031845" lon="12.494294074608925"><ele>368.20000000000005</ele><time>2026-05-02T09:31:07.945Z</time></trkpt><trkpt lat="42.62267661576062" lon="12.494280018476239"><ele>369.6</ele><time>2026-05-02T09:31:08.945Z</time></trkpt><trkpt lat="42.62276432489348" lon="12.494207220494582"><ele>371.0</ele><time>2026-05-02T09:31:09.945Z</time></trkpt><trkpt lat="42.622842858378014" lon="12.494158353999882"><ele>371.8</ele><time>2026-05-02T09:31:10.945Z</time></trkpt><trkpt lat="42.6229058714919" lon="12.494097805695832"><ele>372.6</ele><time>2026-05-02T09:31:11.945Z</time></trkpt><trkpt lat="42.622952296085685" lon="12.49402486039243"><ele>373.4</ele><time>2026-05-02T09:31:12.945Z</time></trkpt><trkpt lat="42.623014967168544" lon="12.49389076049457"><ele>374.2</ele><time>2026-05-02T09:31:14.945Z</time></trkpt><trkpt lat="42.62306513781922" lon="12.493786461986934"><ele>375.0</ele><time>2026-05-02T09:31:16.945Z</time></trkpt><trkpt lat="42.62342500336272" lon="12.493932306799003"><ele>375.0</ele><time>2026-05-02T09:31:17.945Z</time></trkpt><trkpt lat="42.62351630477785" lon="12.493895848906002"><ele>375.0</ele><time>2026-05-02T09:31:18.945Z</time></trkpt><trkpt lat="42.62361081628602" lon="12.493857372337702"><ele>375.0</ele><time>2026-05-02T09:31:19.945Z</time></trkpt><trkpt lat="42.6236952843214" lon="12.493814906091607"><ele>375.0</ele><time>2026-05-02T09:31:20.945Z</time></trkpt><trkpt lat="42.62379362476462" lon="12.493778081211103"><ele>375.0</ele><time>2026-05-02T09:31:21.945Z</time></trkpt><trkpt lat="42.6238904197831" lon="12.493743517238368"><ele>377.6666666666667</ele><time>2026-05-02T09:31:22.945Z</time></trkpt><trkpt lat="42.623978503818556" lon="12.493724841790646"><ele>380.33333333333337</ele><time>2026-05-02T09:31:23.945Z</time></trkpt><trkpt lat="42.624064634256364" lon="12.493728927551002"><ele>383.0</ele><time>2026-05-02T09:31:24.945Z</time></trkpt><trkpt lat="42.62415810171106" lon="12.49374120401871"><ele>385.6666666666667</ele><time>2026-05-02T09:31:25.945Z</time></trkpt><trkpt lat="42.62424843279954" lon="12.49374227424279"><ele>388.33333333333337</ele><time>2026-05-02T09:31:26.945Z</time></trkpt><trkpt lat="42.62433555916786" lon="12.493732208736114"><ele>391.0</ele><time>2026-05-02T09:31:27.945Z</time></trkpt><trkpt lat="42.624416322519146" lon="12.493728136790546"><ele>391.6666666666667</ele><time>2026-05-02T09:31:28.944Z</time></trkpt><trkpt lat="42.6244809861948" lon="12.493722361003506"><ele>392.33333333333337</ele><time>2026-05-02T09:31:29.945Z</time></trkpt><trkpt lat="42.624555971533994" lon="12.493689512007853"><ele>393.0</ele><time>2026-05-02T09:31:30.945Z</time></trkpt><trkpt lat="42.62462980403288" lon="12.493632629972916"><ele>393.66666666666663</ele><time>2026-05-02T09:31:31.945Z</time></trkpt><trkpt lat="42.62471786688837" lon="12.493560547241172"><ele>394.3333333333333</ele><time>2026-05-02T09:31:32.945Z</time></trkpt><trkpt lat="42.62480575123823" lon="12.493502855704216"><ele>395.0</ele><time>2026-05-02T09:31:33.945Z</time></trkpt><trkpt lat="42.6248779787974" lon="12.493406795644201"><ele>395.0</ele><time>2026-05-02T09:31:34.945Z</time></trkpt><trkpt lat="42.62494293027231" lon="12.493338454026624"><ele>395.0</ele><time>2026-05-02T09:31:35.944Z</time></trkpt><trkpt lat="42.624830117426264" lon="12.493446478448764"><ele>395.0</ele><time>2026-05-02T09:31:37.944Z</time></trkpt><trkpt lat="42.62489002936785" lon="12.493358458579392"><ele>395.0</ele><time>2026-05-02T09:41:26.936Z</time></trkpt><trkpt lat="42.62495789180723" lon="12.493288390399508"><ele>395.0</ele><time>2026-05-02T09:41:28.936Z</time></trkpt><trkpt lat="42.6250060150863" lon="12.493203436881608"><ele>395.0</ele><time>2026-05-02T09:41:30.936Z</time></trkpt><trkpt lat="42.62505116684102" lon="12.493105265864507"><ele>395.0</ele><time>2026-05-02T09:41:32.936Z</time></trkpt><trkpt lat="42.625112209733125" lon="12.492993421838445"><ele>395.0</ele><time>2026-05-02T09:41:34.936Z</time></trkpt><trkpt lat="42.62517452642045" lon="12.492866497073553"><ele>395.0</ele><time>2026-05-02T09:41:36.936Z</time></trkpt><trkpt lat="42.625247223406845" lon="12.492756848861784"><ele>395.0</ele><time>2026-05-02T09:41:38.936Z</time></trkpt><trkpt lat="42.625289910954635" lon="12.492678941893601"><ele>395.2</ele><time>2026-05-02T09:41:39.936Z</time></trkpt><trkpt lat="42.625363208218914" lon="12.492544872956183"><ele>395.4</ele><time>2026-05-02T09:41:41.936Z</time></trkpt><trkpt lat="42.62539962462206" lon="12.492471418597397"><ele>395.6</ele><time>2026-05-02T09:41:42.936Z</time></trkpt><trkpt lat="42.625476720818945" lon="12.492349693128482"><ele>395.8</ele><time>2026-05-02T09:41:44.935Z</time></trkpt><trkpt lat="42.625538090184115" lon="12.492222571979426"><ele>396.0</ele><time>2026-05-02T09:41:46.935Z</time></trkpt><trkpt lat="42.62558395202886" lon="12.492147583424844"><ele>395.6</ele><time>2026-05-02T09:41:47.935Z</time></trkpt><trkpt lat="42.6256259559795" lon="12.492074078684285"><ele>395.20000000000005</ele><time>2026-05-02T09:41:48.935Z</time></trkpt><trkpt lat="42.62571282004892" lon="12.49196761361667"><ele>394.79999999999995</ele><time>2026-05-02T09:41:50.935Z</time></trkpt><trkpt lat="42.62578947377797" lon="12.491881600553837"><ele>394.4</ele><time>2026-05-02T09:41:52.935Z</time></trkpt><trkpt lat="42.625876622808704" lon="12.491803543852292"><ele>394.0</ele><time>2026-05-02T09:41:54.935Z</time></trkpt><trkpt lat="42.625967128419035" lon="12.491717480257174"><ele>394.00000000000006</ele><time>2026-05-02T09:41:56.935Z</time></trkpt><trkpt lat="42.62606552780691" lon="12.491617163986978"><ele>394.0</ele><time>2026-05-02T09:41:58.935Z</time></trkpt><trkpt lat="42.626128275822" lon="12.491560297763735"><ele>394.0</ele><time>2026-05-02T09:41:59.934Z</time></trkpt><trkpt lat="42.62619204286946" lon="12.491518740233724"><ele>394.0</ele><time>2026-05-02T09:42:00.935Z</time></trkpt><trkpt lat="42.62625371655949" lon="12.491478957352914"><ele>394.00000000000006</ele><time>2026-05-02T09:42:01.935Z</time></trkpt><trkpt lat="42.626318576976004" lon="12.491423145979605"><ele>394.0</ele><time>2026-05-02T09:42:02.934Z</time></trkpt><trkpt lat="42.626394937779835" lon="12.491369688148954"><ele>393.6666666666667</ele><time>2026-05-02T09:42:03.934Z</time></trkpt><trkpt lat="42.62645937182367" lon="12.491330063008325"><ele>393.33333333333337</ele><time>2026-05-02T09:42:04.934Z</time></trkpt><trkpt lat="42.626524052600416" lon="12.491285783554098"><ele>393.0</ele><time>2026-05-02T09:42:05.935Z</time></trkpt><trkpt lat="42.626628986514554" lon="12.4912107749531"><ele>392.66666666666663</ele><time>2026-05-02T09:42:07.935Z</time></trkpt><trkpt lat="42.62668795700297" lon="12.491167375160732"><ele>392.3333333333333</ele><time>2026-05-02T09:42:08.934Z</time></trkpt><trkpt lat="42.626744203372205" lon="12.49112300670796"><ele>392.0</ele><time>2026-05-02T09:42:09.934Z</time></trkpt><trkpt lat="42.626848145365" lon="12.491060331695508"><ele>391.49999999999994</ele><time>2026-05-02T09:42:11.934Z</time></trkpt><trkpt lat="42.62695630604155" lon="12.491009780398123"><ele>391.0</ele><time>2026-05-02T09:42:13.934Z</time></trkpt><trkpt lat="42.62701894918984" lon="12.490976456297412"><ele>390.5</ele><time>2026-05-02T09:42:14.934Z</time></trkpt><trkpt lat="42.62708310483646" lon="12.490941473413928"><ele>390.0</ele><time>2026-05-02T09:42:15.934Z</time></trkpt><trkpt lat="42.62714194755719" lon="12.490902825067923"><ele>389.49999999999994</ele><time>2026-05-02T09:42:16.934Z</time></trkpt><trkpt lat="42.62721456367549" lon="12.490849870693065"><ele>389.0</ele><time>2026-05-02T09:42:17.934Z</time></trkpt><trkpt lat="42.627275010871216" lon="12.4908023403103"><ele>388.66666666666663</ele><time>2026-05-02T09:42:18.934Z</time></trkpt><trkpt lat="42.62732852999264" lon="12.49074545061828"><ele>388.3333333333333</ele><time>2026-05-02T09:42:19.934Z</time></trkpt><trkpt lat="42.627399840696505" lon="12.490655447135909"><ele>388.0</ele><time>2026-05-02T09:42:21.934Z</time></trkpt><trkpt lat="42.627494434398116" lon="12.490619616060103"><ele>387.66666666666663</ele><time>2026-05-02T09:42:23.934Z</time></trkpt><trkpt lat="42.62758989539517" lon="12.4906821586106"><ele>387.3333333333333</ele><time>2026-05-02T09:42:25.934Z</time></trkpt><trkpt lat="42.627647138033964" lon="12.490734157789895"><ele>387.0</ele><time>2026-05-02T09:42:26.934Z</time></trkpt><trkpt lat="42.62772130830951" lon="12.490787053840538"><ele>387.0</ele><time>2026-05-02T09:42:27.934Z</time></trkpt><trkpt lat="42.62779415406144" lon="12.490834675141212"><ele>387.0</ele><time>2026-05-02T09:42:28.934Z</time></trkpt><trkpt lat="42.6278768211062" lon="12.490869418166723"><ele>387.0</ele><time>2026-05-02T09:42:29.934Z</time></trkpt><trkpt lat="42.62794138212554" lon="12.490900690301418"><ele>387.0</ele><time>2026-05-02T09:42:30.934Z</time></trkpt><trkpt lat="42.62800339227774" lon="12.49093464466543"><ele>387.0</ele><time>2026-05-02T09:42:31.934Z</time></trkpt><trkpt lat="42.62806769522435" lon="12.490962421089076"><ele>387.0</ele><time>2026-05-02T09:42:32.934Z</time></trkpt><trkpt lat="42.628194577750946" lon="12.49103240499606"><ele>386.1666666666667</ele><time>2026-05-02T09:42:34.934Z</time></trkpt><trkpt lat="42.628275240835706" lon="12.491064020431175"><ele>385.3333333333333</ele><time>2026-05-02T09:42:35.934Z</time></trkpt><trkpt lat="42.62834117815547" lon="12.491104318060737"><ele>384.5</ele><time>2026-05-02T09:42:36.934Z</time></trkpt><trkpt lat="42.62841618236783" lon="12.491171208616432"><ele>383.66666666666663</ele><time>2026-05-02T09:42:37.934Z</time></trkpt><trkpt lat="42.628488256689366" lon="12.491219066006641"><ele>382.8333333333333</ele><time>2026-05-02T09:42:38.933Z</time></trkpt><trkpt lat="42.62856016301714" lon="12.49125487904033"><ele>382.0</ele><time>2026-05-02T09:42:39.933Z</time></trkpt><trkpt lat="42.628628885960914" lon="12.491283866131118"><ele>381.66666666666663</ele><time>2026-05-02T09:42:40.933Z</time></trkpt><trkpt lat="42.62870109418998" lon="12.491301860292062"><ele>381.3333333333333</ele><time>2026-05-02T09:42:41.933Z</time></trkpt><trkpt lat="42.62877348382604" lon="12.49130929012424"><ele>381.0</ele><time>2026-05-02T09:42:42.933Z</time></trkpt><trkpt lat="42.628851860657825" lon="12.491295993526347"><ele>380.6666666666667</ele><time>2026-05-02T09:42:43.933Z</time></trkpt><trkpt lat="42.62893558939254" lon="12.491273293575006"><ele>380.33333333333337</ele><time>2026-05-02T09:42:44.933Z</time></trkpt><trkpt lat="42.62902774667535" lon="12.49124394836168"><ele>380.0</ele><time>2026-05-02T09:42:45.933Z</time></trkpt><trkpt lat="42.6291067190788" lon="12.49123466919789"><ele>380.0</ele><time>2026-05-02T09:42:46.933Z</time></trkpt><trkpt lat="42.629178012250186" lon="12.491224862993297"><ele>380.0</ele><time>2026-05-02T09:42:47.933Z</time></trkpt><trkpt lat="42.62925079929756" lon="12.49123677421945"><ele>380.0</ele><time>2026-05-02T09:42:48.933Z</time></trkpt><trkpt lat="42.62934231492674" lon="12.491246993796288"><ele>380.0</ele><time>2026-05-02T09:42:49.933Z</time></trkpt><trkpt lat="42.629435904689835" lon="12.491254425798305"><ele>380.0</ele><time>2026-05-02T09:42:50.933Z</time></trkpt><trkpt lat="42.62952796303167" lon="12.491268938319742"><ele>380.0</ele><time>2026-05-02T09:42:51.933Z</time></trkpt><trkpt lat="42.62961610369918" lon="12.491276350218092"><ele>379.57142857142856</ele><time>2026-05-02T09:42:52.933Z</time></trkpt><trkpt lat="42.62968126893511" lon="12.491276171946636"><ele>379.14285714285717</ele><time>2026-05-02T09:42:53.933Z</time></trkpt><trkpt lat="42.62974936945979" lon="12.491265398385167"><ele>378.71428571428567</ele><time>2026-05-02T09:42:54.933Z</time></trkpt><trkpt lat="42.62985644190975" lon="12.491249889569815"><ele>378.2857142857143</ele><time>2026-05-02T09:42:56.933Z</time></trkpt><trkpt lat="42.629930442310496" lon="12.491239170711182"><ele>377.85714285714283</ele><time>2026-05-02T09:42:57.933Z</time></trkpt><trkpt lat="42.62999685405135" lon="12.491234148562423"><ele>377.4285714285714</ele><time>2026-05-02T09:42:58.933Z</time></trkpt><trkpt lat="42.6300609797023" lon="12.491241127996187"><ele>377.0</ele><time>2026-05-02T09:42:59.933Z</time></trkpt><trkpt lat="42.63012294027217" lon="12.491256622370985"><ele>375.0</ele><time>2026-05-02T09:43:00.933Z</time></trkpt><trkpt lat="42.6301949951371" lon="12.491288474886732"><ele>373.0</ele><time>2026-05-02T09:43:01.933Z</time></trkpt><trkpt lat="42.63027988100678" lon="12.491321700588378"><ele>371.0</ele><time>2026-05-02T09:43:03.933Z</time></trkpt><trkpt lat="42.63036993728021" lon="12.491352152568911"><ele>369.0</ele><time>2026-05-02T09:43:09.933Z</time></trkpt><trkpt lat="42.63047814063091" lon="12.49138011415289"><ele>367.0</ele><time>2026-05-02T09:43:11.933Z</time></trkpt><trkpt lat="42.63058960273177" lon="12.491393335798374"><ele>365.6</ele><time>2026-05-02T09:43:13.933Z</time></trkpt><trkpt lat="42.63070508376283" lon="12.49140392460669"><ele>364.20000000000005</ele><time>2026-05-02T09:43:15.933Z</time></trkpt><trkpt lat="42.63080758205584" lon="12.491414744601087"><ele>362.8</ele><time>2026-05-02T09:43:17.933Z</time></trkpt><trkpt lat="42.63091968496351" lon="12.49142012071047"><ele>361.4</ele><time>2026-05-02T09:43:19.933Z</time></trkpt><trkpt lat="42.631032065307494" lon="12.491437878052665"><ele>360.0</ele><time>2026-05-02T09:43:21.933Z</time></trkpt><trkpt lat="42.63114214883761" lon="12.491446794761417"><ele>358.6666666666667</ele><time>2026-05-02T09:43:23.933Z</time></trkpt><trkpt lat="42.631236926332896" lon="12.491455941154909"><ele>357.3333333333333</ele><time>2026-05-02T09:43:25.933Z</time></trkpt><trkpt lat="42.631313802688034" lon="12.491463861467015"><ele>356.0</ele><time>2026-05-02T09:43:27.933Z</time></trkpt><trkpt lat="42.63139420605746" lon="12.491458642882034"><ele>354.66666666666663</ele><time>2026-05-02T09:43:29.933Z</time></trkpt><trkpt lat="42.631473886344644" lon="12.491449823024208"><ele>353.3333333333333</ele><time>2026-05-02T09:43:31.933Z</time></trkpt><trkpt lat="42.631541298663294" lon="12.491445866572727"><ele>352.0</ele><time>2026-05-02T09:43:33.933Z</time></trkpt><trkpt lat="42.63162745913049" lon="12.491411292983688"><ele>352.0</ele><time>2026-05-02T09:43:35.933Z</time></trkpt><trkpt lat="42.63172821510934" lon="12.491371852759283"><ele>352.0</ele><time>2026-05-02T09:43:37.933Z</time></trkpt><trkpt lat="42.63182866476783" lon="12.491347944830176"><ele>352.0</ele><time>2026-05-02T09:43:39.933Z</time></trkpt><trkpt lat="42.63189561998467" lon="12.49132993169787"><ele>352.0</ele><time>2026-05-02T09:43:40.933Z</time></trkpt><trkpt lat="42.63201012288629" lon="12.491290091566704"><ele>352.0</ele><time>2026-05-02T09:43:42.933Z</time></trkpt><trkpt lat="42.63212623779177" lon="12.491343104558663"><ele>351.14285714285717</ele><time>2026-05-02T09:43:44.933Z</time></trkpt><trkpt lat="42.63218039015272" lon="12.491401981068405"><ele>350.2857142857143</ele><time>2026-05-02T09:43:45.933Z</time></trkpt><trkpt lat="42.63224105434714" lon="12.491468063800077"><ele>349.42857142857144</ele><time>2026-05-02T09:43:46.933Z</time></trkpt><trkpt lat="42.63230017845019" lon="12.491526955043117"><ele>348.57142857142856</ele><time>2026-05-02T09:43:47.933Z</time></trkpt><trkpt lat="42.632353859760954" lon="12.491581956753603"><ele>347.7142857142857</ele><time>2026-05-02T09:43:48.933Z</time></trkpt><trkpt lat="42.632408647511234" lon="12.491643681657653"><ele>346.85714285714283</ele><time>2026-05-02T09:43:49.933Z</time></trkpt><trkpt lat="42.63246553478082" lon="12.491713245467338"><ele>346.0</ele><time>2026-05-02T09:43:50.933Z</time></trkpt><trkpt lat="42.63252630144607" lon="12.491791155230075"><ele>346.0</ele><time>2026-05-02T09:43:51.933Z</time></trkpt><trkpt lat="42.63259124401118" lon="12.491877016241537"><ele>346.0</ele><time>2026-05-02T09:43:52.933Z</time></trkpt><trkpt lat="42.63265747215402" lon="12.491964736157914"><ele>346.0</ele><time>2026-05-02T09:43:53.933Z</time></trkpt><trkpt lat="42.63272779231995" lon="12.492052368552399"><ele>346.0</ele><time>2026-05-02T09:43:54.932Z</time></trkpt><trkpt lat="42.63279461954969" lon="12.492136574831338"><ele>346.0</ele><time>2026-05-02T09:43:55.932Z</time></trkpt><trkpt lat="42.632862165316375" lon="12.492226331502295"><ele>345.6</ele><time>2026-05-02T09:43:56.932Z</time></trkpt><trkpt lat="42.63292907877684" lon="12.492319431894407"><ele>345.20000000000005</ele><time>2026-05-02T09:43:57.932Z</time></trkpt><trkpt lat="42.633001468888395" lon="12.492428360370228"><ele>344.79999999999995</ele><time>2026-05-02T09:43:58.932Z</time></trkpt><trkpt lat="42.63306291408499" lon="12.492550089102822"><ele>344.4</ele><time>2026-05-02T09:43:59.932Z</time></trkpt><trkpt lat="42.63312798450455" lon="12.492676641416622"><ele>344.0</ele><time>2026-05-02T09:44:00.932Z</time></trkpt><trkpt lat="42.63320100423797" lon="12.492813935782888"><ele>345.25</ele><time>2026-05-02T09:44:01.932Z</time></trkpt><trkpt lat="42.63327606788531" lon="12.492948134607186"><ele>346.5</ele><time>2026-05-02T09:44:02.932Z</time></trkpt><trkpt lat="42.633351686526886" lon="12.493080972326165"><ele>347.75</ele><time>2026-05-02T09:44:03.931Z</time></trkpt><trkpt lat="42.63342257229443" lon="12.493211281739473"><ele>349.0</ele><time>2026-05-02T09:44:04.931Z</time></trkpt><trkpt lat="42.63349640840918" lon="12.493338389649233"><ele>349.0</ele><time>2026-05-02T09:44:05.931Z</time></trkpt><trkpt lat="42.63356248339192" lon="12.49345047922415"><ele>349.0</ele><time>2026-05-02T09:44:06.931Z</time></trkpt><trkpt lat="42.63362776372447" lon="12.493532584595915"><ele>349.0</ele><time>2026-05-02T09:44:07.931Z</time></trkpt><trkpt lat="42.6336853962324" lon="12.49358165412676"><ele>349.0</ele><time>2026-05-02T09:44:08.931Z</time></trkpt><trkpt lat="42.633751923633326" lon="12.493643526612692"><ele>349.0</ele><time>2026-05-02T09:44:10.931Z</time></trkpt><trkpt lat="42.6337611233965" lon="12.493751614468398"><ele>349.0</ele><time>2026-05-02T09:44:12.931Z</time></trkpt><trkpt lat="42.63368434384466" lon="12.493851781910877"><ele>350.4</ele><time>2026-05-02T09:44:14.931Z</time></trkpt><trkpt lat="42.6336356506873" lon="12.493924494852154"><ele>351.79999999999995</ele><time>2026-05-02T09:44:15.931Z</time></trkpt><trkpt lat="42.63358696878667" lon="12.494075567506618"><ele>353.20000000000005</ele><time>2026-05-02T09:44:17.931Z</time></trkpt><trkpt lat="42.633567151608865" lon="12.49416102334883"><ele>354.6</ele><time>2026-05-02T09:44:18.931Z</time></trkpt><trkpt lat="42.63354696621246" lon="12.494344539003961"><ele>356.0</ele><time>2026-05-02T09:44:20.931Z</time></trkpt><trkpt lat="42.633535028617835" lon="12.494429787509876"><ele>355.99999999999994</ele><time>2026-05-02T09:44:21.931Z</time></trkpt><trkpt lat="42.633519889777176" lon="12.49452076544385"><ele>356.0</ele><time>2026-05-02T09:44:22.931Z</time></trkpt><trkpt lat="42.633517096752676" lon="12.49461321648607"><ele>356.0</ele><time>2026-05-02T09:44:23.931Z</time></trkpt><trkpt lat="42.63352657245551" lon="12.494717944438369"><ele>356.0</ele><time>2026-05-02T09:44:24.931Z</time></trkpt><trkpt lat="42.633545883884175" lon="12.494825583612093"><ele>356.0</ele><time>2026-05-02T09:44:25.931Z</time></trkpt><trkpt lat="42.6335695843647" lon="12.494915654882776"><ele>355.99999999999994</ele><time>2026-05-02T09:44:26.931Z</time></trkpt><trkpt lat="42.63359456265029" lon="12.495006337694395"><ele>356.0</ele><time>2026-05-02T09:44:27.931Z</time></trkpt><trkpt lat="42.633617999941315" lon="12.495102417475305"><ele>357.33333333333337</ele><time>2026-05-02T09:44:28.931Z</time></trkpt><trkpt lat="42.63364527648913" lon="12.495207339604148"><ele>358.6666666666667</ele><time>2026-05-02T09:44:29.931Z</time></trkpt><trkpt lat="42.63367212089885" lon="12.495315303182688"><ele>360.0</ele><time>2026-05-02T09:44:30.931Z</time></trkpt><trkpt lat="42.63369528464449" lon="12.495433489925166"><ele>361.3333333333333</ele><time>2026-05-02T09:44:31.931Z</time></trkpt><trkpt lat="42.6337189427354" lon="12.495551749922292"><ele>362.66666666666663</ele><time>2026-05-02T09:44:32.931Z</time></trkpt><trkpt lat="42.633748257125745" lon="12.495673420683115"><ele>364.0</ele><time>2026-05-02T09:44:33.931Z</time></trkpt><trkpt lat="42.633779346158846" lon="12.495790501611275"><ele>365.0</ele><time>2026-05-02T09:44:34.931Z</time></trkpt><trkpt lat="42.633816450075486" lon="12.495914215055043"><ele>366.0</ele><time>2026-05-02T09:44:35.931Z</time></trkpt><trkpt lat="42.633844232800975" lon="12.49603164644586"><ele>367.0</ele><time>2026-05-02T09:44:36.931Z</time></trkpt><trkpt lat="42.63387814984121" lon="12.496149618798299"><ele>368.0</ele><time>2026-05-02T09:44:37.931Z</time></trkpt><trkpt lat="42.63391956368938" lon="12.496273550176774"><ele>369.0</ele><time>2026-05-02T09:44:38.931Z</time></trkpt><trkpt lat="42.63395220970636" lon="12.496391226152447"><ele>369.4</ele><time>2026-05-02T09:44:39.931Z</time></trkpt><trkpt lat="42.633977360311164" lon="12.496505909404302"><ele>369.79999999999995</ele><time>2026-05-02T09:44:40.931Z</time></trkpt><trkpt lat="42.63399933267126" lon="12.49663077091492"><ele>370.20000000000005</ele><time>2026-05-02T09:44:41.931Z</time></trkpt><trkpt lat="42.634024297152564" lon="12.496758628294552"><ele>370.6</ele><time>2026-05-02T09:44:42.931Z</time></trkpt><trkpt lat="42.63405308277218" lon="12.49688578255721"><ele>371.0</ele><time>2026-05-02T09:44:43.931Z</time></trkpt><trkpt lat="42.63408893224536" lon="12.497002985692546"><ele>370.6</ele><time>2026-05-02T09:44:44.931Z</time></trkpt><trkpt lat="42.63414586156383" lon="12.49710237311035"><ele>370.20000000000005</ele><time>2026-05-02T09:44:45.931Z</time></trkpt><trkpt lat="42.63422488058803" lon="12.497192542358434"><ele>369.79999999999995</ele><time>2026-05-02T09:44:46.931Z</time></trkpt><trkpt lat="42.63432295357056" lon="12.497264754950512"><ele>369.4</ele><time>2026-05-02T09:44:47.931Z</time></trkpt><trkpt lat="42.63442384864222" lon="12.497334481252983"><ele>369.0</ele><time>2026-05-02T09:44:48.931Z</time></trkpt><trkpt lat="42.634509444736615" lon="12.497424468548179"><ele>370.0</ele><time>2026-05-02T09:44:49.931Z</time></trkpt><trkpt lat="42.63461066497967" lon="12.497500889197617"><ele>371.0</ele><time>2026-05-02T09:44:50.931Z</time></trkpt><trkpt lat="42.6346945402515" lon="12.497596982653752"><ele>372.0</ele><time>2026-05-02T09:44:51.931Z</time></trkpt><trkpt lat="42.63476565066412" lon="12.497706293274502"><ele>373.0</ele><time>2026-05-02T09:44:52.931Z</time></trkpt><trkpt lat="42.634832201283096" lon="12.497827980701693"><ele>374.0</ele><time>2026-05-02T09:44:53.931Z</time></trkpt><trkpt lat="42.634894991068634" lon="12.497952283744727"><ele>374.79999999999995</ele><time>2026-05-02T09:44:54.931Z</time></trkpt><trkpt lat="42.63495895818927" lon="12.498077442069093"><ele>375.59999999999997</ele><time>2026-05-02T09:44:55.93Z</time></trkpt><trkpt lat="42.63501992050748" lon="12.498194926261625"><ele>376.4</ele><time>2026-05-02T09:44:56.93Z</time></trkpt><trkpt lat="42.635081428589224" lon="12.498308330394105"><ele>377.2</ele><time>2026-05-02T09:44:57.93Z</time></trkpt><trkpt lat="42.63514824416593" lon="12.498417773716064"><ele>378.0</ele><time>2026-05-02T09:44:58.93Z</time></trkpt><trkpt lat="42.63521801405469" lon="12.498540669498942"><ele>378.0</ele><time>2026-05-02T09:44:59.93Z</time></trkpt><trkpt lat="42.635290931210314" lon="12.498666131440782"><ele>378.0</ele><time>2026-05-02T09:45:00.93Z</time></trkpt><trkpt lat="42.63535726851026" lon="12.49878530552372"><ele>378.0</ele><time>2026-05-02T09:45:01.93Z</time></trkpt><trkpt lat="42.635417186038104" lon="12.498899624213147"><ele>378.0</ele><time>2026-05-02T09:45:02.93Z</time></trkpt><trkpt lat="42.6354717817676" lon="12.499004006618772"><ele>378.0</ele><time>2026-05-02T09:45:03.93Z</time></trkpt><trkpt lat="42.63552953586291" lon="12.499100273794705"><ele>380.0</ele><time>2026-05-02T09:45:04.93Z</time></trkpt><trkpt lat="42.63559749672991" lon="12.4991637582637"><ele>382.0</ele><time>2026-05-02T09:45:05.93Z</time></trkpt><trkpt lat="42.6356571735438" lon="12.49921510816129"><ele>384.0</ele><time>2026-05-02T09:45:06.93Z</time></trkpt><trkpt lat="42.63571769892575" lon="12.499247057618621"><ele>386.0</ele><time>2026-05-02T09:45:07.93Z</time></trkpt><trkpt lat="42.6357778307394" lon="12.499282530514737"><ele>388.0</ele><time>2026-05-02T09:45:08.93Z</time></trkpt><trkpt lat="42.635897104341716" lon="12.499352524634494"><ele>390.0</ele><time>2026-05-02T09:45:10.93Z</time></trkpt><trkpt lat="42.635970010239014" lon="12.499378796123272"><ele>390.0</ele><time>2026-05-02T09:45:11.93Z</time></trkpt><trkpt lat="42.636054112288036" lon="12.499409647070442"><ele>390.0</ele><time>2026-05-02T09:45:12.93Z</time></trkpt><trkpt lat="42.63613805936804" lon="12.499440307728042"><ele>390.0</ele><time>2026-05-02T09:45:13.93Z</time></trkpt><trkpt lat="42.636225535209356" lon="12.499481777250303"><ele>390.0</ele><time>2026-05-02T09:45:14.93Z</time></trkpt><trkpt lat="42.63630414676375" lon="12.499557509693762"><ele>390.0</ele><time>2026-05-02T09:45:15.93Z</time></trkpt><trkpt lat="42.63637222545435" lon="12.499612301406684"><ele>390.0</ele><time>2026-05-02T09:45:16.93Z</time></trkpt><trkpt lat="42.63646293727421" lon="12.499681322792949"><ele>390.1666666666667</ele><time>2026-05-02T09:45:18.93Z</time></trkpt><trkpt lat="42.63654977291969" lon="12.49973195734369"><ele>390.33333333333337</ele><time>2026-05-02T09:45:20.93Z</time></trkpt><trkpt lat="42.63659647196797" lon="12.499810786514246"><ele>390.5</ele><time>2026-05-02T09:45:23.93Z</time></trkpt><trkpt lat="42.63654352929216" lon="12.499956898440011"><ele>390.6666666666667</ele><time>2026-05-02T09:45:24.93Z</time></trkpt><trkpt lat="42.63652287952209" lon="12.50006057553241"><ele>390.83333333333337</ele><time>2026-05-02T09:45:25.93Z</time></trkpt><trkpt lat="42.6365088360058" lon="12.500160926711331"><ele>391.0</ele><time>2026-05-02T09:45:26.93Z</time></trkpt><trkpt lat="42.63647667231856" lon="12.500250037466095"><ele>391.00000000000006</ele><time>2026-05-02T09:45:27.93Z</time></trkpt><trkpt lat="42.636456822422375" lon="12.500338736970297"><ele>391.0</ele><time>2026-05-02T09:45:28.93Z</time></trkpt><trkpt lat="42.636431503755034" lon="12.500425602861482"><ele>391.0</ele><time>2026-05-02T09:45:29.93Z</time></trkpt><trkpt lat="42.63639455158829" lon="12.500514278157317"><ele>391.0</ele><time>2026-05-02T09:45:30.93Z</time></trkpt><trkpt lat="42.63634221171995" lon="12.500601180529483"><ele>391.00000000000006</ele><time>2026-05-02T09:45:31.93Z</time></trkpt><trkpt lat="42.63627446180081" lon="12.500690938272532"><ele>391.0</ele><time>2026-05-02T09:45:32.93Z</time></trkpt><trkpt lat="42.636193270771074" lon="12.500774645180927"><ele>389.8</ele><time>2026-05-02T09:45:33.93Z</time></trkpt><trkpt lat="42.63610568622251" lon="12.500846669079003"><ele>388.6</ele><time>2026-05-02T09:45:34.93Z</time></trkpt><trkpt lat="42.63601540983467" lon="12.500912013823443"><ele>387.4</ele><time>2026-05-02T09:45:35.93Z</time></trkpt><trkpt lat="42.6359261890814" lon="12.500978855210809"><ele>386.2</ele><time>2026-05-02T09:45:36.93Z</time></trkpt><trkpt lat="42.63583830090158" lon="12.500999202442276"><ele>385.0</ele><time>2026-05-02T09:45:37.93Z</time></trkpt><trkpt lat="42.63576543010714" lon="12.501012566355879"><ele>385.00000000000006</ele><time>2026-05-02T09:45:38.93Z</time></trkpt><trkpt lat="42.63569904256666" lon="12.501023687748223"><ele>385.0</ele><time>2026-05-02T09:45:39.93Z</time></trkpt><trkpt lat="42.635629196344915" lon="12.501032316793765"><ele>385.0</ele><time>2026-05-02T09:45:40.93Z</time></trkpt><trkpt lat="42.63556040487167" lon="12.501079180945842"><ele>385.0</ele><time>2026-05-02T09:45:41.93Z</time></trkpt><trkpt lat="42.63548741299694" lon="12.501146773840546"><ele>385.00000000000006</ele><time>2026-05-02T09:45:42.93Z</time></trkpt><trkpt lat="42.635422828055475" lon="12.501215892554459"><ele>385.0</ele><time>2026-05-02T09:45:43.93Z</time></trkpt><trkpt lat="42.635363651537126" lon="12.501284311194949"><ele>383.2</ele><time>2026-05-02T09:45:44.93Z</time></trkpt><trkpt lat="42.63530216638777" lon="12.501359769444672"><ele>381.4</ele><time>2026-05-02T09:45:45.93Z</time></trkpt><trkpt lat="42.63525524564038" lon="12.501449814120814"><ele>379.6</ele><time>2026-05-02T09:45:46.93Z</time></trkpt><trkpt lat="42.635189450142896" lon="12.501517931472943"><ele>377.8</ele><time>2026-05-02T09:45:47.93Z</time></trkpt><trkpt lat="42.635105456476325" lon="12.501586454229464"><ele>376.0</ele><time>2026-05-02T09:45:48.93Z</time></trkpt><trkpt lat="42.63500743941061" lon="12.501651402179112"><ele>376.0</ele><time>2026-05-02T09:45:49.93Z</time></trkpt><trkpt lat="42.63491430182747" lon="12.501696740748834"><ele>376.0</ele><time>2026-05-02T09:45:50.93Z</time></trkpt><trkpt lat="42.6348265716532" lon="12.501751734508904"><ele>376.0</ele><time>2026-05-02T09:45:51.93Z</time></trkpt><trkpt lat="42.634741321030475" lon="12.501805173973375"><ele>376.0</ele><time>2026-05-02T09:45:52.93Z</time></trkpt><trkpt lat="42.63465083291813" lon="12.501855389197607"><ele>376.0</ele><time>2026-05-02T09:45:53.93Z</time></trkpt><trkpt lat="42.63456422482451" lon="12.501931367249448"><ele>376.0</ele><time>2026-05-02T09:45:54.93Z</time></trkpt><trkpt lat="42.63447458285013" lon="12.502028304400554"><ele>376.0</ele><time>2026-05-02T09:45:55.93Z</time></trkpt><trkpt lat="42.63438068873279" lon="12.502139263169374"><ele>376.0</ele><time>2026-05-02T09:45:56.93Z</time></trkpt><trkpt lat="42.63429092871262" lon="12.502263932680796"><ele>376.0</ele><time>2026-05-02T09:45:57.93Z</time></trkpt><trkpt lat="42.63421611135046" lon="12.502406369776743"><ele>373.8</ele><time>2026-05-02T09:45:58.93Z</time></trkpt><trkpt lat="42.63416317737678" lon="12.502526620710421"><ele>371.6</ele><time>2026-05-02T09:45:59.93Z</time></trkpt><trkpt lat="42.63411327091399" lon="12.502642112724029"><ele>369.4</ele><time>2026-05-02T09:46:00.93Z</time></trkpt><trkpt lat="42.634066987581775" lon="12.502758902208408"><ele>367.2</ele><time>2026-05-02T09:46:01.93Z</time></trkpt><trkpt lat="42.63402566377789" lon="12.502887373399181"><ele>365.0</ele><time>2026-05-02T09:46:02.93Z</time></trkpt><trkpt lat="42.6339977566374" lon="12.503037273662017"><ele>362.4</ele><time>2026-05-02T09:46:03.93Z</time></trkpt><trkpt lat="42.633986717517296" lon="12.50318847298524"><ele>359.8</ele><time>2026-05-02T09:46:04.93Z</time></trkpt><trkpt lat="42.63397282031302" lon="12.50332815560686"><ele>357.20000000000005</ele><time>2026-05-02T09:46:05.93Z</time></trkpt><trkpt lat="42.63395290726201" lon="12.503460104089163"><ele>354.6</ele><time>2026-05-02T09:46:06.93Z</time></trkpt><trkpt lat="42.63392914539317" lon="12.503594004385766"><ele>352.0</ele><time>2026-05-02T09:46:07.93Z</time></trkpt><trkpt lat="42.63390683895653" lon="12.50371935282286"><ele>349.8</ele><time>2026-05-02T09:46:08.928Z</time></trkpt><trkpt lat="42.633883211431204" lon="12.503854953136933"><ele>347.6</ele><time>2026-05-02T09:46:09.928Z</time></trkpt><trkpt lat="42.63386797301911" lon="12.503996133321563"><ele>345.40000000000003</ele><time>2026-05-02T09:46:10.928Z</time></trkpt><trkpt lat="42.63384156487558" lon="12.504121550058024"><ele>343.20000000000005</ele><time>2026-05-02T09:46:11.928Z</time></trkpt><trkpt lat="42.633813123117505" lon="12.504250562170773"><ele>341.0</ele><time>2026-05-02T09:46:12.928Z</time></trkpt><trkpt lat="42.633773611532355" lon="12.50437594320581"><ele>341.0</ele><time>2026-05-02T09:46:13.928Z</time></trkpt><trkpt lat="42.63375046538777" lon="12.504499031587118"><ele>341.0</ele><time>2026-05-02T09:46:14.928Z</time></trkpt><trkpt lat="42.633751985338854" lon="12.504629588026223"><ele>341.0</ele><time>2026-05-02T09:46:15.928Z</time></trkpt><trkpt lat="42.63377829225409" lon="12.50475249995559"><ele>341.0</ele><time>2026-05-02T09:46:16.928Z</time></trkpt><trkpt lat="42.6337982538164" lon="12.5048831370758"><ele>341.0</ele><time>2026-05-02T09:46:17.928Z</time></trkpt><trkpt lat="42.63381323442725" lon="12.505027806904"><ele>338.5</ele><time>2026-05-02T09:46:18.928Z</time></trkpt><trkpt lat="42.633845010529825" lon="12.505185241570818"><ele>336.0</ele><time>2026-05-02T09:46:19.928Z</time></trkpt><trkpt lat="42.633880821497044" lon="12.505385117889327"><ele>333.5</ele><time>2026-05-02T09:46:20.928Z</time></trkpt><trkpt lat="42.63388070855166" lon="12.505556538429152"><ele>331.0</ele><time>2026-05-02T09:46:21.928Z</time></trkpt><trkpt lat="42.63388406104407" lon="12.50572642654305"><ele>329.5</ele><time>2026-05-02T09:46:22.928Z</time></trkpt><trkpt lat="42.633862089531405" lon="12.505898983023574"><ele>328.0</ele><time>2026-05-02T09:46:23.928Z</time></trkpt><trkpt lat="42.63384447387429" lon="12.506064230622629"><ele>326.5</ele><time>2026-05-02T09:46:24.928Z</time></trkpt><trkpt lat="42.63383141470009" lon="12.506223920190832"><ele>325.0</ele><time>2026-05-02T09:46:25.928Z</time></trkpt><trkpt lat="42.63381183223848" lon="12.506371832898765"><ele>324.4</ele><time>2026-05-02T09:46:26.928Z</time></trkpt><trkpt lat="42.633780546784244" lon="12.506523199568786"><ele>323.8</ele><time>2026-05-02T09:46:27.928Z</time></trkpt><trkpt lat="42.63373019032965" lon="12.506676378587995"><ele>323.20000000000005</ele><time>2026-05-02T09:46:28.928Z</time></trkpt><trkpt lat="42.63368212244436" lon="12.506809069268247"><ele>322.6</ele><time>2026-05-02T09:46:29.928Z</time></trkpt><trkpt lat="42.63362038297231" lon="12.506916179320436"><ele>322.0</ele><time>2026-05-02T09:46:30.928Z</time></trkpt><trkpt lat="42.63354189744434" lon="12.507041202149411"><ele>321.0</ele><time>2026-05-02T09:46:31.928Z</time></trkpt><trkpt lat="42.63345166701455" lon="12.507151471792742"><ele>320.0</ele><time>2026-05-02T09:46:32.928Z</time></trkpt><trkpt lat="42.63336165042463" lon="12.507265282077267"><ele>319.0</ele><time>2026-05-02T09:46:33.928Z</time></trkpt><trkpt lat="42.63326571637016" lon="12.507362334127608"><ele>318.0</ele><time>2026-05-02T09:46:34.928Z</time></trkpt><trkpt lat="42.63317424594568" lon="12.507454382613581"><ele>318.0</ele><time>2026-05-02T09:46:35.928Z</time></trkpt><trkpt lat="42.633112029184424" lon="12.507562667855508"><ele>318.0</ele><time>2026-05-02T09:46:36.928Z</time></trkpt><trkpt lat="42.63304636877959" lon="12.507649466445457"><ele>318.0</ele><time>2026-05-02T09:46:37.928Z</time></trkpt><trkpt lat="42.632975995158084" lon="12.507745120952478"><ele>318.0</ele><time>2026-05-02T09:46:38.928Z</time></trkpt><trkpt lat="42.632892322758465" lon="12.507873539872113"><ele>318.0</ele><time>2026-05-02T09:46:39.927Z</time></trkpt><trkpt lat="42.632828440340546" lon="12.507980762083141"><ele>313.25</ele><time>2026-05-02T09:46:40.927Z</time></trkpt><trkpt lat="42.63277838269537" lon="12.508108971235577"><ele>308.5</ele><time>2026-05-02T09:46:41.927Z</time></trkpt><trkpt lat="42.63274196772937" lon="12.508257904536109"><ele>303.75</ele><time>2026-05-02T09:46:42.927Z</time></trkpt><trkpt lat="42.63270995503757" lon="12.508415916326502"><ele>299.0</ele><time>2026-05-02T09:46:43.927Z</time></trkpt><trkpt lat="42.6326663406083" lon="12.508568928368508"><ele>299.0</ele><time>2026-05-02T09:46:44.927Z</time></trkpt><trkpt lat="42.632646036956714" lon="12.50874141322793"><ele>299.0</ele><time>2026-05-02T09:46:45.927Z</time></trkpt><trkpt lat="42.63261564378308" lon="12.508929865411945"><ele>299.0</ele><time>2026-05-02T09:46:46.927Z</time></trkpt><trkpt lat="42.63258276083383" lon="12.509112603421418"><ele>299.0</ele><time>2026-05-02T09:46:47.927Z</time></trkpt><trkpt lat="42.63255544069702" lon="12.509285505161577"><ele>298.0</ele><time>2026-05-02T09:46:48.927Z</time></trkpt><trkpt lat="42.6325258952415" lon="12.50944380746769"><ele>297.0</ele><time>2026-05-02T09:46:49.927Z</time></trkpt><trkpt lat="42.632495803423105" lon="12.509595478689558"><ele>296.0</ele><time>2026-05-02T09:46:50.927Z</time></trkpt><trkpt lat="42.63246521823454" lon="12.509737486452657"><ele>295.0</ele><time>2026-05-02T09:46:51.927Z</time></trkpt><trkpt lat="42.632435506844196" lon="12.509870210049982"><ele>294.0</ele><time>2026-05-02T09:46:52.927Z</time></trkpt><trkpt lat="42.63240574443988" lon="12.509988411048448"><ele>293.14285714285717</ele><time>2026-05-02T09:46:53.927Z</time></trkpt><trkpt lat="42.632379720211205" lon="12.5100917570386"><ele>292.2857142857143</ele><time>2026-05-02T09:46:54.927Z</time></trkpt><trkpt lat="42.632356985975505" lon="12.510183382327206"><ele>291.42857142857144</ele><time>2026-05-02T09:46:55.927Z</time></trkpt><trkpt lat="42.63233456539554" lon="12.510269227556336"><ele>290.57142857142856</ele><time>2026-05-02T09:46:56.927Z</time></trkpt><trkpt lat="42.632322264931624" lon="12.510353189552754"><ele>289.7142857142857</ele><time>2026-05-02T09:46:57.927Z</time></trkpt><trkpt lat="42.632304494130345" lon="12.51044711703295"><ele>288.8571428571429</ele><time>2026-05-02T09:46:58.927Z</time></trkpt><trkpt lat="42.632285862166945" lon="12.510547262117461"><ele>288.0</ele><time>2026-05-02T09:46:59.927Z</time></trkpt><trkpt lat="42.63226932639053" lon="12.510638734964447"><ele>286.2</ele><time>2026-05-02T09:47:00.927Z</time></trkpt><trkpt lat="42.63225118257106" lon="12.51072795122715"><ele>284.4</ele><time>2026-05-02T09:47:01.927Z</time></trkpt><trkpt lat="42.632216955457736" lon="12.51088833177743"><ele>282.59999999999997</ele><time>2026-05-02T09:47:03.927Z</time></trkpt><trkpt lat="42.63216930189273" lon="12.51104947321906"><ele>280.8</ele><time>2026-05-02T09:47:05.927Z</time></trkpt><trkpt lat="42.632144169929084" lon="12.51113856758503"><ele>279.0</ele><time>2026-05-02T09:47:06.927Z</time></trkpt><trkpt lat="42.63212347929466" lon="12.511223578279413"><ele>277.57142857142856</ele><time>2026-05-02T09:47:07.927Z</time></trkpt><trkpt lat="42.63211836391997" lon="12.511312057571214"><ele>276.1428571428571</ele><time>2026-05-02T09:47:08.927Z</time></trkpt><trkpt lat="42.632093588829704" lon="12.511403511429831"><ele>274.7142857142857</ele><time>2026-05-02T09:47:09.927Z</time></trkpt><trkpt lat="42.63211646446754" lon="12.511504654529112"><ele>273.2857142857143</ele><time>2026-05-02T09:47:10.927Z</time></trkpt><trkpt lat="42.63216118959426" lon="12.511581564314385"><ele>271.8571428571429</ele><time>2026-05-02T09:47:11.927Z</time></trkpt><trkpt lat="42.63216817487979" lon="12.51168399839869"><ele>270.42857142857144</ele><time>2026-05-02T09:47:12.927Z</time></trkpt><trkpt lat="42.63216694955577" lon="12.511791074589418"><ele>269.0</ele><time>2026-05-02T09:47:13.927Z</time></trkpt><trkpt lat="42.63215639312307" lon="12.511899689131074"><ele>269.0</ele><time>2026-05-02T09:47:14.927Z</time></trkpt><trkpt lat="42.63215129187121" lon="12.51200916025299"><ele>269.0</ele><time>2026-05-02T09:47:15.927Z</time></trkpt><trkpt lat="42.632139896013165" lon="12.512124879932236"><ele>269.0</ele><time>2026-05-02T09:47:16.927Z</time></trkpt><trkpt lat="42.63211933772266" lon="12.51225342185017"><ele>269.0</ele><time>2026-05-02T09:47:17.927Z</time></trkpt><trkpt lat="42.632084763149386" lon="12.512410552718192"><ele>269.0</ele><time>2026-05-02T09:47:18.927Z</time></trkpt><trkpt lat="42.63205509282412" lon="12.512572359777506"><ele>266.5</ele><time>2026-05-02T09:47:19.927Z</time></trkpt><trkpt lat="42.63201856324425" lon="12.51273490845757"><ele>264.0</ele><time>2026-05-02T09:47:20.927Z</time></trkpt><trkpt lat="42.63198743806506" lon="12.512897432229789"><ele>261.5</ele><time>2026-05-02T09:47:21.927Z</time></trkpt><trkpt lat="42.63194808912274" lon="12.513064912049627"><ele>259.0</ele><time>2026-05-02T09:47:22.927Z</time></trkpt><trkpt lat="42.631920872609484" lon="12.513221649610987"><ele>257.0</ele><time>2026-05-02T09:47:23.927Z</time></trkpt><trkpt lat="42.63189540822905" lon="12.513370130002727"><ele>255.0</ele><time>2026-05-02T09:47:24.927Z</time></trkpt><trkpt lat="42.63187147390114" lon="12.513512935617365"><ele>253.0</ele><time>2026-05-02T09:47:25.927Z</time></trkpt><trkpt lat="42.63184513486099" lon="12.513657618082247"><ele>251.0</ele><time>2026-05-02T09:47:26.927Z</time></trkpt><trkpt lat="42.63180838489352" lon="12.51382564072855"><ele>248.75</ele><time>2026-05-02T09:47:27.927Z</time></trkpt><trkpt lat="42.63176569963031" lon="12.514012936875199"><ele>246.5</ele><time>2026-05-02T09:47:28.927Z</time></trkpt><trkpt lat="42.63172788466257" lon="12.51419832543717"><ele>244.25</ele><time>2026-05-02T09:47:29.927Z</time></trkpt><trkpt lat="42.63169417368796" lon="12.514379062445878"><ele>242.0</ele><time>2026-05-02T09:47:30.927Z</time></trkpt><trkpt lat="42.63165597637343" lon="12.514550261389623"><ele>239.75</ele><time>2026-05-02T09:47:31.927Z</time></trkpt><trkpt lat="42.63161994888928" lon="12.51472059985657"><ele>237.5</ele><time>2026-05-02T09:47:32.927Z</time></trkpt><trkpt lat="42.63156506714569" lon="12.514871787224358"><ele>235.25</ele><time>2026-05-02T09:47:33.927Z</time></trkpt><trkpt lat="42.63150483799947" lon="12.515018962973272"><ele>233.0</ele><time>2026-05-02T09:47:34.927Z</time></trkpt><trkpt lat="42.63144334724833" lon="12.515152144601311"><ele>233.0</ele><time>2026-05-02T09:47:35.927Z</time></trkpt><trkpt lat="42.63138165730703" lon="12.515281747832638"><ele>233.0</ele><time>2026-05-02T09:47:36.927Z</time></trkpt><trkpt lat="42.631321048426955" lon="12.51540614155417"><ele>233.0</ele><time>2026-05-02T09:47:37.927Z</time></trkpt><trkpt lat="42.63127014903349" lon="12.515525803302578"><ele>233.0</ele><time>2026-05-02T09:47:38.927Z</time></trkpt><trkpt lat="42.6311818880837" lon="12.515614443526081"><ele>233.0</ele><time>2026-05-02T09:47:39.927Z</time></trkpt><trkpt lat="42.63110437531895" lon="12.515718102119662"><ele>230.75</ele><time>2026-05-02T09:47:40.927Z</time></trkpt><trkpt lat="42.63100718532949" lon="12.515797608499984"><ele>228.5</ele><time>2026-05-02T09:47:41.927Z</time></trkpt><trkpt lat="42.630910022839466" lon="12.515874540738968"><ele>226.25</ele><time>2026-05-02T09:47:42.927Z</time></trkpt><trkpt lat="42.630810832703425" lon="12.515956364929206"><ele>224.0</ele><time>2026-05-02T09:47:43.927Z</time></trkpt><trkpt lat="42.63071702135859" lon="12.516029930403658"><ele>224.0</ele><time>2026-05-02T09:47:44.927Z</time></trkpt><trkpt lat="42.63062643637869" lon="12.516097516603809"><ele>223.99999999999997</ele><time>2026-05-02T09:47:45.927Z</time></trkpt><trkpt lat="42.63054808951016" lon="12.516172681892856"><ele>223.99999999999997</ele><time>2026-05-02T09:47:46.927Z</time></trkpt><trkpt lat="42.63045592149113" lon="12.516243150008723"><ele>224.0</ele><time>2026-05-02T09:47:47.927Z</time></trkpt><trkpt lat="42.63037012193064" lon="12.516308691628554"><ele>224.0</ele><time>2026-05-02T09:47:48.927Z</time></trkpt><trkpt lat="42.63028233623485" lon="12.516381909721972"><ele>220.25</ele><time>2026-05-02T09:47:49.927Z</time></trkpt><trkpt lat="42.63018816166222" lon="12.516447148195189"><ele>216.5</ele><time>2026-05-02T09:47:50.927Z</time></trkpt><trkpt lat="42.63007775681269" lon="12.516493691175642"><ele>212.75</ele><time>2026-05-02T09:47:51.927Z</time></trkpt><trkpt lat="42.62994585053338" lon="12.516518952034124"><ele>209.0</ele><time>2026-05-02T09:47:52.927Z</time></trkpt><trkpt lat="42.62980502396341" lon="12.516549678048715"><ele>209.0</ele><time>2026-05-02T09:47:53.927Z</time></trkpt><trkpt lat="42.629644945770096" lon="12.516577193652989"><ele>209.0</ele><time>2026-05-02T09:47:54.927Z</time></trkpt><trkpt lat="42.629477620009695" lon="12.51660215465106"><ele>209.0</ele><time>2026-05-02T09:47:55.926Z</time></trkpt><trkpt lat="42.62930135290118" lon="12.51664172813304"><ele>204.66666666666669</ele><time>2026-05-02T09:47:56.926Z</time></trkpt><trkpt lat="42.629098821526654" lon="12.516698444979335"><ele>200.33333333333331</ele><time>2026-05-02T09:47:57.926Z</time></trkpt><trkpt lat="42.62888094549913" lon="12.516719240822873"><ele>196.0</ele><time>2026-05-02T09:47:58.926Z</time></trkpt><trkpt lat="42.62865284408357" lon="12.516753506498567"><ele>195.25</ele><time>2026-05-02T09:47:59.926Z</time></trkpt><trkpt lat="42.62851290148789" lon="12.516774463110275"><ele>194.5</ele><time>2026-05-02T09:48:01.926Z</time></trkpt><trkpt lat="42.628355448800804" lon="12.516797723895086"><ele>193.75</ele><time>2026-05-02T09:48:02.926Z</time></trkpt><trkpt lat="42.62821151742054" lon="12.516820742978412"><ele>193.0</ele><time>2026-05-02T09:48:03.926Z</time></trkpt><trkpt lat="42.628069544344605" lon="12.5168472262523"><ele>193.0</ele><time>2026-05-02T09:48:04.926Z</time></trkpt><trkpt lat="42.627926814111156" lon="12.516890768118559"><ele>193.0</ele><time>2026-05-02T09:48:05.926Z</time></trkpt><trkpt lat="42.62777997677477" lon="12.516933446730183"><ele>193.0</ele><time>2026-05-02T09:48:06.926Z</time></trkpt><trkpt lat="42.62763228794682" lon="12.51697626229857"><ele>193.0</ele><time>2026-05-02T09:48:07.926Z</time></trkpt><trkpt lat="42.627483482645616" lon="12.517021263779442"><ele>192.5</ele><time>2026-05-02T09:48:08.926Z</time></trkpt><trkpt lat="42.62733655160321" lon="12.517069427316496"><ele>192.0</ele><time>2026-05-02T09:48:09.926Z</time></trkpt><trkpt lat="42.627198523553346" lon="12.517084353885773"><ele>191.5</ele><time>2026-05-02T09:48:10.926Z</time></trkpt><trkpt lat="42.627076717086155" lon="12.51712675461819"><ele>191.0</ele><time>2026-05-02T09:48:11.926Z</time></trkpt><trkpt lat="42.62695742175944" lon="12.517159243233975"><ele>191.0</ele><time>2026-05-02T09:48:12.926Z</time></trkpt><trkpt lat="42.6268526209249" lon="12.517206336275486"><ele>191.0</ele><time>2026-05-02T09:48:13.926Z</time></trkpt><trkpt lat="42.62675724146922" lon="12.517256927734765"><ele>191.0</ele><time>2026-05-02T09:48:14.926Z</time></trkpt><trkpt lat="42.62667267944718" lon="12.51735815091252"><ele>191.0</ele><time>2026-05-02T09:48:15.926Z</time></trkpt><trkpt lat="42.626567364418335" lon="12.517451685351231"><ele>191.0</ele><time>2026-05-02T09:48:16.926Z</time></trkpt><trkpt lat="42.62646437242621" lon="12.517541661619823"><ele>191.0</ele><time>2026-05-02T09:48:17.925Z</time></trkpt><trkpt lat="42.62635066175586" lon="12.517586514583977"><ele>191.0</ele><time>2026-05-02T09:48:18.926Z</time></trkpt><trkpt lat="42.626250292607956" lon="12.517642495317732"><ele>191.0</ele><time>2026-05-02T09:48:19.926Z</time></trkpt><trkpt lat="42.62613850743469" lon="12.517713898967305"><ele>191.0</ele><time>2026-05-02T09:48:20.926Z</time></trkpt><trkpt lat="42.626008666886875" lon="12.517744982329038"><ele>191.0</ele><time>2026-05-02T09:48:21.926Z</time></trkpt><trkpt lat="42.62587714831411" lon="12.51780088965018"><ele>191.0</ele><time>2026-05-02T09:48:22.926Z</time></trkpt><trkpt lat="42.62575356087491" lon="12.517832740070808"><ele>191.0</ele><time>2026-05-02T09:48:23.925Z</time></trkpt><trkpt lat="42.62563950341841" lon="12.517869776451624"><ele>191.0</ele><time>2026-05-02T09:48:24.926Z</time></trkpt><trkpt lat="42.625523510725614" lon="12.517888624641747"><ele>191.0</ele><time>2026-05-02T09:48:25.926Z</time></trkpt><trkpt lat="42.625416516812386" lon="12.517891949680912"><ele>191.0</ele><time>2026-05-02T09:48:26.925Z</time></trkpt><trkpt lat="42.62529527143934" lon="12.51788380716971"><ele>191.0</ele><time>2026-05-02T09:48:27.925Z</time></trkpt><trkpt lat="42.62518149000744" lon="12.517857250953943"><ele>190.8</ele><time>2026-05-02T09:48:28.925Z</time></trkpt><trkpt lat="42.62507365075459" lon="12.517825052914823"><ele>190.60000000000002</ele><time>2026-05-02T09:48:29.925Z</time></trkpt><trkpt lat="42.62498945251196" lon="12.51777173354571"><ele>190.4</ele><time>2026-05-02T09:48:30.925Z</time></trkpt><trkpt lat="42.624918262807306" lon="12.517759995496064"><ele>190.2</ele><time>2026-05-02T09:48:32.925Z</time></trkpt><trkpt lat="42.62482743853585" lon="12.517826955799128"><ele>190.0</ele><time>2026-05-02T09:48:39.925Z</time></trkpt><trkpt lat="42.62483077783982" lon="12.517934415575423"><ele>190.0</ele><time>2026-05-02T09:48:41.925Z</time></trkpt><trkpt lat="42.624836463833965" lon="12.518052522457797"><ele>190.0</ele><time>2026-05-02T09:49:08.925Z</time></trkpt><trkpt lat="42.6248735030064" lon="12.5182009905853"><ele>190.0</ele><time>2026-05-02T09:49:10.925Z</time></trkpt><trkpt lat="42.624902095020545" lon="12.518380516050232"><ele>190.0</ele><time>2026-05-02T09:49:12.925Z</time></trkpt><trkpt lat="42.62492351166653" lon="12.518490272479406"><ele>190.0</ele><time>2026-05-02T09:49:13.925Z</time></trkpt><trkpt lat="42.62495612983398" lon="12.5186200851953"><ele>191.0</ele><time>2026-05-02T09:49:14.925Z</time></trkpt><trkpt lat="42.62501919317349" lon="12.518761966372795"><ele>192.0</ele><time>2026-05-02T09:49:15.925Z</time></trkpt><trkpt lat="42.62505761236182" lon="12.518899759606267"><ele>193.0</ele><time>2026-05-02T09:49:16.925Z</time></trkpt><trkpt lat="42.625111169661814" lon="12.519000397799026"><ele>194.0</ele><time>2026-05-02T09:49:17.925Z</time></trkpt><trkpt lat="42.625187465783874" lon="12.519068152696812"><ele>195.0</ele><time>2026-05-02T09:49:18.925Z</time></trkpt><trkpt lat="42.62526968186097" lon="12.519082634586074"><ele>196.8</ele><time>2026-05-02T09:49:19.925Z</time></trkpt><trkpt lat="42.625355164876204" lon="12.519059148172886"><ele>198.6</ele><time>2026-05-02T09:49:20.925Z</time></trkpt><trkpt lat="42.62546319342091" lon="12.519053204265338"><ele>200.39999999999998</ele><time>2026-05-02T09:49:21.925Z</time></trkpt><trkpt lat="42.625569373379975" lon="12.51907058541224"><ele>202.2</ele><time>2026-05-02T09:49:22.925Z</time></trkpt><trkpt lat="42.62566273238629" lon="12.519109211180494"><ele>204.0</ele><time>2026-05-02T09:49:23.925Z</time></trkpt><trkpt lat="42.62572998304731" lon="12.519173056001845"><ele>204.0</ele><time>2026-05-02T09:49:24.925Z</time></trkpt><trkpt lat="42.62578898876345" lon="12.519234838968007"><ele>204.0</ele><time>2026-05-02T09:49:25.925Z</time></trkpt><trkpt lat="42.62586098922169" lon="12.519318763998132"><ele>204.0</ele><time>2026-05-02T09:49:26.925Z</time></trkpt><trkpt lat="42.62594934133362" lon="12.519403980002656"><ele>204.0</ele><time>2026-05-02T09:49:27.925Z</time></trkpt><trkpt lat="42.62604857639234" lon="12.51949552090822"><ele>204.0</ele><time>2026-05-02T09:49:28.925Z</time></trkpt><trkpt lat="42.62615578261546" lon="12.51955402892524"><ele>204.83333333333334</ele><time>2026-05-02T09:49:29.925Z</time></trkpt><trkpt lat="42.62623171452447" lon="12.51962085358589"><ele>205.66666666666669</ele><time>2026-05-02T09:49:30.925Z</time></trkpt><trkpt lat="42.62630954528778" lon="12.519647862658132"><ele>206.5</ele><time>2026-05-02T09:49:31.925Z</time></trkpt><trkpt lat="42.626391156267545" lon="12.51961542417454"><ele>207.33333333333334</ele><time>2026-05-02T09:49:32.925Z</time></trkpt><trkpt lat="42.62646438019362" lon="12.519558421593928"><ele>208.16666666666669</ele><time>2026-05-02T09:49:33.925Z</time></trkpt><trkpt lat="42.62656576218904" lon="12.519551801002164"><ele>209.0</ele><time>2026-05-02T09:49:35.925Z</time></trkpt><trkpt lat="42.62658917922703" lon="12.519635820659484"><ele>211.0</ele><time>2026-05-02T09:49:37.924Z</time></trkpt><trkpt lat="42.62648436177178" lon="12.519758570311922"><ele>213.0</ele><time>2026-05-02T09:49:39.924Z</time></trkpt><trkpt lat="42.62645133742254" lon="12.51988652344029"><ele>214.99999999999997</ele><time>2026-05-02T09:49:41.924Z</time></trkpt><trkpt lat="42.626424940210505" lon="12.519964452361803"><ele>217.0</ele><time>2026-05-02T09:49:42.924Z</time></trkpt><trkpt lat="42.62640915661187" lon="12.520122518815713"><ele>219.0</ele><time>2026-05-02T09:49:44.924Z</time></trkpt><trkpt lat="42.62638669384342" lon="12.52020933434672"><ele>219.0</ele><time>2026-05-02T09:49:45.924Z</time></trkpt><trkpt lat="42.62636449977214" lon="12.520296209587562"><ele>219.0</ele><time>2026-05-02T09:49:46.924Z</time></trkpt><trkpt lat="42.626344481215995" lon="12.520408057877528"><ele>219.0</ele><time>2026-05-02T09:49:47.924Z</time></trkpt><trkpt lat="42.62631731639857" lon="12.520522486356027"><ele>219.0</ele><time>2026-05-02T09:49:48.924Z</time></trkpt><trkpt lat="42.62629307150674" lon="12.520616962785077"><ele>219.0</ele><time>2026-05-02T09:49:49.924Z</time></trkpt><trkpt lat="42.6262689169726" lon="12.520729377831499"><ele>219.0</ele><time>2026-05-02T09:49:50.924Z</time></trkpt><trkpt lat="42.62623271357014" lon="12.520853686728959"><ele>220.0</ele><time>2026-05-02T09:49:51.924Z</time></trkpt><trkpt lat="42.62620292057443" lon="12.520976222017616"><ele>220.99999999999997</ele><time>2026-05-02T09:49:52.924Z</time></trkpt><trkpt lat="42.62617632570515" lon="12.521091029922422"><ele>221.99999999999997</ele><time>2026-05-02T09:49:53.924Z</time></trkpt><trkpt lat="42.62614782520867" lon="12.521214219316443"><ele>223.0</ele><time>2026-05-02T09:49:54.924Z</time></trkpt><trkpt lat="42.626120289237605" lon="12.52132790764223"><ele>224.0</ele><time>2026-05-02T09:49:55.924Z</time></trkpt><trkpt lat="42.6260978275088" lon="12.521444014006319"><ele>224.66666666666669</ele><time>2026-05-02T09:49:56.924Z</time></trkpt><trkpt lat="42.6260787751597" lon="12.521540398737157"><ele>225.33333333333334</ele><time>2026-05-02T09:49:57.924Z</time></trkpt><trkpt lat="42.62608011227294" lon="12.521629966735608"><ele>226.0</ele><time>2026-05-02T09:49:58.924Z</time></trkpt><trkpt lat="42.62611735262546" lon="12.52171473644669"><ele>226.66666666666669</ele><time>2026-05-02T09:49:59.924Z</time></trkpt><trkpt lat="42.62618763139663" lon="12.521790053369262"><ele>227.33333333333334</ele><time>2026-05-02T09:50:00.924Z</time></trkpt><trkpt lat="42.62627152194579" lon="12.521835372223379"><ele>228.0</ele><time>2026-05-02T09:50:01.924Z</time></trkpt><trkpt lat="42.626367792013845" lon="12.521891490822371"><ele>228.66666666666666</ele><time>2026-05-02T09:50:02.924Z</time></trkpt><trkpt lat="42.62645293307763" lon="12.521958412199986"><ele>229.33333333333331</ele><time>2026-05-02T09:50:03.924Z</time></trkpt><trkpt lat="42.6265295497432" lon="12.522019473226031"><ele>230.0</ele><time>2026-05-02T09:50:04.924Z</time></trkpt><trkpt lat="42.626598111642075" lon="12.52208494604301"><ele>230.66666666666666</ele><time>2026-05-02T09:50:05.924Z</time></trkpt><trkpt lat="42.62666076390379" lon="12.52215504895981"><ele>231.33333333333331</ele><time>2026-05-02T09:50:06.924Z</time></trkpt><trkpt lat="42.626724208819624" lon="12.522223107564482"><ele>232.0</ele><time>2026-05-02T09:50:07.924Z</time></trkpt><trkpt lat="42.62683312272182" lon="12.522305313339475"><ele>232.39999999999998</ele><time>2026-05-02T09:50:09.924Z</time></trkpt><trkpt lat="42.62692269440201" lon="12.522309784248844"><ele>232.79999999999998</ele><time>2026-05-02T09:50:10.924Z</time></trkpt><trkpt lat="42.62701428171635" lon="12.522256921316421"><ele>233.2</ele><time>2026-05-02T09:50:11.924Z</time></trkpt><trkpt lat="42.627083771465855" lon="12.522169289911359"><ele>233.6</ele><time>2026-05-02T09:50:12.924Z</time></trkpt><trkpt lat="42.627170344381476" lon="12.522065769694757"><ele>234.0</ele><time>2026-05-02T09:50:13.924Z</time></trkpt><trkpt lat="42.62722426988374" lon="12.521970067649793"><ele>234.0</ele><time>2026-05-02T09:50:14.924Z</time></trkpt><trkpt lat="42.62729096378252" lon="12.521901755506972"><ele>233.99999999999997</ele><time>2026-05-02T09:50:15.924Z</time></trkpt><trkpt lat="42.6273705785345" lon="12.521850440278353"><ele>233.99999999999997</ele><time>2026-05-02T09:50:16.924Z</time></trkpt><trkpt lat="42.627455880949675" lon="12.521826886864519"><ele>234.0</ele><time>2026-05-02T09:50:17.924Z</time></trkpt><trkpt lat="42.62755380691636" lon="12.52181592883776"><ele>234.0</ele><time>2026-05-02T09:50:18.924Z</time></trkpt><trkpt lat="42.62765323778099" lon="12.521820352049062"><ele>234.0</ele><time>2026-05-02T09:50:19.924Z</time></trkpt><trkpt lat="42.627747353694986" lon="12.521835200231838"><ele>233.99999999999997</ele><time>2026-05-02T09:50:20.924Z</time></trkpt><trkpt lat="42.627857605494114" lon="12.521857780107863"><ele>233.99999999999997</ele><time>2026-05-02T09:50:21.923Z</time></trkpt><trkpt lat="42.62796050711791" lon="12.52186649006559"><ele>234.0</ele><time>2026-05-02T09:50:22.923Z</time></trkpt><trkpt lat="42.62806099822868" lon="12.521877688130566"><ele>234.0</ele><time>2026-05-02T09:50:23.924Z</time></trkpt><trkpt lat="42.6281733081356" lon="12.521881325236611"><ele>234.66666666666666</ele><time>2026-05-02T09:50:24.924Z</time></trkpt><trkpt lat="42.628287811355264" lon="12.52187251630893"><ele>235.33333333333331</ele><time>2026-05-02T09:50:25.924Z</time></trkpt><trkpt lat="42.62838640200551" lon="12.521877719586087"><ele>236.0</ele><time>2026-05-02T09:50:26.924Z</time></trkpt><trkpt lat="42.62846780469949" lon="12.521890754093025"><ele>236.66666666666666</ele><time>2026-05-02T09:50:27.923Z</time></trkpt><trkpt lat="42.628543895608466" lon="12.521911848235026"><ele>237.33333333333331</ele><time>2026-05-02T09:50:28.923Z</time></trkpt><trkpt lat="42.62859851666144" lon="12.521962124000959"><ele>238.0</ele><time>2026-05-02T09:50:29.923Z</time></trkpt><trkpt lat="42.62863330438647" lon="12.522043145159278"><ele>239.66666666666666</ele><time>2026-05-02T09:50:30.924Z</time></trkpt><trkpt lat="42.62863858917325" lon="12.522141768862335"><ele>241.33333333333331</ele><time>2026-05-02T09:50:31.924Z</time></trkpt><trkpt lat="42.62862560154848" lon="12.522258073101797"><ele>243.0</ele><time>2026-05-02T09:50:32.924Z</time></trkpt><trkpt lat="42.6286086642192" lon="12.522389402168947"><ele>244.66666666666669</ele><time>2026-05-02T09:50:33.923Z</time></trkpt><trkpt lat="42.62859193263312" lon="12.522509449805975"><ele>246.33333333333334</ele><time>2026-05-02T09:50:34.923Z</time></trkpt><trkpt lat="42.628575348624345" lon="12.52263340805094"><ele>248.0</ele><time>2026-05-02T09:50:35.923Z</time></trkpt><trkpt lat="42.62855264968174" lon="12.522772675791465"><ele>249.8</ele><time>2026-05-02T09:50:36.923Z</time></trkpt><trkpt lat="42.628534889348174" lon="12.522905880037525"><ele>251.60000000000002</ele><time>2026-05-02T09:50:37.923Z</time></trkpt><trkpt lat="42.6285230059217" lon="12.523047411913005"><ele>253.39999999999998</ele><time>2026-05-02T09:50:38.923Z</time></trkpt><trkpt lat="42.62850848452463" lon="12.523190428947956"><ele>255.2</ele><time>2026-05-02T09:50:39.923Z</time></trkpt><trkpt lat="42.628494121538715" lon="12.523342921799317"><ele>257.0</ele><time>2026-05-02T09:50:40.923Z</time></trkpt><trkpt lat="42.62847816019044" lon="12.523489029943955"><ele>257.0</ele><time>2026-05-02T09:50:41.923Z</time></trkpt><trkpt lat="42.62846140534181" lon="12.523629870829819"><ele>257.0</ele><time>2026-05-02T09:50:42.923Z</time></trkpt><trkpt lat="42.628445177167826" lon="12.523760850137604"><ele>257.0</ele><time>2026-05-02T09:50:43.923Z</time></trkpt><trkpt lat="42.62842764426169" lon="12.523893664893988"><ele>257.0</ele><time>2026-05-02T09:50:44.923Z</time></trkpt><trkpt lat="42.628411852046575" lon="12.524029378403213"><ele>257.0</ele><time>2026-05-02T09:50:45.923Z</time></trkpt><trkpt lat="42.62839462819816" lon="12.524175576544524"><ele>259.4</ele><time>2026-05-02T09:50:46.923Z</time></trkpt><trkpt lat="42.628376114838666" lon="12.524321918570026"><ele>261.79999999999995</ele><time>2026-05-02T09:50:47.923Z</time></trkpt><trkpt lat="42.62836082205124" lon="12.524457766617289"><ele>264.2</ele><time>2026-05-02T09:50:48.923Z</time></trkpt><trkpt lat="42.62834216265043" lon="12.524556032019195"><ele>266.59999999999997</ele><time>2026-05-02T09:50:49.923Z</time></trkpt><trkpt lat="42.628424429147856" lon="12.524702806665129"><ele>269.0</ele><time>2026-05-02T09:50:51.923Z</time></trkpt><trkpt lat="42.62851639547646" lon="12.524767380505448"><ele>270.5</ele><time>2026-05-02T09:50:52.923Z</time></trkpt><trkpt lat="42.62861290135626" lon="12.52481426485917"><ele>272.0</ele><time>2026-05-02T09:50:53.923Z</time></trkpt><trkpt lat="42.62868346782406" lon="12.524875084998223"><ele>273.5</ele><time>2026-05-02T09:50:54.923Z</time></trkpt><trkpt lat="42.62875445751784" lon="12.52495362830939"><ele>275.0</ele><time>2026-05-02T09:50:55.923Z</time></trkpt><trkpt lat="42.62882482694673" lon="12.525026116777596"><ele>276.5</ele><time>2026-05-02T09:50:56.923Z</time></trkpt><trkpt lat="42.62887985369165" lon="12.52510619298813"><ele>278.0</ele><time>2026-05-02T09:50:57.923Z</time></trkpt><trkpt lat="42.62889975611868" lon="12.525207621380329"><ele>278.0</ele><time>2026-05-02T09:50:58.923Z</time></trkpt><trkpt lat="42.6288795322772" lon="12.5253261580884"><ele>278.0</ele><time>2026-05-02T09:50:59.923Z</time></trkpt><trkpt lat="42.62881047442698" lon="12.525441160561858"><ele>278.0</ele><time>2026-05-02T09:51:00.923Z</time></trkpt><trkpt lat="42.62874384867234" lon="12.525566930739881"><ele>278.0</ele><time>2026-05-02T09:51:01.923Z</time></trkpt><trkpt lat="42.628711233970066" lon="12.525684947784724"><ele>278.0</ele><time>2026-05-02T09:51:02.923Z</time></trkpt><trkpt lat="42.62867919237094" lon="12.525773388242335"><ele>280.1666666666667</ele><time>2026-05-02T09:51:03.923Z</time></trkpt><trkpt lat="42.62861371147713" lon="12.525844610538133"><ele>282.33333333333337</ele><time>2026-05-02T09:51:04.923Z</time></trkpt><trkpt lat="42.628525948455874" lon="12.525898087745357"><ele>284.5</ele><time>2026-05-02T09:51:05.923Z</time></trkpt><trkpt lat="42.62843810521447" lon="12.525922695164454"><ele>286.6666666666667</ele><time>2026-05-02T09:51:06.923Z</time></trkpt><trkpt lat="42.62836121404218" lon="12.525941023916603"><ele>288.8333333333333</ele><time>2026-05-02T09:51:07.923Z</time></trkpt><trkpt lat="42.628283015327504" lon="12.525962580826684"><ele>291.0</ele><time>2026-05-02T09:51:08.923Z</time></trkpt><trkpt lat="42.62817972002878" lon="12.526028091889302"><ele>291.0</ele><time>2026-05-02T09:51:10.923Z</time></trkpt><trkpt lat="42.62815335394902" lon="12.526141267489285"><ele>291.0</ele><time>2026-05-02T09:51:11.923Z</time></trkpt><trkpt lat="42.62813713706745" lon="12.526267711647117"><ele>291.0</ele><time>2026-05-02T09:51:12.923Z</time></trkpt><trkpt lat="42.62813074848317" lon="12.526377846274638"><ele>291.0</ele><time>2026-05-02T09:51:13.923Z</time></trkpt><trkpt lat="42.628122534363165" lon="12.526483381474348"><ele>291.0</ele><time>2026-05-02T09:51:14.923Z</time></trkpt><trkpt lat="42.62811465314555" lon="12.526584708167071"><ele>291.0</ele><time>2026-05-02T09:51:15.923Z</time></trkpt><trkpt lat="42.628099680783635" lon="12.526682014577556"><ele>291.8333333333333</ele><time>2026-05-02T09:51:16.923Z</time></trkpt><trkpt lat="42.628075299050785" lon="12.526780785260966"><ele>292.6666666666667</ele><time>2026-05-02T09:51:17.923Z</time></trkpt><trkpt lat="42.62805293395218" lon="12.526872897896002"><ele>293.5</ele><time>2026-05-02T09:51:18.923Z</time></trkpt><trkpt lat="42.62800759423289" lon="12.526965651678777"><ele>294.33333333333337</ele><time>2026-05-02T09:51:19.923Z</time></trkpt><trkpt lat="42.62795416081228" lon="12.527030771218374"><ele>295.1666666666667</ele><time>2026-05-02T09:51:20.923Z</time></trkpt><trkpt lat="42.62789388675297" lon="12.527113902919186"><ele>296.0</ele><time>2026-05-02T09:51:21.923Z</time></trkpt><trkpt lat="42.627864173705596" lon="12.527201194898245"><ele>296.33333333333337</ele><time>2026-05-02T09:51:22.923Z</time></trkpt><trkpt lat="42.6278581539222" lon="12.527292617339965"><ele>296.6666666666667</ele><time>2026-05-02T09:51:23.923Z</time></trkpt><trkpt lat="42.627829628146294" lon="12.52737339939074"><ele>297.0</ele><time>2026-05-02T09:51:24.923Z</time></trkpt><trkpt lat="42.6277771991489" lon="12.527426760396493"><ele>297.3333333333333</ele><time>2026-05-02T09:51:25.923Z</time></trkpt><trkpt lat="42.627708894360154" lon="12.527459778347989"><ele>297.66666666666663</ele><time>2026-05-02T09:51:26.922Z</time></trkpt><trkpt lat="42.627629457308515" lon="12.527466617000165"><ele>298.0</ele><time>2026-05-02T09:51:27.922Z</time></trkpt><trkpt lat="42.62752963424188" lon="12.527452692771451"><ele>298.0</ele><time>2026-05-02T09:51:28.922Z</time></trkpt><trkpt lat="42.627423001943534" lon="12.527434671433378"><ele>298.0</ele><time>2026-05-02T09:51:29.922Z</time></trkpt><trkpt lat="42.627331497027356" lon="12.527430865014697"><ele>298.0</ele><time>2026-05-02T09:51:30.922Z</time></trkpt><trkpt lat="42.62723765772091" lon="12.52743401177812"><ele>298.0</ele><time>2026-05-02T09:51:31.922Z</time></trkpt><trkpt lat="42.627122270659925" lon="12.527432255973899"><ele>298.0</ele><time>2026-05-02T09:51:32.922Z</time></trkpt><trkpt lat="42.62698767224702" lon="12.527431618771963"><ele>298.0</ele><time>2026-05-02T09:51:33.922Z</time></trkpt><trkpt lat="42.62683733285414" lon="12.527432126163909"><ele>298.0</ele><time>2026-05-02T09:51:34.922Z</time></trkpt><trkpt lat="42.62668815767009" lon="12.52742568840949"><ele>298.0</ele><time>2026-05-02T09:51:35.922Z</time></trkpt><trkpt lat="42.62657625025299" lon="12.527416727131165"><ele>298.0</ele><time>2026-05-02T09:51:36.922Z</time></trkpt><trkpt lat="42.62648690431477" lon="12.52740417810916"><ele>298.0</ele><time>2026-05-02T09:51:37.922Z</time></trkpt><trkpt lat="42.626402866312745" lon="12.527401235774649"><ele>298.0</ele><time>2026-05-02T09:51:38.922Z</time></trkpt><trkpt lat="42.62628976260913" lon="12.527485473373805"><ele>298.0</ele><time>2026-05-02T09:51:40.922Z</time></trkpt><trkpt lat="42.62625190528984" lon="12.527586278231368"><ele>298.0</ele><time>2026-05-02T09:51:41.922Z</time></trkpt><trkpt lat="42.62622843339193" lon="12.527727646251373"><ele>298.0</ele><time>2026-05-02T09:51:42.922Z</time></trkpt><trkpt lat="42.62620972287731" lon="12.5278474659633"><ele>299.4</ele><time>2026-05-02T09:51:43.922Z</time></trkpt><trkpt lat="42.626190566511625" lon="12.52796353066297"><ele>300.8</ele><time>2026-05-02T09:51:44.922Z</time></trkpt><trkpt lat="42.62617663923027" lon="12.52809125720298"><ele>302.2</ele><time>2026-05-02T09:51:45.922Z</time></trkpt><trkpt lat="42.62615338984292" lon="12.528222069465064"><ele>303.6</ele><time>2026-05-02T09:51:46.922Z</time></trkpt><trkpt lat="42.62612549073562" lon="12.528372576731536"><ele>305.0</ele><time>2026-05-02T09:51:47.922Z</time></trkpt><trkpt lat="42.62609980795147" lon="12.528518982131645"><ele>305.4</ele><time>2026-05-02T09:51:48.922Z</time></trkpt><trkpt lat="42.62608131959081" lon="12.528662379594358"><ele>305.8</ele><time>2026-05-02T09:51:49.922Z</time></trkpt><trkpt lat="42.62605685901385" lon="12.528792058731238"><ele>306.2</ele><time>2026-05-02T09:51:50.922Z</time></trkpt><trkpt lat="42.62603920707813" lon="12.528917218132644"><ele>306.6</ele><time>2026-05-02T09:51:51.922Z</time></trkpt><trkpt lat="42.62601670327607" lon="12.529049923050072"><ele>307.0</ele><time>2026-05-02T09:51:52.922Z</time></trkpt><trkpt lat="42.62600056460975" lon="12.529165004062415"><ele>310.6</ele><time>2026-05-02T09:51:53.922Z</time></trkpt><trkpt lat="42.6259820531263" lon="12.529288702157002"><ele>314.2</ele><time>2026-05-02T09:51:54.922Z</time></trkpt><trkpt lat="42.626020640416264" lon="12.529419535602859"><ele>317.8</ele><time>2026-05-02T09:51:55.922Z</time></trkpt><trkpt lat="42.62608439777595" lon="12.52955430407972"><ele>321.4</ele><time>2026-05-02T09:51:56.922Z</time></trkpt><trkpt lat="42.62613148382316" lon="12.529660168854276"><ele>325.0</ele><time>2026-05-02T09:51:57.922Z</time></trkpt><trkpt lat="42.62617315919985" lon="12.529739976946582"><ele>326.16666666666663</ele><time>2026-05-02T09:51:58.922Z</time></trkpt><trkpt lat="42.62616052046304" lon="12.5298355037165"><ele>327.3333333333333</ele><time>2026-05-02T09:52:01.922Z</time></trkpt><trkpt lat="42.6262576727292" lon="12.529992787768828"><ele>328.5</ele><time>2026-05-02T09:52:06.922Z</time></trkpt><trkpt lat="42.62631715061339" lon="12.530050314699116"><ele>329.6666666666667</ele><time>2026-05-02T09:52:08.922Z</time></trkpt><trkpt lat="42.62638291110062" lon="12.530105157909684"><ele>330.83333333333337</ele><time>2026-05-02T09:52:11.922Z</time></trkpt><trkpt lat="42.62644111875365" lon="12.530150832341482"><ele>332.0</ele><time>2026-05-02T09:52:13.922Z</time></trkpt><trkpt lat="42.62655028869769" lon="12.530228187585342"><ele>332.0</ele><time>2026-05-02T09:52:15.922Z</time></trkpt><trkpt lat="42.62661581947024" lon="12.530269364884267"><ele>332.0</ele><time>2026-05-02T09:52:16.922Z</time></trkpt><trkpt lat="42.62668374415951" lon="12.53030803551507"><ele>332.0</ele><time>2026-05-02T09:52:17.922Z</time></trkpt><trkpt lat="42.62675248609175" lon="12.53034352705121"><ele>332.0</ele><time>2026-05-02T09:52:18.922Z</time></trkpt><trkpt lat="42.62681836439178" lon="12.530377102784323"><ele>332.0</ele><time>2026-05-02T09:52:19.922Z</time></trkpt><trkpt lat="42.62688037627751" lon="12.530409251859515"><ele>332.0</ele><time>2026-05-02T09:52:20.922Z</time></trkpt><trkpt lat="42.62695753084037" lon="12.530480787926246"><ele>332.0</ele><time>2026-05-02T09:52:22.922Z</time></trkpt><trkpt lat="42.62693065988198" lon="12.530606379489356"><ele>335.1666666666667</ele><time>2026-05-02T09:52:24.922Z</time></trkpt><trkpt lat="42.62685319441565" lon="12.530612818606524"><ele>338.33333333333337</ele><time>2026-05-02T09:52:25.922Z</time></trkpt><trkpt lat="42.62677680728988" lon="12.530585868700175"><ele>341.5</ele><time>2026-05-02T09:52:26.922Z</time></trkpt><trkpt lat="42.62669986387648" lon="12.530569210162723"><ele>344.6666666666667</ele><time>2026-05-02T09:52:27.921Z</time></trkpt><trkpt lat="42.62661572985935" lon="12.530563460670496"><ele>347.8333333333333</ele><time>2026-05-02T09:52:28.921Z</time></trkpt><trkpt lat="42.62653461561731" lon="12.530565406628103"><ele>351.0</ele><time>2026-05-02T09:52:29.922Z</time></trkpt><trkpt lat="42.626451295907955" lon="12.530549644290591"><ele>351.0</ele><time>2026-05-02T09:52:30.922Z</time></trkpt><trkpt lat="42.62636842866291" lon="12.530513132468649"><ele>351.0</ele><time>2026-05-02T09:52:31.922Z</time></trkpt><trkpt lat="42.62628937432097" lon="12.530464583057205"><ele>351.0</ele><time>2026-05-02T09:52:32.922Z</time></trkpt><trkpt lat="42.62621244598122" lon="12.53042383954653"><ele>351.0</ele><time>2026-05-02T09:52:33.922Z</time></trkpt><trkpt lat="42.62613303382123" lon="12.530380668292"><ele>351.0</ele><time>2026-05-02T09:52:34.922Z</time></trkpt><trkpt lat="42.62606127563964" lon="12.530338127244505"><ele>351.0</ele><time>2026-05-02T09:52:35.921Z</time></trkpt><trkpt lat="42.625987117961785" lon="12.5303140619898"><ele>350.8333333333333</ele><time>2026-05-02T09:52:36.922Z</time></trkpt><trkpt lat="42.62591351267969" lon="12.530329922284611"><ele>350.6666666666667</ele><time>2026-05-02T09:52:37.922Z</time></trkpt><trkpt lat="42.62585975335181" lon="12.530392457921424"><ele>350.5</ele><time>2026-05-02T09:52:38.922Z</time></trkpt><trkpt lat="42.62584170634493" lon="12.530495387957492"><ele>350.33333333333337</ele><time>2026-05-02T09:52:39.922Z</time></trkpt><trkpt lat="42.62586216854504" lon="12.530607602326366"><ele>350.1666666666667</ele><time>2026-05-02T09:52:40.922Z</time></trkpt><trkpt lat="42.62588789777571" lon="12.530741631359774"><ele>350.0</ele><time>2026-05-02T09:52:41.922Z</time></trkpt><trkpt lat="42.62593511180784" lon="12.53086497559304"><ele>350.0</ele><time>2026-05-02T09:52:42.922Z</time></trkpt><trkpt lat="42.62593726023515" lon="12.531000187117677"><ele>350.0</ele><time>2026-05-02T09:52:43.922Z</time></trkpt><trkpt lat="42.625958067480816" lon="12.531141519285274"><ele>350.0</ele><time>2026-05-02T09:52:44.922Z</time></trkpt><trkpt lat="42.62599379986345" lon="12.53128583093844"><ele>350.0</ele><time>2026-05-02T09:52:45.922Z</time></trkpt><trkpt lat="42.62604928017442" lon="12.531422377940963"><ele>350.0</ele><time>2026-05-02T09:52:46.922Z</time></trkpt><trkpt lat="42.62609892328944" lon="12.531537625130612"><ele>350.8</ele><time>2026-05-02T09:52:47.922Z</time></trkpt><trkpt lat="42.62615068370205" lon="12.531651154309774"><ele>351.6</ele><time>2026-05-02T09:52:48.922Z</time></trkpt><trkpt lat="42.62619898298567" lon="12.531753356424257"><ele>352.4</ele><time>2026-05-02T09:52:49.922Z</time></trkpt><trkpt lat="42.626265190434836" lon="12.531803604553732"><ele>353.2</ele><time>2026-05-02T09:52:50.922Z</time></trkpt><trkpt lat="42.626355533647626" lon="12.531831714876285"><ele>354.0</ele><time>2026-05-02T09:52:51.922Z</time></trkpt><trkpt lat="42.62645845088158" lon="12.531842484763391"><ele>354.0</ele><time>2026-05-02T09:52:52.922Z</time></trkpt><trkpt lat="42.62656006682779" lon="12.53188803107823"><ele>354.0</ele><time>2026-05-02T09:52:53.922Z</time></trkpt><trkpt lat="42.62666550889079" lon="12.531919716827984"><ele>354.0</ele><time>2026-05-02T09:52:54.922Z</time></trkpt><trkpt lat="42.62677761530702" lon="12.531956504562151"><ele>354.0</ele><time>2026-05-02T09:52:55.922Z</time></trkpt><trkpt lat="42.62687501015649" lon="12.532012394613306"><ele>354.0</ele><time>2026-05-02T09:52:56.922Z</time></trkpt><trkpt lat="42.6269495114347" lon="12.532122855191064"><ele>354.6</ele><time>2026-05-02T09:52:57.922Z</time></trkpt><trkpt lat="42.62700628547038" lon="12.532253109711482"><ele>355.2</ele><time>2026-05-02T09:52:58.922Z</time></trkpt><trkpt lat="42.62705160461312" lon="12.532392440145289"><ele>355.8</ele><time>2026-05-02T09:52:59.922Z</time></trkpt><trkpt lat="42.62708705081491" lon="12.532530738986853"><ele>356.40000000000003</ele><time>2026-05-02T09:53:00.922Z</time></trkpt><trkpt lat="42.62711898447213" lon="12.532667726560758"><ele>357.0</ele><time>2026-05-02T09:53:01.922Z</time></trkpt><trkpt lat="42.62713185398673" lon="12.532800870904072"><ele>356.6</ele><time>2026-05-02T09:53:02.922Z</time></trkpt><trkpt lat="42.62714651719383" lon="12.532915666170709"><ele>356.20000000000005</ele><time>2026-05-02T09:53:03.922Z</time></trkpt><trkpt lat="42.6271650197948" lon="12.533042484016404"><ele>355.8</ele><time>2026-05-02T09:53:04.921Z</time></trkpt><trkpt lat="42.627182377465836" lon="12.533175496482567"><ele>355.4</ele><time>2026-05-02T09:53:05.921Z</time></trkpt><trkpt lat="42.62720158538803" lon="12.533313673415776"><ele>355.0</ele><time>2026-05-02T09:53:06.921Z</time></trkpt><trkpt lat="42.62721639349728" lon="12.533440410031444"><ele>355.0</ele><time>2026-05-02T09:53:07.921Z</time></trkpt><trkpt lat="42.62722763536444" lon="12.533558155783146"><ele>355.0</ele><time>2026-05-02T09:53:08.921Z</time></trkpt></trkseg><trkseg><trkpt lat="42.63176517592203" lon="12.55333580292669"><ele>371.0</ele><time>2026-05-02T10:17:38.887Z</time></trkpt><trkpt lat="42.6318304981279" lon="12.553324229958292"><ele>371.0</ele><time>2026-05-02T10:17:50.887Z</time></trkpt><trkpt lat="42.63180368976855" lon="12.553241632135297"><ele>371.0</ele><time>2026-05-02T10:24:50.879Z</time></trkpt><trkpt lat="42.631795191557636" lon="12.553130890316051"><ele>371.0</ele><time>2026-05-02T10:24:55.878Z</time></trkpt><trkpt lat="42.63181746368876" lon="12.553042258463721"><ele>371.0</ele><time>2026-05-02T10:24:57.878Z</time></trkpt><trkpt lat="42.63187190762738" lon="12.552957477492233"><ele>371.0</ele><time>2026-05-02T10:25:01.878Z</time></trkpt><trkpt lat="42.63195061905035" lon="12.552919712546345"><ele>371.0</ele><time>2026-05-02T10:25:03.878Z</time></trkpt><trkpt lat="42.632048386908025" lon="12.552866751642032"><ele>370.5</ele><time>2026-05-02T10:25:05.878Z</time></trkpt><trkpt lat="42.63214796970023" lon="12.55277612688506"><ele>370.0</ele><time>2026-05-02T10:25:07.878Z</time></trkpt><trkpt lat="42.632207202896694" lon="12.552724672995696"><ele>369.5</ele><time>2026-05-02T10:25:08.878Z</time></trkpt><trkpt lat="42.63227315044877" lon="12.552667708415807"><ele>369.0</ele><time>2026-05-02T10:25:09.878Z</time></trkpt><trkpt lat="42.632342202877844" lon="12.552599757693596"><ele>368.5</ele><time>2026-05-02T10:25:10.878Z</time></trkpt><trkpt lat="42.63240963306597" lon="12.552522229634679"><ele>368.0</ele><time>2026-05-02T10:25:11.878Z</time></trkpt><trkpt lat="42.63248136866273" lon="12.55244872973425"><ele>368.0</ele><time>2026-05-02T10:25:12.878Z</time></trkpt><trkpt lat="42.632550071992064" lon="12.55236363939014"><ele>368.0</ele><time>2026-05-02T10:25:13.878Z</time></trkpt><trkpt lat="42.63262700283648" lon="12.552269265484806"><ele>368.0</ele><time>2026-05-02T10:25:14.878Z</time></trkpt><trkpt lat="42.632702893142124" lon="12.552169708662825"><ele>368.0</ele><time>2026-05-02T10:25:15.878Z</time></trkpt><trkpt lat="42.63278024403743" lon="12.552078797834824"><ele>368.0</ele><time>2026-05-02T10:25:16.878Z</time></trkpt><trkpt lat="42.63286121773908" lon="12.551987647661322"><ele>367.79999999999995</ele><time>2026-05-02T10:25:17.878Z</time></trkpt><trkpt lat="42.632945081781216" lon="12.55188465125617"><ele>367.6</ele><time>2026-05-02T10:25:18.878Z</time></trkpt><trkpt lat="42.633022640215685" lon="12.551786704781124"><ele>367.4</ele><time>2026-05-02T10:25:19.878Z</time></trkpt><trkpt lat="42.63310186839936" lon="12.551688335503925"><ele>367.20000000000005</ele><time>2026-05-02T10:25:20.878Z</time></trkpt><trkpt lat="42.63318492273128" lon="12.55160026836366"><ele>367.0</ele><time>2026-05-02T10:25:21.878Z</time></trkpt><trkpt lat="42.63326050058691" lon="12.551503056494031"><ele>367.0</ele><time>2026-05-02T10:25:22.878Z</time></trkpt><trkpt lat="42.633336909878906" lon="12.551403962140586"><ele>367.0</ele><time>2026-05-02T10:25:23.878Z</time></trkpt><trkpt lat="42.63341238364154" lon="12.551300067610544"><ele>367.0</ele><time>2026-05-02T10:25:24.878Z</time></trkpt><trkpt lat="42.63349355929321" lon="12.551222142829372"><ele>367.0</ele><time>2026-05-02T10:25:25.878Z</time></trkpt><trkpt lat="42.633572822930226" lon="12.551126473292744"><ele>367.0</ele><time>2026-05-02T10:25:26.878Z</time></trkpt><trkpt lat="42.63365346365145" lon="12.551029141548314"><ele>367.0</ele><time>2026-05-02T10:25:27.878Z</time></trkpt><trkpt lat="42.63373105432107" lon="12.55093549114336"><ele>367.0</ele><time>2026-05-02T10:25:28.878Z</time></trkpt><trkpt lat="42.63380826666812" lon="12.550842297315247"><ele>367.0</ele><time>2026-05-02T10:25:29.878Z</time></trkpt><trkpt lat="42.63388798827918" lon="12.55074607509955"><ele>367.0</ele><time>2026-05-02T10:25:30.878Z</time></trkpt><trkpt lat="42.633969543109465" lon="12.550647640340834"><ele>367.0</ele><time>2026-05-02T10:25:31.878Z</time></trkpt><trkpt lat="42.63404123490951" lon="12.550533682492006"><ele>367.0</ele><time>2026-05-02T10:25:32.878Z</time></trkpt><trkpt lat="42.63413006395327" lon="12.55044790346359"><ele>367.0</ele><time>2026-05-02T10:25:33.878Z</time></trkpt><trkpt lat="42.634213621350376" lon="12.55034843022526"><ele>367.0</ele><time>2026-05-02T10:25:34.878Z</time></trkpt><trkpt lat="42.634305139052465" lon="12.55026354199322"><ele>367.0</ele><time>2026-05-02T10:25:35.878Z</time></trkpt><trkpt lat="42.634382782923076" lon="12.550158825478603"><ele>367.0</ele><time>2026-05-02T10:25:36.878Z</time></trkpt><trkpt lat="42.63446709933915" lon="12.550055381146349"><ele>366.6</ele><time>2026-05-02T10:25:37.878Z</time></trkpt><trkpt lat="42.63455311222466" lon="12.54995647641669"><ele>366.20000000000005</ele><time>2026-05-02T10:25:38.878Z</time></trkpt><trkpt lat="42.6346332516276" lon="12.54985512797892"><ele>365.8</ele><time>2026-05-02T10:25:39.878Z</time></trkpt><trkpt lat="42.63471873279646" lon="12.549750332732286"><ele>365.4</ele><time>2026-05-02T10:25:40.878Z</time></trkpt><trkpt lat="42.63479985497308" lon="12.549648464859088"><ele>365.0</ele><time>2026-05-02T10:25:41.878Z</time></trkpt><trkpt lat="42.634891816550365" lon="12.5495691119308"><ele>365.2</ele><time>2026-05-02T10:25:42.878Z</time></trkpt><trkpt lat="42.63497482083353" lon="12.549474038327425"><ele>365.4</ele><time>2026-05-02T10:25:43.878Z</time></trkpt><trkpt lat="42.63505877486815" lon="12.549377876825174"><ele>365.6</ele><time>2026-05-02T10:25:44.878Z</time></trkpt><trkpt lat="42.63515860587093" lon="12.549304155786933"><ele>365.8</ele><time>2026-05-02T10:25:45.878Z</time></trkpt><trkpt lat="42.63525642829763" lon="12.549262245796546"><ele>366.0</ele><time>2026-05-02T10:25:46.878Z</time></trkpt><trkpt lat="42.635354166988144" lon="12.549225814802094"><ele>366.0</ele><time>2026-05-02T10:25:47.878Z</time></trkpt><trkpt lat="42.635441153280915" lon="12.549197074216691"><ele>366.0</ele><time>2026-05-02T10:25:48.877Z</time></trkpt><trkpt lat="42.635524324395305" lon="12.549195904032201"><ele>366.0</ele><time>2026-05-02T10:25:49.877Z</time></trkpt><trkpt lat="42.63559390417048" lon="12.549268509375601"><ele>366.0</ele><time>2026-05-02T10:25:50.877Z</time></trkpt><trkpt lat="42.63566121731482" lon="12.549327989279531"><ele>366.0</ele><time>2026-05-02T10:25:51.877Z</time></trkpt><trkpt lat="42.63573533994742" lon="12.549393725422194"><ele>366.0</ele><time>2026-05-02T10:25:52.877Z</time></trkpt><trkpt lat="42.635811256597805" lon="12.54945768330011"><ele>366.0</ele><time>2026-05-02T10:25:53.877Z</time></trkpt><trkpt lat="42.63588704251718" lon="12.549513775780419"><ele>366.0</ele><time>2026-05-02T10:25:54.877Z</time></trkpt><trkpt lat="42.63596958295079" lon="12.549570616843008"><ele>366.0</ele><time>2026-05-02T10:25:55.877Z</time></trkpt><trkpt lat="42.636061289256766" lon="12.54962226051876"><ele>366.0</ele><time>2026-05-02T10:25:56.877Z</time></trkpt><trkpt lat="42.63615120247921" lon="12.549675062780157"><ele>366.0</ele><time>2026-05-02T10:25:57.877Z</time></trkpt><trkpt lat="42.636230282395985" lon="12.549750897390037"><ele>368.20000000000005</ele><time>2026-05-02T10:25:58.877Z</time></trkpt><trkpt lat="42.63631245993893" lon="12.549820044604166"><ele>370.40000000000003</ele><time>2026-05-02T10:25:59.877Z</time></trkpt><trkpt lat="42.636397895184885" lon="12.549890630898068"><ele>372.6</ele><time>2026-05-02T10:26:00.877Z</time></trkpt><trkpt lat="42.63648420453545" lon="12.549958034249396"><ele>374.8</ele><time>2026-05-02T10:26:01.877Z</time></trkpt><trkpt lat="42.63656964685746" lon="12.550026478758614"><ele>377.0</ele><time>2026-05-02T10:26:02.877Z</time></trkpt><trkpt lat="42.63665403690829" lon="12.550103291530725"><ele>377.0</ele><time>2026-05-02T10:26:03.877Z</time></trkpt><trkpt lat="42.63673507637232" lon="12.550176744282869"><ele>377.0</ele><time>2026-05-02T10:26:04.877Z</time></trkpt><trkpt lat="42.63681111841482" lon="12.550265063175408"><ele>377.0</ele><time>2026-05-02T10:26:05.878Z</time></trkpt><trkpt lat="42.63689010998523" lon="12.55034788258755"><ele>377.0</ele><time>2026-05-02T10:26:06.878Z</time></trkpt><trkpt lat="42.63696703705967" lon="12.550440415800399"><ele>377.0</ele><time>2026-05-02T10:26:07.877Z</time></trkpt><trkpt lat="42.637044850976984" lon="12.550517036708312"><ele>379.6</ele><time>2026-05-02T10:26:08.877Z</time></trkpt><trkpt lat="42.63712921927477" lon="12.550584577353451"><ele>382.20000000000005</ele><time>2026-05-02T10:26:09.877Z</time></trkpt><trkpt lat="42.63721920836568" lon="12.550638271696256"><ele>384.8</ele><time>2026-05-02T10:26:10.878Z</time></trkpt><trkpt lat="42.63731335543541" lon="12.550690101241461"><ele>387.4</ele><time>2026-05-02T10:26:11.878Z</time></trkpt><trkpt lat="42.63740733356668" lon="12.550745914583016"><ele>390.0</ele><time>2026-05-02T10:26:12.878Z</time></trkpt><trkpt lat="42.6374984205721" lon="12.550799962866781"><ele>390.0</ele><time>2026-05-02T10:26:13.877Z</time></trkpt><trkpt lat="42.63758233715638" lon="12.550858287552973"><ele>390.0</ele><time>2026-05-02T10:26:14.877Z</time></trkpt><trkpt lat="42.63766644882463" lon="12.550937472092683"><ele>390.0</ele><time>2026-05-02T10:26:15.877Z</time></trkpt><trkpt lat="42.63774133547296" lon="12.55102627699172"><ele>390.0</ele><time>2026-05-02T10:26:16.877Z</time></trkpt><trkpt lat="42.637811538773704" lon="12.55111886584745"><ele>390.0</ele><time>2026-05-02T10:26:17.877Z</time></trkpt><trkpt lat="42.63788626149765" lon="12.551210519381668"><ele>392.0</ele><time>2026-05-02T10:26:18.877Z</time></trkpt><trkpt lat="42.63796481334106" lon="12.551286560911436"><ele>394.0</ele><time>2026-05-02T10:26:19.877Z</time></trkpt><trkpt lat="42.638044431293466" lon="12.551342458205685"><ele>396.0</ele><time>2026-05-02T10:26:20.877Z</time></trkpt><trkpt lat="42.638129317809884" lon="12.551384587915722"><ele>398.0</ele><time>2026-05-02T10:26:21.877Z</time></trkpt><trkpt lat="42.638217767167276" lon="12.551412781698852"><ele>400.0</ele><time>2026-05-02T10:26:22.877Z</time></trkpt><trkpt lat="42.638305891247526" lon="12.55142328125402"><ele>400.00000000000006</ele><time>2026-05-02T10:26:23.877Z</time></trkpt><trkpt lat="42.63838756000253" lon="12.551449121165449"><ele>400.0</ele><time>2026-05-02T10:26:24.877Z</time></trkpt><trkpt lat="42.638463975041255" lon="12.551436315150017"><ele>400.0</ele><time>2026-05-02T10:26:25.877Z</time></trkpt><trkpt lat="42.638555475404" lon="12.551392969201931"><ele>400.0</ele><time>2026-05-02T10:26:26.877Z</time></trkpt><trkpt lat="42.638632813280374" lon="12.551352273032132"><ele>400.00000000000006</ele><time>2026-05-02T10:26:27.877Z</time></trkpt><trkpt lat="42.63871511507742" lon="12.55132397382606"><ele>400.0</ele><time>2026-05-02T10:26:28.877Z</time></trkpt><trkpt lat="42.63879153438539" lon="12.551299571936308"><ele>399.50000000000006</ele><time>2026-05-02T10:26:29.877Z</time></trkpt><trkpt lat="42.63886589934521" lon="12.551258194387467"><ele>399.0</ele><time>2026-05-02T10:26:30.877Z</time></trkpt><trkpt lat="42.63894746821665" lon="12.551261866944966"><ele>398.5</ele><time>2026-05-02T10:26:31.877Z</time></trkpt><trkpt lat="42.63902921460044" lon="12.551265515948863"><ele>398.0</ele><time>2026-05-02T10:26:32.877Z</time></trkpt><trkpt lat="42.63910500909899" lon="12.551223520515496"><ele>397.50000000000006</ele><time>2026-05-02T10:26:33.877Z</time></trkpt><trkpt lat="42.639190709979566" lon="12.55120003425429"><ele>397.0</ele><time>2026-05-02T10:26:34.877Z</time></trkpt><trkpt lat="42.639266691983494" lon="12.551200034252638"><ele>398.83333333333337</ele><time>2026-05-02T10:26:35.877Z</time></trkpt><trkpt lat="42.63934628625351" lon="12.551228768735763"><ele>400.6666666666667</ele><time>2026-05-02T10:26:36.877Z</time></trkpt><trkpt lat="42.6394251353145" lon="12.551240017718749"><ele>402.5</ele><time>2026-05-02T10:26:37.877Z</time></trkpt><trkpt lat="42.63951084798251" lon="12.55125274016816"><ele>404.33333333333337</ele><time>2026-05-02T10:26:38.877Z</time></trkpt><trkpt lat="42.63960105961417" lon="12.551270562189393"><ele>406.1666666666667</ele><time>2026-05-02T10:26:39.877Z</time></trkpt><trkpt lat="42.639692145624814" lon="12.551280757958503"><ele>408.0</ele><time>2026-05-02T10:26:40.877Z</time></trkpt><trkpt lat="42.63978428960661" lon="12.55128343325649"><ele>409.1666666666667</ele><time>2026-05-02T10:26:41.877Z</time></trkpt><trkpt lat="42.63986461461746" lon="12.55127790796949"><ele>410.33333333333337</ele><time>2026-05-02T10:26:42.877Z</time></trkpt><trkpt lat="42.63994400244724" lon="12.55128362938804"><ele>411.5</ele><time>2026-05-02T10:26:43.877Z</time></trkpt><trkpt lat="42.64002819489461" lon="12.551280004483615"><ele>412.6666666666667</ele><time>2026-05-02T10:26:44.877Z</time></trkpt><trkpt lat="42.64011117122624" lon="12.551269929222167"><ele>413.83333333333337</ele><time>2026-05-02T10:26:45.877Z</time></trkpt><trkpt lat="42.64019971312841" lon="12.551252730174255"><ele>415.0</ele><time>2026-05-02T10:26:46.877Z</time></trkpt><trkpt lat="42.640291578481566" lon="12.551232993397866"><ele>415.8</ele><time>2026-05-02T10:26:47.877Z</time></trkpt><trkpt lat="42.64038543134018" lon="12.551249132881518"><ele>416.6</ele><time>2026-05-02T10:26:48.877Z</time></trkpt><trkpt lat="42.640488335533114" lon="12.55126793513399"><ele>417.4</ele><time>2026-05-02T10:26:49.877Z</time></trkpt><trkpt lat="42.64058757038831" lon="12.551300304564487"><ele>418.2</ele><time>2026-05-02T10:26:50.877Z</time></trkpt><trkpt lat="42.64068990460431" lon="12.551319828036993"><ele>419.0</ele><time>2026-05-02T10:26:51.877Z</time></trkpt><trkpt lat="42.64078621787873" lon="12.5513148703727"><ele>419.0</ele><time>2026-05-02T10:26:52.877Z</time></trkpt><trkpt lat="42.64086563645093" lon="12.551270837360127"><ele>419.0</ele><time>2026-05-02T10:26:53.877Z</time></trkpt><trkpt lat="42.64094500617916" lon="12.551231707489595"><ele>419.0</ele><time>2026-05-02T10:26:54.877Z</time></trkpt><trkpt lat="42.641026090600114" lon="12.551199948019196"><ele>419.0</ele><time>2026-05-02T10:26:55.877Z</time></trkpt><trkpt lat="42.64110089852865" lon="12.551124641279381"><ele>419.0</ele><time>2026-05-02T10:26:56.877Z</time></trkpt><trkpt lat="42.64118756380096" lon="12.551042040439537"><ele>418.16666666666663</ele><time>2026-05-02T10:26:57.877Z</time></trkpt><trkpt lat="42.641274246916865" lon="12.550962428954357"><ele>417.3333333333333</ele><time>2026-05-02T10:26:58.877Z</time></trkpt><trkpt lat="42.64134631178157" lon="12.550914009073018"><ele>416.5</ele><time>2026-05-02T10:26:59.877Z</time></trkpt><trkpt lat="42.64141668146499" lon="12.550849040296931"><ele>415.66666666666663</ele><time>2026-05-02T10:27:00.877Z</time></trkpt><trkpt lat="42.64148728326016" lon="12.550791064238284"><ele>414.8333333333333</ele><time>2026-05-02T10:27:01.877Z</time></trkpt><trkpt lat="42.64156756478992" lon="12.550738449388687"><ele>414.0</ele><time>2026-05-02T10:27:02.876Z</time></trkpt><trkpt lat="42.64164833245514" lon="12.55069163829485"><ele>414.0</ele><time>2026-05-02T10:27:03.876Z</time></trkpt><trkpt lat="42.64174023262381" lon="12.55065891242262"><ele>414.0</ele><time>2026-05-02T10:27:04.876Z</time></trkpt><trkpt lat="42.64183137681292" lon="12.55064694352169"><ele>414.0</ele><time>2026-05-02T10:27:05.876Z</time></trkpt><trkpt lat="42.64192402157802" lon="12.550623882465468"><ele>414.0</ele><time>2026-05-02T10:27:06.876Z</time></trkpt><trkpt lat="42.64200531257355" lon="12.55058475467819"><ele>414.0</ele><time>2026-05-02T10:27:07.876Z</time></trkpt><trkpt lat="42.642077463467984" lon="12.550550270636679"><ele>414.0</ele><time>2026-05-02T10:27:08.876Z</time></trkpt><trkpt lat="42.642153517319734" lon="12.550518987198927"><ele>414.3333333333333</ele><time>2026-05-02T10:27:09.876Z</time></trkpt><trkpt lat="42.64223102457539" lon="12.550493703847497"><ele>414.66666666666663</ele><time>2026-05-02T10:27:10.876Z</time></trkpt><trkpt lat="42.6423146341566" lon="12.550481653211577"><ele>415.0</ele><time>2026-05-02T10:27:11.876Z</time></trkpt><trkpt lat="42.64237599389684" lon="12.550462289038656"><ele>415.3333333333333</ele><time>2026-05-02T10:27:12.876Z</time></trkpt><trkpt lat="42.64249795725604" lon="12.55047165183767"><ele>415.66666666666663</ele><time>2026-05-02T10:27:14.876Z</time></trkpt><trkpt lat="42.64255757277398" lon="12.550433387652138"><ele>416.0</ele><time>2026-05-02T10:27:15.876Z</time></trkpt><trkpt lat="42.64262381232738" lon="12.550414505441145"><ele>416.0</ele><time>2026-05-02T10:27:16.876Z</time></trkpt><trkpt lat="42.64275476059652" lon="12.550407348035534"><ele>416.0</ele><time>2026-05-02T10:27:18.876Z</time></trkpt><trkpt lat="42.642857383438" lon="12.550407785487673"><ele>416.0</ele><time>2026-05-02T10:27:20.876Z</time></trkpt><trkpt lat="42.64295006949593" lon="12.550412490903868"><ele>416.0</ele><time>2026-05-02T10:27:22.876Z</time></trkpt><trkpt lat="42.64302157520348" lon="12.550406049880959"><ele>416.0</ele><time>2026-05-02T10:27:24.876Z</time></trkpt><trkpt lat="42.64310261815104" lon="12.55039478154139"><ele>414.5</ele><time>2026-05-02T10:27:26.876Z</time></trkpt><trkpt lat="42.64319449560725" lon="12.55040648851523"><ele>413.0</ele><time>2026-05-02T10:27:28.876Z</time></trkpt><trkpt lat="42.643349548094385" lon="12.550968235507048"><ele>413.0</ele><time>2026-05-02T10:27:33.876Z</time></trkpt><trkpt lat="42.643379293580644" lon="12.551149069579886"><ele>413.0</ele><time>2026-05-02T10:27:35.876Z</time></trkpt><trkpt lat="42.64339918478575" lon="12.551233912119553"><ele>413.0</ele><time>2026-05-02T10:27:36.876Z</time></trkpt><trkpt lat="42.64342694610652" lon="12.551360967997724"><ele>413.0</ele><time>2026-05-02T10:27:38.876Z</time></trkpt><trkpt lat="42.64345490049876" lon="12.55146532565101"><ele>413.0</ele><time>2026-05-02T10:27:40.876Z</time></trkpt><trkpt lat="42.64346384582456" lon="12.551619303792245"><ele>413.66666666666663</ele><time>2026-05-02T10:27:57.875Z</time></trkpt><trkpt lat="42.643387151562045" lon="12.551643162520028"><ele>414.3333333333333</ele><time>2026-05-02T10:28:00.875Z</time></trkpt><trkpt lat="42.64335014900541" lon="12.551717040019978"><ele>415.0</ele><time>2026-05-02T10:28:02.875Z</time></trkpt><trkpt lat="42.6433130691207" lon="12.551808542945695"><ele>415.66666666666663</ele><time>2026-05-02T10:28:04.875Z</time></trkpt><trkpt lat="42.643314189936355" lon="12.55196377164035"><ele>416.3333333333333</ele><time>2026-05-02T10:28:10.875Z</time></trkpt><trkpt lat="42.643289512378466" lon="12.552083360774665"><ele>417.0</ele><time>2026-05-02T10:28:14.875Z</time></trkpt><trkpt lat="42.6432637352973" lon="12.551994054678312"><ele>417.0</ele><time>2026-05-02T10:28:49.874Z</time></trkpt><trkpt lat="42.64326174042221" lon="12.551905809630838"><ele>417.0</ele><time>2026-05-02T10:29:20.873Z</time></trkpt><trkpt lat="42.643291115056044" lon="12.551829847181901"><ele>417.0</ele><time>2026-05-02T10:29:22.873Z</time></trkpt><trkpt lat="42.64333047281532" lon="12.551749288416254"><ele>417.0</ele><time>2026-05-02T10:29:25.873Z</time></trkpt><trkpt lat="42.643375728304456" lon="12.551677467439541"><ele>417.0</ele><time>2026-05-02T10:29:28.873Z</time></trkpt><trkpt lat="42.64346336185061" lon="12.55169715373291"><ele>417.0</ele><time>2026-05-02T10:29:32.873Z</time></trkpt><trkpt lat="42.64352253021721" lon="12.551824231128615"><ele>417.0</ele><time>2026-05-02T10:29:34.873Z</time></trkpt><trkpt lat="42.64355357310741" lon="12.551997880619972"><ele>417.0</ele><time>2026-05-02T10:29:36.873Z</time></trkpt><trkpt lat="42.643556664525846" lon="12.552112679526756"><ele>417.0</ele><time>2026-05-02T10:29:37.873Z</time></trkpt><trkpt lat="42.643560416384155" lon="12.55224533463986"><ele>417.0</ele><time>2026-05-02T10:29:38.873Z</time></trkpt><trkpt lat="42.643561306356304" lon="12.552381631206249"><ele>417.0</ele><time>2026-05-02T10:29:39.873Z</time></trkpt><trkpt lat="42.64356046379819" lon="12.552507226836644"><ele>417.5</ele><time>2026-05-02T10:29:40.873Z</time></trkpt><trkpt lat="42.64356676714666" lon="12.55263725358741"><ele>418.0</ele><time>2026-05-02T10:29:41.873Z</time></trkpt><trkpt lat="42.643577191810174" lon="12.552754367974886"><ele>418.5</ele><time>2026-05-02T10:29:42.873Z</time></trkpt><trkpt lat="42.64359110845127" lon="12.55286479857633"><ele>419.0</ele><time>2026-05-02T10:29:43.873Z</time></trkpt><trkpt lat="42.64360067003491" lon="12.552975442268648"><ele>419.5</ele><time>2026-05-02T10:29:44.873Z</time></trkpt><trkpt lat="42.6436087955407" lon="12.55306374990548"><ele>420.0</ele><time>2026-05-02T10:29:45.873Z</time></trkpt><trkpt lat="42.64361460920809" lon="12.553162223111006"><ele>419.8</ele><time>2026-05-02T10:29:46.873Z</time></trkpt><trkpt lat="42.64361884568902" lon="12.55324790024466"><ele>419.6</ele><time>2026-05-02T10:29:47.873Z</time></trkpt><trkpt lat="42.64362658194609" lon="12.5533828902828"><ele>419.4</ele><time>2026-05-02T10:29:49.873Z</time></trkpt><trkpt lat="42.64363286761111" lon="12.55352209631159"><ele>419.2</ele><time>2026-05-02T10:29:51.873Z</time></trkpt><trkpt lat="42.64361636712673" lon="12.553613471282047"><ele>419.0</ele><time>2026-05-02T10:29:52.873Z</time></trkpt><trkpt lat="42.64356282832366" lon="12.553753492460375"><ele>419.6</ele><time>2026-05-02T10:29:54.873Z</time></trkpt><trkpt lat="42.64353727895576" lon="12.553865057585778"><ele>420.2</ele><time>2026-05-02T10:29:56.873Z</time></trkpt><trkpt lat="42.64357552853789" lon="12.554034869888508"><ele>420.8</ele><time>2026-05-02T10:29:58.873Z</time></trkpt><trkpt lat="42.6435949569443" lon="12.554138506673214"><ele>421.40000000000003</ele><time>2026-05-02T10:29:59.873Z</time></trkpt><trkpt lat="42.64361178962828" lon="12.554264463025707"><ele>422.0</ele><time>2026-05-02T10:30:00.873Z</time></trkpt><trkpt lat="42.643647180019094" lon="12.554396970216173"><ele>421.99999999999994</ele><time>2026-05-02T10:30:01.873Z</time></trkpt><trkpt lat="42.64368463507378" lon="12.554521352240007"><ele>422.0</ele><time>2026-05-02T10:30:02.873Z</time></trkpt><trkpt lat="42.64371505988547" lon="12.554632149469413"><ele>422.0</ele><time>2026-05-02T10:30:03.873Z</time></trkpt><trkpt lat="42.64372854995669" lon="12.554741239638243"><ele>422.0</ele><time>2026-05-02T10:30:04.873Z</time></trkpt><trkpt lat="42.64374768111064" lon="12.554829972632668"><ele>421.99999999999994</ele><time>2026-05-02T10:30:05.873Z</time></trkpt><trkpt lat="42.643753098514274" lon="12.554930389613801"><ele>422.0</ele><time>2026-05-02T10:30:06.873Z</time></trkpt><trkpt lat="42.643757877487516" lon="12.555027919876002"><ele>421.99999999999994</ele><time>2026-05-02T10:30:07.873Z</time></trkpt><trkpt lat="42.64376580893647" lon="12.555165469749396"><ele>422.0</ele><time>2026-05-02T10:30:08.872Z</time></trkpt><trkpt lat="42.64376231657973" lon="12.555289097355033"><ele>422.0</ele><time>2026-05-02T10:30:09.872Z</time></trkpt><trkpt lat="42.64375761679707" lon="12.55540515539456"><ele>422.0</ele><time>2026-05-02T10:30:10.872Z</time></trkpt><trkpt lat="42.64376032084595" lon="12.555521674156951"><ele>421.99999999999994</ele><time>2026-05-02T10:30:11.872Z</time></trkpt><trkpt lat="42.64376173092599" lon="12.555631620327802"><ele>422.0</ele><time>2026-05-02T10:30:12.872Z</time></trkpt><trkpt lat="42.64376081871458" lon="12.555729878966389"><ele>421.16666666666663</ele><time>2026-05-02T10:30:13.873Z</time></trkpt><trkpt lat="42.643765969902624" lon="12.555828950813511"><ele>420.3333333333333</ele><time>2026-05-02T10:30:14.873Z</time></trkpt><trkpt lat="42.64376752132915" lon="12.555932266900875"><ele>419.5</ele><time>2026-05-02T10:30:15.873Z</time></trkpt><trkpt lat="42.643779149049074" lon="12.556067029333208"><ele>418.66666666666663</ele><time>2026-05-02T10:30:16.872Z</time></trkpt><trkpt lat="42.64378053388873" lon="12.556190967968986"><ele>417.8333333333333</ele><time>2026-05-02T10:30:17.873Z</time></trkpt><trkpt lat="42.64378022658183" lon="12.556323922908467"><ele>417.0</ele><time>2026-05-02T10:30:18.873Z</time></trkpt><trkpt lat="42.64378552664463" lon="12.556474810688137"><ele>417.0</ele><time>2026-05-02T10:30:20.873Z</time></trkpt><trkpt lat="42.643742373774074" lon="12.556558846925057"><ele>417.0</ele><time>2026-05-02T10:30:24.873Z</time></trkpt><trkpt lat="42.64366182739267" lon="12.556589874051776"><ele>417.0</ele><time>2026-05-02T10:30:26.872Z</time></trkpt><trkpt lat="42.64358093040971" lon="12.556605598174684"><ele>417.0</ele><time>2026-05-02T10:30:28.872Z</time></trkpt><trkpt lat="42.643486667174045" lon="12.55663306177819"><ele>417.0</ele><time>2026-05-02T10:30:30.872Z</time></trkpt><trkpt lat="42.64339157546901" lon="12.556685791567237"><ele>417.0</ele><time>2026-05-02T10:30:32.872Z</time></trkpt><trkpt lat="42.64329666245275" lon="12.556717134708473"><ele>418.40000000000003</ele><time>2026-05-02T10:30:34.872Z</time></trkpt><trkpt lat="42.64320870122966" lon="12.556769252575315"><ele>419.8</ele><time>2026-05-02T10:30:36.872Z</time></trkpt><trkpt lat="42.64312479664727" lon="12.55682744229885"><ele>421.2</ele><time>2026-05-02T10:30:38.872Z</time></trkpt><trkpt lat="42.64303056538516" lon="12.556893831619973"><ele>422.6</ele><time>2026-05-02T10:30:40.872Z</time></trkpt><trkpt lat="42.642928250220095" lon="12.556974124531015"><ele>424.0</ele><time>2026-05-02T10:30:42.872Z</time></trkpt><trkpt lat="42.642871248955444" lon="12.557010631769355"><ele>423.6</ele><time>2026-05-02T10:30:43.872Z</time></trkpt><trkpt lat="42.64281732759269" lon="12.557057372483818"><ele>423.2</ele><time>2026-05-02T10:30:44.872Z</time></trkpt><trkpt lat="42.64271644457404" lon="12.557146727931997"><ele>422.8</ele><time>2026-05-02T10:30:46.872Z</time></trkpt><trkpt lat="42.64262648620274" lon="12.557287580845589"><ele>422.40000000000003</ele><time>2026-05-02T10:30:48.872Z</time></trkpt><trkpt lat="42.64257121898134" lon="12.557371898631612"><ele>422.0</ele><time>2026-05-02T10:30:49.872Z</time></trkpt><trkpt lat="42.64251495417646" lon="12.557459719020708"><ele>422.99999999999994</ele><time>2026-05-02T10:30:50.872Z</time></trkpt><trkpt lat="42.64246782670573" lon="12.55753655252792"><ele>424.0</ele><time>2026-05-02T10:30:51.872Z</time></trkpt><trkpt lat="42.642417874309814" lon="12.557624997179188"><ele>425.0</ele><time>2026-05-02T10:30:52.872Z</time></trkpt><trkpt lat="42.642363358985946" lon="12.557714442350726"><ele>426.0</ele><time>2026-05-02T10:30:53.872Z</time></trkpt><trkpt lat="42.642298879192595" lon="12.557802930945837"><ele>426.99999999999994</ele><time>2026-05-02T10:30:54.872Z</time></trkpt><trkpt lat="42.64224134987549" lon="12.557883969502873"><ele>428.0</ele><time>2026-05-02T10:30:55.872Z</time></trkpt><trkpt lat="42.642186885073656" lon="12.557956199314287"><ele>427.99999999999994</ele><time>2026-05-02T10:30:56.872Z</time></trkpt><trkpt lat="42.64214089067174" lon="12.558059800120047"><ele>428.0</ele><time>2026-05-02T10:30:57.872Z</time></trkpt><trkpt lat="42.642087471770765" lon="12.558156029980175"><ele>428.0</ele><time>2026-05-02T10:30:58.872Z</time></trkpt><trkpt lat="42.64203359497032" lon="12.558238300697006"><ele>428.0</ele><time>2026-05-02T10:30:59.872Z</time></trkpt><trkpt lat="42.641983156349724" lon="12.558313267475397"><ele>427.99999999999994</ele><time>2026-05-02T10:31:00.872Z</time></trkpt><trkpt lat="42.64193046835676" lon="12.558401916895745"><ele>428.0</ele><time>2026-05-02T10:31:01.872Z</time></trkpt><trkpt lat="42.64186997383151" lon="12.558483154129508"><ele>430.4</ele><time>2026-05-02T10:31:02.872Z</time></trkpt><trkpt lat="42.64181167507545" lon="12.558567948662372"><ele>432.79999999999995</ele><time>2026-05-02T10:31:03.872Z</time></trkpt><trkpt lat="42.64174350534583" lon="12.558656313302437"><ele>435.2</ele><time>2026-05-02T10:31:04.872Z</time></trkpt><trkpt lat="42.641692092761225" lon="12.558720884702586"><ele>437.6</ele><time>2026-05-02T10:31:05.872Z</time></trkpt><trkpt lat="42.641639966340286" lon="12.558831172923359"><ele>440.0</ele><time>2026-05-02T10:31:07.872Z</time></trkpt><trkpt lat="42.64155556119368" lon="12.558930472422889"><ele>440.3333333333333</ele><time>2026-05-02T10:31:14.871Z</time></trkpt><trkpt lat="42.64152080565116" lon="12.559006776231678"><ele>440.66666666666663</ele><time>2026-05-02T10:31:16.871Z</time></trkpt><trkpt lat="42.64154933298421" lon="12.55909643658664"><ele>441.0</ele><time>2026-05-02T10:31:22.871Z</time></trkpt><trkpt lat="42.64154539970093" lon="12.559209898565578"><ele>441.33333333333337</ele><time>2026-05-02T10:31:24.871Z</time></trkpt><trkpt lat="42.6415723851571" lon="12.559318256414382"><ele>441.6666666666667</ele><time>2026-05-02T10:31:27.871Z</time></trkpt><trkpt lat="42.64160702448031" lon="12.559411545586427"><ele>442.0</ele><time>2026-05-02T10:31:29.871Z</time></trkpt><trkpt lat="42.641620958782106" lon="12.559519992843759"><ele>443.6666666666667</ele><time>2026-05-02T10:31:31.871Z</time></trkpt><trkpt lat="42.641564674859" lon="12.559574163581658"><ele>445.33333333333337</ele><time>2026-05-02T10:31:35.871Z</time></trkpt><trkpt lat="42.64152241259785" lon="12.559644630650164"><ele>447.0</ele><time>2026-05-02T10:31:39.871Z</time></trkpt><trkpt lat="42.64145205370103" lon="12.559665740976458"><ele>448.66666666666663</ele><time>2026-05-02T10:31:54.871Z</time></trkpt><trkpt lat="42.64135453755935" lon="12.559616053838372"><ele>450.3333333333333</ele><time>2026-05-02T10:31:57.871Z</time></trkpt><trkpt lat="42.641271681842106" lon="12.559623426917302"><ele>452.0</ele><time>2026-05-02T10:31:59.871Z</time></trkpt><trkpt lat="42.641189874123945" lon="12.559660122459352"><ele>452.0</ele><time>2026-05-02T10:32:01.871Z</time></trkpt><trkpt lat="42.64113384811176" lon="12.559716218516801"><ele>452.00000000000006</ele><time>2026-05-02T10:32:03.871Z</time></trkpt><trkpt lat="42.64117361074118" lon="12.559840313460434"><ele>452.00000000000006</ele><time>2026-05-02T10:32:06.87Z</time></trkpt><trkpt lat="42.64122709967017" lon="12.559904348538833"><ele>452.0</ele><time>2026-05-02T10:32:12.87Z</time></trkpt><trkpt lat="42.64131455508195" lon="12.559955032707323"><ele>452.0</ele><time>2026-05-02T10:32:14.87Z</time></trkpt><trkpt lat="42.64142415806206" lon="12.560011492674418"><ele>451.99999999999994</ele><time>2026-05-02T10:32:16.87Z</time></trkpt><trkpt lat="42.64147414303898" lon="12.56006449554759"><ele>452.0</ele><time>2026-05-02T10:32:17.87Z</time></trkpt><trkpt lat="42.64153348964965" lon="12.5601536116404"><ele>452.0</ele><time>2026-05-02T10:32:19.871Z</time></trkpt><trkpt lat="42.641592102612705" lon="12.560263554114831"><ele>452.0</ele><time>2026-05-02T10:32:21.871Z</time></trkpt><trkpt lat="42.641639628369695" lon="12.560349548131871"><ele>451.99999999999994</ele><time>2026-05-02T10:32:23.87Z</time></trkpt><trkpt lat="42.64166995304646" lon="12.560462355872852"><ele>452.0</ele><time>2026-05-02T10:32:25.87Z</time></trkpt><trkpt lat="42.64168403498858" lon="12.560546559379635"><ele>452.99999999999994</ele><time>2026-05-02T10:32:30.87Z</time></trkpt><trkpt lat="42.6417244221645" lon="12.560612506407823"><ele>454.0</ele><time>2026-05-02T10:32:39.87Z</time></trkpt><trkpt lat="42.641768225719275" lon="12.560710445722009"><ele>455.0</ele><time>2026-05-02T10:32:41.87Z</time></trkpt><trkpt lat="42.64179132918483" lon="12.560822749488361"><ele>456.0</ele><time>2026-05-02T10:32:43.87Z</time></trkpt><trkpt lat="42.64184961343493" lon="12.56086616458114"><ele>456.99999999999994</ele><time>2026-05-02T10:32:46.87Z</time></trkpt><trkpt lat="42.64191391186277" lon="12.560936490571915"><ele>458.0</ele><time>2026-05-02T10:32:48.87Z</time></trkpt><trkpt lat="42.64191146011635" lon="12.561079198200485"><ele>457.49999999999994</ele><time>2026-05-02T10:32:50.87Z</time></trkpt><trkpt lat="42.641903034049456" lon="12.561219051345882"><ele>457.0</ele><time>2026-05-02T10:32:52.87Z</time></trkpt><trkpt lat="42.64191556721665" lon="12.561381643524244"><ele>456.5</ele><time>2026-05-02T10:32:54.87Z</time></trkpt><trkpt lat="42.64191187669008" lon="12.561467285134611"><ele>456.0</ele><time>2026-05-02T10:32:55.87Z</time></trkpt><trkpt lat="42.641901966527975" lon="12.56157467103583"><ele>455.49999999999994</ele><time>2026-05-02T10:32:56.87Z</time></trkpt><trkpt lat="42.64189350311476" lon="12.561684288066987"><ele>455.0</ele><time>2026-05-02T10:32:57.87Z</time></trkpt><trkpt lat="42.64188298562002" lon="12.561790628480699"><ele>455.0</ele><time>2026-05-02T10:32:58.87Z</time></trkpt><trkpt lat="42.641896153299584" lon="12.561930645205203"><ele>455.0</ele><time>2026-05-02T10:33:00.87Z</time></trkpt><trkpt lat="42.6418541653311" lon="12.562004584361347"><ele>455.0</ele><time>2026-05-02T10:33:02.87Z</time></trkpt><trkpt lat="42.64176271549451" lon="12.562070190233525"><ele>455.0</ele><time>2026-05-02T10:33:04.87Z</time></trkpt><trkpt lat="42.64163775829456" lon="12.562097329629951"><ele>455.0</ele><time>2026-05-02T10:33:06.87Z</time></trkpt><trkpt lat="42.641573426751" lon="12.562103895211626"><ele>454.8</ele><time>2026-05-02T10:33:07.87Z</time></trkpt><trkpt lat="42.64147623919782" lon="12.562130485735924"><ele>454.6</ele><time>2026-05-02T10:33:09.87Z</time></trkpt><trkpt lat="42.64139768840007" lon="12.562213088429642"><ele>454.4</ele><time>2026-05-02T10:33:11.869Z</time></trkpt><trkpt lat="42.6412797599728" lon="12.562245176357182"><ele>454.2</ele><time>2026-05-02T10:33:13.869Z</time></trkpt><trkpt lat="42.64120099230752" lon="12.562217633470574"><ele>454.0</ele><time>2026-05-02T10:33:14.869Z</time></trkpt><trkpt lat="42.64111351816242" lon="12.562222163264616"><ele>454.50000000000006</ele><time>2026-05-02T10:33:15.869Z</time></trkpt><trkpt lat="42.641029494998925" lon="12.562269872332807"><ele>455.0</ele><time>2026-05-02T10:33:16.869Z</time></trkpt><trkpt lat="42.640956518025334" lon="12.562309167686522"><ele>455.5</ele><time>2026-05-02T10:33:17.869Z</time></trkpt><trkpt lat="42.64087073076327" lon="12.562321154838568"><ele>456.0</ele><time>2026-05-02T10:33:18.869Z</time></trkpt><trkpt lat="42.64077830515689" lon="12.562287704405797"><ele>456.50000000000006</ele><time>2026-05-02T10:33:19.869Z</time></trkpt><trkpt lat="42.6406855925235" lon="12.562251843675648"><ele>457.0</ele><time>2026-05-02T10:33:20.869Z</time></trkpt><trkpt lat="42.64059382015429" lon="12.56220319091162"><ele>457.00000000000006</ele><time>2026-05-02T10:33:21.869Z</time></trkpt><trkpt lat="42.64051681921277" lon="12.562156076287065"><ele>457.0</ele><time>2026-05-02T10:33:22.869Z</time></trkpt><trkpt lat="42.64043805373186" lon="12.562109416922343"><ele>457.0</ele><time>2026-05-02T10:33:24.869Z</time></trkpt><trkpt lat="42.64035552138543" lon="12.562108391647335"><ele>457.0</ele><time>2026-05-02T10:33:29.869Z</time></trkpt><trkpt lat="42.64026248124131" lon="12.56210830801448"><ele>457.00000000000006</ele><time>2026-05-02T10:33:31.869Z</time></trkpt><trkpt lat="42.640197810164175" lon="12.562100653441982"><ele>457.0</ele><time>2026-05-02T10:33:32.869Z</time></trkpt><trkpt lat="42.64005929992003" lon="12.562090631811989"><ele>458.40000000000003</ele><time>2026-05-02T10:33:34.869Z</time></trkpt><trkpt lat="42.63997374906911" lon="12.56210464441485"><ele>459.80000000000007</ele><time>2026-05-02T10:33:35.869Z</time></trkpt><trkpt lat="42.639892285876215" lon="12.562166093419089"><ele>461.2</ele><time>2026-05-02T10:33:36.869Z</time></trkpt><trkpt lat="42.6398007931251" lon="12.562242232843717"><ele>462.6</ele><time>2026-05-02T10:33:37.869Z</time></trkpt><trkpt lat="42.639720256271275" lon="12.562298678797662"><ele>464.0</ele><time>2026-05-02T10:33:38.869Z</time></trkpt><trkpt lat="42.639645823688944" lon="12.562352475490773"><ele>464.0</ele><time>2026-05-02T10:33:39.869Z</time></trkpt><trkpt lat="42.639576349773314" lon="12.562437064460054"><ele>464.0</ele><time>2026-05-02T10:33:40.869Z</time></trkpt><trkpt lat="42.63952291586094" lon="12.562549946293355"><ele>464.0</ele><time>2026-05-02T10:33:41.869Z</time></trkpt><trkpt lat="42.63949842872784" lon="12.562686597114487"><ele>464.0</ele><time>2026-05-02T10:33:42.869Z</time></trkpt><trkpt lat="42.639481970204976" lon="12.562835378653892"><ele>464.0</ele><time>2026-05-02T10:33:43.869Z</time></trkpt><trkpt lat="42.63945863311001" lon="12.562992769606755"><ele>464.6</ele><time>2026-05-02T10:33:44.869Z</time></trkpt><trkpt lat="42.63942236456398" lon="12.563138932132578"><ele>465.2</ele><time>2026-05-02T10:33:45.869Z</time></trkpt><trkpt lat="42.639379388476186" lon="12.563275072430446"><ele>465.80000000000007</ele><time>2026-05-02T10:33:46.869Z</time></trkpt><trkpt lat="42.63933438822726" lon="12.563403721140261"><ele>466.40000000000003</ele><time>2026-05-02T10:33:47.869Z</time></trkpt><trkpt lat="42.63929645691276" lon="12.563539336276772"><ele>467.0</ele><time>2026-05-02T10:33:48.869Z</time></trkpt><trkpt lat="42.639260713485186" lon="12.563676567594095"><ele>468.8</ele><time>2026-05-02T10:33:49.869Z</time></trkpt><trkpt lat="42.63923363678138" lon="12.563816279702802"><ele>470.6</ele><time>2026-05-02T10:33:50.869Z</time></trkpt><trkpt lat="42.63921433961152" lon="12.563959442315776"><ele>472.40000000000003</ele><time>2026-05-02T10:33:51.869Z</time></trkpt><trkpt lat="42.6391793075927" lon="12.564098922372095"><ele>474.20000000000005</ele><time>2026-05-02T10:33:52.869Z</time></trkpt><trkpt lat="42.63914256520792" lon="12.564206264928465"><ele>476.0</ele><time>2026-05-02T10:33:53.869Z</time></trkpt><trkpt lat="42.63909913445092" lon="12.564318784835743"><ele>475.99999999999994</ele><time>2026-05-02T10:33:54.869Z</time></trkpt><trkpt lat="42.63906152104383" lon="12.564448533490538"><ele>476.0</ele><time>2026-05-02T10:33:55.869Z</time></trkpt><trkpt lat="42.63902905728435" lon="12.564554700815085"><ele>476.0</ele><time>2026-05-02T10:33:56.869Z</time></trkpt><trkpt lat="42.63898242157173" lon="12.564645402869107"><ele>476.0</ele><time>2026-05-02T10:33:57.869Z</time></trkpt><trkpt lat="42.638920048448384" lon="12.564726275391566"><ele>475.99999999999994</ele><time>2026-05-02T10:33:58.869Z</time></trkpt><trkpt lat="42.63885583835155" lon="12.564816387162248"><ele>476.0</ele><time>2026-05-02T10:33:59.869Z</time></trkpt><trkpt lat="42.63881857242805" lon="12.564911253800163"><ele>478.3333333333333</ele><time>2026-05-02T10:34:00.869Z</time></trkpt><trkpt lat="42.63876978318574" lon="12.564988473427421"><ele>480.66666666666663</ele><time>2026-05-02T10:34:01.869Z</time></trkpt><trkpt lat="42.63870734854766" lon="12.565085145247124"><ele>483.0</ele><time>2026-05-02T10:34:02.869Z</time></trkpt><trkpt lat="42.638660526511494" lon="12.56518704496715"><ele>485.33333333333337</ele><time>2026-05-02T10:34:03.869Z</time></trkpt><trkpt lat="42.638632544482164" lon="12.565298013510265"><ele>487.6666666666667</ele><time>2026-05-02T10:34:04.868Z</time></trkpt><trkpt lat="42.638591095080855" lon="12.565378617805113"><ele>490.0</ele><time>2026-05-02T10:34:05.867Z</time></trkpt><trkpt lat="42.63852548900941" lon="12.565429322424611"><ele>493.8</ele><time>2026-05-02T10:34:06.865Z</time></trkpt><trkpt lat="42.63843784938493" lon="12.565473034229717"><ele>497.6</ele><time>2026-05-02T10:34:07.864Z</time></trkpt><trkpt lat="42.638328454759225" lon="12.565517563047216"><ele>501.4</ele><time>2026-05-02T10:34:08.863Z</time></trkpt><trkpt lat="42.638206512831644" lon="12.565543300152884"><ele>505.2</ele><time>2026-05-02T10:34:09.862Z</time></trkpt><trkpt lat="42.638093445573524" lon="12.565555426307423"><ele>509.0</ele><time>2026-05-02T10:34:10.861Z</time></trkpt><trkpt lat="42.63798474380855" lon="12.565561906409584"><ele>509.0</ele><time>2026-05-02T10:34:11.86Z</time></trkpt><trkpt lat="42.63790652269379" lon="12.565572143803385"><ele>509.0</ele><time>2026-05-02T10:34:12.859Z</time></trkpt><trkpt lat="42.637821429474755" lon="12.56557233566051"><ele>509.0</ele><time>2026-05-02T10:34:13.858Z</time></trkpt><trkpt lat="42.637732052989605" lon="12.565591212320559"><ele>509.0</ele><time>2026-05-02T10:34:14.857Z</time></trkpt><trkpt lat="42.637623124089984" lon="12.56562197796636"><ele>509.0</ele><time>2026-05-02T10:34:15.856Z</time></trkpt><trkpt lat="42.63753021457671" lon="12.565653732232096"><ele>509.16666666666663</ele><time>2026-05-02T10:34:16.856Z</time></trkpt><trkpt lat="42.63745239411428" lon="12.565668185065"><ele>509.3333333333333</ele><time>2026-05-02T10:34:17.855Z</time></trkpt><trkpt lat="42.637381502332765" lon="12.565693775475792"><ele>509.5</ele><time>2026-05-02T10:34:18.854Z</time></trkpt><trkpt lat="42.637343428410325" lon="12.565772293310495"><ele>509.66666666666663</ele><time>2026-05-02T10:34:19.854Z</time></trkpt><trkpt lat="42.637337179726956" lon="12.56587011732182"><ele>509.8333333333333</ele><time>2026-05-02T10:34:20.853Z</time></trkpt><trkpt lat="42.63739124221471" lon="12.565978502429315"><ele>510.0</ele><time>2026-05-02T10:34:21.853Z</time></trkpt><trkpt lat="42.637471044428764" lon="12.566055104809433"><ele>510.0</ele><time>2026-05-02T10:34:22.852Z</time></trkpt><trkpt lat="42.63757237803329" lon="12.56610151002068"><ele>510.0</ele><time>2026-05-02T10:34:23.852Z</time></trkpt><trkpt lat="42.63764365028249" lon="12.566125879935074"><ele>510.0</ele><time>2026-05-02T10:34:24.851Z</time></trkpt><trkpt lat="42.6377644098334" lon="12.566174707307546"><ele>510.0</ele><time>2026-05-02T10:34:26.851Z</time></trkpt><trkpt lat="42.63787671173059" lon="12.566239092198856"><ele>510.0</ele><time>2026-05-02T10:34:28.85Z</time></trkpt><trkpt lat="42.63795277286831" lon="12.566261524517737"><ele>514.3333333333334</ele><time>2026-05-02T10:34:29.849Z</time></trkpt><trkpt lat="42.638018341594574" lon="12.566277911460242"><ele>518.6666666666666</ele><time>2026-05-02T10:34:30.849Z</time></trkpt><trkpt lat="42.63810230469798" lon="12.566288229316411"><ele>523.0</ele><time>2026-05-02T10:34:31.849Z</time></trkpt><trkpt lat="42.63818408573348" lon="12.566319651921606"><ele>527.3333333333333</ele><time>2026-05-02T10:34:32.848Z</time></trkpt><trkpt lat="42.63825488480466" lon="12.566324814231654"><ele>531.6666666666666</ele><time>2026-05-02T10:34:33.848Z</time></trkpt><trkpt lat="42.63832294873565" lon="12.566305258380366"><ele>536.0</ele><time>2026-05-02T10:34:34.848Z</time></trkpt><trkpt lat="42.63840673581669" lon="12.56627287310185"><ele>536.0</ele><time>2026-05-02T10:34:35.848Z</time></trkpt><trkpt lat="42.63848244231408" lon="12.566210787568819"><ele>536.0</ele><time>2026-05-02T10:34:36.847Z</time></trkpt><trkpt lat="42.638557165758" lon="12.56617438223585"><ele>536.0</ele><time>2026-05-02T10:34:37.847Z</time></trkpt><trkpt lat="42.6386373490282" lon="12.56613084362857"><ele>536.0</ele><time>2026-05-02T10:34:38.847Z</time></trkpt><trkpt lat="42.63870674338709" lon="12.566111819806652"><ele>536.0</ele><time>2026-05-02T10:34:39.847Z</time></trkpt><trkpt lat="42.638785198146415" lon="12.566081339382551"><ele>536.0</ele><time>2026-05-02T10:34:40.847Z</time></trkpt><trkpt lat="42.63885400566036" lon="12.566067851147244"><ele>536.6666666666666</ele><time>2026-05-02T10:34:41.846Z</time></trkpt><trkpt lat="42.63893922708614" lon="12.566082564843898"><ele>537.3333333333333</ele><time>2026-05-02T10:34:42.846Z</time></trkpt><trkpt lat="42.63902028739872" lon="12.566107239764532"><ele>538.0</ele><time>2026-05-02T10:34:43.846Z</time></trkpt><trkpt lat="42.639093344931204" lon="12.56613307522871"><ele>538.6666666666666</ele><time>2026-05-02T10:34:44.846Z</time></trkpt><trkpt lat="42.63916779705585" lon="12.566155146879687"><ele>539.3333333333334</ele><time>2026-05-02T10:34:45.846Z</time></trkpt><trkpt lat="42.63923593548398" lon="12.56615902119778"><ele>540.0</ele><time>2026-05-02T10:34:46.846Z</time></trkpt><trkpt lat="42.639321208447534" lon="12.566195066731627"><ele>540.25</ele><time>2026-05-02T10:34:47.846Z</time></trkpt><trkpt lat="42.6394767671225" lon="12.566219861660535"><ele>540.5</ele><time>2026-05-02T10:34:49.845Z</time></trkpt><trkpt lat="42.63956790168248" lon="12.566219665627315"><ele>540.75</ele><time>2026-05-02T10:34:50.845Z</time></trkpt><trkpt lat="42.63967578708993" lon="12.566231990281272"><ele>541.0</ele><time>2026-05-02T10:34:51.845Z</time></trkpt><trkpt lat="42.63978912925775" lon="12.56624336576057"><ele>541.0</ele><time>2026-05-02T10:34:52.845Z</time></trkpt><trkpt lat="42.63989221017543" lon="12.566256727771355"><ele>541.0</ele><time>2026-05-02T10:34:53.845Z</time></trkpt><trkpt lat="42.63999581679577" lon="12.566275275246417"><ele>541.0</ele><time>2026-05-02T10:34:54.845Z</time></trkpt><trkpt lat="42.64010544291188" lon="12.56630022779562"><ele>541.0</ele><time>2026-05-02T10:34:55.845Z</time></trkpt><trkpt lat="42.640199187805536" lon="12.566319906685267"><ele>541.0</ele><time>2026-05-02T10:34:56.845Z</time></trkpt><trkpt lat="42.64026809224568" lon="12.566348488944572"><ele>541.0000000000001</ele><time>2026-05-02T10:34:57.845Z</time></trkpt><trkpt lat="42.640336437278116" lon="12.56638513014161"><ele>541.0</ele><time>2026-05-02T10:34:58.845Z</time></trkpt><trkpt lat="42.64039695751282" lon="12.566418895386406"><ele>541.0</ele><time>2026-05-02T10:34:59.845Z</time></trkpt><trkpt lat="42.64046022262559" lon="12.566444078267534"><ele>541.0</ele><time>2026-05-02T10:35:00.844Z</time></trkpt><trkpt lat="42.64052533966875" lon="12.566477782427466"><ele>541.0</ele><time>2026-05-02T10:35:01.844Z</time></trkpt><trkpt lat="42.640576610355645" lon="12.566560116690477"><ele>541.0000000000001</ele><time>2026-05-02T10:35:02.844Z</time></trkpt><trkpt lat="42.64061064219826" lon="12.566648197259157"><ele>541.0</ele><time>2026-05-02T10:35:03.844Z</time></trkpt><trkpt lat="42.64061218186299" lon="12.566740448050583"><ele>541.0</ele><time>2026-05-02T10:35:04.844Z</time></trkpt><trkpt lat="42.64054891056535" lon="12.566871299453169"><ele>541.0</ele><time>2026-05-02T10:35:06.844Z</time></trkpt><trkpt lat="42.64046238200239" lon="12.566888343009959"><ele>541.0</ele><time>2026-05-02T10:35:07.844Z</time></trkpt><trkpt lat="42.64038352838424" lon="12.566880282052344"><ele>541.0</ele><time>2026-05-02T10:35:08.844Z</time></trkpt><trkpt lat="42.6403054442702" lon="12.566887991403119"><ele>541.0</ele><time>2026-05-02T10:35:09.844Z</time></trkpt><trkpt lat="42.6402233704693" lon="12.56690070786922"><ele>541.0</ele><time>2026-05-02T10:35:10.844Z</time></trkpt><trkpt lat="42.640144642094725" lon="12.56693169696005"><ele>541.0</ele><time>2026-05-02T10:35:11.844Z</time></trkpt><trkpt lat="42.640056483754215" lon="12.566966961946104"><ele>541.0</ele><time>2026-05-02T10:35:12.844Z</time></trkpt><trkpt lat="42.63995925048238" lon="12.567002076355017"><ele>541.0</ele><time>2026-05-02T10:35:13.844Z</time></trkpt><trkpt lat="42.63985666662589" lon="12.567036031876837"><ele>541.0</ele><time>2026-05-02T10:35:14.844Z</time></trkpt><trkpt lat="42.639754378828705" lon="12.567075175883875"><ele>541.0</ele><time>2026-05-02T10:35:15.844Z</time></trkpt><trkpt lat="42.63966095324876" lon="12.567117833898694"><ele>543.6666666666667</ele><time>2026-05-02T10:35:16.844Z</time></trkpt><trkpt lat="42.63956782147723" lon="12.567160876112338"><ele>546.3333333333334</ele><time>2026-05-02T10:35:17.844Z</time></trkpt><trkpt lat="42.63948316673747" lon="12.567208854342459"><ele>549.0</ele><time>2026-05-02T10:35:18.844Z</time></trkpt><trkpt lat="42.63940119476641" lon="12.567237383627868"><ele>551.6666666666666</ele><time>2026-05-02T10:35:19.844Z</time></trkpt><trkpt lat="42.63932951869573" lon="12.567282631697665"><ele>554.3333333333333</ele><time>2026-05-02T10:35:20.844Z</time></trkpt><trkpt lat="42.63926064749622" lon="12.56732881303722"><ele>557.0</ele><time>2026-05-02T10:35:21.844Z</time></trkpt><trkpt lat="42.639188653124286" lon="12.567377024756974"><ele>557.2</ele><time>2026-05-02T10:35:22.844Z</time></trkpt><trkpt lat="42.639119266925285" lon="12.567405421243926"><ele>557.4000000000001</ele><time>2026-05-02T10:35:23.843Z</time></trkpt><trkpt lat="42.6390187897506" lon="12.567423884476927"><ele>557.5999999999999</ele><time>2026-05-02T10:35:25.843Z</time></trkpt><trkpt lat="42.639034150667435" lon="12.567577034415907"><ele>557.8</ele><time>2026-05-02T10:35:27.843Z</time></trkpt><trkpt lat="42.63916105054719" lon="12.5676170430379"><ele>558.0</ele><time>2026-05-02T10:35:29.843Z</time></trkpt><trkpt lat="42.639250923852266" lon="12.5675921156002"><ele>558.0</ele><time>2026-05-02T10:35:30.843Z</time></trkpt><trkpt lat="42.63932427638798" lon="12.567582735254247"><ele>558.0</ele><time>2026-05-02T10:35:31.843Z</time></trkpt><trkpt lat="42.63938979996951" lon="12.567591526164424"><ele>558.0</ele><time>2026-05-02T10:35:32.843Z</time></trkpt><trkpt lat="42.63946449243527" lon="12.567611926545299"><ele>558.0</ele><time>2026-05-02T10:35:33.843Z</time></trkpt><trkpt lat="42.639551526562244" lon="12.567648512068148"><ele>558.0</ele><time>2026-05-02T10:35:34.843Z</time></trkpt><trkpt lat="42.639684842473976" lon="12.56768463556413"><ele>558.0</ele><time>2026-05-02T10:35:36.843Z</time></trkpt><trkpt lat="42.639766770413786" lon="12.56771837138005"><ele>557.8333333333334</ele><time>2026-05-02T10:35:37.843Z</time></trkpt><trkpt lat="42.639851142776536" lon="12.567742910965691"><ele>557.6666666666666</ele><time>2026-05-02T10:35:38.843Z</time></trkpt><trkpt lat="42.63993031015762" lon="12.567761760455511"><ele>557.5</ele><time>2026-05-02T10:35:39.843Z</time></trkpt><trkpt lat="42.64000835950429" lon="12.567791557875545"><ele>557.3333333333333</ele><time>2026-05-02T10:35:40.843Z</time></trkpt><trkpt lat="42.640095439956795" lon="12.567842073153772"><ele>557.1666666666666</ele><time>2026-05-02T10:35:41.843Z</time></trkpt><trkpt lat="42.64017816241436" lon="12.567880730320534"><ele>557.0</ele><time>2026-05-02T10:35:42.843Z</time></trkpt><trkpt lat="42.64025722352468" lon="12.567939113907473"><ele>557.6666666666666</ele><time>2026-05-02T10:35:43.843Z</time></trkpt><trkpt lat="42.64033258862567" lon="12.568000476967237"><ele>558.3333333333333</ele><time>2026-05-02T10:35:44.843Z</time></trkpt><trkpt lat="42.64039335694433" lon="12.568071691892246"><ele>559.0</ele><time>2026-05-02T10:35:45.843Z</time></trkpt><trkpt lat="42.640451068322285" lon="12.568126085729359"><ele>559.6666666666666</ele><time>2026-05-02T10:35:46.843Z</time></trkpt><trkpt lat="42.64051923279972" lon="12.568258463527501"><ele>560.3333333333334</ele><time>2026-05-02T10:35:48.843Z</time></trkpt><trkpt lat="42.64053335721113" lon="12.568370645781595"><ele>561.0</ele><time>2026-05-02T10:35:49.843Z</time></trkpt><trkpt lat="42.640550343755116" lon="12.568492465142356"><ele>561.0</ele><time>2026-05-02T10:35:50.843Z</time></trkpt><trkpt lat="42.6405755431258" lon="12.568609997141909"><ele>561.0</ele><time>2026-05-02T10:35:51.843Z</time></trkpt><trkpt lat="42.64059772342262" lon="12.568724844023949"><ele>561.0</ele><time>2026-05-02T10:35:52.843Z</time></trkpt><trkpt lat="42.64060411052174" lon="12.568833550010853"><ele>561.0</ele><time>2026-05-02T10:35:53.843Z</time></trkpt><trkpt lat="42.640602545709555" lon="12.568927255092119"><ele>561.0</ele><time>2026-05-02T10:35:54.843Z</time></trkpt><trkpt lat="42.640589223658125" lon="12.569054846901778"><ele>561.0</ele><time>2026-05-02T10:35:55.843Z</time></trkpt><trkpt lat="42.64059410330962" lon="12.569167694816064"><ele>560.8333333333334</ele><time>2026-05-02T10:35:56.843Z</time></trkpt><trkpt lat="42.64059354796663" lon="12.569290787336056"><ele>560.6666666666666</ele><time>2026-05-02T10:35:57.843Z</time></trkpt><trkpt lat="42.64059319787202" lon="12.56939718616207"><ele>560.5</ele><time>2026-05-02T10:35:58.843Z</time></trkpt><trkpt lat="42.64058909348604" lon="12.569503510389087"><ele>560.3333333333333</ele><time>2026-05-02T10:35:59.843Z</time></trkpt><trkpt lat="42.64056863050422" lon="12.56961662058577"><ele>560.1666666666666</ele><time>2026-05-02T10:36:00.842Z</time></trkpt><trkpt lat="42.64054065441095" lon="12.569731732303147"><ele>560.0</ele><time>2026-05-02T10:36:01.842Z</time></trkpt><trkpt lat="42.640518114056086" lon="12.56985186733791"><ele>560.0</ele><time>2026-05-02T10:36:02.842Z</time></trkpt><trkpt lat="42.64049603410322" lon="12.569973769207742"><ele>560.0</ele><time>2026-05-02T10:36:03.842Z</time></trkpt><trkpt lat="42.640506276372776" lon="12.57010326754457"><ele>560.0</ele><time>2026-05-02T10:36:04.842Z</time></trkpt><trkpt lat="42.640488033496126" lon="12.570225574309912"><ele>560.0</ele><time>2026-05-02T10:36:05.842Z</time></trkpt><trkpt lat="42.64047194607451" lon="12.570351280942663"><ele>560.0</ele><time>2026-05-02T10:36:06.842Z</time></trkpt><trkpt lat="42.640493869713936" lon="12.570489562078379"><ele>561.4</ele><time>2026-05-02T10:36:07.842Z</time></trkpt><trkpt lat="42.64051583641386" lon="12.570614276608314"><ele>562.8</ele><time>2026-05-02T10:36:08.842Z</time></trkpt><trkpt lat="42.64056363562064" lon="12.570740425227397"><ele>564.2</ele><time>2026-05-02T10:36:09.842Z</time></trkpt><trkpt lat="42.640624327408396" lon="12.570864245540415"><ele>565.6</ele><time>2026-05-02T10:36:10.842Z</time></trkpt><trkpt lat="42.64066678683494" lon="12.57098085767343"><ele>567.0</ele><time>2026-05-02T10:36:11.842Z</time></trkpt><trkpt lat="42.64069185882704" lon="12.571115007812715"><ele>571.0</ele><time>2026-05-02T10:36:12.842Z</time></trkpt><trkpt lat="42.64071626762865" lon="12.571241162241684"><ele>575.0</ele><time>2026-05-02T10:36:13.842Z</time></trkpt><trkpt lat="42.640748717776845" lon="12.571385308939558"><ele>579.0</ele><time>2026-05-02T10:36:14.842Z</time></trkpt><trkpt lat="42.64078426558692" lon="12.571517277618193"><ele>583.0</ele><time>2026-05-02T10:36:15.842Z</time></trkpt><trkpt lat="42.640815328639036" lon="12.571661053957518"><ele>587.0</ele><time>2026-05-02T10:36:16.842Z</time></trkpt><trkpt lat="42.64082643945252" lon="12.571771579951745"><ele>587.0</ele><time>2026-05-02T10:36:17.842Z</time></trkpt><trkpt lat="42.64083066629276" lon="12.571890147154452"><ele>587.0</ele><time>2026-05-02T10:36:18.842Z</time></trkpt><trkpt lat="42.64083872043914" lon="12.571991734521966"><ele>587.0</ele><time>2026-05-02T10:36:19.842Z</time></trkpt><trkpt lat="42.640856212919864" lon="12.572081242777324"><ele>587.0</ele><time>2026-05-02T10:36:20.842Z</time></trkpt><trkpt lat="42.64089762187285" lon="12.572160038017506"><ele>587.0</ele><time>2026-05-02T10:36:21.842Z</time></trkpt><trkpt lat="42.640955395740725" lon="12.572210497658943"><ele>587.0</ele><time>2026-05-02T10:36:22.842Z</time></trkpt><trkpt lat="42.64104832989629" lon="12.57223361337039"><ele>585.3333333333333</ele><time>2026-05-02T10:36:23.842Z</time></trkpt><trkpt lat="42.6411439576632" lon="12.5722579880367"><ele>583.6666666666666</ele><time>2026-05-02T10:36:24.842Z</time></trkpt><trkpt lat="42.64121203385194" lon="12.572310652912154"><ele>582.0</ele><time>2026-05-02T10:36:25.842Z</time></trkpt><trkpt lat="42.64128194741816" lon="12.572386789996676"><ele>580.3333333333334</ele><time>2026-05-02T10:36:26.842Z</time></trkpt><trkpt lat="42.6413355069371" lon="12.572455728728032"><ele>578.6666666666667</ele><time>2026-05-02T10:36:27.842Z</time></trkpt><trkpt lat="42.6413790484166" lon="12.572552226850245"><ele>577.0</ele><time>2026-05-02T10:36:28.842Z</time></trkpt><trkpt lat="42.64141813552264" lon="12.572654863427724"><ele>577.0</ele><time>2026-05-02T10:36:29.842Z</time></trkpt><trkpt lat="42.641436459965426" lon="12.572786430379454"><ele>577.0</ele><time>2026-05-02T10:36:30.842Z</time></trkpt><trkpt lat="42.64146691363561" lon="12.572916029651951"><ele>577.0</ele><time>2026-05-02T10:36:31.842Z</time></trkpt><trkpt lat="42.641507668014206" lon="12.573036244721237"><ele>577.0</ele><time>2026-05-02T10:36:32.842Z</time></trkpt><trkpt lat="42.64155925087861" lon="12.573155669880885"><ele>577.0</ele><time>2026-05-02T10:36:33.842Z</time></trkpt><trkpt lat="42.641594131032065" lon="12.573251181209043"><ele>580.7142857142857</ele><time>2026-05-02T10:36:34.842Z</time></trkpt><trkpt lat="42.641623248214835" lon="12.573342734745035"><ele>584.4285714285714</ele><time>2026-05-02T10:36:35.842Z</time></trkpt><trkpt lat="42.641651944874106" lon="12.573429273474181"><ele>588.1428571428571</ele><time>2026-05-02T10:36:36.842Z</time></trkpt><trkpt lat="42.64169279554127" lon="12.573507635844441"><ele>591.8571428571429</ele><time>2026-05-02T10:36:37.842Z</time></trkpt><trkpt lat="42.64173267965371" lon="12.57358356404341"><ele>595.5714285714286</ele><time>2026-05-02T10:36:38.842Z</time></trkpt><trkpt lat="42.64178621346276" lon="12.573667270412901"><ele>599.2857142857143</ele><time>2026-05-02T10:36:39.842Z</time></trkpt><trkpt lat="42.641815418436614" lon="12.57375225336256"><ele>603.0</ele><time>2026-05-02T10:36:40.842Z</time></trkpt><trkpt lat="42.641838117260654" lon="12.573835240184607"><ele>603.0</ele><time>2026-05-02T10:36:41.842Z</time></trkpt><trkpt lat="42.64190491989723" lon="12.57398162943509"><ele>603.0</ele><time>2026-05-02T10:36:43.842Z</time></trkpt><trkpt lat="42.64199576883291" lon="12.574053515932466"><ele>603.0</ele><time>2026-05-02T10:36:45.842Z</time></trkpt><trkpt lat="42.64207462402348" lon="12.574129988915974"><ele>603.0</ele><time>2026-05-02T10:36:47.841Z</time></trkpt><trkpt lat="42.64216624232849" lon="12.574221086943975"><ele>603.0</ele><time>2026-05-02T10:36:49.841Z</time></trkpt><trkpt lat="42.64226287626783" lon="12.574299923633188"><ele>603.0</ele><time>2026-05-02T10:36:51.841Z</time></trkpt><trkpt lat="42.64235770208686" lon="12.574342718305097"><ele>603.0</ele><time>2026-05-02T10:36:53.841Z</time></trkpt><trkpt lat="42.64246814590689" lon="12.574378588414097"><ele>603.0</ele><time>2026-05-02T10:36:55.841Z</time></trkpt><trkpt lat="42.64256096217966" lon="12.574428785974446"><ele>603.0</ele><time>2026-05-02T10:36:57.841Z</time></trkpt><trkpt lat="42.642662872499095" lon="12.574476258539143"><ele>603.0</ele><time>2026-05-02T10:36:59.841Z</time></trkpt><trkpt lat="42.64276544580919" lon="12.574531861695526"><ele>604.6</ele><time>2026-05-02T10:37:01.841Z</time></trkpt><trkpt lat="42.64284993309163" lon="12.574625808101883"><ele>606.1999999999999</ele><time>2026-05-02T10:37:03.841Z</time></trkpt><trkpt lat="42.64292344360077" lon="12.574735934725803"><ele>607.8</ele><time>2026-05-02T10:37:05.841Z</time></trkpt><trkpt lat="42.642910193065305" lon="12.574879314181802"><ele>609.4</ele><time>2026-05-02T10:37:07.841Z</time></trkpt><trkpt lat="42.642905132043154" lon="12.575001895226041"><ele>611.0</ele><time>2026-05-02T10:37:09.841Z</time></trkpt><trkpt lat="42.64290215218394" lon="12.575149717245386"><ele>611.0</ele><time>2026-05-02T10:37:11.841Z</time></trkpt><trkpt lat="42.642890380463136" lon="12.57527999691164"><ele>611.0</ele><time>2026-05-02T10:37:13.841Z</time></trkpt><trkpt lat="42.642865854538854" lon="12.575411921856706"><ele>611.0</ele><time>2026-05-02T10:37:15.841Z</time></trkpt><trkpt lat="42.642857769286316" lon="12.57552631431008"><ele>611.0</ele><time>2026-05-02T10:37:17.841Z</time></trkpt><trkpt lat="42.64287710085085" lon="12.575631805425859"><ele>611.0</ele><time>2026-05-02T10:37:19.841Z</time></trkpt><trkpt lat="42.64289612959573" lon="12.575730848560351"><ele>611.0</ele><time>2026-05-02T10:37:21.841Z</time></trkpt><trkpt lat="42.64291106581798" lon="12.575847938759027"><ele>612.8333333333333</ele><time>2026-05-02T10:37:23.841Z</time></trkpt><trkpt lat="42.642939086210426" lon="12.575950981469244"><ele>614.6666666666666</ele><time>2026-05-02T10:37:25.841Z</time></trkpt><trkpt lat="42.64300395543711" lon="12.57597657570964"><ele>616.5</ele><time>2026-05-02T10:37:33.84Z</time></trkpt><trkpt lat="42.64301749763851" lon="12.576090090917125"><ele>618.3333333333334</ele><time>2026-05-02T10:37:54.84Z</time></trkpt><trkpt lat="42.64293392377818" lon="12.575992980292096"><ele>620.1666666666667</ele><time>2026-05-02T10:38:03.84Z</time></trkpt><trkpt lat="42.642910420945704" lon="12.575906098262276"><ele>622.0</ele><time>2026-05-02T10:38:04.84Z</time></trkpt><trkpt lat="42.64287632932389" lon="12.575791372970308"><ele>622.0</ele><time>2026-05-02T10:38:06.84Z</time></trkpt><trkpt lat="42.642872035725176" lon="12.575671832030169"><ele>622.0</ele><time>2026-05-02T10:38:08.84Z</time></trkpt><trkpt lat="42.64287699954627" lon="12.575563937766487"><ele>622.0</ele><time>2026-05-02T10:38:10.84Z</time></trkpt><trkpt lat="42.642875375242824" lon="12.575469153929607"><ele>622.0</ele><time>2026-05-02T10:38:19.839Z</time></trkpt><trkpt lat="42.64288538621675" lon="12.575324389416645"><ele>622.0</ele><time>2026-05-02T10:38:22.839Z</time></trkpt><trkpt lat="42.642832314992496" lon="12.575258564339217"><ele>622.0</ele><time>2026-05-02T10:38:29.839Z</time></trkpt><trkpt lat="42.642805496461285" lon="12.575366897639274"><ele>622.0</ele><time>2026-05-02T10:38:32.839Z</time></trkpt><trkpt lat="42.64281744743709" lon="12.575519747693399"><ele>622.0</ele><time>2026-05-02T10:38:34.839Z</time></trkpt><trkpt lat="42.642832259390474" lon="12.575614495569225"><ele>622.0</ele><time>2026-05-02T10:38:35.839Z</time></trkpt><trkpt lat="42.64285813099407" lon="12.575763677531654"><ele>622.0</ele><time>2026-05-02T10:38:37.839Z</time></trkpt><trkpt lat="42.64290617178687" lon="12.575896734659109"><ele>622.0</ele><time>2026-05-02T10:38:39.84Z</time></trkpt><trkpt lat="42.642936417167434" lon="12.576031100636579"><ele>622.0</ele><time>2026-05-02T10:38:41.84Z</time></trkpt><trkpt lat="42.64293280375835" lon="12.576154190514933"><ele>622.0</ele><time>2026-05-02T10:38:43.84Z</time></trkpt><trkpt lat="42.64293752556805" lon="12.576244365448899"><ele>622.0</ele><time>2026-05-02T10:38:45.839Z</time></trkpt><trkpt lat="42.64296692577051" lon="12.576334747782438"><ele>622.0</ele><time>2026-05-02T10:40:49.837Z</time></trkpt><trkpt lat="42.642987746948556" lon="12.576452566558714"><ele>622.0</ele><time>2026-05-02T10:40:51.838Z</time></trkpt><trkpt lat="42.643000132409576" lon="12.576588450612586"><ele>622.0</ele><time>2026-05-02T10:40:53.837Z</time></trkpt><trkpt lat="42.64298671629961" lon="12.576758616344806"><ele>623.8000000000001</ele><time>2026-05-02T10:40:55.837Z</time></trkpt><trkpt lat="42.64296261426096" lon="12.576912414665788"><ele>625.6</ele><time>2026-05-02T10:40:57.837Z</time></trkpt><trkpt lat="42.642905552026285" lon="12.577040961951734"><ele>627.4000000000001</ele><time>2026-05-02T10:40:59.837Z</time></trkpt><trkpt lat="42.642834663085196" lon="12.577134286972633"><ele>629.2</ele><time>2026-05-02T10:41:01.837Z</time></trkpt><trkpt lat="42.64277510150378" lon="12.577169059142877"><ele>631.0</ele><time>2026-05-02T10:41:02.837Z</time></trkpt><trkpt lat="42.64265179698717" lon="12.577204156466768"><ele>635.1666666666667</ele><time>2026-05-02T10:41:04.837Z</time></trkpt><trkpt lat="42.642554986971064" lon="12.57723599505239"><ele>639.3333333333334</ele><time>2026-05-02T10:41:06.837Z</time></trkpt><trkpt lat="42.64249756843867" lon="12.577316644125055"><ele>643.5</ele><time>2026-05-02T10:41:08.837Z</time></trkpt><trkpt lat="42.642480749847365" lon="12.577408802291874"><ele>647.6666666666666</ele><time>2026-05-02T10:41:09.837Z</time></trkpt><trkpt lat="42.642454632588475" lon="12.577493419755344"><ele>651.8333333333333</ele><time>2026-05-02T10:41:10.837Z</time></trkpt><trkpt lat="42.642409535704516" lon="12.57760244523222"><ele>656.0</ele><time>2026-05-02T10:41:11.837Z</time></trkpt><trkpt lat="42.64236139829957" lon="12.577686270603778"><ele>656.0</ele><time>2026-05-02T10:41:12.837Z</time></trkpt><trkpt lat="42.64232166332706" lon="12.577758623387444"><ele>656.0</ele><time>2026-05-02T10:41:13.836Z</time></trkpt><trkpt lat="42.64229772794063" lon="12.577874908610559"><ele>656.0</ele><time>2026-05-02T10:41:14.836Z</time></trkpt><trkpt lat="42.64227110859302" lon="12.57797083058237"><ele>656.0</ele><time>2026-05-02T10:41:15.836Z</time></trkpt><trkpt lat="42.64226948521629" lon="12.578060844798943"><ele>656.0</ele><time>2026-05-02T10:41:16.836Z</time></trkpt><trkpt lat="42.642279441660854" lon="12.57815591742994"><ele>656.0</ele><time>2026-05-02T10:41:17.836Z</time></trkpt><trkpt lat="42.642282499429086" lon="12.578274199287605"><ele>656.1666666666666</ele><time>2026-05-02T10:41:18.836Z</time></trkpt><trkpt lat="42.64228275706723" lon="12.578378283327815"><ele>656.3333333333333</ele><time>2026-05-02T10:41:19.836Z</time></trkpt><trkpt lat="42.64227040176778" lon="12.578488969971193"><ele>656.5</ele><time>2026-05-02T10:41:20.836Z</time></trkpt><trkpt lat="42.64226812579786" lon="12.57860703463817"><ele>656.6666666666666</ele><time>2026-05-02T10:41:21.836Z</time></trkpt><trkpt lat="42.642256627470395" lon="12.578715004511396"><ele>656.8333333333334</ele><time>2026-05-02T10:41:22.836Z</time></trkpt><trkpt lat="42.64225590849639" lon="12.578825664975351"><ele>657.0</ele><time>2026-05-02T10:41:23.836Z</time></trkpt><trkpt lat="42.64227775278275" lon="12.578940289048735"><ele>658.1666666666666</ele><time>2026-05-02T10:41:24.836Z</time></trkpt><trkpt lat="42.642289252040605" lon="12.579057830740865"><ele>659.3333333333334</ele><time>2026-05-02T10:41:25.836Z</time></trkpt><trkpt lat="42.642293031485266" lon="12.579165811174152"><ele>660.5</ele><time>2026-05-02T10:41:26.836Z</time></trkpt><trkpt lat="42.6422972629447" lon="12.579278991790295"><ele>661.6666666666667</ele><time>2026-05-02T10:41:27.836Z</time></trkpt><trkpt lat="42.6422923428337" lon="12.57938145332916"><ele>662.8333333333334</ele><time>2026-05-02T10:41:28.836Z</time></trkpt><trkpt lat="42.642309989762474" lon="12.579495117634961"><ele>664.0</ele><time>2026-05-02T10:41:29.836Z</time></trkpt><trkpt lat="42.64233191656739" lon="12.57960336630452"><ele>664.6666666666667</ele><time>2026-05-02T10:41:30.836Z</time></trkpt><trkpt lat="42.6423432593558" lon="12.579694978556565"><ele>665.3333333333334</ele><time>2026-05-02T10:41:31.836Z</time></trkpt><trkpt lat="42.64233700825695" lon="12.579792501779758"><ele>666.0</ele><time>2026-05-02T10:41:32.836Z</time></trkpt><trkpt lat="42.64235465923647" lon="12.579905622448145"><ele>666.6666666666666</ele><time>2026-05-02T10:41:33.836Z</time></trkpt><trkpt lat="42.64237306928583" lon="12.580027512952098"><ele>667.3333333333333</ele><time>2026-05-02T10:41:34.836Z</time></trkpt><trkpt lat="42.64240232141297" lon="12.58016164848023"><ele>668.0</ele><time>2026-05-02T10:41:35.836Z</time></trkpt><trkpt lat="42.64243376428193" lon="12.580287156377517"><ele>670.0</ele><time>2026-05-02T10:41:36.836Z</time></trkpt><trkpt lat="42.642505199682226" lon="12.580401418758413"><ele>672.0</ele><time>2026-05-02T10:41:37.836Z</time></trkpt><trkpt lat="42.64255607755333" lon="12.580499879606691"><ele>674.0</ele><time>2026-05-02T10:41:38.836Z</time></trkpt><trkpt lat="42.64259984368248" lon="12.580594226948197"><ele>676.0</ele><time>2026-05-02T10:41:39.836Z</time></trkpt><trkpt lat="42.64263213774115" lon="12.580688694351146"><ele>678.0</ele><time>2026-05-02T10:41:40.836Z</time></trkpt><trkpt lat="42.642697009024175" lon="12.580779861069892"><ele>678.0</ele><time>2026-05-02T10:41:41.836Z</time></trkpt><trkpt lat="42.64275961036378" lon="12.580905738244322"><ele>678.0</ele><time>2026-05-02T10:41:42.836Z</time></trkpt><trkpt lat="42.6428115404794" lon="12.581038316963594"><ele>678.0</ele><time>2026-05-02T10:41:43.836Z</time></trkpt><trkpt lat="42.642866014805655" lon="12.581196148030651"><ele>678.0</ele><time>2026-05-02T10:41:44.836Z</time></trkpt><trkpt lat="42.64291196636702" lon="12.581341367008676"><ele>677.1666666666666</ele><time>2026-05-02T10:41:45.836Z</time></trkpt><trkpt lat="42.64296166770552" lon="12.581453812367764"><ele>676.3333333333334</ele><time>2026-05-02T10:41:46.836Z</time></trkpt><trkpt lat="42.64297997302171" lon="12.581565925224131"><ele>675.5</ele><time>2026-05-02T10:41:47.836Z</time></trkpt><trkpt lat="42.64300643698955" lon="12.58166351668995"><ele>674.6666666666667</ele><time>2026-05-02T10:41:48.836Z</time></trkpt><trkpt lat="42.643028790808685" lon="12.581745097845474"><ele>673.8333333333334</ele><time>2026-05-02T10:41:49.836Z</time></trkpt><trkpt lat="42.64307097344649" lon="12.581835897075361"><ele>673.0</ele><time>2026-05-02T10:41:50.836Z</time></trkpt><trkpt lat="42.643079555996195" lon="12.58193630956104"><ele>674.0</ele><time>2026-05-02T10:41:51.836Z</time></trkpt><trkpt lat="42.64308917826733" lon="12.582032924367303"><ele>675.0</ele><time>2026-05-02T10:41:52.836Z</time></trkpt><trkpt lat="42.64311881653604" lon="12.582124558240409"><ele>676.0</ele><time>2026-05-02T10:41:53.836Z</time></trkpt><trkpt lat="42.6431419524873" lon="12.582230845877024"><ele>677.0</ele><time>2026-05-02T10:41:54.836Z</time></trkpt><trkpt lat="42.64316473681129" lon="12.582351326931953"><ele>678.0</ele><time>2026-05-02T10:41:55.836Z</time></trkpt><trkpt lat="42.64318709453963" lon="12.582501357408137"><ele>679.0</ele><time>2026-05-02T10:41:56.836Z</time></trkpt><trkpt lat="42.64320494427941" lon="12.582662771855146"><ele>679.0</ele><time>2026-05-02T10:41:57.835Z</time></trkpt><trkpt lat="42.6432177984424" lon="12.582815085827976"><ele>679.0</ele><time>2026-05-02T10:41:58.835Z</time></trkpt><trkpt lat="42.64322867531994" lon="12.582951862865093"><ele>679.0</ele><time>2026-05-02T10:41:59.835Z</time></trkpt><trkpt lat="42.64322879849838" lon="12.583066124413861"><ele>679.0</ele><time>2026-05-02T10:42:00.835Z</time></trkpt><trkpt lat="42.64326407647203" lon="12.583182549375815"><ele>679.0</ele><time>2026-05-02T10:42:01.835Z</time></trkpt><trkpt lat="42.6432581782182" lon="12.583286439280402"><ele>680.0</ele><time>2026-05-02T10:42:02.835Z</time></trkpt><trkpt lat="42.64326401726492" lon="12.583390485043104"><ele>681.0</ele><time>2026-05-02T10:42:03.835Z</time></trkpt><trkpt lat="42.643270932769624" lon="12.583513712169095"><ele>682.0</ele><time>2026-05-02T10:42:04.835Z</time></trkpt><trkpt lat="42.64327902775475" lon="12.583664068393176"><ele>683.0</ele><time>2026-05-02T10:42:05.835Z</time></trkpt><trkpt lat="42.64328846573479" lon="12.583805199355078"><ele>684.0</ele><time>2026-05-02T10:42:06.835Z</time></trkpt><trkpt lat="42.643299212860576" lon="12.583951190518954"><ele>684.4000000000001</ele><time>2026-05-02T10:42:07.835Z</time></trkpt><trkpt lat="42.64331001826166" lon="12.584086594506928"><ele>684.8</ele><time>2026-05-02T10:42:08.835Z</time></trkpt><trkpt lat="42.64332194273937" lon="12.584217108894183"><ele>685.2</ele><time>2026-05-02T10:42:09.835Z</time></trkpt><trkpt lat="42.643337637656394" lon="12.584345742751182"><ele>685.5999999999999</ele><time>2026-05-02T10:42:10.835Z</time></trkpt><trkpt lat="42.64335881254182" lon="12.58448007954506"><ele>686.0</ele><time>2026-05-02T10:42:11.835Z</time></trkpt><trkpt lat="42.643375702399325" lon="12.5845993985934"><ele>686.6666666666666</ele><time>2026-05-02T10:42:12.835Z</time></trkpt><trkpt lat="42.643369347192454" lon="12.58471203170105"><ele>687.3333333333333</ele><time>2026-05-02T10:42:13.835Z</time></trkpt><trkpt lat="42.643355981266524" lon="12.5848026463735"><ele>688.0</ele><time>2026-05-02T10:42:14.835Z</time></trkpt><trkpt lat="42.64333724031137" lon="12.584916372065091"><ele>688.6666666666666</ele><time>2026-05-02T10:42:15.835Z</time></trkpt><trkpt lat="42.64331653842122" lon="12.585030540021592"><ele>689.3333333333334</ele><time>2026-05-02T10:42:16.835Z</time></trkpt><trkpt lat="42.64330516306503" lon="12.585138791956547"><ele>690.0</ele><time>2026-05-02T10:42:17.835Z</time></trkpt><trkpt lat="42.643293748524485" lon="12.58524189028623"><ele>690.6</ele><time>2026-05-02T10:42:18.835Z</time></trkpt><trkpt lat="42.6432547285506" lon="12.585355242952819"><ele>691.2</ele><time>2026-05-02T10:42:19.835Z</time></trkpt><trkpt lat="42.64317193744945" lon="12.58544639542356"><ele>691.8</ele><time>2026-05-02T10:42:20.835Z</time></trkpt><trkpt lat="42.64307632527758" lon="12.585548205849845"><ele>692.4</ele><time>2026-05-02T10:42:21.835Z</time></trkpt><trkpt lat="42.64298114857297" lon="12.585595707022078"><ele>693.0</ele><time>2026-05-02T10:42:22.835Z</time></trkpt><trkpt lat="42.642914691592495" lon="12.585660804190647"><ele>693.0</ele><time>2026-05-02T10:42:23.835Z</time></trkpt><trkpt lat="42.64286255882478" lon="12.5857210210989"><ele>693.0</ele><time>2026-05-02T10:42:24.835Z</time></trkpt><trkpt lat="42.642830219241596" lon="12.585805815986438"><ele>693.0</ele><time>2026-05-02T10:42:25.835Z</time></trkpt><trkpt lat="42.64284185978109" lon="12.585925002337616"><ele>693.0</ele><time>2026-05-02T10:42:26.835Z</time></trkpt><trkpt lat="42.6429181234077" lon="12.586019913586842"><ele>693.0</ele><time>2026-05-02T10:42:27.835Z</time></trkpt><trkpt lat="42.643034734340624" lon="12.586033523509554"><ele>693.0</ele><time>2026-05-02T10:42:28.835Z</time></trkpt><trkpt lat="42.64308489232673" lon="12.586090581491607"><ele>694.3333333333334</ele><time>2026-05-02T10:42:29.835Z</time></trkpt><trkpt lat="42.64312560837664" lon="12.586206678557458"><ele>695.6666666666666</ele><time>2026-05-02T10:42:31.835Z</time></trkpt><trkpt lat="42.64314609440868" lon="12.586303377601007"><ele>697.0</ele><time>2026-05-02T10:42:32.835Z</time></trkpt><trkpt lat="42.64316665515835" lon="12.586413961759106"><ele>698.3333333333333</ele><time>2026-05-02T10:42:33.835Z</time></trkpt><trkpt lat="42.64317552164521" lon="12.586518613458004"><ele>699.6666666666666</ele><time>2026-05-02T10:42:34.835Z</time></trkpt><trkpt lat="42.64317671195551" lon="12.58664150543654"><ele>701.0</ele><time>2026-05-02T10:42:35.835Z</time></trkpt><trkpt lat="42.643168905414804" lon="12.58674845580213"><ele>701.0</ele><time>2026-05-02T10:42:36.835Z</time></trkpt><trkpt lat="42.64313979730976" lon="12.586846758495952"><ele>701.0</ele><time>2026-05-02T10:42:37.835Z</time></trkpt><trkpt lat="42.643127476229836" lon="12.586937036575126"><ele>701.0</ele><time>2026-05-02T10:42:38.835Z</time></trkpt><trkpt lat="42.643115020802085" lon="12.58702241253146"><ele>701.0</ele><time>2026-05-02T10:42:39.835Z</time></trkpt><trkpt lat="42.643106471115296" lon="12.587108700222407"><ele>701.0</ele><time>2026-05-02T10:42:40.834Z</time></trkpt><trkpt lat="42.64309905078348" lon="12.587270871016974"><ele>701.0</ele><time>2026-05-02T10:42:42.834Z</time></trkpt><trkpt lat="42.643082194214415" lon="12.587380332195577"><ele>702.0</ele><time>2026-05-02T10:42:43.834Z</time></trkpt><trkpt lat="42.64306294949261" lon="12.587468233912976"><ele>703.0</ele><time>2026-05-02T10:42:44.834Z</time></trkpt><trkpt lat="42.643058105615864" lon="12.587566269986647"><ele>704.0</ele><time>2026-05-02T10:42:45.834Z</time></trkpt><trkpt lat="42.64307856790994" lon="12.587672441089245"><ele>705.0</ele><time>2026-05-02T10:42:46.834Z</time></trkpt><trkpt lat="42.64307769919806" lon="12.587767496761527"><ele>706.0</ele><time>2026-05-02T10:42:47.834Z</time></trkpt><trkpt lat="42.64307097507576" lon="12.587873815331845"><ele>707.0</ele><time>2026-05-02T10:42:48.834Z</time></trkpt><trkpt lat="42.643070595605025" lon="12.587995895241107"><ele>708.0</ele><time>2026-05-02T10:42:49.834Z</time></trkpt><trkpt lat="42.64307582036962" lon="12.58812701396461"><ele>709.0</ele><time>2026-05-02T10:42:50.835Z</time></trkpt><trkpt lat="42.64309186411949" lon="12.588263689533866"><ele>710.0</ele><time>2026-05-02T10:42:51.835Z</time></trkpt><trkpt lat="42.643096614903264" lon="12.588412183090428"><ele>711.0</ele><time>2026-05-02T10:42:52.834Z</time></trkpt><trkpt lat="42.64310888801583" lon="12.588558299022294"><ele>712.0</ele><time>2026-05-02T10:42:53.834Z</time></trkpt><trkpt lat="42.64312899917046" lon="12.588701385245226"><ele>713.25</ele><time>2026-05-02T10:42:54.834Z</time></trkpt><trkpt lat="42.64316443261182" lon="12.588850719495667"><ele>714.5</ele><time>2026-05-02T10:42:55.834Z</time></trkpt><trkpt lat="42.64318084009869" lon="12.589004169867875"><ele>715.75</ele><time>2026-05-02T10:42:56.834Z</time></trkpt><trkpt lat="42.643172902052214" lon="12.58917319873059"><ele>717.0</ele><time>2026-05-02T10:42:57.834Z</time></trkpt><trkpt lat="42.643153467154825" lon="12.589350737987893"><ele>718.2</ele><time>2026-05-02T10:42:58.835Z</time></trkpt><trkpt lat="42.64314180375836" lon="12.589529052152734"><ele>719.4000000000001</ele><time>2026-05-02T10:42:59.834Z</time></trkpt><trkpt lat="42.6431252235262" lon="12.589677609569138"><ele>720.5999999999999</ele><time>2026-05-02T10:43:00.834Z</time></trkpt><trkpt lat="42.64312599702169" lon="12.589810436962447"><ele>721.8</ele><time>2026-05-02T10:43:01.834Z</time></trkpt><trkpt lat="42.64315044042351" lon="12.589942873480526"><ele>723.0</ele><time>2026-05-02T10:43:02.834Z</time></trkpt><trkpt lat="42.64319152492908" lon="12.590081709454774"><ele>723.0</ele><time>2026-05-02T10:43:03.834Z</time></trkpt><trkpt lat="42.64322199907423" lon="12.590221943696122"><ele>723.0</ele><time>2026-05-02T10:43:04.834Z</time></trkpt><trkpt lat="42.643251723866605" lon="12.59035395059637"><ele>723.0</ele><time>2026-05-02T10:43:05.834Z</time></trkpt><trkpt lat="42.64327863480314" lon="12.590478940098237"><ele>723.0</ele><time>2026-05-02T10:43:06.834Z</time></trkpt><trkpt lat="42.6432879035348" lon="12.590609099787507"><ele>723.0</ele><time>2026-05-02T10:43:07.834Z</time></trkpt><trkpt lat="42.64327911751397" lon="12.590759295091386"><ele>724.2</ele><time>2026-05-02T10:43:08.834Z</time></trkpt><trkpt lat="42.64325279059424" lon="12.590900680733954"><ele>725.4</ele><time>2026-05-02T10:43:09.834Z</time></trkpt><trkpt lat="42.64323554927859" lon="12.591034357348212"><ele>726.6</ele><time>2026-05-02T10:43:10.834Z</time></trkpt><trkpt lat="42.64322781666918" lon="12.5911715968192"><ele>727.8000000000001</ele><time>2026-05-02T10:43:11.834Z</time></trkpt><trkpt lat="42.64322099049854" lon="12.59130141456084"><ele>729.0</ele><time>2026-05-02T10:43:12.834Z</time></trkpt><trkpt lat="42.643209072723224" lon="12.591441857357909"><ele>730.0</ele><time>2026-05-02T10:43:13.834Z</time></trkpt><trkpt lat="42.643205244224134" lon="12.59158230196553"><ele>731.0</ele><time>2026-05-02T10:43:14.834Z</time></trkpt><trkpt lat="42.64318284421173" lon="12.591710003652153"><ele>732.0</ele><time>2026-05-02T10:43:15.834Z</time></trkpt><trkpt lat="42.643186991598625" lon="12.591818499795579"><ele>733.0</ele><time>2026-05-02T10:43:16.834Z</time></trkpt><trkpt lat="42.64320753734149" lon="12.591920830950853"><ele>734.0</ele><time>2026-05-02T10:43:17.834Z</time></trkpt><trkpt lat="42.643227481377814" lon="12.592014571671815"><ele>735.0</ele><time>2026-05-02T10:43:18.834Z</time></trkpt><trkpt lat="42.64321711101928" lon="12.592100262447298"><ele>736.2</ele><time>2026-05-02T10:43:19.834Z</time></trkpt><trkpt lat="42.64317593817661" lon="12.592189389696932"><ele>737.4</ele><time>2026-05-02T10:43:20.834Z</time></trkpt><trkpt lat="42.64308065514835" lon="12.592249571364299"><ele>738.5999999999999</ele><time>2026-05-02T10:43:21.834Z</time></trkpt><trkpt lat="42.642998844302426" lon="12.592314805472782"><ele>739.8</ele><time>2026-05-02T10:43:22.834Z</time></trkpt><trkpt lat="42.642908277220066" lon="12.592380595810427"><ele>741.0</ele><time>2026-05-02T10:43:23.833Z</time></trkpt><trkpt lat="42.64280487220434" lon="12.592430441806936"><ele>744.25</ele><time>2026-05-02T10:43:24.833Z</time></trkpt><trkpt lat="42.64269357145484" lon="12.592484728076434"><ele>747.5</ele><time>2026-05-02T10:43:25.833Z</time></trkpt><trkpt lat="42.64258929398091" lon="12.592525130529983"><ele>750.75</ele><time>2026-05-02T10:43:26.833Z</time></trkpt><trkpt lat="42.64248102038497" lon="12.592575324358398"><ele>754.0</ele><time>2026-05-02T10:43:27.833Z</time></trkpt><trkpt lat="42.64237220396617" lon="12.592621576536844"><ele>754.0</ele><time>2026-05-02T10:43:28.833Z</time></trkpt><trkpt lat="42.64227734127699" lon="12.592635039853269"><ele>754.0</ele><time>2026-05-02T10:43:29.833Z</time></trkpt><trkpt lat="42.64217767299187" lon="12.592662545039234"><ele>754.0</ele><time>2026-05-02T10:43:30.833Z</time></trkpt><trkpt lat="42.64207640600763" lon="12.5926858153114"><ele>754.0</ele><time>2026-05-02T10:43:31.833Z</time></trkpt><trkpt lat="42.6419761473185" lon="12.59270182864851"><ele>754.0</ele><time>2026-05-02T10:43:32.833Z</time></trkpt><trkpt lat="42.64185548833121" lon="12.592720982495404"><ele>757.6</ele><time>2026-05-02T10:43:33.833Z</time></trkpt><trkpt lat="42.64175517064046" lon="12.59272529769085"><ele>761.2</ele><time>2026-05-02T10:43:34.833Z</time></trkpt><trkpt lat="42.64165073242744" lon="12.59272681988498"><ele>764.8000000000001</ele><time>2026-05-02T10:43:35.833Z</time></trkpt><trkpt lat="42.64152412640967" lon="12.592738211871634"><ele>768.4000000000001</ele><time>2026-05-02T10:43:36.833Z</time></trkpt><trkpt lat="42.64141020545865" lon="12.592766347395184"><ele>772.0</ele><time>2026-05-02T10:43:37.833Z</time></trkpt><trkpt lat="42.64129435751517" lon="12.592810202987115"><ele>773.8</ele><time>2026-05-02T10:43:38.833Z</time></trkpt><trkpt lat="42.641197773355834" lon="12.592853993768337"><ele>775.6</ele><time>2026-05-02T10:43:39.833Z</time></trkpt><trkpt lat="42.641115075535936" lon="12.592891261974033"><ele>777.4</ele><time>2026-05-02T10:43:40.833Z</time></trkpt><trkpt lat="42.6410346801779" lon="12.592912458024282"><ele>779.1999999999999</ele><time>2026-05-02T10:43:41.833Z</time></trkpt><trkpt lat="42.640947532424306" lon="12.592918537025824"><ele>781.0</ele><time>2026-05-02T10:43:42.833Z</time></trkpt><trkpt lat="42.64084985695991" lon="12.59291233220193"><ele>782.6666666666666</ele><time>2026-05-02T10:43:43.833Z</time></trkpt><trkpt lat="42.64075669711825" lon="12.592897750170673"><ele>784.3333333333333</ele><time>2026-05-02T10:43:44.833Z</time></trkpt><trkpt lat="42.640671487610774" lon="12.592903270350236"><ele>786.0</ele><time>2026-05-02T10:43:45.833Z</time></trkpt><trkpt lat="42.64058426362279" lon="12.59290447344645"><ele>787.6666666666667</ele><time>2026-05-02T10:43:46.833Z</time></trkpt><trkpt lat="42.64049772502892" lon="12.59290542545053"><ele>789.3333333333334</ele><time>2026-05-02T10:43:47.833Z</time></trkpt><trkpt lat="42.64041044782157" lon="12.592900274523531"><ele>791.0</ele><time>2026-05-02T10:43:48.833Z</time></trkpt><trkpt lat="42.640319768466696" lon="12.592886385766292"><ele>793.1999999999999</ele><time>2026-05-02T10:43:49.833Z</time></trkpt><trkpt lat="42.640240587089046" lon="12.59283955462806"><ele>795.4</ele><time>2026-05-02T10:43:50.833Z</time></trkpt><trkpt lat="42.64015732688804" lon="12.592786630854922"><ele>797.6</ele><time>2026-05-02T10:43:51.833Z</time></trkpt><trkpt lat="42.64006568052204" lon="12.592715374360758"><ele>799.8</ele><time>2026-05-02T10:43:52.833Z</time></trkpt><trkpt lat="42.639987061382605" lon="12.592645412029398"><ele>802.0</ele><time>2026-05-02T10:43:53.833Z</time></trkpt><trkpt lat="42.63989827191359" lon="12.592593340053638"><ele>801.9999999999999</ele><time>2026-05-02T10:43:54.833Z</time></trkpt><trkpt lat="42.63982126785898" lon="12.592515094249908"><ele>802.0</ele><time>2026-05-02T10:43:55.833Z</time></trkpt><trkpt lat="42.639736352023235" lon="12.592449583376798"><ele>802.0</ele><time>2026-05-02T10:43:56.833Z</time></trkpt><trkpt lat="42.639665075583544" lon="12.592410617583853"><ele>802.0</ele><time>2026-05-02T10:43:57.833Z</time></trkpt><trkpt lat="42.63959654496014" lon="12.592371384053324"><ele>801.9999999999999</ele><time>2026-05-02T10:43:58.833Z</time></trkpt><trkpt lat="42.63953134311045" lon="12.592321111381825"><ele>802.0</ele><time>2026-05-02T10:43:59.833Z</time></trkpt><trkpt lat="42.63947348526356" lon="12.592257494590852"><ele>805.6</ele><time>2026-05-02T10:44:00.833Z</time></trkpt><trkpt lat="42.63935984936476" lon="12.592201793906499"><ele>809.2</ele><time>2026-05-02T10:44:02.833Z</time></trkpt><trkpt lat="42.63924564212955" lon="12.592103347855824"><ele>812.8</ele><time>2026-05-02T10:44:04.833Z</time></trkpt><trkpt lat="42.63917250120311" lon="12.59204231661033"><ele>816.4</ele><time>2026-05-02T10:44:05.833Z</time></trkpt><trkpt lat="42.63911577049968" lon="12.591988785308445"><ele>820.0</ele><time>2026-05-02T10:44:06.833Z</time></trkpt><trkpt lat="42.639049337200944" lon="12.591941646452659"><ele>820.8333333333333</ele><time>2026-05-02T10:44:07.832Z</time></trkpt><trkpt lat="42.63898654545438" lon="12.591916071930289"><ele>821.6666666666666</ele><time>2026-05-02T10:44:08.832Z</time></trkpt><trkpt lat="42.63892032459509" lon="12.591895122249266"><ele>822.5</ele><time>2026-05-02T10:44:09.832Z</time></trkpt><trkpt lat="42.63879205655059" lon="12.591839067518276"><ele>823.3333333333333</ele><time>2026-05-02T10:44:11.832Z</time></trkpt><trkpt lat="42.638726858151934" lon="12.591791581202111"><ele>824.1666666666666</ele><time>2026-05-02T10:44:12.832Z</time></trkpt><trkpt lat="42.63863971384875" lon="12.591733819466139"><ele>825.0</ele><time>2026-05-02T10:44:13.832Z</time></trkpt><trkpt lat="42.6385753661063" lon="12.59170646779316"><ele>826.1666666666666</ele><time>2026-05-02T10:44:14.832Z</time></trkpt><trkpt lat="42.63850085045278" lon="12.591684826415873"><ele>827.3333333333333</ele><time>2026-05-02T10:44:15.832Z</time></trkpt><trkpt lat="42.63841572882489" lon="12.591663727399359"><ele>828.5</ele><time>2026-05-02T10:44:16.832Z</time></trkpt><trkpt lat="42.63833329366868" lon="12.591618354873429"><ele>829.6666666666666</ele><time>2026-05-02T10:44:17.832Z</time></trkpt><trkpt lat="42.63825973670847" lon="12.59160535607918"><ele>830.8333333333333</ele><time>2026-05-02T10:44:18.832Z</time></trkpt><trkpt lat="42.63817533597855" lon="12.591598368103812"><ele>832.0</ele><time>2026-05-02T10:44:19.832Z</time></trkpt><trkpt lat="42.638080099527784" lon="12.591576612789478"><ele>831.9999999999999</ele><time>2026-05-02T10:44:20.832Z</time></trkpt><trkpt lat="42.63798263023359" lon="12.591547533421478"><ele>832.0</ele><time>2026-05-02T10:44:21.832Z</time></trkpt><trkpt lat="42.637901691209855" lon="12.591503943492198"><ele>832.0</ele><time>2026-05-02T10:44:22.832Z</time></trkpt><trkpt lat="42.63781799277145" lon="12.591490667643088"><ele>832.0</ele><time>2026-05-02T10:44:23.832Z</time></trkpt><trkpt lat="42.63773996071345" lon="12.591471804136402"><ele>831.9999999999999</ele><time>2026-05-02T10:44:24.832Z</time></trkpt><trkpt lat="42.6376623397089" lon="12.591470049658781"><ele>832.0</ele><time>2026-05-02T10:44:25.832Z</time></trkpt><trkpt lat="42.63758594558574" lon="12.591463021206643"><ele>834.4000000000001</ele><time>2026-05-02T10:44:26.832Z</time></trkpt><trkpt lat="42.63750436217445" lon="12.591462513247365"><ele>836.8000000000001</ele><time>2026-05-02T10:44:27.832Z</time></trkpt><trkpt lat="42.637366492762474" lon="12.59148374943711"><ele>839.2</ele><time>2026-05-02T10:44:29.832Z</time></trkpt><trkpt lat="42.63729779869114" lon="12.591484101228843"><ele>841.6</ele><time>2026-05-02T10:44:30.832Z</time></trkpt><trkpt lat="42.63723491122572" lon="12.59146978364191"><ele>844.0</ele><time>2026-05-02T10:44:31.832Z</time></trkpt><trkpt lat="42.63713163232816" lon="12.59139263638108"><ele>843.9999999999999</ele><time>2026-05-02T10:44:33.832Z</time></trkpt><trkpt lat="42.637066396440176" lon="12.591286922193268"><ele>844.0</ele><time>2026-05-02T10:44:35.832Z</time></trkpt><trkpt lat="42.63706387964053" lon="12.591171604235601"><ele>844.0</ele><time>2026-05-02T10:44:38.832Z</time></trkpt><trkpt lat="42.637076644723855" lon="12.591063129964978"><ele>844.0</ele><time>2026-05-02T10:44:56.833Z</time></trkpt><trkpt lat="42.63715949161441" lon="12.590992360699172"><ele>843.9999999999999</ele><time>2026-05-02T10:44:58.832Z</time></trkpt><trkpt lat="42.63722922378288" lon="12.590973009518219"><ele>844.0</ele><time>2026-05-02T10:44:59.832Z</time></trkpt><trkpt lat="42.637310390651585" lon="12.59096776960598"><ele>843.6666666666666</ele><time>2026-05-02T10:45:00.832Z</time></trkpt><trkpt lat="42.637397943871655" lon="12.591002856698523"><ele>843.3333333333333</ele><time>2026-05-02T10:45:01.833Z</time></trkpt><trkpt lat="42.63748050033799" lon="12.590974412531153"><ele>843.0</ele><time>2026-05-02T10:45:02.832Z</time></trkpt><trkpt lat="42.637562396274404" lon="12.590996317546827"><ele>842.6666666666667</ele><time>2026-05-02T10:45:03.832Z</time></trkpt><trkpt lat="42.63764017567182" lon="12.590978747643934"><ele>842.3333333333334</ele><time>2026-05-02T10:45:04.833Z</time></trkpt><trkpt lat="42.63771926050785" lon="12.590944940528441"><ele>842.0</ele><time>2026-05-02T10:45:05.832Z</time></trkpt><trkpt lat="42.63779485482956" lon="12.590934610536419"><ele>841.4000000000001</ele><time>2026-05-02T10:45:06.832Z</time></trkpt><trkpt lat="42.63789241350726" lon="12.590919468394427"><ele>840.8000000000001</ele><time>2026-05-02T10:45:08.832Z</time></trkpt><trkpt lat="42.6379980140791" lon="12.590899352371745"><ele>840.2</ele><time>2026-05-02T10:45:10.832Z</time></trkpt><trkpt lat="42.638075640120476" lon="12.590875696129954"><ele>839.6</ele><time>2026-05-02T10:45:11.832Z</time></trkpt><trkpt lat="42.638161286540004" lon="12.59088374188661"><ele>839.0</ele><time>2026-05-02T10:45:12.832Z</time></trkpt><trkpt lat="42.63824082047565" lon="12.590866076078283"><ele>839.0</ele><time>2026-05-02T10:45:13.832Z</time></trkpt><trkpt lat="42.638317964409765" lon="12.590849248796138"><ele>839.0</ele><time>2026-05-02T10:45:14.832Z</time></trkpt><trkpt lat="42.6384204889497" lon="12.590820763530033"><ele>839.0</ele><time>2026-05-02T10:45:16.832Z</time></trkpt><trkpt lat="42.63850565139972" lon="12.59076023654325"><ele>839.0</ele><time>2026-05-02T10:45:18.832Z</time></trkpt><trkpt lat="42.63846980654273" lon="12.590561108982913"><ele>839.0</ele><time>2026-05-02T10:45:19.832Z</time></trkpt><trkpt lat="42.63836535631136" lon="12.590600536010967"><ele>839.0000000000001</ele><time>2026-05-02T10:45:20.832Z</time></trkpt><trkpt lat="42.638270391165584" lon="12.5905765645086"><ele>839.0</ele><time>2026-05-02T10:45:22.832Z</time></trkpt><trkpt lat="42.6381907312811" lon="12.590535607433232"><ele>839.0</ele><time>2026-05-02T10:45:24.832Z</time></trkpt><trkpt lat="42.63811521536802" lon="12.590489497058783"><ele>839.0</ele><time>2026-05-02T10:45:26.832Z</time></trkpt><trkpt lat="42.63805579220813" lon="12.59045462370326"><ele>839.0000000000001</ele><time>2026-05-02T10:45:28.832Z</time></trkpt><trkpt lat="42.63795530377257" lon="12.590410952723781"><ele>839.0</ele><time>2026-05-02T10:45:30.832Z</time></trkpt><trkpt lat="42.63784038415194" lon="12.590389283666342"><ele>839.5000000000001</ele><time>2026-05-02T10:45:32.832Z</time></trkpt><trkpt lat="42.63777856934059" lon="12.590354345649331"><ele>840.0</ele><time>2026-05-02T10:45:33.832Z</time></trkpt><trkpt lat="42.63771555638127" lon="12.590349545237384"><ele>840.5</ele><time>2026-05-02T10:45:34.832Z</time></trkpt><trkpt lat="42.6376362891451" lon="12.590315716156386"><ele>841.0</ele><time>2026-05-02T10:45:35.832Z</time></trkpt><trkpt lat="42.63757206436178" lon="12.590304680840877"><ele>841.5000000000001</ele><time>2026-05-02T10:45:36.832Z</time></trkpt><trkpt lat="42.63743440377397" lon="12.59019049802891"><ele>842.0</ele><time>2026-05-02T10:45:38.832Z</time></trkpt><trkpt lat="42.63737846037022" lon="12.590126443825882"><ele>843.1666666666667</ele><time>2026-05-02T10:45:39.832Z</time></trkpt><trkpt lat="42.63730404213207" lon="12.590088380184879"><ele>844.3333333333334</ele><time>2026-05-02T10:45:40.832Z</time></trkpt><trkpt lat="42.63723258705076" lon="12.590024977042727"><ele>845.5</ele><time>2026-05-02T10:45:41.832Z</time></trkpt><trkpt lat="42.63715393248083" lon="12.58997674801937"><ele>846.6666666666667</ele><time>2026-05-02T10:45:42.832Z</time></trkpt><trkpt lat="42.63709649153998" lon="12.589917250206565"><ele>847.8333333333334</ele><time>2026-05-02T10:45:43.832Z</time></trkpt><trkpt lat="42.637037037254856" lon="12.58984374495935"><ele>849.0</ele><time>2026-05-02T10:45:44.832Z</time></trkpt><trkpt lat="42.636980909217336" lon="12.589775078665884"><ele>850.7142857142858</ele><time>2026-05-02T10:45:45.832Z</time></trkpt><trkpt lat="42.636929842869925" lon="12.589706634224202"><ele>852.4285714285714</ele><time>2026-05-02T10:45:46.832Z</time></trkpt><trkpt lat="42.63687813834914" lon="12.589637067802178"><ele>854.1428571428571</ele><time>2026-05-02T10:45:47.832Z</time></trkpt><trkpt lat="42.636808806233624" lon="12.589594552225961"><ele>855.8571428571429</ele><time>2026-05-02T10:45:48.832Z</time></trkpt><trkpt lat="42.63673588148091" lon="12.58955092507623"><ele>857.5714285714286</ele><time>2026-05-02T10:45:49.832Z</time></trkpt><trkpt lat="42.636673589349854" lon="12.58952013619973"><ele>859.2857142857143</ele><time>2026-05-02T10:45:50.831Z</time></trkpt><trkpt lat="42.63660606170439" lon="12.58949214118913"><ele>861.0</ele><time>2026-05-02T10:45:51.831Z</time></trkpt><trkpt lat="42.63648549904663" lon="12.589405141042612"><ele>861.0</ele><time>2026-05-02T10:45:53.831Z</time></trkpt><trkpt lat="42.63642418219786" lon="12.589354771757257"><ele>861.0</ele><time>2026-05-02T10:45:54.831Z</time></trkpt><trkpt lat="42.636382992823364" lon="12.589263575131987"><ele>861.0</ele><time>2026-05-02T10:45:55.831Z</time></trkpt><trkpt lat="42.636309691465634" lon="12.58921925894817"><ele>861.0</ele><time>2026-05-02T10:45:56.831Z</time></trkpt><trkpt lat="42.636257989767536" lon="12.589160311295428"><ele>861.0</ele><time>2026-05-02T10:45:57.831Z</time></trkpt><trkpt lat="42.63616347428924" lon="12.589084214562666"><ele>861.0</ele><time>2026-05-02T10:45:59.831Z</time></trkpt><trkpt lat="42.63607358097528" lon="12.588992995083663"><ele>865.5</ele><time>2026-05-02T10:46:01.831Z</time></trkpt><trkpt lat="42.63601573423184" lon="12.588885941877376"><ele>870.0</ele><time>2026-05-02T10:46:04.831Z</time></trkpt><trkpt lat="42.63596097103279" lon="12.588804368023368"><ele>874.5</ele><time>2026-05-02T10:46:06.831Z</time></trkpt><trkpt lat="42.63590461935458" lon="12.588731635992552"><ele>879.0</ele><time>2026-05-02T10:46:08.831Z</time></trkpt><trkpt lat="42.63583441306309" lon="12.588655677454444"><ele>883.5</ele><time>2026-05-02T10:46:10.831Z</time></trkpt><trkpt lat="42.63578558207206" lon="12.588593291011895"><ele>888.0</ele><time>2026-05-02T10:46:12.831Z</time></trkpt><trkpt lat="42.63571226606776" lon="12.588564564258963"><ele>888.6666666666666</ele><time>2026-05-02T10:46:14.831Z</time></trkpt><trkpt lat="42.63564265553242" lon="12.588490763167293"><ele>889.3333333333333</ele><time>2026-05-02T10:46:16.831Z</time></trkpt><trkpt lat="42.63560576142152" lon="12.588410548963573"><ele>890.0</ele><time>2026-05-02T10:46:18.831Z</time></trkpt><trkpt lat="42.63558177566125" lon="12.588265580584885"><ele>890.6666666666666</ele><time>2026-05-02T10:46:20.831Z</time></trkpt><trkpt lat="42.6355601520076" lon="12.588154021316356"><ele>891.3333333333333</ele><time>2026-05-02T10:46:22.831Z</time></trkpt><trkpt lat="42.63551931053513" lon="12.588064110032539"><ele>892.0</ele><time>2026-05-02T10:46:24.831Z</time></trkpt><trkpt lat="42.63544688724283" lon="12.587985392434959"><ele>891.9999999999999</ele><time>2026-05-02T10:46:26.831Z</time></trkpt><trkpt lat="42.63538831559829" lon="12.58792313300677"><ele>892.0</ele><time>2026-05-02T10:46:28.831Z</time></trkpt><trkpt lat="42.63531309741843" lon="12.587871367022341"><ele>892.0</ele><time>2026-05-02T10:46:30.831Z</time></trkpt><trkpt lat="42.635276164573554" lon="12.58778893864749"><ele>892.0</ele><time>2026-05-02T10:46:32.831Z</time></trkpt><trkpt lat="42.63522340363911" lon="12.587676400363561"><ele>891.9999999999999</ele><time>2026-05-02T10:47:27.83Z</time></trkpt><trkpt lat="42.6351593413992" lon="12.587552600620546"><ele>892.0</ele><time>2026-05-02T10:47:29.83Z</time></trkpt><trkpt lat="42.63508956303456" lon="12.58740000664245"><ele>896.0</ele><time>2026-05-02T10:47:31.83Z</time></trkpt><trkpt lat="42.63502881357047" lon="12.587330002662771"><ele>900.0</ele><time>2026-05-02T10:47:32.83Z</time></trkpt><trkpt lat="42.634950907292584" lon="12.58724991428136"><ele>904.0</ele><time>2026-05-02T10:47:33.83Z</time></trkpt><trkpt lat="42.634878965619265" lon="12.587175823692645"><ele>908.0</ele><time>2026-05-02T10:47:34.83Z</time></trkpt><trkpt lat="42.63482696994339" lon="12.5871116905364"><ele>912.0</ele><time>2026-05-02T10:47:35.83Z</time></trkpt><trkpt lat="42.634699860758005" lon="12.587130382399224"><ele>912.0</ele><time>2026-05-02T10:47:36.83Z</time></trkpt><trkpt lat="42.634607821862154" lon="12.587108676098167"><ele>912.0</ele><time>2026-05-02T10:47:37.83Z</time></trkpt><trkpt lat="42.63450323357661" lon="12.587080254778003"><ele>912.0</ele><time>2026-05-02T10:47:38.83Z</time></trkpt><trkpt lat="42.634402110654705" lon="12.587057086983492"><ele>912.0</ele><time>2026-05-02T10:47:39.829Z</time></trkpt><trkpt lat="42.63430561391927" lon="12.587034655348395"><ele>912.0</ele><time>2026-05-02T10:47:40.829Z</time></trkpt><trkpt lat="42.63422418362036" lon="12.587026516970854"><ele>912.6666666666666</ele><time>2026-05-02T10:47:41.829Z</time></trkpt><trkpt lat="42.63414999568305" lon="12.587031973686384"><ele>913.3333333333333</ele><time>2026-05-02T10:47:42.829Z</time></trkpt><trkpt lat="42.63402361265482" lon="12.587035459418624"><ele>914.0</ele><time>2026-05-02T10:47:44.829Z</time></trkpt><trkpt lat="42.63394945335494" lon="12.5870435613589"><ele>914.6666666666666</ele><time>2026-05-02T10:47:45.829Z</time></trkpt><trkpt lat="42.6338677682828" lon="12.587064808076745"><ele>915.3333333333333</ele><time>2026-05-02T10:47:46.829Z</time></trkpt><trkpt lat="42.63380337409432" lon="12.587070216138388"><ele>916.0</ele><time>2026-05-02T10:47:47.829Z</time></trkpt><trkpt lat="42.633687008653425" lon="12.587092700281802"><ele>917.8</ele><time>2026-05-02T10:47:49.829Z</time></trkpt><trkpt lat="42.63359293876428" lon="12.587169132940542"><ele>919.5999999999999</ele><time>2026-05-02T10:47:51.829Z</time></trkpt><trkpt lat="42.63352582375092" lon="12.587274395477182"><ele>921.4</ele><time>2026-05-02T10:47:53.829Z</time></trkpt><trkpt lat="42.63347033924167" lon="12.58736616173055"><ele>923.2</ele><time>2026-05-02T10:47:55.829Z</time></trkpt><trkpt lat="42.63343168914357" lon="12.587451119712986"><ele>925.0</ele><time>2026-05-02T10:47:57.829Z</time></trkpt><trkpt lat="42.633387641037864" lon="12.587566616286361"><ele>924.9999999999999</ele><time>2026-05-02T10:47:59.829Z</time></trkpt><trkpt lat="42.6333481205821" lon="12.58764908653126"><ele>925.0</ele><time>2026-05-02T10:48:01.829Z</time></trkpt><trkpt lat="42.633311810090596" lon="12.587729838841854"><ele>925.0</ele><time>2026-05-02T10:48:03.829Z</time></trkpt><trkpt lat="42.633276562045225" lon="12.587845219874556"><ele>925.0</ele><time>2026-05-02T10:48:06.829Z</time></trkpt><trkpt lat="42.63324597210367" lon="12.587922248118993"><ele>924.9999999999999</ele><time>2026-05-02T10:48:08.829Z</time></trkpt><trkpt lat="42.63319565393521" lon="12.588038300506128"><ele>925.0</ele><time>2026-05-02T10:48:10.829Z</time></trkpt><trkpt lat="42.63316833840319" lon="12.588122273861579"><ele>924.8333333333333</ele><time>2026-05-02T10:48:11.829Z</time></trkpt><trkpt lat="42.63314793783301" lon="12.58822483675171"><ele>924.6666666666666</ele><time>2026-05-02T10:48:12.829Z</time></trkpt><trkpt lat="42.63312859267833" lon="12.588331014673905"><ele>924.5</ele><time>2026-05-02T10:48:13.829Z</time></trkpt><trkpt lat="42.633105230994005" lon="12.58844159919222"><ele>924.3333333333333</ele><time>2026-05-02T10:48:14.829Z</time></trkpt><trkpt lat="42.633073156224135" lon="12.588548682736334"><ele>924.1666666666666</ele><time>2026-05-02T10:48:15.829Z</time></trkpt><trkpt lat="42.633030025542475" lon="12.588626238050798"><ele>924.0</ele><time>2026-05-02T10:48:16.829Z</time></trkpt><trkpt lat="42.63297301524084" lon="12.588699168197579"><ele>925.1666666666666</ele><time>2026-05-02T10:48:17.829Z</time></trkpt><trkpt lat="42.632864482824424" lon="12.588801826301449"><ele>926.3333333333333</ele><time>2026-05-02T10:48:19.829Z</time></trkpt><trkpt lat="42.632796976848205" lon="12.588824604527197"><ele>927.5</ele><time>2026-05-02T10:48:20.829Z</time></trkpt><trkpt lat="42.63271967467197" lon="12.588840058161734"><ele>928.6666666666666</ele><time>2026-05-02T10:48:21.829Z</time></trkpt><trkpt lat="42.63264339071916" lon="12.588819681535245"><ele>929.8333333333333</ele><time>2026-05-02T10:48:22.828Z</time></trkpt><trkpt lat="42.63257229548972" lon="12.588808415076006"><ele>931.0</ele><time>2026-05-02T10:48:23.828Z</time></trkpt><trkpt lat="42.63246685460806" lon="12.588795768707755"><ele>932.4999999999999</ele><time>2026-05-02T10:48:24.828Z</time></trkpt><trkpt lat="42.63239231474026" lon="12.588764394303011"><ele>934.0</ele><time>2026-05-02T10:48:25.828Z</time></trkpt><trkpt lat="42.63231714504729" lon="12.58873382697392"><ele>935.5</ele><time>2026-05-02T10:48:26.828Z</time></trkpt><trkpt lat="42.63223639010447" lon="12.588722213872863"><ele>937.0</ele><time>2026-05-02T10:48:27.828Z</time></trkpt><trkpt lat="42.63214745653062" lon="12.588715356415545"><ele>938.4999999999999</ele><time>2026-05-02T10:48:28.828Z</time></trkpt><trkpt lat="42.632063541738404" lon="12.588743665295025"><ele>940.0</ele><time>2026-05-02T10:48:29.828Z</time></trkpt><trkpt lat="42.631974528346475" lon="12.588743028361927"><ele>941.1666666666666</ele><time>2026-05-02T10:48:30.828Z</time></trkpt><trkpt lat="42.63189453805592" lon="12.588748750375483"><ele>942.3333333333333</ele><time>2026-05-02T10:48:31.828Z</time></trkpt><trkpt lat="42.631815175598604" lon="12.58875748448231"><ele>943.5</ele><time>2026-05-02T10:48:32.828Z</time></trkpt><trkpt lat="42.63174016814096" lon="12.588755553855474"><ele>944.6666666666667</ele><time>2026-05-02T10:48:33.828Z</time></trkpt><trkpt lat="42.63165676899676" lon="12.58875016550144"><ele>945.8333333333334</ele><time>2026-05-02T10:48:34.828Z</time></trkpt><trkpt lat="42.63156443891797" lon="12.58875628874872"><ele>947.0</ele><time>2026-05-02T10:48:35.828Z</time></trkpt><trkpt lat="42.631474030668" lon="12.588750951417301"><ele>947.0</ele><time>2026-05-02T10:48:36.828Z</time></trkpt><trkpt lat="42.6313937589043" lon="12.588761176937174"><ele>947.0</ele><time>2026-05-02T10:48:37.828Z</time></trkpt><trkpt lat="42.631309666156966" lon="12.588779122938043"><ele>947.0</ele><time>2026-05-02T10:48:38.828Z</time></trkpt><trkpt lat="42.631232184532806" lon="12.588794582562167"><ele>947.0</ele><time>2026-05-02T10:48:39.828Z</time></trkpt><trkpt lat="42.631120933537204" lon="12.588864765414877"><ele>947.0</ele><time>2026-05-02T10:48:41.828Z</time></trkpt><trkpt lat="42.63104666310197" lon="12.588991792784894"><ele>947.0000000000001</ele><time>2026-05-02T10:48:43.828Z</time></trkpt><trkpt lat="42.6309848322336" lon="12.589034252722222"><ele>947.0</ele><time>2026-05-02T10:48:44.828Z</time></trkpt><trkpt lat="42.63088898176567" lon="12.589106615602454"><ele>947.0</ele><time>2026-05-02T10:48:46.828Z</time></trkpt><trkpt lat="42.630820174386265" lon="12.58911707152975"><ele>947.0</ele><time>2026-05-02T10:48:47.828Z</time></trkpt><trkpt lat="42.630750483993175" lon="12.589127583410281"><ele>947.0000000000001</ele><time>2026-05-02T10:48:48.828Z</time></trkpt><trkpt lat="42.63066240359602" lon="12.589153208212526"><ele>947.0</ele><time>2026-05-02T10:48:49.828Z</time></trkpt><trkpt lat="42.63057217075129" lon="12.589166071590617"><ele>947.0000000000001</ele><time>2026-05-02T10:48:50.828Z</time></trkpt><trkpt lat="42.63050313747594" lon="12.589171947719858"><ele>947.0</ele><time>2026-05-02T10:48:51.828Z</time></trkpt><trkpt lat="42.630437316180036" lon="12.589212966676751"><ele>947.0</ele><time>2026-05-02T10:48:52.828Z</time></trkpt><trkpt lat="42.63037710911398" lon="12.589266618721103"><ele>947.0</ele><time>2026-05-02T10:48:53.828Z</time></trkpt><trkpt lat="42.63025999592215" lon="12.589346301702294"><ele>947.0000000000001</ele><time>2026-05-02T10:48:55.828Z</time></trkpt><trkpt lat="42.63019422939003" lon="12.589381138825189"><ele>947.0</ele><time>2026-05-02T10:48:56.828Z</time></trkpt><trkpt lat="42.63012367817973" lon="12.589427588113464"><ele>946.1666666666667</ele><time>2026-05-02T10:48:57.828Z</time></trkpt><trkpt lat="42.63005030384702" lon="12.589474450955612"><ele>945.3333333333334</ele><time>2026-05-02T10:48:58.828Z</time></trkpt><trkpt lat="42.629924844185304" lon="12.58954181582876"><ele>944.5</ele><time>2026-05-02T10:49:00.828Z</time></trkpt><trkpt lat="42.629853509620496" lon="12.58958001435505"><ele>943.6666666666667</ele><time>2026-05-02T10:49:01.828Z</time></trkpt><trkpt lat="42.629767878016665" lon="12.58959415769068"><ele>942.8333333333334</ele><time>2026-05-02T10:49:02.828Z</time></trkpt><trkpt lat="42.62971322504204" lon="12.589642778467642"><ele>942.0</ele><time>2026-05-02T10:49:03.828Z</time></trkpt><trkpt lat="42.6296139945454" lon="12.589747756970095"><ele>945.4000000000001</ele><time>2026-05-02T10:49:05.828Z</time></trkpt><trkpt lat="42.62957550295849" lon="12.589835240825817"><ele>948.8000000000001</ele><time>2026-05-02T10:49:06.827Z</time></trkpt><trkpt lat="42.62957540324933" lon="12.590009982129658"><ele>952.2</ele><time>2026-05-02T10:49:08.828Z</time></trkpt><trkpt lat="42.62958840336223" lon="12.590096560876773"><ele>955.6</ele><time>2026-05-02T10:49:09.828Z</time></trkpt><trkpt lat="42.629608525910385" lon="12.590191262350409"><ele>959.0</ele><time>2026-05-02T10:49:10.828Z</time></trkpt><trkpt lat="42.62964481567494" lon="12.590349586287504"><ele>959.8000000000001</ele><time>2026-05-02T10:49:12.828Z</time></trkpt><trkpt lat="42.629672661698855" lon="12.590515350033888"><ele>960.6000000000001</ele><time>2026-05-02T10:49:14.828Z</time></trkpt><trkpt lat="42.62968957586279" lon="12.590633082134941"><ele>961.4</ele><time>2026-05-02T10:49:15.828Z</time></trkpt><trkpt lat="42.62970074617346" lon="12.590749609121197"><ele>962.2</ele><time>2026-05-02T10:49:16.828Z</time></trkpt><trkpt lat="42.629721045319094" lon="12.590866142497221"><ele>963.0</ele><time>2026-05-02T10:49:17.828Z</time></trkpt><trkpt lat="42.629729308588075" lon="12.590976864664217"><ele>963.0</ele><time>2026-05-02T10:49:18.828Z</time></trkpt><trkpt lat="42.629733806266124" lon="12.591079098888734"><ele>963.0</ele><time>2026-05-02T10:49:19.828Z</time></trkpt><trkpt lat="42.629746345225044" lon="12.59118597255079"><ele>963.0</ele><time>2026-05-02T10:49:20.827Z</time></trkpt><trkpt lat="42.62975741377622" lon="12.591279323475788"><ele>963.0</ele><time>2026-05-02T10:49:21.827Z</time></trkpt><trkpt lat="42.62976634161265" lon="12.591401042081614"><ele>963.0</ele><time>2026-05-02T10:49:23.827Z</time></trkpt><trkpt lat="42.62972517840961" lon="12.591519778949873"><ele>963.0</ele><time>2026-05-02T10:49:25.827Z</time></trkpt><trkpt lat="42.62967857341099" lon="12.591593807073165"><ele>962.8333333333334</ele><time>2026-05-02T10:49:26.827Z</time></trkpt><trkpt lat="42.629628370576526" lon="12.591673571524659"><ele>962.6666666666667</ele><time>2026-05-02T10:49:28.827Z</time></trkpt><trkpt lat="42.62959844479269" lon="12.591757016948895"><ele>962.5</ele><time>2026-05-02T10:49:29.827Z</time></trkpt><trkpt lat="42.62956821932835" lon="12.591871828876222"><ele>962.3333333333334</ele><time>2026-05-02T10:49:30.827Z</time></trkpt><trkpt lat="42.62954216582679" lon="12.592002193888579"><ele>962.1666666666667</ele><time>2026-05-02T10:49:31.827Z</time></trkpt><trkpt lat="42.62953456991252" lon="12.592109043025403"><ele>962.0</ele><time>2026-05-02T10:49:32.827Z</time></trkpt><trkpt lat="42.62950726392474" lon="12.592213872719896"><ele>958.6</ele><time>2026-05-02T10:49:33.827Z</time></trkpt><trkpt lat="42.629454490253764" lon="12.592308888319508"><ele>955.2</ele><time>2026-05-02T10:49:34.827Z</time></trkpt><trkpt lat="42.6293981676238" lon="12.592446977039508"><ele>951.8</ele><time>2026-05-02T10:49:35.827Z</time></trkpt><trkpt lat="42.629334144028306" lon="12.592546659925313"><ele>948.4</ele><time>2026-05-02T10:49:36.827Z</time></trkpt><trkpt lat="42.62928674569435" lon="12.59260519053551"><ele>945.0</ele><time>2026-05-02T10:49:37.827Z</time></trkpt><trkpt lat="42.629198365024706" lon="12.592665550870295"><ele>945.0</ele><time>2026-05-02T10:49:39.827Z</time></trkpt><trkpt lat="42.62910919361005" lon="12.59265604050278"><ele>945.0</ele><time>2026-05-02T10:49:41.827Z</time></trkpt><trkpt lat="42.62903789379168" lon="12.592632123967956"><ele>945.0</ele><time>2026-05-02T10:49:43.827Z</time></trkpt><trkpt lat="42.6290386971109" lon="12.592717722990242"><ele>945.0</ele><time>2026-05-02T10:49:47.827Z</time></trkpt><trkpt lat="42.62901544818876" lon="12.59282438950767"><ele>945.0</ele><time>2026-05-02T10:51:24.876Z</time></trkpt><trkpt lat="42.62910355504959" lon="12.592821349073601"><ele>945.0</ele><time>2026-05-02T10:51:36.877Z</time></trkpt><trkpt lat="42.6291714344616" lon="12.592852366055528"><ele>945.8333333333334</ele><time>2026-05-02T10:51:50.877Z</time></trkpt><trkpt lat="42.629244596596614" lon="12.592917341178387"><ele>946.6666666666667</ele><time>2026-05-02T10:51:52.877Z</time></trkpt><trkpt lat="42.629321724120246" lon="12.593019307101715"><ele>947.5</ele><time>2026-05-02T10:51:54.877Z</time></trkpt><trkpt lat="42.62937587875161" lon="12.593101630862426"><ele>948.3333333333334</ele><time>2026-05-02T10:51:56.877Z</time></trkpt><trkpt lat="42.629374609895955" lon="12.593192735324898"><ele>949.1666666666667</ele><time>2026-05-02T10:51:58.877Z</time></trkpt><trkpt lat="42.62938912889571" lon="12.593319999810577"><ele>950.0</ele><time>2026-05-02T10:52:00.876Z</time></trkpt><trkpt lat="42.62941437845434" lon="12.593423022503954"><ele>950.0000000000001</ele><time>2026-05-02T10:52:02.876Z</time></trkpt><trkpt lat="42.62942483978036" lon="12.59354126271989"><ele>950.0</ele><time>2026-05-02T10:52:05.876Z</time></trkpt><trkpt lat="42.62943864798588" lon="12.593629420466186"><ele>950.0</ele><time>2026-05-02T10:52:07.876Z</time></trkpt><trkpt lat="42.62943176104524" lon="12.593729592823191"><ele>950.0</ele><time>2026-05-02T10:52:09.876Z</time></trkpt><trkpt lat="42.629440789851365" lon="12.593836818798255"><ele>950.0000000000001</ele><time>2026-05-02T10:52:11.876Z</time></trkpt><trkpt lat="42.6294850092406" lon="12.593912356260777"><ele>950.0</ele><time>2026-05-02T10:52:13.876Z</time></trkpt><trkpt lat="42.62953180959653" lon="12.594002467239223"><ele>952.3333333333334</ele><time>2026-05-02T10:52:15.876Z</time></trkpt><trkpt lat="42.62954813955709" lon="12.59410023229985"><ele>954.6666666666667</ele><time>2026-05-02T10:52:18.876Z</time></trkpt><trkpt lat="42.629593731732236" lon="12.594189836363146"><ele>957.0</ele><time>2026-05-02T10:52:21.876Z</time></trkpt><trkpt lat="42.62963648784354" lon="12.594253355206565"><ele>959.3333333333333</ele><time>2026-05-02T10:52:23.876Z</time></trkpt><trkpt lat="42.62966281135795" lon="12.594382781632868"><ele>961.6666666666666</ele><time>2026-05-02T10:52:26.876Z</time></trkpt><trkpt lat="42.629711175421846" lon="12.594476659405046"><ele>964.0</ele><time>2026-05-02T10:52:28.876Z</time></trkpt><trkpt lat="42.62976472758135" lon="12.594584700295913"><ele>964.3333333333333</ele><time>2026-05-02T10:52:30.876Z</time></trkpt><trkpt lat="42.62985297490172" lon="12.59467186960356"><ele>964.6666666666666</ele><time>2026-05-02T10:52:32.876Z</time></trkpt><trkpt lat="42.62991301818809" lon="12.594723154628367"><ele>965.0</ele><time>2026-05-02T10:52:33.876Z</time></trkpt><trkpt lat="42.629974446367065" lon="12.594772048026556"><ele>965.3333333333333</ele><time>2026-05-02T10:52:34.876Z</time></trkpt><trkpt lat="42.63003810451711" lon="12.594838653460322"><ele>965.6666666666666</ele><time>2026-05-02T10:52:35.876Z</time></trkpt><trkpt lat="42.63009243692304" lon="12.594896290950489"><ele>966.0</ele><time>2026-05-02T10:52:36.876Z</time></trkpt><trkpt lat="42.63016282071521" lon="12.594944144280483"><ele>966.0</ele><time>2026-05-02T10:52:37.876Z</time></trkpt><trkpt lat="42.63023105264141" lon="12.594998556752765"><ele>966.0</ele><time>2026-05-02T10:52:38.876Z</time></trkpt><trkpt lat="42.63028444951687" lon="12.595066031197492"><ele>966.0</ele><time>2026-05-02T10:52:39.876Z</time></trkpt><trkpt lat="42.63034323380924" lon="12.595157095046645"><ele>966.0</ele><time>2026-05-02T10:52:40.876Z</time></trkpt><trkpt lat="42.630406491384406" lon="12.595249816091915"><ele>966.0</ele><time>2026-05-02T10:52:41.876Z</time></trkpt><trkpt lat="42.63046500044742" lon="12.595319358688787"><ele>966.0</ele><time>2026-05-02T10:52:42.876Z</time></trkpt><trkpt lat="42.63053380358576" lon="12.595360841494529"><ele>967.5999999999999</ele><time>2026-05-02T10:52:43.876Z</time></trkpt><trkpt lat="42.63064127423113" lon="12.595423888317272"><ele>969.1999999999999</ele><time>2026-05-02T10:52:45.876Z</time></trkpt><trkpt lat="42.63074014541836" lon="12.595502360889224"><ele>970.8000000000001</ele><time>2026-05-02T10:52:47.876Z</time></trkpt><trkpt lat="42.63083419602542" lon="12.595571603863947"><ele>972.4000000000001</ele><time>2026-05-02T10:52:48.876Z</time></trkpt><trkpt lat="42.6309297366322" lon="12.595526534417184"><ele>974.0</ele><time>2026-05-02T10:52:50.876Z</time></trkpt><trkpt lat="42.630985440406725" lon="12.59545316858796"><ele>974.0000000000001</ele><time>2026-05-02T10:52:51.876Z</time></trkpt><trkpt lat="42.631036961724874" lon="12.595380248066613"><ele>974.0</ele><time>2026-05-02T10:52:52.876Z</time></trkpt><trkpt lat="42.63108772157564" lon="12.595308835584147"><ele>974.0</ele><time>2026-05-02T10:52:53.876Z</time></trkpt><trkpt lat="42.631135101470846" lon="12.595243776514538"><ele>974.0</ele><time>2026-05-02T10:52:54.876Z</time></trkpt><trkpt lat="42.631184905699875" lon="12.595177187665367"><ele>974.0000000000001</ele><time>2026-05-02T10:52:55.876Z</time></trkpt><trkpt lat="42.6312354325805" lon="12.595110498535728"><ele>974.0</ele><time>2026-05-02T10:52:56.876Z</time></trkpt><trkpt lat="42.631338483354746" lon="12.594984984883643"><ele>976.3333333333334</ele><time>2026-05-02T10:52:58.876Z</time></trkpt><trkpt lat="42.6313912019272" lon="12.594921573842939"><ele>978.6666666666667</ele><time>2026-05-02T10:52:59.876Z</time></trkpt><trkpt lat="42.63145399317885" lon="12.594858988845479"><ele>981.0</ele><time>2026-05-02T10:53:00.876Z</time></trkpt><trkpt lat="42.631517646409094" lon="12.594799871352736"><ele>983.3333333333333</ele><time>2026-05-02T10:53:01.876Z</time></trkpt><trkpt lat="42.631581284218285" lon="12.594727802378097"><ele>985.6666666666666</ele><time>2026-05-02T10:53:02.876Z</time></trkpt><trkpt lat="42.63163136869045" lon="12.594654093157194"><ele>988.0</ele><time>2026-05-02T10:53:03.876Z</time></trkpt><trkpt lat="42.63167415615728" lon="12.59458272190423"><ele>988.6666666666666</ele><time>2026-05-02T10:53:04.876Z</time></trkpt><trkpt lat="42.63169985258004" lon="12.594485461837948"><ele>989.3333333333333</ele><time>2026-05-02T10:53:05.876Z</time></trkpt><trkpt lat="42.63171280017323" lon="12.594380591779402"><ele>990.0</ele><time>2026-05-02T10:53:06.876Z</time></trkpt><trkpt lat="42.6317111587774" lon="12.594266194080658"><ele>990.6666666666667</ele><time>2026-05-02T10:53:07.876Z</time></trkpt><trkpt lat="42.63170480425159" lon="12.59415392213324"><ele>991.3333333333334</ele><time>2026-05-02T10:53:08.875Z</time></trkpt><trkpt lat="42.63172035269945" lon="12.594038729737132"><ele>992.0</ele><time>2026-05-02T10:53:09.875Z</time></trkpt><trkpt lat="42.63174824264552" lon="12.593928380363725"><ele>992.0</ele><time>2026-05-02T10:53:10.875Z</time></trkpt><trkpt lat="42.63175989268318" lon="12.593798568212627"><ele>992.0</ele><time>2026-05-02T10:53:11.875Z</time></trkpt><trkpt lat="42.63178588268405" lon="12.593678434692878"><ele>992.0</ele><time>2026-05-02T10:53:12.875Z</time></trkpt><trkpt lat="42.63180652724447" lon="12.593563768272528"><ele>992.0</ele><time>2026-05-02T10:53:13.875Z</time></trkpt><trkpt lat="42.631832471543156" lon="12.59344060301359"><ele>992.0</ele><time>2026-05-02T10:53:14.875Z</time></trkpt><trkpt lat="42.63185455386551" lon="12.593308233569456"><ele>992.2</ele><time>2026-05-02T10:53:15.875Z</time></trkpt><trkpt lat="42.63187406663222" lon="12.593172864558117"><ele>992.4000000000001</ele><time>2026-05-02T10:53:16.875Z</time></trkpt><trkpt lat="42.631888443287075" lon="12.593037892466329"><ele>992.5999999999999</ele><time>2026-05-02T10:53:17.875Z</time></trkpt><trkpt lat="42.63189987087498" lon="12.592890578604067"><ele>992.8</ele><time>2026-05-02T10:53:18.875Z</time></trkpt><trkpt lat="42.631908957886644" lon="12.592763157413854"><ele>993.0</ele><time>2026-05-02T10:53:19.876Z</time></trkpt><trkpt lat="42.63193367562108" lon="12.592574102917093"><ele>993.0</ele><time>2026-05-02T10:53:21.876Z</time></trkpt><trkpt lat="42.63195319751267" lon="12.592460047936077"><ele>993.0</ele><time>2026-05-02T10:53:22.876Z</time></trkpt><trkpt lat="42.63196945196265" lon="12.592377074168395"><ele>993.0</ele><time>2026-05-02T10:53:23.876Z</time></trkpt><trkpt lat="42.631987105312135" lon="12.592259583226921"><ele>993.0</ele><time>2026-05-02T10:53:25.876Z</time></trkpt><trkpt lat="42.63196004225862" lon="12.592178513643644"><ele>993.0</ele><time>2026-05-02T11:02:20.873Z</time></trkpt><trkpt lat="42.63199099368413" lon="12.592058439894142"><ele>993.0</ele><time>2026-05-02T11:02:23.873Z</time></trkpt><trkpt lat="42.63202631558387" lon="12.591982066243407"><ele>992.8333333333334</ele><time>2026-05-02T11:02:25.873Z</time></trkpt><trkpt lat="42.632088284862675" lon="12.59189474303419"><ele>992.6666666666667</ele><time>2026-05-02T11:02:28.873Z</time></trkpt><trkpt lat="42.63212665070084" lon="12.59180268020378"><ele>992.5</ele><time>2026-05-02T11:02:30.873Z</time></trkpt><trkpt lat="42.63211070724855" lon="12.59170737424397"><ele>992.3333333333334</ele><time>2026-05-02T11:02:34.872Z</time></trkpt><trkpt lat="42.63203089808758" lon="12.591738486918109"><ele>992.1666666666667</ele><time>2026-05-02T11:02:38.872Z</time></trkpt><trkpt lat="42.632001790262635" lon="12.59187129328264"><ele>992.0</ele><time>2026-05-02T11:02:41.872Z</time></trkpt><trkpt lat="42.63199560661317" lon="12.59199980415997"><ele>992.2</ele><time>2026-05-02T11:02:43.872Z</time></trkpt><trkpt lat="42.63199527365916" lon="12.592085469367499"><ele>992.4000000000001</ele><time>2026-05-02T11:02:44.872Z</time></trkpt><trkpt lat="42.63199467643476" lon="12.59226710257989"><ele>992.5999999999999</ele><time>2026-05-02T11:02:46.872Z</time></trkpt><trkpt lat="42.63197845353742" lon="12.592439942641903"><ele>992.8</ele><time>2026-05-02T11:02:47.872Z</time></trkpt><trkpt lat="42.63194719458534" lon="12.592568991853014"><ele>993.0</ele><time>2026-05-02T11:02:48.872Z</time></trkpt><trkpt lat="42.63194125684717" lon="12.592701216139556"><ele>993.4</ele><time>2026-05-02T11:02:49.872Z</time></trkpt><trkpt lat="42.63190436548687" lon="12.59288505576637"><ele>993.8</ele><time>2026-05-02T11:02:51.872Z</time></trkpt><trkpt lat="42.63189084850241" lon="12.593005912780031"><ele>994.2</ele><time>2026-05-02T11:02:52.872Z</time></trkpt><trkpt lat="42.63187917986649" lon="12.593124039595029"><ele>994.6</ele><time>2026-05-02T11:02:53.872Z</time></trkpt><trkpt lat="42.63186758512103" lon="12.593240241826152"><ele>995.0</ele><time>2026-05-02T11:02:54.872Z</time></trkpt><trkpt lat="42.63185033065928" lon="12.593351628181704"><ele>995.0</ele><time>2026-05-02T11:02:55.872Z</time></trkpt><trkpt lat="42.63182895754582" lon="12.59347325598717"><ele>995.0</ele><time>2026-05-02T11:02:56.872Z</time></trkpt><trkpt lat="42.631812672533755" lon="12.593598293545716"><ele>995.0</ele><time>2026-05-02T11:02:57.872Z</time></trkpt><trkpt lat="42.63179078248379" lon="12.59370498515087"><ele>995.0</ele><time>2026-05-02T11:02:58.872Z</time></trkpt><trkpt lat="42.631767939346965" lon="12.593827024621799"><ele>995.0</ele><time>2026-05-02T11:02:59.872Z</time></trkpt><trkpt lat="42.63174230913814" lon="12.593947523534563"><ele>994.5000000000001</ele><time>2026-05-02T11:03:00.872Z</time></trkpt><trkpt lat="42.63172455949237" lon="12.594040600739344"><ele>994.0</ele><time>2026-05-02T11:03:01.872Z</time></trkpt><trkpt lat="42.6317057256778" lon="12.594144487608421"><ele>993.5</ele><time>2026-05-02T11:03:02.872Z</time></trkpt><trkpt lat="42.63169338275929" lon="12.594239697730126"><ele>993.0</ele><time>2026-05-02T11:03:03.872Z</time></trkpt><trkpt lat="42.631675558599994" lon="12.594322651292222"><ele>992.5000000000001</ele><time>2026-05-02T11:03:04.872Z</time></trkpt><trkpt lat="42.63166673543692" lon="12.594463974703919"><ele>992.0</ele><time>2026-05-02T11:03:06.872Z</time></trkpt><trkpt lat="42.63164969336993" lon="12.594609621206102"><ele>991.2</ele><time>2026-05-02T11:03:08.872Z</time></trkpt><trkpt lat="42.63159142736243" lon="12.594726400176082"><ele>990.4000000000001</ele><time>2026-05-02T11:03:10.872Z</time></trkpt><trkpt lat="42.6315113383428" lon="12.594816605954918"><ele>989.5999999999999</ele><time>2026-05-02T11:03:12.872Z</time></trkpt><trkpt lat="42.63142853286626" lon="12.594895388089048"><ele>988.8</ele><time>2026-05-02T11:03:14.872Z</time></trkpt><trkpt lat="42.6313322442616" lon="12.594983685698717"><ele>988.0</ele><time>2026-05-02T11:03:16.872Z</time></trkpt><trkpt lat="42.63128051046589" lon="12.595042703201864"><ele>987.9999999999999</ele><time>2026-05-02T11:03:17.872Z</time></trkpt><trkpt lat="42.63123002432731" lon="12.595098579078702"><ele>988.0</ele><time>2026-05-02T11:03:18.872Z</time></trkpt><trkpt lat="42.63118021085858" lon="12.595164099438517"><ele>988.0</ele><time>2026-05-02T11:03:19.872Z</time></trkpt><trkpt lat="42.6311324262438" lon="12.59522827470769"><ele>988.0</ele><time>2026-05-02T11:03:20.872Z</time></trkpt><trkpt lat="42.63103218838297" lon="12.595342805535408"><ele>987.9999999999999</ele><time>2026-05-02T11:03:22.872Z</time></trkpt><trkpt lat="42.63097804072151" lon="12.595407089738421"><ele>988.0</ele><time>2026-05-02T11:03:23.872Z</time></trkpt><trkpt lat="42.6308812310637" lon="12.59551608557123"><ele>985.2</ele><time>2026-05-02T11:03:25.872Z</time></trkpt><trkpt lat="42.63077826155864" lon="12.595608314747999"><ele>982.4</ele><time>2026-05-02T11:03:27.872Z</time></trkpt><trkpt lat="42.63068700460783" lon="12.595706180668682"><ele>979.6000000000001</ele><time>2026-05-02T11:03:29.872Z</time></trkpt><trkpt lat="42.63062185247693" lon="12.59577587242279"><ele>976.8000000000001</ele><time>2026-05-02T11:03:30.872Z</time></trkpt><trkpt lat="42.63055311984121" lon="12.595843922183235"><ele>974.0</ele><time>2026-05-02T11:03:31.872Z</time></trkpt><trkpt lat="42.63049306669647" lon="12.595911543981943"><ele>974.0000000000001</ele><time>2026-05-02T11:03:32.872Z</time></trkpt><trkpt lat="42.63043611813633" lon="12.595969934158466"><ele>974.0</ele><time>2026-05-02T11:03:33.872Z</time></trkpt><trkpt lat="42.63037797249319" lon="12.596024227555496"><ele>974.0</ele><time>2026-05-02T11:03:34.872Z</time></trkpt><trkpt lat="42.63032089258615" lon="12.596075382035934"><ele>974.0</ele><time>2026-05-02T11:03:35.872Z</time></trkpt><trkpt lat="42.630230999714755" lon="12.596148465772414"><ele>974.0000000000001</ele><time>2026-05-02T11:03:37.872Z</time></trkpt><trkpt lat="42.630122958602534" lon="12.596237013196646"><ele>974.0</ele><time>2026-05-02T11:03:39.872Z</time></trkpt><trkpt lat="42.6300246044934" lon="12.596290189009865"><ele>976.1666666666667</ele><time>2026-05-02T11:03:41.872Z</time></trkpt><trkpt lat="42.62996582565112" lon="12.596321537071328"><ele>978.3333333333334</ele><time>2026-05-02T11:03:42.872Z</time></trkpt><trkpt lat="42.62987644525243" lon="12.596346489392662"><ele>980.5</ele><time>2026-05-02T11:03:44.871Z</time></trkpt><trkpt lat="42.62983119160633" lon="12.596406923219572"><ele>982.6666666666667</ele><time>2026-05-02T11:03:48.871Z</time></trkpt><trkpt lat="42.629913464145666" lon="12.596402685141083"><ele>984.8333333333334</ele><time>2026-05-02T11:03:52.872Z</time></trkpt><trkpt lat="42.629995961111355" lon="12.596324102236796"><ele>987.0</ele><time>2026-05-02T11:03:54.872Z</time></trkpt><trkpt lat="42.630113269358446" lon="12.596241303477075"><ele>987.0</ele><time>2026-05-02T11:03:56.872Z</time></trkpt><trkpt lat="42.630187425643946" lon="12.596193825461583"><ele>987.0</ele><time>2026-05-02T11:03:57.872Z</time></trkpt><trkpt lat="42.63026756441524" lon="12.596133106164373"><ele>987.0</ele><time>2026-05-02T11:03:58.872Z</time></trkpt><trkpt lat="42.63034339214829" lon="12.596067948669818"><ele>987.0</ele><time>2026-05-02T11:03:59.872Z</time></trkpt><trkpt lat="42.63041807468205" lon="12.595984232821465"><ele>987.0</ele><time>2026-05-02T11:04:00.872Z</time></trkpt><trkpt lat="42.63049044667989" lon="12.595910209480598"><ele>984.8333333333334</ele><time>2026-05-02T11:04:01.872Z</time></trkpt><trkpt lat="42.63056757326182" lon="12.595827458132927"><ele>982.6666666666667</ele><time>2026-05-02T11:04:02.872Z</time></trkpt><trkpt lat="42.63063949981415" lon="12.595741949427474"><ele>980.5</ele><time>2026-05-02T11:04:03.872Z</time></trkpt><trkpt lat="42.630710932577855" lon="12.59566514057605"><ele>978.3333333333334</ele><time>2026-05-02T11:04:04.872Z</time></trkpt><trkpt lat="42.630782430166384" lon="12.595599135702079"><ele>976.1666666666667</ele><time>2026-05-02T11:04:05.872Z</time></trkpt><trkpt lat="42.63084302629452" lon="12.595534008859726"><ele>974.0</ele><time>2026-05-02T11:04:06.872Z</time></trkpt><trkpt lat="42.630909704045095" lon="12.595466194757273"><ele>974.0</ele><time>2026-05-02T11:04:07.872Z</time></trkpt><trkpt lat="42.63097509219039" lon="12.595391997097167"><ele>974.0000000000001</ele><time>2026-05-02T11:04:08.872Z</time></trkpt><trkpt lat="42.631038004185854" lon="12.59530955035685"><ele>974.0000000000001</ele><time>2026-05-02T11:04:09.872Z</time></trkpt><trkpt lat="42.63110200119604" lon="12.59522965693769"><ele>974.0</ele><time>2026-05-02T11:04:10.872Z</time></trkpt><trkpt lat="42.63117690069363" lon="12.595135012152875"><ele>974.0</ele><time>2026-05-02T11:04:11.872Z</time></trkpt><trkpt lat="42.631251034145166" lon="12.59504780442813"><ele>976.3333333333334</ele><time>2026-05-02T11:04:12.872Z</time></trkpt><trkpt lat="42.63132118180734" lon="12.594969842860618"><ele>978.6666666666667</ele><time>2026-05-02T11:04:13.872Z</time></trkpt><trkpt lat="42.63139204767058" lon="12.594885785861358"><ele>981.0</ele><time>2026-05-02T11:04:14.872Z</time></trkpt><trkpt lat="42.63146200891028" lon="12.5948016432095"><ele>983.3333333333333</ele><time>2026-05-02T11:04:15.872Z</time></trkpt><trkpt lat="42.63153292642139" lon="12.594747275117479"><ele>985.6666666666666</ele><time>2026-05-02T11:04:16.872Z</time></trkpt><trkpt lat="42.63158399576185" lon="12.594678416869465"><ele>988.0</ele><time>2026-05-02T11:04:17.872Z</time></trkpt><trkpt lat="42.63163560334421" lon="12.594597980723005"><ele>987.9999999999999</ele><time>2026-05-02T11:04:18.872Z</time></trkpt><trkpt lat="42.63166867540183" lon="12.594519914481934"><ele>988.0</ele><time>2026-05-02T11:04:19.872Z</time></trkpt><trkpt lat="42.6316879085995" lon="12.594373459889894"><ele>988.0</ele><time>2026-05-02T11:04:21.872Z</time></trkpt><trkpt lat="42.63169229091697" lon="12.594269850147658"><ele>988.0</ele><time>2026-05-02T11:04:22.872Z</time></trkpt><trkpt lat="42.63168597849937" lon="12.59417041033602"><ele>987.9999999999999</ele><time>2026-05-02T11:04:23.872Z</time></trkpt><trkpt lat="42.631709304359944" lon="12.59403508949625"><ele>988.0</ele><time>2026-05-02T11:04:24.872Z</time></trkpt><trkpt lat="42.631735116339854" lon="12.593927140882668"><ele>988.8</ele><time>2026-05-02T11:04:25.871Z</time></trkpt><trkpt lat="42.63176135226107" lon="12.593820560418592"><ele>989.5999999999999</ele><time>2026-05-02T11:04:26.871Z</time></trkpt><trkpt lat="42.631786677735015" lon="12.59369283221851"><ele>990.4000000000001</ele><time>2026-05-02T11:04:27.871Z</time></trkpt><trkpt lat="42.63181099571014" lon="12.593565869861527"><ele>991.2</ele><time>2026-05-02T11:04:28.871Z</time></trkpt><trkpt lat="42.631834545528456" lon="12.59343457735865"><ele>992.0</ele><time>2026-05-02T11:04:29.871Z</time></trkpt><trkpt lat="42.63185189664982" lon="12.593305465690642"><ele>992.1666666666667</ele><time>2026-05-02T11:04:30.871Z</time></trkpt><trkpt lat="42.631868182167814" lon="12.593201590939087"><ele>992.3333333333334</ele><time>2026-05-02T11:04:31.871Z</time></trkpt><trkpt lat="42.63188422620517" lon="12.593077986400436"><ele>992.5</ele><time>2026-05-02T11:04:32.871Z</time></trkpt><trkpt lat="42.63189373761749" lon="12.592963873969149"><ele>992.6666666666667</ele><time>2026-05-02T11:04:33.871Z</time></trkpt><trkpt lat="42.631895129019505" lon="12.592845895864723"><ele>992.8333333333334</ele><time>2026-05-02T11:04:34.871Z</time></trkpt><trkpt lat="42.63191287162031" lon="12.592702911926622"><ele>993.0</ele><time>2026-05-02T11:04:35.871Z</time></trkpt><trkpt lat="42.631920791166756" lon="12.592598774728952"><ele>993.0</ele><time>2026-05-02T11:04:36.871Z</time></trkpt><trkpt lat="42.63195229501434" lon="12.59245467953482"><ele>993.0</ele><time>2026-05-02T11:04:38.871Z</time></trkpt><trkpt lat="42.631982299167824" lon="12.59230963338406"><ele>993.0</ele><time>2026-05-02T11:04:40.871Z</time></trkpt><trkpt lat="42.63199475643076" lon="12.592208219384649"><ele>993.0</ele><time>2026-05-02T11:04:42.871Z</time></trkpt><trkpt lat="42.63194584932881" lon="12.592143980353248"><ele>993.0</ele><time>2026-05-02T11:06:58.87Z</time></trkpt><trkpt lat="42.631901224260126" lon="12.592214942083968"><ele>993.0</ele><time>2026-05-02T11:07:01.87Z</time></trkpt><trkpt lat="42.631903030881" lon="12.59232875979455"><ele>993.0</ele><time>2026-05-02T11:07:03.87Z</time></trkpt><trkpt lat="42.63192105286516" lon="12.592497254630649"><ele>993.0</ele><time>2026-05-02T11:07:05.87Z</time></trkpt><trkpt lat="42.63192455374321" lon="12.592682356659916"><ele>993.0</ele><time>2026-05-02T11:07:07.87Z</time></trkpt><trkpt lat="42.63189841055588" lon="12.592834746766355"><ele>993.0</ele><time>2026-05-02T11:07:08.87Z</time></trkpt><trkpt lat="42.63188511807526" lon="12.592965461852826"><ele>993.3333333333334</ele><time>2026-05-02T11:07:09.87Z</time></trkpt><trkpt lat="42.63188320794056" lon="12.59307746108131"><ele>993.6666666666667</ele><time>2026-05-02T11:07:10.87Z</time></trkpt><trkpt lat="42.631875522401174" lon="12.59318798701327"><ele>994.0</ele><time>2026-05-02T11:07:11.87Z</time></trkpt><trkpt lat="42.631858133259094" lon="12.593293075774232"><ele>994.3333333333334</ele><time>2026-05-02T11:07:12.87Z</time></trkpt><trkpt lat="42.631831372713776" lon="12.593403581568113"><ele>994.6666666666667</ele><time>2026-05-02T11:07:13.87Z</time></trkpt><trkpt lat="42.63180769750817" lon="12.593536734115267"><ele>995.0</ele><time>2026-05-02T11:07:14.87Z</time></trkpt><trkpt lat="42.63178033508713" lon="12.59366366510389"><ele>994.4</ele><time>2026-05-02T11:07:15.87Z</time></trkpt><trkpt lat="42.631759354353825" lon="12.593790470360025"><ele>993.8</ele><time>2026-05-02T11:07:16.87Z</time></trkpt><trkpt lat="42.63173462226143" lon="12.593915800752189"><ele>993.2</ele><time>2026-05-02T11:07:17.87Z</time></trkpt><trkpt lat="42.631707867296804" lon="12.594047317735166"><ele>992.6</ele><time>2026-05-02T11:07:18.87Z</time></trkpt><trkpt lat="42.63169687669597" lon="12.594180361276305"><ele>992.0</ele><time>2026-05-02T11:07:19.87Z</time></trkpt><trkpt lat="42.63169073255992" lon="12.594302777399008"><ele>992.0000000000001</ele><time>2026-05-02T11:07:20.87Z</time></trkpt><trkpt lat="42.63168224797058" lon="12.594429663099646"><ele>992.0</ele><time>2026-05-02T11:07:21.87Z</time></trkpt><trkpt lat="42.63165989438306" lon="12.594535176289652"><ele>992.0</ele><time>2026-05-02T11:07:22.87Z</time></trkpt><trkpt lat="42.63162157259337" lon="12.594631799071475"><ele>992.0</ele><time>2026-05-02T11:07:23.87Z</time></trkpt><trkpt lat="42.63156354286027" lon="12.594720906032013"><ele>992.0000000000001</ele><time>2026-05-02T11:07:24.87Z</time></trkpt><trkpt lat="42.631488634736776" lon="12.594811255330281"><ele>992.0</ele><time>2026-05-02T11:07:25.87Z</time></trkpt><trkpt lat="42.63141018267146" lon="12.594892816367452"><ele>991.0</ele><time>2026-05-02T11:07:26.87Z</time></trkpt><trkpt lat="42.631327745706386" lon="12.594989436548884"><ele>990.0</ele><time>2026-05-02T11:07:27.87Z</time></trkpt><trkpt lat="42.63125266895424" lon="12.595100413874093"><ele>989.0</ele><time>2026-05-02T11:07:28.87Z</time></trkpt><trkpt lat="42.631164763148455" lon="12.595203676254352"><ele>988.0</ele><time>2026-05-02T11:07:29.87Z</time></trkpt><trkpt lat="42.63107636726717" lon="12.59530527727222"><ele>984.5</ele><time>2026-05-02T11:07:30.87Z</time></trkpt><trkpt lat="42.63099532283773" lon="12.595404159546305"><ele>981.0</ele><time>2026-05-02T11:07:31.87Z</time></trkpt><trkpt lat="42.63091488628795" lon="12.59549713633761"><ele>977.5</ele><time>2026-05-02T11:07:32.87Z</time></trkpt><trkpt lat="42.630824575420796" lon="12.595592945747988"><ele>974.0</ele><time>2026-05-02T11:07:33.87Z</time></trkpt><trkpt lat="42.63071845415465" lon="12.595702058711126"><ele>974.0</ele><time>2026-05-02T11:07:34.87Z</time></trkpt><trkpt lat="42.6306042952798" lon="12.595817919518158"><ele>974.0</ele><time>2026-05-02T11:07:35.87Z</time></trkpt><trkpt lat="42.63049338761175" lon="12.59593124206669"><ele>974.0</ele><time>2026-05-02T11:07:36.87Z</time></trkpt><trkpt lat="42.630381163213436" lon="12.596046500507665"><ele>974.0</ele><time>2026-05-02T11:07:37.87Z</time></trkpt><trkpt lat="42.63025911903447" lon="12.596153129925588"><ele>977.25</ele><time>2026-05-02T11:07:38.87Z</time></trkpt><trkpt lat="42.63014072664439" lon="12.596245772940756"><ele>980.5</ele><time>2026-05-02T11:07:39.87Z</time></trkpt><trkpt lat="42.63002280071851" lon="12.596315898038702"><ele>983.75</ele><time>2026-05-02T11:07:40.87Z</time></trkpt><trkpt lat="42.629909301124364" lon="12.596373282938034"><ele>987.0</ele><time>2026-05-02T11:07:41.87Z</time></trkpt><trkpt lat="42.62982303406402" lon="12.596398181607173"><ele>987.0</ele><time>2026-05-02T11:07:42.87Z</time></trkpt><trkpt lat="42.62974417825919" lon="12.596404948469178"><ele>987.0</ele><time>2026-05-02T11:07:43.87Z</time></trkpt><trkpt lat="42.629673986414964" lon="12.59638446222584"><ele>987.0</ele><time>2026-05-02T11:07:44.87Z</time></trkpt><trkpt lat="42.629574907326905" lon="12.59635547090672"><ele>987.0</ele><time>2026-05-02T11:07:46.87Z</time></trkpt><trkpt lat="42.62955063331263" lon="12.596451973248806"><ele>987.0</ele><time>2026-05-02T11:07:50.87Z</time></trkpt><trkpt lat="42.62958446185193" lon="12.596526395373331"><ele>987.0</ele><time>2026-05-02T11:07:52.87Z</time></trkpt><trkpt lat="42.62955686585344" lon="12.596656074476977"><ele>987.0</ele><time>2026-05-02T11:07:54.87Z</time></trkpt><trkpt lat="42.62949085036266" lon="12.59676967751156"><ele>987.0</ele><time>2026-05-02T11:07:56.87Z</time></trkpt><trkpt lat="42.62940732887014" lon="12.596875382721784"><ele>987.0</ele><time>2026-05-02T11:07:58.87Z</time></trkpt><trkpt lat="42.62938767028941" lon="12.59696955874016"><ele>987.0</ele><time>2026-05-02T11:07:59.869Z</time></trkpt><trkpt lat="42.62938980696291" lon="12.597070303531108"><ele>987.0</ele><time>2026-05-02T11:08:00.869Z</time></trkpt><trkpt lat="42.629427446873144" lon="12.597157681924257"><ele>987.0</ele><time>2026-05-02T11:08:01.87Z</time></trkpt><trkpt lat="42.6294752880399" lon="12.597238923864692"><ele>988.4000000000001</ele><time>2026-05-02T11:08:02.87Z</time></trkpt><trkpt lat="42.62955489144284" lon="12.597331994273647"><ele>989.8000000000001</ele><time>2026-05-02T11:08:03.87Z</time></trkpt><trkpt lat="42.62964937519748" lon="12.597396201271152"><ele>991.2</ele><time>2026-05-02T11:08:04.87Z</time></trkpt><trkpt lat="42.62973897348773" lon="12.597438884206223"><ele>992.6</ele><time>2026-05-02T11:08:05.87Z</time></trkpt><trkpt lat="42.62982602969339" lon="12.597469811295383"><ele>994.0</ele><time>2026-05-02T11:08:06.87Z</time></trkpt><trkpt lat="42.629892074608584" lon="12.597517536927091"><ele>993.9999999999999</ele><time>2026-05-02T11:08:07.87Z</time></trkpt><trkpt lat="42.629950125707346" lon="12.597591620652146"><ele>994.0</ele><time>2026-05-02T11:08:08.87Z</time></trkpt><trkpt lat="42.62999947425351" lon="12.597679367396916"><ele>994.0</ele><time>2026-05-02T11:08:09.87Z</time></trkpt><trkpt lat="42.63002524858068" lon="12.597775365378308"><ele>994.0</ele><time>2026-05-02T11:08:10.87Z</time></trkpt><trkpt lat="42.630028483186344" lon="12.597870350823994"><ele>993.9999999999999</ele><time>2026-05-02T11:08:11.87Z</time></trkpt><trkpt lat="42.63000159251734" lon="12.597980460139548"><ele>994.0</ele><time>2026-05-02T11:08:12.87Z</time></trkpt><trkpt lat="42.62995249952537" lon="12.598079492255845"><ele>995.2857142857142</ele><time>2026-05-02T11:08:13.87Z</time></trkpt><trkpt lat="42.629891234723814" lon="12.598151281529407"><ele>996.5714285714286</ele><time>2026-05-02T11:08:14.87Z</time></trkpt><trkpt lat="42.62982335911226" lon="12.598215827854078"><ele>997.8571428571429</ele><time>2026-05-02T11:08:15.87Z</time></trkpt><trkpt lat="42.62975660025538" lon="12.598260327173838"><ele>999.1428571428571</ele><time>2026-05-02T11:08:16.87Z</time></trkpt><trkpt lat="42.62969073529092" lon="12.598298716658393"><ele>1000.4285714285713</ele><time>2026-05-02T11:08:17.87Z</time></trkpt><trkpt lat="42.62962421052844" lon="12.59833965284084"><ele>1001.7142857142857</ele><time>2026-05-02T11:08:18.87Z</time></trkpt><trkpt lat="42.62958524423297" lon="12.59841188168143"><ele>1003.0</ele><time>2026-05-02T11:08:19.87Z</time></trkpt><trkpt lat="42.629581710563336" lon="12.598506968617372"><ele>1003.0</ele><time>2026-05-02T11:08:20.87Z</time></trkpt><trkpt lat="42.6296044805361" lon="12.598621338486716"><ele>1003.0</ele><time>2026-05-02T11:08:21.87Z</time></trkpt><trkpt lat="42.629646314139414" lon="12.598738961653762"><ele>1003.0</ele><time>2026-05-02T11:08:22.87Z</time></trkpt><trkpt lat="42.629684207673904" lon="12.59884448219122"><ele>1003.0</ele><time>2026-05-02T11:08:23.87Z</time></trkpt><trkpt lat="42.62972505733414" lon="12.598930664313269"><ele>1003.0</ele><time>2026-05-02T11:08:24.87Z</time></trkpt><trkpt lat="42.629791962530184" lon="12.599065449533784"><ele>1004.6666666666666</ele><time>2026-05-02T11:08:26.87Z</time></trkpt><trkpt lat="42.6298309506851" lon="12.599137695912837"><ele>1006.3333333333333</ele><time>2026-05-02T11:08:27.87Z</time></trkpt><trkpt lat="42.62987948840061" lon="12.599219380702761"><ele>1008.0</ele><time>2026-05-02T11:08:28.87Z</time></trkpt><trkpt lat="42.62992637880737" lon="12.599299844725468"><ele>1009.6666666666667</ele><time>2026-05-02T11:08:29.87Z</time></trkpt><trkpt lat="42.62997483989501" lon="12.599391416276633"><ele>1011.3333333333334</ele><time>2026-05-02T11:08:30.87Z</time></trkpt><trkpt lat="42.630036448909635" lon="12.599485092901958"><ele>1013.0</ele><time>2026-05-02T11:08:31.87Z</time></trkpt><trkpt lat="42.630102283738715" lon="12.599560482745195"><ele>1012.3333333333334</ele><time>2026-05-02T11:08:32.87Z</time></trkpt><trkpt lat="42.630179816064334" lon="12.599614855097673"><ele>1011.6666666666667</ele><time>2026-05-02T11:08:33.87Z</time></trkpt><trkpt lat="42.63024495702362" lon="12.599636078233026"><ele>1011.0</ele><time>2026-05-02T11:08:34.87Z</time></trkpt><trkpt lat="42.630327959323154" lon="12.599687645975132"><ele>1010.3333333333333</ele><time>2026-05-02T11:08:35.87Z</time></trkpt><trkpt lat="42.63040282239985" lon="12.599740038856053"><ele>1009.6666666666666</ele><time>2026-05-02T11:08:36.87Z</time></trkpt><trkpt lat="42.63046869866137" lon="12.59979076732344"><ele>1009.0</ele><time>2026-05-02T11:08:37.87Z</time></trkpt><trkpt lat="42.63053567327144" lon="12.59986108767864"><ele>1008.9999999999999</ele><time>2026-05-02T11:08:38.87Z</time></trkpt><trkpt lat="42.63059084717381" lon="12.599936218610244"><ele>1009.0</ele><time>2026-05-02T11:08:39.87Z</time></trkpt><trkpt lat="42.63064783424094" lon="12.600020161458543"><ele>1009.0</ele><time>2026-05-02T11:08:40.87Z</time></trkpt><trkpt lat="42.63069775412399" lon="12.600102184906634"><ele>1009.0</ele><time>2026-05-02T11:08:41.87Z</time></trkpt><trkpt lat="42.63074900367095" lon="12.600179348170236"><ele>1008.9999999999999</ele><time>2026-05-02T11:08:42.87Z</time></trkpt><trkpt lat="42.630786525759255" lon="12.60025678095106"><ele>1009.0</ele><time>2026-05-02T11:08:43.87Z</time></trkpt><trkpt lat="42.630825464205586" lon="12.600327806782001"><ele>1010.9999999999999</ele><time>2026-05-02T11:08:44.87Z</time></trkpt><trkpt lat="42.63087872935955" lon="12.600415141816004"><ele>1013.0</ele><time>2026-05-02T11:08:46.87Z</time></trkpt><trkpt lat="42.63092176546265" lon="12.600505064430028"><ele>1015.0</ele><time>2026-05-02T11:08:49.87Z</time></trkpt><trkpt lat="42.63086281798458" lon="12.600571748678782"><ele>1017.0</ele><time>2026-05-02T11:08:52.87Z</time></trkpt><trkpt lat="42.63076639127704" lon="12.600532254278152"><ele>1018.9999999999999</ele><time>2026-05-02T11:08:54.87Z</time></trkpt><trkpt lat="42.630720087766036" lon="12.600466279146701"><ele>1021.0</ele><time>2026-05-02T11:08:55.87Z</time></trkpt><trkpt lat="42.63065164780669" lon="12.600350964681155"><ele>1018.5999999999999</ele><time>2026-05-02T11:08:57.87Z</time></trkpt><trkpt lat="42.63055907904556" lon="12.600293730991433"><ele>1016.1999999999999</ele><time>2026-05-02T11:08:59.869Z</time></trkpt><trkpt lat="42.63043604817267" lon="12.60026298533221"><ele>1013.8000000000001</ele><time>2026-05-02T11:09:01.869Z</time></trkpt><trkpt lat="42.630321244121774" lon="12.600274311752228"><ele>1011.4000000000001</ele><time>2026-05-02T11:09:03.869Z</time></trkpt><trkpt lat="42.63026595784255" lon="12.600373602762028"><ele>1009.0</ele><time>2026-05-02T11:09:05.869Z</time></trkpt><trkpt lat="42.63023711099558" lon="12.600484486483303"><ele>1048.0</ele><time>2026-05-02T11:09:07.869Z</time></trkpt><trkpt lat="42.63030719506116" lon="12.600475217272795"><ele>1048.0</ele><time>2026-05-02T11:09:12.869Z</time></trkpt><trkpt lat="42.63023918698824" lon="12.600439827389579"><ele>1048.0</ele><time>2026-05-02T11:09:15.869Z</time></trkpt><trkpt lat="42.6301685908033" lon="12.600467983129203"><ele>1048.0</ele><time>2026-05-02T11:09:17.869Z</time></trkpt></trkseg><trkseg><trkpt lat="42.630252415966524" lon="12.600406922501005"><ele>1043.5</ele><time>2026-05-02T11:42:10.997Z</time></trkpt><trkpt lat="42.63031693290122" lon="12.600369644641804"><ele>1039.0</ele><time>2026-05-02T11:42:12.997Z</time></trkpt><trkpt lat="42.6303995684245" lon="12.600306731249477"><ele>1034.5</ele><time>2026-05-02T11:42:15.997Z</time></trkpt><trkpt lat="42.630460807373765" lon="12.600279602391485"><ele>1030.0</ele><time>2026-05-02T11:42:17.997Z</time></trkpt><trkpt lat="42.63055439351303" lon="12.600282020949816"><ele>1025.5</ele><time>2026-05-02T11:42:20.997Z</time></trkpt><trkpt lat="42.630622337036556" lon="12.600321700759796"><ele>1021.0</ele><time>2026-05-02T11:42:22.997Z</time></trkpt><trkpt lat="42.63069664466968" lon="12.600371141715113"><ele>1020.9999999999999</ele><time>2026-05-02T11:42:24.997Z</time></trkpt><trkpt lat="42.6307570805672" lon="12.600462672056034"><ele>1021.0</ele><time>2026-05-02T11:42:26.997Z</time></trkpt><trkpt lat="42.63079988865124" lon="12.600544990493692"><ele>1021.0</ele><time>2026-05-02T11:42:28.997Z</time></trkpt><trkpt lat="42.630889370957895" lon="12.600566398786016"><ele>1021.0</ele><time>2026-05-02T11:42:30.997Z</time></trkpt><trkpt lat="42.63095851153209" lon="12.600574054807188"><ele>1020.9999999999999</ele><time>2026-05-02T11:42:31.997Z</time></trkpt><trkpt lat="42.6310260525222" lon="12.600593267509373"><ele>1021.0</ele><time>2026-05-02T11:42:33.997Z</time></trkpt><trkpt lat="42.63099298224513" lon="12.600514544891254"><ele>1021.0</ele><time>2026-05-02T11:42:55.996Z</time></trkpt><trkpt lat="42.63088426778314" lon="12.600461770059729"><ele>1020.9999999999999</ele><time>2026-05-02T11:42:57.996Z</time></trkpt><trkpt lat="42.630808421327636" lon="12.600350686433233"><ele>1020.9999999999999</ele><time>2026-05-02T11:42:59.996Z</time></trkpt><trkpt lat="42.6307752646868" lon="12.600260202015933"><ele>1021.0</ele><time>2026-05-02T11:43:00.996Z</time></trkpt><trkpt lat="42.63072164284095" lon="12.600174818986527"><ele>1021.0</ele><time>2026-05-02T11:43:01.996Z</time></trkpt><trkpt lat="42.63066798200426" lon="12.600093820379842"><ele>1022.6666666666666</ele><time>2026-05-02T11:43:02.996Z</time></trkpt><trkpt lat="42.63062292273073" lon="12.600006978948768"><ele>1024.3333333333333</ele><time>2026-05-02T11:43:03.996Z</time></trkpt><trkpt lat="42.630580071205976" lon="12.59993883903078"><ele>1026.0</ele><time>2026-05-02T11:43:04.996Z</time></trkpt><trkpt lat="42.630513828655765" lon="12.599859419309821"><ele>1027.6666666666667</ele><time>2026-05-02T11:43:05.996Z</time></trkpt><trkpt lat="42.63044618061292" lon="12.599804483689082"><ele>1029.3333333333335</ele><time>2026-05-02T11:43:06.996Z</time></trkpt><trkpt lat="42.63037491452236" lon="12.599760505361719"><ele>1031.0</ele><time>2026-05-02T11:43:07.996Z</time></trkpt><trkpt lat="42.6303016577046" lon="12.599725684849245"><ele>1031.0</ele><time>2026-05-02T11:43:08.996Z</time></trkpt><trkpt lat="42.63023770825664" lon="12.599686858335312"><ele>1031.0</ele><time>2026-05-02T11:43:09.996Z</time></trkpt><trkpt lat="42.63017548136318" lon="12.59965747724306"><ele>1031.0</ele><time>2026-05-02T11:43:10.996Z</time></trkpt><trkpt lat="42.63010182061722" lon="12.599614154390085"><ele>1031.0</ele><time>2026-05-02T11:43:11.996Z</time></trkpt><trkpt lat="42.630038360029324" lon="12.59953983382165"><ele>1031.0</ele><time>2026-05-02T11:43:12.996Z</time></trkpt><trkpt lat="42.629975847580276" lon="12.59944966205151"><ele>1031.0</ele><time>2026-05-02T11:43:13.996Z</time></trkpt><trkpt lat="42.62991123371546" lon="12.599358731116837"><ele>1028.0</ele><time>2026-05-02T11:43:14.996Z</time></trkpt><trkpt lat="42.62986368008202" lon="12.599265324862138"><ele>1025.0</ele><time>2026-05-02T11:43:15.996Z</time></trkpt><trkpt lat="42.629816458586575" lon="12.599183166571366"><ele>1022.0</ele><time>2026-05-02T11:43:16.996Z</time></trkpt><trkpt lat="42.62977968316325" lon="12.599095809415797"><ele>1019.0</ele><time>2026-05-02T11:43:17.996Z</time></trkpt><trkpt lat="42.62973232310535" lon="12.598990876071177"><ele>1016.0000000000001</ele><time>2026-05-02T11:43:18.996Z</time></trkpt><trkpt lat="42.62969546408792" lon="12.598893649638125"><ele>1013.0</ele><time>2026-05-02T11:43:19.996Z</time></trkpt><trkpt lat="42.62966355284151" lon="12.59880798125431"><ele>1013.0000000000001</ele><time>2026-05-02T11:43:20.996Z</time></trkpt><trkpt lat="42.629640821897056" lon="12.59871684759957"><ele>1013.0</ele><time>2026-05-02T11:43:21.996Z</time></trkpt><trkpt lat="42.62961829104207" lon="12.598634638910621"><ele>1013.0</ele><time>2026-05-02T11:43:22.996Z</time></trkpt><trkpt lat="42.62961279247606" lon="12.598524339935889"><ele>1013.0</ele><time>2026-05-02T11:43:23.996Z</time></trkpt><trkpt lat="42.62964450673671" lon="12.59842141159788"><ele>1013.0000000000001</ele><time>2026-05-02T11:43:24.996Z</time></trkpt><trkpt lat="42.62970934535587" lon="12.598357451369317"><ele>1013.0</ele><time>2026-05-02T11:43:25.996Z</time></trkpt><trkpt lat="42.629780772275986" lon="12.598286492220627"><ele>1011.3333333333334</ele><time>2026-05-02T11:43:26.996Z</time></trkpt><trkpt lat="42.62985988493623" lon="12.598231321537286"><ele>1009.6666666666667</ele><time>2026-05-02T11:43:27.996Z</time></trkpt><trkpt lat="42.629909143621006" lon="12.598163733837763"><ele>1008.0</ele><time>2026-05-02T11:43:28.996Z</time></trkpt><trkpt lat="42.62996550785943" lon="12.598089192507992"><ele>1006.3333333333333</ele><time>2026-05-02T11:43:29.996Z</time></trkpt><trkpt lat="42.63000909308256" lon="12.59799875277556"><ele>1004.6666666666666</ele><time>2026-05-02T11:43:30.996Z</time></trkpt><trkpt lat="42.63002167346106" lon="12.59789179138953"><ele>1003.0</ele><time>2026-05-02T11:43:31.996Z</time></trkpt><trkpt lat="42.63000110294895" lon="12.597782611575802"><ele>1001.4999999999999</ele><time>2026-05-02T11:43:32.996Z</time></trkpt><trkpt lat="42.629953565610464" lon="12.597678864386749"><ele>1000.0</ele><time>2026-05-02T11:43:33.996Z</time></trkpt><trkpt lat="42.62988624920116" lon="12.59759573208025"><ele>998.5</ele><time>2026-05-02T11:43:34.996Z</time></trkpt><trkpt lat="42.62982225271779" lon="12.597522678085484"><ele>997.0</ele><time>2026-05-02T11:43:35.996Z</time></trkpt><trkpt lat="42.62975139602114" lon="12.597469138267982"><ele>995.4999999999999</ele><time>2026-05-02T11:43:36.996Z</time></trkpt><trkpt lat="42.629675246326826" lon="12.59741874227699"><ele>994.0</ele><time>2026-05-02T11:43:37.996Z</time></trkpt><trkpt lat="42.629599663701526" lon="12.597393928719338"><ele>993.9999999999999</ele><time>2026-05-02T11:43:38.996Z</time></trkpt><trkpt lat="42.6295420393374" lon="12.597341408690498"><ele>994.0</ele><time>2026-05-02T11:43:39.996Z</time></trkpt><trkpt lat="42.62948808839626" lon="12.597285494448446"><ele>994.0</ele><time>2026-05-02T11:43:40.996Z</time></trkpt><trkpt lat="42.62944254168399" lon="12.597218684925597"><ele>994.0</ele><time>2026-05-02T11:43:41.996Z</time></trkpt><trkpt lat="42.62942583707524" lon="12.597120777119367"><ele>993.9999999999999</ele><time>2026-05-02T11:43:42.996Z</time></trkpt><trkpt lat="42.629425393351106" lon="12.596978437127326"><ele>994.0</ele><time>2026-05-02T11:43:44.996Z</time></trkpt><trkpt lat="42.62946487311216" lon="12.596876134301647"><ele>992.8333333333333</ele><time>2026-05-02T11:43:45.996Z</time></trkpt><trkpt lat="42.62951979648962" lon="12.59679070585723"><ele>991.6666666666666</ele><time>2026-05-02T11:43:46.996Z</time></trkpt><trkpt lat="42.62956903414808" lon="12.59670751293894"><ele>990.5</ele><time>2026-05-02T11:43:47.996Z</time></trkpt><trkpt lat="42.62961081219852" lon="12.596624362374314"><ele>989.3333333333333</ele><time>2026-05-02T11:43:48.996Z</time></trkpt><trkpt lat="42.629616884467886" lon="12.59651358670356"><ele>988.1666666666666</ele><time>2026-05-02T11:43:49.996Z</time></trkpt><trkpt lat="42.62961173599287" lon="12.59640445061005"><ele>987.0</ele><time>2026-05-02T11:43:50.996Z</time></trkpt><trkpt lat="42.62959914028103" lon="12.596306450965491"><ele>987.0</ele><time>2026-05-02T11:43:51.996Z</time></trkpt><trkpt lat="42.62956759877476" lon="12.596210563862732"><ele>987.0</ele><time>2026-05-02T11:43:52.996Z</time></trkpt><trkpt lat="42.629529207087366" lon="12.59609839369558"><ele>987.0</ele><time>2026-05-02T11:43:53.996Z</time></trkpt><trkpt lat="42.62949086356198" lon="12.595994017011366"><ele>987.0</ele><time>2026-05-02T11:43:54.996Z</time></trkpt><trkpt lat="42.62945019371702" lon="12.595900895754822"><ele>987.0</ele><time>2026-05-02T11:43:55.996Z</time></trkpt><trkpt lat="42.62941077138214" lon="12.595792331153365"><ele>987.0</ele><time>2026-05-02T11:43:56.996Z</time></trkpt><trkpt lat="42.62936506111285" lon="12.595706871814976"><ele>987.6666666666666</ele><time>2026-05-02T11:43:57.996Z</time></trkpt><trkpt lat="42.62930595885459" lon="12.595620828985194"><ele>988.3333333333333</ele><time>2026-05-02T11:43:58.996Z</time></trkpt><trkpt lat="42.62924715363786" lon="12.595532144860003"><ele>989.0</ele><time>2026-05-02T11:43:59.996Z</time></trkpt><trkpt lat="42.62919401125943" lon="12.595439269361092"><ele>989.6666666666666</ele><time>2026-05-02T11:44:00.996Z</time></trkpt><trkpt lat="42.629148667883534" lon="12.59535221907811"><ele>990.3333333333333</ele><time>2026-05-02T11:44:01.996Z</time></trkpt><trkpt lat="42.6291187755726" lon="12.595253166440626"><ele>991.0</ele><time>2026-05-02T11:44:02.996Z</time></trkpt><trkpt lat="42.6290931942348" lon="12.595158449234107"><ele>988.5714285714287</ele><time>2026-05-02T11:44:03.996Z</time></trkpt><trkpt lat="42.62905939468299" lon="12.595062748486777"><ele>986.1428571428571</ele><time>2026-05-02T11:44:04.996Z</time></trkpt><trkpt lat="42.62902416757515" lon="12.594982221896522"><ele>983.7142857142858</ele><time>2026-05-02T11:44:05.996Z</time></trkpt><trkpt lat="42.62898359016186" lon="12.594900369055097"><ele>981.2857142857143</ele><time>2026-05-02T11:44:06.996Z</time></trkpt><trkpt lat="42.62893590363834" lon="12.594825423984654"><ele>978.8571428571429</ele><time>2026-05-02T11:44:07.996Z</time></trkpt><trkpt lat="42.62887552530248" lon="12.594748894638464"><ele>976.4285714285714</ele><time>2026-05-02T11:44:08.996Z</time></trkpt><trkpt lat="42.628818944346406" lon="12.594698116868733"><ele>974.0</ele><time>2026-05-02T11:44:09.996Z</time></trkpt><trkpt lat="42.62875239674784" lon="12.594655503833366"><ele>974.0</ele><time>2026-05-02T11:44:10.996Z</time></trkpt><trkpt lat="42.62868366641833" lon="12.594626050351172"><ele>974.0000000000001</ele><time>2026-05-02T11:44:11.995Z</time></trkpt><trkpt lat="42.62860629500969" lon="12.59460370763563"><ele>974.0000000000001</ele><time>2026-05-02T11:44:12.995Z</time></trkpt><trkpt lat="42.62849312597491" lon="12.594567863037309"><ele>974.0</ele><time>2026-05-02T11:44:14.995Z</time></trkpt><trkpt lat="42.628371822176554" lon="12.594545845898123"><ele>974.0</ele><time>2026-05-02T11:44:16.995Z</time></trkpt><trkpt lat="42.62829057546118" lon="12.594573476429751"><ele>975.0</ele><time>2026-05-02T11:44:17.995Z</time></trkpt><trkpt lat="42.62822422222913" lon="12.594635354251347"><ele>976.0</ele><time>2026-05-02T11:44:18.995Z</time></trkpt><trkpt lat="42.62816657603752" lon="12.59471256498919"><ele>977.0</ele><time>2026-05-02T11:44:19.995Z</time></trkpt><trkpt lat="42.628111576027315" lon="12.594763479462621"><ele>978.0</ele><time>2026-05-02T11:44:20.995Z</time></trkpt><trkpt lat="42.6280482216553" lon="12.594773393654485"><ele>979.0</ele><time>2026-05-02T11:44:21.995Z</time></trkpt><trkpt lat="42.62797941009106" lon="12.594762996825308"><ele>980.0</ele><time>2026-05-02T11:44:22.995Z</time></trkpt><trkpt lat="42.6279094231843" lon="12.594715272488726"><ele>981.0</ele><time>2026-05-02T11:44:23.995Z</time></trkpt><trkpt lat="42.62786045267109" lon="12.594634213344483"><ele>981.0</ele><time>2026-05-02T11:44:24.995Z</time></trkpt><trkpt lat="42.627839651520986" lon="12.59454573403908"><ele>981.0</ele><time>2026-05-02T11:44:25.995Z</time></trkpt><trkpt lat="42.6277669559385" lon="12.594428018458206"><ele>981.0</ele><time>2026-05-02T11:44:27.995Z</time></trkpt><trkpt lat="42.6276935847231" lon="12.594400157181543"><ele>981.0</ele><time>2026-05-02T11:44:28.995Z</time></trkpt><trkpt lat="42.62759778375766" lon="12.594406132731399"><ele>981.0</ele><time>2026-05-02T11:44:29.995Z</time></trkpt><trkpt lat="42.627507324294605" lon="12.59438905920673"><ele>981.0</ele><time>2026-05-02T11:44:30.995Z</time></trkpt><trkpt lat="42.62742379568859" lon="12.594366239086598"><ele>977.8333333333334</ele><time>2026-05-02T11:44:31.995Z</time></trkpt><trkpt lat="42.6273468589668" lon="12.594348915571121"><ele>974.6666666666667</ele><time>2026-05-02T11:44:32.995Z</time></trkpt><trkpt lat="42.62726442289175" lon="12.594329903745392"><ele>971.5</ele><time>2026-05-02T11:44:33.995Z</time></trkpt><trkpt lat="42.62719719812388" lon="12.594325327076106"><ele>968.3333333333334</ele><time>2026-05-02T11:44:34.995Z</time></trkpt><trkpt lat="42.62711882283514" lon="12.594344520235259"><ele>965.1666666666667</ele><time>2026-05-02T11:44:35.995Z</time></trkpt><trkpt lat="42.62704410017705" lon="12.594387273477746"><ele>962.0</ele><time>2026-05-02T11:44:36.995Z</time></trkpt><trkpt lat="42.62698154679801" lon="12.594416379222519"><ele>961.6</ele><time>2026-05-02T11:44:37.995Z</time></trkpt><trkpt lat="42.62692081804562" lon="12.594470362624138"><ele>961.2</ele><time>2026-05-02T11:44:38.995Z</time></trkpt><trkpt lat="42.626793336928785" lon="12.594504217643019"><ele>960.8</ele><time>2026-05-02T11:44:40.995Z</time></trkpt><trkpt lat="42.6267173004787" lon="12.594380171280152"><ele>960.4</ele><time>2026-05-02T11:44:42.995Z</time></trkpt><trkpt lat="42.62668662163181" lon="12.594291266371727"><ele>960.0</ele><time>2026-05-02T11:44:43.995Z</time></trkpt><trkpt lat="42.62665594540258" lon="12.594194149340536"><ele>960.0</ele><time>2026-05-02T11:44:44.995Z</time></trkpt><trkpt lat="42.626778779664384" lon="12.593962777329805"><ele>960.0</ele><time>2026-05-02T11:44:45.995Z</time></trkpt><trkpt lat="42.62670889189313" lon="12.59381149262693"><ele>960.0</ele><time>2026-05-02T11:44:47.995Z</time></trkpt><trkpt lat="42.62667331785246" lon="12.59373282387973"><ele>960.0</ele><time>2026-05-02T11:44:48.995Z</time></trkpt><trkpt lat="42.6266131026919" lon="12.593625488787247"><ele>957.6666666666666</ele><time>2026-05-02T11:44:49.995Z</time></trkpt><trkpt lat="42.62650329423116" lon="12.593553668641182"><ele>955.3333333333333</ele><time>2026-05-02T11:44:50.995Z</time></trkpt><trkpt lat="42.62642243870031" lon="12.593542958710984"><ele>953.0</ele><time>2026-05-02T11:44:51.995Z</time></trkpt><trkpt lat="42.62632777535252" lon="12.593600812874403"><ele>950.6666666666666</ele><time>2026-05-02T11:44:52.995Z</time></trkpt><trkpt lat="42.62638325652214" lon="12.593524938942648"><ele>948.3333333333333</ele><time>2026-05-02T11:44:56.995Z</time></trkpt><trkpt lat="42.626440048871444" lon="12.593562003393869"><ele>946.0</ele><time>2026-05-02T11:44:59.995Z</time></trkpt><trkpt lat="42.62651431816576" lon="12.593585572688232"><ele>946.0</ele><time>2026-05-02T11:45:02.995Z</time></trkpt><trkpt lat="42.626583373029206" lon="12.593624128952882"><ele>945.9999999999999</ele><time>2026-05-02T11:45:10.995Z</time></trkpt><trkpt lat="42.626623452663395" lon="12.593703452567869"><ele>945.9999999999999</ele><time>2026-05-02T11:45:12.995Z</time></trkpt><trkpt lat="42.62670299473634" lon="12.593846024080399"><ele>946.0</ele><time>2026-05-02T11:45:14.995Z</time></trkpt><trkpt lat="42.62672996378291" lon="12.593927791414357"><ele>946.0</ele><time>2026-05-02T11:45:15.995Z</time></trkpt><trkpt lat="42.626816023053" lon="12.594042340328384"><ele>948.3333333333333</ele><time>2026-05-02T11:45:17.995Z</time></trkpt><trkpt lat="42.62690926452052" lon="12.59403568669565"><ele>950.6666666666666</ele><time>2026-05-02T11:45:18.995Z</time></trkpt><trkpt lat="42.62698361073965" lon="12.593982240551263"><ele>953.0</ele><time>2026-05-02T11:45:19.995Z</time></trkpt><trkpt lat="42.62706668068665" lon="12.593935249305583"><ele>955.3333333333333</ele><time>2026-05-02T11:45:20.995Z</time></trkpt><trkpt lat="42.62716094879776" lon="12.593889524010725"><ele>957.6666666666666</ele><time>2026-05-02T11:45:21.995Z</time></trkpt><trkpt lat="42.62723081753295" lon="12.593870763293395"><ele>960.0</ele><time>2026-05-02T11:45:22.995Z</time></trkpt><trkpt lat="42.627317785245204" lon="12.593843443687035"><ele>960.3333333333334</ele><time>2026-05-02T11:45:23.995Z</time></trkpt><trkpt lat="42.627403417503835" lon="12.59381654356815"><ele>960.6666666666667</ele><time>2026-05-02T11:45:24.995Z</time></trkpt><trkpt lat="42.627515219718795" lon="12.593792721691608"><ele>961.0</ele><time>2026-05-02T11:45:26.995Z</time></trkpt><trkpt lat="42.6275837944103" lon="12.593784418113653"><ele>961.3333333333334</ele><time>2026-05-02T11:45:27.995Z</time></trkpt><trkpt lat="42.627647643368476" lon="12.593787705064281"><ele>961.6666666666667</ele><time>2026-05-02T11:45:28.995Z</time></trkpt><trkpt lat="42.62771010282946" lon="12.59380577552904"><ele>962.0</ele><time>2026-05-02T11:45:29.995Z</time></trkpt><trkpt lat="42.62777621574998" lon="12.593833521361221"><ele>962.0000000000001</ele><time>2026-05-02T11:45:30.994Z</time></trkpt><trkpt lat="42.62785440130711" lon="12.593859824702152"><ele>962.0</ele><time>2026-05-02T11:45:31.994Z</time></trkpt><trkpt lat="42.62793712746664" lon="12.59388001195775"><ele>962.0</ele><time>2026-05-02T11:45:32.994Z</time></trkpt><trkpt lat="42.62802358885784" lon="12.593854958075896"><ele>962.0</ele><time>2026-05-02T11:45:33.994Z</time></trkpt><trkpt lat="42.628099215553256" lon="12.593809248851425"><ele>962.0000000000001</ele><time>2026-05-02T11:45:34.994Z</time></trkpt><trkpt lat="42.62816964984939" lon="12.593737096670644"><ele>962.0</ele><time>2026-05-02T11:45:35.994Z</time></trkpt><trkpt lat="42.62823690533918" lon="12.593671685902176"><ele>960.0000000000001</ele><time>2026-05-02T11:45:36.994Z</time></trkpt><trkpt lat="42.628302339928155" lon="12.593627951707948"><ele>958.0</ele><time>2026-05-02T11:45:37.994Z</time></trkpt><trkpt lat="42.628362442911175" lon="12.59358542722332"><ele>956.0</ele><time>2026-05-02T11:45:38.994Z</time></trkpt><trkpt lat="42.62842216746726" lon="12.593542943170448"><ele>954.0</ele><time>2026-05-02T11:45:39.994Z</time></trkpt><trkpt lat="42.62848591145762" lon="12.593495230939999"><ele>952.0000000000001</ele><time>2026-05-02T11:45:40.994Z</time></trkpt><trkpt lat="42.62856983645261" lon="12.593394000069544"><ele>950.0</ele><time>2026-05-02T11:45:42.994Z</time></trkpt><trkpt lat="42.62865428158903" lon="12.59327657795303"><ele>950.0000000000001</ele><time>2026-05-02T11:45:44.994Z</time></trkpt><trkpt lat="42.62870277496866" lon="12.593212410892411"><ele>950.0</ele><time>2026-05-02T11:45:45.994Z</time></trkpt><trkpt lat="42.62875197936979" lon="12.59314613980379"><ele>950.0</ele><time>2026-05-02T11:45:46.994Z</time></trkpt><trkpt lat="42.6288289704481" lon="12.593052578160789"><ele>950.0</ele><time>2026-05-02T11:45:48.994Z</time></trkpt><trkpt lat="42.62889236953873" lon="12.592956199021378"><ele>950.0000000000001</ele><time>2026-05-02T11:45:50.994Z</time></trkpt><trkpt lat="42.62894031270968" lon="12.592871736203291"><ele>950.0</ele><time>2026-05-02T11:45:52.994Z</time></trkpt><trkpt lat="42.6290249931018" lon="12.59285593465245"><ele>949.0</ele><time>2026-05-02T11:45:55.994Z</time></trkpt><trkpt lat="42.62910833034647" lon="12.592805883875316"><ele>948.0</ele><time>2026-05-02T11:45:57.994Z</time></trkpt><trkpt lat="42.629164325702256" lon="12.592762743557024"><ele>947.0</ele><time>2026-05-02T11:45:58.994Z</time></trkpt><trkpt lat="42.629260561911885" lon="12.59268414093363"><ele>946.0</ele><time>2026-05-02T11:46:00.994Z</time></trkpt><trkpt lat="42.62930634637876" lon="12.592568673621866"><ele>945.0</ele><time>2026-05-02T11:46:02.994Z</time></trkpt><trkpt lat="42.629358033641566" lon="12.592436809456096"><ele>945.0</ele><time>2026-05-02T11:46:04.994Z</time></trkpt><trkpt lat="42.629420340836184" lon="12.592314773441247"><ele>945.0</ele><time>2026-05-02T11:46:06.994Z</time></trkpt><trkpt lat="42.62944142679435" lon="12.592170166825573"><ele>945.0</ele><time>2026-05-02T11:46:08.994Z</time></trkpt><trkpt lat="42.62945562301986" lon="12.59206033072941"><ele>945.0</ele><time>2026-05-02T11:46:10.994Z</time></trkpt><trkpt lat="42.629490027728465" lon="12.591964040212593"><ele>945.0</ele><time>2026-05-02T11:46:12.994Z</time></trkpt><trkpt lat="42.62954127167692" lon="12.591848762769727"><ele>947.8333333333334</ele><time>2026-05-02T11:46:14.994Z</time></trkpt><trkpt lat="42.62959023617826" lon="12.591731604238683"><ele>950.6666666666667</ele><time>2026-05-02T11:46:16.994Z</time></trkpt><trkpt lat="42.62963452649181" lon="12.591625450387198"><ele>953.5</ele><time>2026-05-02T11:46:18.994Z</time></trkpt><trkpt lat="42.62968132566155" lon="12.591524506345312"><ele>956.3333333333334</ele><time>2026-05-02T11:46:20.994Z</time></trkpt><trkpt lat="42.62966722398736" lon="12.59142604531818"><ele>959.1666666666667</ele><time>2026-05-02T11:46:24.994Z</time></trkpt><trkpt lat="42.62966303413111" lon="12.59130702775274"><ele>962.0</ele><time>2026-05-02T11:46:27.994Z</time></trkpt><trkpt lat="42.62964329013718" lon="12.59118004015711"><ele>962.2</ele><time>2026-05-02T11:46:29.994Z</time></trkpt><trkpt lat="42.62963844313032" lon="12.59107282798391"><ele>962.4000000000001</ele><time>2026-05-02T11:46:30.994Z</time></trkpt><trkpt lat="42.62965181676783" lon="12.590915154065982"><ele>962.5999999999999</ele><time>2026-05-02T11:46:31.994Z</time></trkpt><trkpt lat="42.62963955053817" lon="12.590779117552575"><ele>962.8</ele><time>2026-05-02T11:46:32.994Z</time></trkpt><trkpt lat="42.6296112900321" lon="12.590653470464199"><ele>963.0</ele><time>2026-05-02T11:46:33.994Z</time></trkpt><trkpt lat="42.62958004527952" lon="12.590506379373885"><ele>963.0</ele><time>2026-05-02T11:46:34.994Z</time></trkpt><trkpt lat="42.629565876876086" lon="12.590366846501215"><ele>963.0</ele><time>2026-05-02T11:46:35.994Z</time></trkpt><trkpt lat="42.62955128151248" lon="12.590231872913156"><ele>963.0</ele><time>2026-05-02T11:46:36.994Z</time></trkpt><trkpt lat="42.629543592341584" lon="12.59012596793863"><ele>963.0</ele><time>2026-05-02T11:46:37.994Z</time></trkpt><trkpt lat="42.62954235940418" lon="12.590021763210203"><ele>963.0</ele><time>2026-05-02T11:46:38.994Z</time></trkpt><trkpt lat="42.62957149857369" lon="12.589914397763575"><ele>963.0</ele><time>2026-05-02T11:46:39.994Z</time></trkpt><trkpt lat="42.62961706198524" lon="12.58981449432771"><ele>962.3333333333334</ele><time>2026-05-02T11:46:40.994Z</time></trkpt><trkpt lat="42.629682809014206" lon="12.589754889372374"><ele>961.6666666666667</ele><time>2026-05-02T11:46:41.994Z</time></trkpt><trkpt lat="42.629754859748054" lon="12.589694845967207"><ele>961.0</ele><time>2026-05-02T11:46:42.994Z</time></trkpt><trkpt lat="42.6298162003336" lon="12.589640294619135"><ele>960.3333333333334</ele><time>2026-05-02T11:46:43.994Z</time></trkpt><trkpt lat="42.62988113982194" lon="12.589616796112303"><ele>959.6666666666667</ele><time>2026-05-02T11:46:44.994Z</time></trkpt><trkpt lat="42.62995323705429" lon="12.589571758648738"><ele>959.0</ele><time>2026-05-02T11:46:45.994Z</time></trkpt><trkpt lat="42.63002036353008" lon="12.589540429923938"><ele>957.0000000000001</ele><time>2026-05-02T11:46:46.994Z</time></trkpt><trkpt lat="42.63007075646282" lon="12.589485276526387"><ele>955.0</ele><time>2026-05-02T11:46:47.994Z</time></trkpt><trkpt lat="42.63013733459339" lon="12.589421522647555"><ele>953.0</ele><time>2026-05-02T11:46:48.993Z</time></trkpt><trkpt lat="42.6302144964445" lon="12.589364695182606"><ele>951.0</ele><time>2026-05-02T11:46:49.993Z</time></trkpt><trkpt lat="42.63033108861677" lon="12.5892684128241"><ele>949.0000000000001</ele><time>2026-05-02T11:46:51.993Z</time></trkpt><trkpt lat="42.63039252711143" lon="12.589224119269046"><ele>947.0</ele><time>2026-05-02T11:46:52.993Z</time></trkpt><trkpt lat="42.63045227903463" lon="12.589174136410989"><ele>947.0</ele><time>2026-05-02T11:46:53.993Z</time></trkpt><trkpt lat="42.630529539481095" lon="12.589163520067912"><ele>947.0</ele><time>2026-05-02T11:46:54.993Z</time></trkpt><trkpt lat="42.630616843621716" lon="12.589130357042283"><ele>947.0</ele><time>2026-05-02T11:46:55.993Z</time></trkpt><trkpt lat="42.63068899808945" lon="12.589124871432574"><ele>947.0</ele><time>2026-05-02T11:46:56.993Z</time></trkpt><trkpt lat="42.63078457519782" lon="12.589099322456642"><ele>947.0</ele><time>2026-05-02T11:46:58.993Z</time></trkpt><trkpt lat="42.630897946489114" lon="12.589018489619553"><ele>947.0</ele><time>2026-05-02T11:47:00.993Z</time></trkpt><trkpt lat="42.63098439144494" lon="12.588944371820437"><ele>947.0</ele><time>2026-05-02T11:47:01.993Z</time></trkpt><trkpt lat="42.6310512453535" lon="12.588890177870514"><ele>947.0</ele><time>2026-05-02T11:47:02.993Z</time></trkpt><trkpt lat="42.6311398412423" lon="12.588823840238883"><ele>947.0</ele><time>2026-05-02T11:47:04.993Z</time></trkpt><trkpt lat="42.63127728548806" lon="12.58878054345542"><ele>947.0</ele><time>2026-05-02T11:47:06.993Z</time></trkpt><trkpt lat="42.63137140375543" lon="12.588775035267181"><ele>947.0000000000001</ele><time>2026-05-02T11:47:07.993Z</time></trkpt><trkpt lat="42.63146568183055" lon="12.588761070138917"><ele>947.0</ele><time>2026-05-02T11:47:08.993Z</time></trkpt><trkpt lat="42.63154091111839" lon="12.588760726971186"><ele>947.0</ele><time>2026-05-02T11:47:09.993Z</time></trkpt><trkpt lat="42.63160909073186" lon="12.588759907514156"><ele>947.0</ele><time>2026-05-02T11:47:10.993Z</time></trkpt><trkpt lat="42.63167460545519" lon="12.588764461623157"><ele>947.0000000000001</ele><time>2026-05-02T11:47:11.993Z</time></trkpt><trkpt lat="42.631741709504" lon="12.588763788528958"><ele>947.0</ele><time>2026-05-02T11:47:12.993Z</time></trkpt><trkpt lat="42.63184604576711" lon="12.588753721648777"><ele>947.0000000000001</ele><time>2026-05-02T11:47:14.993Z</time></trkpt><trkpt lat="42.631946052504155" lon="12.588747318832315"><ele>947.0</ele><time>2026-05-02T11:47:16.993Z</time></trkpt><trkpt lat="42.632010618035316" lon="12.588740729907867"><ele>947.0</ele><time>2026-05-02T11:47:17.993Z</time></trkpt><trkpt lat="42.6321258469761" lon="12.588729407122672"><ele>947.0</ele><time>2026-05-02T11:47:19.993Z</time></trkpt><trkpt lat="42.63218965353764" lon="12.588733984167584"><ele>947.0000000000001</ele><time>2026-05-02T11:47:20.993Z</time></trkpt><trkpt lat="42.6322537257684" lon="12.5887415117735"><ele>947.0</ele><time>2026-05-02T11:47:21.993Z</time></trkpt><trkpt lat="42.63232026819775" lon="12.588757836229863"><ele>945.25</ele><time>2026-05-02T11:47:22.993Z</time></trkpt><trkpt lat="42.63243671057743" lon="12.58878500897316"><ele>943.5</ele><time>2026-05-02T11:47:24.993Z</time></trkpt><trkpt lat="42.63254639366246" lon="12.588817038319528"><ele>941.75</ele><time>2026-05-02T11:47:26.993Z</time></trkpt><trkpt lat="42.63265427576074" lon="12.588833638788874"><ele>940.0</ele><time>2026-05-02T11:47:28.993Z</time></trkpt><trkpt lat="42.632774948506636" lon="12.588829852369994"><ele>938.4999999999999</ele><time>2026-05-02T11:47:30.993Z</time></trkpt><trkpt lat="42.632890430142844" lon="12.588796725625528"><ele>937.0</ele><time>2026-05-02T11:47:32.993Z</time></trkpt><trkpt lat="42.63296961588012" lon="12.588717057312556"><ele>935.5</ele><time>2026-05-02T11:47:34.993Z</time></trkpt><trkpt lat="42.63300224347637" lon="12.588638859750294"><ele>934.0</ele><time>2026-05-02T11:47:35.993Z</time></trkpt><trkpt lat="42.63304320840333" lon="12.588536714271878"><ele>932.4999999999999</ele><time>2026-05-02T11:47:36.993Z</time></trkpt><trkpt lat="42.63307797949757" lon="12.588445124937166"><ele>931.0</ele><time>2026-05-02T11:47:37.993Z</time></trkpt><trkpt lat="42.63311229116323" lon="12.588351002765519"><ele>929.9999999999999</ele><time>2026-05-02T11:47:38.993Z</time></trkpt><trkpt lat="42.63314231404118" lon="12.588251137622173"><ele>929.0</ele><time>2026-05-02T11:47:39.993Z</time></trkpt><trkpt lat="42.6331818006529" lon="12.58816065098763"><ele>928.0</ele><time>2026-05-02T11:47:40.993Z</time></trkpt><trkpt lat="42.63317953291053" lon="12.588056081310297"><ele>927.0</ele><time>2026-05-02T11:47:41.993Z</time></trkpt><trkpt lat="42.63320550385584" lon="12.587964112159952"><ele>925.9999999999999</ele><time>2026-05-02T11:47:42.993Z</time></trkpt><trkpt lat="42.633229485217726" lon="12.587882983958615"><ele>925.0</ele><time>2026-05-02T11:47:43.993Z</time></trkpt><trkpt lat="42.633288656882144" lon="12.58775981415385"><ele>925.0</ele><time>2026-05-02T11:47:45.993Z</time></trkpt><trkpt lat="42.63333514597469" lon="12.587639708173052"><ele>925.0</ele><time>2026-05-02T11:47:47.993Z</time></trkpt><trkpt lat="42.63339233080794" lon="12.587525242820465"><ele>925.0</ele><time>2026-05-02T11:47:49.993Z</time></trkpt><trkpt lat="42.63345257325811" lon="12.587414459720437"><ele>925.0</ele><time>2026-05-02T11:47:51.993Z</time></trkpt><trkpt lat="42.63351027296359" lon="12.587314150026842"><ele>925.0</ele><time>2026-05-02T11:47:53.993Z</time></trkpt><trkpt lat="42.63357747414318" lon="12.587230506232917"><ele>923.2</ele><time>2026-05-02T11:47:55.993Z</time></trkpt><trkpt lat="42.63364992797639" lon="12.587152326634854"><ele>921.4</ele><time>2026-05-02T11:47:57.993Z</time></trkpt><trkpt lat="42.6337448312785" lon="12.587089719976488"><ele>919.5999999999999</ele><time>2026-05-02T11:47:59.993Z</time></trkpt><trkpt lat="42.63384513639748" lon="12.587069445674006"><ele>917.8</ele><time>2026-05-02T11:48:01.993Z</time></trkpt><trkpt lat="42.63395535172646" lon="12.587055480007967"><ele>916.0</ele><time>2026-05-02T11:48:03.993Z</time></trkpt><trkpt lat="42.63405937217552" lon="12.58704651828997"><ele>916.0</ele><time>2026-05-02T11:48:05.992Z</time></trkpt><trkpt lat="42.634165248151874" lon="12.587044660962523"><ele>916.0</ele><time>2026-05-02T11:48:07.992Z</time></trkpt><trkpt lat="42.634274778604656" lon="12.587037462212532"><ele>916.0</ele><time>2026-05-02T11:48:09.992Z</time></trkpt><trkpt lat="42.634391561923174" lon="12.587059116994286"><ele>916.0</ele><time>2026-05-02T11:48:11.992Z</time></trkpt><trkpt lat="42.63451860192029" lon="12.587087423772166"><ele>915.3333333333333</ele><time>2026-05-02T11:48:13.992Z</time></trkpt><trkpt lat="42.63463358860036" lon="12.587118629028314"><ele>914.6666666666666</ele><time>2026-05-02T11:48:15.992Z</time></trkpt><trkpt lat="42.6347171035096" lon="12.587140079848625"><ele>914.0</ele><time>2026-05-02T11:48:17.992Z</time></trkpt><trkpt lat="42.63478539171263" lon="12.587167980413403"><ele>913.3333333333333</ele><time>2026-05-02T11:48:19.992Z</time></trkpt><trkpt lat="42.634857367057975" lon="12.587205585100548"><ele>912.6666666666666</ele><time>2026-05-02T11:48:21.992Z</time></trkpt><trkpt lat="42.63492031827331" lon="12.587247375460072"><ele>912.0</ele><time>2026-05-02T11:48:23.992Z</time></trkpt><trkpt lat="42.634975847967475" lon="12.587317092994581"><ele>912.0</ele><time>2026-05-02T11:48:25.992Z</time></trkpt><trkpt lat="42.63503259442819" lon="12.587355039100613"><ele>912.0</ele><time>2026-05-02T11:48:27.992Z</time></trkpt><trkpt lat="42.63510134920048" lon="12.587418776580504"><ele>912.0</ele><time>2026-05-02T11:48:29.992Z</time></trkpt><trkpt lat="42.63518734604998" lon="12.587515981762335"><ele>912.0</ele><time>2026-05-02T11:48:31.992Z</time></trkpt><trkpt lat="42.6352451358374" lon="12.587621203586824"><ele>912.0</ele><time>2026-05-02T11:48:33.992Z</time></trkpt><trkpt lat="42.63530469992125" lon="12.587720659493856"><ele>912.0</ele><time>2026-05-02T11:48:35.992Z</time></trkpt><trkpt lat="42.63535442879822" lon="12.587830486124"><ele>909.1428571428571</ele><time>2026-05-02T11:48:37.992Z</time></trkpt><trkpt lat="42.63540785423424" lon="12.58788614564287"><ele>906.2857142857142</ele><time>2026-05-02T11:48:39.992Z</time></trkpt><trkpt lat="42.63547111311784" lon="12.58795109009074"><ele>903.4285714285713</ele><time>2026-05-02T11:48:41.992Z</time></trkpt><trkpt lat="42.635512461982096" lon="12.58801660983319"><ele>900.5714285714286</ele><time>2026-05-02T11:48:43.992Z</time></trkpt><trkpt lat="42.63555412049485" lon="12.58810880516543"><ele>897.7142857142857</ele><time>2026-05-02T11:48:46.992Z</time></trkpt><trkpt lat="42.63558926023102" lon="12.588186750969902"><ele>894.8571428571429</ele><time>2026-05-02T11:48:48.992Z</time></trkpt><trkpt lat="42.63560529346291" lon="12.588290614316353"><ele>892.0</ele><time>2026-05-02T11:48:51.992Z</time></trkpt><trkpt lat="42.635650305128756" lon="12.588396941782728"><ele>891.9999999999999</ele><time>2026-05-02T11:48:54.992Z</time></trkpt><trkpt lat="42.63573033931859" lon="12.588463230817263"><ele>892.0</ele><time>2026-05-02T11:48:57.992Z</time></trkpt><trkpt lat="42.63579581884964" lon="12.588527290557161"><ele>892.0</ele><time>2026-05-02T11:49:00.992Z</time></trkpt><trkpt lat="42.63586657871411" lon="12.588609225015762"><ele>892.0</ele><time>2026-05-02T11:49:03.992Z</time></trkpt><trkpt lat="42.6359061269537" lon="12.58868246181105"><ele>891.9999999999999</ele><time>2026-05-02T11:49:05.992Z</time></trkpt><trkpt lat="42.63596611483509" lon="12.588753361810767"><ele>892.0</ele><time>2026-05-02T11:49:08.992Z</time></trkpt><trkpt lat="42.63601141742662" lon="12.588834806790201"><ele>891.3333333333333</ele><time>2026-05-02T11:49:11.992Z</time></trkpt><trkpt lat="42.636060962287935" lon="12.588905244398944"><ele>890.6666666666666</ele><time>2026-05-02T11:49:13.992Z</time></trkpt><trkpt lat="42.63610535743072" lon="12.588984922843204"><ele>890.0</ele><time>2026-05-02T11:49:16.992Z</time></trkpt><trkpt lat="42.63616408074602" lon="12.589053780782955"><ele>889.3333333333333</ele><time>2026-05-02T11:49:20.992Z</time></trkpt><trkpt lat="42.63625546029349" lon="12.589054762865018"><ele>888.6666666666666</ele><time>2026-05-02T11:49:44.991Z</time></trkpt><trkpt lat="42.63628735417129" lon="12.589130527506477"><ele>888.0</ele><time>2026-05-02T11:49:48.991Z</time></trkpt><trkpt lat="42.63633127524135" lon="12.589217886967436"><ele>883.8333333333334</ele><time>2026-05-02T11:50:24.991Z</time></trkpt><trkpt lat="42.63642181200119" lon="12.589319982813038"><ele>879.6666666666667</ele><time>2026-05-02T11:50:26.991Z</time></trkpt><trkpt lat="42.63647971576427" lon="12.589366617246212"><ele>875.5</ele><time>2026-05-02T11:50:27.991Z</time></trkpt><trkpt lat="42.636558525994985" lon="12.58942712721217"><ele>871.3333333333334</ele><time>2026-05-02T11:50:28.991Z</time></trkpt><trkpt lat="42.636606724000735" lon="12.589520477209252"><ele>867.1666666666667</ele><time>2026-05-02T11:50:29.991Z</time></trkpt><trkpt lat="42.6366852476514" lon="12.589559522755744"><ele>863.0</ele><time>2026-05-02T11:50:30.991Z</time></trkpt><trkpt lat="42.63675609342206" lon="12.58958437176596"><ele>863.0000000000001</ele><time>2026-05-02T11:50:31.991Z</time></trkpt><trkpt lat="42.636819037038336" lon="12.589624635560986"><ele>863.0</ele><time>2026-05-02T11:50:32.991Z</time></trkpt><trkpt lat="42.636907930483815" lon="12.589740730710583"><ele>863.0</ele><time>2026-05-02T11:50:34.991Z</time></trkpt><trkpt lat="42.63696762454904" lon="12.589821046529861"><ele>863.0</ele><time>2026-05-02T11:50:35.991Z</time></trkpt><trkpt lat="42.63703695536766" lon="12.589879927191094"><ele>863.0000000000001</ele><time>2026-05-02T11:50:36.991Z</time></trkpt><trkpt lat="42.637090970057415" lon="12.589949849645647"><ele>863.0</ele><time>2026-05-02T11:50:37.991Z</time></trkpt><trkpt lat="42.63715028358149" lon="12.590003037681536"><ele>859.5</ele><time>2026-05-02T11:50:38.991Z</time></trkpt><trkpt lat="42.63725804045956" lon="12.590092218122885"><ele>856.0</ele><time>2026-05-02T11:50:40.991Z</time></trkpt><trkpt lat="42.63738138257128" lon="12.59014721997767"><ele>852.5</ele><time>2026-05-02T11:50:42.991Z</time></trkpt><trkpt lat="42.637478465058614" lon="12.590234160085643"><ele>849.0</ele><time>2026-05-02T11:50:44.991Z</time></trkpt><trkpt lat="42.637552602827775" lon="12.590308785530647"><ele>849.0</ele><time>2026-05-02T11:50:46.99Z</time></trkpt><trkpt lat="42.637619596416194" lon="12.590320499100468"><ele>849.0</ele><time>2026-05-02T11:50:47.99Z</time></trkpt><trkpt lat="42.63769767024241" lon="12.590325245674473"><ele>849.0</ele><time>2026-05-02T11:50:48.99Z</time></trkpt><trkpt lat="42.637802469959844" lon="12.590340352775542"><ele>849.0</ele><time>2026-05-02T11:50:50.99Z</time></trkpt><trkpt lat="42.63789247546014" lon="12.590374912405357"><ele>849.0</ele><time>2026-05-02T11:50:52.99Z</time></trkpt><trkpt lat="42.63799056204854" lon="12.590441092336809"><ele>847.0</ele><time>2026-05-02T11:50:54.99Z</time></trkpt><trkpt lat="42.63808896006918" lon="12.590486112586206"><ele>845.0</ele><time>2026-05-02T11:50:56.99Z</time></trkpt><trkpt lat="42.63817529129032" lon="12.59056910934064"><ele>843.0</ele><time>2026-05-02T11:50:58.99Z</time></trkpt><trkpt lat="42.63827649481741" lon="12.590612002858842"><ele>841.0</ele><time>2026-05-02T11:51:00.99Z</time></trkpt><trkpt lat="42.638360526699515" lon="12.590594047330528"><ele>839.0</ele><time>2026-05-02T11:51:03.99Z</time></trkpt><trkpt lat="42.63846253167239" lon="12.590618149339397"><ele>839.0000000000001</ele><time>2026-05-02T11:51:05.99Z</time></trkpt><trkpt lat="42.63847888329948" lon="12.59073526524175"><ele>839.0</ele><time>2026-05-02T11:51:07.99Z</time></trkpt><trkpt lat="42.63840285309129" lon="12.59077791158515"><ele>839.0</ele><time>2026-05-02T11:51:09.99Z</time></trkpt><trkpt lat="42.638328745812636" lon="12.590807340827117"><ele>839.0</ele><time>2026-05-02T11:51:12.99Z</time></trkpt><trkpt lat="42.63825630578273" lon="12.590849747524057"><ele>839.0000000000001</ele><time>2026-05-02T11:51:15.99Z</time></trkpt><trkpt lat="42.63819238819001" lon="12.590860480079844"><ele>839.0</ele><time>2026-05-02T11:51:18.99Z</time></trkpt><trkpt lat="42.638117503972815" lon="12.590858999351049"><ele>839.0</ele><time>2026-05-02T11:51:23.99Z</time></trkpt><trkpt lat="42.638028283599525" lon="12.590871577967691"><ele>839.0</ele><time>2026-05-02T11:51:55.99Z</time></trkpt><trkpt lat="42.6379346270445" lon="12.59087939239623"><ele>839.0</ele><time>2026-05-02T11:51:58.989Z</time></trkpt><trkpt lat="42.63781680569077" lon="12.590892680563982"><ele>839.0</ele><time>2026-05-02T11:52:00.989Z</time></trkpt><trkpt lat="42.637727449908496" lon="12.590895951982931"><ele>839.0</ele><time>2026-05-02T11:52:01.989Z</time></trkpt><trkpt lat="42.63762323288416" lon="12.590915036263706"><ele>839.5000000000001</ele><time>2026-05-02T11:52:02.989Z</time></trkpt><trkpt lat="42.63753593200489" lon="12.590945993201156"><ele>840.0</ele><time>2026-05-02T11:52:03.989Z</time></trkpt><trkpt lat="42.637466961617" lon="12.590962922241742"><ele>840.5</ele><time>2026-05-02T11:52:04.989Z</time></trkpt><trkpt lat="42.637384232390836" lon="12.590948642557903"><ele>841.0</ele><time>2026-05-02T11:52:05.989Z</time></trkpt><trkpt lat="42.63732034105548" lon="12.590936603757584"><ele>841.5000000000001</ele><time>2026-05-02T11:52:06.989Z</time></trkpt><trkpt lat="42.63725034571255" lon="12.5909297058175"><ele>842.0</ele><time>2026-05-02T11:52:07.989Z</time></trkpt><trkpt lat="42.637175278035606" lon="12.590949974373077"><ele>842.0</ele><time>2026-05-02T11:52:08.989Z</time></trkpt><trkpt lat="42.63708186230752" lon="12.591053499563502"><ele>842.0</ele><time>2026-05-02T11:52:10.989Z</time></trkpt><trkpt lat="42.637093472388486" lon="12.59116008169064"><ele>842.0</ele><time>2026-05-02T11:52:11.989Z</time></trkpt><trkpt lat="42.63715158914045" lon="12.591301395845946"><ele>842.0</ele><time>2026-05-02T11:52:13.989Z</time></trkpt><trkpt lat="42.63726844686781" lon="12.591366663186239"><ele>842.0</ele><time>2026-05-02T11:52:15.989Z</time></trkpt><trkpt lat="42.63737299859733" lon="12.591370054948142"><ele>842.3333333333334</ele><time>2026-05-02T11:52:16.989Z</time></trkpt><trkpt lat="42.63747136822973" lon="12.59136739090947"><ele>842.6666666666667</ele><time>2026-05-02T11:52:17.989Z</time></trkpt><trkpt lat="42.63755800767148" lon="12.591361942876393"><ele>843.0</ele><time>2026-05-02T11:52:18.989Z</time></trkpt><trkpt lat="42.637638878402235" lon="12.591345033906912"><ele>843.3333333333333</ele><time>2026-05-02T11:52:19.989Z</time></trkpt><trkpt lat="42.637704482141686" lon="12.591336642231125"><ele>843.6666666666666</ele><time>2026-05-02T11:52:20.989Z</time></trkpt><trkpt lat="42.63779500965489" lon="12.591339710765306"><ele>844.0</ele><time>2026-05-02T11:52:21.989Z</time></trkpt><trkpt lat="42.6379029132464" lon="12.591393115982198"><ele>841.9999999999999</ele><time>2026-05-02T11:52:23.989Z</time></trkpt><trkpt lat="42.63797489863346" lon="12.591401598327957"><ele>840.0</ele><time>2026-05-02T11:52:24.989Z</time></trkpt><trkpt lat="42.638048546400064" lon="12.59139601820508"><ele>838.0</ele><time>2026-05-02T11:52:25.989Z</time></trkpt><trkpt lat="42.63813290019781" lon="12.591409757423946"><ele>836.0</ele><time>2026-05-02T11:52:26.989Z</time></trkpt><trkpt lat="42.6381981319725" lon="12.59143209629357"><ele>833.9999999999999</ele><time>2026-05-02T11:52:27.989Z</time></trkpt><trkpt lat="42.638260127408095" lon="12.591469338245382"><ele>832.0</ele><time>2026-05-02T11:52:28.989Z</time></trkpt><trkpt lat="42.6383345616208" lon="12.591526671339548"><ele>831.9999999999999</ele><time>2026-05-02T11:52:29.989Z</time></trkpt><trkpt lat="42.63841164453873" lon="12.591571176266202"><ele>832.0</ele><time>2026-05-02T11:52:30.989Z</time></trkpt><trkpt lat="42.63848550714784" lon="12.591621368733179"><ele>832.0</ele><time>2026-05-02T11:52:31.989Z</time></trkpt><trkpt lat="42.638566861361724" lon="12.5916583539928"><ele>832.0</ele><time>2026-05-02T11:52:32.989Z</time></trkpt><trkpt lat="42.63863872604063" lon="12.591699912453754"><ele>831.9999999999999</ele><time>2026-05-02T11:52:33.989Z</time></trkpt><trkpt lat="42.63873692995027" lon="12.591751220502436"><ele>832.0</ele><time>2026-05-02T11:52:35.989Z</time></trkpt><trkpt lat="42.638821831456646" lon="12.59178619611433"><ele>830.6</ele><time>2026-05-02T11:52:37.989Z</time></trkpt><trkpt lat="42.63889656312716" lon="12.591830284855364"><ele>829.2</ele><time>2026-05-02T11:52:38.989Z</time></trkpt><trkpt lat="42.63897568279411" lon="12.591885142858997"><ele>827.8</ele><time>2026-05-02T11:52:39.989Z</time></trkpt><trkpt lat="42.63907372753458" lon="12.591927218157117"><ele>826.4</ele><time>2026-05-02T11:52:40.989Z</time></trkpt><trkpt lat="42.639165280184734" lon="12.591973258792795"><ele>825.0</ele><time>2026-05-02T11:52:41.989Z</time></trkpt><trkpt lat="42.6392416074465" lon="12.592032428646025"><ele>824.0</ele><time>2026-05-02T11:52:42.989Z</time></trkpt><trkpt lat="42.639331967375" lon="12.592100412792226"><ele>823.0</ele><time>2026-05-02T11:52:43.989Z</time></trkpt><trkpt lat="42.639421608050064" lon="12.592173653856545"><ele>822.0</ele><time>2026-05-02T11:52:44.989Z</time></trkpt><trkpt lat="42.6395064276716" lon="12.592212855211532"><ele>821.0</ele><time>2026-05-02T11:52:45.989Z</time></trkpt><trkpt lat="42.63957846185406" lon="12.592256845729686"><ele>820.0</ele><time>2026-05-02T11:52:46.989Z</time></trkpt><trkpt lat="42.6396670112661" lon="12.592303725573345"><ele>816.9999999999999</ele><time>2026-05-02T11:52:47.989Z</time></trkpt><trkpt lat="42.63973756107286" lon="12.592375433964618"><ele>814.0</ele><time>2026-05-02T11:52:48.989Z</time></trkpt><trkpt lat="42.639804668748624" lon="12.59244711729869"><ele>811.0</ele><time>2026-05-02T11:52:49.989Z</time></trkpt><trkpt lat="42.639846998764725" lon="12.592511846864326"><ele>808.0</ele><time>2026-05-02T11:52:50.989Z</time></trkpt><trkpt lat="42.639902017295356" lon="12.592567098068372"><ele>804.9999999999999</ele><time>2026-05-02T11:52:51.989Z</time></trkpt><trkpt lat="42.639995686304744" lon="12.592659985321987"><ele>802.0</ele><time>2026-05-02T11:52:53.989Z</time></trkpt><trkpt lat="42.64011557898111" lon="12.5927331724898"><ele>802.0</ele><time>2026-05-02T11:52:55.989Z</time></trkpt><trkpt lat="42.64021811758962" lon="12.59277677317194"><ele>802.0</ele><time>2026-05-02T11:52:57.989Z</time></trkpt><trkpt lat="42.64032037413403" lon="12.592792894037439"><ele>802.0</ele><time>2026-05-02T11:52:59.989Z</time></trkpt><trkpt lat="42.640464037897594" lon="12.592771185123134"><ele>802.0</ele><time>2026-05-02T11:53:01.989Z</time></trkpt><trkpt lat="42.64053581674259" lon="12.592779210230656"><ele>802.0</ele><time>2026-05-02T11:53:02.989Z</time></trkpt><trkpt lat="42.64060342508887" lon="12.592787235871457"><ele>799.8333333333333</ele><time>2026-05-02T11:53:03.989Z</time></trkpt><trkpt lat="42.64068452977571" lon="12.592801420395327"><ele>797.6666666666666</ele><time>2026-05-02T11:53:04.989Z</time></trkpt><trkpt lat="42.64076036628517" lon="12.59277912488649"><ele>795.5</ele><time>2026-05-02T11:53:05.989Z</time></trkpt><trkpt lat="42.64086642617463" lon="12.592762044301283"><ele>793.3333333333333</ele><time>2026-05-02T11:53:06.989Z</time></trkpt><trkpt lat="42.64095805779818" lon="12.592746806932956"><ele>791.1666666666666</ele><time>2026-05-02T11:53:07.989Z</time></trkpt><trkpt lat="42.64102995454759" lon="12.592714891049717"><ele>789.0</ele><time>2026-05-02T11:53:08.989Z</time></trkpt><trkpt lat="42.6411149140388" lon="12.592675348755751"><ele>784.75</ele><time>2026-05-02T11:53:09.989Z</time></trkpt><trkpt lat="42.6412075373475" lon="12.592628336201853"><ele>780.5</ele><time>2026-05-02T11:53:10.989Z</time></trkpt><trkpt lat="42.641332316095735" lon="12.592639944356915"><ele>776.25</ele><time>2026-05-02T11:53:11.989Z</time></trkpt><trkpt lat="42.641468666115635" lon="12.592636856059642"><ele>772.0</ele><time>2026-05-02T11:53:12.989Z</time></trkpt><trkpt lat="42.64157752826682" lon="12.592634691952243"><ele>772.0</ele><time>2026-05-02T11:53:13.989Z</time></trkpt><trkpt lat="42.64166746290093" lon="12.592624153651977"><ele>772.0</ele><time>2026-05-02T11:53:14.989Z</time></trkpt><trkpt lat="42.64176134043329" lon="12.592624900301294"><ele>772.0</ele><time>2026-05-02T11:53:15.989Z</time></trkpt><trkpt lat="42.64186247868559" lon="12.592614955744395"><ele>772.0</ele><time>2026-05-02T11:53:16.989Z</time></trkpt><trkpt lat="42.64198420860805" lon="12.592615133882127"><ele>772.0</ele><time>2026-05-02T11:53:17.989Z</time></trkpt><trkpt lat="42.64208419740138" lon="12.592590596676429"><ele>768.4000000000001</ele><time>2026-05-02T11:53:18.988Z</time></trkpt><trkpt lat="42.64215697350743" lon="12.592569836058422"><ele>764.8000000000001</ele><time>2026-05-02T11:53:19.988Z</time></trkpt><trkpt lat="42.64223969855981" lon="12.59252708602716"><ele>761.2</ele><time>2026-05-02T11:53:20.988Z</time></trkpt><trkpt lat="42.64232387156913" lon="12.592486958463512"><ele>757.6</ele><time>2026-05-02T11:53:21.988Z</time></trkpt><trkpt lat="42.642412070976114" lon="12.592453036293065"><ele>754.0</ele><time>2026-05-02T11:53:22.988Z</time></trkpt><trkpt lat="42.64252798427107" lon="12.592408367458484"><ele>754.0</ele><time>2026-05-02T11:53:23.988Z</time></trkpt><trkpt lat="42.64265471093245" lon="12.592382547548572"><ele>754.0</ele><time>2026-05-02T11:53:24.988Z</time></trkpt><trkpt lat="42.64277828619647" lon="12.592322967476095"><ele>754.0</ele><time>2026-05-02T11:53:25.988Z</time></trkpt><trkpt lat="42.64288237168536" lon="12.592282631231802"><ele>754.0</ele><time>2026-05-02T11:53:26.988Z</time></trkpt><trkpt lat="42.64298296867688" lon="12.592241759095367"><ele>751.8333333333334</ele><time>2026-05-02T11:53:27.988Z</time></trkpt><trkpt lat="42.643047847834175" lon="12.592197395029334"><ele>749.6666666666667</ele><time>2026-05-02T11:53:28.988Z</time></trkpt><trkpt lat="42.643113324102735" lon="12.592128420571056"><ele>747.5</ele><time>2026-05-02T11:53:30.988Z</time></trkpt><trkpt lat="42.64315464500465" lon="12.592040943759088"><ele>745.3333333333334</ele><time>2026-05-02T11:53:32.988Z</time></trkpt><trkpt lat="42.643149562782305" lon="12.591918615626499"><ele>743.1666666666666</ele><time>2026-05-02T11:53:35.988Z</time></trkpt><trkpt lat="42.64313469351602" lon="12.59181371125653"><ele>741.0</ele><time>2026-05-02T11:53:38.988Z</time></trkpt><trkpt lat="42.64314782215117" lon="12.591724272360674"><ele>740.0</ele><time>2026-05-02T11:53:40.988Z</time></trkpt><trkpt lat="42.64316872887166" lon="12.591641818581243"><ele>739.0</ele><time>2026-05-02T11:53:42.988Z</time></trkpt><trkpt lat="42.64317336309979" lon="12.591553483840412"><ele>738.0</ele><time>2026-05-02T11:53:44.988Z</time></trkpt><trkpt lat="42.64317483977403" lon="12.591416669065541"><ele>737.0</ele><time>2026-05-02T11:53:47.988Z</time></trkpt><trkpt lat="42.64318584785672" lon="12.59130569299428"><ele>736.0</ele><time>2026-05-02T11:53:50.988Z</time></trkpt><trkpt lat="42.64317949221563" lon="12.591185507040459"><ele>735.0</ele><time>2026-05-02T11:53:53.988Z</time></trkpt><trkpt lat="42.64319692957389" lon="12.591019003276822"><ele>733.8</ele><time>2026-05-02T11:53:55.988Z</time></trkpt><trkpt lat="42.64328931287715" lon="12.59088117418996"><ele>732.6</ele><time>2026-05-02T11:53:57.988Z</time></trkpt><trkpt lat="42.643315906168645" lon="12.590769931811963"><ele>731.4000000000001</ele><time>2026-05-02T11:53:58.988Z</time></trkpt><trkpt lat="42.6433213142717" lon="12.590654580794919"><ele>730.2</ele><time>2026-05-02T11:53:59.988Z</time></trkpt><trkpt lat="42.64331608556207" lon="12.590552386981686"><ele>729.0</ele><time>2026-05-02T11:54:00.988Z</time></trkpt><trkpt lat="42.64320643392593" lon="12.590484580681201"><ele>729.0</ele><time>2026-05-02T11:54:01.988Z</time></trkpt><trkpt lat="42.643183748022246" lon="12.590357492970849"><ele>729.0</ele><time>2026-05-02T11:54:02.988Z</time></trkpt><trkpt lat="42.643156165664024" lon="12.590260536538496"><ele>729.0</ele><time>2026-05-02T11:54:03.988Z</time></trkpt><trkpt lat="42.64313348902758" lon="12.590160912429285"><ele>729.0</ele><time>2026-05-02T11:54:04.988Z</time></trkpt><trkpt lat="42.64310617363764" lon="12.5900763944158"><ele>729.0</ele><time>2026-05-02T11:54:05.988Z</time></trkpt><trkpt lat="42.64310448296904" lon="12.589980035808363"><ele>729.0</ele><time>2026-05-02T11:54:06.988Z</time></trkpt><trkpt lat="42.643117593026204" lon="12.589877669774811"><ele>728.0</ele><time>2026-05-02T11:54:07.988Z</time></trkpt><trkpt lat="42.643123187064745" lon="12.589777952890387"><ele>727.0</ele><time>2026-05-02T11:54:08.988Z</time></trkpt><trkpt lat="42.64312313735915" lon="12.58965033172516"><ele>726.0</ele><time>2026-05-02T11:54:09.988Z</time></trkpt><trkpt lat="42.643124064129054" lon="12.589526080238159"><ele>725.0</ele><time>2026-05-02T11:54:10.988Z</time></trkpt><trkpt lat="42.643131105443096" lon="12.58940953569675"><ele>724.0</ele><time>2026-05-02T11:54:11.988Z</time></trkpt><trkpt lat="42.64315381572959" lon="12.589291494594145"><ele>723.0</ele><time>2026-05-02T11:54:12.988Z</time></trkpt><trkpt lat="42.64316947936294" lon="12.589171400136047"><ele>721.8</ele><time>2026-05-02T11:54:13.988Z</time></trkpt><trkpt lat="42.64318143444543" lon="12.589038898402494"><ele>720.5999999999999</ele><time>2026-05-02T11:54:14.988Z</time></trkpt><trkpt lat="42.64315222946044" lon="12.588941984039488"><ele>719.4000000000001</ele><time>2026-05-02T11:54:15.988Z</time></trkpt><trkpt lat="42.64312915416282" lon="12.588798542078486"><ele>718.2</ele><time>2026-05-02T11:54:16.988Z</time></trkpt><trkpt lat="42.64310608383071" lon="12.588671424714413"><ele>717.0</ele><time>2026-05-02T11:54:17.988Z</time></trkpt><trkpt lat="42.64310486811225" lon="12.588552263167971"><ele>716.0</ele><time>2026-05-02T11:54:18.988Z</time></trkpt><trkpt lat="42.6431043130845" lon="12.588424650714115"><ele>715.0</ele><time>2026-05-02T11:54:19.988Z</time></trkpt><trkpt lat="42.64310631606526" lon="12.588290120620277"><ele>714.0</ele><time>2026-05-02T11:54:20.988Z</time></trkpt><trkpt lat="42.64309831466283" lon="12.588141878180304"><ele>713.0</ele><time>2026-05-02T11:54:21.988Z</time></trkpt><trkpt lat="42.64310476972506" lon="12.588022596850736"><ele>712.0</ele><time>2026-05-02T11:54:22.988Z</time></trkpt><trkpt lat="42.64310265124225" lon="12.58790566994896"><ele>711.1666666666667</ele><time>2026-05-02T11:54:23.988Z</time></trkpt><trkpt lat="42.643093454497524" lon="12.5877862842449"><ele>710.3333333333334</ele><time>2026-05-02T11:54:24.988Z</time></trkpt><trkpt lat="42.64308159636899" lon="12.58767842499754"><ele>709.5</ele><time>2026-05-02T11:54:25.988Z</time></trkpt><trkpt lat="42.64306766222549" lon="12.587567841019625"><ele>708.6666666666666</ele><time>2026-05-02T11:54:26.988Z</time></trkpt><trkpt lat="42.64306991192633" lon="12.587446499222805"><ele>707.8333333333333</ele><time>2026-05-02T11:54:27.988Z</time></trkpt><trkpt lat="42.64308600501174" lon="12.587303337094813"><ele>707.0</ele><time>2026-05-02T11:54:28.988Z</time></trkpt><trkpt lat="42.64310644413897" lon="12.587164103193645"><ele>707.0</ele><time>2026-05-02T11:54:29.988Z</time></trkpt><trkpt lat="42.64313363966124" lon="12.587048735084993"><ele>707.0</ele><time>2026-05-02T11:54:30.988Z</time></trkpt><trkpt lat="42.64313729020591" lon="12.586936149449532"><ele>707.0</ele><time>2026-05-02T11:54:31.988Z</time></trkpt><trkpt lat="42.64315721368699" lon="12.586812035850576"><ele>707.0</ele><time>2026-05-02T11:54:32.988Z</time></trkpt><trkpt lat="42.64315791634895" lon="12.58671154086024"><ele>707.0</ele><time>2026-05-02T11:54:33.988Z</time></trkpt><trkpt lat="42.64315158028227" lon="12.586603087214952"><ele>707.0</ele><time>2026-05-02T11:54:34.988Z</time></trkpt><trkpt lat="42.64313700278934" lon="12.58649482996241"><ele>706.0</ele><time>2026-05-02T11:54:35.988Z</time></trkpt><trkpt lat="42.64310783668293" lon="12.586405607996927"><ele>705.0</ele><time>2026-05-02T11:54:36.987Z</time></trkpt><trkpt lat="42.64306996638305" lon="12.586317232407277"><ele>704.0</ele><time>2026-05-02T11:54:37.987Z</time></trkpt><trkpt lat="42.64307204820502" lon="12.586228115174928"><ele>703.0</ele><time>2026-05-02T11:54:38.987Z</time></trkpt><trkpt lat="42.64302959205425" lon="12.586094789748408"><ele>702.0</ele><time>2026-05-02T11:54:40.987Z</time></trkpt><trkpt lat="42.64295321982311" lon="12.586069499625244"><ele>701.0</ele><time>2026-05-02T11:54:41.987Z</time></trkpt><trkpt lat="42.64287822718143" lon="12.586054895760823"><ele>699.6666666666666</ele><time>2026-05-02T11:54:42.987Z</time></trkpt><trkpt lat="42.642827241612125" lon="12.585945846754589"><ele>698.3333333333333</ele><time>2026-05-02T11:54:44.987Z</time></trkpt><trkpt lat="42.6428656690689" lon="12.585848062301517"><ele>697.0</ele><time>2026-05-02T11:54:45.987Z</time></trkpt><trkpt lat="42.642927878940995" lon="12.585768423582898"><ele>695.6666666666666</ele><time>2026-05-02T11:54:46.987Z</time></trkpt><trkpt lat="42.64298942717237" lon="12.585709610069404"><ele>694.3333333333334</ele><time>2026-05-02T11:54:47.987Z</time></trkpt><trkpt lat="42.6430821348373" lon="12.585660957037012"><ele>693.0</ele><time>2026-05-02T11:54:49.987Z</time></trkpt><trkpt lat="42.643161437403236" lon="12.5855707814822"><ele>693.0</ele><time>2026-05-02T11:54:51.987Z</time></trkpt><trkpt lat="42.64322863799077" lon="12.585467490578443"><ele>693.0</ele><time>2026-05-02T11:54:53.987Z</time></trkpt><trkpt lat="42.64325823459676" lon="12.585372212154242"><ele>693.0</ele><time>2026-05-02T11:54:54.987Z</time></trkpt><trkpt lat="42.643256760602064" lon="12.585282346151594"><ele>693.0</ele><time>2026-05-02T11:54:55.987Z</time></trkpt><trkpt lat="42.64328822397164" lon="12.585115457041914"><ele>693.0</ele><time>2026-05-02T11:54:57.987Z</time></trkpt><trkpt lat="42.6433211758495" lon="12.585002961082724"><ele>692.4</ele><time>2026-05-02T11:54:58.987Z</time></trkpt><trkpt lat="42.6433295979415" lon="12.58491152048198"><ele>691.8</ele><time>2026-05-02T11:54:59.987Z</time></trkpt><trkpt lat="42.64333666267223" lon="12.584739898920532"><ele>691.2</ele><time>2026-05-02T11:55:01.987Z</time></trkpt><trkpt lat="42.643321271564346" lon="12.584614200479134"><ele>690.6</ele><time>2026-05-02T11:55:02.987Z</time></trkpt><trkpt lat="42.64329806600308" lon="12.584488016749738"><ele>690.0</ele><time>2026-05-02T11:55:03.987Z</time></trkpt><trkpt lat="42.64327461919512" lon="12.584361117432827"><ele>689.3333333333334</ele><time>2026-05-02T11:55:04.987Z</time></trkpt><trkpt lat="42.64327792600284" lon="12.584227459651075"><ele>688.6666666666666</ele><time>2026-05-02T11:55:05.987Z</time></trkpt><trkpt lat="42.64327432876166" lon="12.58409643098205"><ele>688.0</ele><time>2026-05-02T11:55:06.987Z</time></trkpt><trkpt lat="42.64329191044235" lon="12.583980715546026"><ele>687.3333333333333</ele><time>2026-05-02T11:55:07.987Z</time></trkpt><trkpt lat="42.64330939157867" lon="12.583873453705317"><ele>686.6666666666666</ele><time>2026-05-02T11:55:08.987Z</time></trkpt><trkpt lat="42.64329695081974" lon="12.583759954381563"><ele>686.0</ele><time>2026-05-02T11:55:09.987Z</time></trkpt><trkpt lat="42.64328876853409" lon="12.583654010807766"><ele>685.5999999999999</ele><time>2026-05-02T11:55:10.987Z</time></trkpt><trkpt lat="42.64328497841771" lon="12.583549042567347"><ele>685.2</ele><time>2026-05-02T11:55:11.987Z</time></trkpt><trkpt lat="42.64327496381713" lon="12.583377673505858"><ele>684.8</ele><time>2026-05-02T11:55:13.987Z</time></trkpt><trkpt lat="42.64327022553796" lon="12.583287071318473"><ele>684.4000000000001</ele><time>2026-05-02T11:55:14.987Z</time></trkpt><trkpt lat="42.64322134267078" lon="12.583128815080903"><ele>684.0</ele><time>2026-05-02T11:55:16.987Z</time></trkpt><trkpt lat="42.643205206817925" lon="12.583025879802515"><ele>684.0</ele><time>2026-05-02T11:55:17.987Z</time></trkpt><trkpt lat="42.643202195638764" lon="12.58292163920177"><ele>684.0</ele><time>2026-05-02T11:55:18.987Z</time></trkpt><trkpt lat="42.64320856030931" lon="12.582829959576577"><ele>684.0</ele><time>2026-05-02T11:55:19.987Z</time></trkpt><trkpt lat="42.64321996020251" lon="12.58273450022203"><ele>684.0</ele><time>2026-05-02T11:55:20.987Z</time></trkpt><trkpt lat="42.643198714983875" lon="12.582625470046196"><ele>684.0</ele><time>2026-05-02T11:55:21.987Z</time></trkpt><trkpt lat="42.643176315202055" lon="12.5824874214469"><ele>684.0</ele><time>2026-05-02T11:55:23.987Z</time></trkpt><trkpt lat="42.64316458912923" lon="12.582366527135052"><ele>683.0</ele><time>2026-05-02T11:55:25.987Z</time></trkpt><trkpt lat="42.64316895979131" lon="12.58225526187353"><ele>682.0</ele><time>2026-05-02T11:55:27.987Z</time></trkpt><trkpt lat="42.64315843290261" lon="12.582124121577229"><ele>681.0</ele><time>2026-05-02T11:55:29.987Z</time></trkpt><trkpt lat="42.64312883569298" lon="12.582003437096308"><ele>680.0</ele><time>2026-05-02T11:55:31.987Z</time></trkpt><trkpt lat="42.643104058223656" lon="12.581873926947363"><ele>679.0</ele><time>2026-05-02T11:55:34.987Z</time></trkpt><trkpt lat="42.64315021296826" lon="12.5817795515578"><ele>678.0</ele><time>2026-05-02T11:55:36.987Z</time></trkpt><trkpt lat="42.64323325493503" lon="12.581743252829801"><ele>677.0</ele><time>2026-05-02T11:55:40.987Z</time></trkpt><trkpt lat="42.64325150463752" lon="12.58164330031696"><ele>676.0</ele><time>2026-05-02T11:56:24.986Z</time></trkpt><trkpt lat="42.64321441826921" lon="12.581551116454738"><ele>675.0</ele><time>2026-05-02T11:56:33.986Z</time></trkpt><trkpt lat="42.64325738729659" lon="12.58144557671458"><ele>674.0</ele><time>2026-05-02T11:56:50.986Z</time></trkpt><trkpt lat="42.64333115424508" lon="12.581334230674141"><ele>673.0</ele><time>2026-05-02T11:56:52.986Z</time></trkpt><trkpt lat="42.643392820831544" lon="12.581265616464721"><ele>673.0</ele><time>2026-05-02T11:56:53.986Z</time></trkpt><trkpt lat="42.64349187678161" lon="12.581208891002307"><ele>673.0</ele><time>2026-05-02T11:56:55.986Z</time></trkpt><trkpt lat="42.643562678013694" lon="12.581173555622527"><ele>673.0</ele><time>2026-05-02T11:56:57.986Z</time></trkpt><trkpt lat="42.64367811565294" lon="12.581109521932602"><ele>673.0</ele><time>2026-05-02T11:57:00.986Z</time></trkpt><trkpt lat="42.64375169258403" lon="12.581083421884124"><ele>673.0</ele><time>2026-05-02T11:57:01.986Z</time></trkpt><trkpt lat="42.64386412420531" lon="12.581040130545226"><ele>676.5</ele><time>2026-05-02T11:57:03.986Z</time></trkpt><trkpt lat="42.643932029116584" lon="12.580987630591297"><ele>680.0</ele><time>2026-05-02T11:57:04.986Z</time></trkpt><trkpt lat="42.64402266738198" lon="12.58094586618518"><ele>683.5</ele><time>2026-05-02T11:57:06.986Z</time></trkpt><trkpt lat="42.64412953014182" lon="12.580963150112447"><ele>687.0</ele><time>2026-05-02T11:57:09.986Z</time></trkpt><trkpt lat="42.6442097598094" lon="12.580971495194536"><ele>690.5</ele><time>2026-05-02T11:57:11.985Z</time></trkpt><trkpt lat="42.644274313406754" lon="12.581005942191313"><ele>694.0</ele><time>2026-05-02T11:57:13.985Z</time></trkpt><trkpt lat="42.64433919153963" lon="12.58106320617476"><ele>694.0</ele><time>2026-05-02T11:57:15.985Z</time></trkpt><trkpt lat="42.64439092547509" lon="12.581125498172572"><ele>694.0</ele><time>2026-05-02T11:57:16.985Z</time></trkpt><trkpt lat="42.64444607497693" lon="12.581186184672667"><ele>694.0</ele><time>2026-05-02T11:57:17.985Z</time></trkpt><trkpt lat="42.644555004698596" lon="12.581294532226769"><ele>694.0</ele><time>2026-05-02T11:57:19.985Z</time></trkpt><trkpt lat="42.64462265757754" lon="12.581345520035187"><ele>694.0</ele><time>2026-05-02T11:57:20.985Z</time></trkpt><trkpt lat="42.64469494412773" lon="12.581354202341304"><ele>694.0</ele><time>2026-05-02T11:57:21.985Z</time></trkpt><trkpt lat="42.644762750604144" lon="12.581358768925579"><ele>697.1666666666667</ele><time>2026-05-02T11:57:24.985Z</time></trkpt><trkpt lat="42.644821448706736" lon="12.581392969931818"><ele>700.3333333333334</ele><time>2026-05-02T11:57:26.985Z</time></trkpt><trkpt lat="42.64488849324499" lon="12.581463405292745"><ele>703.5</ele><time>2026-05-02T11:57:29.985Z</time></trkpt><trkpt lat="42.64495983567882" lon="12.581496914561301"><ele>706.6666666666666</ele><time>2026-05-02T11:57:33.985Z</time></trkpt><trkpt lat="42.64502093046221" lon="12.581528245262348"><ele>709.8333333333333</ele><time>2026-05-02T11:57:39.985Z</time></trkpt><trkpt lat="42.64504328513794" lon="12.581612618705607"><ele>713.0</ele><time>2026-05-02T11:57:43.985Z</time></trkpt><trkpt lat="42.64494972581065" lon="12.581730306112867"><ele>713.0</ele><time>2026-05-02T11:57:45.985Z</time></trkpt><trkpt lat="42.644891251511126" lon="12.581768741846663"><ele>713.0</ele><time>2026-05-02T11:57:46.985Z</time></trkpt><trkpt lat="42.64478178279849" lon="12.581826254580063"><ele>713.0</ele><time>2026-05-02T11:57:48.985Z</time></trkpt><trkpt lat="42.64466143377647" lon="12.581882347163218"><ele>713.0</ele><time>2026-05-02T11:57:50.985Z</time></trkpt><trkpt lat="42.64458960437173" lon="12.581940270752328"><ele>713.0</ele><time>2026-05-02T11:57:52.985Z</time></trkpt><trkpt lat="42.64453280710727" lon="12.582059279562493"><ele>717.0</ele><time>2026-05-02T11:57:54.985Z</time></trkpt><trkpt lat="42.644508581666926" lon="12.582162315905084"><ele>721.0</ele><time>2026-05-02T11:57:56.985Z</time></trkpt><trkpt lat="42.64449406073471" lon="12.582277853750428"><ele>725.0</ele><time>2026-05-02T11:57:58.985Z</time></trkpt><trkpt lat="42.64448943676749" lon="12.582367161294684"><ele>729.0</ele><time>2026-05-02T11:58:00.985Z</time></trkpt><trkpt lat="42.64449564194385" lon="12.58245391808169"><ele>733.0</ele><time>2026-05-02T11:58:02.985Z</time></trkpt><trkpt lat="42.64450677842781" lon="12.582561825229288"><ele>737.0</ele><time>2026-05-02T11:58:04.985Z</time></trkpt><trkpt lat="42.64452135624568" lon="12.582683591712703"><ele>737.0</ele><time>2026-05-02T11:58:07.985Z</time></trkpt><trkpt lat="42.644547041410256" lon="12.582778417064048"><ele>737.0</ele><time>2026-05-02T11:58:09.985Z</time></trkpt><trkpt lat="42.64457779628303" lon="12.582904649108094"><ele>737.0</ele><time>2026-05-02T11:58:11.985Z</time></trkpt><trkpt lat="42.6446045290785" lon="12.58301801219855"><ele>737.0</ele><time>2026-05-02T11:58:13.985Z</time></trkpt><trkpt lat="42.64461758352982" lon="12.583106984982287"><ele>737.0</ele><time>2026-05-02T11:58:15.985Z</time></trkpt><trkpt lat="42.6446449133014" lon="12.583201003921488"><ele>737.0</ele><time>2026-05-02T11:58:17.985Z</time></trkpt><trkpt lat="42.64466291647148" lon="12.583292667226768"><ele>739.3333333333333</ele><time>2026-05-02T11:58:19.985Z</time></trkpt><trkpt lat="42.644685849685715" lon="12.58339334636974"><ele>741.6666666666666</ele><time>2026-05-02T11:58:22.985Z</time></trkpt><trkpt lat="42.64469174671261" lon="12.583489528228087"><ele>744.0</ele><time>2026-05-02T11:58:25.985Z</time></trkpt><trkpt lat="42.64470470996788" lon="12.583582890847643"><ele>746.3333333333334</ele><time>2026-05-02T11:58:28.985Z</time></trkpt><trkpt lat="42.64473004034945" lon="12.583679592978719"><ele>748.6666666666667</ele><time>2026-05-02T11:58:31.984Z</time></trkpt><trkpt lat="42.64475576728194" lon="12.583800476706607"><ele>751.0</ele><time>2026-05-02T11:58:34.984Z</time></trkpt><trkpt lat="42.64478565436675" lon="12.583910045019197"><ele>752.3333333333334</ele><time>2026-05-02T11:58:37.984Z</time></trkpt><trkpt lat="42.644808274348584" lon="12.584005436735106"><ele>753.6666666666667</ele><time>2026-05-02T11:58:39.984Z</time></trkpt><trkpt lat="42.64482033779678" lon="12.584124416698886"><ele>755.0</ele><time>2026-05-02T11:58:49.991Z</time></trkpt><trkpt lat="42.64482912220763" lon="12.584246375005286"><ele>756.3333333333334</ele><time>2026-05-02T11:59:18.991Z</time></trkpt><trkpt lat="42.64485596112129" lon="12.584344550632853"><ele>757.6666666666666</ele><time>2026-05-02T11:59:32.991Z</time></trkpt><trkpt lat="42.64486334671267" lon="12.584459140912605"><ele>759.0</ele><time>2026-05-02T11:59:34.992Z</time></trkpt><trkpt lat="42.644900191457516" lon="12.58455218166839"><ele>759.5</ele><time>2026-05-02T11:59:36.991Z</time></trkpt><trkpt lat="42.644939518313585" lon="12.584665919398159"><ele>760.0</ele><time>2026-05-02T11:59:39.992Z</time></trkpt><trkpt lat="42.64498500555503" lon="12.584767505724335"><ele>760.5</ele><time>2026-05-02T11:59:41.991Z</time></trkpt><trkpt lat="42.645035801129005" lon="12.584870214408397"><ele>761.0</ele><time>2026-05-02T11:59:43.991Z</time></trkpt><trkpt lat="42.64505778286943" lon="12.584975320977136"><ele>761.5</ele><time>2026-05-02T11:59:45.991Z</time></trkpt><trkpt lat="42.64508235971539" lon="12.58506423951773"><ele>762.0</ele><time>2026-05-02T11:59:47.991Z</time></trkpt><trkpt lat="42.64510556743141" lon="12.585188473933957"><ele>762.0</ele><time>2026-05-02T11:59:49.991Z</time></trkpt><trkpt lat="42.645150381319695" lon="12.585299038331646"><ele>762.0</ele><time>2026-05-02T11:59:51.991Z</time></trkpt><trkpt lat="42.64520800627397" lon="12.585424419072044"><ele>762.0</ele><time>2026-05-02T11:59:53.991Z</time></trkpt><trkpt lat="42.64526834602646" lon="12.585534770323779"><ele>762.0</ele><time>2026-05-02T11:59:55.991Z</time></trkpt><trkpt lat="42.645324284148494" lon="12.58561630159205"><ele>762.0</ele><time>2026-05-02T11:59:57.991Z</time></trkpt><trkpt lat="42.64536847164751" lon="12.585693980866294"><ele>769.6</ele><time>2026-05-02T11:59:59.991Z</time></trkpt><trkpt lat="42.64539772123716" lon="12.585839069060757"><ele>777.2</ele><time>2026-05-02T12:00:02.991Z</time></trkpt><trkpt lat="42.64542791073251" lon="12.585939944413958"><ele>784.8</ele><time>2026-05-02T12:00:04.991Z</time></trkpt><trkpt lat="42.64544991342887" lon="12.586040346423404"><ele>792.4</ele><time>2026-05-02T12:00:06.991Z</time></trkpt><trkpt lat="42.64545306532494" lon="12.586165724180724"><ele>800.0</ele><time>2026-05-02T12:00:08.991Z</time></trkpt><trkpt lat="42.64547494230005" lon="12.586312455926146"><ele>800.1666666666667</ele><time>2026-05-02T12:00:10.991Z</time></trkpt><trkpt lat="42.645517006468815" lon="12.586451773942258"><ele>800.3333333333334</ele><time>2026-05-02T12:00:12.991Z</time></trkpt><trkpt lat="42.64553619792809" lon="12.586557033593044"><ele>800.5</ele><time>2026-05-02T12:00:14.991Z</time></trkpt><trkpt lat="42.6455473893077" lon="12.586651846512865"><ele>800.6666666666667</ele><time>2026-05-02T12:00:16.991Z</time></trkpt><trkpt lat="42.645582251662645" lon="12.586765014764817"><ele>800.8333333333334</ele><time>2026-05-02T12:00:18.991Z</time></trkpt><trkpt lat="42.64562516341358" lon="12.586852083243036"><ele>801.0</ele><time>2026-05-02T12:00:20.991Z</time></trkpt><trkpt lat="42.64567791205497" lon="12.586962549347907"><ele>800.8333333333334</ele><time>2026-05-02T12:00:22.991Z</time></trkpt><trkpt lat="42.64572723306552" lon="12.587091257400887"><ele>800.6666666666667</ele><time>2026-05-02T12:00:24.991Z</time></trkpt><trkpt lat="42.64578376725832" lon="12.587197363395168"><ele>800.5</ele><time>2026-05-02T12:00:26.991Z</time></trkpt><trkpt lat="42.645836166747706" lon="12.587300756458378"><ele>800.3333333333334</ele><time>2026-05-02T12:00:28.991Z</time></trkpt><trkpt lat="42.64588179373231" lon="12.587362723000805"><ele>800.1666666666667</ele><time>2026-05-02T12:00:29.991Z</time></trkpt><trkpt lat="42.64594124494234" lon="12.587423483137103"><ele>800.0</ele><time>2026-05-02T12:00:30.991Z</time></trkpt><trkpt lat="42.64601238667849" lon="12.587505236207207"><ele>800.0</ele><time>2026-05-02T12:00:32.991Z</time></trkpt><trkpt lat="42.646071441540556" lon="12.58761021871573"><ele>800.0</ele><time>2026-05-02T12:00:34.991Z</time></trkpt><trkpt lat="42.64613983967038" lon="12.587692749517343"><ele>800.0</ele><time>2026-05-02T12:00:36.991Z</time></trkpt><trkpt lat="42.646205041557124" lon="12.587781593530266"><ele>800.0</ele><time>2026-05-02T12:00:38.991Z</time></trkpt><trkpt lat="42.64627087578864" lon="12.587893788118288"><ele>800.0</ele><time>2026-05-02T12:00:40.991Z</time></trkpt><trkpt lat="42.64635794395289" lon="12.587990171888457"><ele>804.2</ele><time>2026-05-02T12:00:42.99Z</time></trkpt><trkpt lat="42.646473187316644" lon="12.587966567701105"><ele>808.4</ele><time>2026-05-02T12:00:44.99Z</time></trkpt><trkpt lat="42.646566976480344" lon="12.587851281361043"><ele>812.5999999999999</ele><time>2026-05-02T12:00:46.99Z</time></trkpt><trkpt lat="42.64666784182946" lon="12.587769984010823"><ele>816.8</ele><time>2026-05-02T12:00:48.99Z</time></trkpt><trkpt lat="42.646743055419684" lon="12.587740323403311"><ele>821.0</ele><time>2026-05-02T12:00:49.99Z</time></trkpt><trkpt lat="42.64681717718603" lon="12.587732322842584"><ele>821.0000000000001</ele><time>2026-05-02T12:00:50.99Z</time></trkpt><trkpt lat="42.6468818522003" lon="12.587716236594225"><ele>821.0</ele><time>2026-05-02T12:00:51.99Z</time></trkpt><trkpt lat="42.64693286074911" lon="12.587655047141554"><ele>821.0</ele><time>2026-05-02T12:00:53.99Z</time></trkpt><trkpt lat="42.64699929028881" lon="12.587587804367466"><ele>821.0</ele><time>2026-05-02T12:02:09.99Z</time></trkpt><trkpt lat="42.64706949595093" lon="12.587605140812588"><ele>821.0000000000001</ele><time>2026-05-02T12:02:11.99Z</time></trkpt><trkpt lat="42.64713677790169" lon="12.58768036396763"><ele>821.0</ele><time>2026-05-02T12:02:13.99Z</time></trkpt><trkpt lat="42.64721831637508" lon="12.58771201805161"><ele>821.3333333333334</ele><time>2026-05-02T12:02:16.99Z</time></trkpt><trkpt lat="42.64729679233783" lon="12.587716872334695"><ele>821.6666666666667</ele><time>2026-05-02T12:02:19.99Z</time></trkpt><trkpt lat="42.64737124326033" lon="12.587715139058714"><ele>822.0</ele><time>2026-05-02T12:02:23.989Z</time></trkpt><trkpt lat="42.6474379235753" lon="12.587737759109288"><ele>822.3333333333333</ele><time>2026-05-02T12:02:26.989Z</time></trkpt><trkpt lat="42.64750389077277" lon="12.587768034306675"><ele>822.6666666666666</ele><time>2026-05-02T12:02:31.989Z</time></trkpt><trkpt lat="42.64758284900329" lon="12.587766770632749"><ele>823.0</ele><time>2026-05-02T12:02:34.989Z</time></trkpt><trkpt lat="42.64768606097659" lon="12.587721956948549"><ele>822.9999999999999</ele><time>2026-05-02T12:02:37.989Z</time></trkpt><trkpt lat="42.647773347360726" lon="12.587676362662053"><ele>823.0</ele><time>2026-05-02T12:02:39.989Z</time></trkpt><trkpt lat="42.647879672806724" lon="12.58765297455075"><ele>823.0</ele><time>2026-05-02T12:02:41.989Z</time></trkpt><trkpt lat="42.647948737954614" lon="12.587652788581957"><ele>823.0</ele><time>2026-05-02T12:02:43.989Z</time></trkpt><trkpt lat="42.64802692990847" lon="12.587652506371436"><ele>822.9999999999999</ele><time>2026-05-02T12:02:45.989Z</time></trkpt><trkpt lat="42.648096489640785" lon="12.587638748804508"><ele>823.0</ele><time>2026-05-02T12:02:47.989Z</time></trkpt><trkpt lat="42.64816891036295" lon="12.58764455154782"><ele>820.6666666666666</ele><time>2026-05-02T12:02:49.989Z</time></trkpt><trkpt lat="42.64823688236356" lon="12.587647520474949"><ele>818.3333333333333</ele><time>2026-05-02T12:02:51.989Z</time></trkpt><trkpt lat="42.64830903688699" lon="12.58765154394124"><ele>816.0</ele><time>2026-05-02T12:02:53.989Z</time></trkpt><trkpt lat="42.6483804752562" lon="12.587654636748688"><ele>813.6666666666667</ele><time>2026-05-02T12:02:55.989Z</time></trkpt><trkpt lat="42.64846895075801" lon="12.58767526190795"><ele>811.3333333333334</ele><time>2026-05-02T12:02:58.989Z</time></trkpt><trkpt lat="42.6485372933747" lon="12.587696372662686"><ele>809.0</ele><time>2026-05-02T12:03:02.989Z</time></trkpt><trkpt lat="42.64862939962251" lon="12.587729696766734"><ele>808.1666666666667</ele><time>2026-05-02T12:03:05.989Z</time></trkpt><trkpt lat="42.64871820796349" lon="12.587735514096892"><ele>807.3333333333334</ele><time>2026-05-02T12:03:37.989Z</time></trkpt><trkpt lat="42.648787337479256" lon="12.587683678210611"><ele>806.5</ele><time>2026-05-02T12:03:39.988Z</time></trkpt><trkpt lat="42.64883271325969" lon="12.587622543888092"><ele>805.6666666666667</ele><time>2026-05-02T12:03:41.988Z</time></trkpt><trkpt lat="42.64888423368053" lon="12.58756911678191"><ele>804.8333333333334</ele><time>2026-05-02T12:03:45.989Z</time></trkpt><trkpt lat="42.64894338158025" lon="12.587531711230628"><ele>804.0</ele><time>2026-05-02T12:03:59.989Z</time></trkpt><trkpt lat="42.64900932240463" lon="12.587627639876015"><ele>804.0</ele><time>2026-05-02T12:04:15.988Z</time></trkpt><trkpt lat="42.649069049680996" lon="12.587746697553289"><ele>804.0</ele><time>2026-05-02T12:04:17.988Z</time></trkpt><trkpt lat="42.64911814084197" lon="12.587826422574699"><ele>804.0</ele><time>2026-05-02T12:04:19.988Z</time></trkpt><trkpt lat="42.64920951268985" lon="12.587830879180892"><ele>804.0</ele><time>2026-05-02T12:04:22.988Z</time></trkpt><trkpt lat="42.6492956305446" lon="12.587770428129662"><ele>804.0</ele><time>2026-05-02T12:04:24.988Z</time></trkpt><trkpt lat="42.64936259599649" lon="12.587748612214812"><ele>804.0</ele><time>2026-05-02T12:04:25.988Z</time></trkpt><trkpt lat="42.6494606448657" lon="12.5877850163615"><ele>804.1666666666666</ele><time>2026-05-02T12:04:27.988Z</time></trkpt><trkpt lat="42.64953739198648" lon="12.58786546805041"><ele>804.3333333333333</ele><time>2026-05-02T12:04:29.988Z</time></trkpt><trkpt lat="42.649612161312646" lon="12.587891936920254"><ele>804.5</ele><time>2026-05-02T12:04:32.988Z</time></trkpt><trkpt lat="42.64968646726072" lon="12.587927860993336"><ele>804.6666666666666</ele><time>2026-05-02T12:04:36.988Z</time></trkpt><trkpt lat="42.649748172011186" lon="12.587987624211717"><ele>804.8333333333333</ele><time>2026-05-02T12:04:39.988Z</time></trkpt><trkpt lat="42.649831084521864" lon="12.587983742747625"><ele>805.0</ele><time>2026-05-02T12:04:41.988Z</time></trkpt><trkpt lat="42.649895073201" lon="12.587990261537893"><ele>804.9999999999999</ele><time>2026-05-02T12:04:43.988Z</time></trkpt><trkpt lat="42.649942624043966" lon="12.588054597388341"><ele>805.0</ele><time>2026-05-02T12:04:45.988Z</time></trkpt><trkpt lat="42.649998743307755" lon="12.58814314399769"><ele>805.0</ele><time>2026-05-02T12:04:47.988Z</time></trkpt><trkpt lat="42.65004319221752" lon="12.588234862517831"><ele>805.0</ele><time>2026-05-02T12:04:49.988Z</time></trkpt><trkpt lat="42.65010004420822" lon="12.588319616258248"><ele>804.9999999999999</ele><time>2026-05-02T12:04:51.988Z</time></trkpt><trkpt lat="42.65013445857722" lon="12.588410056770332"><ele>805.0</ele><time>2026-05-02T12:04:53.988Z</time></trkpt><trkpt lat="42.65015986045166" lon="12.588491492893098"><ele>804.9999999999999</ele><time>2026-05-02T12:04:57.988Z</time></trkpt><trkpt lat="42.650202221045085" lon="12.58855599699769"><ele>805.0</ele><time>2026-05-02T12:05:09.988Z</time></trkpt><trkpt lat="42.65023600034975" lon="12.588661446319973"><ele>805.0</ele><time>2026-05-02T12:05:30.988Z</time></trkpt><trkpt lat="42.65023606012334" lon="12.588786326005014"><ele>805.0</ele><time>2026-05-02T12:05:32.988Z</time></trkpt><trkpt lat="42.65027912572014" lon="12.58888361939025"><ele>804.9999999999999</ele><time>2026-05-02T12:05:34.987Z</time></trkpt><trkpt lat="42.65035124748405" lon="12.588930711030564"><ele>805.0</ele><time>2026-05-02T12:05:36.987Z</time></trkpt><trkpt lat="42.65042992367978" lon="12.58899683721017"><ele>804.6666666666666</ele><time>2026-05-02T12:05:38.987Z</time></trkpt><trkpt lat="42.650496460249244" lon="12.589011821976424"><ele>804.3333333333333</ele><time>2026-05-02T12:05:39.987Z</time></trkpt><trkpt lat="42.650591544859154" lon="12.589054130619088"><ele>804.0</ele><time>2026-05-02T12:05:41.987Z</time></trkpt><trkpt lat="42.65064780541614" lon="12.589160805214139"><ele>803.6666666666667</ele><time>2026-05-02T12:05:43.987Z</time></trkpt><trkpt lat="42.6506782371977" lon="12.589255632599977"><ele>803.3333333333334</ele><time>2026-05-02T12:05:45.987Z</time></trkpt><trkpt lat="42.65071623435559" lon="12.589373793929866"><ele>803.0</ele><time>2026-05-02T12:05:47.987Z</time></trkpt><trkpt lat="42.650784791158486" lon="12.589462028047558"><ele>803.0000000000001</ele><time>2026-05-02T12:05:49.987Z</time></trkpt><trkpt lat="42.65085990550305" lon="12.589494338259735"><ele>803.0</ele><time>2026-05-02T12:05:51.987Z</time></trkpt><trkpt lat="42.65093206144453" lon="12.58953993917568"><ele>803.0</ele><time>2026-05-02T12:05:53.987Z</time></trkpt><trkpt lat="42.65099417196358" lon="12.589638587659254"><ele>803.0</ele><time>2026-05-02T12:05:57.988Z</time></trkpt><trkpt lat="42.65104030522309" lon="12.589739339534875"><ele>803.0000000000001</ele><time>2026-05-02T12:05:59.987Z</time></trkpt><trkpt lat="42.65109434290025" lon="12.589810648724274"><ele>803.0</ele><time>2026-05-02T12:06:02.988Z</time></trkpt><trkpt lat="42.651127075082066" lon="12.589887893076149"><ele>801.5999999999999</ele><time>2026-05-02T12:06:04.988Z</time></trkpt><trkpt lat="42.651193066639905" lon="12.58997540875637"><ele>800.1999999999999</ele><time>2026-05-02T12:06:13.988Z</time></trkpt><trkpt lat="42.6512034335393" lon="12.590074756029672"><ele>798.8</ele><time>2026-05-02T12:06:23.987Z</time></trkpt><trkpt lat="42.65128943881942" lon="12.590169765867222"><ele>797.4</ele><time>2026-05-02T12:06:25.987Z</time></trkpt><trkpt lat="42.65135617656421" lon="12.590277580254192"><ele>796.0</ele><time>2026-05-02T12:06:27.987Z</time></trkpt><trkpt lat="42.651440187277906" lon="12.590299089774376"><ele>796.0</ele><time>2026-05-02T12:06:29.987Z</time></trkpt><trkpt lat="42.651548427728976" lon="12.590257526360285"><ele>796.0</ele><time>2026-05-02T12:06:31.987Z</time></trkpt><trkpt lat="42.65164618915381" lon="12.590196753431101"><ele>796.0</ele><time>2026-05-02T12:06:33.987Z</time></trkpt><trkpt lat="42.65175701887367" lon="12.590169803570118"><ele>796.0</ele><time>2026-05-02T12:06:35.987Z</time></trkpt><trkpt lat="42.651840843598826" lon="12.590158518109195"><ele>796.0</ele><time>2026-05-02T12:06:37.987Z</time></trkpt><trkpt lat="42.651941730392416" lon="12.590172797377633"><ele>795.1666666666666</ele><time>2026-05-02T12:06:39.987Z</time></trkpt><trkpt lat="42.65201623862825" lon="12.5901860797669"><ele>794.3333333333333</ele><time>2026-05-02T12:06:40.987Z</time></trkpt><trkpt lat="42.652155597065644" lon="12.590162446991254"><ele>793.5</ele><time>2026-05-02T12:06:42.987Z</time></trkpt><trkpt lat="42.65221931502215" lon="12.590150243031381"><ele>792.6666666666667</ele><time>2026-05-02T12:06:43.987Z</time></trkpt><trkpt lat="42.6522824310008" lon="12.5901395881989"><ele>791.8333333333334</ele><time>2026-05-02T12:06:44.987Z</time></trkpt><trkpt lat="42.65236394015957" lon="12.590120775937974"><ele>791.0</ele><time>2026-05-02T12:06:45.987Z</time></trkpt><trkpt lat="42.65244519615995" lon="12.590108867632503"><ele>791.0000000000001</ele><time>2026-05-02T12:06:46.987Z</time></trkpt><trkpt lat="42.652509742515086" lon="12.590099142602288"><ele>791.0</ele><time>2026-05-02T12:06:47.987Z</time></trkpt><trkpt lat="42.652580465959204" lon="12.590103696372244"><ele>791.0</ele><time>2026-05-02T12:06:48.987Z</time></trkpt><trkpt lat="42.65264566768131" lon="12.590120162504597"><ele>791.0</ele><time>2026-05-02T12:06:49.987Z</time></trkpt><trkpt lat="42.652760498561655" lon="12.590156037788883"><ele>791.0000000000001</ele><time>2026-05-02T12:06:51.987Z</time></trkpt><trkpt lat="42.65288239240325" lon="12.590183500762157"><ele>791.0</ele><time>2026-05-02T12:06:53.987Z</time></trkpt><trkpt lat="42.65298549200936" lon="12.590191828626025"><ele>791.1666666666667</ele><time>2026-05-02T12:06:55.987Z</time></trkpt><trkpt lat="42.653089593236984" lon="12.590251218942972"><ele>791.3333333333334</ele><time>2026-05-02T12:06:57.987Z</time></trkpt><trkpt lat="42.65314498917424" lon="12.590304275258456"><ele>791.5</ele><time>2026-05-02T12:06:58.987Z</time></trkpt><trkpt lat="42.653204985179" lon="12.590347018111368"><ele>791.6666666666667</ele><time>2026-05-02T12:06:59.987Z</time></trkpt><trkpt lat="42.65327631432543" lon="12.590387054407973"><ele>791.8333333333334</ele><time>2026-05-02T12:07:00.987Z</time></trkpt><trkpt lat="42.65334732733262" lon="12.590406929874977"><ele>792.0</ele><time>2026-05-02T12:07:01.987Z</time></trkpt><trkpt lat="42.65343854909811" lon="12.59043784525109"><ele>792.0</ele><time>2026-05-02T12:07:03.987Z</time></trkpt><trkpt lat="42.65352332025116" lon="12.590472017446478"><ele>792.0</ele><time>2026-05-02T12:07:05.987Z</time></trkpt><trkpt lat="42.6535914661571" lon="12.590505818778409"><ele>792.0</ele><time>2026-05-02T12:07:06.987Z</time></trkpt><trkpt lat="42.65368735672082" lon="12.590564407155094"><ele>792.0</ele><time>2026-05-02T12:07:08.987Z</time></trkpt><trkpt lat="42.653732598608826" lon="12.590626427505569"><ele>792.0</ele><time>2026-05-02T12:07:09.987Z</time></trkpt><trkpt lat="42.65380482602746" lon="12.590713780474832"><ele>792.0</ele><time>2026-05-02T12:07:10.987Z</time></trkpt><trkpt lat="42.65386930861143" lon="12.590778909513062"><ele>788.8</ele><time>2026-05-02T12:07:11.987Z</time></trkpt><trkpt lat="42.65393055969149" lon="12.59083233064831"><ele>785.6</ele><time>2026-05-02T12:07:12.987Z</time></trkpt><trkpt lat="42.65405105018446" lon="12.590906624301342"><ele>782.4</ele><time>2026-05-02T12:07:14.987Z</time></trkpt><trkpt lat="42.65410292275713" lon="12.590968587885902"><ele>779.1999999999999</ele><time>2026-05-02T12:07:15.987Z</time></trkpt><trkpt lat="42.65420551612673" lon="12.591019159808237"><ele>776.0</ele><time>2026-05-02T12:07:17.987Z</time></trkpt><trkpt lat="42.65430587895813" lon="12.59107639865355"><ele>776.0000000000001</ele><time>2026-05-02T12:07:19.987Z</time></trkpt><trkpt lat="42.65437833247524" lon="12.59111252642995"><ele>776.0</ele><time>2026-05-02T12:07:20.987Z</time></trkpt><trkpt lat="42.65444871631442" lon="12.591130062170834"><ele>776.0</ele><time>2026-05-02T12:07:21.987Z</time></trkpt><trkpt lat="42.65455994465845" lon="12.5911770323977"><ele>776.0</ele><time>2026-05-02T12:07:23.987Z</time></trkpt><trkpt lat="42.654655124863424" lon="12.591203083864487"><ele>776.0000000000001</ele><time>2026-05-02T12:07:25.987Z</time></trkpt><trkpt lat="42.65471748958609" lon="12.591241422523144"><ele>776.0</ele><time>2026-05-02T12:07:26.987Z</time></trkpt><trkpt lat="42.65482694685089" lon="12.591316861760978"><ele>774.0</ele><time>2026-05-02T12:07:28.987Z</time></trkpt><trkpt lat="42.65490785228017" lon="12.591388926074838"><ele>772.0</ele><time>2026-05-02T12:07:30.987Z</time></trkpt><trkpt lat="42.65500073386747" lon="12.59149714422771"><ele>770.0</ele><time>2026-05-02T12:07:32.987Z</time></trkpt><trkpt lat="42.65507611515612" lon="12.591574763446665"><ele>768.0</ele><time>2026-05-02T12:07:33.987Z</time></trkpt><trkpt lat="42.65513486623839" lon="12.591633940447087"><ele>766.0</ele><time>2026-05-02T12:07:34.987Z</time></trkpt><trkpt lat="42.65523708135988" lon="12.59172558973526"><ele>763.8333333333334</ele><time>2026-05-02T12:07:36.987Z</time></trkpt><trkpt lat="42.65528934831745" lon="12.591781597327149"><ele>761.6666666666667</ele><time>2026-05-02T12:07:37.987Z</time></trkpt><trkpt lat="42.65540544897956" lon="12.591861293282902"><ele>759.5</ele><time>2026-05-02T12:07:39.987Z</time></trkpt><trkpt lat="42.65546935640822" lon="12.591873381569716"><ele>757.3333333333334</ele><time>2026-05-02T12:07:40.986Z</time></trkpt><trkpt lat="42.65554791626207" lon="12.591911281539096"><ele>755.1666666666666</ele><time>2026-05-02T12:07:42.986Z</time></trkpt><trkpt lat="42.65560287733667" lon="12.592023138589978"><ele>753.0</ele><time>2026-05-02T12:07:44.986Z</time></trkpt><trkpt lat="42.6556895893334" lon="12.592060158961557"><ele>752.8</ele><time>2026-05-02T12:07:46.986Z</time></trkpt><trkpt lat="42.655793404758036" lon="12.59209199220468"><ele>752.5999999999999</ele><time>2026-05-02T12:07:48.986Z</time></trkpt><trkpt lat="42.65585435454495" lon="12.59213108929195"><ele>752.4000000000001</ele><time>2026-05-02T12:07:49.986Z</time></trkpt><trkpt lat="42.65594667472921" lon="12.592241983369384"><ele>752.2</ele><time>2026-05-02T12:07:51.986Z</time></trkpt><trkpt lat="42.6560251631758" lon="12.592330531557948"><ele>752.0</ele><time>2026-05-02T12:07:53.986Z</time></trkpt><trkpt lat="42.65612125014454" lon="12.592417704765557"><ele>750.5</ele><time>2026-05-02T12:07:55.986Z</time></trkpt><trkpt lat="42.656197129633284" lon="12.592417612308681"><ele>749.0</ele><time>2026-05-02T12:07:58.986Z</time></trkpt><trkpt lat="42.656235861143884" lon="12.592494783206499"><ele>747.5</ele><time>2026-05-02T12:08:00.985Z</time></trkpt><trkpt lat="42.65632440552997" lon="12.592537581712355"><ele>746.0</ele><time>2026-05-02T12:08:02.986Z</time></trkpt><trkpt lat="42.656451977331734" lon="12.592564669582854"><ele>744.5</ele><time>2026-05-02T12:08:04.985Z</time></trkpt><trkpt lat="42.65652305580501" lon="12.592595524005297"><ele>743.0</ele><time>2026-05-02T12:08:05.985Z</time></trkpt><trkpt lat="42.65659742186731" lon="12.592641786149528"><ele>743.0</ele><time>2026-05-02T12:08:06.986Z</time></trkpt><trkpt lat="42.65667198069606" lon="12.592689577596104"><ele>743.0</ele><time>2026-05-02T12:08:07.985Z</time></trkpt><trkpt lat="42.65678084185183" lon="12.592711546380484"><ele>743.0</ele><time>2026-05-02T12:08:09.985Z</time></trkpt><trkpt lat="42.656856962730735" lon="12.59273745930056"><ele>743.0</ele><time>2026-05-02T12:08:11.985Z</time></trkpt><trkpt lat="42.65695198527396" lon="12.592795901598167"><ele>743.0</ele><time>2026-05-02T12:08:14.985Z</time></trkpt><trkpt lat="42.65700925747975" lon="12.592855059589409"><ele>743.0</ele><time>2026-05-02T12:08:17.985Z</time></trkpt><trkpt lat="42.65707207908665" lon="12.592879645324542"><ele>741.5</ele><time>2026-05-02T12:08:39.985Z</time></trkpt><trkpt lat="42.657140729356286" lon="12.592915310793492"><ele>740.0</ele><time>2026-05-02T12:08:41.985Z</time></trkpt><trkpt lat="42.657246852943054" lon="12.592958369426908"><ele>738.5</ele><time>2026-05-02T12:08:43.985Z</time></trkpt><trkpt lat="42.65731684972916" lon="12.592986386215031"><ele>737.0</ele><time>2026-05-02T12:08:44.985Z</time></trkpt><trkpt lat="42.65739109492387" lon="12.59301084253384"><ele>735.5</ele><time>2026-05-02T12:08:45.985Z</time></trkpt><trkpt lat="42.65746952512723" lon="12.593035205610265"><ele>734.0</ele><time>2026-05-02T12:08:46.985Z</time></trkpt><trkpt lat="42.65753204453688" lon="12.593065555798931"><ele>734.0</ele><time>2026-05-02T12:08:47.985Z</time></trkpt><trkpt lat="42.6575932918146" lon="12.593087054711033"><ele>734.0</ele><time>2026-05-02T12:08:48.985Z</time></trkpt><trkpt lat="42.65766289335596" lon="12.593105874107856"><ele>734.0</ele><time>2026-05-02T12:08:49.985Z</time></trkpt><trkpt lat="42.65774368812569" lon="12.593132411951721"><ele>734.0</ele><time>2026-05-02T12:08:50.985Z</time></trkpt><trkpt lat="42.65781754914173" lon="12.593158138131738"><ele>734.0</ele><time>2026-05-02T12:08:51.985Z</time></trkpt><trkpt lat="42.65790067838629" lon="12.593189731244808"><ele>734.0</ele><time>2026-05-02T12:08:52.985Z</time></trkpt><trkpt lat="42.65797752971326" lon="12.593210245293305"><ele>734.2</ele><time>2026-05-02T12:08:53.985Z</time></trkpt><trkpt lat="42.65807880414796" lon="12.593290224890243"><ele>734.4000000000001</ele><time>2026-05-02T12:08:55.985Z</time></trkpt><trkpt lat="42.6581515262041" lon="12.593357010669529"><ele>734.6</ele><time>2026-05-02T12:08:57.985Z</time></trkpt><trkpt lat="42.65821593585909" lon="12.593317432881816"><ele>734.8</ele><time>2026-05-02T12:09:04.984Z</time></trkpt><trkpt lat="42.658219923936066" lon="12.593206063120698"><ele>735.0</ele><time>2026-05-02T12:09:07.984Z</time></trkpt><trkpt lat="42.65819182307872" lon="12.593051114678792"><ele>735.0</ele><time>2026-05-02T12:09:09.984Z</time></trkpt><trkpt lat="42.65816971822986" lon="12.592876131753243"><ele>735.0</ele><time>2026-05-02T12:09:11.984Z</time></trkpt><trkpt lat="42.65817492485022" lon="12.592760722162904"><ele>735.0</ele><time>2026-05-02T12:09:12.984Z</time></trkpt><trkpt lat="42.658173270177365" lon="12.592669747311517"><ele>735.0</ele><time>2026-05-02T12:09:13.984Z</time></trkpt><trkpt lat="42.658150864839705" lon="12.59258134953481"><ele>735.0</ele><time>2026-05-02T12:09:14.984Z</time></trkpt><trkpt lat="42.65811840428761" lon="12.59247790973211"><ele>735.0</ele><time>2026-05-02T12:09:15.984Z</time></trkpt><trkpt lat="42.65809940070772" lon="12.592372084272178"><ele>735.0</ele><time>2026-05-02T12:09:16.984Z</time></trkpt><trkpt lat="42.658065164771045" lon="12.592268930679275"><ele>735.0</ele><time>2026-05-02T12:09:17.984Z</time></trkpt><trkpt lat="42.65802208100613" lon="12.59218621881462"><ele>735.0</ele><time>2026-05-02T12:09:18.984Z</time></trkpt><trkpt lat="42.65796302314285" lon="12.592069292325954"><ele>735.0</ele><time>2026-05-02T12:09:20.984Z</time></trkpt><trkpt lat="42.65787957479579" lon="12.59194595953524"><ele>735.0</ele><time>2026-05-02T12:09:22.984Z</time></trkpt><trkpt lat="42.65783770176201" lon="12.591839572991201"><ele>735.0</ele><time>2026-05-02T12:09:23.984Z</time></trkpt><trkpt lat="42.65779984699393" lon="12.59171541086147"><ele>735.0</ele><time>2026-05-02T12:09:24.984Z</time></trkpt><trkpt lat="42.65775507159887" lon="12.591577800180634"><ele>735.0</ele><time>2026-05-02T12:09:25.984Z</time></trkpt><trkpt lat="42.657735928515386" lon="12.591468739862105"><ele>735.0</ele><time>2026-05-02T12:09:26.984Z</time></trkpt><trkpt lat="42.65775454349967" lon="12.591359061666722"><ele>735.0</ele><time>2026-05-02T12:09:27.984Z</time></trkpt><trkpt lat="42.65774306111352" lon="12.591253838454499"><ele>738.8</ele><time>2026-05-02T12:09:28.984Z</time></trkpt><trkpt lat="42.657741546461025" lon="12.59116311855053"><ele>742.6</ele><time>2026-05-02T12:09:29.984Z</time></trkpt><trkpt lat="42.65782248712782" lon="12.591026103524323"><ele>746.4000000000001</ele><time>2026-05-02T12:09:31.984Z</time></trkpt><trkpt lat="42.65789915847093" lon="12.59102558572036"><ele>750.2</ele><time>2026-05-02T12:09:32.984Z</time></trkpt><trkpt lat="42.657989976850075" lon="12.591084505088551"><ele>754.0</ele><time>2026-05-02T12:09:33.984Z</time></trkpt><trkpt lat="42.65806628600337" lon="12.591167479310654"><ele>750.8333333333334</ele><time>2026-05-02T12:09:34.984Z</time></trkpt><trkpt lat="42.65811348153524" lon="12.591233071385128"><ele>747.6666666666667</ele><time>2026-05-02T12:09:35.984Z</time></trkpt><trkpt lat="42.65817469803155" lon="12.591282181557844"><ele>744.5</ele><time>2026-05-02T12:09:36.984Z</time></trkpt><trkpt lat="42.658244074020196" lon="12.591321511929875"><ele>741.3333333333334</ele><time>2026-05-02T12:09:37.984Z</time></trkpt><trkpt lat="42.65832519522201" lon="12.591362142243309"><ele>738.1666666666666</ele><time>2026-05-02T12:09:38.984Z</time></trkpt><trkpt lat="42.65841626387423" lon="12.591400780466563"><ele>735.0</ele><time>2026-05-02T12:09:39.984Z</time></trkpt><trkpt lat="42.65849475811167" lon="12.591432394418309"><ele>735.0</ele><time>2026-05-02T12:09:40.984Z</time></trkpt><trkpt lat="42.65857546734046" lon="12.591465500298321"><ele>735.0</ele><time>2026-05-02T12:09:41.984Z</time></trkpt><trkpt lat="42.658663424744255" lon="12.591493099190663"><ele>735.0</ele><time>2026-05-02T12:09:42.984Z</time></trkpt><trkpt lat="42.65874720004039" lon="12.591517898266526"><ele>735.0</ele><time>2026-05-02T12:09:43.984Z</time></trkpt><trkpt lat="42.65883977325616" lon="12.591533179319644"><ele>735.0</ele><time>2026-05-02T12:09:44.984Z</time></trkpt><trkpt lat="42.658932757140434" lon="12.591531808592197"><ele>735.0</ele><time>2026-05-02T12:09:45.984Z</time></trkpt><trkpt lat="42.65901333354011" lon="12.591526196694947"><ele>735.1666666666666</ele><time>2026-05-02T12:09:46.984Z</time></trkpt><trkpt lat="42.65910042001167" lon="12.591524167904264"><ele>735.3333333333334</ele><time>2026-05-02T12:09:47.984Z</time></trkpt><trkpt lat="42.6591729019975" lon="12.591511229993685"><ele>735.5</ele><time>2026-05-02T12:09:48.984Z</time></trkpt><trkpt lat="42.65924791106787" lon="12.591487347129785"><ele>735.6666666666667</ele><time>2026-05-02T12:09:49.984Z</time></trkpt><trkpt lat="42.65932822460172" lon="12.591432506146457"><ele>735.8333333333334</ele><time>2026-05-02T12:09:50.984Z</time></trkpt><trkpt lat="42.65940323485765" lon="12.591366337130216"><ele>736.0</ele><time>2026-05-02T12:09:51.984Z</time></trkpt><trkpt lat="42.65950278083776" lon="12.591297899493641"><ele>735.4</ele><time>2026-05-02T12:09:52.984Z</time></trkpt><trkpt lat="42.659594393278134" lon="12.591236119304078"><ele>734.8</ele><time>2026-05-02T12:09:53.984Z</time></trkpt><trkpt lat="42.65968662806585" lon="12.591186206320744"><ele>734.1999999999999</ele><time>2026-05-02T12:09:54.984Z</time></trkpt><trkpt lat="42.659791546917816" lon="12.591162070294828"><ele>733.5999999999999</ele><time>2026-05-02T12:09:55.984Z</time></trkpt><trkpt lat="42.6598948325769" lon="12.591133135845922"><ele>733.0</ele><time>2026-05-02T12:09:56.984Z</time></trkpt><trkpt lat="42.65997961524798" lon="12.59108608158249"><ele>736.4</ele><time>2026-05-02T12:09:57.984Z</time></trkpt><trkpt lat="42.6600489177886" lon="12.59101347433126"><ele>739.8</ele><time>2026-05-02T12:09:58.984Z</time></trkpt><trkpt lat="42.66011490045616" lon="12.590911794392436"><ele>743.2</ele><time>2026-05-02T12:09:59.984Z</time></trkpt><trkpt lat="42.66018331039469" lon="12.590794187425892"><ele>746.6</ele><time>2026-05-02T12:10:00.984Z</time></trkpt><trkpt lat="42.660227416638804" lon="12.590664780533617"><ele>750.0</ele><time>2026-05-02T12:10:01.984Z</time></trkpt><trkpt lat="42.66027292660988" lon="12.590539057655123"><ele>749.4</ele><time>2026-05-02T12:10:02.984Z</time></trkpt><trkpt lat="42.660335977375865" lon="12.590414192746946"><ele>748.8</ele><time>2026-05-02T12:10:03.984Z</time></trkpt><trkpt lat="42.660394306721" lon="12.59031042798834"><ele>748.2</ele><time>2026-05-02T12:10:04.984Z</time></trkpt><trkpt lat="42.660451759865566" lon="12.59020739074204"><ele>747.6</ele><time>2026-05-02T12:10:05.984Z</time></trkpt><trkpt lat="42.66049107503783" lon="12.590119245318714"><ele>747.0</ele><time>2026-05-02T12:10:06.984Z</time></trkpt><trkpt lat="42.660590070315905" lon="12.589974143614716"><ele>747.0</ele><time>2026-05-02T12:10:08.984Z</time></trkpt><trkpt lat="42.66064200001026" lon="12.58991160272077"><ele>747.0</ele><time>2026-05-02T12:10:09.984Z</time></trkpt><trkpt lat="42.66070334254889" lon="12.589788702547361"><ele>747.0</ele><time>2026-05-02T12:10:11.984Z</time></trkpt><trkpt lat="42.66072524338114" lon="12.58969117207291"><ele>747.0</ele><time>2026-05-02T12:10:12.984Z</time></trkpt><trkpt lat="42.660780286283526" lon="12.589569324379186"><ele>747.0</ele><time>2026-05-02T12:10:13.984Z</time></trkpt><trkpt lat="42.66082087052282" lon="12.589467816861054"><ele>747.0</ele><time>2026-05-02T12:10:14.984Z</time></trkpt><trkpt lat="42.66086446676323" lon="12.589345546005086"><ele>749.8</ele><time>2026-05-02T12:10:15.984Z</time></trkpt><trkpt lat="42.660910261494486" lon="12.589236817976925"><ele>752.6</ele><time>2026-05-02T12:10:16.984Z</time></trkpt><trkpt lat="42.66094912834876" lon="12.589119726053971"><ele>755.4</ele><time>2026-05-02T12:10:17.984Z</time></trkpt><trkpt lat="42.66098834466316" lon="12.588998398675379"><ele>758.1999999999999</ele><time>2026-05-02T12:10:18.984Z</time></trkpt><trkpt lat="42.661030703439" lon="12.588859693739158"><ele>761.0</ele><time>2026-05-02T12:10:19.984Z</time></trkpt><trkpt lat="42.66106251058416" lon="12.58872865183049"><ele>761.0</ele><time>2026-05-02T12:10:20.984Z</time></trkpt><trkpt lat="42.66109512156465" lon="12.588572522399021"><ele>761.0</ele><time>2026-05-02T12:10:21.984Z</time></trkpt><trkpt lat="42.661119407984444" lon="12.58843958167432"><ele>761.0</ele><time>2026-05-02T12:10:22.984Z</time></trkpt><trkpt lat="42.661146115117894" lon="12.58832340448507"><ele>761.0</ele><time>2026-05-02T12:10:23.984Z</time></trkpt><trkpt lat="42.66117607248968" lon="12.588232907301094"><ele>761.0</ele><time>2026-05-02T12:10:24.984Z</time></trkpt><trkpt lat="42.66123289001816" lon="12.588155863060969"><ele>761.0</ele><time>2026-05-02T12:10:31.984Z</time></trkpt><trkpt lat="42.66129581816814" lon="12.588114335384828"><ele>761.0</ele><time>2026-05-02T12:10:40.983Z</time></trkpt><trkpt lat="42.661235662343344" lon="12.588041347879928"><ele>761.0</ele><time>2026-05-02T12:11:17.983Z</time></trkpt><trkpt lat="42.66122237099705" lon="12.58788935567599"><ele>761.0</ele><time>2026-05-02T12:11:19.983Z</time></trkpt><trkpt lat="42.66119714071807" lon="12.58775054852265"><ele>761.0</ele><time>2026-05-02T12:11:21.983Z</time></trkpt><trkpt lat="42.66116343460141" lon="12.587648901186148"><ele>762.1666666666666</ele><time>2026-05-02T12:11:23.983Z</time></trkpt><trkpt lat="42.66114968792015" lon="12.58754040453517"><ele>763.3333333333333</ele><time>2026-05-02T12:11:25.983Z</time></trkpt><trkpt lat="42.66112049656932" lon="12.587457005511192"><ele>764.5</ele><time>2026-05-02T12:11:26.983Z</time></trkpt><trkpt lat="42.6610928178787" lon="12.587330723303316"><ele>765.6666666666666</ele><time>2026-05-02T12:11:27.983Z</time></trkpt><trkpt lat="42.66109821092182" lon="12.587222756347117"><ele>766.8333333333334</ele><time>2026-05-02T12:11:28.983Z</time></trkpt><trkpt lat="42.661090060221" lon="12.587121852950574"><ele>768.0</ele><time>2026-05-02T12:11:29.983Z</time></trkpt><trkpt lat="42.66106811034915" lon="12.587025594645166"><ele>770.1666666666666</ele><time>2026-05-02T12:11:30.983Z</time></trkpt><trkpt lat="42.66101959187823" lon="12.58694097025322"><ele>772.3333333333333</ele><time>2026-05-02T12:11:31.983Z</time></trkpt><trkpt lat="42.660983433722954" lon="12.58685669833747"><ele>774.5</ele><time>2026-05-02T12:11:32.983Z</time></trkpt><trkpt lat="42.66096389582817" lon="12.586750088386223"><ele>776.6666666666666</ele><time>2026-05-02T12:11:33.983Z</time></trkpt><trkpt lat="42.66094852853608" lon="12.586660271771688"><ele>778.8333333333333</ele><time>2026-05-02T12:11:34.983Z</time></trkpt><trkpt lat="42.66090558861384" lon="12.58656722309186"><ele>781.0</ele><time>2026-05-02T12:11:35.983Z</time></trkpt><trkpt lat="42.66087734151758" lon="12.586389140694694"><ele>781.0</ele><time>2026-05-02T12:11:36.983Z</time></trkpt><trkpt lat="42.660888505489254" lon="12.586206242987412"><ele>781.0</ele><time>2026-05-02T12:11:37.983Z</time></trkpt><trkpt lat="42.66091811575443" lon="12.586091041759529"><ele>781.0</ele><time>2026-05-02T12:11:38.983Z</time></trkpt><trkpt lat="42.660968830913355" lon="12.585933975364513"><ele>781.0</ele><time>2026-05-02T12:11:39.983Z</time></trkpt><trkpt lat="42.661033509909615" lon="12.585786549415506"><ele>780.8</ele><time>2026-05-02T12:11:40.983Z</time></trkpt><trkpt lat="42.66088557939485" lon="12.585819859059377"><ele>780.5999999999999</ele><time>2026-05-02T12:11:41.983Z</time></trkpt><trkpt lat="42.66095645824833" lon="12.585827331375954"><ele>780.4</ele><time>2026-05-02T12:11:42.983Z</time></trkpt><trkpt lat="42.661031874057926" lon="12.585852608394145"><ele>780.2</ele><time>2026-05-02T12:11:43.983Z</time></trkpt><trkpt lat="42.66113224813879" lon="12.585850058457604"><ele>780.0</ele><time>2026-05-02T12:11:44.983Z</time></trkpt><trkpt lat="42.661232155359436" lon="12.585823752309778"><ele>780.0</ele><time>2026-05-02T12:11:45.983Z</time></trkpt><trkpt lat="42.66132731637081" lon="12.585780775950505"><ele>780.0</ele><time>2026-05-02T12:11:46.983Z</time></trkpt><trkpt lat="42.661421978601204" lon="12.585751204443902"><ele>780.0</ele><time>2026-05-02T12:11:47.983Z</time></trkpt><trkpt lat="42.66152308895806" lon="12.585733984329517"><ele>780.0</ele><time>2026-05-02T12:11:48.983Z</time></trkpt><trkpt lat="42.661620004464744" lon="12.585736806681968"><ele>780.0</ele><time>2026-05-02T12:11:49.983Z</time></trkpt><trkpt lat="42.66172760791734" lon="12.585788927138177"><ele>780.0</ele><time>2026-05-02T12:11:50.983Z</time></trkpt><trkpt lat="42.661850466964246" lon="12.585847728636379"><ele>780.0</ele><time>2026-05-02T12:11:51.983Z</time></trkpt><trkpt lat="42.66197020904349" lon="12.585931739904403"><ele>780.0</ele><time>2026-05-02T12:11:52.982Z</time></trkpt><trkpt lat="42.66209111851183" lon="12.58601908012816"><ele>780.0</ele><time>2026-05-02T12:11:53.982Z</time></trkpt><trkpt lat="42.66219720734676" lon="12.586095515448498"><ele>780.2</ele><time>2026-05-02T12:11:54.982Z</time></trkpt><trkpt lat="42.6622947690816" lon="12.586148129395808"><ele>780.4</ele><time>2026-05-02T12:11:55.982Z</time></trkpt><trkpt lat="42.662384414738064" lon="12.586177752242806"><ele>780.5999999999999</ele><time>2026-05-02T12:11:56.982Z</time></trkpt><trkpt lat="42.662466429912136" lon="12.586201970898154"><ele>780.8</ele><time>2026-05-02T12:11:57.982Z</time></trkpt><trkpt lat="42.662531523949895" lon="12.586215213874912"><ele>781.0</ele><time>2026-05-02T12:11:58.982Z</time></trkpt><trkpt lat="42.662653566316294" lon="12.586229080285122"><ele>782.0</ele><time>2026-05-02T12:12:00.982Z</time></trkpt><trkpt lat="42.6627440831464" lon="12.586305684123733"><ele>783.0</ele><time>2026-05-02T12:12:02.982Z</time></trkpt><trkpt lat="42.66279277459608" lon="12.586443694389676"><ele>784.0</ele><time>2026-05-02T12:12:04.982Z</time></trkpt><trkpt lat="42.66287912368854" lon="12.586544403231224"><ele>785.0</ele><time>2026-05-02T12:12:06.983Z</time></trkpt><trkpt lat="42.662940249927935" lon="12.586590567127864"><ele>786.0</ele><time>2026-05-02T12:12:07.983Z</time></trkpt><trkpt lat="42.66305269151859" lon="12.586638464572065"><ele>787.3333333333334</ele><time>2026-05-02T12:12:09.982Z</time></trkpt><trkpt lat="42.66311906956903" lon="12.586682425936115"><ele>788.6666666666667</ele><time>2026-05-02T12:12:10.982Z</time></trkpt><trkpt lat="42.66318522862974" lon="12.58672907290254"><ele>790.0</ele><time>2026-05-02T12:12:11.982Z</time></trkpt><trkpt lat="42.663248078528866" lon="12.586748958231892"><ele>791.3333333333334</ele><time>2026-05-02T12:12:12.982Z</time></trkpt><trkpt lat="42.66334419871176" lon="12.586761544496223"><ele>792.6666666666667</ele><time>2026-05-02T12:12:14.983Z</time></trkpt><trkpt lat="42.66342868937479" lon="12.586756037414519"><ele>794.0</ele><time>2026-05-02T12:12:15.983Z</time></trkpt><trkpt lat="42.66356260406912" lon="12.58677122531028"><ele>794.4000000000001</ele><time>2026-05-02T12:12:17.983Z</time></trkpt><trkpt lat="42.66363302418618" lon="12.586777377715409"><ele>794.8</ele><time>2026-05-02T12:12:18.982Z</time></trkpt><trkpt lat="42.66371094597278" lon="12.586783127994979"><ele>795.2</ele><time>2026-05-02T12:12:19.983Z</time></trkpt><trkpt lat="42.66378856014232" lon="12.58680361894493"><ele>795.5999999999999</ele><time>2026-05-02T12:12:20.983Z</time></trkpt><trkpt lat="42.66390381772886" lon="12.586864981181423"><ele>796.0</ele><time>2026-05-02T12:12:22.983Z</time></trkpt><trkpt lat="42.66399836107826" lon="12.586910585802219"><ele>796.0</ele><time>2026-05-02T12:12:24.983Z</time></trkpt><trkpt lat="42.6641099233677" lon="12.586961673660692"><ele>796.0</ele><time>2026-05-02T12:12:26.983Z</time></trkpt><trkpt lat="42.66422506630639" lon="12.587004459894164"><ele>796.0</ele><time>2026-05-02T12:12:28.983Z</time></trkpt><trkpt lat="42.66432463610753" lon="12.58703978713277"><ele>796.0</ele><time>2026-05-02T12:12:30.982Z</time></trkpt><trkpt lat="42.664402684536675" lon="12.587060806403732"><ele>796.0</ele><time>2026-05-02T12:12:32.982Z</time></trkpt><trkpt lat="42.664497964939116" lon="12.587068787063217"><ele>796.1666666666666</ele><time>2026-05-02T12:12:35.982Z</time></trkpt><trkpt lat="42.66456482272282" lon="12.587020222790324"><ele>796.3333333333333</ele><time>2026-05-02T12:12:39.982Z</time></trkpt><trkpt lat="42.664650071325305" lon="12.586954977911391"><ele>796.5</ele><time>2026-05-02T12:12:54.982Z</time></trkpt><trkpt lat="42.66472091839737" lon="12.586876560474542"><ele>796.6666666666667</ele><time>2026-05-02T12:12:56.982Z</time></trkpt><trkpt lat="42.66478685556556" lon="12.586825202273392"><ele>796.8333333333334</ele><time>2026-05-02T12:12:58.982Z</time></trkpt><trkpt lat="42.6648674189394" lon="12.586868057826884"><ele>797.0</ele><time>2026-05-02T12:13:00.982Z</time></trkpt><trkpt lat="42.66493713561139" lon="12.58700383948667"><ele>797.0000000000001</ele><time>2026-05-02T12:13:02.982Z</time></trkpt><trkpt lat="42.66498608580235" lon="12.58710213273944"><ele>797.0</ele><time>2026-05-02T12:13:03.982Z</time></trkpt><trkpt lat="42.66502197915566" lon="12.587207389814198"><ele>797.0</ele><time>2026-05-02T12:13:04.982Z</time></trkpt><trkpt lat="42.66504887759154" lon="12.587287435974327"><ele>797.0</ele><time>2026-05-02T12:13:05.982Z</time></trkpt><trkpt lat="42.66507971176521" lon="12.587385607267308"><ele>797.0000000000001</ele><time>2026-05-02T12:13:06.982Z</time></trkpt><trkpt lat="42.66510079616079" lon="12.58747126342448"><ele>797.0</ele><time>2026-05-02T12:13:07.982Z</time></trkpt><trkpt lat="42.66514171809112" lon="12.587564142668517"><ele>797.0000000000001</ele><time>2026-05-02T12:13:08.982Z</time></trkpt><trkpt lat="42.66518638523102" lon="12.5876517727548"><ele>797.0</ele><time>2026-05-02T12:13:09.982Z</time></trkpt><trkpt lat="42.66522322087797" lon="12.58773808003378"><ele>797.0</ele><time>2026-05-02T12:13:10.982Z</time></trkpt><trkpt lat="42.66527748958297" lon="12.587818760368034"><ele>797.0</ele><time>2026-05-02T12:13:11.982Z</time></trkpt><trkpt lat="42.66532886653061" lon="12.58789677062975"><ele>797.0000000000001</ele><time>2026-05-02T12:13:12.982Z</time></trkpt><trkpt lat="42.66538419218082" lon="12.587975773505791"><ele>797.0</ele><time>2026-05-02T12:13:13.982Z</time></trkpt><trkpt lat="42.665453159938124" lon="12.588055702310966"><ele>795.5000000000001</ele><time>2026-05-02T12:13:14.982Z</time></trkpt><trkpt lat="42.665511135501994" lon="12.588143590300287"><ele>794.0</ele><time>2026-05-02T12:13:15.982Z</time></trkpt><trkpt lat="42.66556245316207" lon="12.588239090854477"><ele>792.5</ele><time>2026-05-02T12:13:16.982Z</time></trkpt><trkpt lat="42.665592340399726" lon="12.588317681340994"><ele>791.0</ele><time>2026-05-02T12:13:17.982Z</time></trkpt><trkpt lat="42.66562359312839" lon="12.588402715288222"><ele>789.5000000000001</ele><time>2026-05-02T12:13:18.982Z</time></trkpt><trkpt lat="42.665685755499226" lon="12.588553489397277"><ele>788.0</ele><time>2026-05-02T12:13:20.982Z</time></trkpt><trkpt lat="42.66573236395126" lon="12.588630142731068"><ele>787.3333333333334</ele><time>2026-05-02T12:13:21.982Z</time></trkpt><trkpt lat="42.665783337727916" lon="12.58869721302819"><ele>786.6666666666667</ele><time>2026-05-02T12:13:22.982Z</time></trkpt><trkpt lat="42.66583595816569" lon="12.58874966656205"><ele>786.0</ele><time>2026-05-02T12:13:23.982Z</time></trkpt><trkpt lat="42.66590296062045" lon="12.588801717567732"><ele>785.3333333333333</ele><time>2026-05-02T12:13:24.982Z</time></trkpt><trkpt lat="42.665958452586075" lon="12.58885630053412"><ele>784.6666666666666</ele><time>2026-05-02T12:13:25.982Z</time></trkpt><trkpt lat="42.666040804857886" lon="12.588952113561925"><ele>784.0</ele><time>2026-05-02T12:13:27.982Z</time></trkpt><trkpt lat="42.66609792748991" lon="12.588992218914237"><ele>783.1428571428571</ele><time>2026-05-02T12:13:28.982Z</time></trkpt><trkpt lat="42.66615807549636" lon="12.589041144078061"><ele>782.2857142857142</ele><time>2026-05-02T12:13:29.982Z</time></trkpt><trkpt lat="42.666208215162854" lon="12.589096490660129"><ele>781.4285714285714</ele><time>2026-05-02T12:13:30.982Z</time></trkpt><trkpt lat="42.66625362982376" lon="12.589158815076225"><ele>780.5714285714286</ele><time>2026-05-02T12:13:31.982Z</time></trkpt><trkpt lat="42.666306862260974" lon="12.589239914501567"><ele>779.7142857142857</ele><time>2026-05-02T12:13:32.982Z</time></trkpt><trkpt lat="42.66636463043099" lon="12.589301108097889"><ele>778.8571428571429</ele><time>2026-05-02T12:13:33.982Z</time></trkpt><trkpt lat="42.66641663859303" lon="12.589353352843881"><ele>778.0</ele><time>2026-05-02T12:13:34.982Z</time></trkpt><trkpt lat="42.666492016627146" lon="12.589454699637283"><ele>777.2</ele><time>2026-05-02T12:13:36.982Z</time></trkpt><trkpt lat="42.66656276421393" lon="12.589599537449642"><ele>776.4</ele><time>2026-05-02T12:13:38.982Z</time></trkpt><trkpt lat="42.666602635756185" lon="12.589690725953327"><ele>775.6</ele><time>2026-05-02T12:13:39.982Z</time></trkpt><trkpt lat="42.66667215181276" lon="12.58975251164009"><ele>774.8000000000001</ele><time>2026-05-02T12:13:40.982Z</time></trkpt><trkpt lat="42.666746153075316" lon="12.589807202638257"><ele>774.0</ele><time>2026-05-02T12:13:41.982Z</time></trkpt><trkpt lat="42.66682396840845" lon="12.589857792397341"><ele>774.0</ele><time>2026-05-02T12:13:42.982Z</time></trkpt><trkpt lat="42.66688255637675" lon="12.589901747385218"><ele>774.0</ele><time>2026-05-02T12:13:43.982Z</time></trkpt><trkpt lat="42.66694607534471" lon="12.589945293157404"><ele>774.0</ele><time>2026-05-02T12:13:44.982Z</time></trkpt><trkpt lat="42.667004824606984" lon="12.589993598187853"><ele>774.0</ele><time>2026-05-02T12:13:45.982Z</time></trkpt><trkpt lat="42.667070441349054" lon="12.590043079689254"><ele>774.0</ele><time>2026-05-02T12:13:46.982Z</time></trkpt><trkpt lat="42.667149149915225" lon="12.590067240363295"><ele>774.0</ele><time>2026-05-02T12:13:47.982Z</time></trkpt><trkpt lat="42.66725480677901" lon="12.590071248853159"><ele>771.2</ele><time>2026-05-02T12:13:49.982Z</time></trkpt><trkpt lat="42.66737426842318" lon="12.590077258416486"><ele>768.4000000000001</ele><time>2026-05-02T12:13:51.982Z</time></trkpt><trkpt lat="42.667494715784684" lon="12.590087189614165"><ele>765.6</ele><time>2026-05-02T12:13:53.981Z</time></trkpt><trkpt lat="42.6675628495188" lon="12.590102267397738"><ele>762.8</ele><time>2026-05-02T12:13:54.981Z</time></trkpt><trkpt lat="42.667687820185854" lon="12.590118866669052"><ele>760.0</ele><time>2026-05-02T12:13:56.981Z</time></trkpt><trkpt lat="42.66776255495538" lon="12.590130005668614"><ele>757.8</ele><time>2026-05-02T12:13:57.981Z</time></trkpt><trkpt lat="42.66787125086788" lon="12.59015304393624"><ele>755.6</ele><time>2026-05-02T12:13:59.981Z</time></trkpt><trkpt lat="42.66798460358478" lon="12.59016824428314"><ele>753.4000000000001</ele><time>2026-05-02T12:14:01.981Z</time></trkpt><trkpt lat="42.668048104406026" lon="12.590183219920833"><ele>751.2</ele><time>2026-05-02T12:14:02.981Z</time></trkpt><trkpt lat="42.66814098091853" lon="12.590190399983248"><ele>749.0</ele><time>2026-05-02T12:14:04.981Z</time></trkpt><trkpt lat="42.66822946098879" lon="12.590207077098423"><ele>749.0</ele><time>2026-05-02T12:14:06.981Z</time></trkpt><trkpt lat="42.66830260813234" lon="12.59021283456404"><ele>749.0</ele><time>2026-05-02T12:14:08.981Z</time></trkpt><trkpt lat="42.668373883093786" lon="12.590247796851092"><ele>749.0</ele><time>2026-05-02T12:14:10.981Z</time></trkpt><trkpt lat="42.668498606895895" lon="12.590251170630626"><ele>749.0</ele><time>2026-05-02T12:14:12.981Z</time></trkpt><trkpt lat="42.668564149257406" lon="12.59024556561546"><ele>749.0</ele><time>2026-05-02T12:14:13.981Z</time></trkpt><trkpt lat="42.66866413634729" lon="12.590252385161428"><ele>749.0</ele><time>2026-05-02T12:14:15.981Z</time></trkpt><trkpt lat="42.6687789399558" lon="12.590249338076955"><ele>746.1666666666666</ele><time>2026-05-02T12:14:17.981Z</time></trkpt><trkpt lat="42.66885788780098" lon="12.590257892353685"><ele>743.3333333333333</ele><time>2026-05-02T12:14:19.981Z</time></trkpt><trkpt lat="42.6689219683486" lon="12.590281353935737"><ele>740.5</ele><time>2026-05-02T12:14:21.981Z</time></trkpt><trkpt lat="42.66901064790682" lon="12.5902878481292"><ele>737.6666666666666</ele><time>2026-05-02T12:14:23.981Z</time></trkpt><trkpt lat="42.66911386291524" lon="12.590278376580883"><ele>734.8333333333334</ele><time>2026-05-02T12:14:25.981Z</time></trkpt><trkpt lat="42.66919408867724" lon="12.590241624325786"><ele>732.0</ele><time>2026-05-02T12:14:27.981Z</time></trkpt><trkpt lat="42.669281051342026" lon="12.590228248734121"><ele>732.0</ele><time>2026-05-02T12:14:29.981Z</time></trkpt><trkpt lat="42.66936291837364" lon="12.590193890661759"><ele>732.0</ele><time>2026-05-02T12:14:32.981Z</time></trkpt><trkpt lat="42.66942948918942" lon="12.590164373174662"><ele>732.0</ele><time>2026-05-02T12:14:34.981Z</time></trkpt><trkpt lat="42.66951659630838" lon="12.590118979954639"><ele>732.0</ele><time>2026-05-02T12:14:36.981Z</time></trkpt><trkpt lat="42.66961517633255" lon="12.590116742831574"><ele>732.0</ele><time>2026-05-02T12:14:38.981Z</time></trkpt><trkpt lat="42.66971981186277" lon="12.590078689010854"><ele>726.0</ele><time>2026-05-02T12:14:40.981Z</time></trkpt><trkpt lat="42.669818048805226" lon="12.59003644957579"><ele>720.0</ele><time>2026-05-02T12:14:42.981Z</time></trkpt><trkpt lat="42.66991457100125" lon="12.590000338350006"><ele>714.0</ele><time>2026-05-02T12:14:44.981Z</time></trkpt><trkpt lat="42.67000924635096" lon="12.589963756520484"><ele>708.0</ele><time>2026-05-02T12:14:46.981Z</time></trkpt><trkpt lat="42.67007289493475" lon="12.589945920189585"><ele>702.0</ele><time>2026-05-02T12:14:47.981Z</time></trkpt><trkpt lat="42.67015583383202" lon="12.589902533763965"><ele>702.0</ele><time>2026-05-02T12:14:49.981Z</time></trkpt><trkpt lat="42.67024567505981" lon="12.589852205266046"><ele>702.0</ele><time>2026-05-02T12:14:51.981Z</time></trkpt><trkpt lat="42.67034412232577" lon="12.58980707792399"><ele>702.0</ele><time>2026-05-02T12:14:53.981Z</time></trkpt><trkpt lat="42.670428449773674" lon="12.58973368042649"><ele>702.0</ele><time>2026-05-02T12:14:55.981Z</time></trkpt><trkpt lat="42.67050360266711" lon="12.589675492024577"><ele>702.0</ele><time>2026-05-02T12:14:57.981Z</time></trkpt><trkpt lat="42.670590690693395" lon="12.589610947271511"><ele>699.3333333333334</ele><time>2026-05-02T12:14:59.981Z</time></trkpt><trkpt lat="42.67065579312589" lon="12.589562892445946"><ele>696.6666666666666</ele><time>2026-05-02T12:15:01.981Z</time></trkpt><trkpt lat="42.67070087726434" lon="12.589485264147356"><ele>694.0</ele><time>2026-05-02T12:15:03.981Z</time></trkpt><trkpt lat="42.670728095957415" lon="12.589403119376504"><ele>691.3333333333333</ele><time>2026-05-02T12:15:05.981Z</time></trkpt><trkpt lat="42.67077931812718" lon="12.589300008480057"><ele>688.6666666666666</ele><time>2026-05-02T12:15:08.981Z</time></trkpt><trkpt lat="42.6707971078561" lon="12.589174729407445"><ele>686.0</ele><time>2026-05-02T12:15:11.981Z</time></trkpt><trkpt lat="42.67081757614114" lon="12.589084726378662"><ele>684.4285714285714</ele><time>2026-05-02T12:15:13.981Z</time></trkpt><trkpt lat="42.6708265881496" lon="12.588990410530306"><ele>682.8571428571429</ele><time>2026-05-02T12:15:15.981Z</time></trkpt><trkpt lat="42.67086689690284" lon="12.588898778465834"><ele>681.2857142857142</ele><time>2026-05-02T12:15:17.981Z</time></trkpt><trkpt lat="42.67091845390906" lon="12.58881148185458"><ele>679.7142857142858</ele><time>2026-05-02T12:15:19.981Z</time></trkpt><trkpt lat="42.67098688567089" lon="12.588759474565524"><ele>678.1428571428571</ele><time>2026-05-02T12:15:22.981Z</time></trkpt><trkpt lat="42.67104847773666" lon="12.588720368231039"><ele>676.5714285714286</ele><time>2026-05-02T12:15:26.98Z</time></trkpt><trkpt lat="42.67109179985055" lon="12.588657933958984"><ele>675.0</ele><time>2026-05-02T12:15:39.98Z</time></trkpt><trkpt lat="42.671159296928124" lon="12.588638559379625"><ele>672.8</ele><time>2026-05-02T12:15:54.98Z</time></trkpt><trkpt lat="42.67124182093859" lon="12.588623610031181"><ele>670.6</ele><time>2026-05-02T12:17:49.979Z</time></trkpt><trkpt lat="42.67132103285308" lon="12.588707455102474"><ele>668.4000000000001</ele><time>2026-05-02T12:17:51.979Z</time></trkpt><trkpt lat="42.67142190400058" lon="12.588839142044971"><ele>666.2</ele><time>2026-05-02T12:17:53.979Z</time></trkpt><trkpt lat="42.67151319337087" lon="12.588841259237881"><ele>664.0</ele><time>2026-05-02T12:17:54.979Z</time></trkpt><trkpt lat="42.67158675870204" lon="12.58883080555871"><ele>664.0</ele><time>2026-05-02T12:17:55.979Z</time></trkpt><trkpt lat="42.67165414056725" lon="12.588822868350938"><ele>664.0</ele><time>2026-05-02T12:17:56.979Z</time></trkpt><trkpt lat="42.671778348305246" lon="12.588856830601276"><ele>664.0</ele><time>2026-05-02T12:17:58.979Z</time></trkpt><trkpt lat="42.67183847735419" lon="12.588909966874123"><ele>664.0</ele><time>2026-05-02T12:17:59.979Z</time></trkpt><trkpt lat="42.67190945731915" lon="12.588972513160066"><ele>664.0</ele><time>2026-05-02T12:18:00.979Z</time></trkpt><trkpt lat="42.67196655661558" lon="12.589061559982397"><ele>664.0</ele><time>2026-05-02T12:18:01.979Z</time></trkpt><trkpt lat="42.6720306323749" lon="12.58915232301606"><ele>661.8000000000001</ele><time>2026-05-02T12:18:02.979Z</time></trkpt><trkpt lat="42.672089769173084" lon="12.5892514749295"><ele>659.6</ele><time>2026-05-02T12:18:03.979Z</time></trkpt><trkpt lat="42.67216941645065" lon="12.589326762086804"><ele>657.4</ele><time>2026-05-02T12:18:04.979Z</time></trkpt><trkpt lat="42.67226265651872" lon="12.589390059235544"><ele>655.2</ele><time>2026-05-02T12:18:05.979Z</time></trkpt><trkpt lat="42.67236764982869" lon="12.589434373780525"><ele>653.0</ele><time>2026-05-02T12:18:06.979Z</time></trkpt><trkpt lat="42.672466024226686" lon="12.589448058929625"><ele>653.0</ele><time>2026-05-02T12:18:07.979Z</time></trkpt><trkpt lat="42.67256576214251" lon="12.589455913081041"><ele>653.0</ele><time>2026-05-02T12:18:08.979Z</time></trkpt><trkpt lat="42.67267031565205" lon="12.589448887172326"><ele>653.0</ele><time>2026-05-02T12:18:09.979Z</time></trkpt><trkpt lat="42.6727705368539" lon="12.589467705431334"><ele>653.0</ele><time>2026-05-02T12:18:10.979Z</time></trkpt><trkpt lat="42.67286455999155" lon="12.589493809786271"><ele>653.0</ele><time>2026-05-02T12:18:11.979Z</time></trkpt><trkpt lat="42.672951970550656" lon="12.589508755805854"><ele>656.4</ele><time>2026-05-02T12:18:12.979Z</time></trkpt><trkpt lat="42.673041454645656" lon="12.589516227067147"><ele>659.8</ele><time>2026-05-02T12:18:13.979Z</time></trkpt><trkpt lat="42.67314273515161" lon="12.589553544554386"><ele>663.2</ele><time>2026-05-02T12:18:14.979Z</time></trkpt><trkpt lat="42.67325268558028" lon="12.589564763464946"><ele>666.6</ele><time>2026-05-02T12:18:15.979Z</time></trkpt><trkpt lat="42.67336670545611" lon="12.589553037203137"><ele>670.0</ele><time>2026-05-02T12:18:16.979Z</time></trkpt><trkpt lat="42.67346857714474" lon="12.589584725930086"><ele>670.0</ele><time>2026-05-02T12:18:17.979Z</time></trkpt><trkpt lat="42.67356751334754" lon="12.589639139177091"><ele>670.0</ele><time>2026-05-02T12:18:18.979Z</time></trkpt><trkpt lat="42.67368459960229" lon="12.589680855649942"><ele>670.0</ele><time>2026-05-02T12:18:19.979Z</time></trkpt><trkpt lat="42.67378883453786" lon="12.589752639465871"><ele>670.0</ele><time>2026-05-02T12:18:20.979Z</time></trkpt><trkpt lat="42.673873969480304" lon="12.589854923010634"><ele>667.6</ele><time>2026-05-02T12:18:21.979Z</time></trkpt><trkpt lat="42.67392077655953" lon="12.589962105563572"><ele>665.2</ele><time>2026-05-02T12:18:22.979Z</time></trkpt><trkpt lat="42.67396701222476" lon="12.590054167054364"><ele>662.8</ele><time>2026-05-02T12:18:23.979Z</time></trkpt><trkpt lat="42.6740258783598" lon="12.59016593585634"><ele>660.4</ele><time>2026-05-02T12:18:24.978Z</time></trkpt><trkpt lat="42.67407701717078" lon="12.590294654795251"><ele>658.0</ele><time>2026-05-02T12:18:25.978Z</time></trkpt><trkpt lat="42.674134253163224" lon="12.590447444535833"><ele>658.0</ele><time>2026-05-02T12:18:26.978Z</time></trkpt><trkpt lat="42.67419420909952" lon="12.590597733554452"><ele>658.0</ele><time>2026-05-02T12:18:27.979Z</time></trkpt><trkpt lat="42.674255064008804" lon="12.590754494307237"><ele>658.0</ele><time>2026-05-02T12:18:28.978Z</time></trkpt><trkpt lat="42.67431068971179" lon="12.590912687314905"><ele>658.0</ele><time>2026-05-02T12:18:29.978Z</time></trkpt><trkpt lat="42.674351113282064" lon="12.59106891371159"><ele>660.5999999999999</ele><time>2026-05-02T12:18:30.979Z</time></trkpt><trkpt lat="42.67439112048891" lon="12.591218074248976"><ele>663.1999999999999</ele><time>2026-05-02T12:18:31.978Z</time></trkpt><trkpt lat="42.674424433392986" lon="12.59134852409707"><ele>665.8</ele><time>2026-05-02T12:18:32.978Z</time></trkpt><trkpt lat="42.67445649000191" lon="12.59147803518337"><ele>668.4</ele><time>2026-05-02T12:18:33.979Z</time></trkpt><trkpt lat="42.674493434040926" lon="12.591611231693788"><ele>671.0</ele><time>2026-05-02T12:18:34.979Z</time></trkpt><trkpt lat="42.674513765477506" lon="12.591773543149174"><ele>660.25</ele><time>2026-05-02T12:18:35.979Z</time></trkpt><trkpt lat="42.674529718388925" lon="12.591940491303717"><ele>649.5</ele><time>2026-05-02T12:18:36.979Z</time></trkpt><trkpt lat="42.67453673365187" lon="12.592120504093872"><ele>638.75</ele><time>2026-05-02T12:18:37.979Z</time></trkpt><trkpt lat="42.67454233107179" lon="12.592321026205873"><ele>628.0</ele><time>2026-05-02T12:18:38.979Z</time></trkpt><trkpt lat="42.67457447143475" lon="12.592523972147408"><ele>628.0</ele><time>2026-05-02T12:18:39.979Z</time></trkpt><trkpt lat="42.67461810227904" lon="12.592711992181123"><ele>628.0</ele><time>2026-05-02T12:18:40.979Z</time></trkpt><trkpt lat="42.67465976721582" lon="12.592898967895875"><ele>628.0</ele><time>2026-05-02T12:18:41.979Z</time></trkpt><trkpt lat="42.67469671233244" lon="12.593069213691155"><ele>628.0</ele><time>2026-05-02T12:18:42.979Z</time></trkpt><trkpt lat="42.67473500954593" lon="12.59322998295694"><ele>630.0</ele><time>2026-05-02T12:18:43.979Z</time></trkpt><trkpt lat="42.67478184629595" lon="12.593383765153968"><ele>632.0</ele><time>2026-05-02T12:18:44.979Z</time></trkpt><trkpt lat="42.67486307842927" lon="12.593521364405428"><ele>634.0</ele><time>2026-05-02T12:18:45.979Z</time></trkpt><trkpt lat="42.67494784179286" lon="12.593638769783425"><ele>636.0</ele><time>2026-05-02T12:18:46.979Z</time></trkpt><trkpt lat="42.675027376967435" lon="12.593758559852999"><ele>639.25</ele><time>2026-05-02T12:18:47.979Z</time></trkpt><trkpt lat="42.67508695147861" lon="12.593891061161022"><ele>642.5</ele><time>2026-05-02T12:18:48.979Z</time></trkpt><trkpt lat="42.67513332532964" lon="12.594051430854822"><ele>645.75</ele><time>2026-05-02T12:18:49.979Z</time></trkpt><trkpt lat="42.67514914547633" lon="12.594232619795402"><ele>649.0</ele><time>2026-05-02T12:18:50.979Z</time></trkpt><trkpt lat="42.67516838209813" lon="12.594432208492636"><ele>651.25</ele><time>2026-05-02T12:18:51.979Z</time></trkpt><trkpt lat="42.67519290054793" lon="12.594624836525576"><ele>653.5</ele><time>2026-05-02T12:18:52.979Z</time></trkpt><trkpt lat="42.67521395245753" lon="12.59482307304185"><ele>655.75</ele><time>2026-05-02T12:18:53.979Z</time></trkpt><trkpt lat="42.67523708762926" lon="12.595016162232467"><ele>658.0</ele><time>2026-05-02T12:18:54.979Z</time></trkpt><trkpt lat="42.67525702786206" lon="12.59518841551666"><ele>658.25</ele><time>2026-05-02T12:18:55.979Z</time></trkpt><trkpt lat="42.67526648062451" lon="12.595349081965976"><ele>658.5</ele><time>2026-05-02T12:18:56.979Z</time></trkpt><trkpt lat="42.675273007011675" lon="12.595504791758641"><ele>658.75</ele><time>2026-05-02T12:18:57.979Z</time></trkpt><trkpt lat="42.67529246367367" lon="12.595659821616406"><ele>659.0</ele><time>2026-05-02T12:18:58.979Z</time></trkpt><trkpt lat="42.67530191800634" lon="12.595818697294357"><ele>656.5</ele><time>2026-05-02T12:18:59.979Z</time></trkpt><trkpt lat="42.67529863326327" lon="12.595984130052383"><ele>654.0</ele><time>2026-05-02T12:19:00.979Z</time></trkpt><trkpt lat="42.67527449077014" lon="12.596157114201354"><ele>651.5</ele><time>2026-05-02T12:19:01.979Z</time></trkpt><trkpt lat="42.6752549171703" lon="12.59632409269252"><ele>649.0</ele><time>2026-05-02T12:19:02.979Z</time></trkpt><trkpt lat="42.67524704139495" lon="12.596480672551225"><ele>649.0</ele><time>2026-05-02T12:19:03.978Z</time></trkpt><trkpt lat="42.67523687130939" lon="12.596633615224578"><ele>649.0</ele><time>2026-05-02T12:19:04.978Z</time></trkpt><trkpt lat="42.67522695610373" lon="12.596769530368404"><ele>649.0</ele><time>2026-05-02T12:19:05.978Z</time></trkpt><trkpt lat="42.67519929833713" lon="12.596899520021378"><ele>649.0</ele><time>2026-05-02T12:19:06.978Z</time></trkpt><trkpt lat="42.675157092428606" lon="12.597031700372645"><ele>649.0</ele><time>2026-05-02T12:19:07.978Z</time></trkpt><trkpt lat="42.67509537668369" lon="12.597155301745925"><ele>647.0</ele><time>2026-05-02T12:19:08.978Z</time></trkpt><trkpt lat="42.67502708767876" lon="12.597267363066623"><ele>645.0</ele><time>2026-05-02T12:19:09.978Z</time></trkpt><trkpt lat="42.674956535972356" lon="12.597372069405097"><ele>643.0</ele><time>2026-05-02T12:19:10.978Z</time></trkpt><trkpt lat="42.67490482863345" lon="12.597474453940833"><ele>641.0</ele><time>2026-05-02T12:19:11.978Z</time></trkpt><trkpt lat="42.67489069764478" lon="12.597577857189869"><ele>639.0</ele><time>2026-05-02T12:19:12.978Z</time></trkpt><trkpt lat="42.674919856911835" lon="12.597676311267124"><ele>639.0</ele><time>2026-05-02T12:19:13.978Z</time></trkpt><trkpt lat="42.67497697915149" lon="12.59775185785282"><ele>639.0</ele><time>2026-05-02T12:19:14.978Z</time></trkpt><trkpt lat="42.675072273626874" lon="12.597821423373178"><ele>639.0</ele><time>2026-05-02T12:19:15.978Z</time></trkpt><trkpt lat="42.67516357147525" lon="12.597890674235677"><ele>639.0</ele><time>2026-05-02T12:19:16.978Z</time></trkpt><trkpt lat="42.67525313413435" lon="12.597971819481582"><ele>639.0</ele><time>2026-05-02T12:19:17.978Z</time></trkpt><trkpt lat="42.675333372014705" lon="12.598063902241808"><ele>634.0</ele><time>2026-05-02T12:19:18.978Z</time></trkpt><trkpt lat="42.67540836784754" lon="12.598166931122952"><ele>629.0</ele><time>2026-05-02T12:19:19.978Z</time></trkpt><trkpt lat="42.675483069001245" lon="12.598277567563331"><ele>624.0</ele><time>2026-05-02T12:19:20.978Z</time></trkpt><trkpt lat="42.67554136841977" lon="12.598392589704368"><ele>619.0</ele><time>2026-05-02T12:19:21.978Z</time></trkpt><trkpt lat="42.6755811162637" lon="12.598557195870358"><ele>614.0</ele><time>2026-05-02T12:19:22.978Z</time></trkpt><trkpt lat="42.67563635151943" lon="12.598717630022879"><ele>614.0</ele><time>2026-05-02T12:19:23.978Z</time></trkpt><trkpt lat="42.67569025920449" lon="12.598859262660831"><ele>614.0</ele><time>2026-05-02T12:19:24.978Z</time></trkpt><trkpt lat="42.67573384402662" lon="12.598993862192987"><ele>614.0</ele><time>2026-05-02T12:19:25.978Z</time></trkpt><trkpt lat="42.675784963792694" lon="12.5990976739256"><ele>614.0</ele><time>2026-05-02T12:19:26.978Z</time></trkpt><trkpt lat="42.67580417171987" lon="12.599195264089282"><ele>614.0</ele><time>2026-05-02T12:19:27.978Z</time></trkpt><trkpt lat="42.675776211447456" lon="12.599286483311833"><ele>614.0</ele><time>2026-05-02T12:19:28.978Z</time></trkpt><trkpt lat="42.6757064660984" lon="12.5993870523219"><ele>614.0</ele><time>2026-05-02T12:19:29.978Z</time></trkpt><trkpt lat="42.675614047843084" lon="12.599450228945573"><ele>614.0</ele><time>2026-05-02T12:19:30.978Z</time></trkpt><trkpt lat="42.675511917837454" lon="12.59948904863668"><ele>614.0</ele><time>2026-05-02T12:19:31.978Z</time></trkpt><trkpt lat="42.67541102722107" lon="12.599528957434975"><ele>614.0</ele><time>2026-05-02T12:19:32.978Z</time></trkpt><trkpt lat="42.675324929499816" lon="12.599552443411095"><ele>615.6</ele><time>2026-05-02T12:19:33.978Z</time></trkpt><trkpt lat="42.675242203043716" lon="12.599536580293476"><ele>617.2</ele><time>2026-05-02T12:19:34.978Z</time></trkpt><trkpt lat="42.67516030101393" lon="12.599478513081502"><ele>618.8000000000001</ele><time>2026-05-02T12:19:35.978Z</time></trkpt><trkpt lat="42.67507503344934" lon="12.599364133798709"><ele>620.4</ele><time>2026-05-02T12:19:36.978Z</time></trkpt><trkpt lat="42.674990947973164" lon="12.599260294100366"><ele>622.0</ele><time>2026-05-02T12:19:37.978Z</time></trkpt><trkpt lat="42.6748847577552" lon="12.59916811454877"><ele>622.0</ele><time>2026-05-02T12:19:38.978Z</time></trkpt><trkpt lat="42.67475765993283" lon="12.599104165420936"><ele>622.0</ele><time>2026-05-02T12:19:39.978Z</time></trkpt><trkpt lat="42.67463586083652" lon="12.599050683649285"><ele>622.0</ele><time>2026-05-02T12:19:40.978Z</time></trkpt><trkpt lat="42.674515219822496" lon="12.599000510994477"><ele>622.0</ele><time>2026-05-02T12:19:41.978Z</time></trkpt><trkpt lat="42.67439290080687" lon="12.598945247150073"><ele>618.0</ele><time>2026-05-02T12:19:42.978Z</time></trkpt><trkpt lat="42.67426168614657" lon="12.598901409734086"><ele>614.0</ele><time>2026-05-02T12:19:43.978Z</time></trkpt><trkpt lat="42.674129427442665" lon="12.598858887640056"><ele>610.0</ele><time>2026-05-02T12:19:44.978Z</time></trkpt><trkpt lat="42.67399853586081" lon="12.598822080938874"><ele>606.0</ele><time>2026-05-02T12:19:45.978Z</time></trkpt><trkpt lat="42.67387791226523" lon="12.598776141459297"><ele>606.0</ele><time>2026-05-02T12:19:46.978Z</time></trkpt><trkpt lat="42.67375027381657" lon="12.598746117021957"><ele>606.0</ele><time>2026-05-02T12:19:47.978Z</time></trkpt><trkpt lat="42.67361609161538" lon="12.598744099806407"><ele>606.0</ele><time>2026-05-02T12:19:48.978Z</time></trkpt><trkpt lat="42.673476544884025" lon="12.598772825522673"><ele>606.0</ele><time>2026-05-02T12:19:49.978Z</time></trkpt><trkpt lat="42.67334370255506" lon="12.598842736743961"><ele>607.0</ele><time>2026-05-02T12:19:50.978Z</time></trkpt><trkpt lat="42.67319912766637" lon="12.59890770110496"><ele>608.0</ele><time>2026-05-02T12:19:51.978Z</time></trkpt><trkpt lat="42.67304803774644" lon="12.598989615188207"><ele>609.0</ele><time>2026-05-02T12:19:52.978Z</time></trkpt><trkpt lat="42.67291340701099" lon="12.599091855263072"><ele>609.0</ele><time>2026-05-02T12:19:53.978Z</time></trkpt><trkpt lat="42.67278337361732" lon="12.599198682929185"><ele>609.0</ele><time>2026-05-02T12:19:54.978Z</time></trkpt><trkpt lat="42.672661463938596" lon="12.599321519340114"><ele>609.0</ele><time>2026-05-02T12:19:55.978Z</time></trkpt><trkpt lat="42.67254627832264" lon="12.599441524772564"><ele>609.0</ele><time>2026-05-02T12:19:56.978Z</time></trkpt><trkpt lat="42.67244039569144" lon="12.599570990815126"><ele>606.75</ele><time>2026-05-02T12:19:57.978Z</time></trkpt><trkpt lat="42.67234117150875" lon="12.599700858839615"><ele>604.5</ele><time>2026-05-02T12:19:58.978Z</time></trkpt><trkpt lat="42.6722543601145" lon="12.599846079237617"><ele>602.25</ele><time>2026-05-02T12:19:59.978Z</time></trkpt><trkpt lat="42.672174283258464" lon="12.599992090509645"><ele>600.0</ele><time>2026-05-02T12:20:00.978Z</time></trkpt><trkpt lat="42.67210137965956" lon="12.600129615323008"><ele>600.0</ele><time>2026-05-02T12:20:01.978Z</time></trkpt><trkpt lat="42.67204456503339" lon="12.60026760259299"><ele>600.0</ele><time>2026-05-02T12:20:02.978Z</time></trkpt><trkpt lat="42.67198863122686" lon="12.600389299099055"><ele>600.0</ele><time>2026-05-02T12:20:03.978Z</time></trkpt><trkpt lat="42.671937515628734" lon="12.600504118709503"><ele>600.0</ele><time>2026-05-02T12:20:04.978Z</time></trkpt><trkpt lat="42.67187871042668" lon="12.600592539704195"><ele>600.0</ele><time>2026-05-02T12:20:05.978Z</time></trkpt><trkpt lat="42.67180093011613" lon="12.600659060688757"><ele>599.25</ele><time>2026-05-02T12:20:06.978Z</time></trkpt><trkpt lat="42.671695544425965" lon="12.60067928885411"><ele>598.5</ele><time>2026-05-02T12:20:07.978Z</time></trkpt><trkpt lat="42.67157141109824" lon="12.600665667418719"><ele>597.75</ele><time>2026-05-02T12:20:08.978Z</time></trkpt><trkpt lat="42.6714425139043" lon="12.600641736704212"><ele>597.0</ele><time>2026-05-02T12:20:09.978Z</time></trkpt><trkpt lat="42.671312370235114" lon="12.600623115235008"><ele>597.0</ele><time>2026-05-02T12:20:10.978Z</time></trkpt><trkpt lat="42.671179277142805" lon="12.600589540886274"><ele>597.0</ele><time>2026-05-02T12:20:11.978Z</time></trkpt><trkpt lat="42.6710386415157" lon="12.600575562703751"><ele>597.0</ele><time>2026-05-02T12:20:12.977Z</time></trkpt><trkpt lat="42.67090782028489" lon="12.600565574721323"><ele>597.0</ele><time>2026-05-02T12:20:13.977Z</time></trkpt><trkpt lat="42.67078411972947" lon="12.600544566269845"><ele>596.4</ele><time>2026-05-02T12:20:14.977Z</time></trkpt><trkpt lat="42.67067049139989" lon="12.600546033531197"><ele>595.8000000000001</ele><time>2026-05-02T12:20:15.977Z</time></trkpt><trkpt lat="42.670569582684536" lon="12.60053068194169"><ele>595.2</ele><time>2026-05-02T12:20:16.977Z</time></trkpt><trkpt lat="42.67049965561217" lon="12.600448909651378"><ele>594.6</ele><time>2026-05-02T12:20:17.977Z</time></trkpt><trkpt lat="42.67043383926665" lon="12.600372204688714"><ele>594.0</ele><time>2026-05-02T12:20:18.977Z</time></trkpt><trkpt lat="42.67037649723975" lon="12.60031564029887"><ele>594.4</ele><time>2026-05-02T12:20:19.977Z</time></trkpt><trkpt lat="42.670309135365905" lon="12.600300688014396"><ele>594.8</ele><time>2026-05-02T12:20:20.977Z</time></trkpt><trkpt lat="42.6702210010451" lon="12.600297027355383"><ele>595.2</ele><time>2026-05-02T12:20:21.977Z</time></trkpt><trkpt lat="42.670121560138824" lon="12.600362623290874"><ele>595.6</ele><time>2026-05-02T12:20:22.977Z</time></trkpt><trkpt lat="42.67002854695992" lon="12.600466363447659"><ele>596.0</ele><time>2026-05-02T12:20:23.977Z</time></trkpt><trkpt lat="42.669933891178715" lon="12.600583905259288"><ele>596.0</ele><time>2026-05-02T12:20:24.977Z</time></trkpt><trkpt lat="42.66982679681435" lon="12.60070429439293"><ele>596.0</ele><time>2026-05-02T12:20:25.977Z</time></trkpt><trkpt lat="42.66971152753257" lon="12.600825555322638"><ele>596.0</ele><time>2026-05-02T12:20:26.977Z</time></trkpt><trkpt lat="42.66959930609682" lon="12.600939836405377"><ele>596.0</ele><time>2026-05-02T12:20:27.977Z</time></trkpt><trkpt lat="42.669490039476386" lon="12.60104931356881"><ele>597.25</ele><time>2026-05-02T12:20:28.977Z</time></trkpt><trkpt lat="42.669390675179976" lon="12.601148869458603"><ele>598.5</ele><time>2026-05-02T12:20:29.977Z</time></trkpt><trkpt lat="42.669289417532745" lon="12.601251702394228"><ele>599.75</ele><time>2026-05-02T12:20:30.977Z</time></trkpt><trkpt lat="42.669187719971255" lon="12.601364874875404"><ele>601.0</ele><time>2026-05-02T12:20:31.977Z</time></trkpt><trkpt lat="42.66909869444858" lon="12.601488395717677"><ele>601.0</ele><time>2026-05-02T12:20:32.977Z</time></trkpt><trkpt lat="42.66900226115424" lon="12.601647858899574"><ele>601.0</ele><time>2026-05-02T12:20:33.977Z</time></trkpt><trkpt lat="42.66891708445091" lon="12.60181230824584"><ele>601.0</ele><time>2026-05-02T12:20:34.977Z</time></trkpt><trkpt lat="42.668843263454704" lon="12.60197284738278"><ele>601.0</ele><time>2026-05-02T12:20:35.977Z</time></trkpt><trkpt lat="42.668774303718024" lon="12.60212638511764"><ele>598.75</ele><time>2026-05-02T12:20:36.977Z</time></trkpt><trkpt lat="42.66871006406858" lon="12.602266408545512"><ele>596.5</ele><time>2026-05-02T12:20:37.977Z</time></trkpt><trkpt lat="42.66863980271472" lon="12.602421304505146"><ele>594.25</ele><time>2026-05-02T12:20:38.977Z</time></trkpt><trkpt lat="42.66857460220584" lon="12.602587039311178"><ele>592.0</ele><time>2026-05-02T12:20:39.977Z</time></trkpt><trkpt lat="42.668528238750966" lon="12.602753779086562"><ele>593.6</ele><time>2026-05-02T12:20:40.977Z</time></trkpt><trkpt lat="42.66850354596977" lon="12.602917508573587"><ele>595.2</ele><time>2026-05-02T12:20:41.977Z</time></trkpt><trkpt lat="42.66846238072704" lon="12.603055196300419"><ele>596.8</ele><time>2026-05-02T12:20:42.977Z</time></trkpt><trkpt lat="42.66841997840833" lon="12.603188504835066"><ele>598.4</ele><time>2026-05-02T12:20:43.977Z</time></trkpt><trkpt lat="42.66836801946029" lon="12.603314249711211"><ele>600.0</ele><time>2026-05-02T12:20:44.977Z</time></trkpt><trkpt lat="42.66828169338107" lon="12.60339557894614"><ele>600.0</ele><time>2026-05-02T12:20:45.977Z</time></trkpt><trkpt lat="42.66819960142011" lon="12.603502116652821"><ele>600.0</ele><time>2026-05-02T12:20:46.977Z</time></trkpt><trkpt lat="42.668119078914614" lon="12.603571681672454"><ele>600.0</ele><time>2026-05-02T12:20:47.977Z</time></trkpt><trkpt lat="42.66805215522574" lon="12.603694602667597"><ele>600.0</ele><time>2026-05-02T12:20:48.977Z</time></trkpt><trkpt lat="42.66800802012065" lon="12.603847542892602"><ele>600.0</ele><time>2026-05-02T12:20:49.977Z</time></trkpt><trkpt lat="42.66800336847841" lon="12.604009438935604"><ele>599.25</ele><time>2026-05-02T12:20:50.977Z</time></trkpt><trkpt lat="42.668006425735406" lon="12.604174896567805"><ele>598.5</ele><time>2026-05-02T12:20:51.977Z</time></trkpt><trkpt lat="42.66801212435433" lon="12.604340272737918"><ele>597.75</ele><time>2026-05-02T12:20:52.977Z</time></trkpt><trkpt lat="42.66800787447623" lon="12.604485490051125"><ele>597.0</ele><time>2026-05-02T12:20:53.977Z</time></trkpt><trkpt lat="42.66797268251187" lon="12.604627323654118"><ele>597.0</ele><time>2026-05-02T12:20:54.977Z</time></trkpt><trkpt lat="42.66792452962751" lon="12.604770136999024"><ele>597.0</ele><time>2026-05-02T12:20:55.977Z</time></trkpt><trkpt lat="42.66787931589389" lon="12.604921055641709"><ele>597.0</ele><time>2026-05-02T12:20:56.977Z</time></trkpt><trkpt lat="42.667833503364825" lon="12.605061637696181"><ele>597.0</ele><time>2026-05-02T12:20:57.977Z</time></trkpt><trkpt lat="42.66777780424297" lon="12.605202718799395"><ele>598.5</ele><time>2026-05-02T12:20:58.977Z</time></trkpt><trkpt lat="42.66770087124453" lon="12.605340066328413"><ele>600.0</ele><time>2026-05-02T12:20:59.977Z</time></trkpt><trkpt lat="42.66759199973791" lon="12.605485726409658"><ele>601.5</ele><time>2026-05-02T12:21:00.977Z</time></trkpt><trkpt lat="42.66748539050645" lon="12.605637079673006"><ele>603.0</ele><time>2026-05-02T12:21:01.977Z</time></trkpt><trkpt lat="42.667367324276505" lon="12.605767619243535"><ele>603.0</ele><time>2026-05-02T12:21:02.977Z</time></trkpt><trkpt lat="42.66726623913567" lon="12.605901319417221"><ele>603.0</ele><time>2026-05-02T12:21:03.976Z</time></trkpt><trkpt lat="42.66717866805683" lon="12.606031421478622"><ele>603.0</ele><time>2026-05-02T12:21:04.976Z</time></trkpt><trkpt lat="42.66712894428206" lon="12.606196494198096"><ele>603.0</ele><time>2026-05-02T12:21:05.976Z</time></trkpt><trkpt lat="42.66706675674207" lon="12.606334946900763"><ele>602.5</ele><time>2026-05-02T12:21:06.976Z</time></trkpt><trkpt lat="42.667024472309194" lon="12.606457033733268"><ele>602.0</ele><time>2026-05-02T12:21:07.976Z</time></trkpt><trkpt lat="42.666983671984966" lon="12.606549381033165"><ele>601.5</ele><time>2026-05-02T12:21:08.976Z</time></trkpt><trkpt lat="42.66692642366169" lon="12.606614623845019"><ele>601.0</ele><time>2026-05-02T12:21:09.976Z</time></trkpt><trkpt lat="42.66684401049323" lon="12.606669837167244"><ele>600.5</ele><time>2026-05-02T12:21:10.976Z</time></trkpt><trkpt lat="42.66674639788702" lon="12.606695534618833"><ele>600.0</ele><time>2026-05-02T12:21:11.976Z</time></trkpt><trkpt lat="42.66663269334447" lon="12.606730933532656"><ele>601.75</ele><time>2026-05-02T12:21:12.976Z</time></trkpt><trkpt lat="42.66649838330236" lon="12.606773638828402"><ele>603.5</ele><time>2026-05-02T12:21:13.976Z</time></trkpt><trkpt lat="42.666359604054726" lon="12.606829380009625"><ele>605.25</ele><time>2026-05-02T12:21:14.976Z</time></trkpt><trkpt lat="42.666218186513944" lon="12.606892489053598"><ele>607.0</ele><time>2026-05-02T12:21:15.976Z</time></trkpt><trkpt lat="42.66607871578948" lon="12.606969943947478"><ele>607.3333333333334</ele><time>2026-05-02T12:21:16.976Z</time></trkpt><trkpt lat="42.665938620047825" lon="12.607035097234057"><ele>607.6666666666666</ele><time>2026-05-02T12:21:17.976Z</time></trkpt><trkpt lat="42.66579495319884" lon="12.607111714237579"><ele>608.0</ele><time>2026-05-02T12:21:18.976Z</time></trkpt><trkpt lat="42.66565743233428" lon="12.607214333531134"><ele>608.0</ele><time>2026-05-02T12:21:19.976Z</time></trkpt><trkpt lat="42.66552997395306" lon="12.60733431539037"><ele>608.0</ele><time>2026-05-02T12:21:20.976Z</time></trkpt><trkpt lat="42.66539364338167" lon="12.607473877674568"><ele>608.0</ele><time>2026-05-02T12:21:21.976Z</time></trkpt><trkpt lat="42.66523821486357" lon="12.60761202590254"><ele>610.6666666666666</ele><time>2026-05-02T12:21:22.976Z</time></trkpt><trkpt lat="42.665095441457076" lon="12.607746352369924"><ele>613.3333333333334</ele><time>2026-05-02T12:21:23.976Z</time></trkpt><trkpt lat="42.6649684425927" lon="12.607885059742284"><ele>616.0</ele><time>2026-05-02T12:21:24.976Z</time></trkpt><trkpt lat="42.66483305448019" lon="12.608012022338166"><ele>616.0</ele><time>2026-05-02T12:21:25.976Z</time></trkpt><trkpt lat="42.66469689710308" lon="12.60810034343889"><ele>616.0</ele><time>2026-05-02T12:21:26.976Z</time></trkpt><trkpt lat="42.664572133873605" lon="12.608210325879677"><ele>616.0</ele><time>2026-05-02T12:21:27.976Z</time></trkpt><trkpt lat="42.66445641246449" lon="12.608337019586596"><ele>616.0</ele><time>2026-05-02T12:21:28.976Z</time></trkpt><trkpt lat="42.66433545167684" lon="12.60843368112504"><ele>618.4</ele><time>2026-05-02T12:21:29.976Z</time></trkpt><trkpt lat="42.66421028166774" lon="12.608470875950818"><ele>620.8</ele><time>2026-05-02T12:21:30.976Z</time></trkpt><trkpt lat="42.664115703128154" lon="12.608518196364583"><ele>623.1999999999999</ele><time>2026-05-02T12:21:31.976Z</time></trkpt><trkpt lat="42.66404639101143" lon="12.608624832153328"><ele>625.6</ele><time>2026-05-02T12:21:32.976Z</time></trkpt><trkpt lat="42.66403366228209" lon="12.608769662439904"><ele>628.0</ele><time>2026-05-02T12:21:34.976Z</time></trkpt><trkpt lat="42.66406293436747" lon="12.60890890090892"><ele>628.0</ele><time>2026-05-02T12:21:35.976Z</time></trkpt><trkpt lat="42.6641204083562" lon="12.609051698345827"><ele>628.0</ele><time>2026-05-02T12:21:36.976Z</time></trkpt><trkpt lat="42.6641761131693" lon="12.609200789013721"><ele>628.0</ele><time>2026-05-02T12:21:37.976Z</time></trkpt><trkpt lat="42.6642049200966" lon="12.60931387123291"><ele>628.0</ele><time>2026-05-02T12:21:38.976Z</time></trkpt><trkpt lat="42.6642096742608" lon="12.609428118142732"><ele>628.0</ele><time>2026-05-02T12:21:39.976Z</time></trkpt><trkpt lat="42.66415830212617" lon="12.60963980806983"><ele>628.6</ele><time>2026-05-02T12:21:40.976Z</time></trkpt><trkpt lat="42.66410833239575" lon="12.60977835560442"><ele>629.1999999999999</ele><time>2026-05-02T12:21:41.976Z</time></trkpt><trkpt lat="42.66404653812396" lon="12.609912222643802"><ele>629.8</ele><time>2026-05-02T12:21:42.976Z</time></trkpt><trkpt lat="42.66397752396696" lon="12.610017001236171"><ele>630.4</ele><time>2026-05-02T12:21:43.976Z</time></trkpt><trkpt lat="42.66391439850761" lon="12.610114645302907"><ele>631.0</ele><time>2026-05-02T12:21:44.976Z</time></trkpt><trkpt lat="42.66384614191728" lon="12.6102058876973"><ele>631.0</ele><time>2026-05-02T12:21:45.976Z</time></trkpt><trkpt lat="42.663776198750895" lon="12.610278067432759"><ele>631.0</ele><time>2026-05-02T12:21:46.976Z</time></trkpt><trkpt lat="42.663723232369804" lon="12.610333837179013"><ele>631.0</ele><time>2026-05-02T12:21:47.976Z</time></trkpt><trkpt lat="42.66366662658502" lon="12.610413931111058"><ele>631.0</ele><time>2026-05-02T12:21:49.976Z</time></trkpt><trkpt lat="42.66363535311154" lon="12.610498863023533"><ele>631.0</ele><time>2026-05-02T12:24:43.975Z</time></trkpt><trkpt lat="42.66353612527228" lon="12.610516987409778"><ele>631.0</ele><time>2026-05-02T12:24:45.974Z</time></trkpt><trkpt lat="42.66347577732417" lon="12.610491737498696"><ele>631.8333333333334</ele><time>2026-05-02T12:24:46.974Z</time></trkpt><trkpt lat="42.66341454991646" lon="12.610454677133529"><ele>632.6666666666667</ele><time>2026-05-02T12:24:47.974Z</time></trkpt><trkpt lat="42.66334053158885" lon="12.610400981005863"><ele>633.5</ele><time>2026-05-02T12:24:48.974Z</time></trkpt><trkpt lat="42.66326533947304" lon="12.610327724579282"><ele>634.3333333333334</ele><time>2026-05-02T12:24:49.974Z</time></trkpt><trkpt lat="42.66319429157591" lon="12.610254365644277"><ele>635.1666666666666</ele><time>2026-05-02T12:24:50.974Z</time></trkpt><trkpt lat="42.663123261500935" lon="12.610173805065319"><ele>636.0</ele><time>2026-05-02T12:24:51.974Z</time></trkpt><trkpt lat="42.6630620538327" lon="12.610092035537749"><ele>637.0</ele><time>2026-05-02T12:24:52.974Z</time></trkpt><trkpt lat="42.663003558242345" lon="12.610008290545554"><ele>638.0</ele><time>2026-05-02T12:24:53.974Z</time></trkpt><trkpt lat="42.66294414970774" lon="12.609921618271619"><ele>639.0</ele><time>2026-05-02T12:24:54.974Z</time></trkpt><trkpt lat="42.66291772570907" lon="12.609837995826103"><ele>640.0</ele><time>2026-05-02T12:24:55.974Z</time></trkpt><trkpt lat="42.662864418481995" lon="12.609766574597428"><ele>641.0</ele><time>2026-05-02T12:24:56.974Z</time></trkpt><trkpt lat="42.6628317671771" lon="12.60969156976419"><ele>642.0</ele><time>2026-05-02T12:24:57.974Z</time></trkpt><trkpt lat="42.66279005875853" lon="12.609565511591772"><ele>642.5714285714286</ele><time>2026-05-02T12:24:59.974Z</time></trkpt><trkpt lat="42.66278624260861" lon="12.609470356357553"><ele>643.1428571428571</ele><time>2026-05-02T12:25:00.974Z</time></trkpt><trkpt lat="42.66276104707474" lon="12.609368848416254"><ele>643.7142857142858</ele><time>2026-05-02T12:25:01.974Z</time></trkpt><trkpt lat="42.66274210490186" lon="12.609270644071326"><ele>644.2857142857142</ele><time>2026-05-02T12:25:02.974Z</time></trkpt><trkpt lat="42.66270404224921" lon="12.609201806648748"><ele>644.8571428571429</ele><time>2026-05-02T12:25:03.974Z</time></trkpt><trkpt lat="42.66265485972453" lon="12.609128241980688"><ele>645.4285714285714</ele><time>2026-05-02T12:25:04.974Z</time></trkpt><trkpt lat="42.66261087158126" lon="12.609057434197712"><ele>646.0</ele><time>2026-05-02T12:25:05.974Z</time></trkpt><trkpt lat="42.66255309676075" lon="12.608933280940029"><ele>647.5</ele><time>2026-05-02T12:25:07.974Z</time></trkpt><trkpt lat="42.66248592546915" lon="12.608921805278472"><ele>649.0</ele><time>2026-05-02T12:25:12.974Z</time></trkpt><trkpt lat="42.66244188817943" lon="12.608826533264478"><ele>650.5</ele><time>2026-05-02T12:25:37.973Z</time></trkpt><trkpt lat="42.662399197511085" lon="12.60873730258876"><ele>652.0</ele><time>2026-05-02T12:25:39.973Z</time></trkpt><trkpt lat="42.662368908957646" lon="12.60862387921365"><ele>653.5</ele><time>2026-05-02T12:25:41.973Z</time></trkpt><trkpt lat="42.66233237867605" lon="12.608527255910127"><ele>655.0</ele><time>2026-05-02T12:25:43.973Z</time></trkpt><trkpt lat="42.66227388181782" lon="12.608445766514967"><ele>655.5714285714286</ele><time>2026-05-02T12:27:50.972Z</time></trkpt><trkpt lat="42.66226386774379" lon="12.60834950570752"><ele>656.1428571428571</ele><time>2026-05-02T12:27:55.972Z</time></trkpt><trkpt lat="42.66221667671977" lon="12.60828828591397"><ele>656.7142857142858</ele><time>2026-05-02T12:30:07.971Z</time></trkpt><trkpt lat="42.6621590285125" lon="12.608213411129528"><ele>657.2857142857142</ele><time>2026-05-02T12:30:09.971Z</time></trkpt><trkpt lat="42.662096036411185" lon="12.608173576203022"><ele>657.8571428571428</ele><time>2026-05-02T12:30:12.971Z</time></trkpt><trkpt lat="42.662052173791295" lon="12.6081117137246"><ele>658.4285714285714</ele><time>2026-05-02T12:30:15.971Z</time></trkpt><trkpt lat="42.662046344163485" lon="12.60801971399619"><ele>659.0</ele><time>2026-05-02T12:30:46.97Z</time></trkpt><trkpt lat="42.662107587356665" lon="12.607893821395157"><ele>661.5</ele><time>2026-05-02T12:30:49.97Z</time></trkpt><trkpt lat="42.66218685808866" lon="12.607790074079439"><ele>664.0</ele><time>2026-05-02T12:30:51.97Z</time></trkpt><trkpt lat="42.66223819671878" lon="12.607721691771518"><ele>666.5</ele><time>2026-05-02T12:30:52.97Z</time></trkpt><trkpt lat="42.66226938860167" lon="12.607646266855163"><ele>669.0</ele><time>2026-05-02T12:30:53.97Z</time></trkpt><trkpt lat="42.66232510359291" lon="12.607602324826217"><ele>671.5</ele><time>2026-05-02T12:30:54.97Z</time></trkpt><trkpt lat="42.66242414825771" lon="12.607476906283829"><ele>674.0</ele><time>2026-05-02T12:30:56.97Z</time></trkpt><trkpt lat="42.662481403543545" lon="12.607418462195904"><ele>674.0</ele><time>2026-05-02T12:30:57.97Z</time></trkpt><trkpt lat="42.66252592044764" lon="12.607348816746756"><ele>674.0</ele><time>2026-05-02T12:30:58.97Z</time></trkpt><trkpt lat="42.66261478514235" lon="12.607255282533444"><ele>674.0</ele><time>2026-05-02T12:31:00.971Z</time></trkpt><trkpt lat="42.66270139093736" lon="12.607173489288714"><ele>674.0</ele><time>2026-05-02T12:31:02.97Z</time></trkpt><trkpt lat="42.662747481849806" lon="12.607055535822633"><ele>674.0</ele><time>2026-05-02T12:31:04.971Z</time></trkpt><trkpt lat="42.66275696938155" lon="12.60692453246027"><ele>677.5</ele><time>2026-05-02T12:31:06.97Z</time></trkpt><trkpt lat="42.6627530519052" lon="12.606809416708709"><ele>681.0</ele><time>2026-05-02T12:31:08.97Z</time></trkpt><trkpt lat="42.66273953891476" lon="12.606714558662912"><ele>684.5</ele><time>2026-05-02T12:31:09.97Z</time></trkpt><trkpt lat="42.66270195817716" lon="12.606588110561034"><ele>688.0</ele><time>2026-05-02T12:31:11.97Z</time></trkpt><trkpt lat="42.66263931551373" lon="12.606333450750704"><ele>688.0</ele><time>2026-05-02T12:31:13.97Z</time></trkpt><trkpt lat="42.66253792625307" lon="12.606225953893317"><ele>688.0</ele><time>2026-05-02T12:31:15.97Z</time></trkpt><trkpt lat="42.66244024386545" lon="12.606164645366869"><ele>688.0</ele><time>2026-05-02T12:31:17.97Z</time></trkpt><trkpt lat="42.6623530280438" lon="12.606116966287347"><ele>688.0</ele><time>2026-05-02T12:31:18.97Z</time></trkpt><trkpt lat="42.662235659290666" lon="12.606069268467667"><ele>688.0</ele><time>2026-05-02T12:31:19.97Z</time></trkpt><trkpt lat="42.662079538235034" lon="12.606474488087374"><ele>688.0</ele><time>2026-05-02T12:31:20.97Z</time></trkpt><trkpt lat="42.66199201606161" lon="12.60644586260142"><ele>688.0</ele><time>2026-05-02T12:31:21.97Z</time></trkpt><trkpt lat="42.66192752941004" lon="12.606428121993902"><ele>688.5</ele><time>2026-05-02T12:31:22.97Z</time></trkpt><trkpt lat="42.66185811753231" lon="12.606445054909967"><ele>689.0</ele><time>2026-05-02T12:31:23.969Z</time></trkpt><trkpt lat="42.66177931937877" lon="12.60649007876228"><ele>689.5</ele><time>2026-05-02T12:31:24.969Z</time></trkpt><trkpt lat="42.66171410211955" lon="12.606506673651573"><ele>690.0</ele><time>2026-05-02T12:31:25.969Z</time></trkpt><trkpt lat="42.66163972346195" lon="12.606551866331374"><ele>690.5</ele><time>2026-05-02T12:31:26.969Z</time></trkpt><trkpt lat="42.661582116036804" lon="12.606598888214888"><ele>691.0</ele><time>2026-05-02T12:31:27.969Z</time></trkpt><trkpt lat="42.661503473559605" lon="12.606667496835366"><ele>691.0</ele><time>2026-05-02T12:31:29.969Z</time></trkpt><trkpt lat="42.6614336832361" lon="12.606698922224396"><ele>691.0</ele><time>2026-05-02T12:31:31.969Z</time></trkpt><trkpt lat="42.661365625364155" lon="12.606723751645454"><ele>691.0</ele><time>2026-05-02T12:31:34.969Z</time></trkpt><trkpt lat="42.66129027062988" lon="12.606744478556841"><ele>691.0</ele><time>2026-05-02T12:31:37.969Z</time></trkpt><trkpt lat="42.661217870514655" lon="12.606740414351757"><ele>691.0</ele><time>2026-05-02T12:31:41.969Z</time></trkpt><trkpt lat="42.66114800144655" lon="12.60673357566857"><ele>691.0</ele><time>2026-05-02T12:31:45.969Z</time></trkpt><trkpt lat="42.66105277492175" lon="12.60673376063775"><ele>691.8</ele><time>2026-05-02T12:32:14.969Z</time></trkpt><trkpt lat="42.66094055012574" lon="12.606684365184046"><ele>692.5999999999999</ele><time>2026-05-02T12:32:16.969Z</time></trkpt><trkpt lat="42.66082304775925" lon="12.606673540265412"><ele>693.4</ele><time>2026-05-02T12:32:18.969Z</time></trkpt><trkpt lat="42.66071819585141" lon="12.606684358764534"><ele>694.2</ele><time>2026-05-02T12:32:20.969Z</time></trkpt><trkpt lat="42.66064725257729" lon="12.606686804214249"><ele>695.0</ele><time>2026-05-02T12:32:21.969Z</time></trkpt><trkpt lat="42.66055877078302" lon="12.606440620674594"><ele>695.0</ele><time>2026-05-02T12:32:23.969Z</time></trkpt><trkpt lat="42.66046896391302" lon="12.606658426913214"><ele>695.0</ele><time>2026-05-02T12:32:24.969Z</time></trkpt><trkpt lat="42.66040713919264" lon="12.60664109867732"><ele>695.0</ele><time>2026-05-02T12:32:25.969Z</time></trkpt><trkpt lat="42.660314671709905" lon="12.606653568527824"><ele>695.0</ele><time>2026-05-02T12:32:27.969Z</time></trkpt><trkpt lat="42.66023557508288" lon="12.606718385300256"><ele>695.0</ele><time>2026-05-02T12:32:29.969Z</time></trkpt><trkpt lat="42.66015939668926" lon="12.606764553749356"><ele>695.4</ele><time>2026-05-02T12:32:31.969Z</time></trkpt><trkpt lat="42.6600906745586" lon="12.606811542688567"><ele>695.8</ele><time>2026-05-02T12:32:35.969Z</time></trkpt><trkpt lat="42.659994234968636" lon="12.606881014902772"><ele>696.2</ele><time>2026-05-02T12:33:04.968Z</time></trkpt><trkpt lat="42.65988391163495" lon="12.60695833229945"><ele>696.6</ele><time>2026-05-02T12:33:06.969Z</time></trkpt><trkpt lat="42.65979297943999" lon="12.607051567759031"><ele>697.0</ele><time>2026-05-02T12:33:08.969Z</time></trkpt><trkpt lat="42.65974456555916" lon="12.607109345559206"><ele>697.0</ele><time>2026-05-02T12:33:09.968Z</time></trkpt><trkpt lat="42.65964730030829" lon="12.607201482307484"><ele>697.0</ele><time>2026-05-02T12:33:11.969Z</time></trkpt><trkpt lat="42.65954727512999" lon="12.607278306499781"><ele>697.0</ele><time>2026-05-02T12:33:13.969Z</time></trkpt><trkpt lat="42.65948532889488" lon="12.6073703470765"><ele>697.0</ele><time>2026-05-02T12:33:15.968Z</time></trkpt><trkpt lat="42.65942145372333" lon="12.607424283417467"><ele>697.0</ele><time>2026-05-02T12:33:17.969Z</time></trkpt><trkpt lat="42.659339930684965" lon="12.607468535238025"><ele>701.2</ele><time>2026-05-02T12:33:19.969Z</time></trkpt><trkpt lat="42.659252758184316" lon="12.60748762445089"><ele>705.4000000000001</ele><time>2026-05-02T12:33:21.969Z</time></trkpt><trkpt lat="42.65915586362833" lon="12.607501402219414"><ele>709.5999999999999</ele><time>2026-05-02T12:33:23.969Z</time></trkpt><trkpt lat="42.65904899201092" lon="12.607566251327931"><ele>713.8</ele><time>2026-05-02T12:33:25.969Z</time></trkpt><trkpt lat="42.65894623775225" lon="12.60761475044359"><ele>718.0</ele><time>2026-05-02T12:33:27.969Z</time></trkpt><trkpt lat="42.65886391325402" lon="12.607644685518963"><ele>718.0</ele><time>2026-05-02T12:33:29.969Z</time></trkpt><trkpt lat="42.658765883725074" lon="12.607711285058663"><ele>718.0</ele><time>2026-05-02T12:33:31.969Z</time></trkpt><trkpt lat="42.658698591996796" lon="12.607749059298836"><ele>718.0</ele><time>2026-05-02T12:33:32.969Z</time></trkpt><trkpt lat="42.65860921786055" lon="12.607831157308482"><ele>718.0</ele><time>2026-05-02T12:33:34.969Z</time></trkpt><trkpt lat="42.65853967446627" lon="12.60790444444745"><ele>718.0</ele><time>2026-05-02T12:33:36.969Z</time></trkpt><trkpt lat="42.65848326212289" lon="12.607950983021055"><ele>718.0</ele><time>2026-05-02T12:33:53.968Z</time></trkpt><trkpt lat="42.65839958590116" lon="12.608018479636614"><ele>719.5999999999999</ele><time>2026-05-02T12:34:07.968Z</time></trkpt><trkpt lat="42.658322418344774" lon="12.608051403308739"><ele>721.1999999999999</ele><time>2026-05-02T12:34:09.968Z</time></trkpt><trkpt lat="42.6582270492817" lon="12.608068891568768"><ele>722.8</ele><time>2026-05-02T12:34:11.968Z</time></trkpt><trkpt lat="42.658033881499755" lon="12.608130917566363"><ele>724.4</ele><time>2026-05-02T12:34:13.968Z</time></trkpt><trkpt lat="42.65798006020244" lon="12.60818951825471"><ele>726.0</ele><time>2026-05-02T12:34:14.968Z</time></trkpt><trkpt lat="42.6579185639523" lon="12.60823573400902"><ele>726.0</ele><time>2026-05-02T12:34:15.968Z</time></trkpt><trkpt lat="42.65785305070849" lon="12.608288773661238"><ele>726.0</ele><time>2026-05-02T12:34:16.968Z</time></trkpt><trkpt lat="42.65779628314974" lon="12.60835815176093"><ele>726.0</ele><time>2026-05-02T12:34:17.968Z</time></trkpt><trkpt lat="42.65775589166456" lon="12.60843602973805"><ele>726.0</ele><time>2026-05-02T12:34:18.968Z</time></trkpt><trkpt lat="42.65770091483786" lon="12.608615797547122"><ele>726.0</ele><time>2026-05-02T12:34:20.968Z</time></trkpt><trkpt lat="42.657649652809624" lon="12.608675564704258"><ele>726.0</ele><time>2026-05-02T12:34:22.968Z</time></trkpt><trkpt lat="42.657549302646245" lon="12.608701382251704"><ele>728.4</ele><time>2026-05-02T12:34:24.968Z</time></trkpt><trkpt lat="42.657461143898445" lon="12.608745588136882"><ele>730.8</ele><time>2026-05-02T12:34:26.968Z</time></trkpt><trkpt lat="42.65737446850412" lon="12.608809824633914"><ele>733.1999999999999</ele><time>2026-05-02T12:34:28.968Z</time></trkpt><trkpt lat="42.657311353980965" lon="12.608932764984354"><ele>735.5999999999999</ele><time>2026-05-02T12:34:30.968Z</time></trkpt><trkpt lat="42.65723182763872" lon="12.609030417164766"><ele>738.0</ele><time>2026-05-02T12:34:32.968Z</time></trkpt><trkpt lat="42.65716989705114" lon="12.60908861166633"><ele>738.0</ele><time>2026-05-02T12:34:34.968Z</time></trkpt><trkpt lat="42.6571054472776" lon="12.609151190464004"><ele>738.0</ele><time>2026-05-02T12:34:36.968Z</time></trkpt><trkpt lat="42.657021557679975" lon="12.609254133909701"><ele>738.0</ele><time>2026-05-02T12:34:38.968Z</time></trkpt><trkpt lat="42.65694816146606" lon="12.60933343706729"><ele>738.0</ele><time>2026-05-02T12:34:40.968Z</time></trkpt><trkpt lat="42.65688657836729" lon="12.609397452019868"><ele>738.0</ele><time>2026-05-02T12:34:41.968Z</time></trkpt><trkpt lat="42.65683820601144" lon="12.609458738647088"><ele>738.0</ele><time>2026-05-02T12:34:42.968Z</time></trkpt><trkpt lat="42.656744360725796" lon="12.609568664268028"><ele>739.4</ele><time>2026-05-02T12:34:44.968Z</time></trkpt><trkpt lat="42.65661769407712" lon="12.609680187279478"><ele>740.8</ele><time>2026-05-02T12:34:46.968Z</time></trkpt><trkpt lat="42.65655514052284" lon="12.609718492452625"><ele>742.2</ele><time>2026-05-02T12:34:47.968Z</time></trkpt><trkpt lat="42.656501595720385" lon="12.609772082315343"><ele>743.6</ele><time>2026-05-02T12:34:48.968Z</time></trkpt><trkpt lat="42.656386918505476" lon="12.609815768847401"><ele>745.0</ele><time>2026-05-02T12:34:50.968Z</time></trkpt><trkpt lat="42.65631567919453" lon="12.609833789192338"><ele>745.0</ele><time>2026-05-02T12:34:51.968Z</time></trkpt><trkpt lat="42.65619726696253" lon="12.60987333682911"><ele>745.0</ele><time>2026-05-02T12:34:53.968Z</time></trkpt><trkpt lat="42.65613264974139" lon="12.609945345998497"><ele>745.0</ele><time>2026-05-02T12:34:55.968Z</time></trkpt><trkpt lat="42.65614694932161" lon="12.610077638812621"><ele>745.0</ele><time>2026-05-02T12:34:57.968Z</time></trkpt><trkpt lat="42.656197226937635" lon="12.610182249162529"><ele>745.0</ele><time>2026-05-02T12:34:58.968Z</time></trkpt><trkpt lat="42.656221439856" lon="12.610266402531497"><ele>743.3333333333334</ele><time>2026-05-02T12:34:59.968Z</time></trkpt><trkpt lat="42.6561561614669" lon="12.610356308929592"><ele>741.6666666666667</ele><time>2026-05-02T12:35:01.967Z</time></trkpt><trkpt lat="42.65606312946964" lon="12.610342554049488"><ele>740.0</ele><time>2026-05-02T12:35:03.967Z</time></trkpt><trkpt lat="42.655998150219965" lon="12.610327194086263"><ele>738.3333333333334</ele><time>2026-05-02T12:35:05.967Z</time></trkpt><trkpt lat="42.65591970526021" lon="12.610318560142272"><ele>736.6666666666666</ele><time>2026-05-02T12:35:07.967Z</time></trkpt><trkpt lat="42.65585592582952" lon="12.610410299459016"><ele>735.0</ele><time>2026-05-02T12:35:09.967Z</time></trkpt><trkpt lat="42.65580490583613" lon="12.610472634021635"><ele>739.1666666666666</ele><time>2026-05-02T12:35:11.967Z</time></trkpt><trkpt lat="42.65576050513375" lon="12.610533601962715"><ele>743.3333333333334</ele><time>2026-05-02T12:35:12.967Z</time></trkpt><trkpt lat="42.65571684463841" lon="12.610631414100574"><ele>747.5</ele><time>2026-05-02T12:35:14.968Z</time></trkpt><trkpt lat="42.6556900872155" lon="12.610731411120943"><ele>751.6666666666667</ele><time>2026-05-02T12:35:16.968Z</time></trkpt><trkpt lat="42.65561692698364" lon="12.610832514359952"><ele>755.8333333333334</ele><time>2026-05-02T12:35:18.967Z</time></trkpt><trkpt lat="42.65555374074207" lon="12.610891721467691"><ele>760.0</ele><time>2026-05-02T12:35:20.967Z</time></trkpt><trkpt lat="42.655502208190995" lon="12.611012639039398"><ele>760.0</ele><time>2026-05-02T12:35:49.967Z</time></trkpt><trkpt lat="42.65543714712779" lon="12.611020180828302"><ele>760.0</ele><time>2026-05-02T12:35:53.967Z</time></trkpt><trkpt lat="42.655369833879924" lon="12.610964351699574"><ele>760.0</ele><time>2026-05-02T12:35:56.967Z</time></trkpt><trkpt lat="42.6552994702283" lon="12.610916403101143"><ele>760.0</ele><time>2026-05-02T12:35:59.967Z</time></trkpt><trkpt lat="42.655233682834975" lon="12.61089059081513"><ele>760.0</ele><time>2026-05-02T12:36:02.967Z</time></trkpt><trkpt lat="42.65516867674752" lon="12.610838105752324"><ele>760.0</ele><time>2026-05-02T12:36:05.967Z</time></trkpt><trkpt lat="42.655132466510445" lon="12.61075869646331"><ele>760.0</ele><time>2026-05-02T12:36:07.967Z</time></trkpt><trkpt lat="42.655075143736866" lon="12.61067663037451"><ele>762.5</ele><time>2026-05-02T12:36:10.967Z</time></trkpt><trkpt lat="42.655012960220624" lon="12.610612828669016"><ele>765.0</ele><time>2026-05-02T12:36:13.967Z</time></trkpt><trkpt lat="42.65494147896315" lon="12.610571539378622"><ele>767.5</ele><time>2026-05-02T12:36:17.967Z</time></trkpt><trkpt lat="42.65486935563438" lon="12.610528679061549"><ele>770.0</ele><time>2026-05-02T12:36:21.967Z</time></trkpt><trkpt lat="42.65480329332716" lon="12.610453769381309"><ele>772.4999999999999</ele><time>2026-05-02T12:36:24.967Z</time></trkpt><trkpt lat="42.654731487545305" lon="12.610431423650704"><ele>775.0</ele><time>2026-05-02T12:36:26.967Z</time></trkpt><trkpt lat="42.65466392291399" lon="12.610409853826763"><ele>774.9999999999999</ele><time>2026-05-02T12:36:28.967Z</time></trkpt><trkpt lat="42.65458963845215" lon="12.610362847900653"><ele>775.0</ele><time>2026-05-02T12:36:30.967Z</time></trkpt><trkpt lat="42.65452853062133" lon="12.610316050195168"><ele>775.0</ele><time>2026-05-02T12:36:32.967Z</time></trkpt><trkpt lat="42.654439727873424" lon="12.61030876199074"><ele>775.0</ele><time>2026-05-02T12:36:34.967Z</time></trkpt><trkpt lat="42.65436487908035" lon="12.610303815134044"><ele>774.9999999999999</ele><time>2026-05-02T12:36:36.967Z</time></trkpt><trkpt lat="42.654293707368375" lon="12.610299484210104"><ele>775.0</ele><time>2026-05-02T12:36:38.967Z</time></trkpt><trkpt lat="42.65420747267743" lon="12.61029632699867"><ele>777.1666666666666</ele><time>2026-05-02T12:36:40.967Z</time></trkpt><trkpt lat="42.65415173115584" lon="12.610240076208814"><ele>779.3333333333333</ele><time>2026-05-02T12:36:42.967Z</time></trkpt><trkpt lat="42.6541270828298" lon="12.610123797331994"><ele>781.5</ele><time>2026-05-02T12:36:45.967Z</time></trkpt><trkpt lat="42.65405174719819" lon="12.610047056969302"><ele>783.6666666666667</ele><time>2026-05-02T12:36:48.967Z</time></trkpt><trkpt lat="42.65396534042171" lon="12.60998826963538"><ele>785.8333333333334</ele><time>2026-05-02T12:36:51.967Z</time></trkpt><trkpt lat="42.65390315932686" lon="12.609943267821341"><ele>788.0</ele><time>2026-05-02T12:36:53.967Z</time></trkpt><trkpt lat="42.65382058428215" lon="12.609832773149785"><ele>788.0000000000001</ele><time>2026-05-02T12:37:17.966Z</time></trkpt><trkpt lat="42.653801083986224" lon="12.609716268067594"><ele>788.0</ele><time>2026-05-02T12:37:21.966Z</time></trkpt><trkpt lat="42.65380725368369" lon="12.609622602115827"><ele>788.0</ele><time>2026-05-02T12:37:23.966Z</time></trkpt><trkpt lat="42.65378546769419" lon="12.609507975486977"><ele>788.0</ele><time>2026-05-02T12:37:26.966Z</time></trkpt><trkpt lat="42.65374291469472" lon="12.609420483646405"><ele>788.0000000000001</ele><time>2026-05-02T12:37:29.966Z</time></trkpt><trkpt lat="42.653692443362175" lon="12.609360308164717"><ele>788.0</ele><time>2026-05-02T12:37:32.966Z</time></trkpt><trkpt lat="42.653692837074836" lon="12.609230638628418"><ele>788.8333333333334</ele><time>2026-05-02T12:37:35.966Z</time></trkpt><trkpt lat="42.65369302558981" lon="12.609122750708345"><ele>789.6666666666667</ele><time>2026-05-02T12:37:38.966Z</time></trkpt><trkpt lat="42.65364183100746" lon="12.609031633137894"><ele>790.5</ele><time>2026-05-02T12:37:41.965Z</time></trkpt><trkpt lat="42.65361588065416" lon="12.608920429741044"><ele>791.3333333333333</ele><time>2026-05-02T12:37:44.965Z</time></trkpt><trkpt lat="42.65362699734761" lon="12.608819684429447"><ele>792.1666666666666</ele><time>2026-05-02T12:37:46.965Z</time></trkpt><trkpt lat="42.653642869146054" lon="12.608705063462358"><ele>793.0</ele><time>2026-05-02T12:37:48.965Z</time></trkpt><trkpt lat="42.653627177031" lon="12.608610781557715"><ele>797.3333333333333</ele><time>2026-05-02T12:37:50.965Z</time></trkpt><trkpt lat="42.65361121423193" lon="12.60850758383737"><ele>801.6666666666666</ele><time>2026-05-02T12:37:52.965Z</time></trkpt><trkpt lat="42.6536086829067" lon="12.608405397643583"><ele>806.0</ele><time>2026-05-02T12:37:54.965Z</time></trkpt><trkpt lat="42.65360060754081" lon="12.608293778373284"><ele>810.3333333333333</ele><time>2026-05-02T12:37:56.965Z</time></trkpt><trkpt lat="42.65358905897576" lon="12.608172594158319"><ele>814.6666666666666</ele><time>2026-05-02T12:37:58.965Z</time></trkpt><trkpt lat="42.653555707012785" lon="12.608021255436782"><ele>819.0</ele><time>2026-05-02T12:38:00.965Z</time></trkpt><trkpt lat="42.65350668497737" lon="12.607958569511739"><ele>819.0</ele><time>2026-05-02T12:38:02.965Z</time></trkpt><trkpt lat="42.65339276445921" lon="12.607943864993286"><ele>819.0</ele><time>2026-05-02T12:38:04.965Z</time></trkpt><trkpt lat="42.65332045863159" lon="12.607887209259662"><ele>819.0</ele><time>2026-05-02T12:38:06.965Z</time></trkpt><trkpt lat="42.65324094790209" lon="12.607922836155653"><ele>819.0</ele><time>2026-05-02T12:38:08.965Z</time></trkpt><trkpt lat="42.6531358543062" lon="12.607961417406903"><ele>819.0</ele><time>2026-05-02T12:38:10.965Z</time></trkpt><trkpt lat="42.653057620495304" lon="12.607955904662571"><ele>819.0</ele><time>2026-05-02T12:38:12.965Z</time></trkpt><trkpt lat="42.65300007512465" lon="12.607993655148512"><ele>819.0</ele><time>2026-05-02T12:38:14.965Z</time></trkpt><trkpt lat="42.652935518235076" lon="12.608024500059708"><ele>819.0</ele><time>2026-05-02T12:38:17.965Z</time></trkpt><trkpt lat="42.65281143933795" lon="12.608061757360595"><ele>819.0</ele><time>2026-05-02T12:38:20.965Z</time></trkpt><trkpt lat="42.652731419121665" lon="12.608055928760443"><ele>819.0</ele><time>2026-05-02T12:38:22.965Z</time></trkpt><trkpt lat="42.65262894005356" lon="12.6080517861783"><ele>819.0</ele><time>2026-05-02T12:38:26.965Z</time></trkpt><trkpt lat="42.65253598403722" lon="12.608063985740866"><ele>820.5</ele><time>2026-05-02T12:38:28.965Z</time></trkpt><trkpt lat="42.65246621350802" lon="12.608034887428737"><ele>822.0</ele><time>2026-05-02T12:38:30.965Z</time></trkpt><trkpt lat="42.652399440698844" lon="12.608051932006255"><ele>823.5</ele><time>2026-05-02T12:38:32.965Z</time></trkpt><trkpt lat="42.65230719637838" lon="12.608054446134222"><ele>825.0</ele><time>2026-05-02T12:38:34.965Z</time></trkpt><trkpt lat="42.65220662994072" lon="12.60804951919071"><ele>826.5</ele><time>2026-05-02T12:38:36.965Z</time></trkpt><trkpt lat="42.652124744302924" lon="12.608110314235452"><ele>828.0</ele><time>2026-05-02T12:38:38.965Z</time></trkpt><trkpt lat="42.65204730743396" lon="12.60817605854654"><ele>828.0</ele><time>2026-05-02T12:38:40.965Z</time></trkpt><trkpt lat="42.65195832116498" lon="12.608200501421985"><ele>828.0</ele><time>2026-05-02T12:38:43.965Z</time></trkpt><trkpt lat="42.6518920407919" lon="12.608247389957869"><ele>828.0</ele><time>2026-05-02T12:38:45.965Z</time></trkpt><trkpt lat="42.65183767645083" lon="12.608300472258668"><ele>828.0</ele><time>2026-05-02T12:38:47.965Z</time></trkpt><trkpt lat="42.651732051931916" lon="12.608361550912196"><ele>828.0</ele><time>2026-05-02T12:38:49.965Z</time></trkpt><trkpt lat="42.65163537695236" lon="12.608405817669333"><ele>828.0</ele><time>2026-05-02T12:38:51.965Z</time></trkpt><trkpt lat="42.65155878055094" lon="12.60840803578418"><ele>827.4</ele><time>2026-05-02T12:38:53.965Z</time></trkpt><trkpt lat="42.65146069342848" lon="12.608452429688636"><ele>826.8</ele><time>2026-05-02T12:38:55.965Z</time></trkpt><trkpt lat="42.65140299223729" lon="12.608496724161709"><ele>826.2</ele><time>2026-05-02T12:38:56.965Z</time></trkpt><trkpt lat="42.65129634922954" lon="12.608556086321524"><ele>825.6</ele><time>2026-05-02T12:38:58.964Z</time></trkpt><trkpt lat="42.65121409155872" lon="12.608609004582858"><ele>825.0</ele><time>2026-05-02T12:39:00.964Z</time></trkpt><trkpt lat="42.651140604687505" lon="12.608651703046522"><ele>826.5</ele><time>2026-05-02T12:39:02.964Z</time></trkpt><trkpt lat="42.65105905437808" lon="12.608692893144426"><ele>828.0</ele><time>2026-05-02T12:39:05.964Z</time></trkpt><trkpt lat="42.650978827027856" lon="12.608712238273386"><ele>829.5</ele><time>2026-05-02T12:39:07.964Z</time></trkpt><trkpt lat="42.65087790354671" lon="12.608745449227879"><ele>831.0</ele><time>2026-05-02T12:39:09.964Z</time></trkpt><trkpt lat="42.6507911913198" lon="12.608795431787783"><ele>832.5</ele><time>2026-05-02T12:39:11.964Z</time></trkpt><trkpt lat="42.65072802231801" lon="12.608866786624715"><ele>834.0</ele><time>2026-05-02T12:39:13.964Z</time></trkpt><trkpt lat="42.65062160756541" lon="12.608905306585974"><ele>834.0</ele><time>2026-05-02T12:39:15.964Z</time></trkpt><trkpt lat="42.65055405971697" lon="12.608944135361492"><ele>834.0</ele><time>2026-05-02T12:39:17.964Z</time></trkpt><trkpt lat="42.65046812350096" lon="12.60895594670486"><ele>834.0</ele><time>2026-05-02T12:39:20.964Z</time></trkpt><trkpt lat="42.650398269124075" lon="12.608879153636476"><ele>834.0</ele><time>2026-05-02T12:39:22.965Z</time></trkpt><trkpt lat="42.65034563573842" lon="12.608789363924597"><ele>834.0</ele><time>2026-05-02T12:39:24.964Z</time></trkpt><trkpt lat="42.650299346141466" lon="12.6087050949323"><ele>834.0</ele><time>2026-05-02T12:39:26.964Z</time></trkpt><trkpt lat="42.650217751959836" lon="12.608717108063418"><ele>834.1666666666666</ele><time>2026-05-02T12:39:28.964Z</time></trkpt><trkpt lat="42.65014144394944" lon="12.608736172096885"><ele>834.3333333333333</ele><time>2026-05-02T12:39:30.964Z</time></trkpt><trkpt lat="42.65006297370431" lon="12.608701598360895"><ele>834.5</ele><time>2026-05-02T12:39:32.964Z</time></trkpt><trkpt lat="42.64999802931955" lon="12.608677978341545"><ele>834.6666666666666</ele><time>2026-05-02T12:39:34.965Z</time></trkpt><trkpt lat="42.64992664878135" lon="12.608629915746954"><ele>834.8333333333333</ele><time>2026-05-02T12:39:36.965Z</time></trkpt><trkpt lat="42.64986549834791" lon="12.608580013362705"><ele>835.0</ele><time>2026-05-02T12:39:38.965Z</time></trkpt><trkpt lat="42.64979343888003" lon="12.60851303399664"><ele>834.9999999999999</ele><time>2026-05-02T12:39:40.965Z</time></trkpt><trkpt lat="42.64973916398227" lon="12.608466541294344"><ele>835.0</ele><time>2026-05-02T12:39:42.965Z</time></trkpt><trkpt lat="42.64966756766952" lon="12.608382836211371"><ele>835.0</ele><time>2026-05-02T12:39:44.965Z</time></trkpt><trkpt lat="42.64958298279319" lon="12.608310416630031"><ele>835.0</ele><time>2026-05-02T12:39:46.965Z</time></trkpt><trkpt lat="42.649551998595285" lon="12.608199050958065"><ele>834.9999999999999</ele><time>2026-05-02T12:39:49.965Z</time></trkpt><trkpt lat="42.649511913779335" lon="12.60813032862398"><ele>835.0</ele><time>2026-05-02T12:40:02.964Z</time></trkpt><trkpt lat="42.64951501656432" lon="12.608001601657211"><ele>834.8</ele><time>2026-05-02T12:40:05.964Z</time></trkpt><trkpt lat="42.649455791064675" lon="12.60791209345546"><ele>834.6</ele><time>2026-05-02T12:40:07.964Z</time></trkpt><trkpt lat="42.64946411828627" lon="12.607793078744193"><ele>834.4000000000001</ele><time>2026-05-02T12:40:09.964Z</time></trkpt><trkpt lat="42.64947392086377" lon="12.607684153430862"><ele>834.2</ele><time>2026-05-02T12:40:11.964Z</time></trkpt><trkpt lat="42.649360315157644" lon="12.607562645585514"><ele>834.0</ele><time>2026-05-02T12:40:13.964Z</time></trkpt><trkpt lat="42.64928421799008" lon="12.607437894907058"><ele>835.0</ele><time>2026-05-02T12:40:15.964Z</time></trkpt><trkpt lat="42.649211006458486" lon="12.607375187895567"><ele>836.0</ele><time>2026-05-02T12:40:17.964Z</time></trkpt><trkpt lat="42.64917053766124" lon="12.607271467241375"><ele>837.0</ele><time>2026-05-02T12:40:19.964Z</time></trkpt><trkpt lat="42.64911812891987" lon="12.607157949425362"><ele>838.0</ele><time>2026-05-02T12:40:21.964Z</time></trkpt><trkpt lat="42.64909144018165" lon="12.607013106667713"><ele>839.0</ele><time>2026-05-02T12:40:23.964Z</time></trkpt><trkpt lat="42.64906613467087" lon="12.60691984923238"><ele>840.5000000000001</ele><time>2026-05-02T12:40:24.964Z</time></trkpt><trkpt lat="42.64903071952087" lon="12.60682135231382"><ele>842.0</ele><time>2026-05-02T12:40:25.964Z</time></trkpt><trkpt lat="42.64898857979913" lon="12.606744967328023"><ele>843.5</ele><time>2026-05-02T12:40:26.964Z</time></trkpt><trkpt lat="42.648959869233245" lon="12.606657162929066"><ele>845.0</ele><time>2026-05-02T12:40:28.964Z</time></trkpt><trkpt lat="42.64891108723116" lon="12.606598780149577"><ele>846.5000000000001</ele><time>2026-05-02T12:40:33.964Z</time></trkpt><trkpt lat="42.64883716753255" lon="12.606474625647122"><ele>848.0</ele><time>2026-05-02T12:40:35.964Z</time></trkpt><trkpt lat="42.648818790726445" lon="12.606390254525156"><ele>848.0000000000001</ele><time>2026-05-02T12:40:37.964Z</time></trkpt><trkpt lat="42.64880315248819" lon="12.606303101358161"><ele>848.0</ele><time>2026-05-02T12:40:39.964Z</time></trkpt><trkpt lat="42.64870539749546" lon="12.606264314391755"><ele>848.0</ele><time>2026-05-02T12:40:42.964Z</time></trkpt><trkpt lat="42.64862843315033" lon="12.606226016231158"><ele>848.0</ele><time>2026-05-02T12:40:44.964Z</time></trkpt><trkpt lat="42.648572264174945" lon="12.606169270687953"><ele>848.0000000000001</ele><time>2026-05-02T12:40:46.964Z</time></trkpt><trkpt lat="42.648500312243556" lon="12.606123061670164"><ele>848.0</ele><time>2026-05-02T12:40:48.964Z</time></trkpt><trkpt lat="42.64842924539396" lon="12.606055093368074"><ele>849.1666666666667</ele><time>2026-05-02T12:40:50.964Z</time></trkpt><trkpt lat="42.648379499209284" lon="12.605998851265714"><ele>850.3333333333334</ele><time>2026-05-02T12:40:51.964Z</time></trkpt><trkpt lat="42.6482974089883" lon="12.60590269240682"><ele>851.5</ele><time>2026-05-02T12:40:53.964Z</time></trkpt><trkpt lat="42.64824357757488" lon="12.605857507847881"><ele>852.6666666666667</ele><time>2026-05-02T12:40:54.964Z</time></trkpt><trkpt lat="42.64817103356841" lon="12.605809722591395"><ele>853.8333333333334</ele><time>2026-05-02T12:40:55.964Z</time></trkpt><trkpt lat="42.64808691471016" lon="12.605733699371672"><ele>855.0</ele><time>2026-05-02T12:40:56.964Z</time></trkpt><trkpt lat="42.64800409703255" lon="12.605661971912816"><ele>855.0</ele><time>2026-05-02T12:40:57.964Z</time></trkpt><trkpt lat="42.64792941788178" lon="12.605595619417848"><ele>855.0</ele><time>2026-05-02T12:40:58.964Z</time></trkpt><trkpt lat="42.647853464412194" lon="12.605537216867106"><ele>855.0</ele><time>2026-05-02T12:40:59.964Z</time></trkpt><trkpt lat="42.6477842230419" lon="12.605464918488511"><ele>855.0</ele><time>2026-05-02T12:41:00.964Z</time></trkpt><trkpt lat="42.647714813539054" lon="12.605404077742664"><ele>855.0</ele><time>2026-05-02T12:41:01.964Z</time></trkpt><trkpt lat="42.64765213289538" lon="12.605313371964806"><ele>855.0</ele><time>2026-05-02T12:41:02.964Z</time></trkpt><trkpt lat="42.64758487550355" lon="12.605230431857748"><ele>855.5</ele><time>2026-05-02T12:41:03.964Z</time></trkpt><trkpt lat="42.64751633068507" lon="12.605171264302847"><ele>856.0</ele><time>2026-05-02T12:41:04.964Z</time></trkpt><trkpt lat="42.64744766155497" lon="12.605118623357692"><ele>856.5</ele><time>2026-05-02T12:41:05.964Z</time></trkpt><trkpt lat="42.64737245540088" lon="12.605061050285245"><ele>857.0</ele><time>2026-05-02T12:41:06.964Z</time></trkpt><trkpt lat="42.64729939191929" lon="12.605024761059035"><ele>857.5</ele><time>2026-05-02T12:41:07.964Z</time></trkpt><trkpt lat="42.647249166426036" lon="12.604963407243428"><ele>858.0</ele><time>2026-05-02T12:41:08.964Z</time></trkpt><trkpt lat="42.64717836544097" lon="12.604892746707561"><ele>858.0</ele><time>2026-05-02T12:41:09.964Z</time></trkpt><trkpt lat="42.64713053628915" lon="12.604825260115014"><ele>858.0</ele><time>2026-05-02T12:41:10.964Z</time></trkpt><trkpt lat="42.64703391572748" lon="12.604797316177974"><ele>858.0</ele><time>2026-05-02T12:41:12.964Z</time></trkpt><trkpt lat="42.6469336284113" lon="12.60488454183166"><ele>858.0</ele><time>2026-05-02T12:41:14.963Z</time></trkpt><trkpt lat="42.64686841260225" lon="12.605023739031331"><ele>858.0</ele><time>2026-05-02T12:41:16.963Z</time></trkpt><trkpt lat="42.646888414320586" lon="12.60513482782777"><ele>858.5</ele><time>2026-05-02T12:41:17.963Z</time></trkpt><trkpt lat="42.64689864683523" lon="12.605251687387275"><ele>859.0</ele><time>2026-05-02T12:41:18.963Z</time></trkpt><trkpt lat="42.646893690453844" lon="12.605361477400255"><ele>859.5</ele><time>2026-05-02T12:41:19.963Z</time></trkpt><trkpt lat="42.646893502503055" lon="12.60546836626954"><ele>860.0</ele><time>2026-05-02T12:41:20.963Z</time></trkpt><trkpt lat="42.6468881900016" lon="12.605574393535974"><ele>860.5</ele><time>2026-05-02T12:41:21.963Z</time></trkpt><trkpt lat="42.6468879609189" lon="12.60566552616651"><ele>861.0</ele><time>2026-05-02T12:41:22.963Z</time></trkpt><trkpt lat="42.64688598109317" lon="12.605767125755875"><ele>861.0</ele><time>2026-05-02T12:41:23.963Z</time></trkpt><trkpt lat="42.64685378049221" lon="12.605855173989674"><ele>861.0</ele><time>2026-05-02T12:41:24.963Z</time></trkpt><trkpt lat="42.64680879889197" lon="12.605923214287992"><ele>861.0</ele><time>2026-05-02T12:41:25.963Z</time></trkpt><trkpt lat="42.64675132035113" lon="12.605968816530485"><ele>861.0</ele><time>2026-05-02T12:41:26.963Z</time></trkpt><trkpt lat="42.646693802808095" lon="12.60602792447072"><ele>861.0</ele><time>2026-05-02T12:41:27.963Z</time></trkpt><trkpt lat="42.64664265238054" lon="12.606089327559134"><ele>861.0</ele><time>2026-05-02T12:41:28.964Z</time></trkpt><trkpt lat="42.64654062836076" lon="12.606142927038954"><ele>861.0</ele><time>2026-05-02T12:41:30.963Z</time></trkpt><trkpt lat="42.64646975889322" lon="12.606188962676098"><ele>860.9999999999999</ele><time>2026-05-02T12:41:31.963Z</time></trkpt><trkpt lat="42.64639656441437" lon="12.606215361989454"><ele>860.9999999999999</ele><time>2026-05-02T12:41:32.963Z</time></trkpt><trkpt lat="42.6462866177068" lon="12.606217367308936"><ele>861.0</ele><time>2026-05-02T12:41:34.963Z</time></trkpt><trkpt lat="42.64618540381603" lon="12.606121251444577"><ele>861.0</ele><time>2026-05-02T12:41:36.963Z</time></trkpt><trkpt lat="42.646105247899165" lon="12.60601425575534"><ele>862.8</ele><time>2026-05-02T12:41:38.963Z</time></trkpt><trkpt lat="42.646044520882555" lon="12.605942423153454"><ele>864.5999999999999</ele><time>2026-05-02T12:41:40.963Z</time></trkpt><trkpt lat="42.645969055167264" lon="12.60588890902245"><ele>866.4</ele><time>2026-05-02T12:41:42.964Z</time></trkpt><trkpt lat="42.64588246799122" lon="12.60585044488938"><ele>868.2</ele><time>2026-05-02T12:41:44.964Z</time></trkpt><trkpt lat="42.645786751070645" lon="12.60585483455532"><ele>870.0</ele><time>2026-05-02T12:41:46.964Z</time></trkpt><trkpt lat="42.645690591897385" lon="12.605998596170389"><ele>870.0</ele><time>2026-05-02T12:41:48.964Z</time></trkpt><trkpt lat="42.645624673562395" lon="12.606069021239184"><ele>870.0</ele><time>2026-05-02T12:41:49.964Z</time></trkpt><trkpt lat="42.64557170036953" lon="12.606143703385701"><ele>870.0</ele><time>2026-05-02T12:41:50.964Z</time></trkpt><trkpt lat="42.645532259149796" lon="12.606212927079424"><ele>870.0</ele><time>2026-05-02T12:41:51.964Z</time></trkpt><trkpt lat="42.645436597107384" lon="12.606264602769036"><ele>870.0</ele><time>2026-05-02T12:41:53.964Z</time></trkpt><trkpt lat="42.64536995442634" lon="12.606242941831526"><ele>870.0</ele><time>2026-05-02T12:41:54.964Z</time></trkpt><trkpt lat="42.64530336429269" lon="12.606206481268288"><ele>870.5714285714287</ele><time>2026-05-02T12:41:55.964Z</time></trkpt><trkpt lat="42.64523407855535" lon="12.606174112428297"><ele>871.1428571428571</ele><time>2026-05-02T12:41:56.964Z</time></trkpt><trkpt lat="42.64515832101375" lon="12.606149921669228"><ele>871.7142857142858</ele><time>2026-05-02T12:41:57.963Z</time></trkpt><trkpt lat="42.64509731572949" lon="12.60612093239945"><ele>872.2857142857143</ele><time>2026-05-02T12:41:58.963Z</time></trkpt><trkpt lat="42.645038141857114" lon="12.606089470536789"><ele>872.8571428571429</ele><time>2026-05-02T12:41:59.963Z</time></trkpt><trkpt lat="42.64497525696735" lon="12.606054806917802"><ele>873.4285714285714</ele><time>2026-05-02T12:42:00.963Z</time></trkpt><trkpt lat="42.644911994841735" lon="12.6060180091118"><ele>874.0</ele><time>2026-05-02T12:42:01.963Z</time></trkpt><trkpt lat="42.64485162420321" lon="12.605991895763351"><ele>873.9999999999999</ele><time>2026-05-02T12:42:02.963Z</time></trkpt><trkpt lat="42.64478018128455" lon="12.605951118660128"><ele>874.0</ele><time>2026-05-02T12:42:03.963Z</time></trkpt><trkpt lat="42.64470562946423" lon="12.605907808456676"><ele>874.0</ele><time>2026-05-02T12:42:04.963Z</time></trkpt><trkpt lat="42.64462864603566" lon="12.605853253863456"><ele>874.0</ele><time>2026-05-02T12:42:05.963Z</time></trkpt><trkpt lat="42.64456558904642" lon="12.605796040919342"><ele>873.9999999999999</ele><time>2026-05-02T12:42:06.963Z</time></trkpt><trkpt lat="42.64450301261445" lon="12.605776513935641"><ele>874.0</ele><time>2026-05-02T12:42:07.963Z</time></trkpt><trkpt lat="42.64439912944167" lon="12.60583932250805"><ele>873.4999999999999</ele><time>2026-05-02T12:42:09.963Z</time></trkpt><trkpt lat="42.644339479022385" lon="12.605880587733836"><ele>873.0</ele><time>2026-05-02T12:42:11.963Z</time></trkpt><trkpt lat="42.64427682571177" lon="12.605929092736055"><ele>872.5</ele><time>2026-05-02T12:42:14.963Z</time></trkpt><trkpt lat="42.64421307036285" lon="12.605986327203782"><ele>872.0</ele><time>2026-05-02T12:43:43.961Z</time></trkpt><trkpt lat="42.6441417731098" lon="12.606075340374685"><ele>871.4999999999999</ele><time>2026-05-02T12:43:45.962Z</time></trkpt><trkpt lat="42.644090565618896" lon="12.6061413165126"><ele>871.0</ele><time>2026-05-02T12:43:46.961Z</time></trkpt><trkpt lat="42.644020998649836" lon="12.60620522931865"><ele>870.4999999999999</ele><time>2026-05-02T12:43:47.961Z</time></trkpt><trkpt lat="42.643960333418576" lon="12.606292701105355"><ele>870.0</ele><time>2026-05-02T12:43:48.961Z</time></trkpt><trkpt lat="42.64389593426482" lon="12.606400290180634"><ele>869.5</ele><time>2026-05-02T12:43:49.961Z</time></trkpt><trkpt lat="42.64384802796444" lon="12.606513114881041"><ele>869.0</ele><time>2026-05-02T12:43:50.961Z</time></trkpt><trkpt lat="42.64382283747234" lon="12.606618087753624"><ele>868.4999999999999</ele><time>2026-05-02T12:43:51.961Z</time></trkpt><trkpt lat="42.6437864499894" lon="12.606714468978563"><ele>868.0</ele><time>2026-05-02T12:43:52.961Z</time></trkpt><trkpt lat="42.64376543908831" lon="12.606809049955293"><ele>867.9999999999999</ele><time>2026-05-02T12:43:53.961Z</time></trkpt><trkpt lat="42.64374012175697" lon="12.606898066570492"><ele>868.0</ele><time>2026-05-02T12:43:54.961Z</time></trkpt><trkpt lat="42.64371888692549" lon="12.606984524595765"><ele>868.0</ele><time>2026-05-02T12:43:55.961Z</time></trkpt><trkpt lat="42.64369304597388" lon="12.607073303547633"><ele>868.0</ele><time>2026-05-02T12:43:56.961Z</time></trkpt><trkpt lat="42.64362065045651" lon="12.607199715742365"><ele>867.9999999999999</ele><time>2026-05-02T12:43:58.961Z</time></trkpt><trkpt lat="42.64354948451139" lon="12.607298292386622"><ele>868.0</ele><time>2026-05-02T12:44:00.961Z</time></trkpt><trkpt lat="42.643478779373716" lon="12.607375601815404"><ele>868.1428571428571</ele><time>2026-05-02T12:44:02.961Z</time></trkpt><trkpt lat="42.64340778691469" lon="12.60741399575612"><ele>868.2857142857142</ele><time>2026-05-02T12:44:04.961Z</time></trkpt><trkpt lat="42.64334406035847" lon="12.607408262153044"><ele>868.4285714285714</ele><time>2026-05-02T12:44:06.961Z</time></trkpt><trkpt lat="42.64326847408325" lon="12.607473997800026"><ele>868.5714285714286</ele><time>2026-05-02T12:44:09.961Z</time></trkpt><trkpt lat="42.64322736905469" lon="12.60754775032815"><ele>868.7142857142857</ele><time>2026-05-02T12:44:11.961Z</time></trkpt><trkpt lat="42.643190983283695" lon="12.60761973836774"><ele>868.8571428571429</ele><time>2026-05-02T12:44:13.961Z</time></trkpt><trkpt lat="42.64313494513934" lon="12.607683928747273"><ele>869.0</ele><time>2026-05-02T12:44:15.961Z</time></trkpt><trkpt lat="42.643085307085705" lon="12.607745669203123"><ele>867.1666666666667</ele><time>2026-05-02T12:44:17.961Z</time></trkpt><trkpt lat="42.64299517674863" lon="12.607851507535798"><ele>865.3333333333334</ele><time>2026-05-02T12:44:18.961Z</time></trkpt><trkpt lat="42.64294128844447" lon="12.607909687284408"><ele>863.5</ele><time>2026-05-02T12:44:20.961Z</time></trkpt><trkpt lat="42.6428807231922" lon="12.60796944473357"><ele>861.6666666666667</ele><time>2026-05-02T12:44:22.961Z</time></trkpt><trkpt lat="42.64281497050882" lon="12.608024470221414"><ele>859.8333333333334</ele><time>2026-05-02T12:44:24.961Z</time></trkpt><trkpt lat="42.64274132536072" lon="12.608077340612269"><ele>858.0</ele><time>2026-05-02T12:44:27.961Z</time></trkpt><trkpt lat="42.642663169855815" lon="12.608139448862733"><ele>857.3333333333334</ele><time>2026-05-02T12:44:30.961Z</time></trkpt><trkpt lat="42.64258686097941" lon="12.608167198162976"><ele>856.6666666666667</ele><time>2026-05-02T12:44:32.961Z</time></trkpt><trkpt lat="42.642527597362616" lon="12.60822640472288"><ele>856.0</ele><time>2026-05-02T12:44:34.961Z</time></trkpt><trkpt lat="42.64245496761961" lon="12.608277670580357"><ele>855.3333333333334</ele><time>2026-05-02T12:44:36.961Z</time></trkpt><trkpt lat="42.64239644297874" lon="12.608347924384356"><ele>854.6666666666667</ele><time>2026-05-02T12:44:38.961Z</time></trkpt><trkpt lat="42.64235002521324" lon="12.608436867331502"><ele>854.0</ele><time>2026-05-02T12:44:42.961Z</time></trkpt><trkpt lat="42.64227439270068" lon="12.608483507533423"><ele>854.0000000000001</ele><time>2026-05-02T12:44:45.961Z</time></trkpt><trkpt lat="42.642214371380405" lon="12.608519629139604"><ele>854.0</ele><time>2026-05-02T12:44:50.961Z</time></trkpt><trkpt lat="42.642160871092" lon="12.60846475810408"><ele>854.0</ele><time>2026-05-02T12:45:24.96Z</time></trkpt><trkpt lat="42.642128877253384" lon="12.608356798221735"><ele>854.0</ele><time>2026-05-02T12:45:29.96Z</time></trkpt><trkpt lat="42.64215494995758" lon="12.608265624634381"><ele>854.0000000000001</ele><time>2026-05-02T12:45:31.96Z</time></trkpt><trkpt lat="42.64213878918893" lon="12.608138203225758"><ele>854.0</ele><time>2026-05-02T12:45:33.96Z</time></trkpt><trkpt lat="42.642059573996924" lon="12.608031513967001"><ele>854.0</ele><time>2026-05-02T12:45:35.96Z</time></trkpt><trkpt lat="42.641987431556466" lon="12.607981872261433"><ele>854.0000000000001</ele><time>2026-05-02T12:45:37.96Z</time></trkpt><trkpt lat="42.641911274658476" lon="12.607963437974048"><ele>854.0000000000001</ele><time>2026-05-02T12:45:38.96Z</time></trkpt><trkpt lat="42.6417786294515" lon="12.608009800964528"><ele>854.0</ele><time>2026-05-02T12:45:40.959Z</time></trkpt><trkpt lat="42.6416972875066" lon="12.608043693146056"><ele>854.0</ele><time>2026-05-02T12:45:42.96Z</time></trkpt><trkpt lat="42.641573650824036" lon="12.608073233052172"><ele>851.75</ele><time>2026-05-02T12:45:44.96Z</time></trkpt><trkpt lat="42.64150711924944" lon="12.608059691421087"><ele>849.5</ele><time>2026-05-02T12:45:45.96Z</time></trkpt><trkpt lat="42.64141716594359" lon="12.608003020372912"><ele>847.25</ele><time>2026-05-02T12:45:47.959Z</time></trkpt><trkpt lat="42.641278200822114" lon="12.60792523573363"><ele>845.0</ele><time>2026-05-02T12:45:50.96Z</time></trkpt><trkpt lat="42.641262491535045" lon="12.607658123777332"><ele>841.5</ele><time>2026-05-02T12:45:52.959Z</time></trkpt><trkpt lat="42.64117057954705" lon="12.607617854940482"><ele>838.0</ele><time>2026-05-02T12:45:54.959Z</time></trkpt><trkpt lat="42.64086828834557" lon="12.608134488064179"><ele>840.4999999999999</ele><time>2026-05-02T12:45:55.959Z</time></trkpt><trkpt lat="42.640798262186834" lon="12.60817951778322"><ele>843.0</ele><time>2026-05-02T12:45:56.959Z</time></trkpt><trkpt lat="42.640720091226214" lon="12.608228867080136"><ele>845.5</ele><time>2026-05-02T12:45:57.959Z</time></trkpt><trkpt lat="42.640644043599785" lon="12.60824507606273"><ele>848.0</ele><time>2026-05-02T12:45:58.959Z</time></trkpt><trkpt lat="42.640557280801445" lon="12.608268716400081"><ele>850.4999999999999</ele><time>2026-05-02T12:45:59.959Z</time></trkpt><trkpt lat="42.640468239613995" lon="12.608265796818543"><ele>853.0</ele><time>2026-05-02T12:46:00.959Z</time></trkpt><trkpt lat="42.64039406713101" lon="12.608270129239585"><ele>852.9999999999999</ele><time>2026-05-02T12:46:01.959Z</time></trkpt><trkpt lat="42.640295989061904" lon="12.608227151852816"><ele>853.0</ele><time>2026-05-02T12:46:03.959Z</time></trkpt><trkpt lat="42.6402213419292" lon="12.608188150493186"><ele>853.0</ele><time>2026-05-02T12:46:06.959Z</time></trkpt><trkpt lat="42.64031180033464" lon="12.608246372481288"><ele>853.0</ele><time>2026-05-02T12:47:09.958Z</time></trkpt><trkpt lat="42.64039399626503" lon="12.608249553446106"><ele>852.9999999999999</ele><time>2026-05-02T12:47:11.958Z</time></trkpt><trkpt lat="42.64047567744639" lon="12.60823872887577"><ele>853.0</ele><time>2026-05-02T12:47:14.958Z</time></trkpt><trkpt lat="42.64055143837931" lon="12.608191982894914"><ele>852.9999999999999</ele><time>2026-05-02T12:47:17.958Z</time></trkpt><trkpt lat="42.64060460898301" lon="12.608143756395384"><ele>853.0</ele><time>2026-05-02T12:47:19.958Z</time></trkpt><trkpt lat="42.64067236301747" lon="12.608092398099487"><ele>853.0</ele><time>2026-05-02T12:47:22.958Z</time></trkpt><trkpt lat="42.64074226191674" lon="12.608040325147254"><ele>853.0</ele><time>2026-05-02T12:47:25.958Z</time></trkpt><trkpt lat="42.640804641898804" lon="12.60801588069291"><ele>852.9999999999999</ele><time>2026-05-02T12:47:27.958Z</time></trkpt><trkpt lat="42.64089362063715" lon="12.607985471769167"><ele>853.0</ele><time>2026-05-02T12:47:30.958Z</time></trkpt><trkpt lat="42.64098828572775" lon="12.607969857661624"><ele>852.9999999999999</ele><time>2026-05-02T12:47:33.958Z</time></trkpt><trkpt lat="42.641064870266256" lon="12.60795588507688"><ele>853.0</ele><time>2026-05-02T12:47:35.958Z</time></trkpt><trkpt lat="42.64114771762502" lon="12.607943255866713"><ele>853.0</ele><time>2026-05-02T12:47:37.958Z</time></trkpt><trkpt lat="42.641228863422185" lon="12.607959408807933"><ele>853.0</ele><time>2026-05-02T12:47:39.958Z</time></trkpt><trkpt lat="42.64131006303353" lon="12.60796783807728"><ele>852.9999999999999</ele><time>2026-05-02T12:47:43.958Z</time></trkpt><trkpt lat="42.64129363423877" lon="12.607853955458989"><ele>853.0</ele><time>2026-05-02T12:47:46.958Z</time></trkpt><trkpt lat="42.6413565279474" lon="12.607751773521045"><ele>850.4999999999999</ele><time>2026-05-02T12:47:47.958Z</time></trkpt><trkpt lat="42.64127303350779" lon="12.607666822729113"><ele>848.0</ele><time>2026-05-02T12:47:49.958Z</time></trkpt><trkpt lat="42.641202705273614" lon="12.60759711598764"><ele>845.5</ele><time>2026-05-02T12:47:52.958Z</time></trkpt><trkpt lat="42.64115021255929" lon="12.60752410825251"><ele>843.0</ele><time>2026-05-02T12:47:55.958Z</time></trkpt><trkpt lat="42.64116236928834" lon="12.607432727992656"><ele>840.4999999999999</ele><time>2026-05-02T12:47:57.957Z</time></trkpt><trkpt lat="42.64114170860515" lon="12.60735090187857"><ele>838.0</ele><time>2026-05-02T12:47:59.957Z</time></trkpt><trkpt lat="42.64120343706776" lon="12.607297006731503"><ele>837.9999999999999</ele><time>2026-05-02T12:48:01.957Z</time></trkpt><trkpt lat="42.64123312265379" lon="12.60719176149734"><ele>838.0</ele><time>2026-05-02T12:48:55.957Z</time></trkpt><trkpt lat="42.64129141658052" lon="12.607145798914011"><ele>838.0</ele><time>2026-05-02T12:49:00.956Z</time></trkpt><trkpt lat="42.64133136300507" lon="12.607069302281474"><ele>838.0</ele><time>2026-05-02T12:49:01.956Z</time></trkpt><trkpt lat="42.641345549065015" lon="12.606946212730477"><ele>837.9999999999999</ele><time>2026-05-02T12:49:03.956Z</time></trkpt><trkpt lat="42.641332726344636" lon="12.60685942756964"><ele>838.0</ele><time>2026-05-02T12:49:04.956Z</time></trkpt><trkpt lat="42.64133741591119" lon="12.606702835611419"><ele>837.0</ele><time>2026-05-02T12:49:06.956Z</time></trkpt><trkpt lat="42.64136102315031" lon="12.60662312245179"><ele>836.0</ele><time>2026-05-02T12:49:07.956Z</time></trkpt><trkpt lat="42.64140598544166" lon="12.606476894924322"><ele>835.0</ele><time>2026-05-02T12:49:09.956Z</time></trkpt><trkpt lat="42.64143905615149" lon="12.606332419829691"><ele>834.0</ele><time>2026-05-02T12:49:11.956Z</time></trkpt><trkpt lat="42.641441484268654" lon="12.60617793300444"><ele>833.0</ele><time>2026-05-02T12:49:13.956Z</time></trkpt><trkpt lat="42.641469687126154" lon="12.60606173508859"><ele>832.4</ele><time>2026-05-02T12:49:15.956Z</time></trkpt><trkpt lat="42.641474042812845" lon="12.60595641906123"><ele>831.8</ele><time>2026-05-02T12:49:18.956Z</time></trkpt><trkpt lat="42.64146463953552" lon="12.605811024210942"><ele>831.2</ele><time>2026-05-02T12:49:21.956Z</time></trkpt><trkpt lat="42.64148333823742" lon="12.605708336219068"><ele>830.6</ele><time>2026-05-02T12:49:23.956Z</time></trkpt><trkpt lat="42.641523230555954" lon="12.605575297831566"><ele>830.0</ele><time>2026-05-02T12:49:25.956Z</time></trkpt><trkpt lat="42.64153144578029" lon="12.605458077677216"><ele>830.0</ele><time>2026-05-02T12:49:27.956Z</time></trkpt><trkpt lat="42.64152006386729" lon="12.605369422420251"><ele>830.0</ele><time>2026-05-02T12:49:29.956Z</time></trkpt><trkpt lat="42.6414992458796" lon="12.605261915531948"><ele>830.0</ele><time>2026-05-02T12:49:32.956Z</time></trkpt><trkpt lat="42.641515109238355" lon="12.605166930904284"><ele>830.0</ele><time>2026-05-02T12:49:34.956Z</time></trkpt><trkpt lat="42.64148666917614" lon="12.605068611939515"><ele>830.0</ele><time>2026-05-02T12:49:36.956Z</time></trkpt><trkpt lat="42.64146220418747" lon="12.604989142175699"><ele>830.0</ele><time>2026-05-02T12:49:38.956Z</time></trkpt><trkpt lat="42.64144901855261" lon="12.604877827904609"><ele>830.0</ele><time>2026-05-02T12:49:41.956Z</time></trkpt><trkpt lat="42.64141944237618" lon="12.604769142374279"><ele>829.8333333333334</ele><time>2026-05-02T12:49:52.956Z</time></trkpt><trkpt lat="42.64140357190262" lon="12.604669251993528"><ele>829.6666666666667</ele><time>2026-05-02T12:49:55.957Z</time></trkpt><trkpt lat="42.64140067142445" lon="12.604571102900113"><ele>829.5</ele><time>2026-05-02T12:49:57.956Z</time></trkpt><trkpt lat="42.641404563532525" lon="12.604483511230269"><ele>829.3333333333333</ele><time>2026-05-02T12:50:00.956Z</time></trkpt><trkpt lat="42.64139892388089" lon="12.604358725593928"><ele>829.1666666666666</ele><time>2026-05-02T12:50:04.955Z</time></trkpt><trkpt lat="42.64141721916292" lon="12.604253102310047"><ele>829.0</ele><time>2026-05-02T12:50:08.955Z</time></trkpt><trkpt lat="42.641477099139905" lon="12.604170366120872"><ele>828.1666666666666</ele><time>2026-05-02T12:50:11.955Z</time></trkpt><trkpt lat="42.64151132886485" lon="12.604066582020891"><ele>827.3333333333333</ele><time>2026-05-02T12:50:14.955Z</time></trkpt><trkpt lat="42.64156480553557" lon="12.603966850607737"><ele>826.5</ele><time>2026-05-02T12:50:17.955Z</time></trkpt><trkpt lat="42.64161932052673" lon="12.603876694868768"><ele>825.6666666666667</ele><time>2026-05-02T12:50:20.955Z</time></trkpt><trkpt lat="42.64161782504043" lon="12.60375146975195"><ele>824.8333333333334</ele><time>2026-05-02T12:50:23.955Z</time></trkpt><trkpt lat="42.64161269543501" lon="12.60363176014923"><ele>824.0</ele><time>2026-05-02T12:50:26.955Z</time></trkpt><trkpt lat="42.64159452604665" lon="12.60353393073433"><ele>822.6</ele><time>2026-05-02T12:50:28.955Z</time></trkpt><trkpt lat="42.64155039033458" lon="12.603444390092784"><ele>821.2</ele><time>2026-05-02T12:50:30.955Z</time></trkpt><trkpt lat="42.6415047469677" lon="12.603301003585571"><ele>819.8000000000001</ele><time>2026-05-02T12:50:32.955Z</time></trkpt><trkpt lat="42.64148570029983" lon="12.603167928809752"><ele>818.4000000000001</ele><time>2026-05-02T12:50:34.955Z</time></trkpt><trkpt lat="42.6414572010703" lon="12.603052614170187"><ele>817.0</ele><time>2026-05-02T12:50:36.955Z</time></trkpt><trkpt lat="42.641421898073006" lon="12.602964312700887"><ele>816.9999999999999</ele><time>2026-05-02T12:50:38.955Z</time></trkpt><trkpt lat="42.641369649230576" lon="12.60287432378821"><ele>817.0</ele><time>2026-05-02T12:50:40.955Z</time></trkpt><trkpt lat="42.641337480901505" lon="12.602782204916167"><ele>817.0</ele><time>2026-05-02T12:50:42.955Z</time></trkpt><trkpt lat="42.64129044110927" lon="12.602689149361854"><ele>817.0</ele><time>2026-05-02T12:50:45.955Z</time></trkpt><trkpt lat="42.64124834933015" lon="12.602611701193238"><ele>816.9999999999999</ele><time>2026-05-02T12:50:47.955Z</time></trkpt><trkpt lat="42.641165801809805" lon="12.602554869248971"><ele>817.0</ele><time>2026-05-02T12:50:49.955Z</time></trkpt><trkpt lat="42.64111987307921" lon="12.602481145416156"><ele>817.0</ele><time>2026-05-02T12:50:51.955Z</time></trkpt><trkpt lat="42.64107518188642" lon="12.602399293595175"><ele>817.0</ele><time>2026-05-02T12:50:53.955Z</time></trkpt><trkpt lat="42.64104326931262" lon="12.60231641877093"><ele>817.0</ele><time>2026-05-02T12:50:58.955Z</time></trkpt><trkpt lat="42.64096145195996" lon="12.60216222836026"><ele>817.0</ele><time>2026-05-02T12:52:06.954Z</time></trkpt><trkpt lat="42.64093656581749" lon="12.602072309966758"><ele>817.0</ele><time>2026-05-02T12:52:16.954Z</time></trkpt><trkpt lat="42.64088364307337" lon="12.601959180226537"><ele>814.0</ele><time>2026-05-02T12:52:19.954Z</time></trkpt><trkpt lat="42.64084632420434" lon="12.601835108579692"><ele>811.0</ele><time>2026-05-02T12:52:21.954Z</time></trkpt><trkpt lat="42.6407986678112" lon="12.601767296040999"><ele>808.0</ele><time>2026-05-02T12:52:23.954Z</time></trkpt><trkpt lat="42.64076036749185" lon="12.60165611234377"><ele>805.0</ele><time>2026-05-02T12:52:25.954Z</time></trkpt><trkpt lat="42.64074101835282" lon="12.601536411350232"><ele>802.0</ele><time>2026-05-02T12:52:27.954Z</time></trkpt><trkpt lat="42.640650825100984" lon="12.601434938461471"><ele>802.0</ele><time>2026-05-02T12:52:29.954Z</time></trkpt><trkpt lat="42.64056356329062" lon="12.60136141474647"><ele>802.0</ele><time>2026-05-02T12:52:31.954Z</time></trkpt><trkpt lat="42.640519094977385" lon="12.60129234834258"><ele>802.0</ele><time>2026-05-02T12:52:33.954Z</time></trkpt><trkpt lat="42.64052088674005" lon="12.601172472386061"><ele>802.0</ele><time>2026-05-02T12:52:34.954Z</time></trkpt><trkpt lat="42.640510947617585" lon="12.601071650360668"><ele>802.0</ele><time>2026-05-02T12:52:35.954Z</time></trkpt><trkpt lat="42.64050499948973" lon="12.600910724975735"><ele>800.4000000000001</ele><time>2026-05-02T12:52:37.954Z</time></trkpt><trkpt lat="42.64048926187377" lon="12.600786325832216"><ele>798.8000000000001</ele><time>2026-05-02T12:52:39.954Z</time></trkpt><trkpt lat="42.64047375987247" lon="12.600641720241015"><ele>797.2</ele><time>2026-05-02T12:52:41.954Z</time></trkpt><trkpt lat="42.64041624400585" lon="12.60049825867825"><ele>795.6</ele><time>2026-05-02T12:52:43.954Z</time></trkpt><trkpt lat="42.640376137889135" lon="12.600421743077883"><ele>794.0</ele><time>2026-05-02T12:52:44.954Z</time></trkpt><trkpt lat="42.64033203492454" lon="12.600359100590882"><ele>797.1666666666667</ele><time>2026-05-02T12:52:45.954Z</time></trkpt><trkpt lat="42.64028458532945" lon="12.600240564444151"><ele>800.3333333333334</ele><time>2026-05-02T12:52:47.954Z</time></trkpt><trkpt lat="42.64025061197169" lon="12.600137541650266"><ele>803.5</ele><time>2026-05-02T12:52:48.954Z</time></trkpt><trkpt lat="42.64022706514135" lon="12.600032538894327"><ele>806.6666666666667</ele><time>2026-05-02T12:52:49.954Z</time></trkpt><trkpt lat="42.64020069665021" lon="12.599929108713775"><ele>809.8333333333334</ele><time>2026-05-02T12:52:50.954Z</time></trkpt><trkpt lat="42.640178608149995" lon="12.599838829859241"><ele>813.0</ele><time>2026-05-02T12:52:51.954Z</time></trkpt><trkpt lat="42.64015144310602" lon="12.599720905666672"><ele>813.0</ele><time>2026-05-02T12:52:52.954Z</time></trkpt><trkpt lat="42.64012770762606" lon="12.599563886541885"><ele>813.0</ele><time>2026-05-02T12:52:54.954Z</time></trkpt><trkpt lat="42.64012223543628" lon="12.599453520083165"><ele>813.0</ele><time>2026-05-02T12:52:55.954Z</time></trkpt><trkpt lat="42.64013580177906" lon="12.59932380633657"><ele>813.0</ele><time>2026-05-02T12:52:56.954Z</time></trkpt><trkpt lat="42.64013361839469" lon="12.599197517169253"><ele>813.0</ele><time>2026-05-02T12:52:57.954Z</time></trkpt><trkpt lat="42.64013800265149" lon="12.599104075511942"><ele>812.5</ele><time>2026-05-02T12:52:58.954Z</time></trkpt><trkpt lat="42.64013947932634" lon="12.599013227835844"><ele>812.0</ele><time>2026-05-02T12:52:59.954Z</time></trkpt><trkpt lat="42.64014667054651" lon="12.598911016921468"><ele>811.5</ele><time>2026-05-02T12:53:00.954Z</time></trkpt><trkpt lat="42.64016577258644" lon="12.598810621110765"><ele>811.0</ele><time>2026-05-02T12:53:01.954Z</time></trkpt><trkpt lat="42.64011525602494" lon="12.598634022412423"><ele>810.5</ele><time>2026-05-02T12:53:03.954Z</time></trkpt><trkpt lat="42.640073257382774" lon="12.598554640733118"><ele>810.0</ele><time>2026-05-02T12:53:04.954Z</time></trkpt><trkpt lat="42.64000854652465" lon="12.598435717633874"><ele>809.1666666666666</ele><time>2026-05-02T12:53:06.954Z</time></trkpt><trkpt lat="42.63995179519496" lon="12.598355359245918"><ele>808.3333333333333</ele><time>2026-05-02T12:53:07.954Z</time></trkpt><trkpt lat="42.639910107958244" lon="12.59827120692464"><ele>807.5</ele><time>2026-05-02T12:53:08.954Z</time></trkpt><trkpt lat="42.63987107453171" lon="12.598186577088626"><ele>806.6666666666666</ele><time>2026-05-02T12:53:09.954Z</time></trkpt><trkpt lat="42.63980692449454" lon="12.598103229213322"><ele>805.8333333333333</ele><time>2026-05-02T12:53:11.954Z</time></trkpt><trkpt lat="42.639751236831124" lon="12.598056557318724"><ele>805.0</ele><time>2026-05-02T12:53:12.954Z</time></trkpt><trkpt lat="42.63966316379976" lon="12.597969232882258"><ele>804.9999999999999</ele><time>2026-05-02T12:53:14.953Z</time></trkpt><trkpt lat="42.639610580923325" lon="12.597920022197483"><ele>805.0</ele><time>2026-05-02T12:53:15.953Z</time></trkpt><trkpt lat="42.63953228978866" lon="12.597874452208108"><ele>805.0</ele><time>2026-05-02T12:53:17.953Z</time></trkpt><trkpt lat="42.639436378469654" lon="12.597805167955753"><ele>805.0</ele><time>2026-05-02T12:53:20.953Z</time></trkpt><trkpt lat="42.639350098074964" lon="12.59772415271281"><ele>804.9999999999999</ele><time>2026-05-02T12:53:22.953Z</time></trkpt><trkpt lat="42.63929673845174" lon="12.59764046572218"><ele>805.0</ele><time>2026-05-02T12:53:24.953Z</time></trkpt><trkpt lat="42.639249084735916" lon="12.5975645883409"><ele>805.8333333333333</ele><time>2026-05-02T12:53:25.953Z</time></trkpt><trkpt lat="42.639185438877384" lon="12.59749472738051"><ele>806.6666666666666</ele><time>2026-05-02T12:53:27.953Z</time></trkpt><trkpt lat="42.639134395460964" lon="12.597416130116187"><ele>807.5</ele><time>2026-05-02T12:53:29.953Z</time></trkpt><trkpt lat="42.63915922882413" lon="12.597286505153694"><ele>808.3333333333333</ele><time>2026-05-02T12:53:31.953Z</time></trkpt><trkpt lat="42.6391936125907" lon="12.597185792378616"><ele>809.1666666666666</ele><time>2026-05-02T12:53:33.953Z</time></trkpt><trkpt lat="42.63924810817252" lon="12.59708061824168"><ele>810.0</ele><time>2026-05-02T12:53:35.953Z</time></trkpt><trkpt lat="42.639304639937" lon="12.596973240682269"><ele>810.4</ele><time>2026-05-02T12:53:37.953Z</time></trkpt><trkpt lat="42.63938880189485" lon="12.596860529023292"><ele>810.8</ele><time>2026-05-02T12:53:39.953Z</time></trkpt><trkpt lat="42.639434377856766" lon="12.596777660175093"><ele>811.2</ele><time>2026-05-02T12:53:40.953Z</time></trkpt><trkpt lat="42.63948329894961" lon="12.596711481753001"><ele>811.6</ele><time>2026-05-02T12:53:41.953Z</time></trkpt><trkpt lat="42.63953830366975" lon="12.596581518605173"><ele>812.0</ele><time>2026-05-02T12:53:43.953Z</time></trkpt><trkpt lat="42.639533747206606" lon="12.596454653578963"><ele>812.0</ele><time>2026-05-02T12:53:46.953Z</time></trkpt><trkpt lat="42.639479452044974" lon="12.596388176625442"><ele>812.0</ele><time>2026-05-02T12:53:50.953Z</time></trkpt><trkpt lat="42.639432109531256" lon="12.59632062298786"><ele>812.0</ele><time>2026-05-02T12:53:54.953Z</time></trkpt><trkpt lat="42.63938093234286" lon="12.596257170434708"><ele>812.0</ele><time>2026-05-02T12:54:47.953Z</time></trkpt><trkpt lat="42.63932398242532" lon="12.596205752957049"><ele>812.0</ele><time>2026-05-02T12:54:53.953Z</time></trkpt><trkpt lat="42.63924559717574" lon="12.596159909676864"><ele>812.0</ele><time>2026-05-02T12:54:56.953Z</time></trkpt><trkpt lat="42.63919095082171" lon="12.596097586057754"><ele>812.0</ele><time>2026-05-02T12:54:59.953Z</time></trkpt><trkpt lat="42.63910252901893" lon="12.596036384552665"><ele>811.3333333333334</ele><time>2026-05-02T12:55:02.953Z</time></trkpt><trkpt lat="42.639027684943294" lon="12.59600082368592"><ele>810.6666666666667</ele><time>2026-05-02T12:55:04.952Z</time></trkpt><trkpt lat="42.63896444021276" lon="12.595964702584522"><ele>810.0</ele><time>2026-05-02T12:55:06.952Z</time></trkpt><trkpt lat="42.638914471222314" lon="12.59589756804596"><ele>809.3333333333333</ele><time>2026-05-02T12:55:12.952Z</time></trkpt><trkpt lat="42.63882214172446" lon="12.595799731572708"><ele>808.6666666666666</ele><time>2026-05-02T12:56:14.952Z</time></trkpt><trkpt lat="42.638824326681224" lon="12.59569786012536"><ele>808.0</ele><time>2026-05-02T12:56:16.952Z</time></trkpt><trkpt lat="42.63885192136383" lon="12.595607391214019"><ele>808.0</ele><time>2026-05-02T12:56:19.952Z</time></trkpt><trkpt lat="42.63891220784112" lon="12.595527755656192"><ele>808.0</ele><time>2026-05-02T12:56:21.952Z</time></trkpt><trkpt lat="42.638971830357995" lon="12.595423687262834"><ele>808.0</ele><time>2026-05-02T12:56:23.952Z</time></trkpt><trkpt lat="42.6390164976352" lon="12.59531722255313"><ele>808.0</ele><time>2026-05-02T12:56:25.952Z</time></trkpt><trkpt lat="42.63911087509388" lon="12.59521956541118"><ele>808.0</ele><time>2026-05-02T12:56:27.952Z</time></trkpt><trkpt lat="42.639170182442406" lon="12.59511611713106"><ele>807.9999999999999</ele><time>2026-05-02T12:56:29.952Z</time></trkpt><trkpt lat="42.63923272761638" lon="12.59502615410922"><ele>808.0</ele><time>2026-05-02T12:56:31.952Z</time></trkpt><trkpt lat="42.63932422495247" lon="12.595009350355555"><ele>808.0</ele><time>2026-05-02T12:56:33.952Z</time></trkpt><trkpt lat="42.63939016744624" lon="12.594978199259893"><ele>808.0</ele><time>2026-05-02T12:56:35.952Z</time></trkpt><trkpt lat="42.63947552164396" lon="12.594949811874274"><ele>807.9999999999999</ele><time>2026-05-02T12:56:37.952Z</time></trkpt><trkpt lat="42.63956632942148" lon="12.594937039138356"><ele>808.0</ele><time>2026-05-02T12:56:39.952Z</time></trkpt><trkpt lat="42.639657327924965" lon="12.594914057880457"><ele>808.0</ele><time>2026-05-02T12:56:41.952Z</time></trkpt><trkpt lat="42.63976264569673" lon="12.594876057672327"><ele>808.0</ele><time>2026-05-02T12:56:43.952Z</time></trkpt><trkpt lat="42.6398610863563" lon="12.594798998152203"><ele>808.0</ele><time>2026-05-02T12:56:45.952Z</time></trkpt><trkpt lat="42.63994172613157" lon="12.594719827936059"><ele>808.0</ele><time>2026-05-02T12:56:47.952Z</time></trkpt><trkpt lat="42.640002413517145" lon="12.594667970871061"><ele>808.0</ele><time>2026-05-02T12:56:48.952Z</time></trkpt><trkpt lat="42.640070803750326" lon="12.594588496510454"><ele>808.0</ele><time>2026-05-02T12:56:50.952Z</time></trkpt><trkpt lat="42.64012772353066" lon="12.594511120074438"><ele>808.0</ele><time>2026-05-02T12:56:52.952Z</time></trkpt><trkpt lat="42.64021669485448" lon="12.594399165942699"><ele>808.0</ele><time>2026-05-02T12:56:54.952Z</time></trkpt><trkpt lat="42.64024596137126" lon="12.594217718915386"><ele>808.0</ele><time>2026-05-02T12:56:56.952Z</time></trkpt><trkpt lat="42.640207290027895" lon="12.594140793366378"><ele>808.0</ele><time>2026-05-02T12:56:57.952Z</time></trkpt><trkpt lat="42.64009627701708" lon="12.594160009554129"><ele>809.7142857142857</ele><time>2026-05-02T12:56:58.952Z</time></trkpt><trkpt lat="42.64001628323613" lon="12.594134422926683"><ele>811.4285714285713</ele><time>2026-05-02T12:57:01.952Z</time></trkpt><trkpt lat="42.63994470676968" lon="12.594087575428965"><ele>813.1428571428571</ele><time>2026-05-02T12:57:04.951Z</time></trkpt><trkpt lat="42.63986734060249" lon="12.59405090373089"><ele>814.8571428571429</ele><time>2026-05-02T12:57:07.951Z</time></trkpt><trkpt lat="42.63979590003618" lon="12.594043286831967"><ele>816.5714285714286</ele><time>2026-05-02T12:57:10.951Z</time></trkpt><trkpt lat="42.63973338124399" lon="12.594020462070706"><ele>818.2857142857143</ele><time>2026-05-02T12:57:12.951Z</time></trkpt><trkpt lat="42.63967505149653" lon="12.59398209748131"><ele>820.0</ele><time>2026-05-02T12:57:14.951Z</time></trkpt><trkpt lat="42.63961192096887" lon="12.593931123830247"><ele>820.0</ele><time>2026-05-02T12:57:16.951Z</time></trkpt><trkpt lat="42.63954482422153" lon="12.593888097603966"><ele>820.0</ele><time>2026-05-02T12:57:18.951Z</time></trkpt><trkpt lat="42.63949905920764" lon="12.593824343849736"><ele>820.0</ele><time>2026-05-02T12:57:32.951Z</time></trkpt><trkpt lat="42.63943698565997" lon="12.593792134278445"><ele>820.0</ele><time>2026-05-02T12:58:38.952Z</time></trkpt><trkpt lat="42.63937840829157" lon="12.593740033404549"><ele>820.0</ele><time>2026-05-02T12:58:40.951Z</time></trkpt><trkpt lat="42.639303822231504" lon="12.593728822962076"><ele>820.0</ele><time>2026-05-02T12:58:42.951Z</time></trkpt><trkpt lat="42.63922026369962" lon="12.593672172365846"><ele>820.0</ele><time>2026-05-02T12:58:44.951Z</time></trkpt><trkpt lat="42.63913934834806" lon="12.593585045151023"><ele>822.8333333333333</ele><time>2026-05-02T12:58:46.951Z</time></trkpt><trkpt lat="42.63905822278739" lon="12.593507872232378"><ele>825.6666666666666</ele><time>2026-05-02T12:58:49.951Z</time></trkpt><trkpt lat="42.638970074584655" lon="12.593478983420049"><ele>828.5</ele><time>2026-05-02T12:58:52.951Z</time></trkpt><trkpt lat="42.6389067789406" lon="12.593477135938521"><ele>831.3333333333333</ele><time>2026-05-02T12:58:54.951Z</time></trkpt><trkpt lat="42.63882642755127" lon="12.593506515101305"><ele>834.1666666666666</ele><time>2026-05-02T12:58:56.951Z</time></trkpt><trkpt lat="42.63889132508339" lon="12.593514635617645"><ele>837.0</ele><time>2026-05-02T13:13:00.928Z</time></trkpt><trkpt lat="42.63895938462956" lon="12.593504987065446"><ele>837.0</ele><time>2026-05-02T13:13:04.928Z</time></trkpt><trkpt lat="42.63902304744286" lon="12.593555032465526"><ele>837.0</ele><time>2026-05-02T13:13:07.928Z</time></trkpt><trkpt lat="42.63907345029448" lon="12.593609627937944"><ele>837.0</ele><time>2026-05-02T13:13:09.928Z</time></trkpt><trkpt lat="42.63914408882531" lon="12.593657392744499"><ele>837.0</ele><time>2026-05-02T13:13:11.928Z</time></trkpt><trkpt lat="42.639205077321634" lon="12.59368496758628"><ele>837.0</ele><time>2026-05-02T13:13:13.928Z</time></trkpt><trkpt lat="42.63927075132745" lon="12.59373117631817"><ele>837.0</ele><time>2026-05-02T13:13:15.927Z</time></trkpt><trkpt lat="42.63934151470518" lon="12.593735892426889"><ele>837.0</ele><time>2026-05-02T13:13:18.927Z</time></trkpt><trkpt lat="42.63939876005794" lon="12.593792283184492"><ele>834.1666666666666</ele><time>2026-05-02T13:13:20.927Z</time></trkpt><trkpt lat="42.639479825629735" lon="12.593882489102407"><ele>831.3333333333333</ele><time>2026-05-02T13:13:22.927Z</time></trkpt><trkpt lat="42.6395518910497" lon="12.593953215019003"><ele>828.5</ele><time>2026-05-02T13:13:24.927Z</time></trkpt><trkpt lat="42.639614725515976" lon="12.59399718003884"><ele>825.6666666666666</ele><time>2026-05-02T13:13:26.927Z</time></trkpt><trkpt lat="42.639688937857095" lon="12.5940443811436"><ele>822.8333333333333</ele><time>2026-05-02T13:13:28.927Z</time></trkpt><trkpt lat="42.639763170149735" lon="12.594046456461635"><ele>820.0</ele><time>2026-05-02T13:13:31.927Z</time></trkpt><trkpt lat="42.63983058724236" lon="12.594057926786816"><ele>820.0</ele><time>2026-05-02T13:13:34.927Z</time></trkpt><trkpt lat="42.63989836149182" lon="12.594103380565171"><ele>820.0</ele><time>2026-05-02T13:13:38.927Z</time></trkpt><trkpt lat="42.6399561942172" lon="12.594155754776002"><ele>820.0</ele><time>2026-05-02T13:13:41.927Z</time></trkpt><trkpt lat="42.640024806294164" lon="12.59417915432602"><ele>820.0</ele><time>2026-05-02T13:13:44.927Z</time></trkpt><trkpt lat="42.64010295937362" lon="12.594194588531115"><ele>820.0</ele><time>2026-05-02T13:13:47.927Z</time></trkpt><trkpt lat="42.64016190157482" lon="12.594243767844002"><ele>820.0</ele><time>2026-05-02T13:13:50.927Z</time></trkpt><trkpt lat="42.64017417456116" lon="12.594342264403588"><ele>820.0</ele><time>2026-05-02T13:13:53.927Z</time></trkpt><trkpt lat="42.64013688525586" lon="12.594418219415276"><ele>820.0</ele><time>2026-05-02T13:13:56.927Z</time></trkpt><trkpt lat="42.64007865843481" lon="12.594489869046074"><ele>820.0</ele><time>2026-05-02T13:13:59.927Z</time></trkpt><trkpt lat="42.64003127588956" lon="12.594587512537016"><ele>820.0</ele><time>2026-05-02T13:14:02.927Z</time></trkpt><trkpt lat="42.6399786572738" lon="12.594647934281092"><ele>820.0</ele><time>2026-05-02T13:14:05.927Z</time></trkpt><trkpt lat="42.6399224381493" lon="12.594693908092914"><ele>820.0</ele><time>2026-05-02T13:14:09.927Z</time></trkpt><trkpt lat="42.63986674672272" lon="12.594740391134296"><ele>820.0</ele><time>2026-05-02T13:14:13.926Z</time></trkpt><trkpt lat="42.63981318378838" lon="12.59479329030016"><ele>820.0</ele><time>2026-05-02T13:14:16.926Z</time></trkpt><trkpt lat="42.63974653415174" lon="12.59483657547994"><ele>819.4999999999999</ele><time>2026-05-02T13:14:20.926Z</time></trkpt><trkpt lat="42.63967611171859" lon="12.594860737094375"><ele>819.0</ele><time>2026-05-02T13:14:25.926Z</time></trkpt><trkpt lat="42.6395796141593" lon="12.59488169757855"><ele>818.5</ele><time>2026-05-02T13:15:01.926Z</time></trkpt><trkpt lat="42.63951518772059" lon="12.594900809107063"><ele>818.0</ele><time>2026-05-02T13:15:03.926Z</time></trkpt><trkpt lat="42.639436208942335" lon="12.594896779495185"><ele>817.4999999999999</ele><time>2026-05-02T13:15:06.927Z</time></trkpt><trkpt lat="42.63934792198106" lon="12.594922718229808"><ele>817.0</ele><time>2026-05-02T13:15:08.926Z</time></trkpt><trkpt lat="42.63924648864807" lon="12.594969608176209"><ele>817.0</ele><time>2026-05-02T13:15:10.927Z</time></trkpt><trkpt lat="42.63915882145797" lon="12.595062497254366"><ele>817.0</ele><time>2026-05-02T13:15:12.927Z</time></trkpt><trkpt lat="42.63908018306679" lon="12.595184528361646"><ele>817.0</ele><time>2026-05-02T13:15:14.927Z</time></trkpt><trkpt lat="42.63902510175818" lon="12.595286379432805"><ele>817.0</ele><time>2026-05-02T13:15:16.926Z</time></trkpt><trkpt lat="42.638951839585545" lon="12.595360465479061"><ele>817.0</ele><time>2026-05-02T13:15:18.926Z</time></trkpt><trkpt lat="42.638904364492255" lon="12.595446274918459"><ele>815.4999999999999</ele><time>2026-05-02T13:15:21.926Z</time></trkpt><trkpt lat="42.63884261452394" lon="12.595495884541771"><ele>814.0</ele><time>2026-05-02T13:15:23.926Z</time></trkpt><trkpt lat="42.63879459909255" lon="12.595570606808142"><ele>812.5</ele><time>2026-05-02T13:15:24.926Z</time></trkpt><trkpt lat="42.63878318797806" lon="12.595657810350717"><ele>811.0</ele><time>2026-05-02T13:15:25.926Z</time></trkpt><trkpt lat="42.63883532707947" lon="12.595804442756425"><ele>809.4999999999999</ele><time>2026-05-02T13:15:26.926Z</time></trkpt><trkpt lat="42.63890881586645" lon="12.595882645429771"><ele>808.0</ele><time>2026-05-02T13:15:27.926Z</time></trkpt><trkpt lat="42.63896974895994" lon="12.595925017279752"><ele>808.0</ele><time>2026-05-02T13:15:28.926Z</time></trkpt><trkpt lat="42.63906147562393" lon="12.59598326681482"><ele>808.0</ele><time>2026-05-02T13:15:30.926Z</time></trkpt><trkpt lat="42.639154452311935" lon="12.596059888972851"><ele>808.0</ele><time>2026-05-02T13:15:32.926Z</time></trkpt><trkpt lat="42.6392233932996" lon="12.596065675454442"><ele>808.0</ele><time>2026-05-02T13:15:33.926Z</time></trkpt><trkpt lat="42.63931753606121" lon="12.59613782205359"><ele>808.0</ele><time>2026-05-02T13:15:35.926Z</time></trkpt><trkpt lat="42.63937541567819" lon="12.596211578884512"><ele>808.6666666666666</ele><time>2026-05-02T13:15:36.926Z</time></trkpt><trkpt lat="42.63943166785178" lon="12.59625943582126"><ele>809.3333333333333</ele><time>2026-05-02T13:15:37.926Z</time></trkpt><trkpt lat="42.6395148824079" lon="12.596349111806465"><ele>810.0</ele><time>2026-05-02T13:15:39.926Z</time></trkpt><trkpt lat="42.639553910742535" lon="12.596424780366391"><ele>810.6666666666667</ele><time>2026-05-02T13:15:41.926Z</time></trkpt><trkpt lat="42.63955221170478" lon="12.59653846472514"><ele>811.3333333333334</ele><time>2026-05-02T13:15:43.926Z</time></trkpt><trkpt lat="42.6394464221977" lon="12.596548130742784"><ele>812.0</ele><time>2026-05-02T13:16:08.926Z</time></trkpt><trkpt lat="42.63934243637449" lon="12.5965336557546"><ele>812.0000000000001</ele><time>2026-05-02T13:16:10.925Z</time></trkpt><trkpt lat="42.639277379792034" lon="12.596535520615872"><ele>812.0</ele><time>2026-05-02T13:16:11.925Z</time></trkpt><trkpt lat="42.639176549759505" lon="12.596541083955684"><ele>812.0</ele><time>2026-05-02T13:16:13.925Z</time></trkpt><trkpt lat="42.639110079176646" lon="12.596529118862438"><ele>812.0</ele><time>2026-05-02T13:18:03.923Z</time></trkpt><trkpt lat="42.63903616909824" lon="12.596496069914933"><ele>812.0000000000001</ele><time>2026-05-02T13:18:07.923Z</time></trkpt><trkpt lat="42.638974431405686" lon="12.596516474783549"><ele>812.0</ele><time>2026-05-02T13:18:09.923Z</time></trkpt><trkpt lat="42.63889137276257" lon="12.596530580532601"><ele>812.0000000000001</ele><time>2026-05-02T13:18:11.923Z</time></trkpt><trkpt lat="42.6388109876863" lon="12.5965539499948"><ele>812.0</ele><time>2026-05-02T13:18:13.923Z</time></trkpt><trkpt lat="42.63872751565772" lon="12.596588204897476"><ele>812.0</ele><time>2026-05-02T13:18:15.923Z</time></trkpt><trkpt lat="42.63865473009183" lon="12.596633734863289"><ele>812.0</ele><time>2026-05-02T13:18:17.923Z</time></trkpt><trkpt lat="42.63859054077714" lon="12.596677490399292"><ele>812.0000000000001</ele><time>2026-05-02T13:18:19.923Z</time></trkpt><trkpt lat="42.638499243879544" lon="12.596712248656134"><ele>812.0</ele><time>2026-05-02T13:18:21.923Z</time></trkpt><trkpt lat="42.638421805482366" lon="12.596755563556236"><ele>816.0</ele><time>2026-05-02T13:18:23.923Z</time></trkpt><trkpt lat="42.63835208391322" lon="12.59677689468708"><ele>820.0</ele><time>2026-05-02T13:18:25.923Z</time></trkpt><trkpt lat="42.63828673147854" lon="12.59677455806021"><ele>824.0</ele><time>2026-05-02T13:18:27.923Z</time></trkpt><trkpt lat="42.63822191765586" lon="12.596771682994978"><ele>828.0</ele><time>2026-05-02T13:18:30.923Z</time></trkpt><trkpt lat="42.63815273263135" lon="12.596750506546563"><ele>832.0</ele><time>2026-05-02T13:18:33.923Z</time></trkpt><trkpt lat="42.638233752629034" lon="12.5967533124642"><ele>836.0</ele><time>2026-05-02T13:26:39.918Z</time></trkpt><trkpt lat="42.63830959164233" lon="12.596743983757108"><ele>840.0</ele><time>2026-05-02T13:26:44.918Z</time></trkpt><trkpt lat="42.638388914978876" lon="12.596740362981803"><ele>840.0</ele><time>2026-05-02T13:27:18.917Z</time></trkpt><trkpt lat="42.63848145924691" lon="12.59669964464646"><ele>840.0</ele><time>2026-05-02T13:27:22.917Z</time></trkpt><trkpt lat="42.6385541757592" lon="12.59666451541693"><ele>840.0</ele><time>2026-05-02T13:27:24.917Z</time></trkpt><trkpt lat="42.63863011182723" lon="12.596624652473492"><ele>840.0</ele><time>2026-05-02T13:27:26.917Z</time></trkpt><trkpt lat="42.638686949379526" lon="12.596582473416293"><ele>840.0</ele><time>2026-05-02T13:27:28.917Z</time></trkpt><trkpt lat="42.638750575201264" lon="12.59654500944294"><ele>840.0</ele><time>2026-05-02T13:27:30.917Z</time></trkpt><trkpt lat="42.63882094054581" lon="12.596512678129763"><ele>836.0</ele><time>2026-05-02T13:27:32.917Z</time></trkpt><trkpt lat="42.638886301765105" lon="12.596503131364123"><ele>832.0</ele><time>2026-05-02T13:27:34.917Z</time></trkpt><trkpt lat="42.638959133181146" lon="12.59648667795505"><ele>828.0</ele><time>2026-05-02T13:27:36.917Z</time></trkpt><trkpt lat="42.639027231082366" lon="12.59646996616906"><ele>824.0</ele><time>2026-05-02T13:27:39.917Z</time></trkpt><trkpt lat="42.639099349757046" lon="12.596484764702742"><ele>820.0</ele><time>2026-05-02T13:27:44.917Z</time></trkpt><trkpt lat="42.639166502694884" lon="12.596520291014182"><ele>816.0</ele><time>2026-05-02T13:27:48.917Z</time></trkpt><trkpt lat="42.639253508864876" lon="12.59650886333512"><ele>812.0</ele><time>2026-05-02T13:27:51.917Z</time></trkpt><trkpt lat="42.639329699577445" lon="12.596505874658934"><ele>812.0000000000001</ele><time>2026-05-02T13:27:54.917Z</time></trkpt><trkpt lat="42.63940202608088" lon="12.59650466370216"><ele>812.0</ele><time>2026-05-02T13:27:57.917Z</time></trkpt><trkpt lat="42.63948353444379" lon="12.59652930699027"><ele>812.0</ele><time>2026-05-02T13:28:01.917Z</time></trkpt><trkpt lat="42.63957016093703" lon="12.596539982146949"><ele>812.0</ele><time>2026-05-02T13:28:04.917Z</time></trkpt><trkpt lat="42.639527962367254" lon="12.596644497942542"><ele>812.0000000000001</ele><time>2026-05-02T13:28:06.917Z</time></trkpt><trkpt lat="42.639491232072864" lon="12.596733275159227"><ele>812.0</ele><time>2026-05-02T13:28:08.917Z</time></trkpt><trkpt lat="42.6394195953996" lon="12.596779187032121"><ele>812.0000000000001</ele><time>2026-05-02T13:28:10.917Z</time></trkpt><trkpt lat="42.63936095839625" lon="12.596839659371387"><ele>812.0</ele><time>2026-05-02T13:28:12.917Z</time></trkpt><trkpt lat="42.63929312272228" lon="12.596909382259243"><ele>812.0</ele><time>2026-05-02T13:28:14.917Z</time></trkpt><trkpt lat="42.639229006543566" lon="12.596976597340856"><ele>812.0</ele><time>2026-05-02T13:28:16.917Z</time></trkpt><trkpt lat="42.63915757368454" lon="12.59705376011722"><ele>812.0000000000001</ele><time>2026-05-02T13:28:19.917Z</time></trkpt><trkpt lat="42.63910271653268" lon="12.597130273146202"><ele>812.0</ele><time>2026-05-02T13:28:22.916Z</time></trkpt><trkpt lat="42.639105122000906" lon="12.597307602589893"><ele>811.6</ele><time>2026-05-02T13:28:25.916Z</time></trkpt><trkpt lat="42.63916208344969" lon="12.59739406805175"><ele>811.2</ele><time>2026-05-02T13:28:27.916Z</time></trkpt><trkpt lat="42.63924190829313" lon="12.597504309704117"><ele>810.8</ele><time>2026-05-02T13:28:29.916Z</time></trkpt><trkpt lat="42.63933115402757" lon="12.597620156313617"><ele>810.4</ele><time>2026-05-02T13:28:31.916Z</time></trkpt><trkpt lat="42.63940868495116" lon="12.597705031759308"><ele>810.0</ele><time>2026-05-02T13:28:33.916Z</time></trkpt><trkpt lat="42.63950517762318" lon="12.597788577318413"><ele>808.75</ele><time>2026-05-02T13:28:36.916Z</time></trkpt><trkpt lat="42.639589053312754" lon="12.597856144272098"><ele>807.5</ele><time>2026-05-02T13:28:38.916Z</time></trkpt><trkpt lat="42.63975808721142" lon="12.597988662095286"><ele>806.25</ele><time>2026-05-02T13:28:41.916Z</time></trkpt><trkpt lat="42.639818609170185" lon="12.59806720224328"><ele>805.0</ele><time>2026-05-02T13:28:42.916Z</time></trkpt><trkpt lat="42.639871336754766" lon="12.598153634011734"><ele>805.0</ele><time>2026-05-02T13:28:43.916Z</time></trkpt><trkpt lat="42.6399225635796" lon="12.59824195397797"><ele>805.0</ele><time>2026-05-02T13:28:44.916Z</time></trkpt><trkpt lat="42.63999815980432" lon="12.598354311616996"><ele>805.0</ele><time>2026-05-02T13:28:46.916Z</time></trkpt><trkpt lat="42.640063447050714" lon="12.598461417443371"><ele>805.0</ele><time>2026-05-02T13:28:48.916Z</time></trkpt><trkpt lat="42.64010926395211" lon="12.598575184062428"><ele>805.0</ele><time>2026-05-02T13:28:50.916Z</time></trkpt><trkpt lat="42.640127911733046" lon="12.598745432262012"><ele>806.0</ele><time>2026-05-02T13:28:52.916Z</time></trkpt><trkpt lat="42.640117542754474" lon="12.598913093066404"><ele>807.0</ele><time>2026-05-02T13:28:54.916Z</time></trkpt><trkpt lat="42.64010220323162" lon="12.59899723139351"><ele>808.0</ele><time>2026-05-02T13:28:56.916Z</time></trkpt><trkpt lat="42.64008549031532" lon="12.599145312201061"><ele>809.0</ele><time>2026-05-02T13:28:58.916Z</time></trkpt><trkpt lat="42.640080858147144" lon="12.59930077247294"><ele>810.0</ele><time>2026-05-02T13:29:00.916Z</time></trkpt><trkpt lat="42.64010430401296" lon="12.599431883890269"><ele>810.4285714285713</ele><time>2026-05-02T13:29:02.916Z</time></trkpt><trkpt lat="42.64010784524307" lon="12.599529217805628"><ele>810.8571428571429</ele><time>2026-05-02T13:29:03.916Z</time></trkpt><trkpt lat="42.640120694900176" lon="12.599615881556527"><ele>811.2857142857142</ele><time>2026-05-02T13:29:04.916Z</time></trkpt><trkpt lat="42.640143014177866" lon="12.599707309779765"><ele>811.7142857142857</ele><time>2026-05-02T13:29:05.916Z</time></trkpt><trkpt lat="42.6401688565805" lon="12.599788109525312"><ele>812.1428571428571</ele><time>2026-05-02T13:29:06.916Z</time></trkpt><trkpt lat="42.64019746936992" lon="12.599880470306685"><ele>812.5714285714286</ele><time>2026-05-02T13:29:07.916Z</time></trkpt><trkpt lat="42.64022482926742" lon="12.599969623992775"><ele>813.0</ele><time>2026-05-02T13:29:08.916Z</time></trkpt><trkpt lat="42.64025590588443" lon="12.600064323049278"><ele>809.8333333333334</ele><time>2026-05-02T13:29:09.916Z</time></trkpt><trkpt lat="42.6403079936996" lon="12.600154876533924"><ele>806.6666666666667</ele><time>2026-05-02T13:29:10.916Z</time></trkpt><trkpt lat="42.64034530311987" lon="12.600242742852615"><ele>803.5</ele><time>2026-05-02T13:29:11.916Z</time></trkpt><trkpt lat="42.640385579016254" lon="12.60032665088807"><ele>800.3333333333334</ele><time>2026-05-02T13:29:12.916Z</time></trkpt><trkpt lat="42.64043042781904" lon="12.600404501214317"><ele>797.1666666666667</ele><time>2026-05-02T13:29:13.916Z</time></trkpt><trkpt lat="42.64045272071929" lon="12.600530108433398"><ele>794.0</ele><time>2026-05-02T13:29:14.916Z</time></trkpt><trkpt lat="42.640466890622754" lon="12.600621695203587"><ele>794.0000000000001</ele><time>2026-05-02T13:29:15.916Z</time></trkpt><trkpt lat="42.64047182461196" lon="12.600725819835134"><ele>794.0</ele><time>2026-05-02T13:29:16.916Z</time></trkpt><trkpt lat="42.64048324150606" lon="12.600824257559223"><ele>794.0</ele><time>2026-05-02T13:29:17.916Z</time></trkpt><trkpt lat="42.640475014481645" lon="12.600942522078226"><ele>794.0</ele><time>2026-05-02T13:29:18.916Z</time></trkpt><trkpt lat="42.64050230360697" lon="12.60103035360714"><ele>794.0000000000001</ele><time>2026-05-02T13:29:19.915Z</time></trkpt><trkpt lat="42.6405651005929" lon="12.601137464843614"><ele>794.0</ele><time>2026-05-02T13:29:21.915Z</time></trkpt><trkpt lat="42.64062870224579" lon="12.6012159826679"><ele>795.6</ele><time>2026-05-02T13:29:23.915Z</time></trkpt><trkpt lat="42.6406994638807" lon="12.601298990399696"><ele>797.2</ele><time>2026-05-02T13:29:25.915Z</time></trkpt><trkpt lat="42.64074623573525" lon="12.601423535308758"><ele>798.8000000000001</ele><time>2026-05-02T13:29:27.915Z</time></trkpt><trkpt lat="42.64079384354773" lon="12.601510406587199"><ele>800.4000000000001</ele><time>2026-05-02T13:29:29.915Z</time></trkpt><trkpt lat="42.64081640170929" lon="12.601640498242272"><ele>802.0</ele><time>2026-05-02T13:29:31.915Z</time></trkpt><trkpt lat="42.64084787892377" lon="12.601743546127407"><ele>801.9999999999999</ele><time>2026-05-02T13:29:33.915Z</time></trkpt><trkpt lat="42.640893214666015" lon="12.601863091666708"><ele>802.0</ele><time>2026-05-02T13:29:35.915Z</time></trkpt><trkpt lat="42.640933190288315" lon="12.60199166308336"><ele>802.0</ele><time>2026-05-02T13:29:37.915Z</time></trkpt><trkpt lat="42.640966465872694" lon="12.602078317764716"><ele>802.0</ele><time>2026-05-02T13:29:40.915Z</time></trkpt><trkpt lat="42.64103235259426" lon="12.60217318385613"><ele>801.9999999999999</ele><time>2026-05-02T13:29:42.915Z</time></trkpt><trkpt lat="42.64109172585101" lon="12.602242903362535"><ele>802.0</ele><time>2026-05-02T13:29:44.915Z</time></trkpt><trkpt lat="42.64114002170015" lon="12.602305498893037"><ele>803.6666666666666</ele><time>2026-05-02T13:29:49.915Z</time></trkpt><trkpt lat="42.64119638150098" lon="12.602360797638823"><ele>805.3333333333333</ele><time>2026-05-02T13:29:51.915Z</time></trkpt><trkpt lat="42.641293281598685" lon="12.602442785086598"><ele>807.0</ele><time>2026-05-02T13:29:53.915Z</time></trkpt><trkpt lat="42.641321520102416" lon="12.602523445196066"><ele>808.6666666666667</ele><time>2026-05-02T13:29:54.915Z</time></trkpt><trkpt lat="42.64136713045578" lon="12.602631342902862"><ele>810.3333333333334</ele><time>2026-05-02T13:29:56.915Z</time></trkpt><trkpt lat="42.64142233504898" lon="12.60269432802514"><ele>812.0</ele><time>2026-05-02T13:29:58.916Z</time></trkpt><trkpt lat="42.64144951527793" lon="12.602772204794006"><ele>812.8333333333334</ele><time>2026-05-02T13:29:59.916Z</time></trkpt><trkpt lat="42.64149674071355" lon="12.60291216259272"><ele>813.6666666666667</ele><time>2026-05-02T13:30:01.916Z</time></trkpt><trkpt lat="42.64151116521123" lon="12.603059133171465"><ele>814.5</ele><time>2026-05-02T13:30:03.916Z</time></trkpt><trkpt lat="42.64153430581254" lon="12.603168865596569"><ele>815.3333333333333</ele><time>2026-05-02T13:30:04.916Z</time></trkpt><trkpt lat="42.64156166500332" lon="12.603263895725558"><ele>816.1666666666666</ele><time>2026-05-02T13:30:05.916Z</time></trkpt><trkpt lat="42.641613074146235" lon="12.603318405202755"><ele>817.0</ele><time>2026-05-02T13:30:07.916Z</time></trkpt><trkpt lat="42.64162185354943" lon="12.603411876283502"><ele>817.0</ele><time>2026-05-02T13:30:09.916Z</time></trkpt><trkpt lat="42.64164591020574" lon="12.603526928421173"><ele>817.0</ele><time>2026-05-02T13:30:11.915Z</time></trkpt><trkpt lat="42.64164318544672" lon="12.60364789650164"><ele>817.0</ele><time>2026-05-02T13:30:13.915Z</time></trkpt><trkpt lat="42.64162219131663" lon="12.60377686073754"><ele>817.0</ele><time>2026-05-02T13:30:15.915Z</time></trkpt><trkpt lat="42.64155148395973" lon="12.603918895544053"><ele>817.0</ele><time>2026-05-02T13:30:17.915Z</time></trkpt><trkpt lat="42.64149547765301" lon="12.604051902317552"><ele>818.1666666666666</ele><time>2026-05-02T13:30:19.915Z</time></trkpt><trkpt lat="42.641456136149806" lon="12.604130199853024"><ele>819.3333333333333</ele><time>2026-05-02T13:30:20.915Z</time></trkpt><trkpt lat="42.64143778157844" lon="12.604229520406715"><ele>820.5</ele><time>2026-05-02T13:30:21.915Z</time></trkpt><trkpt lat="42.64143694785525" lon="12.604333515366552"><ele>821.6666666666667</ele><time>2026-05-02T13:30:22.915Z</time></trkpt><trkpt lat="42.64145051380888" lon="12.604434625809736"><ele>822.8333333333334</ele><time>2026-05-02T13:30:24.915Z</time></trkpt><trkpt lat="42.64145270372953" lon="12.604531680015203"><ele>824.0</ele><time>2026-05-02T13:30:27.915Z</time></trkpt><trkpt lat="42.64147167343861" lon="12.60463933744288"><ele>824.8333333333334</ele><time>2026-05-02T13:30:29.915Z</time></trkpt><trkpt lat="42.6415003402021" lon="12.604743684876011"><ele>825.6666666666667</ele><time>2026-05-02T13:30:32.915Z</time></trkpt><trkpt lat="42.64149964894987" lon="12.604838265212889"><ele>826.5</ele><time>2026-05-02T13:30:34.915Z</time></trkpt><trkpt lat="42.64153740315269" lon="12.604974889223676"><ele>827.3333333333333</ele><time>2026-05-02T13:30:37.915Z</time></trkpt><trkpt lat="42.64152035208697" lon="12.605086932660269"><ele>828.1666666666666</ele><time>2026-05-02T13:30:39.915Z</time></trkpt><trkpt lat="42.64153356019748" lon="12.605209886964802"><ele>829.0</ele><time>2026-05-02T13:30:41.915Z</time></trkpt><trkpt lat="42.641542933930424" lon="12.605325045830364"><ele>829.2</ele><time>2026-05-02T13:30:44.915Z</time></trkpt><trkpt lat="42.64152070627565" lon="12.605418576105945"><ele>829.4000000000001</ele><time>2026-05-02T13:30:46.915Z</time></trkpt><trkpt lat="42.64149323039141" lon="12.605547742342234"><ele>829.6</ele><time>2026-05-02T13:30:48.915Z</time></trkpt><trkpt lat="42.64148342587633" lon="12.60566750358946"><ele>829.8</ele><time>2026-05-02T13:30:50.915Z</time></trkpt><trkpt lat="42.64147613869196" lon="12.605806212935084"><ele>830.0</ele><time>2026-05-02T13:30:52.915Z</time></trkpt><trkpt lat="42.641469886942666" lon="12.60593344526655"><ele>830.0000000000001</ele><time>2026-05-02T13:30:54.915Z</time></trkpt><trkpt lat="42.64145516058498" lon="12.606046482007537"><ele>830.0</ele><time>2026-05-02T13:30:56.915Z</time></trkpt><trkpt lat="42.64144608941914" lon="12.606190740528886"><ele>830.0</ele><time>2026-05-02T13:30:58.915Z</time></trkpt><trkpt lat="42.6414170678899" lon="12.60634146896676"><ele>830.0</ele><time>2026-05-02T13:31:00.915Z</time></trkpt><trkpt lat="42.64139050416669" lon="12.60642404444006"><ele>830.0000000000001</ele><time>2026-05-02T13:31:01.915Z</time></trkpt><trkpt lat="42.641355041486015" lon="12.606504152998715"><ele>830.0</ele><time>2026-05-02T13:31:02.915Z</time></trkpt><trkpt lat="42.64132337654584" lon="12.606601182335655"><ele>830.6</ele><time>2026-05-02T13:31:03.915Z</time></trkpt><trkpt lat="42.6413076295863" lon="12.6066972818758"><ele>831.2</ele><time>2026-05-02T13:31:04.915Z</time></trkpt><trkpt lat="42.64128644829838" lon="12.60683962759388"><ele>831.8</ele><time>2026-05-02T13:31:06.915Z</time></trkpt><trkpt lat="42.64126344463545" lon="12.60700338397473"><ele>832.4</ele><time>2026-05-02T13:31:08.915Z</time></trkpt><trkpt lat="42.641253406676825" lon="12.607149188375208"><ele>833.0</ele><time>2026-05-02T13:31:10.914Z</time></trkpt><trkpt lat="42.64122623260103" lon="12.607253239919983"><ele>833.8333333333334</ele><time>2026-05-02T13:31:12.914Z</time></trkpt><trkpt lat="42.64118496193504" lon="12.607371176298312"><ele>834.6666666666667</ele><time>2026-05-02T13:31:14.914Z</time></trkpt><trkpt lat="42.64115377820273" lon="12.607448047003281"><ele>835.5</ele><time>2026-05-02T13:31:16.914Z</time></trkpt><trkpt lat="42.64117461209415" lon="12.60753489656545"><ele>836.3333333333333</ele><time>2026-05-02T13:31:18.914Z</time></trkpt><trkpt lat="42.641247680319445" lon="12.607611666887488"><ele>837.1666666666666</ele><time>2026-05-02T13:31:20.914Z</time></trkpt><trkpt lat="42.64129649158748" lon="12.60766701302488"><ele>838.0</ele><time>2026-05-02T13:31:21.914Z</time></trkpt><trkpt lat="42.641363913130796" lon="12.607729906842819"><ele>837.9999999999999</ele><time>2026-05-02T13:31:22.914Z</time></trkpt><trkpt lat="42.641416005625366" lon="12.607790043601923"><ele>838.0</ele><time>2026-05-02T13:31:23.914Z</time></trkpt><trkpt lat="42.641454137424624" lon="12.607923678369076"><ele>838.0</ele><time>2026-05-02T13:31:25.914Z</time></trkpt><trkpt lat="42.641542352891875" lon="12.607978455975053"><ele>838.0</ele><time>2026-05-02T13:31:28.914Z</time></trkpt><trkpt lat="42.641628316392925" lon="12.607992250150009"><ele>837.9999999999999</ele><time>2026-05-02T13:31:30.914Z</time></trkpt><trkpt lat="42.64170143779579" lon="12.60799097669001"><ele>838.0</ele><time>2026-05-02T13:31:32.914Z</time></trkpt><trkpt lat="42.64176855886546" lon="12.607960137275741"><ele>839.4</ele><time>2026-05-02T13:31:34.914Z</time></trkpt><trkpt lat="42.64185038377916" lon="12.607947365153386"><ele>840.8</ele><time>2026-05-02T13:31:36.914Z</time></trkpt><trkpt lat="42.64195214487213" lon="12.607993478725668"><ele>842.2</ele><time>2026-05-02T13:31:38.914Z</time></trkpt><trkpt lat="42.642033395105955" lon="12.60807060306208"><ele>843.6</ele><time>2026-05-02T13:31:40.914Z</time></trkpt><trkpt lat="42.64208785156478" lon="12.60817310023686"><ele>845.0</ele><time>2026-05-02T13:31:42.914Z</time></trkpt><trkpt lat="42.64208829776274" lon="12.608269046809642"><ele>846.5000000000001</ele><time>2026-05-02T13:31:44.914Z</time></trkpt><trkpt lat="42.64209758422896" lon="12.608376159341951"><ele>848.0</ele><time>2026-05-02T13:31:46.914Z</time></trkpt><trkpt lat="42.64210451190367" lon="12.60846792825798"><ele>849.5</ele><time>2026-05-02T13:31:48.914Z</time></trkpt><trkpt lat="42.64221374168442" lon="12.608486840734875"><ele>851.0</ele><time>2026-05-02T13:32:35.913Z</time></trkpt><trkpt lat="42.6422929767627" lon="12.608517438040346"><ele>852.5000000000001</ele><time>2026-05-02T13:32:38.913Z</time></trkpt><trkpt lat="42.642354472420756" lon="12.60848336525023"><ele>854.0</ele><time>2026-05-02T13:32:41.913Z</time></trkpt><trkpt lat="42.6424140126466" lon="12.608423554827368"><ele>854.0000000000001</ele><time>2026-05-02T13:32:43.913Z</time></trkpt><trkpt lat="42.64247423087353" lon="12.608342287948574"><ele>854.0</ele><time>2026-05-02T13:32:45.913Z</time></trkpt><trkpt lat="42.64255874446754" lon="12.608277618372155"><ele>854.0</ele><time>2026-05-02T13:32:47.913Z</time></trkpt><trkpt lat="42.64262896635093" lon="12.608229727116509"><ele>854.0</ele><time>2026-05-02T13:32:49.913Z</time></trkpt><trkpt lat="42.642697838549985" lon="12.608182756325697"><ele>854.0000000000001</ele><time>2026-05-02T13:32:51.913Z</time></trkpt><trkpt lat="42.64279275350344" lon="12.608119387371223"><ele>854.0</ele><time>2026-05-02T13:32:53.913Z</time></trkpt><trkpt lat="42.64285866895816" lon="12.608068665964083"><ele>854.8000000000001</ele><time>2026-05-02T13:32:56.913Z</time></trkpt><trkpt lat="42.64291170974129" lon="12.607977923255667"><ele>855.6000000000001</ele><time>2026-05-02T13:32:58.913Z</time></trkpt><trkpt lat="42.64300294599718" lon="12.607901898949073"><ele>856.4</ele><time>2026-05-02T13:33:00.913Z</time></trkpt><trkpt lat="42.64305106930998" lon="12.60784603357266"><ele>857.2</ele><time>2026-05-02T13:33:01.913Z</time></trkpt><trkpt lat="42.64312868979738" lon="12.60775307286873"><ele>858.0</ele><time>2026-05-02T13:33:03.913Z</time></trkpt><trkpt lat="42.64319136613346" lon="12.607645245420432"><ele>860.2</ele><time>2026-05-02T13:33:05.913Z</time></trkpt><trkpt lat="42.64324945812546" lon="12.607568094596552"><ele>862.4</ele><time>2026-05-02T13:33:07.913Z</time></trkpt><trkpt lat="42.643317150901936" lon="12.607508636349731"><ele>864.6000000000001</ele><time>2026-05-02T13:33:09.913Z</time></trkpt><trkpt lat="42.643443402262875" lon="12.607449867306306"><ele>866.8000000000001</ele><time>2026-05-02T13:33:11.913Z</time></trkpt><trkpt lat="42.64350551259757" lon="12.607398116488264"><ele>869.0</ele><time>2026-05-02T13:33:12.912Z</time></trkpt><trkpt lat="42.64358931584399" lon="12.607311488003427"><ele>868.8333333333334</ele><time>2026-05-02T13:33:14.912Z</time></trkpt><trkpt lat="42.64364771258639" lon="12.607227952117086"><ele>868.6666666666667</ele><time>2026-05-02T13:33:15.912Z</time></trkpt><trkpt lat="42.64368496040912" lon="12.60714575775735"><ele>868.5</ele><time>2026-05-02T13:33:16.912Z</time></trkpt><trkpt lat="42.64372330001985" lon="12.60705333621748"><ele>868.3333333333333</ele><time>2026-05-02T13:33:17.912Z</time></trkpt><trkpt lat="42.643759244071056" lon="12.606961211949603"><ele>868.1666666666666</ele><time>2026-05-02T13:33:18.912Z</time></trkpt><trkpt lat="42.64378149738784" lon="12.606872937259551"><ele>868.0</ele><time>2026-05-02T13:33:19.912Z</time></trkpt><trkpt lat="42.643803743451556" lon="12.606773958555811"><ele>868.0</ele><time>2026-05-02T13:33:21.912Z</time></trkpt><trkpt lat="42.64373351269853" lon="12.606620053756945"><ele>868.0</ele><time>2026-05-02T13:33:23.912Z</time></trkpt><trkpt lat="42.64380273669982" lon="12.606540238422184"><ele>868.0</ele><time>2026-05-02T13:33:25.912Z</time></trkpt><trkpt lat="42.643860375642255" lon="12.606447045473905"><ele>868.0</ele><time>2026-05-02T13:33:27.912Z</time></trkpt><trkpt lat="42.64391064118057" lon="12.606369062901585"><ele>868.0</ele><time>2026-05-02T13:33:29.912Z</time></trkpt><trkpt lat="42.6439765651364" lon="12.60627376126691"><ele>868.5999999999999</ele><time>2026-05-02T13:33:31.912Z</time></trkpt><trkpt lat="42.64406124808997" lon="12.606150302661971"><ele>869.1999999999999</ele><time>2026-05-02T13:33:33.912Z</time></trkpt><trkpt lat="42.644110133273415" lon="12.606091172931997"><ele>869.8</ele><time>2026-05-02T13:33:34.912Z</time></trkpt><trkpt lat="42.644210818539875" lon="12.60598073800308"><ele>870.4</ele><time>2026-05-02T13:33:36.912Z</time></trkpt><trkpt lat="42.644289282909426" lon="12.605878460643549"><ele>871.0</ele><time>2026-05-02T13:33:38.912Z</time></trkpt><trkpt lat="42.6443546464218" lon="12.605820737216956"><ele>871.0</ele><time>2026-05-02T13:33:40.912Z</time></trkpt><trkpt lat="42.64442159341712" lon="12.60577863483538"><ele>870.9999999999999</ele><time>2026-05-02T13:33:43.912Z</time></trkpt><trkpt lat="42.64450479314253" lon="12.605768635126218"><ele>870.9999999999999</ele><time>2026-05-02T13:33:46.912Z</time></trkpt><trkpt lat="42.64459545172146" lon="12.60579505121027"><ele>871.0</ele><time>2026-05-02T13:33:49.912Z</time></trkpt><trkpt lat="42.64471147167486" lon="12.605874598318161"><ele>871.0</ele><time>2026-05-02T13:33:51.912Z</time></trkpt><trkpt lat="42.644776719888156" lon="12.605927637806907"><ele>871.4999999999999</ele><time>2026-05-02T13:33:52.912Z</time></trkpt><trkpt lat="42.64483866733426" lon="12.605971290625613"><ele>872.0</ele><time>2026-05-02T13:33:53.912Z</time></trkpt><trkpt lat="42.644913520535376" lon="12.606004497536338"><ele>872.5</ele><time>2026-05-02T13:33:54.912Z</time></trkpt><trkpt lat="42.64498963677224" lon="12.606041556959202"><ele>873.0</ele><time>2026-05-02T13:33:55.912Z</time></trkpt><trkpt lat="42.645062154346405" lon="12.606089804755207"><ele>873.4999999999999</ele><time>2026-05-02T13:33:56.912Z</time></trkpt><trkpt lat="42.64513978762588" lon="12.606137335514275"><ele>874.0</ele><time>2026-05-02T13:33:57.912Z</time></trkpt><trkpt lat="42.64521230651853" lon="12.606161492835756"><ele>873.2</ele><time>2026-05-02T13:33:58.912Z</time></trkpt><trkpt lat="42.6453200876926" lon="12.606204921447423"><ele>872.4000000000001</ele><time>2026-05-02T13:34:00.912Z</time></trkpt><trkpt lat="42.64541466322721" lon="12.606240969453406"><ele>871.6</ele><time>2026-05-02T13:34:02.911Z</time></trkpt><trkpt lat="42.6455213777457" lon="12.606171117525253"><ele>870.8</ele><time>2026-05-02T13:34:04.912Z</time></trkpt><trkpt lat="42.64556798743828" lon="12.606087109409017"><ele>870.0</ele><time>2026-05-02T13:34:05.911Z</time></trkpt><trkpt lat="42.645618047417635" lon="12.606006556061264"><ele>870.0</ele><time>2026-05-02T13:34:06.912Z</time></trkpt><trkpt lat="42.64566673034435" lon="12.60591318116252"><ele>870.0</ele><time>2026-05-02T13:34:07.912Z</time></trkpt><trkpt lat="42.645772676647006" lon="12.60581550274643"><ele>870.0</ele><time>2026-05-02T13:34:09.912Z</time></trkpt><trkpt lat="42.64589395702314" lon="12.605818257900538"><ele>870.0</ele><time>2026-05-02T13:34:11.912Z</time></trkpt><trkpt lat="42.645977919432475" lon="12.605890575300652"><ele>870.0</ele><time>2026-05-02T13:34:12.912Z</time></trkpt><trkpt lat="42.64603870313275" lon="12.605975181668207"><ele>870.0</ele><time>2026-05-02T13:34:13.912Z</time></trkpt><trkpt lat="42.64608765230707" lon="12.606055016816304"><ele>870.0</ele><time>2026-05-02T13:34:14.912Z</time></trkpt><trkpt lat="42.64615028495917" lon="12.606142950089184"><ele>870.0</ele><time>2026-05-02T13:34:15.912Z</time></trkpt><trkpt lat="42.646221581683584" lon="12.606220181493146"><ele>870.0</ele><time>2026-05-02T13:34:16.912Z</time></trkpt><trkpt lat="42.64629345339609" lon="12.606264430734386"><ele>870.0</ele><time>2026-05-02T13:34:17.912Z</time></trkpt><trkpt lat="42.64635791914387" lon="12.606251628298791"><ele>870.0</ele><time>2026-05-02T13:34:18.912Z</time></trkpt><trkpt lat="42.646428818879215" lon="12.606223462289137"><ele>868.5</ele><time>2026-05-02T13:34:19.912Z</time></trkpt><trkpt lat="42.646498633825146" lon="12.60619884784986"><ele>867.0</ele><time>2026-05-02T13:34:20.912Z</time></trkpt><trkpt lat="42.64657854069599" lon="12.606121501209264"><ele>865.5</ele><time>2026-05-02T13:34:22.912Z</time></trkpt><trkpt lat="42.64664842756377" lon="12.606046991130908"><ele>864.0</ele><time>2026-05-02T13:34:24.912Z</time></trkpt><trkpt lat="42.646709604256394" lon="12.605972406316058"><ele>862.5</ele><time>2026-05-02T13:34:26.911Z</time></trkpt><trkpt lat="42.64675692506553" lon="12.605913445233607"><ele>861.0</ele><time>2026-05-02T13:34:27.911Z</time></trkpt><trkpt lat="42.64681690013233" lon="12.605814288707801"><ele>861.0</ele><time>2026-05-02T13:34:29.911Z</time></trkpt><trkpt lat="42.646832613735384" lon="12.605729925503002"><ele>861.0</ele><time>2026-05-02T13:34:31.911Z</time></trkpt><trkpt lat="42.64682553506439" lon="12.605584549915822"><ele>861.0</ele><time>2026-05-02T13:34:33.911Z</time></trkpt><trkpt lat="42.64682769586261" lon="12.605455209487618"><ele>861.0</ele><time>2026-05-02T13:34:34.911Z</time></trkpt><trkpt lat="42.64683299014256" lon="12.605345718901715"><ele>861.0</ele><time>2026-05-02T13:34:35.911Z</time></trkpt><trkpt lat="42.64685142091154" lon="12.605261994178175"><ele>861.0</ele><time>2026-05-02T13:34:36.911Z</time></trkpt><trkpt lat="42.646842395949186" lon="12.605103591790355"><ele>861.0</ele><time>2026-05-02T13:34:38.911Z</time></trkpt><trkpt lat="42.646850695931725" lon="12.60496913991229"><ele>861.0</ele><time>2026-05-02T13:34:40.911Z</time></trkpt><trkpt lat="42.64692407011963" lon="12.604822062213763"><ele>861.0</ele><time>2026-05-02T13:34:42.911Z</time></trkpt><trkpt lat="42.64702910643521" lon="12.604793419654108"><ele>861.0</ele><time>2026-05-02T13:34:44.911Z</time></trkpt><trkpt lat="42.64714030053307" lon="12.60484941909728"><ele>860.4</ele><time>2026-05-02T13:34:45.911Z</time></trkpt><trkpt lat="42.64722237228518" lon="12.604953959739456"><ele>859.8</ele><time>2026-05-02T13:34:46.911Z</time></trkpt><trkpt lat="42.647286355559686" lon="12.605044856696844"><ele>859.1999999999999</ele><time>2026-05-02T13:34:47.911Z</time></trkpt><trkpt lat="42.647365074295344" lon="12.605110423277198"><ele>858.5999999999999</ele><time>2026-05-02T13:34:48.911Z</time></trkpt><trkpt lat="42.64744204165078" lon="12.605138248656345"><ele>858.0</ele><time>2026-05-02T13:34:49.911Z</time></trkpt><trkpt lat="42.64752493375138" lon="12.605176105486779"><ele>858.0</ele><time>2026-05-02T13:34:50.911Z</time></trkpt><trkpt lat="42.64763908405061" lon="12.605294984650707"><ele>858.0</ele><time>2026-05-02T13:34:52.911Z</time></trkpt><trkpt lat="42.64770263484687" lon="12.605369599453597"><ele>858.0</ele><time>2026-05-02T13:34:53.911Z</time></trkpt><trkpt lat="42.64777095066303" lon="12.605448368735065"><ele>858.0</ele><time>2026-05-02T13:34:54.911Z</time></trkpt><trkpt lat="42.647845745678715" lon="12.605516765292823"><ele>858.0</ele><time>2026-05-02T13:34:55.911Z</time></trkpt><trkpt lat="42.64791982657415" lon="12.605582317532217"><ele>857.4</ele><time>2026-05-02T13:34:56.911Z</time></trkpt><trkpt lat="42.647997244485815" lon="12.605653700239403"><ele>856.8</ele><time>2026-05-02T13:34:57.911Z</time></trkpt><trkpt lat="42.64808917762774" lon="12.605718502593293"><ele>856.2</ele><time>2026-05-02T13:34:58.911Z</time></trkpt><trkpt lat="42.64818447613312" lon="12.605794033335554"><ele>855.6</ele><time>2026-05-02T13:34:59.911Z</time></trkpt><trkpt lat="42.64827266728746" lon="12.605874943373008"><ele>855.0</ele><time>2026-05-02T13:35:00.911Z</time></trkpt><trkpt lat="42.648353694647916" lon="12.605960178567598"><ele>855.0</ele><time>2026-05-02T13:35:01.911Z</time></trkpt><trkpt lat="42.648433195582264" lon="12.606046028215497"><ele>855.0</ele><time>2026-05-02T13:35:02.911Z</time></trkpt><trkpt lat="42.648506543275374" lon="12.606115864351414"><ele>855.0</ele><time>2026-05-02T13:35:03.911Z</time></trkpt><trkpt lat="42.64859256584693" lon="12.606184667429684"><ele>855.0</ele><time>2026-05-02T13:35:04.911Z</time></trkpt><trkpt lat="42.64868360547288" lon="12.606245640523655"><ele>855.0</ele><time>2026-05-02T13:35:05.911Z</time></trkpt><trkpt lat="42.64877452612336" lon="12.606275984364968"><ele>855.1666666666666</ele><time>2026-05-02T13:35:06.911Z</time></trkpt><trkpt lat="42.64885826920921" lon="12.606291466884182"><ele>855.3333333333333</ele><time>2026-05-02T13:35:07.911Z</time></trkpt><trkpt lat="42.64894058494474" lon="12.606280413048681"><ele>855.5</ele><time>2026-05-02T13:35:08.911Z</time></trkpt><trkpt lat="42.64901111268676" lon="12.606258243675885"><ele>855.6666666666666</ele><time>2026-05-02T13:35:09.911Z</time></trkpt><trkpt lat="42.64909138958659" lon="12.606179313520558"><ele>855.8333333333333</ele><time>2026-05-02T13:35:11.911Z</time></trkpt><trkpt lat="42.649134715300676" lon="12.606101246330969"><ele>856.0</ele><time>2026-05-02T13:35:15.911Z</time></trkpt><trkpt lat="42.64917556529438" lon="12.606025877552717"><ele>855.9999999999999</ele><time>2026-05-02T13:35:24.91Z</time></trkpt><trkpt lat="42.64921033112872" lon="12.60593029242652"><ele>856.0</ele><time>2026-05-02T13:35:49.91Z</time></trkpt><trkpt lat="42.64925569259149" lon="12.605828709022516"><ele>856.0</ele><time>2026-05-02T13:35:53.91Z</time></trkpt><trkpt lat="42.649290695184646" lon="12.605752566406194"><ele>856.0</ele><time>2026-05-02T13:35:55.91Z</time></trkpt><trkpt lat="42.6493376017446" lon="12.605670893302264"><ele>855.9999999999999</ele><time>2026-05-02T13:35:57.91Z</time></trkpt><trkpt lat="42.649394253746685" lon="12.605576958432444"><ele>856.0</ele><time>2026-05-02T13:35:59.91Z</time></trkpt><trkpt lat="42.64947610715865" lon="12.605488426282012"><ele>853.8</ele><time>2026-05-02T13:36:01.91Z</time></trkpt><trkpt lat="42.649569463597835" lon="12.605400534569613"><ele>851.5999999999999</ele><time>2026-05-02T13:36:03.91Z</time></trkpt><trkpt lat="42.64966300158604" lon="12.60536130354154"><ele>849.4</ele><time>2026-05-02T13:36:05.909Z</time></trkpt><trkpt lat="42.64976660096295" lon="12.605376466416697"><ele>847.2</ele><time>2026-05-02T13:36:07.909Z</time></trkpt><trkpt lat="42.64985518789255" lon="12.605392186426878"><ele>845.0</ele><time>2026-05-02T13:36:09.909Z</time></trkpt><trkpt lat="42.649921926661676" lon="12.60543824913397"><ele>845.0000000000001</ele><time>2026-05-02T13:36:11.909Z</time></trkpt><trkpt lat="42.649996622093326" lon="12.605563861195233"><ele>845.0</ele><time>2026-05-02T13:36:13.91Z</time></trkpt><trkpt lat="42.65004820923152" lon="12.605637046141686"><ele>845.0</ele><time>2026-05-02T13:36:14.909Z</time></trkpt><trkpt lat="42.65010753084657" lon="12.605706905641764"><ele>845.0</ele><time>2026-05-02T13:36:15.909Z</time></trkpt><trkpt lat="42.65016938858584" lon="12.605769667399679"><ele>845.0000000000001</ele><time>2026-05-02T13:36:16.909Z</time></trkpt><trkpt lat="42.650233402492354" lon="12.605831130383173"><ele>845.0</ele><time>2026-05-02T13:36:17.909Z</time></trkpt><trkpt lat="42.65030053582572" lon="12.605889883407347"><ele>843.8571428571428</ele><time>2026-05-02T13:36:18.909Z</time></trkpt><trkpt lat="42.65036953458703" lon="12.605942927722689"><ele>842.7142857142857</ele><time>2026-05-02T13:36:19.909Z</time></trkpt><trkpt lat="42.6504330442464" lon="12.605999084624889"><ele>841.5714285714286</ele><time>2026-05-02T13:36:20.909Z</time></trkpt><trkpt lat="42.65048889474964" lon="12.606051628441094"><ele>840.4285714285713</ele><time>2026-05-02T13:36:21.909Z</time></trkpt><trkpt lat="42.650552592378155" lon="12.606092961233363"><ele>839.2857142857143</ele><time>2026-05-02T13:36:22.909Z</time></trkpt><trkpt lat="42.65061856518393" lon="12.606116504583884"><ele>838.1428571428571</ele><time>2026-05-02T13:36:23.909Z</time></trkpt><trkpt lat="42.65069151188212" lon="12.60611052649908"><ele>837.0</ele><time>2026-05-02T13:36:24.909Z</time></trkpt><trkpt lat="42.65076295958286" lon="12.606109375323227"><ele>837.0</ele><time>2026-05-02T13:36:25.909Z</time></trkpt><trkpt lat="42.65082776160529" lon="12.606072649070942"><ele>837.0</ele><time>2026-05-02T13:36:26.909Z</time></trkpt><trkpt lat="42.65094427360183" lon="12.605989944087291"><ele>837.0</ele><time>2026-05-02T13:36:28.909Z</time></trkpt><trkpt lat="42.65101110696485" lon="12.60593203253882"><ele>837.0</ele><time>2026-05-02T13:36:29.909Z</time></trkpt><trkpt lat="42.651067211645085" lon="12.605862406760126"><ele>837.0</ele><time>2026-05-02T13:36:30.909Z</time></trkpt><trkpt lat="42.651160686317596" lon="12.605742411024227"><ele>833.6</ele><time>2026-05-02T13:36:32.909Z</time></trkpt><trkpt lat="42.65124466436378" lon="12.605655339175135"><ele>830.2</ele><time>2026-05-02T13:36:34.909Z</time></trkpt><trkpt lat="42.651332992064205" lon="12.605613858618637"><ele>826.8</ele><time>2026-05-02T13:36:36.909Z</time></trkpt><trkpt lat="42.65144295497931" lon="12.605565694763904"><ele>823.4</ele><time>2026-05-02T13:36:38.909Z</time></trkpt><trkpt lat="42.65153454178937" lon="12.605448954694275"><ele>820.0</ele><time>2026-05-02T13:36:40.908Z</time></trkpt><trkpt lat="42.651539443760086" lon="12.605351095396346"><ele>819.8</ele><time>2026-05-02T13:36:41.908Z</time></trkpt><trkpt lat="42.65150210416158" lon="12.60525685871811"><ele>819.6</ele><time>2026-05-02T13:36:42.908Z</time></trkpt><trkpt lat="42.6514349689249" lon="12.605203815586695"><ele>819.4000000000001</ele><time>2026-05-02T13:36:43.908Z</time></trkpt><trkpt lat="42.65137947892258" lon="12.605161966715666"><ele>819.2</ele><time>2026-05-02T13:36:44.908Z</time></trkpt><trkpt lat="42.65126297796053" lon="12.605122531960472"><ele>819.0</ele><time>2026-05-02T13:36:46.908Z</time></trkpt><trkpt lat="42.65113832385871" lon="12.60510203834992"><ele>820.6666666666666</ele><time>2026-05-02T13:36:48.908Z</time></trkpt><trkpt lat="42.65106426121329" lon="12.60509477782966"><ele>822.3333333333333</ele><time>2026-05-02T13:36:49.908Z</time></trkpt><trkpt lat="42.65099813114425" lon="12.605130067292427"><ele>824.0</ele><time>2026-05-02T13:36:50.908Z</time></trkpt><trkpt lat="42.650878145645876" lon="12.605124328077403"><ele>825.6666666666666</ele><time>2026-05-02T13:36:52.908Z</time></trkpt><trkpt lat="42.650777113780016" lon="12.60505666693188"><ele>827.3333333333333</ele><time>2026-05-02T13:36:54.908Z</time></trkpt><trkpt lat="42.65074388509768" lon="12.604981065819938"><ele>829.0</ele><time>2026-05-02T13:36:55.908Z</time></trkpt><trkpt lat="42.650722003415694" lon="12.604896599110454"><ele>828.9999999999999</ele><time>2026-05-02T13:36:56.908Z</time></trkpt><trkpt lat="42.650777225058235" lon="12.604799769662804"><ele>829.0</ele><time>2026-05-02T13:36:57.908Z</time></trkpt><trkpt lat="42.65083054532993" lon="12.604712978376064"><ele>829.0</ele><time>2026-05-02T13:36:59.908Z</time></trkpt><trkpt lat="42.650925225017374" lon="12.60479343122734"><ele>829.0</ele><time>2026-05-02T13:37:01.908Z</time></trkpt><trkpt lat="42.65099199462215" lon="12.60484768204271"><ele>828.9999999999999</ele><time>2026-05-02T13:37:03.908Z</time></trkpt><trkpt lat="42.651067754724124" lon="12.604821342821554"><ele>829.0</ele><time>2026-05-02T13:37:05.908Z</time></trkpt><trkpt lat="42.651109603689385" lon="12.604690981496365"><ele>829.0</ele><time>2026-05-02T13:37:07.908Z</time></trkpt><trkpt lat="42.651106143220275" lon="12.604521906061986"><ele>829.0</ele><time>2026-05-02T13:37:09.908Z</time></trkpt><trkpt lat="42.65109691463002" lon="12.604363203783894"><ele>829.0</ele><time>2026-05-02T13:37:11.908Z</time></trkpt><trkpt lat="42.65108818338822" lon="12.604225411396634"><ele>829.0</ele><time>2026-05-02T13:37:13.908Z</time></trkpt><trkpt lat="42.65101565629625" lon="12.604128686104978"><ele>829.0</ele><time>2026-05-02T13:37:15.908Z</time></trkpt><trkpt lat="42.6509254160018" lon="12.60409129701377"><ele>827.7142857142857</ele><time>2026-05-02T13:37:17.908Z</time></trkpt><trkpt lat="42.650872448488975" lon="12.604043209980583"><ele>826.4285714285713</ele><time>2026-05-02T13:37:19.908Z</time></trkpt><trkpt lat="42.65084411165076" lon="12.603960080904866"><ele>825.1428571428571</ele><time>2026-05-02T13:37:21.908Z</time></trkpt><trkpt lat="42.65085171584921" lon="12.6038709073933"><ele>823.8571428571429</ele><time>2026-05-02T13:37:25.908Z</time></trkpt><trkpt lat="42.65086260994145" lon="12.603756427012648"><ele>822.5714285714286</ele><time>2026-05-02T13:37:40.907Z</time></trkpt><trkpt lat="42.65092186719569" lon="12.603694323054281"><ele>821.2857142857143</ele><time>2026-05-02T13:37:42.907Z</time></trkpt><trkpt lat="42.65098915554244" lon="12.603674787708108"><ele>820.0</ele><time>2026-05-02T13:37:44.907Z</time></trkpt><trkpt lat="42.6510436860039" lon="12.603743731291715"><ele>817.8</ele><time>2026-05-02T13:37:46.907Z</time></trkpt><trkpt lat="42.65114104084084" lon="12.60383018412592"><ele>815.6</ele><time>2026-05-02T13:37:48.907Z</time></trkpt><trkpt lat="42.651204058088226" lon="12.603837536068724"><ele>813.4000000000001</ele><time>2026-05-02T13:37:49.907Z</time></trkpt><trkpt lat="42.651322085064834" lon="12.603830176333727"><ele>811.2</ele><time>2026-05-02T13:37:51.907Z</time></trkpt><trkpt lat="42.65141250740101" lon="12.603776017802828"><ele>809.0</ele><time>2026-05-02T13:37:53.907Z</time></trkpt><trkpt lat="42.6514807877848" lon="12.603783608137611"><ele>809.0000000000001</ele><time>2026-05-02T13:37:55.907Z</time></trkpt><trkpt lat="42.651594137529486" lon="12.603796449021392"><ele>809.0</ele><time>2026-05-02T13:37:57.907Z</time></trkpt><trkpt lat="42.6516634621845" lon="12.6037930268456"><ele>809.0</ele><time>2026-05-02T13:37:58.907Z</time></trkpt><trkpt lat="42.65172779066697" lon="12.603779176023368"><ele>809.0</ele><time>2026-05-02T13:37:59.907Z</time></trkpt><trkpt lat="42.651783982332404" lon="12.603734910236719"><ele>809.0000000000001</ele><time>2026-05-02T13:38:00.907Z</time></trkpt><trkpt lat="42.651895944852356" lon="12.60365229893776"><ele>809.0</ele><time>2026-05-02T13:38:02.907Z</time></trkpt><trkpt lat="42.652008216195384" lon="12.60358174734559"><ele>806.1666666666667</ele><time>2026-05-02T13:38:04.907Z</time></trkpt><trkpt lat="42.65210445282663" lon="12.60350271040685"><ele>803.3333333333334</ele><time>2026-05-02T13:38:06.907Z</time></trkpt><trkpt lat="42.65215316497879" lon="12.603443612693791"><ele>800.5</ele><time>2026-05-02T13:38:07.907Z</time></trkpt><trkpt lat="42.652221694141275" lon="12.60332691338814"><ele>797.6666666666667</ele><time>2026-05-02T13:38:09.906Z</time></trkpt><trkpt lat="42.6522424400739" lon="12.603243654348445"><ele>794.8333333333334</ele><time>2026-05-02T13:38:10.906Z</time></trkpt><trkpt lat="42.65230052395061" lon="12.603140020207988"><ele>792.0</ele><time>2026-05-02T13:38:12.906Z</time></trkpt><trkpt lat="42.65238465037509" lon="12.603040384371633"><ele>792.0</ele><time>2026-05-02T13:38:14.907Z</time></trkpt><trkpt lat="42.65244818218736" lon="12.60299006298464"><ele>792.0</ele><time>2026-05-02T13:38:15.906Z</time></trkpt><trkpt lat="42.65254029810881" lon="12.602905364560334"><ele>792.0</ele><time>2026-05-02T13:38:17.906Z</time></trkpt><trkpt lat="42.65263424467929" lon="12.602843727978902"><ele>792.0</ele><time>2026-05-02T13:38:19.907Z</time></trkpt><trkpt lat="42.6527005388533" lon="12.602842822086755"><ele>792.0</ele><time>2026-05-02T13:38:21.906Z</time></trkpt><trkpt lat="42.65281933113433" lon="12.602823020050906"><ele>790.6666666666666</ele><time>2026-05-02T13:38:23.906Z</time></trkpt><trkpt lat="42.652909639602036" lon="12.60279987033337"><ele>789.3333333333333</ele><time>2026-05-02T13:38:25.906Z</time></trkpt><trkpt lat="42.65298646088642" lon="12.602759938685148"><ele>788.0</ele><time>2026-05-02T13:38:27.906Z</time></trkpt><trkpt lat="42.653052270207795" lon="12.602739554137697"><ele>786.6666666666666</ele><time>2026-05-02T13:38:28.906Z</time></trkpt><trkpt lat="42.65312540558159" lon="12.602712522097113"><ele>785.3333333333333</ele><time>2026-05-02T13:38:29.906Z</time></trkpt><trkpt lat="42.65319283529496" lon="12.602679847752059"><ele>784.0</ele><time>2026-05-02T13:38:30.906Z</time></trkpt><trkpt lat="42.65329869152489" lon="12.602633910029361"><ele>784.0</ele><time>2026-05-02T13:38:32.906Z</time></trkpt><trkpt lat="42.653389735528464" lon="12.60256801631544"><ele>784.0</ele><time>2026-05-02T13:38:34.906Z</time></trkpt><trkpt lat="42.653496753286454" lon="12.602504431778367"><ele>784.0</ele><time>2026-05-02T13:38:36.906Z</time></trkpt><trkpt lat="42.6535644813489" lon="12.602487926055252"><ele>784.0</ele><time>2026-05-02T13:38:37.906Z</time></trkpt><trkpt lat="42.653677253039014" lon="12.602445243830484"><ele>784.0</ele><time>2026-05-02T13:38:39.906Z</time></trkpt><trkpt lat="42.65377768136629" lon="12.602385135256995"><ele>782.4000000000001</ele><time>2026-05-02T13:38:41.906Z</time></trkpt><trkpt lat="42.65387064944444" lon="12.60232637145337"><ele>780.8</ele><time>2026-05-02T13:38:43.906Z</time></trkpt><trkpt lat="42.65399013332031" lon="12.60227963284474"><ele>779.2</ele><time>2026-05-02T13:38:45.906Z</time></trkpt><trkpt lat="42.65407065586998" lon="12.602269625862444"><ele>777.5999999999999</ele><time>2026-05-02T13:38:46.906Z</time></trkpt><trkpt lat="42.65416071264114" lon="12.602255297506419"><ele>776.0</ele><time>2026-05-02T13:38:47.906Z</time></trkpt><trkpt lat="42.654260319634616" lon="12.60224794292636"><ele>776.0</ele><time>2026-05-02T13:38:48.906Z</time></trkpt><trkpt lat="42.65434260132918" lon="12.602222654914684"><ele>776.0</ele><time>2026-05-02T13:38:49.906Z</time></trkpt><trkpt lat="42.6544268098523" lon="12.60219544151292"><ele>776.0</ele><time>2026-05-02T13:38:50.906Z</time></trkpt><trkpt lat="42.65450729051914" lon="12.602166177110838"><ele>776.0</ele><time>2026-05-02T13:38:51.906Z</time></trkpt><trkpt lat="42.654585900471794" lon="12.602160429403028"><ele>776.0</ele><time>2026-05-02T13:38:52.906Z</time></trkpt><trkpt lat="42.654702044246825" lon="12.602135868130796"><ele>775.0</ele><time>2026-05-02T13:38:54.906Z</time></trkpt><trkpt lat="42.654770811143486" lon="12.602107202823435"><ele>774.0</ele><time>2026-05-02T13:38:55.906Z</time></trkpt><trkpt lat="42.65485911628176" lon="12.602085399264478"><ele>773.0</ele><time>2026-05-02T13:38:56.905Z</time></trkpt><trkpt lat="42.65493779397984" lon="12.602081549469005"><ele>772.0</ele><time>2026-05-02T13:38:57.905Z</time></trkpt><trkpt lat="42.655024205825335" lon="12.602091489140388"><ele>771.0</ele><time>2026-05-02T13:38:58.905Z</time></trkpt><trkpt lat="42.65515539901879" lon="12.602135624110224"><ele>771.0</ele><time>2026-05-02T13:39:00.905Z</time></trkpt><trkpt lat="42.65526616458727" lon="12.602105195943395"><ele>771.0</ele><time>2026-05-02T13:39:02.905Z</time></trkpt><trkpt lat="42.655328385281706" lon="12.602052562087348"><ele>771.0</ele><time>2026-05-02T13:39:03.905Z</time></trkpt><trkpt lat="42.65541056960011" lon="12.601993411899366"><ele>771.0</ele><time>2026-05-02T13:39:04.905Z</time></trkpt><trkpt lat="42.655477743821564" lon="12.601901560738963"><ele>771.0</ele><time>2026-05-02T13:39:05.905Z</time></trkpt><trkpt lat="42.6555484184522" lon="12.60183785506517"><ele>770.0</ele><time>2026-05-02T13:39:06.905Z</time></trkpt><trkpt lat="42.65561237050225" lon="12.601775149845109"><ele>769.0</ele><time>2026-05-02T13:39:07.905Z</time></trkpt><trkpt lat="42.65571581959054" lon="12.601684264748034"><ele>768.0</ele><time>2026-05-02T13:39:09.905Z</time></trkpt><trkpt lat="42.655804904986084" lon="12.601607492703751"><ele>767.0</ele><time>2026-05-02T13:39:11.905Z</time></trkpt><trkpt lat="42.65587267216192" lon="12.60154852730811"><ele>766.0</ele><time>2026-05-02T13:39:13.905Z</time></trkpt><trkpt lat="42.65592736283193" lon="12.601482008447533"><ele>766.0</ele><time>2026-05-02T13:39:15.905Z</time></trkpt><trkpt lat="42.65600378803969" lon="12.601424691949603"><ele>766.0</ele><time>2026-05-02T13:39:17.905Z</time></trkpt><trkpt lat="42.6560777935281" lon="12.601338122953313"><ele>766.0</ele><time>2026-05-02T13:39:19.905Z</time></trkpt><trkpt lat="42.656176480068225" lon="12.601263737568951"><ele>766.0</ele><time>2026-05-02T13:39:21.905Z</time></trkpt><trkpt lat="42.65625516806073" lon="12.601199575973727"><ele>766.0</ele><time>2026-05-02T13:39:23.905Z</time></trkpt><trkpt lat="42.656333703205206" lon="12.601118270914801"><ele>764.5</ele><time>2026-05-02T13:39:25.905Z</time></trkpt><trkpt lat="42.656388245046976" lon="12.601071101685829"><ele>763.0</ele><time>2026-05-02T13:39:27.905Z</time></trkpt><trkpt lat="42.65646065619019" lon="12.600997639569151"><ele>761.5</ele><time>2026-05-02T13:39:29.905Z</time></trkpt><trkpt lat="42.65656941395867" lon="12.60092983658975"><ele>760.0</ele><time>2026-05-02T13:39:31.905Z</time></trkpt><trkpt lat="42.656631914923544" lon="12.600906190279622"><ele>758.5</ele><time>2026-05-02T13:39:32.905Z</time></trkpt><trkpt lat="42.65672251679001" lon="12.600840206821546"><ele>757.0</ele><time>2026-05-02T13:39:34.905Z</time></trkpt><trkpt lat="42.65680813830283" lon="12.60077011716807"><ele>757.0</ele><time>2026-05-02T13:39:36.905Z</time></trkpt><trkpt lat="42.65687915700388" lon="12.60071850848707"><ele>757.0</ele><time>2026-05-02T13:39:38.905Z</time></trkpt><trkpt lat="42.65695737233532" lon="12.600651138287812"><ele>757.0</ele><time>2026-05-02T13:39:40.905Z</time></trkpt><trkpt lat="42.65704990682648" lon="12.60059160635335"><ele>757.0</ele><time>2026-05-02T13:39:42.905Z</time></trkpt><trkpt lat="42.657136345764684" lon="12.600561406775077"><ele>757.0</ele><time>2026-05-02T13:39:44.905Z</time></trkpt><trkpt lat="42.65720841991493" lon="12.600498667772182"><ele>756.8333333333334</ele><time>2026-05-02T13:39:47.905Z</time></trkpt><trkpt lat="42.65731072910605" lon="12.600525935647445"><ele>756.6666666666667</ele><time>2026-05-02T13:42:16.902Z</time></trkpt><trkpt lat="42.65739043384748" lon="12.600562983882488"><ele>756.5</ele><time>2026-05-02T13:42:20.901Z</time></trkpt><trkpt lat="42.657488547486686" lon="12.60056753671423"><ele>756.3333333333334</ele><time>2026-05-02T13:42:22.902Z</time></trkpt><trkpt lat="42.65756458413606" lon="12.60057648961932"><ele>756.1666666666666</ele><time>2026-05-02T13:42:23.902Z</time></trkpt><trkpt lat="42.65764718046478" lon="12.60058927290697"><ele>756.0</ele><time>2026-05-02T13:42:24.902Z</time></trkpt><trkpt lat="42.657717105085645" lon="12.600603309656206"><ele>756.0</ele><time>2026-05-02T13:42:25.902Z</time></trkpt><trkpt lat="42.65778070102394" lon="12.600624501533302"><ele>756.0</ele><time>2026-05-02T13:42:26.902Z</time></trkpt><trkpt lat="42.657891348044416" lon="12.600681841559883"><ele>756.0</ele><time>2026-05-02T13:42:28.902Z</time></trkpt><trkpt lat="42.65801062111596" lon="12.600765953364299"><ele>756.0</ele><time>2026-05-02T13:42:30.901Z</time></trkpt><trkpt lat="42.658076318495134" lon="12.600820675055699"><ele>756.0</ele><time>2026-05-02T13:42:31.901Z</time></trkpt><trkpt lat="42.658133113817705" lon="12.600869865831447"><ele>755.8</ele><time>2026-05-02T13:42:32.901Z</time></trkpt><trkpt lat="42.65819634799319" lon="12.600924633340647"><ele>755.5999999999999</ele><time>2026-05-02T13:42:33.902Z</time></trkpt><trkpt lat="42.65826887360819" lon="12.600993482317097"><ele>755.4</ele><time>2026-05-02T13:42:34.902Z</time></trkpt><trkpt lat="42.65834799550589" lon="12.601068264166479"><ele>755.2</ele><time>2026-05-02T13:42:35.901Z</time></trkpt><trkpt lat="42.65843241490448" lon="12.601148052924207"><ele>755.0</ele><time>2026-05-02T13:42:36.901Z</time></trkpt><trkpt lat="42.65851389515283" lon="12.601225063758957"><ele>755.0</ele><time>2026-05-02T13:42:37.901Z</time></trkpt><trkpt lat="42.65859430389456" lon="12.60130106186234"><ele>755.0</ele><time>2026-05-02T13:42:38.901Z</time></trkpt><trkpt lat="42.65866503927742" lon="12.601369018476081"><ele>755.0</ele><time>2026-05-02T13:42:39.901Z</time></trkpt><trkpt lat="42.658742032614406" lon="12.601444360261764"><ele>755.0</ele><time>2026-05-02T13:42:40.901Z</time></trkpt><trkpt lat="42.65881615908692" lon="12.601524050324286"><ele>755.0</ele><time>2026-05-02T13:42:41.901Z</time></trkpt><trkpt lat="42.658895456613806" lon="12.601617492389414"><ele>750.8</ele><time>2026-05-02T13:42:42.901Z</time></trkpt><trkpt lat="42.65895572564526" lon="12.601702415435845"><ele>746.6</ele><time>2026-05-02T13:42:43.901Z</time></trkpt><trkpt lat="42.65903196535698" lon="12.601847066350471"><ele>742.4000000000001</ele><time>2026-05-02T13:42:45.901Z</time></trkpt><trkpt lat="42.65908490641952" lon="12.601940545646375"><ele>738.2</ele><time>2026-05-02T13:42:46.901Z</time></trkpt><trkpt lat="42.65914334163661" lon="12.602019850664837"><ele>734.0</ele><time>2026-05-02T13:42:47.901Z</time></trkpt><trkpt lat="42.659194505567314" lon="12.60207419875088"><ele>734.0</ele><time>2026-05-02T13:42:48.901Z</time></trkpt><trkpt lat="42.65929182330071" lon="12.602161997054548"><ele>734.0</ele><time>2026-05-02T13:42:50.901Z</time></trkpt><trkpt lat="42.65935591796248" lon="12.602254265007517"><ele>734.0</ele><time>2026-05-02T13:42:52.901Z</time></trkpt><trkpt lat="42.65940819677946" lon="12.60239023770569"><ele>734.0</ele><time>2026-05-02T13:42:54.901Z</time></trkpt><trkpt lat="42.659448644452056" lon="12.60246524087727"><ele>734.0</ele><time>2026-05-02T13:42:55.901Z</time></trkpt><trkpt lat="42.65950477422667" lon="12.602623943664986"><ele>730.8000000000001</ele><time>2026-05-02T13:42:57.901Z</time></trkpt><trkpt lat="42.65956749298094" lon="12.602792561061557"><ele>727.6</ele><time>2026-05-02T13:42:59.901Z</time></trkpt><trkpt lat="42.6596008292405" lon="12.602909020728225"><ele>724.4</ele><time>2026-05-02T13:43:00.901Z</time></trkpt><trkpt lat="42.65962377599665" lon="12.603006818376134"><ele>721.2</ele><time>2026-05-02T13:43:01.901Z</time></trkpt><trkpt lat="42.65959502332838" lon="12.603133038147595"><ele>718.0</ele><time>2026-05-02T13:43:02.901Z</time></trkpt><trkpt lat="42.65962949869975" lon="12.603219725418858"><ele>718.0</ele><time>2026-05-02T13:43:03.901Z</time></trkpt><trkpt lat="42.65966703762384" lon="12.603313517709909"><ele>718.0</ele><time>2026-05-02T13:43:04.901Z</time></trkpt><trkpt lat="42.65971080815227" lon="12.60341884616871"><ele>718.0</ele><time>2026-05-02T13:43:05.901Z</time></trkpt><trkpt lat="42.65975358663715" lon="12.603493437090366"><ele>718.0</ele><time>2026-05-02T13:43:06.901Z</time></trkpt><trkpt lat="42.65980305339439" lon="12.603556737117799"><ele>718.0</ele><time>2026-05-02T13:43:07.901Z</time></trkpt><trkpt lat="42.65985947385227" lon="12.603637345985813"><ele>718.0</ele><time>2026-05-02T13:43:08.901Z</time></trkpt><trkpt lat="42.659903024570376" lon="12.603716190895986"><ele>718.1666666666667</ele><time>2026-05-02T13:43:09.901Z</time></trkpt><trkpt lat="42.659945104055" lon="12.603798560745133"><ele>718.3333333333334</ele><time>2026-05-02T13:43:10.901Z</time></trkpt><trkpt lat="42.659978428681995" lon="12.60389251991824"><ele>718.5</ele><time>2026-05-02T13:43:11.901Z</time></trkpt><trkpt lat="42.66001036611158" lon="12.603972622848898"><ele>718.6666666666666</ele><time>2026-05-02T13:43:12.901Z</time></trkpt><trkpt lat="42.660029426661374" lon="12.60406981689264"><ele>718.8333333333333</ele><time>2026-05-02T13:43:13.901Z</time></trkpt><trkpt lat="42.66004979016175" lon="12.6042435926564"><ele>719.0</ele><time>2026-05-02T13:43:15.901Z</time></trkpt><trkpt lat="42.6600774867387" lon="12.604394626552914"><ele>719.0</ele><time>2026-05-02T13:43:17.901Z</time></trkpt><trkpt lat="42.66009270603295" lon="12.604484090965826"><ele>719.0</ele><time>2026-05-02T13:43:18.901Z</time></trkpt><trkpt lat="42.66009920607455" lon="12.604588067819329"><ele>719.0</ele><time>2026-05-02T13:43:19.901Z</time></trkpt><trkpt lat="42.66007636743913" lon="12.60469411126882"><ele>719.0</ele><time>2026-05-02T13:43:20.901Z</time></trkpt><trkpt lat="42.66005736803148" lon="12.604793320404466"><ele>719.0</ele><time>2026-05-02T13:43:21.901Z</time></trkpt><trkpt lat="42.66003848318901" lon="12.604949566206116"><ele>719.0</ele><time>2026-05-02T13:43:23.901Z</time></trkpt><trkpt lat="42.66003889397282" lon="12.605039892423346"><ele>718.1666666666666</ele><time>2026-05-02T13:43:24.901Z</time></trkpt><trkpt lat="42.660048702614056" lon="12.60522266906312"><ele>717.3333333333333</ele><time>2026-05-02T13:43:26.901Z</time></trkpt><trkpt lat="42.6600439012897" lon="12.605320973042165"><ele>716.5</ele><time>2026-05-02T13:43:27.901Z</time></trkpt><trkpt lat="42.660030168976824" lon="12.605424232281443"><ele>715.6666666666666</ele><time>2026-05-02T13:43:28.901Z</time></trkpt><trkpt lat="42.66001801375601" lon="12.605516498226018"><ele>714.8333333333334</ele><time>2026-05-02T13:43:29.901Z</time></trkpt><trkpt lat="42.6600122826287" lon="12.605605900975883"><ele>714.0</ele><time>2026-05-02T13:43:30.901Z</time></trkpt><trkpt lat="42.66000639913031" lon="12.605698383700052"><ele>712.4000000000001</ele><time>2026-05-02T13:43:31.901Z</time></trkpt><trkpt lat="42.660013307055124" lon="12.605879382664774"><ele>710.8</ele><time>2026-05-02T13:43:33.9Z</time></trkpt><trkpt lat="42.66001256421376" lon="12.605976070359207"><ele>709.2</ele><time>2026-05-02T13:43:34.9Z</time></trkpt><trkpt lat="42.660038872070615" lon="12.606134325649457"><ele>707.5999999999999</ele><time>2026-05-02T13:43:36.9Z</time></trkpt><trkpt lat="42.66005097053133" lon="12.606277082654824"><ele>706.0</ele><time>2026-05-02T13:43:38.9Z</time></trkpt><trkpt lat="42.660092891504334" lon="12.606371637776357"><ele>706.0</ele><time>2026-05-02T13:43:40.9Z</time></trkpt><trkpt lat="42.66017111414953" lon="12.606453770983592"><ele>706.0</ele><time>2026-05-02T13:43:42.9Z</time></trkpt><trkpt lat="42.66021406107042" lon="12.60653800460511"><ele>706.0</ele><time>2026-05-02T13:43:44.9Z</time></trkpt><trkpt lat="42.66023438497133" lon="12.606646266639466"><ele>706.0</ele><time>2026-05-02T13:43:46.9Z</time></trkpt><trkpt lat="42.660211639926075" lon="12.606554886431706"><ele>706.0</ele><time>2026-05-02T13:44:06.9Z</time></trkpt><trkpt lat="42.66017249811409" lon="12.606442977413256"><ele>706.0</ele><time>2026-05-02T13:44:08.9Z</time></trkpt><trkpt lat="42.660108340824095" lon="12.606356346613788"><ele>706.0</ele><time>2026-05-02T13:44:10.9Z</time></trkpt><trkpt lat="42.66006183433862" lon="12.60620983227124"><ele>706.0</ele><time>2026-05-02T13:44:12.9Z</time></trkpt><trkpt lat="42.66005222429791" lon="12.606113365848397"><ele>706.0</ele><time>2026-05-02T13:44:14.9Z</time></trkpt><trkpt lat="42.66003746131924" lon="12.606216964807844"><ele>706.0</ele><time>2026-05-02T13:44:53.899Z</time></trkpt><trkpt lat="42.66008533085297" lon="12.606361313431547"><ele>706.0</ele><time>2026-05-02T13:44:55.899Z</time></trkpt><trkpt lat="42.660136909016096" lon="12.606450807899943"><ele>706.0</ele><time>2026-05-02T13:44:56.898Z</time></trkpt><trkpt lat="42.66021765031063" lon="12.606445589252761"><ele>706.0</ele><time>2026-05-02T13:44:57.898Z</time></trkpt><trkpt lat="42.66027532943573" lon="12.60648796066255"><ele>706.0</ele><time>2026-05-02T13:45:00.898Z</time></trkpt><trkpt lat="42.66044564444334" lon="12.606486016487215"><ele>706.0</ele><time>2026-05-02T13:46:03.897Z</time></trkpt><trkpt lat="42.66051438756533" lon="12.606499122937096"><ele>706.0</ele><time>2026-05-02T13:46:07.897Z</time></trkpt><trkpt lat="42.66059810781277" lon="12.60651824210533"><ele>703.8</ele><time>2026-05-02T13:46:11.897Z</time></trkpt><trkpt lat="42.660710588285866" lon="12.606552051959936"><ele>701.5999999999999</ele><time>2026-05-02T13:46:14.897Z</time></trkpt><trkpt lat="42.660808316261054" lon="12.606614228023503"><ele>699.4</ele><time>2026-05-02T13:46:16.897Z</time></trkpt><trkpt lat="42.660895260719485" lon="12.606606757237966"><ele>697.2</ele><time>2026-05-02T13:46:18.897Z</time></trkpt><trkpt lat="42.660957683527045" lon="12.606652683321585"><ele>695.0</ele><time>2026-05-02T13:46:20.897Z</time></trkpt><trkpt lat="42.66104392890686" lon="12.606690135687874"><ele>695.0</ele><time>2026-05-02T13:46:22.897Z</time></trkpt><trkpt lat="42.66096001429544" lon="12.606661185623832"><ele>695.0</ele><time>2026-05-02T13:46:29.897Z</time></trkpt><trkpt lat="42.660879397508104" lon="12.606625058358434"><ele>695.0</ele><time>2026-05-02T13:46:31.897Z</time></trkpt><trkpt lat="42.660818337381116" lon="12.606602234904713"><ele>695.0</ele><time>2026-05-02T13:46:32.897Z</time></trkpt><trkpt lat="42.66075604853328" lon="12.606569233746999"><ele>695.0</ele><time>2026-05-02T13:46:33.897Z</time></trkpt><trkpt lat="42.660695386867566" lon="12.606539383699877"><ele>695.0</ele><time>2026-05-02T13:46:34.897Z</time></trkpt><trkpt lat="42.66060098616329" lon="12.60663203867999"><ele>695.0000000000001</ele><time>2026-05-02T13:46:35.897Z</time></trkpt><trkpt lat="42.660530133139986" lon="12.606624239728282"><ele>695.0</ele><time>2026-05-02T13:46:36.897Z</time></trkpt><trkpt lat="42.660459131775156" lon="12.606633387673252"><ele>695.0</ele><time>2026-05-02T13:46:37.897Z</time></trkpt><trkpt lat="42.66038801764607" lon="12.606632967959682"><ele>695.0</ele><time>2026-05-02T13:46:38.897Z</time></trkpt><trkpt lat="42.66032143599975" lon="12.606631634794935"><ele>695.0</ele><time>2026-05-02T13:46:40.897Z</time></trkpt><trkpt lat="42.66033406204279" lon="12.606717681290869"><ele>695.0000000000001</ele><time>2026-05-02T13:47:06.897Z</time></trkpt><trkpt lat="42.6604222324895" lon="12.606688824872476"><ele>695.0</ele><time>2026-05-02T13:47:08.897Z</time></trkpt><trkpt lat="42.660484367007726" lon="12.606654398555422"><ele>695.0</ele><time>2026-05-02T13:47:09.897Z</time></trkpt><trkpt lat="42.66054707540511" lon="12.606635562359408"><ele>695.0</ele><time>2026-05-02T13:47:10.897Z</time></trkpt><trkpt lat="42.660621834231875" lon="12.606633336042858"><ele>695.0</ele><time>2026-05-02T13:47:11.897Z</time></trkpt><trkpt lat="42.66069820260986" lon="12.606636266483775"><ele>695.0</ele><time>2026-05-02T13:47:12.897Z</time></trkpt><trkpt lat="42.66081230510637" lon="12.60664136446882"><ele>695.0</ele><time>2026-05-02T13:47:14.897Z</time></trkpt><trkpt lat="42.660926234741964" lon="12.606644947876235"><ele>695.0</ele><time>2026-05-02T13:47:16.897Z</time></trkpt><trkpt lat="42.660992674256576" lon="12.606661515071481"><ele>695.0</ele><time>2026-05-02T13:47:17.897Z</time></trkpt><trkpt lat="42.66109881880637" lon="12.606706210589302"><ele>695.0</ele><time>2026-05-02T13:47:19.897Z</time></trkpt><trkpt lat="42.661040941040305" lon="12.606657937273567"><ele>695.0</ele><time>2026-05-02T13:47:25.897Z</time></trkpt><trkpt lat="42.660924733696795" lon="12.606648253998985"><ele>695.0</ele><time>2026-05-02T13:47:27.897Z</time></trkpt><trkpt lat="42.66084223737087" lon="12.606646878673386"><ele>695.0</ele><time>2026-05-02T13:47:28.897Z</time></trkpt><trkpt lat="42.66076228784098" lon="12.60664043686747"><ele>695.0</ele><time>2026-05-02T13:47:29.897Z</time></trkpt><trkpt lat="42.66069156601772" lon="12.606659662651204"><ele>695.0</ele><time>2026-05-02T13:47:30.897Z</time></trkpt><trkpt lat="42.660593672405795" lon="12.606448592015267"><ele>695.0</ele><time>2026-05-02T13:47:32.897Z</time></trkpt><trkpt lat="42.66048688660461" lon="12.606643050089717"><ele>695.0</ele><time>2026-05-02T13:47:33.897Z</time></trkpt><trkpt lat="42.660405589264826" lon="12.606643716479521"><ele>695.0</ele><time>2026-05-02T13:47:34.896Z</time></trkpt><trkpt lat="42.66033823606493" lon="12.606652178777406"><ele>695.0</ele><time>2026-05-02T13:47:35.896Z</time></trkpt><trkpt lat="42.66027371315745" lon="12.60666420485406"><ele>695.0</ele><time>2026-05-02T13:47:37.896Z</time></trkpt><trkpt lat="42.66034334594056" lon="12.60668703140881"><ele>695.0</ele><time>2026-05-02T13:47:43.896Z</time></trkpt><trkpt lat="42.660442328065905" lon="12.606655273583836"><ele>695.0</ele><time>2026-05-02T13:47:45.896Z</time></trkpt><trkpt lat="42.6605058790809" lon="12.606642415536323"><ele>695.0</ele><time>2026-05-02T13:47:47.896Z</time></trkpt><trkpt lat="42.66059106950287" lon="12.606654578174577"><ele>695.0</ele><time>2026-05-02T13:47:49.896Z</time></trkpt><trkpt lat="42.66066856786432" lon="12.60665999477186"><ele>695.0</ele><time>2026-05-02T13:47:51.896Z</time></trkpt><trkpt lat="42.660787543830004" lon="12.606657729466106"><ele>695.0</ele><time>2026-05-02T13:47:53.896Z</time></trkpt><trkpt lat="42.66085062983804" lon="12.606648697771204"><ele>695.0</ele><time>2026-05-02T13:47:54.896Z</time></trkpt><trkpt lat="42.660921090213286" lon="12.606646380421399"><ele>695.0</ele><time>2026-05-02T13:47:55.896Z</time></trkpt><trkpt lat="42.661043782277474" lon="12.606668730752265"><ele>695.0</ele><time>2026-05-02T13:47:57.896Z</time></trkpt><trkpt lat="42.66110166360276" lon="12.606704979392948"><ele>695.0</ele><time>2026-05-02T13:47:58.896Z</time></trkpt><trkpt lat="42.66116395527624" lon="12.606689618567088"><ele>695.0</ele><time>2026-05-02T13:48:00.896Z</time></trkpt><trkpt lat="42.66110368585347" lon="12.606648160189058"><ele>695.0</ele><time>2026-05-02T13:48:02.896Z</time></trkpt><trkpt lat="42.6610402570465" lon="12.606641276593349"><ele>695.0</ele><time>2026-05-02T13:48:03.896Z</time></trkpt><trkpt lat="42.66094330897416" lon="12.606643060202511"><ele>695.0</ele><time>2026-05-02T13:48:04.896Z</time></trkpt><trkpt lat="42.66084497294308" lon="12.606634178066088"><ele>695.0</ele><time>2026-05-02T13:48:05.896Z</time></trkpt><trkpt lat="42.66073973987787" lon="12.606662673728477"><ele>695.0</ele><time>2026-05-02T13:48:06.896Z</time></trkpt><trkpt lat="42.66066693755025" lon="12.606673247560067"><ele>695.0</ele><time>2026-05-02T13:48:07.896Z</time></trkpt><trkpt lat="42.66059346143748" lon="12.606666966536793"><ele>695.0</ele><time>2026-05-02T13:48:08.896Z</time></trkpt><trkpt lat="42.66052945454282" lon="12.606644166157867"><ele>695.0</ele><time>2026-05-02T13:48:09.896Z</time></trkpt><trkpt lat="42.66043677063532" lon="12.606634113785761"><ele>695.0</ele><time>2026-05-02T13:48:10.896Z</time></trkpt><trkpt lat="42.660359886918094" lon="12.606631683724038"><ele>695.0</ele><time>2026-05-02T13:48:11.896Z</time></trkpt><trkpt lat="42.66030781068718" lon="12.606397610600158"><ele>695.0</ele><time>2026-05-02T13:48:13.896Z</time></trkpt><trkpt lat="42.66028263230277" lon="12.606656260853407"><ele>695.0</ele><time>2026-05-02T13:48:14.896Z</time></trkpt><trkpt lat="42.66034980059437" lon="12.606655176324113"><ele>695.0</ele><time>2026-05-02T13:49:50.894Z</time></trkpt><trkpt lat="42.66044996339033" lon="12.606646543116492"><ele>695.0</ele><time>2026-05-02T13:49:52.894Z</time></trkpt><trkpt lat="42.66057602456966" lon="12.606644009042409"><ele>695.0</ele><time>2026-05-02T13:49:54.894Z</time></trkpt><trkpt lat="42.66064540648504" lon="12.606531325248065"><ele>695.0</ele><time>2026-05-02T13:49:55.894Z</time></trkpt><trkpt lat="42.6607589562382" lon="12.606571553543723"><ele>695.0</ele><time>2026-05-02T13:49:57.894Z</time></trkpt><trkpt lat="42.660860878239944" lon="12.606635399631422"><ele>695.0</ele><time>2026-05-02T13:49:59.894Z</time></trkpt><trkpt lat="42.660984993234436" lon="12.606651673528978"><ele>695.0</ele><time>2026-05-02T13:50:01.894Z</time></trkpt><trkpt lat="42.661072085747904" lon="12.606683936826496"><ele>695.0</ele><time>2026-05-02T13:50:02.894Z</time></trkpt><trkpt lat="42.66115296956576" lon="12.606714494539368"><ele>695.0</ele><time>2026-05-02T13:50:03.894Z</time></trkpt><trkpt lat="42.66123392833227" lon="12.606728200494826"><ele>695.0</ele><time>2026-05-02T13:50:04.894Z</time></trkpt><trkpt lat="42.66131825380352" lon="12.606723743726985"><ele>694.2</ele><time>2026-05-02T13:50:05.894Z</time></trkpt><trkpt lat="42.6613992197924" lon="12.606685842249291"><ele>693.4</ele><time>2026-05-02T13:50:06.894Z</time></trkpt><trkpt lat="42.66146864286565" lon="12.606638548617367"><ele>692.5999999999999</ele><time>2026-05-02T13:50:07.894Z</time></trkpt><trkpt lat="42.66156101563469" lon="12.606558839296635"><ele>691.8</ele><time>2026-05-02T13:50:09.894Z</time></trkpt><trkpt lat="42.66165367369602" lon="12.60648230818717"><ele>691.0</ele><time>2026-05-02T13:50:11.894Z</time></trkpt><trkpt lat="42.66176771194227" lon="12.606412849847016"><ele>691.0</ele><time>2026-05-02T13:50:13.894Z</time></trkpt><trkpt lat="42.66189634760542" lon="12.606385070871362"><ele>691.0</ele><time>2026-05-02T13:50:15.894Z</time></trkpt><trkpt lat="42.66200428025522" lon="12.606396717426987"><ele>691.0</ele><time>2026-05-02T13:50:17.893Z</time></trkpt><trkpt lat="42.66207422344448" lon="12.6064270321023"><ele>691.0</ele><time>2026-05-02T13:50:18.893Z</time></trkpt><trkpt lat="42.662141034834654" lon="12.606458548573597"><ele>691.0</ele><time>2026-05-02T13:50:19.893Z</time></trkpt><trkpt lat="42.662242120674115" lon="12.606506805888072"><ele>690.4</ele><time>2026-05-02T13:50:21.893Z</time></trkpt><trkpt lat="42.66234555171629" lon="12.606547063297036"><ele>689.8</ele><time>2026-05-02T13:50:23.893Z</time></trkpt><trkpt lat="42.6624193286998" lon="12.606581818865127"><ele>689.1999999999999</ele><time>2026-05-02T13:50:25.893Z</time></trkpt><trkpt lat="42.66249436326667" lon="12.606610270722443"><ele>688.5999999999999</ele><time>2026-05-02T13:50:28.893Z</time></trkpt><trkpt lat="42.662576050755455" lon="12.606686287471783"><ele>688.0</ele><time>2026-05-02T13:50:30.893Z</time></trkpt><trkpt lat="42.662630596756394" lon="12.606802844539612"><ele>688.0</ele><time>2026-05-02T13:50:32.893Z</time></trkpt><trkpt lat="42.66268639743528" lon="12.606903949721769"><ele>688.0</ele><time>2026-05-02T13:50:34.893Z</time></trkpt><trkpt lat="42.662690458191236" lon="12.607022309577262"><ele>688.0</ele><time>2026-05-02T13:50:36.893Z</time></trkpt><trkpt lat="42.66265013663211" lon="12.607135992067859"><ele>688.0</ele><time>2026-05-02T13:50:38.893Z</time></trkpt><trkpt lat="42.66256976732445" lon="12.60723416767234"><ele>688.0</ele><time>2026-05-02T13:50:40.893Z</time></trkpt><trkpt lat="42.662517084698" lon="12.607293943502471"><ele>685.2</ele><time>2026-05-02T13:50:41.893Z</time></trkpt><trkpt lat="42.66241275853877" lon="12.607384447972315"><ele>682.4</ele><time>2026-05-02T13:50:43.893Z</time></trkpt><trkpt lat="42.66233695735568" lon="12.607502021013229"><ele>679.6</ele><time>2026-05-02T13:50:45.892Z</time></trkpt><trkpt lat="42.6622578215965" lon="12.607619662058728"><ele>676.8000000000001</ele><time>2026-05-02T13:50:47.892Z</time></trkpt><trkpt lat="42.6622095892259" lon="12.607688410141416"><ele>674.0</ele><time>2026-05-02T13:50:48.893Z</time></trkpt><trkpt lat="42.66214436045702" lon="12.60774411475365"><ele>674.0</ele><time>2026-05-02T13:50:49.893Z</time></trkpt><trkpt lat="42.662050563189744" lon="12.607823687141734"><ele>674.0</ele><time>2026-05-02T13:50:51.892Z</time></trkpt><trkpt lat="42.662020228707696" lon="12.607899762333933"><ele>674.0</ele><time>2026-05-02T13:50:52.892Z</time></trkpt><trkpt lat="42.66201184514079" lon="12.608074300574561"><ele>674.0</ele><time>2026-05-02T13:50:54.892Z</time></trkpt><trkpt lat="42.66208319831694" lon="12.608165288905415"><ele>674.0</ele><time>2026-05-02T13:50:56.892Z</time></trkpt><trkpt lat="42.66218186786163" lon="12.60823890054991"><ele>671.5</ele><time>2026-05-02T13:50:58.893Z</time></trkpt><trkpt lat="42.66228945311745" lon="12.608280056309333"><ele>669.0</ele><time>2026-05-02T13:51:00.893Z</time></trkpt><trkpt lat="42.66234097353" lon="12.608332000039844"><ele>666.5</ele><time>2026-05-02T13:51:02.893Z</time></trkpt><trkpt lat="42.6623923279658" lon="12.608403800182415"><ele>664.0</ele><time>2026-05-02T13:51:09.892Z</time></trkpt><trkpt lat="42.66244608780444" lon="12.608508228264624"><ele>661.5</ele><time>2026-05-02T13:51:12.892Z</time></trkpt><trkpt lat="42.6624805448493" lon="12.608607273584123"><ele>659.0</ele><time>2026-05-02T13:51:14.892Z</time></trkpt><trkpt lat="42.66249900629167" lon="12.608771258073642"><ele>658.3333333333333</ele><time>2026-05-02T13:51:16.892Z</time></trkpt><trkpt lat="42.66251837541089" lon="12.608911651965931"><ele>657.6666666666666</ele><time>2026-05-02T13:51:18.892Z</time></trkpt><trkpt lat="42.662546598583944" lon="12.609010307775572"><ele>657.0</ele><time>2026-05-02T13:51:20.892Z</time></trkpt><trkpt lat="42.66259785364496" lon="12.60906909829474"><ele>656.3333333333334</ele><time>2026-05-02T13:51:21.892Z</time></trkpt><trkpt lat="42.66265273958284" lon="12.609127148812448"><ele>655.6666666666667</ele><time>2026-05-02T13:51:22.892Z</time></trkpt><trkpt lat="42.662703760601914" lon="12.609181758901792"><ele>655.0</ele><time>2026-05-02T13:51:23.892Z</time></trkpt><trkpt lat="42.66277878179886" lon="12.609305782461453"><ele>653.2</ele><time>2026-05-02T13:51:25.892Z</time></trkpt><trkpt lat="42.66283901775372" lon="12.609443635150802"><ele>651.4</ele><time>2026-05-02T13:51:27.892Z</time></trkpt><trkpt lat="42.66285937287091" lon="12.609595689737622"><ele>649.5999999999999</ele><time>2026-05-02T13:51:29.892Z</time></trkpt><trkpt lat="42.66288561891751" lon="12.609712457961852"><ele>647.8</ele><time>2026-05-02T13:51:31.892Z</time></trkpt><trkpt lat="42.66292060200114" lon="12.609795128127665"><ele>646.0</ele><time>2026-05-02T13:51:32.892Z</time></trkpt><trkpt lat="42.662946640649814" lon="12.609876083544236"><ele>645.3333333333334</ele><time>2026-05-02T13:51:33.892Z</time></trkpt><trkpt lat="42.6630001315827" lon="12.609980440948744"><ele>644.6666666666667</ele><time>2026-05-02T13:51:35.892Z</time></trkpt><trkpt lat="42.66308637980959" lon="12.6100783801434"><ele>644.0</ele><time>2026-05-02T13:51:37.892Z</time></trkpt><trkpt lat="42.663137038197675" lon="12.610145527896977"><ele>643.3333333333334</ele><time>2026-05-02T13:51:38.892Z</time></trkpt><trkpt lat="42.663191326036895" lon="12.61021817942022"><ele>642.6666666666666</ele><time>2026-05-02T13:51:39.892Z</time></trkpt><trkpt lat="42.66324369255043" lon="12.610279027542456"><ele>642.0</ele><time>2026-05-02T13:51:40.892Z</time></trkpt><trkpt lat="42.663341372381" lon="12.610327003827253"><ele>642.1666666666666</ele><time>2026-05-02T13:51:42.892Z</time></trkpt><trkpt lat="42.66340284646243" lon="12.610424795376288"><ele>642.3333333333334</ele><time>2026-05-02T13:55:33.902Z</time></trkpt><trkpt lat="42.66349239349568" lon="12.610468107120278"><ele>642.5</ele><time>2026-05-02T13:55:35.902Z</time></trkpt><trkpt lat="42.663558688591166" lon="12.610502688939476"><ele>642.6666666666667</ele><time>2026-05-02T13:55:37.902Z</time></trkpt><trkpt lat="42.66362564071189" lon="12.61049206697674"><ele>642.8333333333334</ele><time>2026-05-02T13:55:41.902Z</time></trkpt><trkpt lat="42.66368473020103" lon="12.610419269468297"><ele>643.0</ele><time>2026-05-02T13:55:43.902Z</time></trkpt><trkpt lat="42.66373379489574" lon="12.61036452652445"><ele>641.0</ele><time>2026-05-02T13:55:44.902Z</time></trkpt><trkpt lat="42.6637894556739" lon="12.610307749680235"><ele>639.0</ele><time>2026-05-02T13:55:45.902Z</time></trkpt><trkpt lat="42.663871497704584" lon="12.610266531633764"><ele>637.0</ele><time>2026-05-02T13:55:46.902Z</time></trkpt><trkpt lat="42.66391079751325" lon="12.610173678476581"><ele>635.0</ele><time>2026-05-02T13:55:47.902Z</time></trkpt><trkpt lat="42.66396639933765" lon="12.610096959381636"><ele>633.0</ele><time>2026-05-02T13:55:48.902Z</time></trkpt><trkpt lat="42.66402297063456" lon="12.610005348675534"><ele>631.0</ele><time>2026-05-02T13:55:49.902Z</time></trkpt><trkpt lat="42.66406804035026" lon="12.609897273886546"><ele>631.0</ele><time>2026-05-02T13:55:50.902Z</time></trkpt><trkpt lat="42.66410247092855" lon="12.609780482367777"><ele>631.0</ele><time>2026-05-02T13:55:51.902Z</time></trkpt><trkpt lat="42.66412009295678" lon="12.609689685000681"><ele>631.0</ele><time>2026-05-02T13:55:52.902Z</time></trkpt><trkpt lat="42.66411572173268" lon="12.609591764345643"><ele>631.0</ele><time>2026-05-02T13:55:53.902Z</time></trkpt><trkpt lat="42.66411645331969" lon="12.609489125828828"><ele>631.0</ele><time>2026-05-02T13:55:54.902Z</time></trkpt><trkpt lat="42.66407898577561" lon="12.609376443425948"><ele>631.0</ele><time>2026-05-02T13:55:55.902Z</time></trkpt><trkpt lat="42.66404391508997" lon="12.609230466970207"><ele>630.5</ele><time>2026-05-02T13:55:56.902Z</time></trkpt><trkpt lat="42.66403252716909" lon="12.609059203220596"><ele>630.0</ele><time>2026-05-02T13:55:57.902Z</time></trkpt><trkpt lat="42.66404108895747" lon="12.608922207298779"><ele>629.5</ele><time>2026-05-02T13:55:58.902Z</time></trkpt><trkpt lat="42.66402766196391" lon="12.608815510024629"><ele>629.0</ele><time>2026-05-02T13:55:59.902Z</time></trkpt><trkpt lat="42.664029363896255" lon="12.60872396833774"><ele>628.5</ele><time>2026-05-02T13:56:00.902Z</time></trkpt><trkpt lat="42.66405861547617" lon="12.608641739066794"><ele>628.0</ele><time>2026-05-02T13:56:01.902Z</time></trkpt><trkpt lat="42.66414367298654" lon="12.60854270428941"><ele>629.4</ele><time>2026-05-02T13:56:02.902Z</time></trkpt><trkpt lat="42.6642250593871" lon="12.608476942152175"><ele>630.8</ele><time>2026-05-02T13:56:03.902Z</time></trkpt><trkpt lat="42.66432950553171" lon="12.608435753366726"><ele>632.2</ele><time>2026-05-02T13:56:04.902Z</time></trkpt><trkpt lat="42.66442745542736" lon="12.608374979386126"><ele>633.6</ele><time>2026-05-02T13:56:05.902Z</time></trkpt><trkpt lat="42.66451698169618" lon="12.608284232504827"><ele>635.0</ele><time>2026-05-02T13:56:06.902Z</time></trkpt><trkpt lat="42.66459960257695" lon="12.60820253776221"><ele>631.2</ele><time>2026-05-02T13:56:07.902Z</time></trkpt><trkpt lat="42.664672170314034" lon="12.608125081877157"><ele>627.4</ele><time>2026-05-02T13:56:08.902Z</time></trkpt><trkpt lat="42.66474482067929" lon="12.608070464484346"><ele>623.6</ele><time>2026-05-02T13:56:09.902Z</time></trkpt><trkpt lat="42.6648379164836" lon="12.608010546057017"><ele>619.8</ele><time>2026-05-02T13:56:10.902Z</time></trkpt><trkpt lat="42.66492182389556" lon="12.607956839752685"><ele>616.0</ele><time>2026-05-02T13:56:11.902Z</time></trkpt><trkpt lat="42.664999393776846" lon="12.60789048495965"><ele>614.4</ele><time>2026-05-02T13:56:12.902Z</time></trkpt><trkpt lat="42.66506755913327" lon="12.607819627318445"><ele>612.8</ele><time>2026-05-02T13:56:13.902Z</time></trkpt><trkpt lat="42.66512732327598" lon="12.60773522577237"><ele>611.1999999999999</ele><time>2026-05-02T13:56:14.902Z</time></trkpt><trkpt lat="42.66520669961076" lon="12.607645533308489"><ele>609.6</ele><time>2026-05-02T13:56:15.902Z</time></trkpt><trkpt lat="42.665292476107716" lon="12.607552329001063"><ele>608.0</ele><time>2026-05-02T13:56:16.902Z</time></trkpt><trkpt lat="42.665388593709785" lon="12.607468904256068"><ele>608.0</ele><time>2026-05-02T13:56:17.902Z</time></trkpt><trkpt lat="42.66547108339935" lon="12.607399127730622"><ele>608.0</ele><time>2026-05-02T13:56:18.902Z</time></trkpt><trkpt lat="42.66555521362547" lon="12.607302892038792"><ele>608.0</ele><time>2026-05-02T13:56:19.902Z</time></trkpt><trkpt lat="42.665643167152425" lon="12.607218611959464"><ele>608.0</ele><time>2026-05-02T13:56:20.902Z</time></trkpt><trkpt lat="42.66573722313631" lon="12.607142074665711"><ele>608.0</ele><time>2026-05-02T13:56:21.902Z</time></trkpt><trkpt lat="42.66582440148417" lon="12.607079372134812"><ele>608.0</ele><time>2026-05-02T13:56:22.902Z</time></trkpt><trkpt lat="42.6659176709867" lon="12.607033775518039"><ele>608.0</ele><time>2026-05-02T13:56:23.902Z</time></trkpt><trkpt lat="42.66601298953034" lon="12.607005054158467"><ele>608.0</ele><time>2026-05-02T13:56:24.902Z</time></trkpt><trkpt lat="42.666098624012214" lon="12.60696846572084"><ele>608.0</ele><time>2026-05-02T13:56:25.902Z</time></trkpt><trkpt lat="42.66618643535437" lon="12.60691234999432"><ele>608.0</ele><time>2026-05-02T13:56:26.902Z</time></trkpt><trkpt lat="42.66628004898084" lon="12.606890445722799"><ele>607.8333333333333</ele><time>2026-05-02T13:56:27.902Z</time></trkpt><trkpt lat="42.666361486581444" lon="12.606860385753393"><ele>607.6666666666666</ele><time>2026-05-02T13:56:28.902Z</time></trkpt><trkpt lat="42.66643942917219" lon="12.606827733879053"><ele>607.5</ele><time>2026-05-02T13:56:29.902Z</time></trkpt><trkpt lat="42.66652541643925" lon="12.606801715402918"><ele>607.3333333333334</ele><time>2026-05-02T13:56:30.902Z</time></trkpt><trkpt lat="42.66661129570902" lon="12.606776404668594"><ele>607.1666666666667</ele><time>2026-05-02T13:56:31.901Z</time></trkpt><trkpt lat="42.666692280134896" lon="12.606749718803082"><ele>607.0</ele><time>2026-05-02T13:56:32.901Z</time></trkpt><trkpt lat="42.666772346175954" lon="12.606726714803708"><ele>607.0</ele><time>2026-05-02T13:56:33.901Z</time></trkpt><trkpt lat="42.66684751019859" lon="12.606702981941135"><ele>607.0</ele><time>2026-05-02T13:56:34.901Z</time></trkpt><trkpt lat="42.66691091376359" lon="12.606665424057764"><ele>607.0</ele><time>2026-05-02T13:56:35.901Z</time></trkpt><trkpt lat="42.66696929938422" lon="12.606614506233354"><ele>607.0</ele><time>2026-05-02T13:56:36.901Z</time></trkpt><trkpt lat="42.66705215590412" lon="12.606513698505394"><ele>607.0</ele><time>2026-05-02T13:56:38.901Z</time></trkpt><trkpt lat="42.66710405620899" lon="12.606446516727484"><ele>607.0</ele><time>2026-05-02T13:56:41.901Z</time></trkpt><trkpt lat="42.66713158267407" lon="12.606290842388827"><ele>606.3333333333334</ele><time>2026-05-02T13:56:44.901Z</time></trkpt><trkpt lat="42.667156803722655" lon="12.606172750577443"><ele>605.6666666666667</ele><time>2026-05-02T13:56:46.901Z</time></trkpt><trkpt lat="42.66718238467192" lon="12.606087041120885"><ele>605.0</ele><time>2026-05-02T13:56:47.901Z</time></trkpt><trkpt lat="42.6672338732833" lon="12.606003382752967"><ele>604.3333333333334</ele><time>2026-05-02T13:56:48.901Z</time></trkpt><trkpt lat="42.66729697499196" lon="12.605913040418798"><ele>603.6666666666666</ele><time>2026-05-02T13:56:49.901Z</time></trkpt><trkpt lat="42.667375799929665" lon="12.605810896164622"><ele>603.0</ele><time>2026-05-02T13:56:50.901Z</time></trkpt><trkpt lat="42.6674607176307" lon="12.605711775948627"><ele>603.0</ele><time>2026-05-02T13:56:51.901Z</time></trkpt><trkpt lat="42.66755146268752" lon="12.605604838147576"><ele>603.0</ele><time>2026-05-02T13:56:52.901Z</time></trkpt><trkpt lat="42.66763820155743" lon="12.605505923274807"><ele>603.0</ele><time>2026-05-02T13:56:53.901Z</time></trkpt><trkpt lat="42.66772069574719" lon="12.605413168642821"><ele>603.0</ele><time>2026-05-02T13:56:54.901Z</time></trkpt><trkpt lat="42.66779014765973" lon="12.605311839184926"><ele>603.0</ele><time>2026-05-02T13:56:55.901Z</time></trkpt><trkpt lat="42.66784392043109" lon="12.605183786695267"><ele>601.8</ele><time>2026-05-02T13:56:56.901Z</time></trkpt><trkpt lat="42.667884005054205" lon="12.605037259097463"><ele>600.5999999999999</ele><time>2026-05-02T13:56:57.901Z</time></trkpt><trkpt lat="42.66792962156646" lon="12.604906213705059"><ele>599.4000000000001</ele><time>2026-05-02T13:56:58.901Z</time></trkpt><trkpt lat="42.66796901536853" lon="12.604781361106003"><ele>598.2</ele><time>2026-05-02T13:56:59.901Z</time></trkpt><trkpt lat="42.66800309443472" lon="12.604662329018758"><ele>597.0</ele><time>2026-05-02T13:57:00.901Z</time></trkpt><trkpt lat="42.66803257698063" lon="12.604541473419633"><ele>596.6666666666666</ele><time>2026-05-02T13:57:01.901Z</time></trkpt><trkpt lat="42.668050544196745" lon="12.604408763900938"><ele>596.3333333333334</ele><time>2026-05-02T13:57:02.902Z</time></trkpt><trkpt lat="42.668059652241595" lon="12.604287407979148"><ele>596.0</ele><time>2026-05-02T13:57:03.902Z</time></trkpt><trkpt lat="42.66805508632102" lon="12.604176809314046"><ele>595.6666666666667</ele><time>2026-05-02T13:57:04.902Z</time></trkpt><trkpt lat="42.668050649215495" lon="12.604090514139168"><ele>595.3333333333334</ele><time>2026-05-02T13:57:05.901Z</time></trkpt><trkpt lat="42.66804672479958" lon="12.603941392020639"><ele>595.0</ele><time>2026-05-02T13:57:07.901Z</time></trkpt><trkpt lat="42.66804487065525" lon="12.603792601437714"><ele>596.0</ele><time>2026-05-02T13:57:09.902Z</time></trkpt><trkpt lat="42.66804322347439" lon="12.603660418952167"><ele>597.0</ele><time>2026-05-02T13:57:11.902Z</time></trkpt><trkpt lat="42.66807665028239" lon="12.603580204610877"><ele>598.0</ele><time>2026-05-02T13:57:15.901Z</time></trkpt><trkpt lat="42.66815479352942" lon="12.603642650399697"><ele>599.0</ele><time>2026-05-02T13:58:21.9Z</time></trkpt><trkpt lat="42.66821657927883" lon="12.603568942718404"><ele>600.0</ele><time>2026-05-02T13:58:23.9Z</time></trkpt><trkpt lat="42.668324502896986" lon="12.603454029043265"><ele>600.0</ele><time>2026-05-02T13:58:25.9Z</time></trkpt><trkpt lat="42.66838160650294" lon="12.603365739372622"><ele>600.0</ele><time>2026-05-02T13:58:26.9Z</time></trkpt><trkpt lat="42.66845235581166" lon="12.603285022763005"><ele>600.0</ele><time>2026-05-02T13:58:27.9Z</time></trkpt><trkpt lat="42.66849371937928" lon="12.603141339808685"><ele>600.0</ele><time>2026-05-02T13:58:28.9Z</time></trkpt><trkpt lat="42.66851869257285" lon="12.60298557653628"><ele>600.0</ele><time>2026-05-02T13:58:29.9Z</time></trkpt><trkpt lat="42.668551062291414" lon="12.602819923980421"><ele>597.3333333333334</ele><time>2026-05-02T13:58:30.9Z</time></trkpt><trkpt lat="42.66859541130697" lon="12.602635192131268"><ele>594.6666666666667</ele><time>2026-05-02T13:58:31.9Z</time></trkpt><trkpt lat="42.668665528931" lon="12.60245091568274"><ele>592.0</ele><time>2026-05-02T13:58:32.9Z</time></trkpt><trkpt lat="42.66874889785154" lon="12.602267307809768"><ele>592.0</ele><time>2026-05-02T13:58:33.9Z</time></trkpt><trkpt lat="42.66883525463839" lon="12.60207748434156"><ele>592.0</ele><time>2026-05-02T13:58:34.9Z</time></trkpt><trkpt lat="42.66891363353724" lon="12.601902974838415"><ele>592.0</ele><time>2026-05-02T13:58:35.9Z</time></trkpt><trkpt lat="42.66899273846167" lon="12.601740825767198"><ele>594.25</ele><time>2026-05-02T13:58:36.9Z</time></trkpt><trkpt lat="42.669074745517655" lon="12.601593986034725"><ele>596.5</ele><time>2026-05-02T13:58:37.9Z</time></trkpt><trkpt lat="42.6691612418908" lon="12.601462048285189"><ele>598.75</ele><time>2026-05-02T13:58:38.9Z</time></trkpt><trkpt lat="42.66925507661738" lon="12.6013460812672"><ele>601.0</ele><time>2026-05-02T13:58:39.9Z</time></trkpt><trkpt lat="42.66935692697696" lon="12.601238809136772"><ele>599.75</ele><time>2026-05-02T13:58:40.9Z</time></trkpt><trkpt lat="42.669475223354965" lon="12.601146153060085"><ele>598.5</ele><time>2026-05-02T13:58:41.9Z</time></trkpt><trkpt lat="42.669596127994126" lon="12.60105266763376"><ele>597.25</ele><time>2026-05-02T13:58:42.9Z</time></trkpt><trkpt lat="42.66971235924047" lon="12.600938302589716"><ele>596.0</ele><time>2026-05-02T13:58:43.9Z</time></trkpt><trkpt lat="42.66981728850478" lon="12.600823773099133"><ele>596.0</ele><time>2026-05-02T13:58:44.9Z</time></trkpt><trkpt lat="42.669923119336005" lon="12.600706190405845"><ele>596.0</ele><time>2026-05-02T13:58:45.9Z</time></trkpt><trkpt lat="42.670018104427214" lon="12.600587149207245"><ele>596.0</ele><time>2026-05-02T13:58:46.9Z</time></trkpt><trkpt lat="42.6700939140036" lon="12.600477945035278"><ele>596.0</ele><time>2026-05-02T13:58:47.9Z</time></trkpt><trkpt lat="42.670169493256275" lon="12.600401461832782"><ele>596.0</ele><time>2026-05-02T13:58:48.9Z</time></trkpt><trkpt lat="42.67024249692363" lon="12.600370294954313"><ele>596.0</ele><time>2026-05-02T13:58:49.9Z</time></trkpt><trkpt lat="42.670351400142884" lon="12.600361548970872"><ele>596.0</ele><time>2026-05-02T13:58:51.9Z</time></trkpt><trkpt lat="42.670418409230514" lon="12.600431790353145"><ele>596.0</ele><time>2026-05-02T13:58:52.9Z</time></trkpt><trkpt lat="42.670492441800334" lon="12.600513998140817"><ele>596.0</ele><time>2026-05-02T13:58:53.899Z</time></trkpt><trkpt lat="42.670590072985014" lon="12.600565054394801"><ele>595.5</ele><time>2026-05-02T13:58:54.899Z</time></trkpt><trkpt lat="42.6706926406007" lon="12.600603268828207"><ele>595.0</ele><time>2026-05-02T13:58:55.899Z</time></trkpt><trkpt lat="42.670808108571556" lon="12.600618487355469"><ele>594.5</ele><time>2026-05-02T13:58:56.899Z</time></trkpt><trkpt lat="42.67092727206684" lon="12.600611866337092"><ele>594.0</ele><time>2026-05-02T13:58:57.899Z</time></trkpt><trkpt lat="42.671043453983906" lon="12.600623404247505"><ele>594.6</ele><time>2026-05-02T13:58:58.899Z</time></trkpt><trkpt lat="42.671156783442086" lon="12.600638368698599"><ele>595.2</ele><time>2026-05-02T13:58:59.899Z</time></trkpt><trkpt lat="42.671267492846354" lon="12.600648432108898"><ele>595.8000000000001</ele><time>2026-05-02T13:59:00.899Z</time></trkpt><trkpt lat="42.671373172897056" lon="12.600662904898952"><ele>596.4</ele><time>2026-05-02T13:59:01.899Z</time></trkpt><trkpt lat="42.67147256080185" lon="12.600677297022603"><ele>597.0</ele><time>2026-05-02T13:59:02.899Z</time></trkpt><trkpt lat="42.67156580987938" lon="12.600715051891187"><ele>597.0</ele><time>2026-05-02T13:59:03.899Z</time></trkpt><trkpt lat="42.67164814733365" lon="12.600718661390282"><ele>597.0</ele><time>2026-05-02T13:59:04.899Z</time></trkpt><trkpt lat="42.67173061395846" lon="12.600734584517879"><ele>597.0</ele><time>2026-05-02T13:59:05.899Z</time></trkpt><trkpt lat="42.67181246616001" lon="12.600694631041977"><ele>597.0</ele><time>2026-05-02T13:59:06.899Z</time></trkpt><trkpt lat="42.67188607785101" lon="12.600623795510694"><ele>597.0</ele><time>2026-05-02T13:59:07.899Z</time></trkpt><trkpt lat="42.67194641601242" lon="12.600516197201973"><ele>597.0</ele><time>2026-05-02T13:59:08.9Z</time></trkpt><trkpt lat="42.67201789603888" lon="12.600407227137223"><ele>597.6</ele><time>2026-05-02T13:59:09.9Z</time></trkpt><trkpt lat="42.672074631487824" lon="12.600287585560206"><ele>598.2</ele><time>2026-05-02T13:59:10.9Z</time></trkpt><trkpt lat="42.67213094557135" lon="12.600171250914402"><ele>598.8</ele><time>2026-05-02T13:59:11.9Z</time></trkpt><trkpt lat="42.67218731781479" lon="12.600060503056223"><ele>599.4</ele><time>2026-05-02T13:59:12.9Z</time></trkpt><trkpt lat="42.672244886057854" lon="12.59995036846587"><ele>600.0</ele><time>2026-05-02T13:59:13.9Z</time></trkpt><trkpt lat="42.67230443452663" lon="12.599846535417603"><ele>600.0</ele><time>2026-05-02T13:59:14.9Z</time></trkpt><trkpt lat="42.672364746043904" lon="12.599748033783415"><ele>600.0</ele><time>2026-05-02T13:59:15.9Z</time></trkpt><trkpt lat="42.672428813457856" lon="12.599649462430527"><ele>600.0</ele><time>2026-05-02T13:59:16.9Z</time></trkpt><trkpt lat="42.672495337495256" lon="12.599558297467551"><ele>600.0</ele><time>2026-05-02T13:59:17.9Z</time></trkpt><trkpt lat="42.67256469649789" lon="12.599472876300233"><ele>600.0</ele><time>2026-05-02T13:59:18.9Z</time></trkpt><trkpt lat="42.6726346262832" lon="12.599395681360757"><ele>601.8</ele><time>2026-05-02T13:59:19.9Z</time></trkpt><trkpt lat="42.67270309051268" lon="12.599327410958747"><ele>603.6</ele><time>2026-05-02T13:59:20.9Z</time></trkpt><trkpt lat="42.67277828634784" lon="12.599253619441393"><ele>605.4</ele><time>2026-05-02T13:59:21.899Z</time></trkpt><trkpt lat="42.67286373299247" lon="12.599182481314553"><ele>607.2</ele><time>2026-05-02T13:59:22.899Z</time></trkpt><trkpt lat="42.672951988795866" lon="12.599119465675477"><ele>609.0</ele><time>2026-05-02T13:59:23.899Z</time></trkpt><trkpt lat="42.673044130320896" lon="12.599066798747735"><ele>609.0</ele><time>2026-05-02T13:59:24.899Z</time></trkpt><trkpt lat="42.67313923994499" lon="12.599012551672537"><ele>609.0</ele><time>2026-05-02T13:59:25.899Z</time></trkpt><trkpt lat="42.673245531028435" lon="12.598957930328718"><ele>609.0</ele><time>2026-05-02T13:59:26.899Z</time></trkpt><trkpt lat="42.673367805760364" lon="12.598903844637038"><ele>609.0</ele><time>2026-05-02T13:59:27.899Z</time></trkpt><trkpt lat="42.673486293253845" lon="12.598862898908687"><ele>609.0</ele><time>2026-05-02T13:59:28.899Z</time></trkpt><trkpt lat="42.67359535700709" lon="12.598835066446282"><ele>609.0</ele><time>2026-05-02T13:59:29.899Z</time></trkpt><trkpt lat="42.67370049614368" lon="12.598816260112589"><ele>609.0</ele><time>2026-05-02T13:59:30.899Z</time></trkpt><trkpt lat="42.67381226938327" lon="12.598813976727179"><ele>609.0</ele><time>2026-05-02T13:59:31.899Z</time></trkpt><trkpt lat="42.67393064963362" lon="12.598826277523969"><ele>609.0</ele><time>2026-05-02T13:59:32.899Z</time></trkpt><trkpt lat="42.674051149629804" lon="12.598854782532916"><ele>608.25</ele><time>2026-05-02T13:59:33.899Z</time></trkpt><trkpt lat="42.67418193364188" lon="12.598890747175181"><ele>607.5</ele><time>2026-05-02T13:59:34.899Z</time></trkpt><trkpt lat="42.67431525184054" lon="12.598931945910468"><ele>606.75</ele><time>2026-05-02T13:59:35.899Z</time></trkpt><trkpt lat="42.674447481998136" lon="12.598976971271828"><ele>606.0</ele><time>2026-05-02T13:59:36.899Z</time></trkpt><trkpt lat="42.67457432470413" lon="12.599020383682566"><ele>610.0</ele><time>2026-05-02T13:59:37.899Z</time></trkpt><trkpt lat="42.67468710023184" lon="12.599070489011968"><ele>614.0</ele><time>2026-05-02T13:59:38.899Z</time></trkpt><trkpt lat="42.674799883815425" lon="12.599136649645262"><ele>618.0</ele><time>2026-05-02T13:59:39.899Z</time></trkpt><trkpt lat="42.674905204087544" lon="12.59922810693073"><ele>622.0</ele><time>2026-05-02T13:59:40.899Z</time></trkpt><trkpt lat="42.674987200767006" lon="12.599345157953508"><ele>622.0</ele><time>2026-05-02T13:59:41.899Z</time></trkpt><trkpt lat="42.67507535468572" lon="12.59942882538432"><ele>622.0</ele><time>2026-05-02T13:59:42.899Z</time></trkpt><trkpt lat="42.67513449131135" lon="12.599527367638759"><ele>622.0</ele><time>2026-05-02T13:59:43.899Z</time></trkpt><trkpt lat="42.675214901036334" lon="12.599578040659607"><ele>622.0</ele><time>2026-05-02T13:59:44.899Z</time></trkpt><trkpt lat="42.67531555214413" lon="12.59958270953779"><ele>622.0</ele><time>2026-05-02T13:59:45.899Z</time></trkpt><trkpt lat="42.67541688410687" lon="12.59954682467669"><ele>620.4</ele><time>2026-05-02T13:59:46.899Z</time></trkpt><trkpt lat="42.67552491939959" lon="12.59952951546309"><ele>618.8000000000001</ele><time>2026-05-02T13:59:47.899Z</time></trkpt><trkpt lat="42.67562524835148" lon="12.59951173541457"><ele>617.2</ele><time>2026-05-02T13:59:48.899Z</time></trkpt><trkpt lat="42.675707598744296" lon="12.599455661719348"><ele>615.6</ele><time>2026-05-02T13:59:49.899Z</time></trkpt><trkpt lat="42.67576673057889" lon="12.599365320790959"><ele>614.0</ele><time>2026-05-02T13:59:50.899Z</time></trkpt><trkpt lat="42.67579075899319" lon="12.5992503070848"><ele>614.0</ele><time>2026-05-02T13:59:51.899Z</time></trkpt><trkpt lat="42.67577496629575" lon="12.599127977278389"><ele>614.0</ele><time>2026-05-02T13:59:52.899Z</time></trkpt><trkpt lat="42.67573896578393" lon="12.599028183024288"><ele>614.0</ele><time>2026-05-02T13:59:53.899Z</time></trkpt><trkpt lat="42.675698099053335" lon="12.598929493329827"><ele>614.0</ele><time>2026-05-02T13:59:54.899Z</time></trkpt><trkpt lat="42.675658930204534" lon="12.598822140983593"><ele>614.0</ele><time>2026-05-02T13:59:55.899Z</time></trkpt><trkpt lat="42.67563882721606" lon="12.598697357956473"><ele>614.0</ele><time>2026-05-02T13:59:56.899Z</time></trkpt><trkpt lat="42.67560583995212" lon="12.598575804359605"><ele>613.2</ele><time>2026-05-02T13:59:57.899Z</time></trkpt><trkpt lat="42.67556865534179" lon="12.59844103595495"><ele>612.4</ele><time>2026-05-02T13:59:58.899Z</time></trkpt><trkpt lat="42.67550560791257" lon="12.598326678768379"><ele>611.6</ele><time>2026-05-02T13:59:59.899Z</time></trkpt><trkpt lat="42.67544229264525" lon="12.598221661695025"><ele>610.8</ele><time>2026-05-02T14:00:00.899Z</time></trkpt><trkpt lat="42.67535929726862" lon="12.598110094104586"><ele>610.0</ele><time>2026-05-02T14:00:01.899Z</time></trkpt><trkpt lat="42.67526788195776" lon="12.59801141819896"><ele>615.8</ele><time>2026-05-02T14:00:02.899Z</time></trkpt><trkpt lat="42.67517462555306" lon="12.59792130479551"><ele>621.6</ele><time>2026-05-02T14:00:03.899Z</time></trkpt><trkpt lat="42.67508615834593" lon="12.597830511501765"><ele>627.4</ele><time>2026-05-02T14:00:04.899Z</time></trkpt><trkpt lat="42.675020267008414" lon="12.597734897154442"><ele>633.2</ele><time>2026-05-02T14:00:05.899Z</time></trkpt><trkpt lat="42.67495287395321" lon="12.59768581596517"><ele>639.0</ele><time>2026-05-02T14:00:06.899Z</time></trkpt><trkpt lat="42.67490740982706" lon="12.597607186370723"><ele>639.0</ele><time>2026-05-02T14:00:07.899Z</time></trkpt><trkpt lat="42.6749016599699" lon="12.597521139707261"><ele>639.0</ele><time>2026-05-02T14:00:08.899Z</time></trkpt><trkpt lat="42.67495646618421" lon="12.597442985479391"><ele>639.0</ele><time>2026-05-02T14:00:09.899Z</time></trkpt><trkpt lat="42.67502574540221" lon="12.597357276059052"><ele>639.0</ele><time>2026-05-02T14:00:10.899Z</time></trkpt><trkpt lat="42.675070265797224" lon="12.597253052736697"><ele>639.0</ele><time>2026-05-02T14:00:11.898Z</time></trkpt><trkpt lat="42.67512608411359" lon="12.597156610091485"><ele>639.0</ele><time>2026-05-02T14:00:12.898Z</time></trkpt><trkpt lat="42.67518612983573" lon="12.597029045833198"><ele>641.5</ele><time>2026-05-02T14:00:13.898Z</time></trkpt><trkpt lat="42.67522419930408" lon="12.59690174180788"><ele>644.0</ele><time>2026-05-02T14:00:14.898Z</time></trkpt><trkpt lat="42.67523753949677" lon="12.596755080170256"><ele>646.5</ele><time>2026-05-02T14:00:15.898Z</time></trkpt><trkpt lat="42.67524867179366" lon="12.596588984732588"><ele>649.0</ele><time>2026-05-02T14:00:16.898Z</time></trkpt><trkpt lat="42.675257834020044" lon="12.596428257073455"><ele>636.5</ele><time>2026-05-02T14:00:17.898Z</time></trkpt><trkpt lat="42.675274403283616" lon="12.596264980892386"><ele>624.0</ele><time>2026-05-02T14:00:18.898Z</time></trkpt><trkpt lat="42.675294496737486" lon="12.59610388017179"><ele>611.5</ele><time>2026-05-02T14:00:19.898Z</time></trkpt><trkpt lat="42.675313389651826" lon="12.595933503024474"><ele>599.0</ele><time>2026-05-02T14:00:20.898Z</time></trkpt><trkpt lat="42.67531389727972" lon="12.595748714004522"><ele>599.0</ele><time>2026-05-02T14:00:21.898Z</time></trkpt><trkpt lat="42.67529988488795" lon="12.595565488394593"><ele>599.0</ele><time>2026-05-02T14:00:22.898Z</time></trkpt><trkpt lat="42.67528653711081" lon="12.59538324625369"><ele>599.0</ele><time>2026-05-02T14:00:23.898Z</time></trkpt><trkpt lat="42.675271037306956" lon="12.595204722343054"><ele>599.0</ele><time>2026-05-02T14:00:24.898Z</time></trkpt><trkpt lat="42.67525492680826" lon="12.595028415999199"><ele>611.5</ele><time>2026-05-02T14:00:25.898Z</time></trkpt><trkpt lat="42.67523332954142" lon="12.594846857724457"><ele>624.0</ele><time>2026-05-02T14:00:26.898Z</time></trkpt><trkpt lat="42.67520163694628" lon="12.594676456045537"><ele>636.5</ele><time>2026-05-02T14:00:27.898Z</time></trkpt><trkpt lat="42.675180252227456" lon="12.594520275367866"><ele>649.0</ele><time>2026-05-02T14:00:28.897Z</time></trkpt><trkpt lat="42.67514286051308" lon="12.594356211618214"><ele>649.0</ele><time>2026-05-02T14:00:29.897Z</time></trkpt><trkpt lat="42.675099916625264" lon="12.594188516962854"><ele>649.0</ele><time>2026-05-02T14:00:30.897Z</time></trkpt><trkpt lat="42.67504705391241" lon="12.594022912829137"><ele>649.0</ele><time>2026-05-02T14:00:31.897Z</time></trkpt><trkpt lat="42.67499998649592" lon="12.593856475465433"><ele>649.0</ele><time>2026-05-02T14:00:32.897Z</time></trkpt><trkpt lat="42.67492045263613" lon="12.593711392089125"><ele>645.75</ele><time>2026-05-02T14:00:33.897Z</time></trkpt><trkpt lat="42.67484189202134" lon="12.593579914853253"><ele>642.5</ele><time>2026-05-02T14:00:34.897Z</time></trkpt><trkpt lat="42.67477841190987" lon="12.593439693800804"><ele>639.25</ele><time>2026-05-02T14:00:35.897Z</time></trkpt><trkpt lat="42.674730731339025" lon="12.593295334373463"><ele>636.0</ele><time>2026-05-02T14:00:36.897Z</time></trkpt><trkpt lat="42.674692012865286" lon="12.593138909950953"><ele>636.0</ele><time>2026-05-02T14:00:37.897Z</time></trkpt><trkpt lat="42.67466024040655" lon="12.592979571735421"><ele>636.0</ele><time>2026-05-02T14:00:38.897Z</time></trkpt><trkpt lat="42.674618855098956" lon="12.592807193937462"><ele>636.0</ele><time>2026-05-02T14:00:39.897Z</time></trkpt><trkpt lat="42.6746099257465" lon="12.59261165389619"><ele>636.0</ele><time>2026-05-02T14:00:40.897Z</time></trkpt><trkpt lat="42.674586049286376" lon="12.59242093777861"><ele>634.0</ele><time>2026-05-02T14:00:41.897Z</time></trkpt><trkpt lat="42.67457959904922" lon="12.592231692380471"><ele>632.0</ele><time>2026-05-02T14:00:42.897Z</time></trkpt><trkpt lat="42.6745763495218" lon="12.592037030736709"><ele>630.0</ele><time>2026-05-02T14:00:43.897Z</time></trkpt><trkpt lat="42.67455870068959" lon="12.59184870739791"><ele>628.0</ele><time>2026-05-02T14:00:44.897Z</time></trkpt><trkpt lat="42.67452682144261" lon="12.591660682166072"><ele>627.0</ele><time>2026-05-02T14:00:45.897Z</time></trkpt><trkpt lat="42.67448473047004" lon="12.591476261365"><ele>626.0</ele><time>2026-05-02T14:00:46.897Z</time></trkpt><trkpt lat="42.674453327038265" lon="12.591288738472622"><ele>625.0</ele><time>2026-05-02T14:00:47.897Z</time></trkpt><trkpt lat="42.67441088412773" lon="12.591114708511641"><ele>624.0</ele><time>2026-05-02T14:00:48.897Z</time></trkpt><trkpt lat="42.67436119202501" lon="12.590938025579733"><ele>628.5</ele><time>2026-05-02T14:00:49.897Z</time></trkpt><trkpt lat="42.67430514812866" lon="12.59076284775968"><ele>633.0</ele><time>2026-05-02T14:00:50.897Z</time></trkpt><trkpt lat="42.674233876329026" lon="12.590590646736736"><ele>637.5</ele><time>2026-05-02T14:00:51.897Z</time></trkpt><trkpt lat="42.67418095601964" lon="12.590430211235285"><ele>642.0</ele><time>2026-05-02T14:00:52.897Z</time></trkpt><trkpt lat="42.67413192426065" lon="12.590282980912"><ele>642.0</ele><time>2026-05-02T14:00:53.897Z</time></trkpt><trkpt lat="42.67408475859944" lon="12.590159628095428"><ele>642.0</ele><time>2026-05-02T14:00:54.897Z</time></trkpt><trkpt lat="42.67403343671047" lon="12.590046685372005"><ele>642.0</ele><time>2026-05-02T14:00:55.897Z</time></trkpt><trkpt lat="42.673975510299826" lon="12.589934793346886"><ele>642.0</ele><time>2026-05-02T14:00:56.897Z</time></trkpt><trkpt lat="42.67391156223906" lon="12.589810066101695"><ele>642.0</ele><time>2026-05-02T14:00:57.897Z</time></trkpt><trkpt lat="42.67382650581302" lon="12.589706434941288"><ele>642.0</ele><time>2026-05-02T14:00:58.897Z</time></trkpt><trkpt lat="42.67371268993472" lon="12.589641303602907"><ele>642.0</ele><time>2026-05-02T14:00:59.897Z</time></trkpt><trkpt lat="42.673605502136034" lon="12.58957303976741"><ele>642.0</ele><time>2026-05-02T14:01:00.897Z</time></trkpt><trkpt lat="42.673500318137584" lon="12.58953076834872"><ele>642.0</ele><time>2026-05-02T14:01:01.897Z</time></trkpt><trkpt lat="42.673386874482574" lon="12.589519650029528"><ele>641.5</ele><time>2026-05-02T14:01:02.897Z</time></trkpt><trkpt lat="42.67326629986905" lon="12.589528095304301"><ele>641.0</ele><time>2026-05-02T14:01:03.897Z</time></trkpt><trkpt lat="42.67312335439198" lon="12.589506198512938"><ele>640.5</ele><time>2026-05-02T14:01:04.897Z</time></trkpt><trkpt lat="42.6729956409066" lon="12.58948482969994"><ele>640.0</ele><time>2026-05-02T14:01:05.897Z</time></trkpt><trkpt lat="42.67285729055054" lon="12.589459568393968"><ele>643.25</ele><time>2026-05-02T14:01:06.897Z</time></trkpt><trkpt lat="42.6727249919938" lon="12.589454616092747"><ele>646.5</ele><time>2026-05-02T14:01:07.897Z</time></trkpt><trkpt lat="42.67259809727265" lon="12.589421219775648"><ele>649.75</ele><time>2026-05-02T14:01:08.897Z</time></trkpt><trkpt lat="42.67247712799517" lon="12.58940211686181"><ele>653.0</ele><time>2026-05-02T14:01:09.897Z</time></trkpt><trkpt lat="42.672374005550395" lon="12.58938480734648"><ele>653.0</ele><time>2026-05-02T14:01:10.897Z</time></trkpt><trkpt lat="42.672272454144625" lon="12.589350439490708"><ele>653.0</ele><time>2026-05-02T14:01:11.897Z</time></trkpt><trkpt lat="42.67217499308823" lon="12.589288362344638"><ele>653.0</ele><time>2026-05-02T14:01:12.897Z</time></trkpt><trkpt lat="42.67209325320403" lon="12.589200144890825"><ele>653.0</ele><time>2026-05-02T14:01:13.897Z</time></trkpt><trkpt lat="42.67201423505243" lon="12.589082191289249"><ele>653.0</ele><time>2026-05-02T14:01:14.898Z</time></trkpt><trkpt lat="42.67195480573928" lon="12.588974171515117"><ele>655.2</ele><time>2026-05-02T14:01:15.897Z</time></trkpt><trkpt lat="42.671879370811546" lon="12.588879464126695"><ele>657.4</ele><time>2026-05-02T14:01:16.897Z</time></trkpt><trkpt lat="42.67180220108143" lon="12.5888208865226"><ele>659.6</ele><time>2026-05-02T14:01:17.897Z</time></trkpt><trkpt lat="42.671707918278074" lon="12.588790495584743"><ele>661.8000000000001</ele><time>2026-05-02T14:01:18.897Z</time></trkpt><trkpt lat="42.671605183783214" lon="12.588797269397599"><ele>664.0</ele><time>2026-05-02T14:01:19.897Z</time></trkpt><trkpt lat="42.67150904916785" lon="12.58881479935334"><ele>664.0</ele><time>2026-05-02T14:01:20.897Z</time></trkpt><trkpt lat="42.671412708531626" lon="12.588793288609484"><ele>664.0</ele><time>2026-05-02T14:01:21.897Z</time></trkpt><trkpt lat="42.67132951027279" lon="12.588791316837115"><ele>664.0</ele><time>2026-05-02T14:01:22.897Z</time></trkpt><trkpt lat="42.671265567832755" lon="12.58871997815589"><ele>664.0</ele><time>2026-05-02T14:01:23.897Z</time></trkpt><trkpt lat="42.67119491593878" lon="12.588637344386111"><ele>664.0</ele><time>2026-05-02T14:01:24.897Z</time></trkpt><trkpt lat="42.67113044763536" lon="12.588550904792331"><ele>664.0</ele><time>2026-05-02T14:01:25.897Z</time></trkpt><trkpt lat="42.67106664996512" lon="12.58845628469989"><ele>665.3333333333334</ele><time>2026-05-02T14:01:26.897Z</time></trkpt><trkpt lat="42.67100412694412" lon="12.588348374716956"><ele>666.6666666666667</ele><time>2026-05-02T14:01:27.897Z</time></trkpt><trkpt lat="42.67094678301562" lon="12.588236605006822"><ele>668.0</ele><time>2026-05-02T14:01:28.897Z</time></trkpt><trkpt lat="42.67089013206121" lon="12.588142390517387"><ele>669.3333333333334</ele><time>2026-05-02T14:01:29.897Z</time></trkpt><trkpt lat="42.6708601088017" lon="12.588040455146787"><ele>670.6666666666666</ele><time>2026-05-02T14:01:30.897Z</time></trkpt><trkpt lat="42.670851923023775" lon="12.587943040797766"><ele>672.0</ele><time>2026-05-02T14:01:31.897Z</time></trkpt><trkpt lat="42.670931574465094" lon="12.587831061578868"><ele>672.0</ele><time>2026-05-02T14:01:33.897Z</time></trkpt><trkpt lat="42.671015116125325" lon="12.58781203198796"><ele>672.0</ele><time>2026-05-02T14:01:34.897Z</time></trkpt><trkpt lat="42.67108877612236" lon="12.58778889369099"><ele>672.0</ele><time>2026-05-02T14:01:35.897Z</time></trkpt><trkpt lat="42.671155869532214" lon="12.587740077202579"><ele>672.0</ele><time>2026-05-02T14:01:36.897Z</time></trkpt><trkpt lat="42.67121787155007" lon="12.587678891940572"><ele>672.0</ele><time>2026-05-02T14:01:37.897Z</time></trkpt><trkpt lat="42.67125044758641" lon="12.587582821508509"><ele>672.0</ele><time>2026-05-02T14:01:38.897Z</time></trkpt><trkpt lat="42.67126059545461" lon="12.587454335500643"><ele>667.4000000000001</ele><time>2026-05-02T14:01:39.897Z</time></trkpt><trkpt lat="42.67125419440031" lon="12.58731612725884"><ele>662.8000000000001</ele><time>2026-05-02T14:01:40.897Z</time></trkpt><trkpt lat="42.671238719867475" lon="12.587170123818508"><ele>658.2</ele><time>2026-05-02T14:01:41.897Z</time></trkpt><trkpt lat="42.6712193052488" lon="12.58701918293984"><ele>653.6</ele><time>2026-05-02T14:01:42.897Z</time></trkpt><trkpt lat="42.67119622283364" lon="12.58685843374253"><ele>649.0</ele><time>2026-05-02T14:01:43.897Z</time></trkpt><trkpt lat="42.67115372215151" lon="12.586694807329355"><ele>653.5</ele><time>2026-05-02T14:01:44.897Z</time></trkpt><trkpt lat="42.67110401753349" lon="12.586541610133812"><ele>658.0</ele><time>2026-05-02T14:01:45.897Z</time></trkpt><trkpt lat="42.67104520008609" lon="12.586389051870697"><ele>662.5</ele><time>2026-05-02T14:01:46.897Z</time></trkpt><trkpt lat="42.670976463238816" lon="12.586238609498741"><ele>667.0</ele><time>2026-05-02T14:01:47.897Z</time></trkpt><trkpt lat="42.67088510199953" lon="12.58612232910194"><ele>667.0</ele><time>2026-05-02T14:01:48.897Z</time></trkpt><trkpt lat="42.67080102107256" lon="12.586008551851844"><ele>667.0</ele><time>2026-05-02T14:01:49.897Z</time></trkpt><trkpt lat="42.670724532566275" lon="12.585879602986289"><ele>667.0</ele><time>2026-05-02T14:01:50.897Z</time></trkpt><trkpt lat="42.67066126756785" lon="12.585748396242378"><ele>667.0</ele><time>2026-05-02T14:01:51.897Z</time></trkpt><trkpt lat="42.67062413642004" lon="12.585601192079023"><ele>667.0</ele><time>2026-05-02T14:01:52.897Z</time></trkpt><trkpt lat="42.67057974557939" lon="12.585455282655978"><ele>667.0</ele><time>2026-05-02T14:01:53.897Z</time></trkpt><trkpt lat="42.670514518516484" lon="12.585322705564359"><ele>667.0</ele><time>2026-05-02T14:01:54.897Z</time></trkpt><trkpt lat="42.67043971818083" lon="12.585221029149746"><ele>667.0</ele><time>2026-05-02T14:01:55.897Z</time></trkpt><trkpt lat="42.67038897334938" lon="12.585130524663098"><ele>667.0</ele><time>2026-05-02T14:01:56.897Z</time></trkpt><trkpt lat="42.67031703062266" lon="12.585067822041923"><ele>669.6666666666667</ele><time>2026-05-02T14:01:57.897Z</time></trkpt><trkpt lat="42.670233541466445" lon="12.585031927901325"><ele>672.3333333333334</ele><time>2026-05-02T14:01:58.896Z</time></trkpt><trkpt lat="42.67014026773565" lon="12.584975513460735"><ele>675.0</ele><time>2026-05-02T14:01:59.896Z</time></trkpt><trkpt lat="42.670062776412784" lon="12.58496420837481"><ele>677.6666666666666</ele><time>2026-05-02T14:02:00.896Z</time></trkpt><trkpt lat="42.66996456173122" lon="12.58493789783409"><ele>680.3333333333333</ele><time>2026-05-02T14:02:02.896Z</time></trkpt><trkpt lat="42.66994756241549" lon="12.584844396169126"><ele>683.0</ele><time>2026-05-02T14:02:04.896Z</time></trkpt><trkpt lat="42.66998234822616" lon="12.584742347194654"><ele>683.0</ele><time>2026-05-02T14:02:05.896Z</time></trkpt><trkpt lat="42.670024445601136" lon="12.584666412749195"><ele>683.0</ele><time>2026-05-02T14:02:06.896Z</time></trkpt><trkpt lat="42.67005871883356" lon="12.584587591968674"><ele>683.0</ele><time>2026-05-02T14:02:07.896Z</time></trkpt><trkpt lat="42.67006837071893" lon="12.584490112400323"><ele>683.0</ele><time>2026-05-02T14:02:08.896Z</time></trkpt><trkpt lat="42.670069290208836" lon="12.584368226729376"><ele>683.0</ele><time>2026-05-02T14:02:09.896Z</time></trkpt><trkpt lat="42.67004898680588" lon="12.584234032350038"><ele>683.0</ele><time>2026-05-02T14:02:10.896Z</time></trkpt><trkpt lat="42.670014190446764" lon="12.584093977207939"><ele>682.75</ele><time>2026-05-02T14:02:11.896Z</time></trkpt><trkpt lat="42.669966767329335" lon="12.58394043543191"><ele>682.5</ele><time>2026-05-02T14:02:12.896Z</time></trkpt><trkpt lat="42.66995612608335" lon="12.583766061287923"><ele>682.25</ele><time>2026-05-02T14:02:13.896Z</time></trkpt><trkpt lat="42.66994831496969" lon="12.583597486141294"><ele>682.0</ele><time>2026-05-02T14:02:14.896Z</time></trkpt><trkpt lat="42.66993031163684" lon="12.58345519434393"><ele>681.5</ele><time>2026-05-02T14:02:15.896Z</time></trkpt><trkpt lat="42.66989395380746" lon="12.583317156242764"><ele>681.0</ele><time>2026-05-02T14:02:16.896Z</time></trkpt><trkpt lat="42.66983888534508" lon="12.583176205584245"><ele>680.5</ele><time>2026-05-02T14:02:17.896Z</time></trkpt><trkpt lat="42.66976377098011" lon="12.58304274502123"><ele>680.0</ele><time>2026-05-02T14:02:18.896Z</time></trkpt><trkpt lat="42.66967873778832" lon="12.582914166822718"><ele>679.25</ele><time>2026-05-02T14:02:19.896Z</time></trkpt><trkpt lat="42.66958885239875" lon="12.582768976007046"><ele>678.5</ele><time>2026-05-02T14:02:20.896Z</time></trkpt><trkpt lat="42.669497672841466" lon="12.58261105566535"><ele>677.75</ele><time>2026-05-02T14:02:21.896Z</time></trkpt><trkpt lat="42.66941886647667" lon="12.582441738480446"><ele>677.0</ele><time>2026-05-02T14:02:22.896Z</time></trkpt><trkpt lat="42.66934378069968" lon="12.58226257726688"><ele>680.0</ele><time>2026-05-02T14:02:23.896Z</time></trkpt><trkpt lat="42.66928339437275" lon="12.582086686050708"><ele>683.0</ele><time>2026-05-02T14:02:24.896Z</time></trkpt><trkpt lat="42.66922082994807" lon="12.581926513670679"><ele>686.0</ele><time>2026-05-02T14:02:25.896Z</time></trkpt><trkpt lat="42.669168088236816" lon="12.581763381302034"><ele>689.0</ele><time>2026-05-02T14:02:26.896Z</time></trkpt><trkpt lat="42.66911572937386" lon="12.581582802832212"><ele>689.0</ele><time>2026-05-02T14:02:27.896Z</time></trkpt><trkpt lat="42.66905397161697" lon="12.581411555589797"><ele>689.0</ele><time>2026-05-02T14:02:28.896Z</time></trkpt><trkpt lat="42.66898353871517" lon="12.581267530429123"><ele>689.0</ele><time>2026-05-02T14:02:29.896Z</time></trkpt><trkpt lat="42.6689248400343" lon="12.581174684656746"><ele>689.0</ele><time>2026-05-02T14:02:30.896Z</time></trkpt><trkpt lat="42.668872946201475" lon="12.581090786415983"><ele>689.0</ele><time>2026-05-02T14:02:31.896Z</time></trkpt><trkpt lat="42.66880040563232" lon="12.580988912536704"><ele>688.75</ele><time>2026-05-02T14:02:32.896Z</time></trkpt><trkpt lat="42.6687177001584" lon="12.580891489984388"><ele>688.5</ele><time>2026-05-02T14:02:33.896Z</time></trkpt><trkpt lat="42.66862495400957" lon="12.580771250194005"><ele>688.25</ele><time>2026-05-02T14:02:34.896Z</time></trkpt><trkpt lat="42.66851131613727" lon="12.58064486766811"><ele>688.0</ele><time>2026-05-02T14:02:35.896Z</time></trkpt><trkpt lat="42.66838554477454" lon="12.580528603416857"><ele>687.25</ele><time>2026-05-02T14:02:36.896Z</time></trkpt><trkpt lat="42.66829224708846" lon="12.58038624195867"><ele>686.5</ele><time>2026-05-02T14:02:37.896Z</time></trkpt><trkpt lat="42.66819109839928" lon="12.580264510458228"><ele>685.75</ele><time>2026-05-02T14:02:38.896Z</time></trkpt><trkpt lat="42.66808745784561" lon="12.580153769047575"><ele>685.0</ele><time>2026-05-02T14:02:39.896Z</time></trkpt><trkpt lat="42.66798511081283" lon="12.580053320582133"><ele>684.25</ele><time>2026-05-02T14:02:40.896Z</time></trkpt><trkpt lat="42.66787501360347" lon="12.579966358102055"><ele>683.5</ele><time>2026-05-02T14:02:41.896Z</time></trkpt><trkpt lat="42.667745140456134" lon="12.57990553125633"><ele>682.75</ele><time>2026-05-02T14:02:42.896Z</time></trkpt><trkpt lat="42.667620592308424" lon="12.579826373700355"><ele>682.0</ele><time>2026-05-02T14:02:43.896Z</time></trkpt><trkpt lat="42.66749554359519" lon="12.579771743593277"><ele>680.25</ele><time>2026-05-02T14:02:44.896Z</time></trkpt><trkpt lat="42.66737142493823" lon="12.5797214375303"><ele>678.5</ele><time>2026-05-02T14:02:45.896Z</time></trkpt><trkpt lat="42.667252292317556" lon="12.579668956646573"><ele>676.75</ele><time>2026-05-02T14:02:46.896Z</time></trkpt><trkpt lat="42.667139086097485" lon="12.579610052187654"><ele>675.0</ele><time>2026-05-02T14:02:47.896Z</time></trkpt><trkpt lat="42.667032508659254" lon="12.579535812894031"><ele>672.0</ele><time>2026-05-02T14:02:48.896Z</time></trkpt><trkpt lat="42.66693586275558" lon="12.579459152095032"><ele>669.0</ele><time>2026-05-02T14:02:49.896Z</time></trkpt><trkpt lat="42.66685039778921" lon="12.579363806614882"><ele>666.0</ele><time>2026-05-02T14:02:50.896Z</time></trkpt><trkpt lat="42.666772096590684" lon="12.579259746619751"><ele>663.0</ele><time>2026-05-02T14:02:51.896Z</time></trkpt><trkpt lat="42.666703983244496" lon="12.579148041638076"><ele>660.0</ele><time>2026-05-02T14:02:52.896Z</time></trkpt><trkpt lat="42.66665985382264" lon="12.57905093374264"><ele>660.0</ele><time>2026-05-02T14:02:53.896Z</time></trkpt><trkpt lat="42.666623807710074" lon="12.578958973740557"><ele>660.0</ele><time>2026-05-02T14:02:54.896Z</time></trkpt><trkpt lat="42.6665971235838" lon="12.578855107359107"><ele>660.0</ele><time>2026-05-02T14:02:55.896Z</time></trkpt><trkpt lat="42.666574444454625" lon="12.578727470512293"><ele>660.0</ele><time>2026-05-02T14:02:56.896Z</time></trkpt><trkpt lat="42.666534544797784" lon="12.578587395030043"><ele>660.0</ele><time>2026-05-02T14:02:57.896Z</time></trkpt><trkpt lat="42.66647401223473" lon="12.578434805577988"><ele>661.0</ele><time>2026-05-02T14:02:58.896Z</time></trkpt><trkpt lat="42.66640740932754" lon="12.578263730011779"><ele>662.0</ele><time>2026-05-02T14:02:59.896Z</time></trkpt><trkpt lat="42.666345607818904" lon="12.578078778814783"><ele>663.0</ele><time>2026-05-02T14:03:00.896Z</time></trkpt><trkpt lat="42.66627953413367" lon="12.577888302254639"><ele>664.0</ele><time>2026-05-02T14:03:01.896Z</time></trkpt><trkpt lat="42.666216600504306" lon="12.577704294121283"><ele>665.25</ele><time>2026-05-02T14:03:02.896Z</time></trkpt><trkpt lat="42.66615886547554" lon="12.57752778251389"><ele>666.5</ele><time>2026-05-02T14:03:03.896Z</time></trkpt><trkpt lat="42.66610742795887" lon="12.577368141841184"><ele>667.75</ele><time>2026-05-02T14:03:04.896Z</time></trkpt><trkpt lat="42.66606708228694" lon="12.577221358000566"><ele>669.0</ele><time>2026-05-02T14:03:05.896Z</time></trkpt><trkpt lat="42.666037894642216" lon="12.577092922001885"><ele>663.8000000000001</ele><time>2026-05-02T14:03:06.896Z</time></trkpt><trkpt lat="42.666006041843204" lon="12.576960869393654"><ele>658.6</ele><time>2026-05-02T14:03:07.896Z</time></trkpt><trkpt lat="42.665961478587406" lon="12.576839030525816"><ele>653.4</ele><time>2026-05-02T14:03:08.895Z</time></trkpt><trkpt lat="42.66589510577806" lon="12.576725830940827"><ele>648.2</ele><time>2026-05-02T14:03:09.895Z</time></trkpt><trkpt lat="42.66583817813133" lon="12.576623665573916"><ele>643.0</ele><time>2026-05-02T14:03:10.895Z</time></trkpt><trkpt lat="42.665786919537844" lon="12.57651413873032"><ele>643.0</ele><time>2026-05-02T14:03:11.895Z</time></trkpt><trkpt lat="42.66575297195894" lon="12.576374652855396"><ele>643.0</ele><time>2026-05-02T14:03:12.895Z</time></trkpt><trkpt lat="42.665721728311816" lon="12.576270281969201"><ele>643.0</ele><time>2026-05-02T14:03:13.895Z</time></trkpt><trkpt lat="42.66570183817185" lon="12.576164944169232"><ele>643.0</ele><time>2026-05-02T14:03:14.895Z</time></trkpt><trkpt lat="42.665700783255986" lon="12.576063581036982"><ele>643.0</ele><time>2026-05-02T14:03:15.895Z</time></trkpt><trkpt lat="42.66571906471062" lon="12.575973893463445"><ele>643.0</ele><time>2026-05-02T14:03:16.895Z</time></trkpt><trkpt lat="42.66576886561732" lon="12.57588356352638"><ele>642.1999999999999</ele><time>2026-05-02T14:03:17.895Z</time></trkpt><trkpt lat="42.665835249127504" lon="12.575823247914892"><ele>641.4</ele><time>2026-05-02T14:03:18.895Z</time></trkpt><trkpt lat="42.66592501583458" lon="12.575782224563099"><ele>640.5999999999999</ele><time>2026-05-02T14:03:19.895Z</time></trkpt><trkpt lat="42.66602393296337" lon="12.575771074681235"><ele>639.8</ele><time>2026-05-02T14:03:20.896Z</time></trkpt><trkpt lat="42.666126062665924" lon="12.5757779326314"><ele>639.0</ele><time>2026-05-02T14:03:21.896Z</time></trkpt><trkpt lat="42.66622890831848" lon="12.575808712074421"><ele>641.3333333333334</ele><time>2026-05-02T14:03:22.896Z</time></trkpt><trkpt lat="42.66631186832635" lon="12.575849317547016"><ele>643.6666666666666</ele><time>2026-05-02T14:03:23.896Z</time></trkpt><trkpt lat="42.666376259690495" lon="12.5758821158542"><ele>646.0</ele><time>2026-05-02T14:03:24.896Z</time></trkpt><trkpt lat="42.6664680632541" lon="12.575871960580402"><ele>648.3333333333333</ele><time>2026-05-02T14:03:26.896Z</time></trkpt><trkpt lat="42.66648935529228" lon="12.575721749248352"><ele>650.6666666666666</ele><time>2026-05-02T14:03:28.896Z</time></trkpt><trkpt lat="42.666433041091075" lon="12.575661969666415"><ele>653.0</ele><time>2026-05-02T14:03:29.896Z</time></trkpt><trkpt lat="42.666347939528336" lon="12.575662327857785"><ele>653.0</ele><time>2026-05-02T14:03:30.896Z</time></trkpt><trkpt lat="42.666273282163196" lon="12.575676750937166"><ele>653.0</ele><time>2026-05-02T14:03:31.896Z</time></trkpt><trkpt lat="42.66619934440094" lon="12.575671240606395"><ele>653.0</ele><time>2026-05-02T14:03:32.896Z</time></trkpt><trkpt lat="42.66612617582425" lon="12.575635660309926"><ele>653.0</ele><time>2026-05-02T14:03:33.896Z</time></trkpt><trkpt lat="42.66603860158294" lon="12.575583138917626"><ele>653.0</ele><time>2026-05-02T14:03:34.896Z</time></trkpt><trkpt lat="42.665946525634446" lon="12.575529059133043"><ele>653.0</ele><time>2026-05-02T14:03:35.896Z</time></trkpt><trkpt lat="42.665860242740955" lon="12.575487653739229"><ele>650.1999999999999</ele><time>2026-05-02T14:03:36.896Z</time></trkpt><trkpt lat="42.665777582440214" lon="12.575460263636387"><ele>647.4</ele><time>2026-05-02T14:03:37.896Z</time></trkpt><trkpt lat="42.66570039761007" lon="12.575448027476872"><ele>644.5999999999999</ele><time>2026-05-02T14:03:38.896Z</time></trkpt><trkpt lat="42.66563290777194" lon="12.575448315811226"><ele>641.8</ele><time>2026-05-02T14:03:39.896Z</time></trkpt><trkpt lat="42.665516221000594" lon="12.575479415988308"><ele>639.0</ele><time>2026-05-02T14:03:41.896Z</time></trkpt><trkpt lat="42.66542215833453" lon="12.575536604982952"><ele>639.0</ele><time>2026-05-02T14:03:43.896Z</time></trkpt><trkpt lat="42.66533886114894" lon="12.575625812142672"><ele>639.0</ele><time>2026-05-02T14:03:45.896Z</time></trkpt><trkpt lat="42.66529358847894" lon="12.575702612705905"><ele>639.0</ele><time>2026-05-02T14:03:46.896Z</time></trkpt><trkpt lat="42.66525168179067" lon="12.575793962257135"><ele>639.0</ele><time>2026-05-02T14:03:47.896Z</time></trkpt><trkpt lat="42.66522731988802" lon="12.575918994256183"><ele>639.0</ele><time>2026-05-02T14:03:48.896Z</time></trkpt><trkpt lat="42.66521706199579" lon="12.576059988611748"><ele>640.0</ele><time>2026-05-02T14:03:49.896Z</time></trkpt><trkpt lat="42.66522964652555" lon="12.576216903677647"><ele>641.0</ele><time>2026-05-02T14:03:50.896Z</time></trkpt><trkpt lat="42.665256213579646" lon="12.576363540195356"><ele>642.0</ele><time>2026-05-02T14:03:51.896Z</time></trkpt><trkpt lat="42.665288949757546" lon="12.576515318995481"><ele>643.0</ele><time>2026-05-02T14:03:52.896Z</time></trkpt><trkpt lat="42.66532460507271" lon="12.576654074442235"><ele>643.0</ele><time>2026-05-02T14:03:53.896Z</time></trkpt><trkpt lat="42.665369323917666" lon="12.57679305172703"><ele>643.0</ele><time>2026-05-02T14:03:54.896Z</time></trkpt><trkpt lat="42.66541012378683" lon="12.576926437689567"><ele>643.0</ele><time>2026-05-02T14:03:55.896Z</time></trkpt><trkpt lat="42.66546559261187" lon="12.577053898354347"><ele>643.0</ele><time>2026-05-02T14:03:56.896Z</time></trkpt><trkpt lat="42.665506373890516" lon="12.57717236706351"><ele>643.0</ele><time>2026-05-02T14:03:57.896Z</time></trkpt><trkpt lat="42.665554002749694" lon="12.577292054758448"><ele>642.5</ele><time>2026-05-02T14:03:58.896Z</time></trkpt><trkpt lat="42.665581889514606" lon="12.577420186381545"><ele>642.0</ele><time>2026-05-02T14:03:59.896Z</time></trkpt><trkpt lat="42.66559497740113" lon="12.577544151971397"><ele>641.5</ele><time>2026-05-02T14:04:00.896Z</time></trkpt><trkpt lat="42.665605229192884" lon="12.57766266173846"><ele>641.0</ele><time>2026-05-02T14:04:01.896Z</time></trkpt><trkpt lat="42.66560827190917" lon="12.577751334402304"><ele>640.5</ele><time>2026-05-02T14:04:02.896Z</time></trkpt><trkpt lat="42.665588811218086" lon="12.577843266955359"><ele>640.0</ele><time>2026-05-02T14:04:03.896Z</time></trkpt><trkpt lat="42.66547555640978" lon="12.577924122150282"><ele>640.0</ele><time>2026-05-02T14:04:05.896Z</time></trkpt><trkpt lat="42.665409046356366" lon="12.577885740894585"><ele>640.0</ele><time>2026-05-02T14:04:06.896Z</time></trkpt><trkpt lat="42.66534042957185" lon="12.577794697625606"><ele>640.0</ele><time>2026-05-02T14:04:07.896Z</time></trkpt><trkpt lat="42.66526253801596" lon="12.57772246836895"><ele>640.0</ele><time>2026-05-02T14:04:08.896Z</time></trkpt><trkpt lat="42.665180479785484" lon="12.577644519747942"><ele>640.0</ele><time>2026-05-02T14:04:09.896Z</time></trkpt><trkpt lat="42.66510404396345" lon="12.57756842414221"><ele>636.6</ele><time>2026-05-02T14:04:10.896Z</time></trkpt><trkpt lat="42.665026893395016" lon="12.57748013520365"><ele>633.2</ele><time>2026-05-02T14:04:11.896Z</time></trkpt><trkpt lat="42.66495645818901" lon="12.577390097240249"><ele>629.8</ele><time>2026-05-02T14:04:12.896Z</time></trkpt><trkpt lat="42.66488960207349" lon="12.577278426564817"><ele>626.4</ele><time>2026-05-02T14:04:13.895Z</time></trkpt><trkpt lat="42.66480895359864" lon="12.577167693650114"><ele>623.0</ele><time>2026-05-02T14:04:14.895Z</time></trkpt><trkpt lat="42.66472248818061" lon="12.577054214656433"><ele>621.25</ele><time>2026-05-02T14:04:15.895Z</time></trkpt><trkpt lat="42.66463306234631" lon="12.57692277346065"><ele>619.5</ele><time>2026-05-02T14:04:16.895Z</time></trkpt><trkpt lat="42.6645476638491" lon="12.57678874746171"><ele>617.75</ele><time>2026-05-02T14:04:17.895Z</time></trkpt><trkpt lat="42.66445247013349" lon="12.576647942115953"><ele>616.0</ele><time>2026-05-02T14:04:18.895Z</time></trkpt><trkpt lat="42.66436610347484" lon="12.576496465195756"><ele>616.0</ele><time>2026-05-02T14:04:19.895Z</time></trkpt><trkpt lat="42.66428155745963" lon="12.576346703135163"><ele>616.0</ele><time>2026-05-02T14:04:20.895Z</time></trkpt><trkpt lat="42.6641984700473" lon="12.576205506251732"><ele>616.0</ele><time>2026-05-02T14:04:21.895Z</time></trkpt><trkpt lat="42.664114428358666" lon="12.57607735534889"><ele>616.0</ele><time>2026-05-02T14:04:22.895Z</time></trkpt><trkpt lat="42.66402666832714" lon="12.575949841519968"><ele>611.25</ele><time>2026-05-02T14:04:23.895Z</time></trkpt><trkpt lat="42.663950719058164" lon="12.57582295886685"><ele>606.5</ele><time>2026-05-02T14:04:24.895Z</time></trkpt><trkpt lat="42.66388119311279" lon="12.57569799499174"><ele>601.75</ele><time>2026-05-02T14:04:25.895Z</time></trkpt><trkpt lat="42.663806708405566" lon="12.57557413130659"><ele>597.0</ele><time>2026-05-02T14:04:26.895Z</time></trkpt><trkpt lat="42.66371893191101" lon="12.575458485020725"><ele>597.0</ele><time>2026-05-02T14:04:27.895Z</time></trkpt><trkpt lat="42.66361692444533" lon="12.575364626447136"><ele>597.0</ele><time>2026-05-02T14:04:28.895Z</time></trkpt><trkpt lat="42.6635059061644" lon="12.575272153536902"><ele>597.0</ele><time>2026-05-02T14:04:29.895Z</time></trkpt><trkpt lat="42.66339668057787" lon="12.575182146000511"><ele>597.0</ele><time>2026-05-02T14:04:30.895Z</time></trkpt><trkpt lat="42.66329052599915" lon="12.575099794831436"><ele>594.2</ele><time>2026-05-02T14:04:31.895Z</time></trkpt><trkpt lat="42.663193992369564" lon="12.57502132499702"><ele>591.4000000000001</ele><time>2026-05-02T14:04:32.895Z</time></trkpt><trkpt lat="42.66309637617322" lon="12.574941669103692"><ele>588.5999999999999</ele><time>2026-05-02T14:04:33.895Z</time></trkpt><trkpt lat="42.66300362591644" lon="12.574878176033225"><ele>585.8</ele><time>2026-05-02T14:04:34.895Z</time></trkpt><trkpt lat="42.662912401244384" lon="12.574826846414691"><ele>583.0</ele><time>2026-05-02T14:04:35.895Z</time></trkpt><trkpt lat="42.662823677290866" lon="12.574801495029453"><ele>583.8333333333334</ele><time>2026-05-02T14:04:36.895Z</time></trkpt><trkpt lat="42.66273817249149" lon="12.574785584414435"><ele>584.6666666666667</ele><time>2026-05-02T14:04:37.895Z</time></trkpt><trkpt lat="42.662660463028445" lon="12.574788960237298"><ele>585.5</ele><time>2026-05-02T14:04:38.895Z</time></trkpt><trkpt lat="42.66257603529387" lon="12.574814702038932"><ele>586.3333333333334</ele><time>2026-05-02T14:04:39.895Z</time></trkpt><trkpt lat="42.662501889113116" lon="12.574883729522695"><ele>587.1666666666666</ele><time>2026-05-02T14:04:40.895Z</time></trkpt><trkpt lat="42.66244788799619" lon="12.574967453495656"><ele>588.0</ele><time>2026-05-02T14:04:41.895Z</time></trkpt><trkpt lat="42.6623917361114" lon="12.575038600412888"><ele>588.0</ele><time>2026-05-02T14:04:42.895Z</time></trkpt><trkpt lat="42.662322989216015" lon="12.575081818727394"><ele>588.0</ele><time>2026-05-02T14:04:43.895Z</time></trkpt><trkpt lat="42.662232859325414" lon="12.57507379503075"><ele>588.0</ele><time>2026-05-02T14:04:44.895Z</time></trkpt><trkpt lat="42.662162881534556" lon="12.57501946967214"><ele>588.0</ele><time>2026-05-02T14:04:45.895Z</time></trkpt><trkpt lat="42.66213319109442" lon="12.574928840728695"><ele>588.0</ele><time>2026-05-02T14:04:46.895Z</time></trkpt><trkpt lat="42.662144367049585" lon="12.574840280431015"><ele>588.0</ele><time>2026-05-02T14:04:47.895Z</time></trkpt><trkpt lat="42.662199648771576" lon="12.57475020227664"><ele>588.0</ele><time>2026-05-02T14:04:48.895Z</time></trkpt><trkpt lat="42.66227433560342" lon="12.574648608299874"><ele>588.0</ele><time>2026-05-02T14:04:49.895Z</time></trkpt><trkpt lat="42.66234616418888" lon="12.574528053327064"><ele>588.0</ele><time>2026-05-02T14:04:50.895Z</time></trkpt><trkpt lat="42.662415665551755" lon="12.574428178433145"><ele>588.0</ele><time>2026-05-02T14:04:51.895Z</time></trkpt><trkpt lat="42.66249740481932" lon="12.574357655202553"><ele>588.0</ele><time>2026-05-02T14:04:52.895Z</time></trkpt><trkpt lat="42.66258953491107" lon="12.57431005973359"><ele>584.6</ele><time>2026-05-02T14:04:53.895Z</time></trkpt><trkpt lat="42.66267795576677" lon="12.574298991438285"><ele>581.1999999999999</ele><time>2026-05-02T14:04:54.895Z</time></trkpt><trkpt lat="42.662779279350374" lon="12.574298375501527"><ele>577.8</ele><time>2026-05-02T14:04:55.895Z</time></trkpt><trkpt lat="42.66289152766754" lon="12.574304236614651"><ele>574.4</ele><time>2026-05-02T14:04:56.895Z</time></trkpt><trkpt lat="42.662988898180764" lon="12.574325337482854"><ele>571.0</ele><time>2026-05-02T14:04:57.895Z</time></trkpt><trkpt lat="42.66306953044194" lon="12.574352524481919"><ele>571.0</ele><time>2026-05-02T14:04:58.895Z</time></trkpt><trkpt lat="42.663145059581986" lon="12.574380683844007"><ele>571.0</ele><time>2026-05-02T14:04:59.895Z</time></trkpt><trkpt lat="42.66324891442786" lon="12.574442221852625"><ele>571.0</ele><time>2026-05-02T14:05:01.895Z</time></trkpt><trkpt lat="42.66332538576506" lon="12.574430807158949"><ele>571.0</ele><time>2026-05-02T14:05:03.895Z</time></trkpt><trkpt lat="42.66337894518291" lon="12.57434556050999"><ele>571.0</ele><time>2026-05-02T14:05:06.895Z</time></trkpt><trkpt lat="42.66337481680648" lon="12.57422229596974"><ele>571.0</ele><time>2026-05-02T14:05:09.895Z</time></trkpt><trkpt lat="42.6632990599873" lon="12.574096865087357"><ele>571.0</ele><time>2026-05-02T14:05:11.895Z</time></trkpt><trkpt lat="42.66323748550746" lon="12.574010310015755"><ele>571.0</ele><time>2026-05-02T14:05:12.895Z</time></trkpt><trkpt lat="42.66316627223473" lon="12.573912730964814"><ele>571.0</ele><time>2026-05-02T14:05:13.895Z</time></trkpt><trkpt lat="42.66307847642318" lon="12.573804228390891"><ele>571.0</ele><time>2026-05-02T14:05:14.895Z</time></trkpt><trkpt lat="42.66297970208544" lon="12.573696409494765"><ele>571.0</ele><time>2026-05-02T14:05:15.895Z</time></trkpt><trkpt lat="42.66289165832625" lon="12.573565567843234"><ele>573.0</ele><time>2026-05-02T14:05:16.895Z</time></trkpt><trkpt lat="42.66280136072104" lon="12.573437674669448"><ele>575.0</ele><time>2026-05-02T14:05:17.895Z</time></trkpt><trkpt lat="42.662718483225156" lon="12.573312748050473"><ele>577.0</ele><time>2026-05-02T14:05:18.895Z</time></trkpt><trkpt lat="42.66265749118577" lon="12.573189435419863"><ele>579.0</ele><time>2026-05-02T14:05:19.895Z</time></trkpt><trkpt lat="42.66260068156444" lon="12.573082363609721"><ele>574.4</ele><time>2026-05-02T14:05:20.895Z</time></trkpt><trkpt lat="42.662564746179704" lon="12.572959552013744"><ele>569.8</ele><time>2026-05-02T14:05:21.895Z</time></trkpt><trkpt lat="42.66254943383091" lon="12.572850853642999"><ele>565.2</ele><time>2026-05-02T14:05:22.895Z</time></trkpt><trkpt lat="42.66256001969448" lon="12.572739248100604"><ele>560.6</ele><time>2026-05-02T14:05:23.895Z</time></trkpt><trkpt lat="42.66258879691397" lon="12.572604843137194"><ele>556.0</ele><time>2026-05-02T14:05:24.894Z</time></trkpt><trkpt lat="42.66264307448209" lon="12.572474737715034"><ele>555.2</ele><time>2026-05-02T14:05:25.894Z</time></trkpt><trkpt lat="42.662676068835744" lon="12.572359994138223"><ele>554.4000000000001</ele><time>2026-05-02T14:05:26.895Z</time></trkpt><trkpt lat="42.662703609487636" lon="12.572226548237985"><ele>553.6</ele><time>2026-05-02T14:05:27.896Z</time></trkpt><trkpt lat="42.66270453624211" lon="12.572081228105258"><ele>552.8000000000001</ele><time>2026-05-02T14:05:28.896Z</time></trkpt><trkpt lat="42.66268712753068" lon="12.571928949612143"><ele>552.0</ele><time>2026-05-02T14:05:29.895Z</time></trkpt><trkpt lat="42.66267116232275" lon="12.571791875659084"><ele>553.6666666666666</ele><time>2026-05-02T14:05:30.896Z</time></trkpt><trkpt lat="42.6626531780477" lon="12.571676559000641"><ele>555.3333333333334</ele><time>2026-05-02T14:05:31.896Z</time></trkpt><trkpt lat="42.66265918012094" lon="12.571575548321483"><ele>557.0</ele><time>2026-05-02T14:05:32.895Z</time></trkpt><trkpt lat="42.66268521312045" lon="12.571481508534596"><ele>558.6666666666667</ele><time>2026-05-02T14:05:33.895Z</time></trkpt><trkpt lat="42.66272000772814" lon="12.571384531944002"><ele>560.3333333333334</ele><time>2026-05-02T14:05:34.895Z</time></trkpt><trkpt lat="42.66278792282362" lon="12.571342487353284"><ele>562.0</ele><time>2026-05-02T14:05:35.895Z</time></trkpt><trkpt lat="42.66287064184978" lon="12.571318834433738"><ele>562.0</ele><time>2026-05-02T14:05:36.895Z</time></trkpt><trkpt lat="42.66294638448814" lon="12.571323134663364"><ele>562.0</ele><time>2026-05-02T14:05:37.895Z</time></trkpt><trkpt lat="42.6630122261078" lon="12.57130192545363"><ele>562.0</ele><time>2026-05-02T14:05:38.895Z</time></trkpt><trkpt lat="42.663034337034844" lon="12.571159795545004"><ele>562.0</ele><time>2026-05-02T14:05:40.895Z</time></trkpt><trkpt lat="42.66295860767152" lon="12.571071633401393"><ele>562.0</ele><time>2026-05-02T14:05:41.895Z</time></trkpt><trkpt lat="42.66284936780621" lon="12.570975819463596"><ele>555.0</ele><time>2026-05-02T14:05:42.895Z</time></trkpt><trkpt lat="42.66277063041224" lon="12.570850985493678"><ele>548.0</ele><time>2026-05-02T14:05:43.895Z</time></trkpt><trkpt lat="42.66270373465108" lon="12.5706682393209"><ele>541.0</ele><time>2026-05-02T14:05:44.895Z</time></trkpt><trkpt lat="42.66264181293164" lon="12.57046477623713"><ele>534.0</ele><time>2026-05-02T14:05:45.895Z</time></trkpt><trkpt lat="42.66258888242116" lon="12.570264376057464"><ele>534.0</ele><time>2026-05-02T14:05:46.895Z</time></trkpt><trkpt lat="42.66255659171249" lon="12.570081954971554"><ele>534.0</ele><time>2026-05-02T14:05:47.895Z</time></trkpt><trkpt lat="42.66252850241061" lon="12.569926894857053"><ele>534.0</ele><time>2026-05-02T14:05:48.895Z</time></trkpt><trkpt lat="42.66246873146673" lon="12.5697943882987"><ele>534.0</ele><time>2026-05-02T14:05:49.895Z</time></trkpt><trkpt lat="42.66243313259013" lon="12.569647833059214"><ele>534.0</ele><time>2026-05-02T14:05:50.895Z</time></trkpt><trkpt lat="42.662391256123094" lon="12.569539566803787"><ele>534.0</ele><time>2026-05-02T14:05:51.895Z</time></trkpt><trkpt lat="42.66230916108218" lon="12.569486529698953"><ele>534.0</ele><time>2026-05-02T14:05:52.895Z</time></trkpt><trkpt lat="42.66219358076685" lon="12.569483456368097"><ele>534.0</ele><time>2026-05-02T14:05:53.895Z</time></trkpt><trkpt lat="42.66204560465766" lon="12.569467241261062"><ele>534.0</ele><time>2026-05-02T14:05:54.895Z</time></trkpt><trkpt lat="42.66193983525428" lon="12.569430685186914"><ele>532.2</ele><time>2026-05-02T14:05:55.895Z</time></trkpt><trkpt lat="42.661856447300664" lon="12.569387735441726"><ele>530.4</ele><time>2026-05-02T14:05:56.895Z</time></trkpt><trkpt lat="42.661798519310594" lon="12.569301967501337"><ele>528.6</ele><time>2026-05-02T14:05:57.895Z</time></trkpt><trkpt lat="42.661748235618916" lon="12.569183333360348"><ele>526.8</ele><time>2026-05-02T14:05:58.895Z</time></trkpt><trkpt lat="42.66171081315946" lon="12.569039239985413"><ele>525.0</ele><time>2026-05-02T14:05:59.895Z</time></trkpt><trkpt lat="42.66167815414153" lon="12.568881348780927"><ele>525.0</ele><time>2026-05-02T14:06:00.895Z</time></trkpt><trkpt lat="42.66164090067256" lon="12.568717440110953"><ele>525.0</ele><time>2026-05-02T14:06:01.895Z</time></trkpt><trkpt lat="42.661609847846044" lon="12.568553981048682"><ele>525.0</ele><time>2026-05-02T14:06:02.895Z</time></trkpt><trkpt lat="42.661587893180496" lon="12.568386397092164"><ele>525.0</ele><time>2026-05-02T14:06:03.895Z</time></trkpt><trkpt lat="42.66157179225836" lon="12.568231444892264"><ele>524.8</ele><time>2026-05-02T14:06:04.895Z</time></trkpt><trkpt lat="42.66155232975928" lon="12.568086121455"><ele>524.6</ele><time>2026-05-02T14:06:05.895Z</time></trkpt><trkpt lat="42.66153039360687" lon="12.567941177891683"><ele>524.4</ele><time>2026-05-02T14:06:06.895Z</time></trkpt><trkpt lat="42.66149478766236" lon="12.56781600178859"><ele>524.2</ele><time>2026-05-02T14:06:07.895Z</time></trkpt><trkpt lat="42.66146364044735" lon="12.567708797593852"><ele>524.0</ele><time>2026-05-02T14:06:08.895Z</time></trkpt><trkpt lat="42.661416526218204" lon="12.567618583365224"><ele>524.0</ele><time>2026-05-02T14:06:09.895Z</time></trkpt><trkpt lat="42.66135887093676" lon="12.567521891263343"><ele>524.0</ele><time>2026-05-02T14:06:10.895Z</time></trkpt><trkpt lat="42.661311635177725" lon="12.567457443452945"><ele>524.0</ele><time>2026-05-02T14:06:11.895Z</time></trkpt><trkpt lat="42.661176303736" lon="12.567578759491088"><ele>524.0</ele><time>2026-05-02T14:06:14.895Z</time></trkpt><trkpt lat="42.66120459311216" lon="12.567743692949222"><ele>524.0</ele><time>2026-05-02T14:06:15.895Z</time></trkpt><trkpt lat="42.6612384952161" lon="12.567873342829207"><ele>524.0</ele><time>2026-05-02T14:06:16.895Z</time></trkpt><trkpt lat="42.66127278325204" lon="12.568016817731415"><ele>524.0</ele><time>2026-05-02T14:06:17.895Z</time></trkpt><trkpt lat="42.66129622220579" lon="12.568153247156697"><ele>524.0</ele><time>2026-05-02T14:06:18.895Z</time></trkpt><trkpt lat="42.661292154572834" lon="12.568276668871132"><ele>524.0</ele><time>2026-05-02T14:06:19.895Z</time></trkpt><trkpt lat="42.66127659531277" lon="12.568382066257984"><ele>524.0</ele><time>2026-05-02T14:06:20.895Z</time></trkpt><trkpt lat="42.66126381512977" lon="12.568466243719202"><ele>524.0</ele><time>2026-05-02T14:06:21.895Z</time></trkpt><trkpt lat="42.661211595220514" lon="12.568523277039708"><ele>521.2</ele><time>2026-05-02T14:06:23.895Z</time></trkpt><trkpt lat="42.66109661887461" lon="12.568538048579747"><ele>518.4</ele><time>2026-05-02T14:06:25.895Z</time></trkpt><trkpt lat="42.66100935335523" lon="12.568487096279997"><ele>515.6</ele><time>2026-05-02T14:06:26.895Z</time></trkpt><trkpt lat="42.66090456793321" lon="12.568451912960054"><ele>512.8</ele><time>2026-05-02T14:06:27.895Z</time></trkpt><trkpt lat="42.66081256239826" lon="12.568410114872483"><ele>510.0</ele><time>2026-05-02T14:06:28.895Z</time></trkpt><trkpt lat="42.66066800934918" lon="12.568310934279063"><ele>510.0</ele><time>2026-05-02T14:06:29.895Z</time></trkpt><trkpt lat="42.660520848886044" lon="12.568144274696778"><ele>510.0</ele><time>2026-05-02T14:06:30.895Z</time></trkpt><trkpt lat="42.6604041842177" lon="12.567967036726893"><ele>510.0</ele><time>2026-05-02T14:06:31.895Z</time></trkpt><trkpt lat="42.66030590727929" lon="12.567814304978418"><ele>506.66666666666663</ele><time>2026-05-02T14:06:32.895Z</time></trkpt><trkpt lat="42.66021783809954" lon="12.567678200693853"><ele>503.3333333333333</ele><time>2026-05-02T14:06:33.895Z</time></trkpt><trkpt lat="42.66012025100544" lon="12.567528408438081"><ele>500.0</ele><time>2026-05-02T14:06:34.895Z</time></trkpt><trkpt lat="42.66000766655114" lon="12.567356104373436"><ele>500.0</ele><time>2026-05-02T14:06:35.895Z</time></trkpt><trkpt lat="42.659905844885984" lon="12.567194741797755"><ele>500.0</ele><time>2026-05-02T14:06:36.895Z</time></trkpt><trkpt lat="42.659815159248986" lon="12.56705618711142"><ele>500.0</ele><time>2026-05-02T14:06:37.895Z</time></trkpt><trkpt lat="42.65974635740831" lon="12.56694308965203"><ele>500.0</ele><time>2026-05-02T14:06:38.895Z</time></trkpt><trkpt lat="42.659669760224375" lon="12.566858666912587"><ele>495.4</ele><time>2026-05-02T14:06:39.895Z</time></trkpt><trkpt lat="42.65958616613993" lon="12.566802435879232"><ele>490.8</ele><time>2026-05-02T14:06:40.895Z</time></trkpt><trkpt lat="42.659501472676354" lon="12.56676910982835"><ele>486.20000000000005</ele><time>2026-05-02T14:06:41.895Z</time></trkpt><trkpt lat="42.65940295576867" lon="12.56674733927325"><ele>481.6</ele><time>2026-05-02T14:06:42.895Z</time></trkpt><trkpt lat="42.65927733419872" lon="12.566789979862298"><ele>477.0</ele><time>2026-05-02T14:06:43.895Z</time></trkpt><trkpt lat="42.659168975619394" lon="12.566831736639871"><ele>476.8</ele><time>2026-05-02T14:06:44.895Z</time></trkpt><trkpt lat="42.65906164085696" lon="12.566837941266005"><ele>476.6</ele><time>2026-05-02T14:06:45.895Z</time></trkpt><trkpt lat="42.658953465986876" lon="12.56684705362291"><ele>476.40000000000003</ele><time>2026-05-02T14:06:46.895Z</time></trkpt><trkpt lat="42.658854276478486" lon="12.566862151041272"><ele>476.20000000000005</ele><time>2026-05-02T14:06:47.895Z</time></trkpt><trkpt lat="42.65877304991069" lon="12.566895197160926"><ele>476.0</ele><time>2026-05-02T14:06:48.895Z</time></trkpt><trkpt lat="42.65867397893638" lon="12.566851859012575"><ele>475.0</ele><time>2026-05-02T14:06:49.895Z</time></trkpt><trkpt lat="42.65856701972481" lon="12.566765884927458"><ele>474.0</ele><time>2026-05-02T14:06:50.895Z</time></trkpt><trkpt lat="42.65848489601034" lon="12.566706651224493"><ele>473.0</ele><time>2026-05-02T14:06:51.895Z</time></trkpt><trkpt lat="42.658391287154885" lon="12.56668193511829"><ele>472.0</ele><time>2026-05-02T14:06:52.895Z</time></trkpt><trkpt lat="42.65828624200158" lon="12.566726102558345"><ele>471.0</ele><time>2026-05-02T14:06:53.895Z</time></trkpt><trkpt lat="42.658181846132365" lon="12.566757183966937"><ele>471.0</ele><time>2026-05-02T14:06:54.895Z</time></trkpt><trkpt lat="42.65808152050444" lon="12.566812672394267"><ele>471.0</ele><time>2026-05-02T14:06:55.895Z</time></trkpt><trkpt lat="42.65798359338254" lon="12.566881186495984"><ele>471.0</ele><time>2026-05-02T14:06:56.895Z</time></trkpt><trkpt lat="42.65788996794025" lon="12.566984839500932"><ele>471.0</ele><time>2026-05-02T14:06:57.895Z</time></trkpt><trkpt lat="42.657782203830244" lon="12.567100027532163"><ele>472.0</ele><time>2026-05-02T14:06:58.895Z</time></trkpt><trkpt lat="42.657703218065556" lon="12.567250610882768"><ele>473.0</ele><time>2026-05-02T14:06:59.894Z</time></trkpt><trkpt lat="42.65762320849102" lon="12.567378482564056"><ele>474.0</ele><time>2026-05-02T14:07:00.892Z</time></trkpt><trkpt lat="42.65751542428836" lon="12.56745321951085"><ele>475.0</ele><time>2026-05-02T14:07:01.891Z</time></trkpt><trkpt lat="42.65743156045137" lon="12.567566498253441"><ele>475.0</ele><time>2026-05-02T14:07:02.89Z</time></trkpt><trkpt lat="42.657321904081705" lon="12.567631657944881"><ele>475.0</ele><time>2026-05-02T14:07:03.889Z</time></trkpt><trkpt lat="42.65724614294467" lon="12.567736385376296"><ele>475.0</ele><time>2026-05-02T14:07:04.888Z</time></trkpt><trkpt lat="42.657148770829906" lon="12.56778617163062"><ele>475.0</ele><time>2026-05-02T14:07:05.887Z</time></trkpt><trkpt lat="42.657065717404535" lon="12.567890805249451"><ele>475.0</ele><time>2026-05-02T14:07:06.886Z</time></trkpt><trkpt lat="42.657006419592896" lon="12.567985770739362"><ele>476.6666666666667</ele><time>2026-05-02T14:07:07.886Z</time></trkpt><trkpt lat="42.65694637842668" lon="12.568081927067166"><ele>478.33333333333337</ele><time>2026-05-02T14:07:09.884Z</time></trkpt><trkpt lat="42.65689330617099" lon="12.567852062678583"><ele>480.0</ele><time>2026-05-02T14:07:13.882Z</time></trkpt><trkpt lat="42.656935293288974" lon="12.56756157709461"><ele>478.75</ele><time>2026-05-02T14:07:14.881Z</time></trkpt><trkpt lat="42.6570058820045" lon="12.567391340819347"><ele>477.5</ele><time>2026-05-02T14:07:15.881Z</time></trkpt><trkpt lat="42.657061077037795" lon="12.567237790350369"><ele>476.25</ele><time>2026-05-02T14:07:16.88Z</time></trkpt><trkpt lat="42.65707433027838" lon="12.567110740613986"><ele>475.0</ele><time>2026-05-02T14:07:17.88Z</time></trkpt><trkpt lat="42.657091015711934" lon="12.566950431363395"><ele>468.0</ele><time>2026-05-02T14:07:18.879Z</time></trkpt><trkpt lat="42.65709778216061" lon="12.566764388753906"><ele>461.0</ele><time>2026-05-02T14:07:19.879Z</time></trkpt><trkpt lat="42.657078445061714" lon="12.566550260450606"><ele>454.0</ele><time>2026-05-02T14:07:20.879Z</time></trkpt><trkpt lat="42.6570579622332" lon="12.566322804186624"><ele>450.5</ele><time>2026-05-02T14:07:21.878Z</time></trkpt><trkpt lat="42.65705366982993" lon="12.566098797671813"><ele>447.0</ele><time>2026-05-02T14:07:22.878Z</time></trkpt><trkpt lat="42.657049006750405" lon="12.565898617701617"><ele>443.5</ele><time>2026-05-02T14:07:23.878Z</time></trkpt><trkpt lat="42.65704294049926" lon="12.565726218223826"><ele>440.0</ele><time>2026-05-02T14:07:24.878Z</time></trkpt><trkpt lat="42.65703691832385" lon="12.565596563190656"><ele>439.99999999999994</ele><time>2026-05-02T14:07:25.877Z</time></trkpt><trkpt lat="42.657032091481895" lon="12.565472943606768"><ele>440.0</ele><time>2026-05-02T14:07:26.877Z</time></trkpt><trkpt lat="42.65700714890827" lon="12.565367830625823"><ele>440.0</ele><time>2026-05-02T14:07:27.877Z</time></trkpt><trkpt lat="42.65695388761173" lon="12.565292477377255"><ele>440.0</ele><time>2026-05-02T14:07:28.877Z</time></trkpt><trkpt lat="42.65688792219098" lon="12.565233191864902"><ele>439.99999999999994</ele><time>2026-05-02T14:07:29.876Z</time></trkpt><trkpt lat="42.65681070120156" lon="12.565223175014003"><ele>440.0</ele><time>2026-05-02T14:07:30.876Z</time></trkpt><trkpt lat="42.65674532236677" lon="12.56522044348832"><ele>442.2</ele><time>2026-05-02T14:07:31.876Z</time></trkpt><trkpt lat="42.65667599715367" lon="12.565230412191982"><ele>444.4</ele><time>2026-05-02T14:07:32.876Z</time></trkpt><trkpt lat="42.65655977572507" lon="12.565258014262604"><ele>446.6</ele><time>2026-05-02T14:07:34.876Z</time></trkpt><trkpt lat="42.65642667662896" lon="12.565304853086964"><ele>448.8</ele><time>2026-05-02T14:07:36.876Z</time></trkpt><trkpt lat="42.656356877317165" lon="12.565368988332116"><ele>451.0</ele><time>2026-05-02T14:07:37.876Z</time></trkpt><trkpt lat="42.65629747032176" lon="12.565449402470087"><ele>452.8</ele><time>2026-05-02T14:07:38.875Z</time></trkpt><trkpt lat="42.65624573446289" lon="12.565540307979566"><ele>454.6</ele><time>2026-05-02T14:07:39.876Z</time></trkpt><trkpt lat="42.656198415461716" lon="12.565636128519708"><ele>456.4</ele><time>2026-05-02T14:07:40.876Z</time></trkpt><trkpt lat="42.65617364379628" lon="12.565764328019393"><ele>458.2</ele><time>2026-05-02T14:07:41.875Z</time></trkpt><trkpt lat="42.656137615954684" lon="12.565913637366064"><ele>460.0</ele><time>2026-05-02T14:07:42.875Z</time></trkpt><trkpt lat="42.65611073937702" lon="12.566085914934948"><ele>457.5</ele><time>2026-05-02T14:07:43.875Z</time></trkpt><trkpt lat="42.656070795971154" lon="12.566270994995353"><ele>455.0</ele><time>2026-05-02T14:07:44.875Z</time></trkpt><trkpt lat="42.65602233027799" lon="12.566451747014904"><ele>452.5</ele><time>2026-05-02T14:07:45.875Z</time></trkpt><trkpt lat="42.65596711774997" lon="12.566642121898846"><ele>450.0</ele><time>2026-05-02T14:07:46.875Z</time></trkpt><trkpt lat="42.65590098626935" lon="12.566810357891168"><ele>450.0</ele><time>2026-05-02T14:07:47.875Z</time></trkpt><trkpt lat="42.655828903776914" lon="12.566951031714423"><ele>450.0</ele><time>2026-05-02T14:07:48.875Z</time></trkpt><trkpt lat="42.65576506100365" lon="12.567076672387952"><ele>450.0</ele><time>2026-05-02T14:07:49.875Z</time></trkpt><trkpt lat="42.65569099126025" lon="12.567195398925703"><ele>450.0</ele><time>2026-05-02T14:07:50.875Z</time></trkpt><trkpt lat="42.65563078823175" lon="12.567343866897822"><ele>453.25</ele><time>2026-05-02T14:07:51.875Z</time></trkpt><trkpt lat="42.65559282248292" lon="12.567521176521776"><ele>456.5</ele><time>2026-05-02T14:07:52.875Z</time></trkpt><trkpt lat="42.65554320775046" lon="12.567691645450392"><ele>459.75</ele><time>2026-05-02T14:07:53.875Z</time></trkpt><trkpt lat="42.65550660105973" lon="12.56785199368603"><ele>463.0</ele><time>2026-05-02T14:07:54.875Z</time></trkpt><trkpt lat="42.655473055872044" lon="12.568010986760633"><ele>464.1666666666667</ele><time>2026-05-02T14:07:55.875Z</time></trkpt><trkpt lat="42.655445072455926" lon="12.56814075517647"><ele>465.33333333333337</ele><time>2026-05-02T14:07:56.875Z</time></trkpt><trkpt lat="42.65539780303423" lon="12.568238013146253"><ele>466.5</ele><time>2026-05-02T14:07:57.875Z</time></trkpt><trkpt lat="42.655330249141876" lon="12.568299430142558"><ele>467.66666666666663</ele><time>2026-05-02T14:07:58.875Z</time></trkpt><trkpt lat="42.655279143095136" lon="12.568368188434315"><ele>468.8333333333333</ele><time>2026-05-02T14:07:59.875Z</time></trkpt><trkpt lat="42.655221199713424" lon="12.568449076214252"><ele>470.0</ele><time>2026-05-02T14:08:00.875Z</time></trkpt><trkpt lat="42.65515996647772" lon="12.56853424088617"><ele>468.49999999999994</ele><time>2026-05-02T14:08:01.874Z</time></trkpt><trkpt lat="42.65510041205189" lon="12.568619043972282"><ele>467.0</ele><time>2026-05-02T14:08:02.874Z</time></trkpt><trkpt lat="42.65503584199742" lon="12.568710988948009"><ele>465.5</ele><time>2026-05-02T14:08:03.874Z</time></trkpt><trkpt lat="42.654980798990955" lon="12.568787302142278"><ele>464.0</ele><time>2026-05-02T14:08:04.874Z</time></trkpt><trkpt lat="42.654933751400236" lon="12.568852017661023"><ele>462.49999999999994</ele><time>2026-05-02T14:08:05.874Z</time></trkpt><trkpt lat="42.65484960343801" lon="12.568929356072237"><ele>461.0</ele><time>2026-05-02T14:08:07.874Z</time></trkpt><trkpt lat="42.65475856488669" lon="12.568885488889915"><ele>461.0</ele><time>2026-05-02T14:08:09.874Z</time></trkpt><trkpt lat="42.65472720935285" lon="12.568778840050838"><ele>461.0</ele><time>2026-05-02T14:08:10.874Z</time></trkpt><trkpt lat="42.65480249738498" lon="12.568567457957181"><ele>461.0</ele><time>2026-05-02T14:08:11.874Z</time></trkpt><trkpt lat="42.65480700046847" lon="12.568378504245338"><ele>461.0</ele><time>2026-05-02T14:08:12.874Z</time></trkpt><trkpt lat="42.65480812083665" lon="12.568174780710102"><ele>457.5</ele><time>2026-05-02T14:08:13.874Z</time></trkpt><trkpt lat="42.65482011476194" lon="12.567980454030062"><ele>454.0</ele><time>2026-05-02T14:08:14.874Z</time></trkpt><trkpt lat="42.65483651471478" lon="12.567787897802598"><ele>450.5</ele><time>2026-05-02T14:08:15.874Z</time></trkpt><trkpt lat="42.65485961874519" lon="12.567599158159624"><ele>447.0</ele><time>2026-05-02T14:08:16.874Z</time></trkpt><trkpt lat="42.65489998193627" lon="12.567427005193702"><ele>446.0</ele><time>2026-05-02T14:08:17.874Z</time></trkpt><trkpt lat="42.654931759054556" lon="12.567241019377501"><ele>445.0</ele><time>2026-05-02T14:08:18.874Z</time></trkpt><trkpt lat="42.65500223424082" lon="12.567069568477658"><ele>444.0</ele><time>2026-05-02T14:08:19.874Z</time></trkpt><trkpt lat="42.65506832307272" lon="12.56691030362912"><ele>443.0</ele><time>2026-05-02T14:08:20.874Z</time></trkpt><trkpt lat="42.655135898791734" lon="12.566767448539565"><ele>442.5</ele><time>2026-05-02T14:08:21.874Z</time></trkpt><trkpt lat="42.65517714248953" lon="12.566614619609764"><ele>442.0</ele><time>2026-05-02T14:08:22.874Z</time></trkpt><trkpt lat="42.65521084210242" lon="12.566434413612901"><ele>441.5</ele><time>2026-05-02T14:08:23.874Z</time></trkpt><trkpt lat="42.65522296169547" lon="12.566235758437273"><ele>441.0</ele><time>2026-05-02T14:08:24.874Z</time></trkpt><trkpt lat="42.65521600978231" lon="12.566017696347663"><ele>438.33333333333337</ele><time>2026-05-02T14:08:25.874Z</time></trkpt><trkpt lat="42.6551941564478" lon="12.565783064568931"><ele>435.6666666666667</ele><time>2026-05-02T14:08:26.874Z</time></trkpt><trkpt lat="42.65518159044228" lon="12.565551103445754"><ele>433.0</ele><time>2026-05-02T14:08:27.874Z</time></trkpt><trkpt lat="42.65517265002493" lon="12.565318843613936"><ele>431.6666666666667</ele><time>2026-05-02T14:08:28.874Z</time></trkpt><trkpt lat="42.6551642459154" lon="12.565087729643109"><ele>430.33333333333337</ele><time>2026-05-02T14:08:29.874Z</time></trkpt><trkpt lat="42.65514769848192" lon="12.564876905226416"><ele>429.0</ele><time>2026-05-02T14:08:30.874Z</time></trkpt><trkpt lat="42.65512420835628" lon="12.564673429003179"><ele>427.0</ele><time>2026-05-02T14:08:31.874Z</time></trkpt><trkpt lat="42.655101938346995" lon="12.564465121257651"><ele>425.0</ele><time>2026-05-02T14:08:32.874Z</time></trkpt><trkpt lat="42.655076280941365" lon="12.564268804878914"><ele>423.0</ele><time>2026-05-02T14:08:33.874Z</time></trkpt><trkpt lat="42.65505115856015" lon="12.564084728279873"><ele>421.0</ele><time>2026-05-02T14:08:34.874Z</time></trkpt><trkpt lat="42.655015109738535" lon="12.563908766427865"><ele>421.0</ele><time>2026-05-02T14:08:35.874Z</time></trkpt><trkpt lat="42.65495586861159" lon="12.563733881620617"><ele>421.0</ele><time>2026-05-02T14:08:36.874Z</time></trkpt><trkpt lat="42.6548622752419" lon="12.563559404003184"><ele>421.0</ele><time>2026-05-02T14:08:37.874Z</time></trkpt><trkpt lat="42.654775756989565" lon="12.563383781832242"><ele>417.0</ele><time>2026-05-02T14:08:38.873Z</time></trkpt><trkpt lat="42.654690373045895" lon="12.563223595365393"><ele>413.0</ele><time>2026-05-02T14:08:39.873Z</time></trkpt><trkpt lat="42.65460492195169" lon="12.563071827455484"><ele>409.0</ele><time>2026-05-02T14:08:40.873Z</time></trkpt><trkpt lat="42.65451820997113" lon="12.562930169767451"><ele>405.0</ele><time>2026-05-02T14:08:41.873Z</time></trkpt><trkpt lat="42.65443167901316" lon="12.562803508504663"><ele>403.0</ele><time>2026-05-02T14:08:42.873Z</time></trkpt><trkpt lat="42.65432495208714" lon="12.562691612840212"><ele>401.0</ele><time>2026-05-02T14:08:43.873Z</time></trkpt><trkpt lat="42.65420373791911" lon="12.562595636715987"><ele>399.0</ele><time>2026-05-02T14:08:44.873Z</time></trkpt><trkpt lat="42.65405717249996" lon="12.562537762138541"><ele>397.0</ele><time>2026-05-02T14:08:45.873Z</time></trkpt><trkpt lat="42.653908162526115" lon="12.562524752059154"><ele>397.0</ele><time>2026-05-02T14:08:46.873Z</time></trkpt><trkpt lat="42.65377029896787" lon="12.562504045809959"><ele>397.0</ele><time>2026-05-02T14:08:47.873Z</time></trkpt><trkpt lat="42.65364752651889" lon="12.562478001879775"><ele>397.0</ele><time>2026-05-02T14:08:48.873Z</time></trkpt><trkpt lat="42.653543396056676" lon="12.562454747399718"><ele>397.0</ele><time>2026-05-02T14:08:49.873Z</time></trkpt><trkpt lat="42.65346202206268" lon="12.56240084240002"><ele>396.25</ele><time>2026-05-02T14:08:50.873Z</time></trkpt><trkpt lat="42.653403478009054" lon="12.562281848877742"><ele>395.5</ele><time>2026-05-02T14:08:51.873Z</time></trkpt><trkpt lat="42.653366023275346" lon="12.562117388512213"><ele>394.75</ele><time>2026-05-02T14:08:52.873Z</time></trkpt><trkpt lat="42.65334272113901" lon="12.561943678323631"><ele>394.0</ele><time>2026-05-02T14:08:53.873Z</time></trkpt><trkpt lat="42.65331301873102" lon="12.561769277223316"><ele>394.0</ele><time>2026-05-02T14:08:54.873Z</time></trkpt><trkpt lat="42.65328234938363" lon="12.561572802812895"><ele>394.0</ele><time>2026-05-02T14:08:55.873Z</time></trkpt><trkpt lat="42.65324194014736" lon="12.56135152304944"><ele>394.0</ele><time>2026-05-02T14:08:56.873Z</time></trkpt><trkpt lat="42.65321405520744" lon="12.561141813273041"><ele>393.25</ele><time>2026-05-02T14:08:57.873Z</time></trkpt><trkpt lat="42.65318778123474" lon="12.56095943361125"><ele>392.5</ele><time>2026-05-02T14:08:58.873Z</time></trkpt><trkpt lat="42.6531660428211" lon="12.56077348133095"><ele>391.75</ele><time>2026-05-02T14:08:59.873Z</time></trkpt><trkpt lat="42.653190176965786" lon="12.560588797163096"><ele>391.0</ele><time>2026-05-02T14:09:00.873Z</time></trkpt><trkpt lat="42.65322708180863" lon="12.560387737867991"><ele>390.0</ele><time>2026-05-02T14:09:01.873Z</time></trkpt><trkpt lat="42.653294166229806" lon="12.560180155048208"><ele>389.0</ele><time>2026-05-02T14:09:02.873Z</time></trkpt><trkpt lat="42.65334926202234" lon="12.559978467266054"><ele>388.0</ele><time>2026-05-02T14:09:03.873Z</time></trkpt><trkpt lat="42.653387947481896" lon="12.559779087305273"><ele>388.0</ele><time>2026-05-02T14:09:04.873Z</time></trkpt><trkpt lat="42.65344347435228" lon="12.559596366697184"><ele>388.0</ele><time>2026-05-02T14:09:05.873Z</time></trkpt><trkpt lat="42.65350904787643" lon="12.559424102727037"><ele>388.0</ele><time>2026-05-02T14:09:06.873Z</time></trkpt><trkpt lat="42.65356132283117" lon="12.559257389874578"><ele>388.0</ele><time>2026-05-02T14:09:07.873Z</time></trkpt><trkpt lat="42.65360774252542" lon="12.559086437819612"><ele>388.0</ele><time>2026-05-02T14:09:08.873Z</time></trkpt><trkpt lat="42.653621606126" lon="12.558936790189161"><ele>388.0</ele><time>2026-05-02T14:09:09.873Z</time></trkpt><trkpt lat="42.653585472892864" lon="12.558777522829324"><ele>388.0</ele><time>2026-05-02T14:09:10.873Z</time></trkpt><trkpt lat="42.65354703498266" lon="12.558604571151355"><ele>388.0</ele><time>2026-05-02T14:09:11.873Z</time></trkpt><trkpt lat="42.65343217334975" lon="12.55843551548468"><ele>386.75</ele><time>2026-05-02T14:09:12.873Z</time></trkpt><trkpt lat="42.65335895386612" lon="12.558255621299967"><ele>385.5</ele><time>2026-05-02T14:09:13.873Z</time></trkpt><trkpt lat="42.653276748758685" lon="12.55808507378573"><ele>384.25</ele><time>2026-05-02T14:09:14.873Z</time></trkpt><trkpt lat="42.65318885956451" lon="12.557931430012548"><ele>383.0</ele><time>2026-05-02T14:09:15.873Z</time></trkpt><trkpt lat="42.65310251686989" lon="12.557780489829131"><ele>383.79999999999995</ele><time>2026-05-02T14:09:16.873Z</time></trkpt><trkpt lat="42.65301837196988" lon="12.557631169597009"><ele>384.6</ele><time>2026-05-02T14:09:17.873Z</time></trkpt><trkpt lat="42.6529500596495" lon="12.557512005866231"><ele>385.4</ele><time>2026-05-02T14:09:18.873Z</time></trkpt><trkpt lat="42.652889251978735" lon="12.55741322795311"><ele>386.20000000000005</ele><time>2026-05-02T14:09:19.873Z</time></trkpt><trkpt lat="42.65282894539921" lon="12.557351722153161"><ele>387.0</ele><time>2026-05-02T14:09:20.873Z</time></trkpt><trkpt lat="42.652762272022976" lon="12.557297552181643"><ele>387.0</ele><time>2026-05-02T14:09:21.873Z</time></trkpt><trkpt lat="42.65268917141215" lon="12.557255597597226"><ele>387.0</ele><time>2026-05-02T14:09:22.873Z</time></trkpt><trkpt lat="42.65273289346597" lon="12.55679525016281"><ele>387.0</ele><time>2026-05-02T14:09:23.873Z</time></trkpt><trkpt lat="42.652571989824274" lon="12.556750769949193"><ele>384.0</ele><time>2026-05-02T14:09:24.873Z</time></trkpt><trkpt lat="42.65240210024832" lon="12.556712361408728"><ele>381.0</ele><time>2026-05-02T14:09:25.873Z</time></trkpt><trkpt lat="42.6522056341874" lon="12.55667308532408"><ele>378.0</ele><time>2026-05-02T14:09:26.873Z</time></trkpt><trkpt lat="42.65198684584297" lon="12.556623001717512"><ele>380.0</ele><time>2026-05-02T14:09:27.873Z</time></trkpt><trkpt lat="42.6517114319652" lon="12.556577871586455"><ele>382.0</ele><time>2026-05-02T14:09:28.873Z</time></trkpt><trkpt lat="42.65141710930881" lon="12.556672158369235"><ele>382.0</ele><time>2026-05-02T14:09:29.873Z</time></trkpt><trkpt lat="42.65115847567111" lon="12.556534552711424"><ele>382.0</ele><time>2026-05-02T14:09:30.873Z</time></trkpt><trkpt lat="42.65101496906284" lon="12.556369114686625"><ele>381.66666666666663</ele><time>2026-05-02T14:09:31.873Z</time></trkpt><trkpt lat="42.650933301294444" lon="12.55614311926087"><ele>381.3333333333333</ele><time>2026-05-02T14:09:32.872Z</time></trkpt><trkpt lat="42.650912347139766" lon="12.555932451293108"><ele>381.0</ele><time>2026-05-02T14:09:33.872Z</time></trkpt><trkpt lat="42.65087990001755" lon="12.555753691142026"><ele>381.0</ele><time>2026-05-02T14:09:34.872Z</time></trkpt><trkpt lat="42.65083455130704" lon="12.555600931887717"><ele>381.0</ele><time>2026-05-02T14:09:35.872Z</time></trkpt><trkpt lat="42.65081330431932" lon="12.555471002627096"><ele>381.0</ele><time>2026-05-02T14:09:36.872Z</time></trkpt><trkpt lat="42.650799395982595" lon="12.555362670399408"><ele>381.0</ele><time>2026-05-02T14:09:37.872Z</time></trkpt><trkpt lat="42.65078437557539" lon="12.555223522549163"><ele>381.0</ele><time>2026-05-02T14:09:39.873Z</time></trkpt><trkpt lat="42.6507533516113" lon="12.555130836264562"><ele>382.0</ele><time>2026-05-02T14:09:43.873Z</time></trkpt><trkpt lat="42.65062925852145" lon="12.55512928572875"><ele>383.0</ele><time>2026-05-02T14:09:45.873Z</time></trkpt><trkpt lat="42.65055529046445" lon="12.555145435464205"><ele>384.0</ele><time>2026-05-02T14:09:46.873Z</time></trkpt><trkpt lat="42.650466424023286" lon="12.555164015489174"><ele>385.0</ele><time>2026-05-02T14:09:47.873Z</time></trkpt><trkpt lat="42.65038169788681" lon="12.555187557438005"><ele>386.0</ele><time>2026-05-02T14:09:48.873Z</time></trkpt><trkpt lat="42.650283473810205" lon="12.555225028191739"><ele>386.66666666666663</ele><time>2026-05-02T14:09:49.873Z</time></trkpt><trkpt lat="42.650222319877116" lon="12.555256049468037"><ele>387.3333333333333</ele><time>2026-05-02T14:09:50.872Z</time></trkpt><trkpt lat="42.65012440831147" lon="12.555318836614658"><ele>388.0</ele><time>2026-05-02T14:09:52.872Z</time></trkpt><trkpt lat="42.65003987127913" lon="12.555341456449035"><ele>388.66666666666663</ele><time>2026-05-02T14:09:53.872Z</time></trkpt><trkpt lat="42.64996157381835" lon="12.555399379871503"><ele>389.3333333333333</ele><time>2026-05-02T14:09:54.872Z</time></trkpt><trkpt lat="42.6498796842695" lon="12.555458801616576"><ele>390.0</ele><time>2026-05-02T14:09:55.872Z</time></trkpt><trkpt lat="42.64980797453596" lon="12.555512031206542"><ele>390.0</ele><time>2026-05-02T14:09:56.872Z</time></trkpt><trkpt lat="42.649735358761816" lon="12.555566097163485"><ele>390.0</ele><time>2026-05-02T14:09:57.872Z</time></trkpt><trkpt lat="42.64965986623995" lon="12.555623567431619"><ele>390.0</ele><time>2026-05-02T14:09:58.872Z</time></trkpt><trkpt lat="42.64958413024782" lon="12.555682319428406"><ele>390.0</ele><time>2026-05-02T14:09:59.872Z</time></trkpt><trkpt lat="42.64952182866949" lon="12.555732405160503"><ele>390.0</ele><time>2026-05-02T14:10:00.872Z</time></trkpt><trkpt lat="42.649464928144404" lon="12.555780296246915"><ele>390.0</ele><time>2026-05-02T14:10:01.872Z</time></trkpt><trkpt lat="42.64939846362598" lon="12.55584134266346"><ele>391.8</ele><time>2026-05-02T14:10:02.872Z</time></trkpt><trkpt lat="42.64931130642644" lon="12.555934597807129"><ele>393.6</ele><time>2026-05-02T14:10:04.872Z</time></trkpt><trkpt lat="42.64925171547565" lon="12.555999811123248"><ele>395.4</ele><time>2026-05-02T14:10:05.872Z</time></trkpt><trkpt lat="42.6491870671408" lon="12.55601152480903"><ele>397.2</ele><time>2026-05-02T14:10:06.872Z</time></trkpt><trkpt lat="42.649093287316624" lon="12.55598881875948"><ele>399.0</ele><time>2026-05-02T14:10:08.872Z</time></trkpt><trkpt lat="42.64873752603378" lon="12.555704671808222"><ele>399.0</ele><time>2026-05-02T14:10:10.872Z</time></trkpt><trkpt lat="42.64865700716618" lon="12.555703997031618"><ele>399.0</ele><time>2026-05-02T14:10:11.872Z</time></trkpt><trkpt lat="42.64857600529263" lon="12.555672006833339"><ele>399.0</ele><time>2026-05-02T14:10:12.872Z</time></trkpt><trkpt lat="42.64849265154226" lon="12.555648207464941"><ele>399.0</ele><time>2026-05-02T14:10:13.872Z</time></trkpt><trkpt lat="42.648404072808795" lon="12.555631465035113"><ele>399.0</ele><time>2026-05-02T14:10:14.872Z</time></trkpt><trkpt lat="42.64830746981585" lon="12.555610455896536"><ele>399.0</ele><time>2026-05-02T14:10:15.872Z</time></trkpt><trkpt lat="42.64820734621332" lon="12.555598526924927"><ele>402.0</ele><time>2026-05-02T14:10:16.872Z</time></trkpt><trkpt lat="42.64810459405486" lon="12.555609880830543"><ele>405.0</ele><time>2026-05-02T14:10:17.872Z</time></trkpt><trkpt lat="42.64798744372342" lon="12.555649318829838"><ele>408.0</ele><time>2026-05-02T14:10:18.872Z</time></trkpt><trkpt lat="42.64787812314471" lon="12.555799228265753"><ele>411.0</ele><time>2026-05-02T14:10:19.872Z</time></trkpt><trkpt lat="42.647696603232774" lon="12.555876994705176"><ele>412.33333333333337</ele><time>2026-05-02T14:10:20.872Z</time></trkpt><trkpt lat="42.647537565295984" lon="12.555901787325213"><ele>413.6666666666667</ele><time>2026-05-02T14:10:21.872Z</time></trkpt><trkpt lat="42.64738684759307" lon="12.555937414221576"><ele>415.0</ele><time>2026-05-02T14:10:22.872Z</time></trkpt><trkpt lat="42.64723687996897" lon="12.555976108398033"><ele>415.0</ele><time>2026-05-02T14:10:23.872Z</time></trkpt><trkpt lat="42.64707507081131" lon="12.556015521900715"><ele>415.0</ele><time>2026-05-02T14:10:24.872Z</time></trkpt><trkpt lat="42.646915378457265" lon="12.55604732289327"><ele>415.0</ele><time>2026-05-02T14:10:25.872Z</time></trkpt><trkpt lat="42.646766604988144" lon="12.556074036966814"><ele>414.33333333333337</ele><time>2026-05-02T14:10:26.872Z</time></trkpt><trkpt lat="42.646605077571834" lon="12.556104550953599"><ele>413.66666666666663</ele><time>2026-05-02T14:10:27.872Z</time></trkpt><trkpt lat="42.6464452126897" lon="12.55613547251141"><ele>413.0</ele><time>2026-05-02T14:10:28.872Z</time></trkpt><trkpt lat="42.64629406763909" lon="12.556164482270804"><ele>413.0</ele><time>2026-05-02T14:10:29.872Z</time></trkpt><trkpt lat="42.64615777862676" lon="12.556186350731286"><ele>413.0</ele><time>2026-05-02T14:10:30.872Z</time></trkpt><trkpt lat="42.64602190411205" lon="12.55620529294978"><ele>413.0</ele><time>2026-05-02T14:10:31.872Z</time></trkpt><trkpt lat="42.6458841736687" lon="12.55622551800623"><ele>413.0</ele><time>2026-05-02T14:10:32.872Z</time></trkpt><trkpt lat="42.64574802240328" lon="12.5562479543467"><ele>413.5</ele><time>2026-05-02T14:10:33.872Z</time></trkpt><trkpt lat="42.64561043787512" lon="12.556270823591495"><ele>414.0</ele><time>2026-05-02T14:10:34.872Z</time></trkpt><trkpt lat="42.64546953640271" lon="12.556294545811623"><ele>414.5</ele><time>2026-05-02T14:10:35.872Z</time></trkpt><trkpt lat="42.645304506892934" lon="12.556321483435253"><ele>415.0</ele><time>2026-05-02T14:10:36.872Z</time></trkpt><trkpt lat="42.64515197318841" lon="12.556344121971152"><ele>415.0</ele><time>2026-05-02T14:10:37.872Z</time></trkpt><trkpt lat="42.64500751853357" lon="12.556365561437927"><ele>415.0</ele><time>2026-05-02T14:10:38.872Z</time></trkpt><trkpt lat="42.644868342171385" lon="12.556386651072593"><ele>415.0</ele><time>2026-05-02T14:10:39.872Z</time></trkpt><trkpt lat="42.64471632407214" lon="12.556411673652057"><ele>415.0</ele><time>2026-05-02T14:10:40.872Z</time></trkpt><trkpt lat="42.64458054334778" lon="12.556434023491176"><ele>415.5</ele><time>2026-05-02T14:10:41.872Z</time></trkpt><trkpt lat="42.64444105571605" lon="12.556456983494822"><ele>416.0</ele><time>2026-05-02T14:10:42.872Z</time></trkpt><trkpt lat="42.64430214312109" lon="12.55647984886396"><ele>416.5</ele><time>2026-05-02T14:10:43.872Z</time></trkpt><trkpt lat="42.644161823871094" lon="12.556502215648734"><ele>417.0</ele><time>2026-05-02T14:10:44.872Z</time></trkpt><trkpt lat="42.64401990816547" lon="12.556524146129641"><ele>417.0</ele><time>2026-05-02T14:10:45.872Z</time></trkpt><trkpt lat="42.6438816797421" lon="12.556545238880757"><ele>417.0</ele><time>2026-05-02T14:10:46.872Z</time></trkpt><trkpt lat="42.643744068536776" lon="12.55656614187519"><ele>417.0</ele><time>2026-05-02T14:10:47.871Z</time></trkpt><trkpt lat="42.64360647361679" lon="12.556591113658719"><ele>417.0</ele><time>2026-05-02T14:10:48.871Z</time></trkpt><trkpt lat="42.64347878419112" lon="12.556626474476747"><ele>418.75</ele><time>2026-05-02T14:10:49.871Z</time></trkpt><trkpt lat="42.64333066833763" lon="12.556664930349223"><ele>420.5</ele><time>2026-05-02T14:10:50.871Z</time></trkpt><trkpt lat="42.643215287420226" lon="12.556730640159762"><ele>422.25</ele><time>2026-05-02T14:10:51.871Z</time></trkpt><trkpt lat="42.643105958409095" lon="12.556790916392847"><ele>424.0</ele><time>2026-05-02T14:10:52.871Z</time></trkpt><trkpt lat="42.64299397675657" lon="12.556867276211756"><ele>424.0</ele><time>2026-05-02T14:10:53.871Z</time></trkpt><trkpt lat="42.64288776993934" lon="12.556950433556509"><ele>424.0</ele><time>2026-05-02T14:10:54.871Z</time></trkpt><trkpt lat="42.64278625088866" lon="12.557045824399756"><ele>424.0</ele><time>2026-05-02T14:10:55.871Z</time></trkpt><trkpt lat="42.64267363913365" lon="12.557139042930862"><ele>424.0</ele><time>2026-05-02T14:10:56.871Z</time></trkpt><trkpt lat="42.64256357687311" lon="12.557261201815926"><ele>425.0</ele><time>2026-05-02T14:10:57.871Z</time></trkpt><trkpt lat="42.642469916298886" lon="12.557392453672719"><ele>426.0</ele><time>2026-05-02T14:10:58.871Z</time></trkpt><trkpt lat="42.64237369608507" lon="12.557544108555263"><ele>427.0</ele><time>2026-05-02T14:10:59.871Z</time></trkpt><trkpt lat="42.6422805420837" lon="12.557714234052835"><ele>428.0</ele><time>2026-05-02T14:11:00.871Z</time></trkpt><trkpt lat="42.642184475213725" lon="12.557876677573635"><ele>428.0</ele><time>2026-05-02T14:11:01.871Z</time></trkpt><trkpt lat="42.642074107885755" lon="12.558028816757329"><ele>428.0</ele><time>2026-05-02T14:11:02.871Z</time></trkpt><trkpt lat="42.64197966956157" lon="12.558179050045087"><ele>428.0</ele><time>2026-05-02T14:11:03.871Z</time></trkpt><trkpt lat="42.64190375488399" lon="12.558298141644"><ele>428.0</ele><time>2026-05-02T14:11:04.871Z</time></trkpt><trkpt lat="42.64180730403518" lon="12.558447990710812"><ele>430.4</ele><time>2026-05-02T14:11:05.871Z</time></trkpt><trkpt lat="42.64172808681529" lon="12.558571588825288"><ele>432.79999999999995</ele><time>2026-05-02T14:11:06.871Z</time></trkpt><trkpt lat="42.641651146716285" lon="12.558694011839695"><ele>435.2</ele><time>2026-05-02T14:11:07.871Z</time></trkpt><trkpt lat="42.641606107979705" lon="12.558765671717357"><ele>437.6</ele><time>2026-05-02T14:11:08.871Z</time></trkpt><trkpt lat="42.64155355323933" lon="12.558849290652251"><ele>440.0</ele><time>2026-05-02T14:11:09.871Z</time></trkpt><trkpt lat="42.641693549224364" lon="12.559163450052221"><ele>440.3333333333333</ele><time>2026-05-02T14:11:11.871Z</time></trkpt><trkpt lat="42.64162162884557" lon="12.559192051111376"><ele>440.66666666666663</ele><time>2026-05-02T14:11:13.871Z</time></trkpt><trkpt lat="42.641573341707144" lon="12.559260073315977"><ele>441.0</ele><time>2026-05-02T14:11:22.871Z</time></trkpt><trkpt lat="42.641562403844" lon="12.559364631787375"><ele>441.33333333333337</ele><time>2026-05-02T14:11:25.871Z</time></trkpt><trkpt lat="42.641589944383846" lon="12.55946896083038"><ele>441.6666666666667</ele><time>2026-05-02T14:11:27.871Z</time></trkpt><trkpt lat="42.64154213765667" lon="12.559544518774008"><ele>442.0</ele><time>2026-05-02T14:11:31.871Z</time></trkpt><trkpt lat="42.6414841568608" lon="12.55960536088138"><ele>444.0</ele><time>2026-05-02T14:11:33.871Z</time></trkpt><trkpt lat="42.64141705943155" lon="12.559605672824855"><ele>446.00000000000006</ele><time>2026-05-02T14:11:37.871Z</time></trkpt><trkpt lat="42.641449983728634" lon="12.559708850080888"><ele>448.00000000000006</ele><time>2026-05-02T14:11:42.871Z</time></trkpt><trkpt lat="42.641365804465096" lon="12.559647687058254"><ele>450.0</ele><time>2026-05-02T14:11:46.871Z</time></trkpt><trkpt lat="42.64125895014426" lon="12.55962984777756"><ele>452.0</ele><time>2026-05-02T14:11:48.871Z</time></trkpt><trkpt lat="42.64116490327106" lon="12.559660363645579"><ele>451.99999999999994</ele><time>2026-05-02T14:11:50.871Z</time></trkpt><trkpt lat="42.641095880695794" lon="12.559726050375115"><ele>452.0</ele><time>2026-05-02T14:11:52.871Z</time></trkpt><trkpt lat="42.641148300744604" lon="12.559872879013273"><ele>452.0</ele><time>2026-05-02T14:11:55.871Z</time></trkpt><trkpt lat="42.64120955785234" lon="12.559972842079507"><ele>452.0</ele><time>2026-05-02T14:11:57.871Z</time></trkpt><trkpt lat="42.64127222391611" lon="12.560001615409663"><ele>451.99999999999994</ele><time>2026-05-02T14:11:58.871Z</time></trkpt><trkpt lat="42.64133861918576" lon="12.560024768099003"><ele>452.0</ele><time>2026-05-02T14:11:59.871Z</time></trkpt><trkpt lat="42.641418785045005" lon="12.56007207991766"><ele>452.0</ele><time>2026-05-02T14:12:01.871Z</time></trkpt><trkpt lat="42.641484837079844" lon="12.560165186199868"><ele>452.00000000000006</ele><time>2026-05-02T14:12:03.871Z</time></trkpt><trkpt lat="42.6415426475948" lon="12.560275944622727"><ele>452.00000000000006</ele><time>2026-05-02T14:12:05.871Z</time></trkpt><trkpt lat="42.6415981524853" lon="12.560425773935462"><ele>452.0</ele><time>2026-05-02T14:12:07.871Z</time></trkpt><trkpt lat="42.641638919744835" lon="12.560546584054247"><ele>452.0</ele><time>2026-05-02T14:12:08.871Z</time></trkpt><trkpt lat="42.64166843970407" lon="12.560658858903322"><ele>452.49999999999994</ele><time>2026-05-02T14:12:09.871Z</time></trkpt><trkpt lat="42.641711646834224" lon="12.560803249379916"><ele>453.0</ele><time>2026-05-02T14:12:11.871Z</time></trkpt><trkpt lat="42.641764968668134" lon="12.560864415170114"><ele>453.5</ele><time>2026-05-02T14:12:13.871Z</time></trkpt><trkpt lat="42.64183028446386" lon="12.560931923789063"><ele>454.0</ele><time>2026-05-02T14:12:15.871Z</time></trkpt><trkpt lat="42.64186175941877" lon="12.561064088497535"><ele>454.49999999999994</ele><time>2026-05-02T14:12:17.87Z</time></trkpt><trkpt lat="42.641847329781946" lon="12.561151006071611"><ele>455.0</ele><time>2026-05-02T14:12:18.87Z</time></trkpt><trkpt lat="42.64184609138163" lon="12.56124196629174"><ele>454.99999999999994</ele><time>2026-05-02T14:12:19.87Z</time></trkpt><trkpt lat="42.64184728329648" lon="12.561335729568428"><ele>455.0</ele><time>2026-05-02T14:12:20.87Z</time></trkpt><trkpt lat="42.641863902366104" lon="12.561436987153153"><ele>455.0</ele><time>2026-05-02T14:12:21.87Z</time></trkpt><trkpt lat="42.64185902469828" lon="12.561529531181245"><ele>455.0</ele><time>2026-05-02T14:12:22.87Z</time></trkpt><trkpt lat="42.641861490789154" lon="12.561647870402053"><ele>454.99999999999994</ele><time>2026-05-02T14:12:23.87Z</time></trkpt><trkpt lat="42.64185060557455" lon="12.561757947301999"><ele>455.0</ele><time>2026-05-02T14:12:24.87Z</time></trkpt><trkpt lat="42.64184590666999" lon="12.561853935587193"><ele>454.99999999999994</ele><time>2026-05-02T14:12:25.87Z</time></trkpt><trkpt lat="42.64185149400387" lon="12.561944387932558"><ele>455.0</ele><time>2026-05-02T14:12:26.87Z</time></trkpt><trkpt lat="42.64183333506002" lon="12.562058870686363"><ele>455.0</ele><time>2026-05-02T14:12:28.87Z</time></trkpt><trkpt lat="42.64176448824481" lon="12.562094308139981"><ele>455.0</ele><time>2026-05-02T14:12:29.87Z</time></trkpt><trkpt lat="42.64166868832118" lon="12.562116388223066"><ele>454.99999999999994</ele><time>2026-05-02T14:12:30.87Z</time></trkpt><trkpt lat="42.64156518145735" lon="12.56212849622144"><ele>455.0</ele><time>2026-05-02T14:12:31.87Z</time></trkpt><trkpt lat="42.641458616213356" lon="12.562153076732702"><ele>454.75</ele><time>2026-05-02T14:12:32.87Z</time></trkpt><trkpt lat="42.64134839922995" lon="12.562197653592246"><ele>454.5</ele><time>2026-05-02T14:12:33.87Z</time></trkpt><trkpt lat="42.64123419520266" lon="12.562232424888839"><ele>454.25</ele><time>2026-05-02T14:12:34.87Z</time></trkpt><trkpt lat="42.64111372767368" lon="12.562239184412496"><ele>454.0</ele><time>2026-05-02T14:12:35.87Z</time></trkpt><trkpt lat="42.640991453623634" lon="12.562190803585052"><ele>454.0</ele><time>2026-05-02T14:12:36.87Z</time></trkpt><trkpt lat="42.6408560671196" lon="12.562110753423932"><ele>454.0</ele><time>2026-05-02T14:12:37.87Z</time></trkpt><trkpt lat="42.640715452495975" lon="12.562002532244621"><ele>454.0</ele><time>2026-05-02T14:12:38.87Z</time></trkpt><trkpt lat="42.640569366551496" lon="12.561899919662391"><ele>454.0</ele><time>2026-05-02T14:12:39.87Z</time></trkpt><trkpt lat="42.640425192157096" lon="12.561811010466297"><ele>454.0</ele><time>2026-05-02T14:12:40.87Z</time></trkpt><trkpt lat="42.64027489806474" lon="12.561761375060392"><ele>454.0</ele><time>2026-05-02T14:12:41.87Z</time></trkpt><trkpt lat="42.64011719209867" lon="12.561742260160925"><ele>454.0</ele><time>2026-05-02T14:12:42.87Z</time></trkpt><trkpt lat="42.63995157083373" lon="12.561753913830644"><ele>454.0</ele><time>2026-05-02T14:12:43.87Z</time></trkpt><trkpt lat="42.63978134399999" lon="12.561812012384472"><ele>454.0</ele><time>2026-05-02T14:12:44.87Z</time></trkpt><trkpt lat="42.63961815845128" lon="12.56191177351529"><ele>455.33333333333337</ele><time>2026-05-02T14:12:45.87Z</time></trkpt><trkpt lat="42.63946432583591" lon="12.562031998728074"><ele>456.66666666666663</ele><time>2026-05-02T14:12:46.87Z</time></trkpt><trkpt lat="42.63931741108796" lon="12.562153445255738"><ele>458.0</ele><time>2026-05-02T14:12:47.87Z</time></trkpt><trkpt lat="42.63917302458994" lon="12.562251024940682"><ele>458.0</ele><time>2026-05-02T14:12:48.87Z</time></trkpt><trkpt lat="42.63902099263571" lon="12.562296598628459"><ele>458.0</ele><time>2026-05-02T14:12:49.87Z</time></trkpt><trkpt lat="42.63884985927025" lon="12.562342819032983"><ele>458.0</ele><time>2026-05-02T14:12:50.87Z</time></trkpt><trkpt lat="42.638677990622675" lon="12.562349397539645"><ele>459.3333333333333</ele><time>2026-05-02T14:12:51.87Z</time></trkpt><trkpt lat="42.63851546205642" lon="12.56232411990906"><ele>460.66666666666663</ele><time>2026-05-02T14:12:52.87Z</time></trkpt><trkpt lat="42.63835315510994" lon="12.562282218760078"><ele>462.0</ele><time>2026-05-02T14:12:53.87Z</time></trkpt><trkpt lat="42.63818234072525" lon="12.56223528171814"><ele>462.0</ele><time>2026-05-02T14:12:54.87Z</time></trkpt><trkpt lat="42.63800040203988" lon="12.562185287931129"><ele>462.0</ele><time>2026-05-02T14:12:55.87Z</time></trkpt><trkpt lat="42.63781218872772" lon="12.562133569976744"><ele>462.0</ele><time>2026-05-02T14:12:56.87Z</time></trkpt><trkpt lat="42.63761591410737" lon="12.562079257650716"><ele>462.66666666666663</ele><time>2026-05-02T14:12:57.87Z</time></trkpt><trkpt lat="42.6374142373243" lon="12.56202319979321"><ele>463.3333333333333</ele><time>2026-05-02T14:12:58.87Z</time></trkpt><trkpt lat="42.63721355766326" lon="12.56196707817804"><ele>464.0</ele><time>2026-05-02T14:12:59.87Z</time></trkpt><trkpt lat="42.63701861031188" lon="12.56191249948484"><ele>466.3333333333333</ele><time>2026-05-02T14:13:00.87Z</time></trkpt><trkpt lat="42.636829703120206" lon="12.561859942717243"><ele>468.66666666666663</ele><time>2026-05-02T14:13:01.87Z</time></trkpt><trkpt lat="42.63663145381622" lon="12.561804786880334"><ele>471.0</ele><time>2026-05-02T14:13:02.87Z</time></trkpt><trkpt lat="42.63643293690497" lon="12.56174895580886"><ele>471.0</ele><time>2026-05-02T14:13:03.87Z</time></trkpt><trkpt lat="42.63623435577355" lon="12.561689543466938"><ele>471.0</ele><time>2026-05-02T14:13:04.87Z</time></trkpt><trkpt lat="42.63603531377302" lon="12.56163951136481"><ele>471.0</ele><time>2026-05-02T14:13:05.87Z</time></trkpt><trkpt lat="42.635849505490974" lon="12.56158655710318"><ele>470.66666666666663</ele><time>2026-05-02T14:13:06.87Z</time></trkpt><trkpt lat="42.6356654065304" lon="12.561534236970788"><ele>470.3333333333333</ele><time>2026-05-02T14:13:07.87Z</time></trkpt><trkpt lat="42.63547405755561" lon="12.561479856378213"><ele>470.0</ele><time>2026-05-02T14:13:08.87Z</time></trkpt><trkpt lat="42.63529303448126" lon="12.561430871232412"><ele>471.3333333333333</ele><time>2026-05-02T14:13:09.87Z</time></trkpt><trkpt lat="42.63512897318951" lon="12.561412168777167"><ele>472.66666666666663</ele><time>2026-05-02T14:13:10.869Z</time></trkpt><trkpt lat="42.63497388418443" lon="12.561388592500629"><ele>474.0</ele><time>2026-05-02T14:13:11.869Z</time></trkpt><trkpt lat="42.63481277554006" lon="12.561409005564599"><ele>474.0</ele><time>2026-05-02T14:13:12.869Z</time></trkpt><trkpt lat="42.63465212056645" lon="12.561483358740968"><ele>474.0</ele><time>2026-05-02T14:13:13.869Z</time></trkpt><trkpt lat="42.6345064560734" lon="12.56162005621605"><ele>474.0</ele><time>2026-05-02T14:13:14.869Z</time></trkpt><trkpt lat="42.634385402635516" lon="12.561810063961769"><ele>474.0</ele><time>2026-05-02T14:13:15.869Z</time></trkpt><trkpt lat="42.63426195648498" lon="12.562007369018431"><ele>474.0</ele><time>2026-05-02T14:13:16.869Z</time></trkpt><trkpt lat="42.634152683311214" lon="12.562223576936711"><ele>474.0</ele><time>2026-05-02T14:13:17.869Z</time></trkpt><trkpt lat="42.6340472897141" lon="12.562473068790206"><ele>474.0</ele><time>2026-05-02T14:13:18.869Z</time></trkpt><trkpt lat="42.63394826547074" lon="12.56274279397629"><ele>474.0</ele><time>2026-05-02T14:13:19.869Z</time></trkpt><trkpt lat="42.63385165131719" lon="12.56301746669356"><ele>474.0</ele><time>2026-05-02T14:13:20.869Z</time></trkpt><trkpt lat="42.63375941848088" lon="12.56331218229604"><ele>475.66666666666663</ele><time>2026-05-02T14:13:21.869Z</time></trkpt><trkpt lat="42.633668199399416" lon="12.5635699343698"><ele>477.3333333333333</ele><time>2026-05-02T14:13:22.869Z</time></trkpt><trkpt lat="42.633590436401676" lon="12.563800631461023"><ele>479.0</ele><time>2026-05-02T14:13:23.869Z</time></trkpt><trkpt lat="42.63351660661401" lon="12.564015614218933"><ele>477.75</ele><time>2026-05-02T14:13:24.869Z</time></trkpt><trkpt lat="42.633444288752045" lon="12.564216113291522"><ele>476.5</ele><time>2026-05-02T14:13:25.869Z</time></trkpt><trkpt lat="42.63337807731575" lon="12.564391291900304"><ele>475.25</ele><time>2026-05-02T14:13:26.869Z</time></trkpt><trkpt lat="42.63332426910667" lon="12.564556141413314"><ele>474.0</ele><time>2026-05-02T14:13:27.869Z</time></trkpt><trkpt lat="42.633229747590974" lon="12.5646737615502"><ele>474.0</ele><time>2026-05-02T14:13:28.869Z</time></trkpt><trkpt lat="42.633130816061815" lon="12.564773011708219"><ele>474.0</ele><time>2026-05-02T14:13:29.869Z</time></trkpt><trkpt lat="42.63300481424163" lon="12.564822627549445"><ele>474.0</ele><time>2026-05-02T14:13:30.869Z</time></trkpt><trkpt lat="42.63286181471745" lon="12.564841610065582"><ele>474.0</ele><time>2026-05-02T14:13:31.869Z</time></trkpt><trkpt lat="42.632691162191286" lon="12.564804044994416"><ele>473.66666666666663</ele><time>2026-05-02T14:13:32.869Z</time></trkpt><trkpt lat="42.632518171543595" lon="12.564744240212692"><ele>473.3333333333333</ele><time>2026-05-02T14:13:33.869Z</time></trkpt><trkpt lat="42.63234709354559" lon="12.564683542083097"><ele>473.0</ele><time>2026-05-02T14:13:34.869Z</time></trkpt><trkpt lat="42.632174628989205" lon="12.564623114559504"><ele>473.0</ele><time>2026-05-02T14:13:35.869Z</time></trkpt><trkpt lat="42.632011045334956" lon="12.56456594572111"><ele>473.0</ele><time>2026-05-02T14:13:36.869Z</time></trkpt><trkpt lat="42.6318410621677" lon="12.564506540402125"><ele>473.0</ele><time>2026-05-02T14:13:37.869Z</time></trkpt><trkpt lat="42.63167951508699" lon="12.564450083345504"><ele>466.66666666666663</ele><time>2026-05-02T14:13:38.869Z</time></trkpt><trkpt lat="42.63152465232181" lon="12.56439596226476"><ele>460.33333333333337</ele><time>2026-05-02T14:13:39.869Z</time></trkpt><trkpt lat="42.63137738083979" lon="12.564344494123613"><ele>454.0</ele><time>2026-05-02T14:13:40.869Z</time></trkpt><trkpt lat="42.63124007471451" lon="12.564296508758805"><ele>453.5</ele><time>2026-05-02T14:13:41.869Z</time></trkpt><trkpt lat="42.63109641379242" lon="12.564247190377023"><ele>453.0</ele><time>2026-05-02T14:13:42.869Z</time></trkpt><trkpt lat="42.63095454777179" lon="12.564213255144725"><ele>452.5</ele><time>2026-05-02T14:13:43.869Z</time></trkpt><trkpt lat="42.63079876957564" lon="12.564195998363997"><ele>452.0</ele><time>2026-05-02T14:13:44.869Z</time></trkpt><trkpt lat="42.63063832710138" lon="12.564198041235016"><ele>452.0</ele><time>2026-05-02T14:13:45.869Z</time></trkpt><trkpt lat="42.63048449068762" lon="12.564214955611796"><ele>452.0</ele><time>2026-05-02T14:13:46.869Z</time></trkpt><trkpt lat="42.630331234287894" lon="12.564248555082282"><ele>452.0</ele><time>2026-05-02T14:13:47.869Z</time></trkpt><trkpt lat="42.630171679909424" lon="12.564311465927858"><ele>451.0</ele><time>2026-05-02T14:13:48.869Z</time></trkpt><trkpt lat="42.629998875107106" lon="12.564408504273093"><ele>450.0</ele><time>2026-05-02T14:13:49.869Z</time></trkpt><trkpt lat="42.629845106928784" lon="12.56453458394967"><ele>449.0</ele><time>2026-05-02T14:13:50.87Z</time></trkpt><trkpt lat="42.62969384689851" lon="12.564618139673351"><ele>448.25</ele><time>2026-05-02T14:13:51.87Z</time></trkpt><trkpt lat="42.62955468620316" lon="12.564718586583293"><ele>447.5</ele><time>2026-05-02T14:13:52.87Z</time></trkpt><trkpt lat="42.62942375022159" lon="12.564816212868134"><ele>446.75</ele><time>2026-05-02T14:13:53.87Z</time></trkpt><trkpt lat="42.629301296289526" lon="12.564905223232476"><ele>446.0</ele><time>2026-05-02T14:13:54.87Z</time></trkpt><trkpt lat="42.6291815769174" lon="12.56499045592204"><ele>446.0</ele><time>2026-05-02T14:13:55.87Z</time></trkpt><trkpt lat="42.629061649655476" lon="12.565075838635787"><ele>446.0</ele><time>2026-05-02T14:13:56.87Z</time></trkpt><trkpt lat="42.62893759812712" lon="12.56519409080666"><ele>446.0</ele><time>2026-05-02T14:13:57.87Z</time></trkpt><trkpt lat="42.6288178177641" lon="12.565353516246471"><ele>443.75</ele><time>2026-05-02T14:13:58.87Z</time></trkpt><trkpt lat="42.62873657507345" lon="12.56553199019179"><ele>441.5</ele><time>2026-05-02T14:13:59.87Z</time></trkpt><trkpt lat="42.628638016671964" lon="12.565679725151764"><ele>439.25</ele><time>2026-05-02T14:14:00.869Z</time></trkpt><trkpt lat="42.62855617336106" lon="12.565817319463594"><ele>437.0</ele><time>2026-05-02T14:14:01.869Z</time></trkpt><trkpt lat="42.62846232430796" lon="12.565925818218286"><ele>437.0</ele><time>2026-05-02T14:14:02.87Z</time></trkpt><trkpt lat="42.6283544139554" lon="12.56598522769887"><ele>437.0</ele><time>2026-05-02T14:14:03.87Z</time></trkpt><trkpt lat="42.628219595506586" lon="12.566014309052218"><ele>437.0</ele><time>2026-05-02T14:14:04.87Z</time></trkpt><trkpt lat="42.62808471779859" lon="12.566032211371398"><ele>437.0</ele><time>2026-05-02T14:14:05.87Z</time></trkpt><trkpt lat="42.627956965491556" lon="12.56604957456693"><ele>437.0</ele><time>2026-05-02T14:14:06.87Z</time></trkpt><trkpt lat="42.62782164794518" lon="12.566072035081143"><ele>437.0</ele><time>2026-05-02T14:14:07.87Z</time></trkpt><trkpt lat="42.62770114392342" lon="12.56615047002173"><ele>437.0</ele><time>2026-05-02T14:14:08.87Z</time></trkpt><trkpt lat="42.627579754452455" lon="12.566225225944699"><ele>437.0</ele><time>2026-05-02T14:14:09.87Z</time></trkpt><trkpt lat="42.62749435487257" lon="12.566412454695028"><ele>437.5</ele><time>2026-05-02T14:14:10.87Z</time></trkpt><trkpt lat="42.62741213810708" lon="12.566583286484013"><ele>438.0</ele><time>2026-05-02T14:14:11.87Z</time></trkpt><trkpt lat="42.62732694638069" lon="12.566744409340302"><ele>438.5</ele><time>2026-05-02T14:14:12.87Z</time></trkpt><trkpt lat="42.627228140592734" lon="12.566884933328575"><ele>439.0</ele><time>2026-05-02T14:14:13.87Z</time></trkpt><trkpt lat="42.627113410285475" lon="12.566982236116594"><ele>442.75</ele><time>2026-05-02T14:14:14.87Z</time></trkpt><trkpt lat="42.62697865947892" lon="12.567034825575725"><ele>446.5</ele><time>2026-05-02T14:14:15.87Z</time></trkpt><trkpt lat="42.62682935601335" lon="12.567033864356704"><ele>450.25</ele><time>2026-05-02T14:14:16.869Z</time></trkpt><trkpt lat="42.62667092143177" lon="12.567036280968443"><ele>454.0</ele><time>2026-05-02T14:14:17.869Z</time></trkpt><trkpt lat="42.62649735873749" lon="12.567055704635898"><ele>454.0</ele><time>2026-05-02T14:14:18.869Z</time></trkpt><trkpt lat="42.626327546234464" lon="12.567100064251806"><ele>454.0</ele><time>2026-05-02T14:14:19.869Z</time></trkpt><trkpt lat="42.62614985727953" lon="12.567150932205712"><ele>454.0</ele><time>2026-05-02T14:14:20.869Z</time></trkpt><trkpt lat="42.62597590678625" lon="12.56720106026176"><ele>453.0</ele><time>2026-05-02T14:14:21.869Z</time></trkpt><trkpt lat="42.62582541364491" lon="12.567220888881064"><ele>452.0</ele><time>2026-05-02T14:14:22.869Z</time></trkpt><trkpt lat="42.62568566241869" lon="12.567207043468747"><ele>451.0</ele><time>2026-05-02T14:14:23.869Z</time></trkpt><trkpt lat="42.62555180308977" lon="12.567142886236878"><ele>450.0</ele><time>2026-05-02T14:14:24.869Z</time></trkpt><trkpt lat="42.62541778583666" lon="12.567043586158213"><ele>448.0</ele><time>2026-05-02T14:14:25.869Z</time></trkpt><trkpt lat="42.625299165574404" lon="12.566951280188986"><ele>446.0</ele><time>2026-05-02T14:14:26.869Z</time></trkpt><trkpt lat="42.625198614478045" lon="12.566881452264456"><ele>444.0</ele><time>2026-05-02T14:14:27.869Z</time></trkpt><trkpt lat="42.625096851634716" lon="12.566803202513833"><ele>442.0</ele><time>2026-05-02T14:14:28.869Z</time></trkpt><trkpt lat="42.62497510667264" lon="12.566758054629975"><ele>442.0</ele><time>2026-05-02T14:14:29.869Z</time></trkpt><trkpt lat="42.62482364557471" lon="12.566777090692877"><ele>442.0</ele><time>2026-05-02T14:14:30.869Z</time></trkpt><trkpt lat="42.624671959984774" lon="12.56683978769641"><ele>442.0</ele><time>2026-05-02T14:14:31.869Z</time></trkpt><trkpt lat="42.62453014447591" lon="12.56689013312783"><ele>442.0</ele><time>2026-05-02T14:14:32.869Z</time></trkpt><trkpt lat="42.62440782341858" lon="12.566960719081548"><ele>442.0</ele><time>2026-05-02T14:14:33.869Z</time></trkpt><trkpt lat="42.624308526284615" lon="12.567059291010967"><ele>442.0</ele><time>2026-05-02T14:14:34.869Z</time></trkpt><trkpt lat="42.62421800920085" lon="12.567174838673399"><ele>442.0</ele><time>2026-05-02T14:14:35.869Z</time></trkpt><trkpt lat="42.62414585704667" lon="12.567336449605452"><ele>442.0</ele><time>2026-05-02T14:14:36.869Z</time></trkpt><trkpt lat="42.62409865211027" lon="12.567525723997656"><ele>442.0</ele><time>2026-05-02T14:14:37.869Z</time></trkpt><trkpt lat="42.624093068506596" lon="12.567746913785635"><ele>442.0</ele><time>2026-05-02T14:14:38.869Z</time></trkpt><trkpt lat="42.624109577528515" lon="12.567970852878913"><ele>442.5</ele><time>2026-05-02T14:14:39.869Z</time></trkpt><trkpt lat="42.62413926914365" lon="12.568170512599888"><ele>443.0</ele><time>2026-05-02T14:14:40.869Z</time></trkpt><trkpt lat="42.62415278722363" lon="12.568363851483054"><ele>443.5</ele><time>2026-05-02T14:14:41.869Z</time></trkpt><trkpt lat="42.624175318252135" lon="12.568560081901055"><ele>444.0</ele><time>2026-05-02T14:14:42.869Z</time></trkpt><trkpt lat="42.62408903728865" lon="12.568749264857932"><ele>446.0</ele><time>2026-05-02T14:14:43.869Z</time></trkpt><trkpt lat="42.62402809954095" lon="12.5689408621533"><ele>448.0</ele><time>2026-05-02T14:14:44.869Z</time></trkpt><trkpt lat="42.62395127065315" lon="12.569133502199273"><ele>450.0</ele><time>2026-05-02T14:14:45.869Z</time></trkpt><trkpt lat="42.62388939594301" lon="12.569330801457347"><ele>450.0</ele><time>2026-05-02T14:14:46.869Z</time></trkpt><trkpt lat="42.623846133199365" lon="12.569515233882868"><ele>450.0</ele><time>2026-05-02T14:14:47.869Z</time></trkpt><trkpt lat="42.62382287109799" lon="12.569718153578574"><ele>450.0</ele><time>2026-05-02T14:14:48.869Z</time></trkpt><trkpt lat="42.62380566360504" lon="12.569911040997782"><ele>450.0</ele><time>2026-05-02T14:14:49.869Z</time></trkpt><trkpt lat="42.623800765941894" lon="12.570072981643346"><ele>452.0</ele><time>2026-05-02T14:14:50.869Z</time></trkpt><trkpt lat="42.623776573213675" lon="12.570173785331157"><ele>454.0</ele><time>2026-05-02T14:14:51.869Z</time></trkpt><trkpt lat="42.62370568991648" lon="12.570230426760666"><ele>456.0</ele><time>2026-05-02T14:14:52.869Z</time></trkpt><trkpt lat="42.6236108816118" lon="12.570293756762009"><ele>458.0</ele><time>2026-05-02T14:14:53.869Z</time></trkpt><trkpt lat="42.62349677785707" lon="12.570239119310859"><ele>460.0</ele><time>2026-05-02T14:14:54.869Z</time></trkpt><trkpt lat="42.6233739690866" lon="12.570178890286021"><ele>454.25</ele><time>2026-05-02T14:14:55.869Z</time></trkpt><trkpt lat="42.62323958291111" lon="12.570131803481425"><ele>448.5</ele><time>2026-05-02T14:14:56.869Z</time></trkpt><trkpt lat="42.623097748205716" lon="12.57008172516964"><ele>442.75</ele><time>2026-05-02T14:14:57.869Z</time></trkpt><trkpt lat="42.622947708184284" lon="12.570029390282986"><ele>437.0</ele><time>2026-05-02T14:14:58.869Z</time></trkpt><trkpt lat="42.62278843546888" lon="12.56997850938247"><ele>436.0</ele><time>2026-05-02T14:14:59.869Z</time></trkpt><trkpt lat="42.622632260481716" lon="12.569932163748716"><ele>435.0</ele><time>2026-05-02T14:15:00.869Z</time></trkpt><trkpt lat="42.6224697163947" lon="12.569891016559591"><ele>434.0</ele><time>2026-05-02T14:15:01.869Z</time></trkpt><trkpt lat="42.622311188507666" lon="12.569870357785042"><ele>434.0</ele><time>2026-05-02T14:15:02.869Z</time></trkpt><trkpt lat="42.6221561932394" lon="12.569871822990672"><ele>434.0</ele><time>2026-05-02T14:15:03.869Z</time></trkpt><trkpt lat="42.62201667156028" lon="12.569891373286872"><ele>434.0</ele><time>2026-05-02T14:15:04.869Z</time></trkpt><trkpt lat="42.621877772466924" lon="12.569982136220085"><ele>434.0</ele><time>2026-05-02T14:15:05.869Z</time></trkpt><trkpt lat="42.621752739455204" lon="12.570099528156652"><ele>433.5</ele><time>2026-05-02T14:15:06.869Z</time></trkpt><trkpt lat="42.62165669448868" lon="12.570250820320954"><ele>433.0</ele><time>2026-05-02T14:15:07.869Z</time></trkpt><trkpt lat="42.62158707811586" lon="12.57042525913248"><ele>432.5</ele><time>2026-05-02T14:15:08.869Z</time></trkpt><trkpt lat="42.62157025148714" lon="12.570626357383803"><ele>432.0</ele><time>2026-05-02T14:15:09.869Z</time></trkpt><trkpt lat="42.621526952737945" lon="12.570801349994424"><ele>432.0</ele><time>2026-05-02T14:15:10.869Z</time></trkpt><trkpt lat="42.62147656649026" lon="12.570938493429091"><ele>432.0</ele><time>2026-05-02T14:15:11.869Z</time></trkpt><trkpt lat="42.62136866339218" lon="12.571039800068359"><ele>432.0</ele><time>2026-05-02T14:15:12.869Z</time></trkpt><trkpt lat="42.621228030836626" lon="12.571108346535434"><ele>432.0</ele><time>2026-05-02T14:15:13.868Z</time></trkpt><trkpt lat="42.6210564852569" lon="12.571174434968004"><ele>431.66666666666663</ele><time>2026-05-02T14:15:14.868Z</time></trkpt><trkpt lat="42.62088268236634" lon="12.571243310981403"><ele>431.3333333333333</ele><time>2026-05-02T14:15:15.868Z</time></trkpt><trkpt lat="42.62071144514786" lon="12.57131535850385"><ele>431.0</ele><time>2026-05-02T14:15:16.868Z</time></trkpt><trkpt lat="42.62053890811277" lon="12.57140020923848"><ele>431.0</ele><time>2026-05-02T14:15:17.868Z</time></trkpt><trkpt lat="42.62037534732648" lon="12.571488669389424"><ele>431.0</ele><time>2026-05-02T14:15:18.868Z</time></trkpt><trkpt lat="42.620219700793605" lon="12.571572849193638"><ele>431.0</ele><time>2026-05-02T14:15:19.868Z</time></trkpt><trkpt lat="42.62006776015395" lon="12.571655547702667"><ele>423.3333333333333</ele><time>2026-05-02T14:15:20.868Z</time></trkpt><trkpt lat="42.61991379391106" lon="12.571742976044597"><ele>415.66666666666663</ele><time>2026-05-02T14:15:21.868Z</time></trkpt><trkpt lat="42.61976014177261" lon="12.571844729926712"><ele>408.0</ele><time>2026-05-02T14:15:22.868Z</time></trkpt><trkpt lat="42.619608197619655" lon="12.571977265296091"><ele>410.0</ele><time>2026-05-02T14:15:23.868Z</time></trkpt><trkpt lat="42.61946444310519" lon="12.572116583785904"><ele>412.0</ele><time>2026-05-02T14:15:24.868Z</time></trkpt><trkpt lat="42.619332523210126" lon="12.572247830192001"><ele>414.0</ele><time>2026-05-02T14:15:25.868Z</time></trkpt><trkpt lat="42.61921305262887" lon="12.57237133387594"><ele>414.0</ele><time>2026-05-02T14:15:26.868Z</time></trkpt><trkpt lat="42.61910036556603" lon="12.572490323282384"><ele>414.0</ele><time>2026-05-02T14:15:27.868Z</time></trkpt><trkpt lat="42.61899654440192" lon="12.57261262876072"><ele>414.0</ele><time>2026-05-02T14:15:28.868Z</time></trkpt><trkpt lat="42.61890385136493" lon="12.572712238863494"><ele>414.0</ele><time>2026-05-02T14:15:29.868Z</time></trkpt><trkpt lat="42.618816613465164" lon="12.572782947202402"><ele>414.0</ele><time>2026-05-02T14:15:30.868Z</time></trkpt><trkpt lat="42.618722190973536" lon="12.572803389938924"><ele>414.0</ele><time>2026-05-02T14:15:31.868Z</time></trkpt><trkpt lat="42.6186154064982" lon="12.57277205031599"><ele>414.0</ele><time>2026-05-02T14:15:32.868Z</time></trkpt><trkpt lat="42.6184828180691" lon="12.572762952114376"><ele>414.0</ele><time>2026-05-02T14:15:33.868Z</time></trkpt><trkpt lat="42.618369374109804" lon="12.57268142311105"><ele>411.0</ele><time>2026-05-02T14:15:34.868Z</time></trkpt><trkpt lat="42.61826825659401" lon="12.572603282959005"><ele>408.0</ele><time>2026-05-02T14:15:35.868Z</time></trkpt><trkpt lat="42.61814547859986" lon="12.57257001495825"><ele>405.0</ele><time>2026-05-02T14:15:36.868Z</time></trkpt><trkpt lat="42.617995435121756" lon="12.57261125637576"><ele>402.0</ele><time>2026-05-02T14:15:37.868Z</time></trkpt><trkpt lat="42.61782288107951" lon="12.572649143799632"><ele>400.0</ele><time>2026-05-02T14:15:38.868Z</time></trkpt><trkpt lat="42.61766483287631" lon="12.572696235919805"><ele>398.0</ele><time>2026-05-02T14:15:39.868Z</time></trkpt><trkpt lat="42.617511738648126" lon="12.572780810778662"><ele>396.0</ele><time>2026-05-02T14:15:40.868Z</time></trkpt><trkpt lat="42.61735250030654" lon="12.572875842496995"><ele>395.0</ele><time>2026-05-02T14:15:41.868Z</time></trkpt><trkpt lat="42.617199782548454" lon="12.573014105352428"><ele>394.0</ele><time>2026-05-02T14:15:42.868Z</time></trkpt><trkpt lat="42.617052430298706" lon="12.57318583088586"><ele>393.0</ele><time>2026-05-02T14:15:43.868Z</time></trkpt><trkpt lat="42.61693054487185" lon="12.573318019297565"><ele>393.0</ele><time>2026-05-02T14:15:44.868Z</time></trkpt><trkpt lat="42.61679474690645" lon="12.57344362431999"><ele>393.0</ele><time>2026-05-02T14:15:45.868Z</time></trkpt><trkpt lat="42.61666930129569" lon="12.573579571362199"><ele>393.0</ele><time>2026-05-02T14:15:46.868Z</time></trkpt><trkpt lat="42.61654585158898" lon="12.573737652130259"><ele>395.66666666666663</ele><time>2026-05-02T14:15:47.868Z</time></trkpt><trkpt lat="42.616439267716316" lon="12.573919347064114"><ele>398.3333333333333</ele><time>2026-05-02T14:15:48.868Z</time></trkpt><trkpt lat="42.61634517840537" lon="12.57411447809216"><ele>401.0</ele><time>2026-05-02T14:15:49.868Z</time></trkpt><trkpt lat="42.616244252192935" lon="12.574299259852484"><ele>397.66666666666663</ele><time>2026-05-02T14:15:50.868Z</time></trkpt><trkpt lat="42.61613336898288" lon="12.574480313356327"><ele>394.33333333333337</ele><time>2026-05-02T14:15:51.868Z</time></trkpt><trkpt lat="42.61602230573461" lon="12.57466411873991"><ele>391.0</ele><time>2026-05-02T14:15:52.868Z</time></trkpt><trkpt lat="42.615893236228544" lon="12.574851521855848"><ele>391.0</ele><time>2026-05-02T14:15:53.868Z</time></trkpt><trkpt lat="42.61572387232017" lon="12.574999951529998"><ele>391.0</ele><time>2026-05-02T14:15:54.868Z</time></trkpt><trkpt lat="42.61556261736084" lon="12.57517778864017"><ele>391.0</ele><time>2026-05-02T14:15:55.868Z</time></trkpt><trkpt lat="42.61538784558852" lon="12.5753291065282"><ele>390.0</ele><time>2026-05-02T14:15:56.869Z</time></trkpt><trkpt lat="42.61521326411863" lon="12.57550998514348"><ele>389.0</ele><time>2026-05-02T14:15:57.869Z</time></trkpt><trkpt lat="42.61503023522884" lon="12.575685999382676"><ele>388.0</ele><time>2026-05-02T14:15:58.869Z</time></trkpt><trkpt lat="42.61485510242492" lon="12.575855345547748"><ele>388.0</ele><time>2026-05-02T14:15:59.869Z</time></trkpt><trkpt lat="42.61468339163176" lon="12.576005083660384"><ele>388.0</ele><time>2026-05-02T14:16:00.869Z</time></trkpt><trkpt lat="42.61450645626183" lon="12.576144701213973"><ele>388.0</ele><time>2026-05-02T14:16:01.869Z</time></trkpt><trkpt lat="42.6143344138854" lon="12.576277004131972"><ele>390.33333333333337</ele><time>2026-05-02T14:16:02.868Z</time></trkpt><trkpt lat="42.61415999237126" lon="12.576437423993722"><ele>392.66666666666663</ele><time>2026-05-02T14:16:03.869Z</time></trkpt><trkpt lat="42.61399285621076" lon="12.576618425224474"><ele>395.0</ele><time>2026-05-02T14:16:04.869Z</time></trkpt><trkpt lat="42.61383405434185" lon="12.576831345577409"><ele>397.5</ele><time>2026-05-02T14:16:05.869Z</time></trkpt><trkpt lat="42.613679623120554" lon="12.577060581862717"><ele>400.0</ele><time>2026-05-02T14:16:06.869Z</time></trkpt><trkpt lat="42.61350335355194" lon="12.577267422822766"><ele>400.0</ele><time>2026-05-02T14:16:07.869Z</time></trkpt><trkpt lat="42.6133495763297" lon="12.577477477745044"><ele>400.0</ele><time>2026-05-02T14:16:08.868Z</time></trkpt><trkpt lat="42.61320881747873" lon="12.577667279868233"><ele>400.0</ele><time>2026-05-02T14:16:09.868Z</time></trkpt><trkpt lat="42.61309594943048" lon="12.577845957314011"><ele>400.0</ele><time>2026-05-02T14:16:10.868Z</time></trkpt><trkpt lat="42.61297668769969" lon="12.577987676783774"><ele>400.0</ele><time>2026-05-02T14:16:11.868Z</time></trkpt><trkpt lat="42.61287506215759" lon="12.578124211246006"><ele>400.0</ele><time>2026-05-02T14:16:12.868Z</time></trkpt><trkpt lat="42.612781691731904" lon="12.578265657901856"><ele>400.0</ele><time>2026-05-02T14:16:13.868Z</time></trkpt><trkpt lat="42.61269185417218" lon="12.57840602410869"><ele>400.0</ele><time>2026-05-02T14:16:14.868Z</time></trkpt><trkpt lat="42.612597407665454" lon="12.578550780578931"><ele>400.0</ele><time>2026-05-02T14:16:15.868Z</time></trkpt><trkpt lat="42.61250113710883" lon="12.578708030750606"><ele>400.0</ele><time>2026-05-02T14:16:16.868Z</time></trkpt><trkpt lat="42.61239641492288" lon="12.578851185854022"><ele>400.0</ele><time>2026-05-02T14:16:17.868Z</time></trkpt><trkpt lat="42.61228678323178" lon="12.579004487905186"><ele>399.0</ele><time>2026-05-02T14:16:18.868Z</time></trkpt><trkpt lat="42.61217740030471" lon="12.57916581900903"><ele>398.0</ele><time>2026-05-02T14:16:19.868Z</time></trkpt><trkpt lat="42.612072654527495" lon="12.579328072843554"><ele>397.0</ele><time>2026-05-02T14:16:20.868Z</time></trkpt><trkpt lat="42.61196683993471" lon="12.57949705786376"><ele>399.33333333333337</ele><time>2026-05-02T14:16:21.868Z</time></trkpt><trkpt lat="42.61185695507476" lon="12.579668810575274"><ele>401.66666666666663</ele><time>2026-05-02T14:16:22.868Z</time></trkpt><trkpt lat="42.61174751610267" lon="12.579840501577095"><ele>404.0</ele><time>2026-05-02T14:16:23.868Z</time></trkpt><trkpt lat="42.611639479869865" lon="12.580026120001536"><ele>404.0</ele><time>2026-05-02T14:16:24.868Z</time></trkpt><trkpt lat="42.61154401029136" lon="12.580235105414047"><ele>404.0</ele><time>2026-05-02T14:16:25.868Z</time></trkpt><trkpt lat="42.61145766262789" lon="12.580429142866004"><ele>404.0</ele><time>2026-05-02T14:16:26.868Z</time></trkpt><trkpt lat="42.611373465946734" lon="12.580606984011435"><ele>403.5</ele><time>2026-05-02T14:16:27.868Z</time></trkpt><trkpt lat="42.61129114418811" lon="12.580766146771344"><ele>403.0</ele><time>2026-05-02T14:16:28.868Z</time></trkpt><trkpt lat="42.61121465471629" lon="12.580918991173995"><ele>402.5</ele><time>2026-05-02T14:16:29.868Z</time></trkpt><trkpt lat="42.61113947306879" lon="12.581073548632219"><ele>402.0</ele><time>2026-05-02T14:16:30.868Z</time></trkpt><trkpt lat="42.611066566394825" lon="12.581232722209334"><ele>403.25</ele><time>2026-05-02T14:16:31.868Z</time></trkpt><trkpt lat="42.61098926260581" lon="12.58138676766052"><ele>404.5</ele><time>2026-05-02T14:16:32.868Z</time></trkpt><trkpt lat="42.610914953060195" lon="12.581543578927105"><ele>405.75</ele><time>2026-05-02T14:16:33.868Z</time></trkpt><trkpt lat="42.61083978021759" lon="12.58170158641634"><ele>407.0</ele><time>2026-05-02T14:16:34.868Z</time></trkpt><trkpt lat="42.61077332268983" lon="12.5818489069376"><ele>407.0</ele><time>2026-05-02T14:16:35.868Z</time></trkpt><trkpt lat="42.61070014872273" lon="12.581967988732607"><ele>407.0</ele><time>2026-05-02T14:16:36.868Z</time></trkpt><trkpt lat="42.610644032715435" lon="12.582081484888244"><ele>407.0</ele><time>2026-05-02T14:16:37.868Z</time></trkpt><trkpt lat="42.610593213333274" lon="12.582184268628646"><ele>407.0</ele><time>2026-05-02T14:16:38.868Z</time></trkpt><trkpt lat="42.61054880003956" lon="12.582274095764365"><ele>407.0</ele><time>2026-05-02T14:16:39.868Z</time></trkpt><trkpt lat="42.61048375049179" lon="12.582385141379742"><ele>406.3333333333333</ele><time>2026-05-02T14:16:41.868Z</time></trkpt><trkpt lat="42.610464055045085" lon="12.58247501788706"><ele>405.66666666666663</ele><time>2026-05-02T14:18:21.866Z</time></trkpt><trkpt lat="42.61040510149693" lon="12.582570351257255"><ele>405.0</ele><time>2026-05-02T14:18:25.866Z</time></trkpt><trkpt lat="42.61034307672902" lon="12.582519573306808"><ele>404.33333333333337</ele><time>2026-05-02T14:18:26.866Z</time></trkpt><trkpt lat="42.610208154108356" lon="12.582537981728006"><ele>403.6666666666667</ele><time>2026-05-02T14:18:28.866Z</time></trkpt><trkpt lat="42.61013995639362" lon="12.582550761206763"><ele>403.0</ele><time>2026-05-02T14:18:29.866Z</time></trkpt><trkpt lat="42.61007604165017" lon="12.582567123213648"><ele>403.0</ele><time>2026-05-02T14:18:30.866Z</time></trkpt><trkpt lat="42.609997784904984" lon="12.582592914923344"><ele>403.0</ele><time>2026-05-02T14:18:31.866Z</time></trkpt><trkpt lat="42.60991140706255" lon="12.582642525668298"><ele>403.0</ele><time>2026-05-02T14:18:32.866Z</time></trkpt><trkpt lat="42.60981982437885" lon="12.582693898503642"><ele>403.0</ele><time>2026-05-02T14:18:33.866Z</time></trkpt><trkpt lat="42.6097338403" lon="12.582742130724196"><ele>403.0</ele><time>2026-05-02T14:18:34.866Z</time></trkpt><trkpt lat="42.609649784225354" lon="12.582811318933437"><ele>403.0</ele><time>2026-05-02T14:18:35.866Z</time></trkpt><trkpt lat="42.60956893096101" lon="12.582841251669743"><ele>403.0</ele><time>2026-05-02T14:18:36.866Z</time></trkpt><trkpt lat="42.60950606360406" lon="12.582883582409126"><ele>403.0</ele><time>2026-05-02T14:18:37.866Z</time></trkpt><trkpt lat="42.60939500299873" lon="12.582951992875586"><ele>403.0</ele><time>2026-05-02T14:18:39.866Z</time></trkpt><trkpt lat="42.60933090136896" lon="12.58299454955255"><ele>403.0</ele><time>2026-05-02T14:18:41.866Z</time></trkpt><trkpt lat="42.60925683557913" lon="12.582891672580873"><ele>400.00000000000006</ele><time>2026-05-02T14:18:43.866Z</time></trkpt><trkpt lat="42.60925416152835" lon="12.582781109134862"><ele>397.0</ele><time>2026-05-02T14:18:44.866Z</time></trkpt><trkpt lat="42.60921516389959" lon="12.582690495611118"><ele>394.0</ele><time>2026-05-02T14:18:45.866Z</time></trkpt><trkpt lat="42.609189918636964" lon="12.582598964334343"><ele>391.0</ele><time>2026-05-02T14:18:46.866Z</time></trkpt><trkpt lat="42.609118312907455" lon="12.582529431637886"><ele>388.00000000000006</ele><time>2026-05-02T14:18:47.866Z</time></trkpt><trkpt lat="42.60905237150008" lon="12.582430116542412"><ele>385.0</ele><time>2026-05-02T14:18:48.866Z</time></trkpt><trkpt lat="42.60898495085505" lon="12.582342697549134"><ele>385.0</ele><time>2026-05-02T14:18:49.866Z</time></trkpt><trkpt lat="42.60891544801209" lon="12.582257991186857"><ele>385.0</ele><time>2026-05-02T14:18:50.866Z</time></trkpt><trkpt lat="42.608857953332155" lon="12.582171689769998"><ele>385.0</ele><time>2026-05-02T14:18:51.866Z</time></trkpt><trkpt lat="42.608776978450436" lon="12.582106141052968"><ele>385.0</ele><time>2026-05-02T14:18:52.866Z</time></trkpt><trkpt lat="42.60867810573223" lon="12.5820409731066"><ele>385.0</ele><time>2026-05-02T14:18:53.866Z</time></trkpt><trkpt lat="42.6085824740218" lon="12.582007451225616"><ele>382.0</ele><time>2026-05-02T14:18:54.866Z</time></trkpt><trkpt lat="42.60849195403356" lon="12.581981791523845"><ele>379.0</ele><time>2026-05-02T14:18:55.866Z</time></trkpt><trkpt lat="42.60840569564763" lon="12.581961940703213"><ele>376.0</ele><time>2026-05-02T14:18:56.866Z</time></trkpt><trkpt lat="42.60833155115856" lon="12.58195499326173"><ele>373.0</ele><time>2026-05-02T14:18:57.866Z</time></trkpt><trkpt lat="42.608230595985816" lon="12.582024724703642"><ele>370.0</ele><time>2026-05-02T14:18:58.866Z</time></trkpt><trkpt lat="42.6081457658806" lon="12.582096225736976"><ele>370.0</ele><time>2026-05-02T14:18:59.866Z</time></trkpt><trkpt lat="42.60805387440227" lon="12.582179633694102"><ele>370.0</ele><time>2026-05-02T14:19:00.866Z</time></trkpt><trkpt lat="42.607965715357835" lon="12.582262558926386"><ele>370.0</ele><time>2026-05-02T14:19:01.866Z</time></trkpt><trkpt lat="42.6078856415252" lon="12.582340003812764"><ele>370.0</ele><time>2026-05-02T14:19:02.866Z</time></trkpt><trkpt lat="42.60782312441885" lon="12.582426499996762"><ele>370.0</ele><time>2026-05-02T14:19:03.866Z</time></trkpt><trkpt lat="42.60777815257054" lon="12.582577349111835"><ele>366.75</ele><time>2026-05-02T14:19:04.866Z</time></trkpt><trkpt lat="42.60775315311615" lon="12.582746779770773"><ele>363.5</ele><time>2026-05-02T14:19:05.866Z</time></trkpt><trkpt lat="42.60772948909544" lon="12.582919820649813"><ele>360.25</ele><time>2026-05-02T14:19:06.866Z</time></trkpt><trkpt lat="42.607703699390875" lon="12.583092209232715"><ele>357.0</ele><time>2026-05-02T14:19:07.866Z</time></trkpt><trkpt lat="42.607669521287406" lon="12.583274354045283"><ele>357.0</ele><time>2026-05-02T14:19:08.866Z</time></trkpt><trkpt lat="42.60761590818471" lon="12.58344949225622"><ele>357.0</ele><time>2026-05-02T14:19:09.866Z</time></trkpt><trkpt lat="42.607552710422446" lon="12.583591771101013"><ele>357.0</ele><time>2026-05-02T14:19:10.866Z</time></trkpt><trkpt lat="42.60748888318591" lon="12.583730697395824"><ele>357.0</ele><time>2026-05-02T14:19:11.866Z</time></trkpt><trkpt lat="42.60741899640707" lon="12.58386784795393"><ele>358.0</ele><time>2026-05-02T14:19:12.866Z</time></trkpt><trkpt lat="42.60734524099416" lon="12.583993447557315"><ele>359.0</ele><time>2026-05-02T14:19:13.865Z</time></trkpt><trkpt lat="42.60728370162796" lon="12.584103331559412"><ele>360.0</ele><time>2026-05-02T14:19:14.865Z</time></trkpt><trkpt lat="42.607204760317146" lon="12.584191387758848"><ele>361.0</ele><time>2026-05-02T14:19:15.865Z</time></trkpt><trkpt lat="42.607113970594696" lon="12.584278102036947"><ele>362.0</ele><time>2026-05-02T14:19:16.865Z</time></trkpt><trkpt lat="42.60702594742455" lon="12.584363583681187"><ele>357.75</ele><time>2026-05-02T14:19:17.865Z</time></trkpt><trkpt lat="42.606937017804064" lon="12.584459361344349"><ele>353.5</ele><time>2026-05-02T14:19:18.865Z</time></trkpt><trkpt lat="42.60686327996374" lon="12.584591240518074"><ele>349.25</ele><time>2026-05-02T14:19:19.865Z</time></trkpt><trkpt lat="42.60676523049469" lon="12.584709282724745"><ele>345.0</ele><time>2026-05-02T14:19:20.865Z</time></trkpt><trkpt lat="42.60667510223119" lon="12.584849656344353"><ele>345.0</ele><time>2026-05-02T14:19:21.865Z</time></trkpt><trkpt lat="42.60658341180697" lon="12.584998927565735"><ele>345.0</ele><time>2026-05-02T14:19:22.865Z</time></trkpt><trkpt lat="42.606505143652235" lon="12.585158137892831"><ele>345.0</ele><time>2026-05-02T14:19:23.865Z</time></trkpt><trkpt lat="42.60641101263854" lon="12.585294594117762"><ele>345.0</ele><time>2026-05-02T14:19:24.865Z</time></trkpt><trkpt lat="42.60631918817524" lon="12.585427607516877"><ele>346.25</ele><time>2026-05-02T14:19:25.865Z</time></trkpt><trkpt lat="42.60623426742847" lon="12.585553090947853"><ele>347.5</ele><time>2026-05-02T14:19:26.865Z</time></trkpt><trkpt lat="42.60615900186212" lon="12.585681415178957"><ele>348.75</ele><time>2026-05-02T14:19:27.865Z</time></trkpt><trkpt lat="42.60608693139061" lon="12.585822619313271"><ele>350.0</ele><time>2026-05-02T14:19:28.865Z</time></trkpt><trkpt lat="42.60601013271604" lon="12.585974703285803"><ele>344.75</ele><time>2026-05-02T14:19:29.865Z</time></trkpt><trkpt lat="42.60592445075982" lon="12.586145012439088"><ele>339.5</ele><time>2026-05-02T14:19:30.865Z</time></trkpt><trkpt lat="42.60583640962843" lon="12.586295873389382"><ele>334.25</ele><time>2026-05-02T14:19:31.865Z</time></trkpt><trkpt lat="42.605758121915706" lon="12.586455321878805"><ele>329.0</ele><time>2026-05-02T14:19:32.865Z</time></trkpt><trkpt lat="42.60567639531769" lon="12.586599649202475"><ele>329.0</ele><time>2026-05-02T14:19:33.865Z</time></trkpt><trkpt lat="42.60560360512585" lon="12.586752418303535"><ele>329.0</ele><time>2026-05-02T14:19:34.865Z</time></trkpt><trkpt lat="42.6055156771692" lon="12.586908479516856"><ele>329.0</ele><time>2026-05-02T14:19:35.865Z</time></trkpt><trkpt lat="42.605440701613766" lon="12.587084676781641"><ele>329.0</ele><time>2026-05-02T14:19:36.865Z</time></trkpt><trkpt lat="42.60536774277536" lon="12.587255959806669"><ele>326.0</ele><time>2026-05-02T14:19:37.865Z</time></trkpt><trkpt lat="42.6052968817103" lon="12.587422311460648"><ele>323.0</ele><time>2026-05-02T14:19:38.865Z</time></trkpt><trkpt lat="42.60522773213092" lon="12.58758106658065"><ele>320.0</ele><time>2026-05-02T14:19:39.865Z</time></trkpt><trkpt lat="42.605162797630285" lon="12.58771633816151"><ele>317.0</ele><time>2026-05-02T14:19:40.865Z</time></trkpt><trkpt lat="42.60510319656547" lon="12.587810409443204"><ele>319.33333333333337</ele><time>2026-05-02T14:19:41.865Z</time></trkpt><trkpt lat="42.6050235999904" lon="12.587894379239446"><ele>321.6666666666667</ele><time>2026-05-02T14:19:42.865Z</time></trkpt><trkpt lat="42.604961318451146" lon="12.587927813974897"><ele>324.0</ele><time>2026-05-02T14:19:43.865Z</time></trkpt><trkpt lat="42.60507266486412" lon="12.588458566472218"><ele>324.0</ele><time>2026-05-02T14:19:44.865Z</time></trkpt><trkpt lat="42.604971444560064" lon="12.588559861599268"><ele>324.0</ele><time>2026-05-02T14:19:45.865Z</time></trkpt><trkpt lat="42.604866574191334" lon="12.588619704372917"><ele>324.0</ele><time>2026-05-02T14:19:46.865Z</time></trkpt><trkpt lat="42.60474826464917" lon="12.588639447837297"><ele>324.0</ele><time>2026-05-02T14:19:47.865Z</time></trkpt><trkpt lat="42.60459655217878" lon="12.58863178924204"><ele>322.0</ele><time>2026-05-02T14:19:48.865Z</time></trkpt><trkpt lat="42.60440897134915" lon="12.588618715697065"><ele>320.0</ele><time>2026-05-02T14:19:49.865Z</time></trkpt><trkpt lat="42.60415654327862" lon="12.588615127730518"><ele>318.0</ele><time>2026-05-02T14:19:50.865Z</time></trkpt><trkpt lat="42.6038953732465" lon="12.588535141844647"><ele>318.0</ele><time>2026-05-02T14:19:51.865Z</time></trkpt><trkpt lat="42.60375036015815" lon="12.588664082722369"><ele>318.0</ele><time>2026-05-02T14:19:52.865Z</time></trkpt><trkpt lat="42.60361251218334" lon="12.58879529487909"><ele>318.0</ele><time>2026-05-02T14:19:53.865Z</time></trkpt><trkpt lat="42.60347353373682" lon="12.588955306341596"><ele>316.3333333333333</ele><time>2026-05-02T14:19:54.865Z</time></trkpt><trkpt lat="42.60334966127454" lon="12.589117054077589"><ele>314.66666666666663</ele><time>2026-05-02T14:19:55.865Z</time></trkpt><trkpt lat="42.603235980754015" lon="12.589287230600661"><ele>313.0</ele><time>2026-05-02T14:19:56.865Z</time></trkpt><trkpt lat="42.603135981858145" lon="12.589459756664933"><ele>313.5</ele><time>2026-05-02T14:19:57.865Z</time></trkpt><trkpt lat="42.60303432410529" lon="12.589664859031558"><ele>314.0</ele><time>2026-05-02T14:19:58.865Z</time></trkpt><trkpt lat="42.602956942726784" lon="12.58979599264668"><ele>314.5</ele><time>2026-05-02T14:19:59.865Z</time></trkpt><trkpt lat="42.60287920818093" lon="12.589901833840317"><ele>315.0</ele><time>2026-05-02T14:20:00.865Z</time></trkpt><trkpt lat="42.60279575020282" lon="12.59000917618993"><ele>312.5</ele><time>2026-05-02T14:20:01.865Z</time></trkpt><trkpt lat="42.60271918970971" lon="12.590114817008198"><ele>310.0</ele><time>2026-05-02T14:20:02.865Z</time></trkpt><trkpt lat="42.60265585079834" lon="12.59023158680451"><ele>307.5</ele><time>2026-05-02T14:20:03.865Z</time></trkpt><trkpt lat="42.602577343282036" lon="12.590346174430726"><ele>305.0</ele><time>2026-05-02T14:20:04.865Z</time></trkpt><trkpt lat="42.60248528934112" lon="12.590454573881878"><ele>305.0</ele><time>2026-05-02T14:20:05.865Z</time></trkpt><trkpt lat="42.60235700049107" lon="12.590544728144538"><ele>305.0</ele><time>2026-05-02T14:20:06.865Z</time></trkpt><trkpt lat="42.60221024474169" lon="12.59057842519409"><ele>305.0</ele><time>2026-05-02T14:20:07.865Z</time></trkpt><trkpt lat="42.60205600680269" lon="12.59061540317917"><ele>301.75</ele><time>2026-05-02T14:20:08.866Z</time></trkpt><trkpt lat="42.60195105855417" lon="12.590701819573123"><ele>298.5</ele><time>2026-05-02T14:20:09.866Z</time></trkpt><trkpt lat="42.60185215645987" lon="12.590790218090117"><ele>295.25</ele><time>2026-05-02T14:20:10.866Z</time></trkpt><trkpt lat="42.601738989525394" lon="12.590889495427637"><ele>292.0</ele><time>2026-05-02T14:20:11.866Z</time></trkpt><trkpt lat="42.601637971485054" lon="12.590982440370917"><ele>292.0</ele><time>2026-05-02T14:20:12.865Z</time></trkpt><trkpt lat="42.601531746271625" lon="12.591083130256838"><ele>292.0</ele><time>2026-05-02T14:20:13.865Z</time></trkpt><trkpt lat="42.601432516423685" lon="12.591183485173405"><ele>292.0</ele><time>2026-05-02T14:20:14.866Z</time></trkpt><trkpt lat="42.601327745427824" lon="12.59128811037261"><ele>292.0</ele><time>2026-05-02T14:20:15.866Z</time></trkpt><trkpt lat="42.601229003843656" lon="12.591387026813498"><ele>288.0</ele><time>2026-05-02T14:20:16.866Z</time></trkpt><trkpt lat="42.60114579905101" lon="12.591492276640173"><ele>284.0</ele><time>2026-05-02T14:20:17.865Z</time></trkpt><trkpt lat="42.60104187368543" lon="12.591582801415584"><ele>280.0</ele><time>2026-05-02T14:20:18.865Z</time></trkpt><trkpt lat="42.60092774755335" lon="12.591670584049686"><ele>276.0</ele><time>2026-05-02T14:20:19.865Z</time></trkpt><trkpt lat="42.60080481135937" lon="12.591761956589547"><ele>276.0</ele><time>2026-05-02T14:20:20.865Z</time></trkpt><trkpt lat="42.60068113039816" lon="12.591852991569658"><ele>276.0</ele><time>2026-05-02T14:20:21.866Z</time></trkpt><trkpt lat="42.60056167415374" lon="12.591941300071184"><ele>276.0</ele><time>2026-05-02T14:20:22.866Z</time></trkpt><trkpt lat="42.600445681049976" lon="12.592030553483871"><ele>276.0</ele><time>2026-05-02T14:20:23.866Z</time></trkpt><trkpt lat="42.60033298592068" lon="12.592122874701593"><ele>273.5</ele><time>2026-05-02T14:20:24.866Z</time></trkpt><trkpt lat="42.600213480127074" lon="12.592216679973268"><ele>271.0</ele><time>2026-05-02T14:20:25.866Z</time></trkpt><trkpt lat="42.60007753911937" lon="12.592310636260981"><ele>268.5</ele><time>2026-05-02T14:20:26.866Z</time></trkpt><trkpt lat="42.59996433799555" lon="12.592374334194652"><ele>266.0</ele><time>2026-05-02T14:20:27.866Z</time></trkpt><trkpt lat="42.59984579092991" lon="12.592436311194222"><ele>266.0</ele><time>2026-05-02T14:20:28.866Z</time></trkpt><trkpt lat="42.599729502180914" lon="12.59249479134194"><ele>266.0</ele><time>2026-05-02T14:20:29.866Z</time></trkpt><trkpt lat="42.59961285344791" lon="12.592550845358812"><ele>266.0</ele><time>2026-05-02T14:20:30.866Z</time></trkpt><trkpt lat="42.599505275031845" lon="12.59260062778623"><ele>266.0</ele><time>2026-05-02T14:20:31.866Z</time></trkpt><trkpt lat="42.599407737725606" lon="12.592643554044246"><ele>263.2</ele><time>2026-05-02T14:20:32.866Z</time></trkpt><trkpt lat="42.599323694981976" lon="12.592686754298239"><ele>260.40000000000003</ele><time>2026-05-02T14:20:33.866Z</time></trkpt><trkpt lat="42.59924007949568" lon="12.592734112236188"><ele>257.6</ele><time>2026-05-02T14:20:34.866Z</time></trkpt><trkpt lat="42.59913735928317" lon="12.592803424566867"><ele>254.8</ele><time>2026-05-02T14:20:35.865Z</time></trkpt><trkpt lat="42.59904568995966" lon="12.592907952121065"><ele>252.0</ele><time>2026-05-02T14:20:36.865Z</time></trkpt><trkpt lat="42.598934386201705" lon="12.592996389441307"><ele>251.5</ele><time>2026-05-02T14:20:37.865Z</time></trkpt><trkpt lat="42.59885078183229" lon="12.59311949218131"><ele>251.0</ele><time>2026-05-02T14:20:38.865Z</time></trkpt><trkpt lat="42.598792431351924" lon="12.59326457089968"><ele>250.5</ele><time>2026-05-02T14:20:39.865Z</time></trkpt><trkpt lat="42.598683486725044" lon="12.593358524786876"><ele>250.0</ele><time>2026-05-02T14:20:40.865Z</time></trkpt><trkpt lat="42.598576220759085" lon="12.593467282352883"><ele>247.75</ele><time>2026-05-02T14:20:41.865Z</time></trkpt><trkpt lat="42.598471119126046" lon="12.593575191063358"><ele>245.5</ele><time>2026-05-02T14:20:42.865Z</time></trkpt><trkpt lat="42.598365171870064" lon="12.593683967992108"><ele>243.25</ele><time>2026-05-02T14:20:43.865Z</time></trkpt><trkpt lat="42.598259719336966" lon="12.593791439151452"><ele>241.0</ele><time>2026-05-02T14:20:44.865Z</time></trkpt><trkpt lat="42.59815615205699" lon="12.593896664759"><ele>239.75</ele><time>2026-05-02T14:20:45.865Z</time></trkpt><trkpt lat="42.598066017365404" lon="12.594020939607528"><ele>238.5</ele><time>2026-05-02T14:20:46.865Z</time></trkpt><trkpt lat="42.597963165230865" lon="12.594122955791446"><ele>237.25</ele><time>2026-05-02T14:20:47.865Z</time></trkpt><trkpt lat="42.59787043200098" lon="12.59422651401677"><ele>236.0</ele><time>2026-05-02T14:20:48.865Z</time></trkpt><trkpt lat="42.59778956229564" lon="12.594332162803353"><ele>234.4</ele><time>2026-05-02T14:20:49.865Z</time></trkpt><trkpt lat="42.59772130956925" lon="12.594431686978815"><ele>232.8</ele><time>2026-05-02T14:20:50.865Z</time></trkpt><trkpt lat="42.59766376824188" lon="12.594517496286581"><ele>231.20000000000002</ele><time>2026-05-02T14:20:51.865Z</time></trkpt><trkpt lat="42.59759997021713" lon="12.594603293490321"><ele>229.60000000000002</ele><time>2026-05-02T14:20:52.865Z</time></trkpt><trkpt lat="42.59754398543077" lon="12.594676098606428"><ele>228.0</ele><time>2026-05-02T14:20:53.865Z</time></trkpt><trkpt lat="42.597467348857414" lon="12.59476518130425"><ele>227.5</ele><time>2026-05-02T14:20:55.865Z</time></trkpt><trkpt lat="42.597421897675524" lon="12.59482787603613"><ele>227.0</ele><time>2026-05-02T14:21:04.865Z</time></trkpt><trkpt lat="42.59735831905338" lon="12.594901435499843"><ele>226.5</ele><time>2026-05-02T14:21:06.865Z</time></trkpt><trkpt lat="42.59731887009372" lon="12.594988495048295"><ele>226.0</ele><time>2026-05-02T14:21:07.865Z</time></trkpt><trkpt lat="42.597274347799065" lon="12.595087587260494"><ele>225.5</ele><time>2026-05-02T14:21:08.865Z</time></trkpt><trkpt lat="42.597271951925364" lon="12.595209706394847"><ele>225.0</ele><time>2026-05-02T14:21:09.865Z</time></trkpt><trkpt lat="42.59731078956149" lon="12.595338993501725"><ele>224.0</ele><time>2026-05-02T14:21:10.865Z</time></trkpt><trkpt lat="42.59737519993363" lon="12.595466689236883"><ele>223.0</ele><time>2026-05-02T14:21:11.865Z</time></trkpt><trkpt lat="42.59748473000258" lon="12.595568036437705"><ele>222.0</ele><time>2026-05-02T14:21:12.865Z</time></trkpt><trkpt lat="42.597575100183114" lon="12.595679041234481"><ele>221.0</ele><time>2026-05-02T14:21:13.865Z</time></trkpt><trkpt lat="42.597650042964936" lon="12.595797560642497"><ele>221.00000000000003</ele><time>2026-05-02T14:21:14.865Z</time></trkpt><trkpt lat="42.59772319293796" lon="12.595877933100688"><ele>221.0</ele><time>2026-05-02T14:21:15.865Z</time></trkpt><trkpt lat="42.597791339243805" lon="12.59594162862039"><ele>221.0</ele><time>2026-05-02T14:21:16.865Z</time></trkpt><trkpt lat="42.597860253815995" lon="12.596014439835471"><ele>221.0</ele><time>2026-05-02T14:21:17.865Z</time></trkpt><trkpt lat="42.59792505329924" lon="12.596085063158904"><ele>221.00000000000003</ele><time>2026-05-02T14:21:18.865Z</time></trkpt><trkpt lat="42.59799879966316" lon="12.596120474116427"><ele>221.0</ele><time>2026-05-02T14:21:19.865Z</time></trkpt><trkpt lat="42.59806578423892" lon="12.59617442219822"><ele>221.20000000000002</ele><time>2026-05-02T14:21:20.865Z</time></trkpt><trkpt lat="42.598155619995445" lon="12.596280166392521"><ele>221.40000000000003</ele><time>2026-05-02T14:21:22.865Z</time></trkpt><trkpt lat="42.59824306183443" lon="12.596367810400121"><ele>221.6</ele><time>2026-05-02T14:21:24.865Z</time></trkpt><trkpt lat="42.59829282765949" lon="12.596434110595386"><ele>221.8</ele><time>2026-05-02T14:21:25.865Z</time></trkpt><trkpt lat="42.59834650171716" lon="12.596512497753187"><ele>222.0</ele><time>2026-05-02T14:21:26.865Z</time></trkpt><trkpt lat="42.598395951279734" lon="12.59658843342207"><ele>222.0</ele><time>2026-05-02T14:21:27.865Z</time></trkpt><trkpt lat="42.59844754629096" lon="12.596721430273151"><ele>222.0</ele><time>2026-05-02T14:21:29.865Z</time></trkpt><trkpt lat="42.598479083315894" lon="12.596839110144465"><ele>222.0</ele><time>2026-05-02T14:21:32.864Z</time></trkpt><trkpt lat="42.59851143371624" lon="12.596942150927484"><ele>222.0</ele><time>2026-05-02T14:21:34.864Z</time></trkpt><trkpt lat="42.59855709647847" lon="12.597098382042889"><ele>222.0</ele><time>2026-05-02T14:21:36.864Z</time></trkpt><trkpt lat="42.59858211025979" lon="12.597185651626045"><ele>221.16666666666666</ele><time>2026-05-02T14:21:37.864Z</time></trkpt><trkpt lat="42.59863488305792" lon="12.597264114515452"><ele>220.33333333333331</ele><time>2026-05-02T14:21:38.864Z</time></trkpt><trkpt lat="42.598684402785224" lon="12.59735439407193"><ele>219.5</ele><time>2026-05-02T14:21:39.864Z</time></trkpt><trkpt lat="42.59873683476374" lon="12.597441914611327"><ele>218.66666666666666</ele><time>2026-05-02T14:21:40.864Z</time></trkpt><trkpt lat="42.59876605796122" lon="12.597530670287552"><ele>217.83333333333331</ele><time>2026-05-02T14:21:41.864Z</time></trkpt><trkpt lat="42.59879767277378" lon="12.597615841454946"><ele>217.0</ele><time>2026-05-02T14:21:42.864Z</time></trkpt><trkpt lat="42.59880105828563" lon="12.597712159354543"><ele>216.66666666666666</ele><time>2026-05-02T14:21:43.864Z</time></trkpt><trkpt lat="42.59878876472377" lon="12.59781558773473"><ele>216.33333333333331</ele><time>2026-05-02T14:21:44.864Z</time></trkpt><trkpt lat="42.59877748923789" lon="12.597904198013575"><ele>216.0</ele><time>2026-05-02T14:21:45.864Z</time></trkpt><trkpt lat="42.59876842837207" lon="12.598036259047445"><ele>215.66666666666669</ele><time>2026-05-02T14:21:47.864Z</time></trkpt><trkpt lat="42.59870351352383" lon="12.59798813809991"><ele>215.33333333333334</ele><time>2026-05-02T14:21:48.864Z</time></trkpt><trkpt lat="42.59860842086446" lon="12.598031722704905"><ele>215.0</ele><time>2026-05-02T14:21:50.864Z</time></trkpt><trkpt lat="42.59854094720936" lon="12.598066573045358"><ele>215.0</ele><time>2026-05-02T14:21:51.864Z</time></trkpt><trkpt lat="42.59850538656536" lon="12.598160353161617"><ele>215.0</ele><time>2026-05-02T14:21:52.864Z</time></trkpt><trkpt lat="42.59848944575423" lon="12.598293167814445"><ele>215.0</ele><time>2026-05-02T14:21:53.864Z</time></trkpt><trkpt lat="42.59846196036147" lon="12.598406738787187"><ele>215.0</ele><time>2026-05-02T14:21:54.864Z</time></trkpt><trkpt lat="42.598440189044055" lon="12.598503228447571"><ele>215.0</ele><time>2026-05-02T14:21:55.864Z</time></trkpt><trkpt lat="42.59842669835065" lon="12.598667337308422"><ele>215.4</ele><time>2026-05-02T14:21:57.864Z</time></trkpt><trkpt lat="42.5985016083112" lon="12.598744587744049"><ele>215.8</ele><time>2026-05-02T14:21:58.864Z</time></trkpt><trkpt lat="42.59855971943853" lon="12.598837938160205"><ele>216.2</ele><time>2026-05-02T14:21:59.864Z</time></trkpt><trkpt lat="42.59861731518177" lon="12.598899469175757"><ele>216.6</ele><time>2026-05-02T14:22:00.864Z</time></trkpt><trkpt lat="42.59868113233662" lon="12.599004966227888"><ele>217.0</ele><time>2026-05-02T14:22:02.864Z</time></trkpt><trkpt lat="42.59860714558858" lon="12.5991278692404"><ele>216.99999999999997</ele><time>2026-05-02T14:22:04.864Z</time></trkpt><trkpt lat="42.598575923864495" lon="12.599208279938328"><ele>217.0</ele><time>2026-05-02T14:22:05.864Z</time></trkpt><trkpt lat="42.59853099161913" lon="12.599298791845651"><ele>217.0</ele><time>2026-05-02T14:22:07.864Z</time></trkpt><trkpt lat="42.59843649230143" lon="12.599233276402739"><ele>217.0</ele><time>2026-05-02T14:22:10.866Z</time></trkpt><trkpt lat="42.598326906536634" lon="12.59915468499298"><ele>216.99999999999997</ele><time>2026-05-02T14:22:12.867Z</time></trkpt><trkpt lat="42.598267427167755" lon="12.599111953688872"><ele>217.0</ele><time>2026-05-02T14:22:13.868Z</time></trkpt><trkpt lat="42.59819287112745" lon="12.599060950264063"><ele>216.99999999999997</ele><time>2026-05-02T14:22:14.869Z</time></trkpt><trkpt lat="42.59811331324777" lon="12.599016947985346"><ele>217.0</ele><time>2026-05-02T14:22:15.87Z</time></trkpt><trkpt lat="42.598043110880695" lon="12.598987992184483"><ele>217.0</ele><time>2026-05-02T14:22:16.87Z</time></trkpt><trkpt lat="42.59796544676871" lon="12.59896876799391"><ele>217.0</ele><time>2026-05-02T14:22:17.871Z</time></trkpt><trkpt lat="42.597896795432014" lon="12.59896578123045"><ele>216.99999999999997</ele><time>2026-05-02T14:22:18.871Z</time></trkpt><trkpt lat="42.59775599963048" lon="12.598953542097508"><ele>217.0</ele><time>2026-05-02T14:22:20.873Z</time></trkpt><trkpt lat="42.59766220794792" lon="12.598968547400867"><ele>214.75</ele><time>2026-05-02T14:22:21.873Z</time></trkpt><trkpt lat="42.59754416950153" lon="12.598943866191027"><ele>212.5</ele><time>2026-05-02T14:22:22.873Z</time></trkpt><trkpt lat="42.597430917351815" lon="12.598925753876415"><ele>210.25</ele><time>2026-05-02T14:22:23.873Z</time></trkpt><trkpt lat="42.59730856386558" lon="12.59889965099208"><ele>208.0</ele><time>2026-05-02T14:22:24.874Z</time></trkpt><trkpt lat="42.59716621221437" lon="12.598837060197038"><ele>208.0</ele><time>2026-05-02T14:22:25.874Z</time></trkpt><trkpt lat="42.597023880395014" lon="12.598798867195176"><ele>208.0</ele><time>2026-05-02T14:22:26.875Z</time></trkpt><trkpt lat="42.596890363506716" lon="12.598751560267925"><ele>208.0</ele><time>2026-05-02T14:22:27.875Z</time></trkpt><trkpt lat="42.59676536744817" lon="12.598708238197995"><ele>208.0</ele><time>2026-05-02T14:22:28.875Z</time></trkpt><trkpt lat="42.59664264453423" lon="12.598669733834374"><ele>207.0</ele><time>2026-05-02T14:22:29.875Z</time></trkpt><trkpt lat="42.596523166841656" lon="12.59864791534512"><ele>206.0</ele><time>2026-05-02T14:22:30.875Z</time></trkpt><trkpt lat="42.59640141032481" lon="12.598592306696672"><ele>205.0</ele><time>2026-05-02T14:22:31.876Z</time></trkpt><trkpt lat="42.59626982804416" lon="12.598562622102957"><ele>204.0</ele><time>2026-05-02T14:22:32.876Z</time></trkpt><trkpt lat="42.5961280479753" lon="12.598543082653288"><ele>202.5</ele><time>2026-05-02T14:22:33.876Z</time></trkpt><trkpt lat="42.59599772673215" lon="12.598518308849147"><ele>201.0</ele><time>2026-05-02T14:22:34.876Z</time></trkpt><trkpt lat="42.59587689171078" lon="12.59847891402128"><ele>199.5</ele><time>2026-05-02T14:22:35.876Z</time></trkpt><trkpt lat="42.59577092728938" lon="12.598440778779489"><ele>198.0</ele><time>2026-05-02T14:22:36.876Z</time></trkpt><trkpt lat="42.59566116496268" lon="12.598413785735223"><ele>198.0</ele><time>2026-05-02T14:22:37.877Z</time></trkpt><trkpt lat="42.595558007747606" lon="12.598386699241244"><ele>198.0</ele><time>2026-05-02T14:22:38.877Z</time></trkpt><trkpt lat="42.59546261762811" lon="12.598364965791786"><ele>198.0</ele><time>2026-05-02T14:22:39.877Z</time></trkpt><trkpt lat="42.595388503444916" lon="12.59832760936964"><ele>198.0</ele><time>2026-05-02T14:22:40.877Z</time></trkpt><trkpt lat="42.595316100302725" lon="12.598318473445907"><ele>198.0</ele><time>2026-05-02T14:22:41.877Z</time></trkpt><trkpt lat="42.595219061801224" lon="12.598292702746248"><ele>197.0</ele><time>2026-05-02T14:22:43.877Z</time></trkpt><trkpt lat="42.59514861704903" lon="12.598272661158683"><ele>196.0</ele><time>2026-05-02T14:22:45.878Z</time></trkpt><trkpt lat="42.59507861317483" lon="12.59842592599845"><ele>195.0</ele><time>2026-05-02T14:22:46.878Z</time></trkpt><trkpt lat="42.59503060925744" lon="12.598560017551133"><ele>194.0</ele><time>2026-05-02T14:22:47.878Z</time></trkpt><trkpt lat="42.59499229278399" lon="12.598698268952365"><ele>193.0</ele><time>2026-05-02T14:22:48.878Z</time></trkpt><trkpt lat="42.594938650487215" lon="12.598858807790357"><ele>193.0</ele><time>2026-05-02T14:22:49.878Z</time></trkpt><trkpt lat="42.59487330629995" lon="12.59902891059559"><ele>193.0</ele><time>2026-05-02T14:22:50.878Z</time></trkpt><trkpt lat="42.59478423223522" lon="12.599192924684722"><ele>193.0</ele><time>2026-05-02T14:22:51.878Z</time></trkpt><trkpt lat="42.59467711445702" lon="12.599356144304789"><ele>193.0</ele><time>2026-05-02T14:22:52.878Z</time></trkpt><trkpt lat="42.594545575814465" lon="12.599481285683888"><ele>193.0</ele><time>2026-05-02T14:22:53.878Z</time></trkpt><trkpt lat="42.594400672429636" lon="12.599624462731349"><ele>193.0</ele><time>2026-05-02T14:22:54.878Z</time></trkpt><trkpt lat="42.59425115580662" lon="12.599758886207017"><ele>192.66666666666666</ele><time>2026-05-02T14:22:55.878Z</time></trkpt><trkpt lat="42.594089206843464" lon="12.599907198371435"><ele>192.33333333333331</ele><time>2026-05-02T14:22:56.878Z</time></trkpt><trkpt lat="42.5939232827592" lon="12.600060415560982"><ele>192.0</ele><time>2026-05-02T14:22:57.878Z</time></trkpt><trkpt lat="42.593739693330754" lon="12.600240922791802"><ele>192.0</ele><time>2026-05-02T14:22:58.878Z</time></trkpt><trkpt lat="42.59366401441385" lon="12.60029550605247"><ele>192.0</ele><time>2026-05-02T14:22:59.878Z</time></trkpt><trkpt lat="42.593536870114136" lon="12.600409035654826"><ele>192.0</ele><time>2026-05-02T14:23:00.878Z</time></trkpt><trkpt lat="42.59342613670885" lon="12.60052601479956"><ele>192.0</ele><time>2026-05-02T14:23:01.878Z</time></trkpt><trkpt lat="42.5932892011448" lon="12.60061229478958"><ele>192.0</ele><time>2026-05-02T14:23:02.878Z</time></trkpt><trkpt lat="42.59313999086033" lon="12.600722786830824"><ele>192.0</ele><time>2026-05-02T14:23:03.878Z</time></trkpt><trkpt lat="42.592982945725026" lon="12.600864233595304"><ele>192.0</ele><time>2026-05-02T14:23:04.878Z</time></trkpt><trkpt lat="42.592809724914325" lon="12.600985690401352"><ele>192.0</ele><time>2026-05-02T14:23:05.878Z</time></trkpt><trkpt lat="42.592640983032005" lon="12.601099301482472"><ele>192.0</ele><time>2026-05-02T14:23:06.878Z</time></trkpt><trkpt lat="42.592484297025074" lon="12.601225083639275"><ele>192.0</ele><time>2026-05-02T14:23:07.878Z</time></trkpt><trkpt lat="42.59232250385494" lon="12.601353157643842"><ele>192.0</ele><time>2026-05-02T14:23:08.878Z</time></trkpt><trkpt lat="42.592174344131095" lon="12.601468675375381"><ele>192.0</ele><time>2026-05-02T14:23:09.878Z</time></trkpt><trkpt lat="42.59202989597617" lon="12.601548641717892"><ele>192.0</ele><time>2026-05-02T14:23:10.878Z</time></trkpt><trkpt lat="42.59188680771472" lon="12.601652351959629"><ele>192.0</ele><time>2026-05-02T14:23:11.878Z</time></trkpt><trkpt lat="42.59175655956694" lon="12.60176085661877"><ele>192.0</ele><time>2026-05-02T14:23:12.878Z</time></trkpt><trkpt lat="42.591631641700005" lon="12.601887902050171"><ele>192.0</ele><time>2026-05-02T14:23:13.878Z</time></trkpt><trkpt lat="42.591511320038066" lon="12.602016428548819"><ele>192.0</ele><time>2026-05-02T14:23:14.878Z</time></trkpt><trkpt lat="42.59140588449008" lon="12.602180600657155"><ele>192.0</ele><time>2026-05-02T14:23:15.878Z</time></trkpt><trkpt lat="42.59130298873558" lon="12.60235266633366"><ele>192.0</ele><time>2026-05-02T14:23:16.878Z</time></trkpt><trkpt lat="42.59120670833018" lon="12.602508999382831"><ele>190.5</ele><time>2026-05-02T14:23:17.878Z</time></trkpt><trkpt lat="42.59110874724846" lon="12.602658103064448"><ele>189.0</ele><time>2026-05-02T14:23:18.878Z</time></trkpt><trkpt lat="42.59101365409146" lon="12.602791832980353"><ele>187.5</ele><time>2026-05-02T14:23:19.878Z</time></trkpt><trkpt lat="42.59091238782787" lon="12.602893975205955"><ele>186.0</ele><time>2026-05-02T14:23:20.878Z</time></trkpt><trkpt lat="42.59082894605524" lon="12.603011231280327"><ele>186.0</ele><time>2026-05-02T14:23:21.878Z</time></trkpt><trkpt lat="42.59073959458125" lon="12.603096612840652"><ele>186.0</ele><time>2026-05-02T14:23:22.878Z</time></trkpt><trkpt lat="42.59067529498109" lon="12.603171408810992"><ele>186.0</ele><time>2026-05-02T14:23:23.878Z</time></trkpt><trkpt lat="42.590631309225586" lon="12.60325109584404"><ele>186.0</ele><time>2026-05-02T14:23:24.878Z</time></trkpt><trkpt lat="42.5905633934157" lon="12.603270306884415"><ele>186.0</ele><time>2026-05-02T14:23:26.878Z</time></trkpt><trkpt lat="42.59028999037867" lon="12.602961135461754"><ele>184.0</ele><time>2026-05-02T14:23:27.878Z</time></trkpt><trkpt lat="42.59011752234794" lon="12.602786952927032"><ele>182.0</ele><time>2026-05-02T14:23:28.878Z</time></trkpt><trkpt lat="42.58994070428006" lon="12.602640224117577"><ele>180.0</ele><time>2026-05-02T14:23:29.878Z</time></trkpt><trkpt lat="42.589796855214445" lon="12.60255341614041"><ele>180.0</ele><time>2026-05-02T14:23:32.878Z</time></trkpt><trkpt lat="42.589686672175176" lon="12.602544640136077"><ele>180.0</ele><time>2026-05-02T14:23:33.878Z</time></trkpt><trkpt lat="42.589600108560525" lon="12.60249238242333"><ele>180.0</ele><time>2026-05-02T14:23:34.878Z</time></trkpt><trkpt lat="42.589502857538506" lon="12.602445346147759"><ele>180.0</ele><time>2026-05-02T14:23:35.878Z</time></trkpt><trkpt lat="42.58942221340496" lon="12.60240502334799"><ele>180.0</ele><time>2026-05-02T14:23:36.878Z</time></trkpt><trkpt lat="42.58939542055211" lon="12.602249675043147"><ele>179.16666666666666</ele><time>2026-05-02T14:23:37.878Z</time></trkpt><trkpt lat="42.589295096704504" lon="12.602174994372229"><ele>178.33333333333334</ele><time>2026-05-02T14:23:39.878Z</time></trkpt><trkpt lat="42.589206424497554" lon="12.602123019291001"><ele>177.5</ele><time>2026-05-02T14:23:41.878Z</time></trkpt><trkpt lat="42.589143016343805" lon="12.602087308364702"><ele>176.66666666666669</ele><time>2026-05-02T14:23:43.878Z</time></trkpt><trkpt lat="42.58908847856589" lon="12.60214606004938"><ele>175.83333333333334</ele><time>2026-05-02T14:23:45.878Z</time></trkpt><trkpt lat="42.58901469371448" lon="12.602121622573327"><ele>175.0</ele><time>2026-05-02T14:23:47.878Z</time></trkpt><trkpt lat="42.58889650434451" lon="12.602045715041639"><ele>175.0</ele><time>2026-05-02T14:23:49.878Z</time></trkpt><trkpt lat="42.58882885021194" lon="12.602114959381232"><ele>175.0</ele><time>2026-05-02T14:23:50.878Z</time></trkpt><trkpt lat="42.5887619046779" lon="12.60216250481823"><ele>175.0</ele><time>2026-05-02T14:23:51.878Z</time></trkpt><trkpt lat="42.58866578647863" lon="12.602169904244073"><ele>175.0</ele><time>2026-05-02T14:23:52.878Z</time></trkpt><trkpt lat="42.58855191282154" lon="12.602119041750749"><ele>175.0</ele><time>2026-05-02T14:23:53.878Z</time></trkpt><trkpt lat="42.58840546111629" lon="12.6019663239389"><ele>172.33333333333334</ele><time>2026-05-02T14:23:54.878Z</time></trkpt><trkpt lat="42.58826988672591" lon="12.601870375578036"><ele>169.66666666666666</ele><time>2026-05-02T14:23:55.878Z</time></trkpt><trkpt lat="42.588108962019845" lon="12.601766009277588"><ele>167.0</ele><time>2026-05-02T14:23:56.878Z</time></trkpt><trkpt lat="42.58794247632383" lon="12.601659180714922"><ele>165.33333333333331</ele><time>2026-05-02T14:23:57.878Z</time></trkpt><trkpt lat="42.587766661398184" lon="12.601565291276374"><ele>163.66666666666666</ele><time>2026-05-02T14:23:58.878Z</time></trkpt><trkpt lat="42.58762071936082" lon="12.601469101511476"><ele>162.0</ele><time>2026-05-02T14:23:59.878Z</time></trkpt><trkpt lat="42.587503937391716" lon="12.60140367302162"><ele>162.0</ele><time>2026-05-02T14:24:00.878Z</time></trkpt><trkpt lat="42.58740357362904" lon="12.601345725856097"><ele>162.0</ele><time>2026-05-02T14:24:01.878Z</time></trkpt><trkpt lat="42.58729330750491" lon="12.601269046328955"><ele>162.0</ele><time>2026-05-02T14:24:02.878Z</time></trkpt><trkpt lat="42.58718243825696" lon="12.6011992334563"><ele>162.0</ele><time>2026-05-02T14:24:03.878Z</time></trkpt><trkpt lat="42.58706272106659" lon="12.60113096899739"><ele>161.0</ele><time>2026-05-02T14:24:04.878Z</time></trkpt><trkpt lat="42.5869536082177" lon="12.601070070822413"><ele>160.0</ele><time>2026-05-02T14:24:05.878Z</time></trkpt><trkpt lat="42.58685026085809" lon="12.601002491618175"><ele>159.0</ele><time>2026-05-02T14:24:06.878Z</time></trkpt><trkpt lat="42.58675579410823" lon="12.600932666349696"><ele>158.0</ele><time>2026-05-02T14:24:07.878Z</time></trkpt><trkpt lat="42.586664746352504" lon="12.600870737900543"><ele>157.0</ele><time>2026-05-02T14:24:08.878Z</time></trkpt><trkpt lat="42.58658473772491" lon="12.600825660191463"><ele>157.0</ele><time>2026-05-02T14:24:09.878Z</time></trkpt><trkpt lat="42.58651681992264" lon="12.600799480808485"><ele>157.0</ele><time>2026-05-02T14:24:10.878Z</time></trkpt><trkpt lat="42.58645919673321" lon="12.60074449955952"><ele>157.0</ele><time>2026-05-02T14:24:11.878Z</time></trkpt><trkpt lat="42.586365989152405" lon="12.600688366598792"><ele>157.0</ele><time>2026-05-02T14:24:13.878Z</time></trkpt><trkpt lat="42.586304609049" lon="12.600735174345976"><ele>157.0</ele><time>2026-05-02T14:24:14.878Z</time></trkpt><trkpt lat="42.586236380611155" lon="12.600755821612266"><ele>157.0</ele><time>2026-05-02T14:24:16.878Z</time></trkpt><trkpt lat="42.58616345926269" lon="12.600693462389383"><ele>155.79999999999998</ele><time>2026-05-02T14:24:18.878Z</time></trkpt><trkpt lat="42.58609643075892" lon="12.6006291391135"><ele>154.6</ele><time>2026-05-02T14:24:20.878Z</time></trkpt><trkpt lat="42.586022248174416" lon="12.600601057407797"><ele>153.39999999999998</ele><time>2026-05-02T14:24:21.879Z</time></trkpt><trkpt lat="42.585924479208806" lon="12.600556344543444"><ele>152.2</ele><time>2026-05-02T14:24:22.879Z</time></trkpt><trkpt lat="42.58585652996372" lon="12.600396825899152"><ele>151.0</ele><time>2026-05-02T14:24:23.878Z</time></trkpt><trkpt lat="42.58574889755984" lon="12.600323731868063"><ele>150.5</ele><time>2026-05-02T14:24:24.878Z</time></trkpt><trkpt lat="42.585626556899236" lon="12.600240650326903"><ele>150.0</ele><time>2026-05-02T14:24:25.878Z</time></trkpt><trkpt lat="42.585494881681996" lon="12.600151229762444"><ele>149.5</ele><time>2026-05-02T14:24:26.879Z</time></trkpt><trkpt lat="42.5853620391147" lon="12.600061670807772"><ele>149.0</ele><time>2026-05-02T14:24:27.878Z</time></trkpt><trkpt lat="42.585235500691994" lon="12.599978927700667"><ele>148.0</ele><time>2026-05-02T14:24:28.878Z</time></trkpt><trkpt lat="42.585116635357515" lon="12.599895537945091"><ele>147.0</ele><time>2026-05-02T14:24:29.879Z</time></trkpt><trkpt lat="42.58500089202606" lon="12.599811955371369"><ele>146.0</ele><time>2026-05-02T14:24:30.879Z</time></trkpt><trkpt lat="42.58488392081106" lon="12.59973038145911"><ele>145.0</ele><time>2026-05-02T14:24:31.879Z</time></trkpt><trkpt lat="42.58477491557644" lon="12.599660028235473"><ele>145.0</ele><time>2026-05-02T14:24:32.878Z</time></trkpt><trkpt lat="42.58467560017075" lon="12.599591495591755"><ele>145.0</ele><time>2026-05-02T14:24:33.878Z</time></trkpt><trkpt lat="42.584584691675154" lon="12.599529128216407"><ele>145.0</ele><time>2026-05-02T14:24:34.878Z</time></trkpt><trkpt lat="42.58451712414676" lon="12.599481948118372"><ele>145.0</ele><time>2026-05-02T14:24:35.878Z</time></trkpt><trkpt lat="42.584453309847824" lon="12.599337559137465"><ele>145.0</ele><time>2026-05-02T14:24:37.878Z</time></trkpt><trkpt lat="42.58447309657029" lon="12.599233967738352"><ele>144.6</ele><time>2026-05-02T14:24:38.878Z</time></trkpt><trkpt lat="42.584528120433454" lon="12.599101696807569"><ele>144.2</ele><time>2026-05-02T14:24:39.878Z</time></trkpt><trkpt lat="42.58455926381637" lon="12.598975836698267"><ele>143.8</ele><time>2026-05-02T14:24:40.878Z</time></trkpt><trkpt lat="42.58454541320237" lon="12.598877708224089"><ele>143.4</ele><time>2026-05-02T14:24:41.878Z</time></trkpt><trkpt lat="42.58447494687464" lon="12.598792109811306"><ele>143.0</ele><time>2026-05-02T14:24:42.878Z</time></trkpt><trkpt lat="42.5843812621833" lon="12.598756403707128"><ele>142.5</ele><time>2026-05-02T14:24:43.878Z</time></trkpt><trkpt lat="42.584246283524074" lon="12.598734545586721"><ele>142.0</ele><time>2026-05-02T14:24:44.878Z</time></trkpt><trkpt lat="42.58410320516008" lon="12.598689718484387"><ele>141.5</ele><time>2026-05-02T14:24:45.878Z</time></trkpt><trkpt lat="42.58396043166347" lon="12.598634397330125"><ele>141.0</ele><time>2026-05-02T14:24:46.878Z</time></trkpt><trkpt lat="42.58380755817645" lon="12.5985812169575"><ele>139.0</ele><time>2026-05-02T14:24:47.878Z</time></trkpt><trkpt lat="42.58364344205275" lon="12.598530207283126"><ele>137.0</ele><time>2026-05-02T14:24:48.878Z</time></trkpt><trkpt lat="42.58347969460557" lon="12.598472309092278"><ele>135.0</ele><time>2026-05-02T14:24:49.878Z</time></trkpt><trkpt lat="42.583321458045305" lon="12.598421459318153"><ele>135.0</ele><time>2026-05-02T14:24:50.878Z</time></trkpt><trkpt lat="42.58317091775057" lon="12.598368648737392"><ele>135.0</ele><time>2026-05-02T14:24:51.878Z</time></trkpt><trkpt lat="42.58303442509809" lon="12.59831656996294"><ele>135.0</ele><time>2026-05-02T14:24:52.878Z</time></trkpt><trkpt lat="42.58289890230894" lon="12.598309902529238"><ele>135.0</ele><time>2026-05-02T14:24:53.878Z</time></trkpt><trkpt lat="42.58278592184655" lon="12.59827133954624"><ele>134.4</ele><time>2026-05-02T14:24:54.878Z</time></trkpt><trkpt lat="42.582694115161516" lon="12.598273888423712"><ele>133.8</ele><time>2026-05-02T14:24:55.878Z</time></trkpt><trkpt lat="42.58261403446412" lon="12.598257644399458"><ele>133.2</ele><time>2026-05-02T14:24:56.878Z</time></trkpt><trkpt lat="42.582552225285774" lon="12.598187168652299"><ele>132.6</ele><time>2026-05-02T14:24:57.878Z</time></trkpt><trkpt lat="42.58250906155885" lon="12.598065196419546"><ele>132.0</ele><time>2026-05-02T14:24:58.878Z</time></trkpt><trkpt lat="42.58253231594199" lon="12.597883558776676"><ele>132.0</ele><time>2026-05-02T14:24:59.878Z</time></trkpt><trkpt lat="42.582532519471364" lon="12.59768069203012"><ele>132.0</ele><time>2026-05-02T14:25:00.878Z</time></trkpt><trkpt lat="42.58252784598012" lon="12.597470225595776"><ele>132.0</ele><time>2026-05-02T14:25:01.878Z</time></trkpt><trkpt lat="42.582514429030304" lon="12.597251651145735"><ele>132.0</ele><time>2026-05-02T14:25:02.878Z</time></trkpt><trkpt lat="42.58250960992981" lon="12.597012367651823"><ele>132.0</ele><time>2026-05-02T14:25:03.878Z</time></trkpt><trkpt lat="42.582506770555035" lon="12.59676291611944"><ele>132.0</ele><time>2026-05-02T14:25:04.878Z</time></trkpt><trkpt lat="42.58249713945835" lon="12.596506999856818"><ele>132.0</ele><time>2026-05-02T14:25:05.878Z</time></trkpt><trkpt lat="42.58249451760951" lon="12.59629077375985"><ele>132.0</ele><time>2026-05-02T14:25:06.878Z</time></trkpt><trkpt lat="42.58249114172865" lon="12.596092548875454"><ele>132.0</ele><time>2026-05-02T14:25:07.878Z</time></trkpt><trkpt lat="42.58249572262119" lon="12.595924659991427"><ele>132.0</ele><time>2026-05-02T14:25:08.878Z</time></trkpt><trkpt lat="42.58249676922494" lon="12.595791621695044"><ele>131.79999999999998</ele><time>2026-05-02T14:25:09.878Z</time></trkpt><trkpt lat="42.58247514864735" lon="12.595689371218796"><ele>131.6</ele><time>2026-05-02T14:25:10.878Z</time></trkpt><trkpt lat="42.582435697214855" lon="12.59562124260356"><ele>131.39999999999998</ele><time>2026-05-02T14:25:11.878Z</time></trkpt><trkpt lat="42.58237093832185" lon="12.595557599091453"><ele>131.2</ele><time>2026-05-02T14:25:12.878Z</time></trkpt><trkpt lat="42.58227156669344" lon="12.595496948497217"><ele>131.0</ele><time>2026-05-02T14:25:13.878Z</time></trkpt><trkpt lat="42.582137550596066" lon="12.59541704709868"><ele>130.75</ele><time>2026-05-02T14:25:14.878Z</time></trkpt><trkpt lat="42.5820282863593" lon="12.59533626644993"><ele>130.5</ele><time>2026-05-02T14:25:15.878Z</time></trkpt><trkpt lat="42.581933998702034" lon="12.595255883234179"><ele>130.25</ele><time>2026-05-02T14:25:16.878Z</time></trkpt><trkpt lat="42.58183716141967" lon="12.595185328208883"><ele>130.0</ele><time>2026-05-02T14:25:17.878Z</time></trkpt><trkpt lat="42.58169390829437" lon="12.595185402838046"><ele>130.0</ele><time>2026-05-02T14:25:18.878Z</time></trkpt><trkpt lat="42.581521420453015" lon="12.59519373518639"><ele>130.0</ele><time>2026-05-02T14:25:19.878Z</time></trkpt><trkpt lat="42.58134443260966" lon="12.595165739976917"><ele>130.0</ele><time>2026-05-02T14:25:20.878Z</time></trkpt><trkpt lat="42.58116399327917" lon="12.595170955396453"><ele>129.0</ele><time>2026-05-02T14:25:21.878Z</time></trkpt><trkpt lat="42.580999447391726" lon="12.595159160072077"><ele>128.0</ele><time>2026-05-02T14:25:22.878Z</time></trkpt><trkpt lat="42.58084817791746" lon="12.595161305192947"><ele>127.0</ele><time>2026-05-02T14:25:23.878Z</time></trkpt><trkpt lat="42.5807092310252" lon="12.595163793579356"><ele>127.0</ele><time>2026-05-02T14:25:24.878Z</time></trkpt><trkpt lat="42.5805880392365" lon="12.595152536085706"><ele>126.99999999999999</ele><time>2026-05-02T14:25:25.878Z</time></trkpt><trkpt lat="42.58048707033842" lon="12.595126877639578"><ele>126.99999999999999</ele><time>2026-05-02T14:25:26.878Z</time></trkpt><trkpt lat="42.5804070795024" lon="12.595103484388062"><ele>127.0</ele><time>2026-05-02T14:25:27.878Z</time></trkpt><trkpt lat="42.58030120152482" lon="12.595065149046746"><ele>127.0</ele><time>2026-05-02T14:25:29.878Z</time></trkpt><trkpt lat="42.58026182566663" lon="12.59494437514224"><ele>126.0</ele><time>2026-05-02T14:25:31.878Z</time></trkpt><trkpt lat="42.58025425980676" lon="12.594796828349402"><ele>125.0</ele><time>2026-05-02T14:25:32.878Z</time></trkpt><trkpt lat="42.58022076871538" lon="12.594628010645252"><ele>124.0</ele><time>2026-05-02T14:25:33.878Z</time></trkpt><trkpt lat="42.58018382752821" lon="12.59445826854328"><ele>123.0</ele><time>2026-05-02T14:25:34.878Z</time></trkpt><trkpt lat="42.580147231166876" lon="12.594292353649099"><ele>123.0</ele><time>2026-05-02T14:25:35.878Z</time></trkpt><trkpt lat="42.58011967016012" lon="12.5941641602726"><ele>123.0</ele><time>2026-05-02T14:25:36.878Z</time></trkpt><trkpt lat="42.58013408983531" lon="12.594048568851132"><ele>123.0</ele><time>2026-05-02T14:25:37.877Z</time></trkpt><trkpt lat="42.58012885511228" lon="12.593944185114257"><ele>123.0</ele><time>2026-05-02T14:25:38.877Z</time></trkpt><trkpt lat="42.58010758738188" lon="12.593852035683893"><ele>123.0</ele><time>2026-05-02T14:25:39.877Z</time></trkpt><trkpt lat="42.58004232308711" lon="12.59379592839142"><ele>123.0</ele><time>2026-05-02T14:25:40.877Z</time></trkpt><trkpt lat="42.57994654882717" lon="12.593767932128797"><ele>123.0</ele><time>2026-05-02T14:25:41.877Z</time></trkpt><trkpt lat="42.5798430132572" lon="12.593744339206493"><ele>123.00000000000001</ele><time>2026-05-02T14:25:42.877Z</time></trkpt><trkpt lat="42.579766838427204" lon="12.593687523295026"><ele>123.00000000000001</ele><time>2026-05-02T14:25:43.877Z</time></trkpt><trkpt lat="42.579672433470016" lon="12.593642702652469"><ele>123.0</ele><time>2026-05-02T14:25:45.877Z</time></trkpt><trkpt lat="42.57959585737904" lon="12.593605148691116"><ele>123.0</ele><time>2026-05-02T14:25:47.877Z</time></trkpt><trkpt lat="42.5795122980067" lon="12.593573639714224"><ele>122.2</ele><time>2026-05-02T14:25:49.877Z</time></trkpt><trkpt lat="42.57941993116022" lon="12.593536050324573"><ele>121.4</ele><time>2026-05-02T14:25:51.877Z</time></trkpt><trkpt lat="42.57930010584583" lon="12.593465514571156"><ele>120.60000000000001</ele><time>2026-05-02T14:25:53.877Z</time></trkpt><trkpt lat="42.579206438402835" lon="12.593421673005892"><ele>119.80000000000001</ele><time>2026-05-02T14:25:54.877Z</time></trkpt><trkpt lat="42.57909747313638" lon="12.593363677183822"><ele>119.0</ele><time>2026-05-02T14:25:55.877Z</time></trkpt><trkpt lat="42.57898155162374" lon="12.593291843716226"><ele>119.0</ele><time>2026-05-02T14:25:56.877Z</time></trkpt><trkpt lat="42.57887387047906" lon="12.593201998441815"><ele>119.0</ele><time>2026-05-02T14:25:57.877Z</time></trkpt><trkpt lat="42.578780579663075" lon="12.593094917199148"><ele>119.0</ele><time>2026-05-02T14:25:58.877Z</time></trkpt><trkpt lat="42.57869546285701" lon="12.593000422249007"><ele>119.0</ele><time>2026-05-02T14:25:59.877Z</time></trkpt><trkpt lat="42.5786090535564" lon="12.592927587509605"><ele>118.6</ele><time>2026-05-02T14:26:00.877Z</time></trkpt><trkpt lat="42.57853931693238" lon="12.592860429846334"><ele>118.2</ele><time>2026-05-02T14:26:01.877Z</time></trkpt><trkpt lat="42.57845980129312" lon="12.592832509526554"><ele>117.79999999999998</ele><time>2026-05-02T14:26:02.877Z</time></trkpt><trkpt lat="42.57838732817333" lon="12.592793479342745"><ele>117.39999999999999</ele><time>2026-05-02T14:26:03.877Z</time></trkpt><trkpt lat="42.57828204952868" lon="12.592790515467"><ele>117.0</ele><time>2026-05-02T14:26:04.877Z</time></trkpt><trkpt lat="42.57814891021063" lon="12.592809084726472"><ele>117.0</ele><time>2026-05-02T14:26:05.877Z</time></trkpt><trkpt lat="42.57802976953063" lon="12.592852165458629"><ele>117.0</ele><time>2026-05-02T14:26:06.877Z</time></trkpt><trkpt lat="42.57791261552567" lon="12.59289066453425"><ele>117.0</ele><time>2026-05-02T14:26:07.877Z</time></trkpt><trkpt lat="42.57779073109395" lon="12.592887407713691"><ele>117.0</ele><time>2026-05-02T14:26:08.877Z</time></trkpt><trkpt lat="42.577684983848975" lon="12.592904656373776"><ele>117.0</ele><time>2026-05-02T14:26:09.877Z</time></trkpt><trkpt lat="42.577593303064134" lon="12.592922994740768"><ele>117.0</ele><time>2026-05-02T14:26:10.877Z</time></trkpt><trkpt lat="42.57750708499429" lon="12.592943196454279"><ele>117.0</ele><time>2026-05-02T14:26:11.877Z</time></trkpt><trkpt lat="42.57743703446299" lon="12.592956598352403"><ele>117.0</ele><time>2026-05-02T14:26:12.877Z</time></trkpt><trkpt lat="42.577331042841365" lon="12.592988512282309"><ele>117.0</ele><time>2026-05-02T14:26:14.877Z</time></trkpt><trkpt lat="42.577268604535696" lon="12.593019815263979"><ele>117.0</ele><time>2026-05-02T14:26:18.877Z</time></trkpt><trkpt lat="42.57728400704251" lon="12.593172258437452"><ele>117.0</ele><time>2026-05-02T14:26:19.877Z</time></trkpt><trkpt lat="42.57732878664616" lon="12.59326273676326"><ele>116.99999999999999</ele><time>2026-05-02T14:26:20.877Z</time></trkpt><trkpt lat="42.577379635650296" lon="12.593363262106523"><ele>116.99999999999999</ele><time>2026-05-02T14:26:21.877Z</time></trkpt><trkpt lat="42.57743900885943" lon="12.593479978668118"><ele>117.0</ele><time>2026-05-02T14:26:22.877Z</time></trkpt><trkpt lat="42.57749975788968" lon="12.593600644836329"><ele>117.0</ele><time>2026-05-02T14:26:23.877Z</time></trkpt><trkpt lat="42.577567431629106" lon="12.593738499215805"><ele>117.0</ele><time>2026-05-02T14:26:24.877Z</time></trkpt><trkpt lat="42.57763582561537" lon="12.59388381617399"><ele>117.0</ele><time>2026-05-02T14:26:25.877Z</time></trkpt><trkpt lat="42.57770209204805" lon="12.594040196595117"><ele>117.0</ele><time>2026-05-02T14:26:26.877Z</time></trkpt><trkpt lat="42.577773629978175" lon="12.59419762816943"><ele>117.0</ele><time>2026-05-02T14:26:27.877Z</time></trkpt><trkpt lat="42.57784246291247" lon="12.594358898345652"><ele>118.0</ele><time>2026-05-02T14:26:28.877Z</time></trkpt><trkpt lat="42.577894588496676" lon="12.59451754063412"><ele>119.0</ele><time>2026-05-02T14:26:29.877Z</time></trkpt><trkpt lat="42.57794531579181" lon="12.594668594435715"><ele>120.0</ele><time>2026-05-02T14:26:30.877Z</time></trkpt><trkpt lat="42.57796733700641" lon="12.594822799285726"><ele>121.0</ele><time>2026-05-02T14:26:31.877Z</time></trkpt><trkpt lat="42.57798091004642" lon="12.59498063966648"><ele>121.0</ele><time>2026-05-02T14:26:32.877Z</time></trkpt><trkpt lat="42.57797579230586" lon="12.59512989027593"><ele>121.0</ele><time>2026-05-02T14:26:33.876Z</time></trkpt><trkpt lat="42.577916922166054" lon="12.595264712699612"><ele>121.0</ele><time>2026-05-02T14:26:34.876Z</time></trkpt><trkpt lat="42.57785950022311" lon="12.595423915654026"><ele>121.0</ele><time>2026-05-02T14:26:35.877Z</time></trkpt><trkpt lat="42.577842036183824" lon="12.595618683265553"><ele>121.5</ele><time>2026-05-02T14:26:36.877Z</time></trkpt><trkpt lat="42.57776434282562" lon="12.595774078220888"><ele>122.0</ele><time>2026-05-02T14:26:37.877Z</time></trkpt><trkpt lat="42.57769020444699" lon="12.595921585225017"><ele>122.5</ele><time>2026-05-02T14:26:38.877Z</time></trkpt><trkpt lat="42.57756293472484" lon="12.596042045886513"><ele>123.0</ele><time>2026-05-02T14:26:39.877Z</time></trkpt><trkpt lat="42.57741996998936" lon="12.596177334279172"><ele>122.66666666666666</ele><time>2026-05-02T14:26:40.877Z</time></trkpt><trkpt lat="42.57727687024788" lon="12.596323977124607"><ele>122.33333333333333</ele><time>2026-05-02T14:26:41.877Z</time></trkpt><trkpt lat="42.577126663050876" lon="12.596482541436158"><ele>122.0</ele><time>2026-05-02T14:26:42.877Z</time></trkpt><trkpt lat="42.576977394256" lon="12.596630161290319"><ele>122.0</ele><time>2026-05-02T14:26:43.877Z</time></trkpt><trkpt lat="42.57681703790996" lon="12.596797555905319"><ele>122.0</ele><time>2026-05-02T14:26:44.877Z</time></trkpt><trkpt lat="42.576654616845765" lon="12.596966350274908"><ele>122.0</ele><time>2026-05-02T14:26:45.877Z</time></trkpt><trkpt lat="42.57649039848682" lon="12.597139966571376"><ele>122.33333333333333</ele><time>2026-05-02T14:26:46.877Z</time></trkpt><trkpt lat="42.57632186328209" lon="12.597322845077397"><ele>122.66666666666666</ele><time>2026-05-02T14:26:47.877Z</time></trkpt><trkpt lat="42.57615614220665" lon="12.59750172946781"><ele>123.0</ele><time>2026-05-02T14:26:48.877Z</time></trkpt><trkpt lat="42.57598739349172" lon="12.597682828092195"><ele>125.5</ele><time>2026-05-02T14:26:49.877Z</time></trkpt><trkpt lat="42.575815690336206" lon="12.597867211033654"><ele>128.0</ele><time>2026-05-02T14:26:50.877Z</time></trkpt><trkpt lat="42.57563699411658" lon="12.598067441586645"><ele>128.0</ele><time>2026-05-02T14:26:51.877Z</time></trkpt><trkpt lat="42.57545313465256" lon="12.598236977406394"><ele>128.0</ele><time>2026-05-02T14:26:52.877Z</time></trkpt><trkpt lat="42.57528035513057" lon="12.598419918765769"><ele>128.0</ele><time>2026-05-02T14:26:53.877Z</time></trkpt><trkpt lat="42.57510400624221" lon="12.598606677746034"><ele>125.0</ele><time>2026-05-02T14:26:54.877Z</time></trkpt><trkpt lat="42.57492934961997" lon="12.598791784636731"><ele>122.0</ele><time>2026-05-02T14:26:55.877Z</time></trkpt><trkpt lat="42.5747531399545" lon="12.598978537572462"><ele>119.0</ele><time>2026-05-02T14:26:56.877Z</time></trkpt><trkpt lat="42.57459979935898" lon="12.599141052538439"><ele>117.66666666666666</ele><time>2026-05-02T14:26:57.877Z</time></trkpt><trkpt lat="42.57445575120793" lon="12.59929372028334"><ele>116.33333333333334</ele><time>2026-05-02T14:26:58.877Z</time></trkpt><trkpt lat="42.574314115872795" lon="12.59944361649272"><ele>115.0</ele><time>2026-05-02T14:26:59.877Z</time></trkpt><trkpt lat="42.57418267994872" lon="12.599582327659064"><ele>115.0</ele><time>2026-05-02T14:27:00.877Z</time></trkpt><trkpt lat="42.57405438977963" lon="12.599744724222816"><ele>115.0</ele><time>2026-05-02T14:27:01.877Z</time></trkpt><trkpt lat="42.57390731491594" lon="12.599888666404167"><ele>115.0</ele><time>2026-05-02T14:27:02.877Z</time></trkpt><trkpt lat="42.57375993038575" lon="12.600046352342344"><ele>114.66666666666667</ele><time>2026-05-02T14:27:03.877Z</time></trkpt><trkpt lat="42.57360782015819" lon="12.600209355209524"><ele>114.33333333333334</ele><time>2026-05-02T14:27:04.877Z</time></trkpt><trkpt lat="42.57344421703745" lon="12.600364420005475"><ele>114.0</ele><time>2026-05-02T14:27:05.877Z</time></trkpt><trkpt lat="42.573291067662915" lon="12.600519337180858"><ele>114.0</ele><time>2026-05-02T14:27:06.877Z</time></trkpt><trkpt lat="42.57313780279667" lon="12.600689929458497"><ele>114.0</ele><time>2026-05-02T14:27:07.877Z</time></trkpt><trkpt lat="42.57298141274369" lon="12.600863051425222"><ele>114.0</ele><time>2026-05-02T14:27:08.876Z</time></trkpt><trkpt lat="42.572835242583395" lon="12.601019928537633"><ele>112.66666666666666</ele><time>2026-05-02T14:27:09.876Z</time></trkpt><trkpt lat="42.57269865608166" lon="12.601171187249546"><ele>111.33333333333333</ele><time>2026-05-02T14:27:10.876Z</time></trkpt><trkpt lat="42.572568836574234" lon="12.601315412367416"><ele>110.0</ele><time>2026-05-02T14:27:11.876Z</time></trkpt><trkpt lat="42.572442528568" lon="12.601452033883616"><ele>110.0</ele><time>2026-05-02T14:27:12.876Z</time></trkpt><trkpt lat="42.57231647162984" lon="12.601562191331226"><ele>110.0</ele><time>2026-05-02T14:27:13.876Z</time></trkpt><trkpt lat="42.572211073029656" lon="12.601672807722991"><ele>110.0</ele><time>2026-05-02T14:27:14.876Z</time></trkpt><trkpt lat="42.57213303055227" lon="12.601777138844943"><ele>110.0</ele><time>2026-05-02T14:27:15.876Z</time></trkpt><trkpt lat="42.57204387014924" lon="12.60181989552262"><ele>109.8</ele><time>2026-05-02T14:27:16.876Z</time></trkpt><trkpt lat="42.5719562263322" lon="12.601807419900004"><ele>109.6</ele><time>2026-05-02T14:27:17.876Z</time></trkpt><trkpt lat="42.57186783700033" lon="12.601731073061055"><ele>109.4</ele><time>2026-05-02T14:27:18.876Z</time></trkpt><trkpt lat="42.57180643569793" lon="12.601592032286014"><ele>109.2</ele><time>2026-05-02T14:27:19.876Z</time></trkpt><trkpt lat="42.57176774322413" lon="12.601421528560724"><ele>109.0</ele><time>2026-05-02T14:27:20.876Z</time></trkpt><trkpt lat="42.57173829626207" lon="12.601237123570888"><ele>109.0</ele><time>2026-05-02T14:27:21.876Z</time></trkpt><trkpt lat="42.57171373067744" lon="12.601035781531001"><ele>109.0</ele><time>2026-05-02T14:27:22.876Z</time></trkpt><trkpt lat="42.57170850037319" lon="12.600821548310508"><ele>109.0</ele><time>2026-05-02T14:27:23.876Z</time></trkpt><trkpt lat="42.57167584420769" lon="12.600615588107695"><ele>109.0</ele><time>2026-05-02T14:27:24.876Z</time></trkpt><trkpt lat="42.57166491522449" lon="12.600385736020932"><ele>109.0</ele><time>2026-05-02T14:27:25.876Z</time></trkpt><trkpt lat="42.57164985896816" lon="12.600153685795666"><ele>109.0</ele><time>2026-05-02T14:27:26.876Z</time></trkpt><trkpt lat="42.571622209310895" lon="12.599904287434851"><ele>109.33333333333334</ele><time>2026-05-02T14:27:27.876Z</time></trkpt><trkpt lat="42.57159285124082" lon="12.599641224123792"><ele>109.66666666666666</ele><time>2026-05-02T14:27:28.876Z</time></trkpt><trkpt lat="42.57156796726001" lon="12.599380121284044"><ele>110.0</ele><time>2026-05-02T14:27:29.876Z</time></trkpt><trkpt lat="42.57152917209661" lon="12.599119739993489"><ele>110.33333333333333</ele><time>2026-05-02T14:27:30.876Z</time></trkpt><trkpt lat="42.57147854976995" lon="12.598860870164193"><ele>110.66666666666666</ele><time>2026-05-02T14:27:31.876Z</time></trkpt><trkpt lat="42.57141373167537" lon="12.59860517706607"><ele>111.0</ele><time>2026-05-02T14:27:32.876Z</time></trkpt><trkpt lat="42.57131723588034" lon="12.598383655335844"><ele>110.33333333333334</ele><time>2026-05-02T14:27:33.876Z</time></trkpt><trkpt lat="42.57120541632982" lon="12.598176838545672"><ele>109.66666666666667</ele><time>2026-05-02T14:27:34.876Z</time></trkpt><trkpt lat="42.57107632936747" lon="12.597990290241077"><ele>109.0</ele><time>2026-05-02T14:27:35.876Z</time></trkpt><trkpt lat="42.57092116137604" lon="12.597840489656207"><ele>109.0</ele><time>2026-05-02T14:27:36.876Z</time></trkpt><trkpt lat="42.570760874666746" lon="12.597706324825298"><ele>109.0</ele><time>2026-05-02T14:27:37.876Z</time></trkpt><trkpt lat="42.570581632237634" lon="12.597606315804196"><ele>109.0</ele><time>2026-05-02T14:27:38.876Z</time></trkpt><trkpt lat="42.57038430799231" lon="12.597524353851906"><ele>110.0</ele><time>2026-05-02T14:27:39.876Z</time></trkpt><trkpt lat="42.57017631456451" lon="12.597498526758548"><ele>111.0</ele><time>2026-05-02T14:27:40.876Z</time></trkpt><trkpt lat="42.569976006261214" lon="12.597492591497636"><ele>112.0</ele><time>2026-05-02T14:27:41.876Z</time></trkpt><trkpt lat="42.56977006756191" lon="12.597499961132364"><ele>112.0</ele><time>2026-05-02T14:27:42.876Z</time></trkpt><trkpt lat="42.56955999655601" lon="12.597505247541072"><ele>112.0</ele><time>2026-05-02T14:27:43.876Z</time></trkpt><trkpt lat="42.5693572970972" lon="12.59751325543664"><ele>112.0</ele><time>2026-05-02T14:27:44.876Z</time></trkpt><trkpt lat="42.569154518420376" lon="12.597536842977462"><ele>112.0</ele><time>2026-05-02T14:27:45.876Z</time></trkpt><trkpt lat="42.56895074798371" lon="12.597543960493137"><ele>112.0</ele><time>2026-05-02T14:27:46.876Z</time></trkpt><trkpt lat="42.568738570525845" lon="12.597559846396273"><ele>112.0</ele><time>2026-05-02T14:27:47.876Z</time></trkpt><trkpt lat="42.568528863351986" lon="12.597574451483249"><ele>111.66666666666667</ele><time>2026-05-02T14:27:48.876Z</time></trkpt><trkpt lat="42.568334248965456" lon="12.597564944094351"><ele>111.33333333333334</ele><time>2026-05-02T14:27:49.876Z</time></trkpt><trkpt lat="42.56815155626375" lon="12.597571529783576"><ele>111.0</ele><time>2026-05-02T14:27:50.876Z</time></trkpt><trkpt lat="42.5679709651516" lon="12.597583575517103"><ele>109.66666666666666</ele><time>2026-05-02T14:27:51.876Z</time></trkpt><trkpt lat="42.56781069629836" lon="12.597604105133088"><ele>108.33333333333333</ele><time>2026-05-02T14:27:52.876Z</time></trkpt><trkpt lat="42.56765197947724" lon="12.597643867667953"><ele>107.0</ele><time>2026-05-02T14:27:53.876Z</time></trkpt><trkpt lat="42.56749340648764" lon="12.597698797527853"><ele>107.0</ele><time>2026-05-02T14:27:54.876Z</time></trkpt><trkpt lat="42.5673502343751" lon="12.597747397691936"><ele>107.0</ele><time>2026-05-02T14:27:55.876Z</time></trkpt><trkpt lat="42.56721007094587" lon="12.597806809262915"><ele>107.0</ele><time>2026-05-02T14:27:56.876Z</time></trkpt><trkpt lat="42.567087815593744" lon="12.597879917504478"><ele>107.0</ele><time>2026-05-02T14:27:57.876Z</time></trkpt><trkpt lat="42.5669702518187" lon="12.597836962518402"><ele>107.0</ele><time>2026-05-02T14:28:00.876Z</time></trkpt><trkpt lat="42.56685809679549" lon="12.597873484552203"><ele>106.99999999999999</ele><time>2026-05-02T14:28:01.876Z</time></trkpt><trkpt lat="42.56679654193446" lon="12.59801011781807"><ele>106.99999999999999</ele><time>2026-05-02T14:28:02.876Z</time></trkpt><trkpt lat="42.56683604511324" lon="12.598141464358111"><ele>107.0</ele><time>2026-05-02T14:28:03.876Z</time></trkpt><trkpt lat="42.5668904710494" lon="12.598241558433346"><ele>107.0</ele><time>2026-05-02T14:28:04.876Z</time></trkpt><trkpt lat="42.566992373572596" lon="12.598327681313545"><ele>106.75</ele><time>2026-05-02T14:28:05.876Z</time></trkpt><trkpt lat="42.567060178882755" lon="12.59848088554062"><ele>106.5</ele><time>2026-05-02T14:28:06.876Z</time></trkpt><trkpt lat="42.567123496456844" lon="12.59865182895872"><ele>106.25</ele><time>2026-05-02T14:28:07.876Z</time></trkpt><trkpt lat="42.56719087612614" lon="12.598824474394789"><ele>106.0</ele><time>2026-05-02T14:28:08.876Z</time></trkpt><trkpt lat="42.567254560175336" lon="12.599024131687749"><ele>106.0</ele><time>2026-05-02T14:28:09.876Z</time></trkpt><trkpt lat="42.56730846804388" lon="12.599242086667628"><ele>106.0</ele><time>2026-05-02T14:28:10.876Z</time></trkpt><trkpt lat="42.567360087735445" lon="12.59947075337096"><ele>106.0</ele><time>2026-05-02T14:28:11.876Z</time></trkpt><trkpt lat="42.56741548632762" lon="12.599723595554336"><ele>106.0</ele><time>2026-05-02T14:28:12.876Z</time></trkpt><trkpt lat="42.567466419939194" lon="12.599993465080145"><ele>106.0</ele><time>2026-05-02T14:28:13.875Z</time></trkpt><trkpt lat="42.56750192671662" lon="12.600288552684223"><ele>106.0</ele><time>2026-05-02T14:28:14.875Z</time></trkpt><trkpt lat="42.56754430195406" lon="12.600585222552557"><ele>106.0</ele><time>2026-05-02T14:28:15.875Z</time></trkpt><trkpt lat="42.56757400354831" lon="12.60089001976457"><ele>106.0</ele><time>2026-05-02T14:28:16.875Z</time></trkpt><trkpt lat="42.567588372442216" lon="12.601203144091471"><ele>106.0</ele><time>2026-05-02T14:28:17.875Z</time></trkpt><trkpt lat="42.56758762701881" lon="12.601516849339946"><ele>106.0</ele><time>2026-05-02T14:28:18.875Z</time></trkpt><trkpt lat="42.56757387865757" lon="12.601833545579952"><ele>106.5</ele><time>2026-05-02T14:28:19.875Z</time></trkpt><trkpt lat="42.56754742903061" lon="12.602153093381457"><ele>107.0</ele><time>2026-05-02T14:28:20.875Z</time></trkpt><trkpt lat="42.56750964259985" lon="12.602461867147875"><ele>107.0</ele><time>2026-05-02T14:28:21.875Z</time></trkpt><trkpt lat="42.567466338358464" lon="12.602764323230561"><ele>107.0</ele><time>2026-05-02T14:28:22.875Z</time></trkpt><trkpt lat="42.567415566831066" lon="12.603055227761775"><ele>107.0</ele><time>2026-05-02T14:28:23.875Z</time></trkpt><trkpt lat="42.56734916871426" lon="12.603320663017268"><ele>107.0</ele><time>2026-05-02T14:28:24.875Z</time></trkpt><trkpt lat="42.56728036989206" lon="12.603584056449723"><ele>107.0</ele><time>2026-05-02T14:28:25.875Z</time></trkpt><trkpt lat="42.567213710429655" lon="12.603845757629111"><ele>107.0</ele><time>2026-05-02T14:28:26.875Z</time></trkpt><trkpt lat="42.567153985378845" lon="12.604088621766383"><ele>107.0</ele><time>2026-05-02T14:28:27.875Z</time></trkpt><trkpt lat="42.567094851400356" lon="12.604314719338344"><ele>107.0</ele><time>2026-05-02T14:28:28.875Z</time></trkpt><trkpt lat="42.56704119292397" lon="12.604523029583017"><ele>107.0</ele><time>2026-05-02T14:28:29.875Z</time></trkpt><trkpt lat="42.56697261175993" lon="12.604710469519407"><ele>107.25</ele><time>2026-05-02T14:28:30.875Z</time></trkpt><trkpt lat="42.56692398167481" lon="12.604891016663386"><ele>107.5</ele><time>2026-05-02T14:28:31.875Z</time></trkpt><trkpt lat="42.56687878307188" lon="12.605052167926788"><ele>107.75</ele><time>2026-05-02T14:28:32.876Z</time></trkpt><trkpt lat="42.56680838197672" lon="12.605241327276614"><ele>108.0</ele><time>2026-05-02T14:28:33.876Z</time></trkpt><trkpt lat="42.56673619393369" lon="12.60538110361909"><ele>108.0</ele><time>2026-05-02T14:28:34.876Z</time></trkpt><trkpt lat="42.56665097867964" lon="12.60547423625588"><ele>108.0</ele><time>2026-05-02T14:28:35.875Z</time></trkpt><trkpt lat="42.566584235433474" lon="12.605573493030336"><ele>108.0</ele><time>2026-05-02T14:28:36.876Z</time></trkpt><trkpt lat="42.56654567024572" lon="12.605701877083167"><ele>108.0</ele><time>2026-05-02T14:28:37.876Z</time></trkpt><trkpt lat="42.56659163724959" lon="12.60588067244746"><ele>108.0</ele><time>2026-05-02T14:28:38.876Z</time></trkpt><trkpt lat="42.56661715131401" lon="12.606063628972262"><ele>108.0</ele><time>2026-05-02T14:28:39.876Z</time></trkpt><trkpt lat="42.56662792562514" lon="12.606281349922716"><ele>108.0</ele><time>2026-05-02T14:28:40.876Z</time></trkpt><trkpt lat="42.5666311461517" lon="12.606519176631304"><ele>108.66666666666666</ele><time>2026-05-02T14:28:41.876Z</time></trkpt><trkpt lat="42.56663022974592" lon="12.60676964999185"><ele>109.33333333333333</ele><time>2026-05-02T14:28:42.875Z</time></trkpt><trkpt lat="42.56663208111254" lon="12.607041012528912"><ele>110.0</ele><time>2026-05-02T14:28:43.875Z</time></trkpt><trkpt lat="42.56664032855065" lon="12.60732801396323"><ele>110.0</ele><time>2026-05-02T14:28:44.876Z</time></trkpt><trkpt lat="42.56665493997074" lon="12.60762099532014"><ele>110.0</ele><time>2026-05-02T14:28:45.875Z</time></trkpt><trkpt lat="42.566678608439" lon="12.60792729136275"><ele>110.0</ele><time>2026-05-02T14:28:46.875Z</time></trkpt><trkpt lat="42.56670499714368" lon="12.608239505486019"><ele>110.0</ele><time>2026-05-02T14:28:47.875Z</time></trkpt><trkpt lat="42.56674155627044" lon="12.608561733189111"><ele>110.0</ele><time>2026-05-02T14:28:48.875Z</time></trkpt><trkpt lat="42.566789469225505" lon="12.608879764919443"><ele>110.0</ele><time>2026-05-02T14:28:49.875Z</time></trkpt><trkpt lat="42.56685466621199" lon="12.609196130562331"><ele>110.0</ele><time>2026-05-02T14:28:50.875Z</time></trkpt><trkpt lat="42.566914342219185" lon="12.609510217135503"><ele>110.5</ele><time>2026-05-02T14:28:51.875Z</time></trkpt><trkpt lat="42.566970552965415" lon="12.60981947203951"><ele>111.0</ele><time>2026-05-02T14:28:52.875Z</time></trkpt><trkpt lat="42.5670223752463" lon="12.61012162191006"><ele>111.0</ele><time>2026-05-02T14:28:53.875Z</time></trkpt><trkpt lat="42.567075533496286" lon="12.61041849914825"><ele>111.0</ele><time>2026-05-02T14:28:54.875Z</time></trkpt><trkpt lat="42.56713022101023" lon="12.610708134978982"><ele>111.0</ele><time>2026-05-02T14:28:55.875Z</time></trkpt><trkpt lat="42.56719217637744" lon="12.610992844547669"><ele>111.0</ele><time>2026-05-02T14:28:56.875Z</time></trkpt><trkpt lat="42.567229620510915" lon="12.611264323019181"><ele>111.0</ele><time>2026-05-02T14:28:57.875Z</time></trkpt><trkpt lat="42.56725755914464" lon="12.611519663899289"><ele>111.0</ele><time>2026-05-02T14:28:58.875Z</time></trkpt><trkpt lat="42.56726839940218" lon="12.611758758443871"><ele>111.0</ele><time>2026-05-02T14:28:59.875Z</time></trkpt><trkpt lat="42.56726838895165" lon="12.611976543645246"><ele>111.0</ele><time>2026-05-02T14:29:00.875Z</time></trkpt><trkpt lat="42.567274879832716" lon="12.612183408886985"><ele>111.0</ele><time>2026-05-02T14:29:01.875Z</time></trkpt><trkpt lat="42.56725681876146" lon="12.612374605966082"><ele>111.25</ele><time>2026-05-02T14:29:02.875Z</time></trkpt><trkpt lat="42.56724968467749" lon="12.612556503574137"><ele>111.5</ele><time>2026-05-02T14:29:03.875Z</time></trkpt><trkpt lat="42.567237865160635" lon="12.612726673606609"><ele>111.75</ele><time>2026-05-02T14:29:04.875Z</time></trkpt><trkpt lat="42.56722523049766" lon="12.612893920576116"><ele>112.0</ele><time>2026-05-02T14:29:05.875Z</time></trkpt><trkpt lat="42.56721248582579" lon="12.61306026883848"><ele>112.0</ele><time>2026-05-02T14:29:06.875Z</time></trkpt><trkpt lat="42.56719888564968" lon="12.613224382681867"><ele>112.0</ele><time>2026-05-02T14:29:07.875Z</time></trkpt><trkpt lat="42.567184997770966" lon="12.613380052820212"><ele>112.0</ele><time>2026-05-02T14:29:08.875Z</time></trkpt><trkpt lat="42.56717135517917" lon="12.613532973186489"><ele>112.0</ele><time>2026-05-02T14:29:09.875Z</time></trkpt><trkpt lat="42.567158823178" lon="12.613672105696132"><ele>112.0</ele><time>2026-05-02T14:29:10.875Z</time></trkpt><trkpt lat="42.5671454681498" lon="12.613801632835905"><ele>111.99999999999999</ele><time>2026-05-02T14:29:11.875Z</time></trkpt><trkpt lat="42.567130339520936" lon="12.613913768068196"><ele>111.99999999999999</ele><time>2026-05-02T14:29:12.875Z</time></trkpt><trkpt lat="42.56711421096564" lon="12.614004761047493"><ele>112.0</ele><time>2026-05-02T14:29:13.875Z</time></trkpt><trkpt lat="42.567101100352964" lon="12.614124174678537"><ele>112.0</ele><time>2026-05-02T14:29:15.875Z</time></trkpt><trkpt lat="42.56699759014153" lon="12.613993070216791"><ele>112.00000000000001</ele><time>2026-05-02T14:29:18.875Z</time></trkpt><trkpt lat="42.56698506075708" lon="12.61383897657449"><ele>112.0</ele><time>2026-05-02T14:29:20.875Z</time></trkpt><trkpt lat="42.56700435578021" lon="12.61375662626398"><ele>112.0</ele><time>2026-05-02T14:29:21.875Z</time></trkpt><trkpt lat="42.567012003082375" lon="12.613666143181534"><ele>112.0</ele><time>2026-05-02T14:29:23.875Z</time></trkpt><trkpt lat="42.567027052888434" lon="12.61356643526941"><ele>112.00000000000001</ele><time>2026-05-02T14:29:27.875Z</time></trkpt><trkpt lat="42.56701420072166" lon="12.613479672672534"><ele>112.0</ele><time>2026-05-02T14:29:29.875Z</time></trkpt><trkpt lat="42.56703937432246" lon="12.613378570182036"><ele>112.0</ele><time>2026-05-02T14:29:31.875Z</time></trkpt><trkpt lat="42.56704803914655" lon="12.613289416850659"><ele>112.0</ele><time>2026-05-02T14:29:33.875Z</time></trkpt><trkpt lat="42.567125849721464" lon="12.612800042311143"><ele>112.0</ele><time>2026-05-02T14:29:35.875Z</time></trkpt><trkpt lat="42.56694520366044" lon="12.61266286640572"><ele>111.0</ele><time>2026-05-02T14:29:36.875Z</time></trkpt><trkpt lat="42.56657216449243" lon="12.613250953240602"><ele>111.0</ele><time>2026-05-02T14:29:38.875Z</time></trkpt><trkpt lat="42.56654039160585" lon="12.613348021860169"><ele>111.0</ele><time>2026-05-02T14:29:40.875Z</time></trkpt><trkpt lat="42.56685249216691" lon="12.613548877669608"><ele>111.0</ele><time>2026-05-02T14:29:42.875Z</time></trkpt></trkseg></trk></gpx>